<?xml version="1.0"?>
<gpx xmlns="http://www.topografix.com/GPX/1/1" xmlns:xsi="http://www.w3.org/2001/XMLSchema-instance" version="1.1" creator="GPX RubyGem 1.0.0 -- http://dougfales.github.io/gpx/" xsi:schemaLocation="http://www.topografix.com/GPX/1/1 http://www.topografix.com/GPX/1/1/gpx.xsd">
  <metadata>
    <name/>
    <time>2026-05-08T00:00:48+00:00</time>
    <bound minlat="90.0" minlon="180.0" maxlat="-90.0" maxlon="-180.0"/>
  </metadata>
  <trk>
    <name/>
    <trkseg>
      <trkpt lat="42.852432" lon="-0.136603">
        <time>2023-03-22T14:35:24+00:00</time>
        <ele>1460.0</ele>
      </trkpt>
      <trkpt lat="42.852434" lon="-0.136601">
        <time>2023-03-22T14:35:23+00:00</time>
        <ele>1460.0</ele>
      </trkpt>
      <trkpt lat="42.852436" lon="-0.1366">
        <time>2023-03-22T14:35:22+00:00</time>
        <ele>1460.0</ele>
      </trkpt>
      <trkpt lat="42.85243" lon="-0.136615">
        <time>2023-03-22T14:35:02+00:00</time>
        <ele>1460.0</ele>
      </trkpt>
      <trkpt lat="42.852428" lon="-0.136611">
        <time>2023-03-22T14:34:44+00:00</time>
        <ele>1460.0</ele>
      </trkpt>
      <trkpt lat="42.852426" lon="-0.136612">
        <time>2023-03-22T14:34:43+00:00</time>
        <ele>1460.0</ele>
      </trkpt>
      <trkpt lat="42.852413" lon="-0.136605">
        <time>2023-03-22T14:34:36+00:00</time>
        <ele>1460.0</ele>
      </trkpt>
      <trkpt lat="42.852424" lon="-0.136606">
        <time>2023-03-22T14:34:21+00:00</time>
        <ele>1460.0</ele>
      </trkpt>
      <trkpt lat="42.852395" lon="-0.136579">
        <time>2023-03-22T14:34:02+00:00</time>
        <ele>1460.0</ele>
      </trkpt>
      <trkpt lat="42.852254" lon="-0.136574">
        <time>2023-03-22T14:33:45+00:00</time>
        <ele>1461.0</ele>
      </trkpt>
      <trkpt lat="42.852009" lon="-0.136624">
        <time>2023-03-22T14:33:26+00:00</time>
        <ele>1461.0</ele>
      </trkpt>
      <trkpt lat="42.851805" lon="-0.136637">
        <time>2023-03-22T14:33:11+00:00</time>
        <ele>1462.0</ele>
      </trkpt>
      <trkpt lat="42.851747" lon="-0.13666">
        <time>2023-03-22T14:33:07+00:00</time>
        <ele>1463.0</ele>
      </trkpt>
      <trkpt lat="42.851735" lon="-0.136685">
        <time>2023-03-22T14:33:05+00:00</time>
        <ele>1463.0</ele>
      </trkpt>
      <trkpt lat="42.851592" lon="-0.136913">
        <time>2023-03-22T14:32:48+00:00</time>
        <ele>1467.0</ele>
      </trkpt>
      <trkpt lat="42.851569" lon="-0.136909">
        <time>2023-03-22T14:32:46+00:00</time>
        <ele>1467.0</ele>
      </trkpt>
      <trkpt lat="42.851426" lon="-0.136925">
        <time>2023-03-22T14:32:33+00:00</time>
        <ele>1470.0</ele>
      </trkpt>
      <trkpt lat="42.851479" lon="-0.137189">
        <time>2023-03-22T14:32:17+00:00</time>
        <ele>1468.0</ele>
      </trkpt>
      <trkpt lat="42.851467" lon="-0.137229">
        <time>2023-03-22T14:32:14+00:00</time>
        <ele>1469.0</ele>
      </trkpt>
      <trkpt lat="42.851362" lon="-0.137538">
        <time>2023-03-22T14:31:56+00:00</time>
        <ele>1470.0</ele>
      </trkpt>
      <trkpt lat="42.851305" lon="-0.137817">
        <time>2023-03-22T14:31:40+00:00</time>
        <ele>1471.0</ele>
      </trkpt>
      <trkpt lat="42.851274" lon="-0.138143">
        <time>2023-03-22T14:31:21+00:00</time>
        <ele>1473.0</ele>
      </trkpt>
      <trkpt lat="42.85126" lon="-0.138317">
        <time>2023-03-22T14:31:11+00:00</time>
        <ele>1474.0</ele>
      </trkpt>
      <trkpt lat="42.851254" lon="-0.138346">
        <time>2023-03-22T14:31:09+00:00</time>
        <ele>1474.0</ele>
      </trkpt>
      <trkpt lat="42.851123" lon="-0.138472">
        <time>2023-03-22T14:30:53+00:00</time>
        <ele>1478.0</ele>
      </trkpt>
      <trkpt lat="42.85108" lon="-0.13841">
        <time>2023-03-22T14:30:48+00:00</time>
        <ele>1479.0</ele>
      </trkpt>
      <trkpt lat="42.850994" lon="-0.138206">
        <time>2023-03-22T14:30:36+00:00</time>
        <ele>1480.0</ele>
      </trkpt>
      <trkpt lat="42.850962" lon="-0.138134">
        <time>2023-03-22T14:30:32+00:00</time>
        <ele>1481.0</ele>
      </trkpt>
      <trkpt lat="42.850917" lon="-0.138062">
        <time>2023-03-22T14:30:28+00:00</time>
        <ele>1482.0</ele>
      </trkpt>
      <trkpt lat="42.850688" lon="-0.138163">
        <time>2023-03-22T14:30:09+00:00</time>
        <ele>1491.0</ele>
      </trkpt>
      <trkpt lat="42.850682" lon="-0.138182">
        <time>2023-03-22T14:30:08+00:00</time>
        <ele>1492.0</ele>
      </trkpt>
      <trkpt lat="42.850678" lon="-0.138494">
        <time>2023-03-22T14:29:51+00:00</time>
        <ele>1494.0</ele>
      </trkpt>
      <trkpt lat="42.850719" lon="-0.138805">
        <time>2023-03-22T14:29:33+00:00</time>
        <ele>1493.0</ele>
      </trkpt>
      <trkpt lat="42.850694" lon="-0.13891">
        <time>2023-03-22T14:29:25+00:00</time>
        <ele>1495.0</ele>
      </trkpt>
      <trkpt lat="42.850584" lon="-0.138803">
        <time>2023-03-22T14:29:14+00:00</time>
        <ele>1499.0</ele>
      </trkpt>
      <trkpt lat="42.85056" lon="-0.138785">
        <time>2023-03-22T14:29:11+00:00</time>
        <ele>1500.0</ele>
      </trkpt>
      <trkpt lat="42.850493" lon="-0.138926">
        <time>2023-03-22T14:28:59+00:00</time>
        <ele>1503.0</ele>
      </trkpt>
      <trkpt lat="42.85044" lon="-0.139081">
        <time>2023-03-22T14:28:46+00:00</time>
        <ele>1505.0</ele>
      </trkpt>
      <trkpt lat="42.850425" lon="-0.139047">
        <time>2023-03-22T14:28:43+00:00</time>
        <ele>1506.0</ele>
      </trkpt>
      <trkpt lat="42.85043" lon="-0.139015">
        <time>2023-03-22T14:28:41+00:00</time>
        <ele>1506.0</ele>
      </trkpt>
      <trkpt lat="42.850421" lon="-0.138806">
        <time>2023-03-22T14:28:26+00:00</time>
        <ele>1507.0</ele>
      </trkpt>
      <trkpt lat="42.850367" lon="-0.138843">
        <time>2023-03-22T14:28:18+00:00</time>
        <ele>1509.0</ele>
      </trkpt>
      <trkpt lat="42.850311" lon="-0.138978">
        <time>2023-03-22T14:28:06+00:00</time>
        <ele>1512.0</ele>
      </trkpt>
      <trkpt lat="42.850276" lon="-0.139084">
        <time>2023-03-22T14:27:56+00:00</time>
        <ele>1513.0</ele>
      </trkpt>
      <trkpt lat="42.850259" lon="-0.13915">
        <time>2023-03-22T14:27:51+00:00</time>
        <ele>1513.0</ele>
      </trkpt>
      <trkpt lat="42.850225" lon="-0.139203">
        <time>2023-03-22T14:27:46+00:00</time>
        <ele>1515.0</ele>
      </trkpt>
      <trkpt lat="42.850196" lon="-0.13913">
        <time>2023-03-22T14:27:40+00:00</time>
        <ele>1516.0</ele>
      </trkpt>
      <trkpt lat="42.850194" lon="-0.139082">
        <time>2023-03-22T14:27:37+00:00</time>
        <ele>1517.0</ele>
      </trkpt>
      <trkpt lat="42.850227" lon="-0.138975">
        <time>2023-03-22T14:27:31+00:00</time>
        <ele>1516.0</ele>
      </trkpt>
      <trkpt lat="42.850235" lon="-0.138911">
        <time>2023-03-22T14:27:27+00:00</time>
        <ele>1516.0</ele>
      </trkpt>
      <trkpt lat="42.850241" lon="-0.138876">
        <time>2023-03-22T14:27:25+00:00</time>
        <ele>1515.0</ele>
      </trkpt>
      <trkpt lat="42.850262" lon="-0.138671">
        <time>2023-03-22T14:27:11+00:00</time>
        <ele>1515.0</ele>
      </trkpt>
      <trkpt lat="42.850254" lon="-0.138592">
        <time>2023-03-22T14:27:06+00:00</time>
        <ele>1515.0</ele>
      </trkpt>
      <trkpt lat="42.850257" lon="-0.13855">
        <time>2023-03-22T14:27:03+00:00</time>
        <ele>1515.0</ele>
      </trkpt>
      <trkpt lat="42.850197" lon="-0.138375">
        <time>2023-03-22T14:26:51+00:00</time>
        <ele>1518.0</ele>
      </trkpt>
      <trkpt lat="42.850158" lon="-0.138309">
        <time>2023-03-22T14:26:46+00:00</time>
        <ele>1520.0</ele>
      </trkpt>
      <trkpt lat="42.850124" lon="-0.138379">
        <time>2023-03-22T14:26:39+00:00</time>
        <ele>1522.0</ele>
      </trkpt>
      <trkpt lat="42.850115" lon="-0.13842">
        <time>2023-03-22T14:26:36+00:00</time>
        <ele>1522.0</ele>
      </trkpt>
      <trkpt lat="42.850105" lon="-0.1385">
        <time>2023-03-22T14:26:31+00:00</time>
        <ele>1523.0</ele>
      </trkpt>
      <trkpt lat="42.850048" lon="-0.138637">
        <time>2023-03-22T14:26:20+00:00</time>
        <ele>1526.0</ele>
      </trkpt>
      <trkpt lat="42.849977" lon="-0.138794">
        <time>2023-03-22T14:26:06+00:00</time>
        <ele>1530.0</ele>
      </trkpt>
      <trkpt lat="42.849987" lon="-0.138646">
        <time>2023-03-22T14:25:54+00:00</time>
        <ele>1530.0</ele>
      </trkpt>
      <trkpt lat="42.849986" lon="-0.138502">
        <time>2023-03-22T14:25:44+00:00</time>
        <ele>1530.0</ele>
      </trkpt>
      <trkpt lat="42.84988" lon="-0.138317">
        <time>2023-03-22T14:25:31+00:00</time>
        <ele>1537.0</ele>
      </trkpt>
      <trkpt lat="42.849852" lon="-0.138286">
        <time>2023-03-22T14:25:28+00:00</time>
        <ele>1539.0</ele>
      </trkpt>
      <trkpt lat="42.849723" lon="-0.138288">
        <time>2023-03-22T14:25:15+00:00</time>
        <ele>1547.0</ele>
      </trkpt>
      <trkpt lat="42.84969" lon="-0.138319">
        <time>2023-03-22T14:25:10+00:00</time>
        <ele>1548.0</ele>
      </trkpt>
      <trkpt lat="42.849676" lon="-0.13837">
        <time>2023-03-22T14:25:05+00:00</time>
        <ele>1549.0</ele>
      </trkpt>
      <trkpt lat="42.849624" lon="-0.138443">
        <time>2023-03-22T14:24:55+00:00</time>
        <ele>1551.0</ele>
      </trkpt>
      <trkpt lat="42.849582" lon="-0.138435">
        <time>2023-03-22T14:24:51+00:00</time>
        <ele>1552.0</ele>
      </trkpt>
      <trkpt lat="42.849536" lon="-0.13845">
        <time>2023-03-22T14:24:46+00:00</time>
        <ele>1554.0</ele>
      </trkpt>
      <trkpt lat="42.849445" lon="-0.138467">
        <time>2023-03-22T14:24:37+00:00</time>
        <ele>1558.0</ele>
      </trkpt>
      <trkpt lat="42.849422" lon="-0.138471">
        <time>2023-03-22T14:24:34+00:00</time>
        <ele>1559.0</ele>
      </trkpt>
      <trkpt lat="42.849382" lon="-0.138472">
        <time>2023-03-22T14:24:30+00:00</time>
        <ele>1560.0</ele>
      </trkpt>
      <trkpt lat="42.849331" lon="-0.138493">
        <time>2023-03-22T14:24:25+00:00</time>
        <ele>1562.0</ele>
      </trkpt>
      <trkpt lat="42.849268" lon="-0.138574">
        <time>2023-03-22T14:24:16+00:00</time>
        <ele>1563.0</ele>
      </trkpt>
      <trkpt lat="42.849224" lon="-0.138619">
        <time>2023-03-22T14:24:09+00:00</time>
        <ele>1564.0</ele>
      </trkpt>
      <trkpt lat="42.849096" lon="-0.138685">
        <time>2023-03-22T14:23:54+00:00</time>
        <ele>1566.0</ele>
      </trkpt>
      <trkpt lat="42.849028" lon="-0.138689">
        <time>2023-03-22T14:23:46+00:00</time>
        <ele>1568.0</ele>
      </trkpt>
      <trkpt lat="42.849028" lon="-0.138773">
        <time>2023-03-22T14:23:36+00:00</time>
        <ele>1566.0</ele>
      </trkpt>
      <trkpt lat="42.84891" lon="-0.138666">
        <time>2023-03-22T14:23:21+00:00</time>
        <ele>1570.0</ele>
      </trkpt>
      <trkpt lat="42.848803" lon="-0.13866">
        <time>2023-03-22T14:23:10+00:00</time>
        <ele>1573.0</ele>
      </trkpt>
      <trkpt lat="42.848695" lon="-0.138635">
        <time>2023-03-22T14:22:57+00:00</time>
        <ele>1576.0</ele>
      </trkpt>
      <trkpt lat="42.848585" lon="-0.138593">
        <time>2023-03-22T14:22:45+00:00</time>
        <ele>1580.0</ele>
      </trkpt>
      <trkpt lat="42.848505" lon="-0.138548">
        <time>2023-03-22T14:22:35+00:00</time>
        <ele>1583.0</ele>
      </trkpt>
      <trkpt lat="42.848453" lon="-0.138537">
        <time>2023-03-22T14:22:30+00:00</time>
        <ele>1584.0</ele>
      </trkpt>
      <trkpt lat="42.848388" lon="-0.138537">
        <time>2023-03-22T14:22:22+00:00</time>
        <ele>1585.0</ele>
      </trkpt>
      <trkpt lat="42.848367" lon="-0.138541">
        <time>2023-03-22T14:22:19+00:00</time>
        <ele>1585.0</ele>
      </trkpt>
      <trkpt lat="42.848243" lon="-0.138469">
        <time>2023-03-22T14:22:05+00:00</time>
        <ele>1589.0</ele>
      </trkpt>
      <trkpt lat="42.848135" lon="-0.138405">
        <time>2023-03-22T14:21:53+00:00</time>
        <ele>1593.0</ele>
      </trkpt>
      <trkpt lat="42.848083" lon="-0.138396">
        <time>2023-03-22T14:21:47+00:00</time>
        <ele>1595.0</ele>
      </trkpt>
      <trkpt lat="42.847967" lon="-0.138414">
        <time>2023-03-22T14:21:36+00:00</time>
        <ele>1596.0</ele>
      </trkpt>
      <trkpt lat="42.847835" lon="-0.138386">
        <time>2023-03-22T14:21:22+00:00</time>
        <ele>1600.0</ele>
      </trkpt>
      <trkpt lat="42.84775" lon="-0.138377">
        <time>2023-03-22T14:21:15+00:00</time>
        <ele>1601.0</ele>
      </trkpt>
      <trkpt lat="42.847684" lon="-0.138386">
        <time>2023-03-22T14:21:10+00:00</time>
        <ele>1603.0</ele>
      </trkpt>
      <trkpt lat="42.847634" lon="-0.13835">
        <time>2023-03-22T14:21:06+00:00</time>
        <ele>1605.0</ele>
      </trkpt>
      <trkpt lat="42.847621" lon="-0.138346">
        <time>2023-03-22T14:21:05+00:00</time>
        <ele>1606.0</ele>
      </trkpt>
      <trkpt lat="42.847486" lon="-0.138297">
        <time>2023-03-22T14:20:52+00:00</time>
        <ele>1612.0</ele>
      </trkpt>
      <trkpt lat="42.847354" lon="-0.138334">
        <time>2023-03-22T14:20:39+00:00</time>
        <ele>1615.0</ele>
      </trkpt>
      <trkpt lat="42.847238" lon="-0.138429">
        <time>2023-03-22T14:20:25+00:00</time>
        <ele>1616.0</ele>
      </trkpt>
      <trkpt lat="42.847113" lon="-0.138488">
        <time>2023-03-22T14:20:11+00:00</time>
        <ele>1618.0</ele>
      </trkpt>
      <trkpt lat="42.847071" lon="-0.138534">
        <time>2023-03-22T14:20:06+00:00</time>
        <ele>1619.0</ele>
      </trkpt>
      <trkpt lat="42.847014" lon="-0.138514">
        <time>2023-03-22T14:20:01+00:00</time>
        <ele>1622.0</ele>
      </trkpt>
      <trkpt lat="42.84699" lon="-0.138522">
        <time>2023-03-22T14:19:59+00:00</time>
        <ele>1622.0</ele>
      </trkpt>
      <trkpt lat="42.846903" lon="-0.138519">
        <time>2023-03-22T14:19:47+00:00</time>
        <ele>1626.0</ele>
      </trkpt>
      <trkpt lat="42.846863" lon="-0.138426">
        <time>2023-03-22T14:19:40+00:00</time>
        <ele>1631.0</ele>
      </trkpt>
      <trkpt lat="42.84683" lon="-0.138418">
        <time>2023-03-22T14:19:37+00:00</time>
        <ele>1632.0</ele>
      </trkpt>
      <trkpt lat="42.846738" lon="-0.138439">
        <time>2023-03-22T14:19:25+00:00</time>
        <ele>1635.0</ele>
      </trkpt>
      <trkpt lat="42.846693" lon="-0.138494">
        <time>2023-03-22T14:19:14+00:00</time>
        <ele>1635.0</ele>
      </trkpt>
      <trkpt lat="42.846649" lon="-0.138413">
        <time>2023-03-22T14:19:02+00:00</time>
        <ele>1639.0</ele>
      </trkpt>
      <trkpt lat="42.846586" lon="-0.13849">
        <time>2023-03-22T14:18:49+00:00</time>
        <ele>1639.0</ele>
      </trkpt>
      <trkpt lat="42.846537" lon="-0.138567">
        <time>2023-03-22T14:18:38+00:00</time>
        <ele>1638.0</ele>
      </trkpt>
      <trkpt lat="42.846478" lon="-0.138662">
        <time>2023-03-22T14:18:26+00:00</time>
        <ele>1636.0</ele>
      </trkpt>
      <trkpt lat="42.846348" lon="-0.138688">
        <time>2023-03-22T14:18:10+00:00</time>
        <ele>1640.0</ele>
      </trkpt>
      <trkpt lat="42.846285" lon="-0.138673">
        <time>2023-03-22T14:18:04+00:00</time>
        <ele>1642.0</ele>
      </trkpt>
      <trkpt lat="42.846125" lon="-0.138599">
        <time>2023-03-22T14:17:47+00:00</time>
        <ele>1648.0</ele>
      </trkpt>
      <trkpt lat="42.8461" lon="-0.138576">
        <time>2023-03-22T14:17:44+00:00</time>
        <ele>1650.0</ele>
      </trkpt>
      <trkpt lat="42.846025" lon="-0.138574">
        <time>2023-03-22T14:17:38+00:00</time>
        <ele>1651.0</ele>
      </trkpt>
      <trkpt lat="42.845924" lon="-0.138665">
        <time>2023-03-22T14:17:26+00:00</time>
        <ele>1650.0</ele>
      </trkpt>
      <trkpt lat="42.845919" lon="-0.138674">
        <time>2023-03-22T14:17:25+00:00</time>
        <ele>1650.0</ele>
      </trkpt>
      <trkpt lat="42.845912" lon="-0.138603">
        <time>2023-03-22T14:17:13+00:00</time>
        <ele>1653.0</ele>
      </trkpt>
      <trkpt lat="42.845916" lon="-0.138573">
        <time>2023-03-22T14:17:11+00:00</time>
        <ele>1654.0</ele>
      </trkpt>
      <trkpt lat="42.845879" lon="-0.138559">
        <time>2023-03-22T14:17:04+00:00</time>
        <ele>1655.0</ele>
      </trkpt>
      <trkpt lat="42.845867" lon="-0.138582">
        <time>2023-03-22T14:17:01+00:00</time>
        <ele>1654.0</ele>
      </trkpt>
      <trkpt lat="42.845805" lon="-0.138597">
        <time>2023-03-22T14:16:50+00:00</time>
        <ele>1655.0</ele>
      </trkpt>
      <trkpt lat="42.845709" lon="-0.138604">
        <time>2023-03-22T14:16:38+00:00</time>
        <ele>1656.0</ele>
      </trkpt>
      <trkpt lat="42.845602" lon="-0.138719">
        <time>2023-03-22T14:16:26+00:00</time>
        <ele>1652.0</ele>
      </trkpt>
      <trkpt lat="42.84556" lon="-0.138718">
        <time>2023-03-22T14:16:23+00:00</time>
        <ele>1653.0</ele>
      </trkpt>
      <trkpt lat="42.845523" lon="-0.138737">
        <time>2023-03-22T14:16:20+00:00</time>
        <ele>1653.0</ele>
      </trkpt>
      <trkpt lat="42.845502" lon="-0.138741">
        <time>2023-03-22T14:16:18+00:00</time>
        <ele>1653.0</ele>
      </trkpt>
      <trkpt lat="42.845433" lon="-0.138807">
        <time>2023-03-22T14:16:10+00:00</time>
        <ele>1651.0</ele>
      </trkpt>
      <trkpt lat="42.845404" lon="-0.13882">
        <time>2023-03-22T14:16:07+00:00</time>
        <ele>1651.0</ele>
      </trkpt>
      <trkpt lat="42.845339" lon="-0.138814">
        <time>2023-03-22T14:16:01+00:00</time>
        <ele>1652.0</ele>
      </trkpt>
      <trkpt lat="42.845309" lon="-0.138792">
        <time>2023-03-22T14:15:58+00:00</time>
        <ele>1653.0</ele>
      </trkpt>
      <trkpt lat="42.845179" lon="-0.13884">
        <time>2023-03-22T14:15:46+00:00</time>
        <ele>1653.0</ele>
      </trkpt>
      <trkpt lat="42.84504" lon="-0.13889">
        <time>2023-03-22T14:15:33+00:00</time>
        <ele>1652.0</ele>
      </trkpt>
      <trkpt lat="42.844866" lon="-0.138892">
        <time>2023-03-22T14:15:18+00:00</time>
        <ele>1654.0</ele>
      </trkpt>
      <trkpt lat="42.844814" lon="-0.138868">
        <time>2023-03-22T14:15:14+00:00</time>
        <ele>1655.0</ele>
      </trkpt>
      <trkpt lat="42.844752" lon="-0.138862">
        <time>2023-03-22T14:15:08+00:00</time>
        <ele>1656.0</ele>
      </trkpt>
      <trkpt lat="42.844729" lon="-0.138872">
        <time>2023-03-22T14:15:05+00:00</time>
        <ele>1656.0</ele>
      </trkpt>
      <trkpt lat="42.844615" lon="-0.138831">
        <time>2023-03-22T14:14:51+00:00</time>
        <ele>1659.0</ele>
      </trkpt>
      <trkpt lat="42.844525" lon="-0.138782">
        <time>2023-03-22T14:14:39+00:00</time>
        <ele>1661.0</ele>
      </trkpt>
      <trkpt lat="42.844397" lon="-0.138767">
        <time>2023-03-22T14:14:25+00:00</time>
        <ele>1664.0</ele>
      </trkpt>
      <trkpt lat="42.844372" lon="-0.138789">
        <time>2023-03-22T14:14:05+00:00</time>
        <ele>1664.0</ele>
      </trkpt>
      <trkpt lat="42.844368" lon="-0.13875">
        <time>2023-03-22T14:13:44+00:00</time>
        <ele>1665.0</ele>
      </trkpt>
      <trkpt lat="42.84433" lon="-0.138735">
        <time>2023-03-22T14:13:30+00:00</time>
        <ele>1666.0</ele>
      </trkpt>
      <trkpt lat="42.844229" lon="-0.138714">
        <time>2023-03-22T14:13:18+00:00</time>
        <ele>1668.0</ele>
      </trkpt>
      <trkpt lat="42.844085" lon="-0.138679">
        <time>2023-03-22T14:13:05+00:00</time>
        <ele>1671.0</ele>
      </trkpt>
      <trkpt lat="42.844007" lon="-0.138724">
        <time>2023-03-22T14:12:58+00:00</time>
        <ele>1671.0</ele>
      </trkpt>
      <trkpt lat="42.843961" lon="-0.138728">
        <time>2023-03-22T14:12:54+00:00</time>
        <ele>1671.0</ele>
      </trkpt>
      <trkpt lat="42.843886" lon="-0.138786">
        <time>2023-03-22T14:12:45+00:00</time>
        <ele>1670.0</ele>
      </trkpt>
      <trkpt lat="42.843763" lon="-0.138764">
        <time>2023-03-22T14:12:34+00:00</time>
        <ele>1672.0</ele>
      </trkpt>
      <trkpt lat="42.8437" lon="-0.138758">
        <time>2023-03-22T14:12:28+00:00</time>
        <ele>1673.0</ele>
      </trkpt>
      <trkpt lat="42.843681" lon="-0.138763">
        <time>2023-03-22T14:12:26+00:00</time>
        <ele>1673.0</ele>
      </trkpt>
      <trkpt lat="42.84357" lon="-0.138815">
        <time>2023-03-22T14:12:15+00:00</time>
        <ele>1673.0</ele>
      </trkpt>
      <trkpt lat="42.843478" lon="-0.13881">
        <time>2023-03-22T14:12:07+00:00</time>
        <ele>1674.0</ele>
      </trkpt>
      <trkpt lat="42.843445" lon="-0.138845">
        <time>2023-03-22T14:12:03+00:00</time>
        <ele>1673.0</ele>
      </trkpt>
      <trkpt lat="42.84327" lon="-0.138835">
        <time>2023-03-22T14:11:46+00:00</time>
        <ele>1675.0</ele>
      </trkpt>
      <trkpt lat="42.843185" lon="-0.138783">
        <time>2023-03-22T14:11:39+00:00</time>
        <ele>1677.0</ele>
      </trkpt>
      <trkpt lat="42.843149" lon="-0.138761">
        <time>2023-03-22T14:11:36+00:00</time>
        <ele>1678.0</ele>
      </trkpt>
      <trkpt lat="42.843" lon="-0.138797">
        <time>2023-03-22T14:11:22+00:00</time>
        <ele>1678.0</ele>
      </trkpt>
      <trkpt lat="42.842869" lon="-0.13876">
        <time>2023-03-22T14:11:11+00:00</time>
        <ele>1681.0</ele>
      </trkpt>
      <trkpt lat="42.842806" lon="-0.138743">
        <time>2023-03-22T14:11:04+00:00</time>
        <ele>1682.0</ele>
      </trkpt>
      <trkpt lat="42.84278" lon="-0.138757">
        <time>2023-03-22T14:11:01+00:00</time>
        <ele>1682.0</ele>
      </trkpt>
      <trkpt lat="42.842638" lon="-0.138759">
        <time>2023-03-22T14:10:47+00:00</time>
        <ele>1684.0</ele>
      </trkpt>
      <trkpt lat="42.84252" lon="-0.138811">
        <time>2023-03-22T14:10:35+00:00</time>
        <ele>1685.0</ele>
      </trkpt>
      <trkpt lat="42.842485" lon="-0.138848">
        <time>2023-03-22T14:10:31+00:00</time>
        <ele>1685.0</ele>
      </trkpt>
      <trkpt lat="42.842478" lon="-0.139069">
        <time>2023-03-22T14:10:16+00:00</time>
        <ele>1682.0</ele>
      </trkpt>
      <trkpt lat="42.842474" lon="-0.139117">
        <time>2023-03-22T14:10:12+00:00</time>
        <ele>1682.0</ele>
      </trkpt>
      <trkpt lat="42.842402" lon="-0.139129">
        <time>2023-03-22T14:10:05+00:00</time>
        <ele>1683.0</ele>
      </trkpt>
      <trkpt lat="42.842342" lon="-0.139167">
        <time>2023-03-22T14:09:58+00:00</time>
        <ele>1683.0</ele>
      </trkpt>
      <trkpt lat="42.842302" lon="-0.139158">
        <time>2023-03-22T14:09:54+00:00</time>
        <ele>1684.0</ele>
      </trkpt>
      <trkpt lat="42.842259" lon="-0.139119">
        <time>2023-03-22T14:09:50+00:00</time>
        <ele>1685.0</ele>
      </trkpt>
      <trkpt lat="42.842233" lon="-0.139098">
        <time>2023-03-22T14:09:48+00:00</time>
        <ele>1685.0</ele>
      </trkpt>
      <trkpt lat="42.84215" lon="-0.139085">
        <time>2023-03-22T14:09:41+00:00</time>
        <ele>1686.0</ele>
      </trkpt>
      <trkpt lat="42.842097" lon="-0.139129">
        <time>2023-03-22T14:09:34+00:00</time>
        <ele>1686.0</ele>
      </trkpt>
      <trkpt lat="42.842046" lon="-0.139139">
        <time>2023-03-22T14:09:29+00:00</time>
        <ele>1686.0</ele>
      </trkpt>
      <trkpt lat="42.841929" lon="-0.139084">
        <time>2023-03-22T14:09:18+00:00</time>
        <ele>1687.0</ele>
      </trkpt>
      <trkpt lat="42.84184" lon="-0.139083">
        <time>2023-03-22T14:09:10+00:00</time>
        <ele>1687.0</ele>
      </trkpt>
      <trkpt lat="42.841685" lon="-0.138957">
        <time>2023-03-22T14:08:55+00:00</time>
        <ele>1690.0</ele>
      </trkpt>
      <trkpt lat="42.841607" lon="-0.138918">
        <time>2023-03-22T14:08:49+00:00</time>
        <ele>1691.0</ele>
      </trkpt>
      <trkpt lat="42.841466" lon="-0.138903">
        <time>2023-03-22T14:08:37+00:00</time>
        <ele>1691.0</ele>
      </trkpt>
      <trkpt lat="42.841439" lon="-0.138924">
        <time>2023-03-22T14:08:34+00:00</time>
        <ele>1690.0</ele>
      </trkpt>
      <trkpt lat="42.841402" lon="-0.138941">
        <time>2023-03-22T14:08:30+00:00</time>
        <ele>1689.0</ele>
      </trkpt>
      <trkpt lat="42.841298" lon="-0.138903">
        <time>2023-03-22T14:08:19+00:00</time>
        <ele>1689.0</ele>
      </trkpt>
      <trkpt lat="42.841221" lon="-0.138844">
        <time>2023-03-22T14:08:07+00:00</time>
        <ele>1691.0</ele>
      </trkpt>
      <trkpt lat="42.841146" lon="-0.138742">
        <time>2023-03-22T14:07:55+00:00</time>
        <ele>1695.0</ele>
      </trkpt>
      <trkpt lat="42.841096" lon="-0.138653">
        <time>2023-03-22T14:07:44+00:00</time>
        <ele>1699.0</ele>
      </trkpt>
      <trkpt lat="42.841041" lon="-0.138641">
        <time>2023-03-22T14:07:32+00:00</time>
        <ele>1699.0</ele>
      </trkpt>
      <trkpt lat="42.840984" lon="-0.13857">
        <time>2023-03-22T14:07:20+00:00</time>
        <ele>1701.0</ele>
      </trkpt>
      <trkpt lat="42.840896" lon="-0.138528">
        <time>2023-03-22T14:07:12+00:00</time>
        <ele>1702.0</ele>
      </trkpt>
      <trkpt lat="42.84077" lon="-0.138473">
        <time>2023-03-22T14:07:01+00:00</time>
        <ele>1703.0</ele>
      </trkpt>
      <trkpt lat="42.840685" lon="-0.138442">
        <time>2023-03-22T14:06:52+00:00</time>
        <ele>1702.0</ele>
      </trkpt>
      <trkpt lat="42.840659" lon="-0.138442">
        <time>2023-03-22T14:06:48+00:00</time>
        <ele>1702.0</ele>
      </trkpt>
      <trkpt lat="42.840533" lon="-0.138448">
        <time>2023-03-22T14:06:33+00:00</time>
        <ele>1700.0</ele>
      </trkpt>
      <trkpt lat="42.840515" lon="-0.138453">
        <time>2023-03-22T14:06:31+00:00</time>
        <ele>1699.0</ele>
      </trkpt>
      <trkpt lat="42.840472" lon="-0.138449">
        <time>2023-03-22T14:06:27+00:00</time>
        <ele>1699.0</ele>
      </trkpt>
      <trkpt lat="42.84036" lon="-0.138419">
        <time>2023-03-22T14:06:13+00:00</time>
        <ele>1700.0</ele>
      </trkpt>
      <trkpt lat="42.840262" lon="-0.138422">
        <time>2023-03-22T14:05:59+00:00</time>
        <ele>1700.0</ele>
      </trkpt>
      <trkpt lat="42.840209" lon="-0.13844">
        <time>2023-03-22T14:05:52+00:00</time>
        <ele>1700.0</ele>
      </trkpt>
      <trkpt lat="42.840098" lon="-0.138508">
        <time>2023-03-22T14:05:39+00:00</time>
        <ele>1698.0</ele>
      </trkpt>
      <trkpt lat="42.840087" lon="-0.138505">
        <time>2023-03-22T14:05:38+00:00</time>
        <ele>1698.0</ele>
      </trkpt>
      <trkpt lat="42.840031" lon="-0.138502">
        <time>2023-03-22T14:05:33+00:00</time>
        <ele>1699.0</ele>
      </trkpt>
      <trkpt lat="42.840006" lon="-0.138529">
        <time>2023-03-22T14:05:30+00:00</time>
        <ele>1698.0</ele>
      </trkpt>
      <trkpt lat="42.839949" lon="-0.138557">
        <time>2023-03-22T14:05:24+00:00</time>
        <ele>1698.0</ele>
      </trkpt>
      <trkpt lat="42.839819" lon="-0.138589">
        <time>2023-03-22T14:05:12+00:00</time>
        <ele>1698.0</ele>
      </trkpt>
      <trkpt lat="42.839787" lon="-0.138603">
        <time>2023-03-22T14:05:09+00:00</time>
        <ele>1698.0</ele>
      </trkpt>
      <trkpt lat="42.839682" lon="-0.138596">
        <time>2023-03-22T14:05:00+00:00</time>
        <ele>1699.0</ele>
      </trkpt>
      <trkpt lat="42.839576" lon="-0.138636">
        <time>2023-03-22T14:04:51+00:00</time>
        <ele>1698.0</ele>
      </trkpt>
      <trkpt lat="42.839422" lon="-0.138641">
        <time>2023-03-22T14:04:36+00:00</time>
        <ele>1698.0</ele>
      </trkpt>
      <trkpt lat="42.839409" lon="-0.13864">
        <time>2023-03-22T14:04:34+00:00</time>
        <ele>1698.0</ele>
      </trkpt>
      <trkpt lat="42.83929" lon="-0.138685">
        <time>2023-03-22T14:04:21+00:00</time>
        <ele>1697.0</ele>
      </trkpt>
      <trkpt lat="42.839212" lon="-0.138726">
        <time>2023-03-22T14:04:13+00:00</time>
        <ele>1696.0</ele>
      </trkpt>
      <trkpt lat="42.83907" lon="-0.138791">
        <time>2023-03-22T14:03:59+00:00</time>
        <ele>1695.0</ele>
      </trkpt>
      <trkpt lat="42.839024" lon="-0.138824">
        <time>2023-03-22T14:03:54+00:00</time>
        <ele>1694.0</ele>
      </trkpt>
      <trkpt lat="42.838989" lon="-0.138794">
        <time>2023-03-22T14:03:50+00:00</time>
        <ele>1695.0</ele>
      </trkpt>
      <trkpt lat="42.838901" lon="-0.13882">
        <time>2023-03-22T14:03:42+00:00</time>
        <ele>1695.0</ele>
      </trkpt>
      <trkpt lat="42.83873" lon="-0.138776">
        <time>2023-03-22T14:03:26+00:00</time>
        <ele>1697.0</ele>
      </trkpt>
      <trkpt lat="42.83862" lon="-0.138749">
        <time>2023-03-22T14:03:15+00:00</time>
        <ele>1699.0</ele>
      </trkpt>
      <trkpt lat="42.838598" lon="-0.138748">
        <time>2023-03-22T14:03:12+00:00</time>
        <ele>1699.0</ele>
      </trkpt>
      <trkpt lat="42.838469" lon="-0.138715">
        <time>2023-03-22T14:03:01+00:00</time>
        <ele>1700.0</ele>
      </trkpt>
      <trkpt lat="42.838414" lon="-0.138703">
        <time>2023-03-22T14:02:56+00:00</time>
        <ele>1701.0</ele>
      </trkpt>
      <trkpt lat="42.83834" lon="-0.138683">
        <time>2023-03-22T14:02:49+00:00</time>
        <ele>1701.0</ele>
      </trkpt>
      <trkpt lat="42.83821" lon="-0.138592">
        <time>2023-03-22T14:02:34+00:00</time>
        <ele>1704.0</ele>
      </trkpt>
      <trkpt lat="42.838146" lon="-0.138549">
        <time>2023-03-22T14:02:28+00:00</time>
        <ele>1706.0</ele>
      </trkpt>
      <trkpt lat="42.838065" lon="-0.138496">
        <time>2023-03-22T14:02:20+00:00</time>
        <ele>1707.0</ele>
      </trkpt>
      <trkpt lat="42.837888" lon="-0.138404">
        <time>2023-03-22T14:02:04+00:00</time>
        <ele>1711.0</ele>
      </trkpt>
      <trkpt lat="42.83784" lon="-0.138385">
        <time>2023-03-22T14:02:00+00:00</time>
        <ele>1712.0</ele>
      </trkpt>
      <trkpt lat="42.837788" lon="-0.138338">
        <time>2023-03-22T14:01:53+00:00</time>
        <ele>1714.0</ele>
      </trkpt>
      <trkpt lat="42.837644" lon="-0.138302">
        <time>2023-03-22T14:01:38+00:00</time>
        <ele>1717.0</ele>
      </trkpt>
      <trkpt lat="42.83748" lon="-0.138287">
        <time>2023-03-22T14:01:22+00:00</time>
        <ele>1720.0</ele>
      </trkpt>
      <trkpt lat="42.837432" lon="-0.1383">
        <time>2023-03-22T14:01:18+00:00</time>
        <ele>1720.0</ele>
      </trkpt>
      <trkpt lat="42.837261" lon="-0.138354">
        <time>2023-03-22T14:01:02+00:00</time>
        <ele>1718.0</ele>
      </trkpt>
      <trkpt lat="42.837205" lon="-0.138345">
        <time>2023-03-22T14:00:56+00:00</time>
        <ele>1719.0</ele>
      </trkpt>
      <trkpt lat="42.836941" lon="-0.138322">
        <time>2023-03-22T14:00:35+00:00</time>
        <ele>1721.0</ele>
      </trkpt>
      <trkpt lat="42.836773" lon="-0.138322">
        <time>2023-03-22T14:00:20+00:00</time>
        <ele>1722.0</ele>
      </trkpt>
      <trkpt lat="42.83672" lon="-0.138327">
        <time>2023-03-22T14:00:16+00:00</time>
        <ele>1723.0</ele>
      </trkpt>
      <trkpt lat="42.836621" lon="-0.138311">
        <time>2023-03-22T14:00:08+00:00</time>
        <ele>1724.0</ele>
      </trkpt>
      <trkpt lat="42.836488" lon="-0.13836">
        <time>2023-03-22T13:59:56+00:00</time>
        <ele>1724.0</ele>
      </trkpt>
      <trkpt lat="42.836434" lon="-0.138391">
        <time>2023-03-22T13:59:51+00:00</time>
        <ele>1724.0</ele>
      </trkpt>
      <trkpt lat="42.836284" lon="-0.13851">
        <time>2023-03-22T13:59:36+00:00</time>
        <ele>1723.0</ele>
      </trkpt>
      <trkpt lat="42.836218" lon="-0.138558">
        <time>2023-03-22T13:59:29+00:00</time>
        <ele>1722.0</ele>
      </trkpt>
      <trkpt lat="42.836165" lon="-0.138594">
        <time>2023-03-22T13:59:23+00:00</time>
        <ele>1722.0</ele>
      </trkpt>
      <trkpt lat="42.836086" lon="-0.138621">
        <time>2023-03-22T13:59:16+00:00</time>
        <ele>1722.0</ele>
      </trkpt>
      <trkpt lat="42.835885" lon="-0.138667">
        <time>2023-03-22T13:59:00+00:00</time>
        <ele>1723.0</ele>
      </trkpt>
      <trkpt lat="42.835688" lon="-0.138646">
        <time>2023-03-22T13:58:44+00:00</time>
        <ele>1726.0</ele>
      </trkpt>
      <trkpt lat="42.835677" lon="-0.138648">
        <time>2023-03-22T13:58:43+00:00</time>
        <ele>1726.0</ele>
      </trkpt>
      <trkpt lat="42.835489" lon="-0.138694">
        <time>2023-03-22T13:58:28+00:00</time>
        <ele>1728.0</ele>
      </trkpt>
      <trkpt lat="42.83541" lon="-0.138693">
        <time>2023-03-22T13:58:22+00:00</time>
        <ele>1728.0</ele>
      </trkpt>
      <trkpt lat="42.835231" lon="-0.138751">
        <time>2023-03-22T13:58:06+00:00</time>
        <ele>1728.0</ele>
      </trkpt>
      <trkpt lat="42.835075" lon="-0.138913">
        <time>2023-03-22T13:57:50+00:00</time>
        <ele>1728.0</ele>
      </trkpt>
      <trkpt lat="42.834965" lon="-0.139072">
        <time>2023-03-22T13:57:36+00:00</time>
        <ele>1728.0</ele>
      </trkpt>
      <trkpt lat="42.834896" lon="-0.139128">
        <time>2023-03-22T13:57:29+00:00</time>
        <ele>1728.0</ele>
      </trkpt>
      <trkpt lat="42.834827" lon="-0.139315">
        <time>2023-03-22T13:57:16+00:00</time>
        <ele>1728.0</ele>
      </trkpt>
      <trkpt lat="42.834814" lon="-0.139424">
        <time>2023-03-22T13:57:09+00:00</time>
        <ele>1728.0</ele>
      </trkpt>
      <trkpt lat="42.83481" lon="-0.139498">
        <time>2023-03-22T13:56:53+00:00</time>
        <ele>1727.0</ele>
      </trkpt>
      <trkpt lat="42.834787" lon="-0.139486">
        <time>2023-03-22T13:56:34+00:00</time>
        <ele>1727.0</ele>
      </trkpt>
      <trkpt lat="42.834788" lon="-0.13949">
        <time>2023-03-22T13:56:16+00:00</time>
        <ele>1727.0</ele>
      </trkpt>
      <trkpt lat="42.83479" lon="-0.139478">
        <time>2023-03-22T13:55:54+00:00</time>
        <ele>1727.0</ele>
      </trkpt>
      <trkpt lat="42.834761" lon="-0.139567">
        <time>2023-03-22T13:55:43+00:00</time>
        <ele>1727.0</ele>
      </trkpt>
      <trkpt lat="42.834835" lon="-0.13984">
        <time>2023-03-22T13:55:25+00:00</time>
        <ele>1728.0</ele>
      </trkpt>
      <trkpt lat="42.834849" lon="-0.139908">
        <time>2023-03-22T13:55:20+00:00</time>
        <ele>1728.0</ele>
      </trkpt>
      <trkpt lat="42.834863" lon="-0.139931">
        <time>2023-03-22T13:55:18+00:00</time>
        <ele>1728.0</ele>
      </trkpt>
      <trkpt lat="42.834923" lon="-0.140034">
        <time>2023-03-22T13:55:08+00:00</time>
        <ele>1728.0</ele>
      </trkpt>
      <trkpt lat="42.835004" lon="-0.140118">
        <time>2023-03-22T13:54:59+00:00</time>
        <ele>1727.0</ele>
      </trkpt>
      <trkpt lat="42.835133" lon="-0.140326">
        <time>2023-03-22T13:54:42+00:00</time>
        <ele>1725.0</ele>
      </trkpt>
      <trkpt lat="42.835228" lon="-0.140555">
        <time>2023-03-22T13:54:26+00:00</time>
        <ele>1724.0</ele>
      </trkpt>
      <trkpt lat="42.835241" lon="-0.140615">
        <time>2023-03-22T13:54:22+00:00</time>
        <ele>1724.0</ele>
      </trkpt>
      <trkpt lat="42.835195" lon="-0.140671">
        <time>2023-03-22T13:54:17+00:00</time>
        <ele>1725.0</ele>
      </trkpt>
      <trkpt lat="42.8351" lon="-0.140899">
        <time>2023-03-22T13:54:02+00:00</time>
        <ele>1725.0</ele>
      </trkpt>
      <trkpt lat="42.835006" lon="-0.141161">
        <time>2023-03-22T13:53:45+00:00</time>
        <ele>1726.0</ele>
      </trkpt>
      <trkpt lat="42.834949" lon="-0.141266">
        <time>2023-03-22T13:53:37+00:00</time>
        <ele>1727.0</ele>
      </trkpt>
      <trkpt lat="42.834899" lon="-0.141309">
        <time>2023-03-22T13:53:32+00:00</time>
        <ele>1727.0</ele>
      </trkpt>
      <trkpt lat="42.834861" lon="-0.141349">
        <time>2023-03-22T13:53:28+00:00</time>
        <ele>1727.0</ele>
      </trkpt>
      <trkpt lat="42.834734" lon="-0.141429">
        <time>2023-03-22T13:53:16+00:00</time>
        <ele>1727.0</ele>
      </trkpt>
      <trkpt lat="42.834535" lon="-0.141535">
        <time>2023-03-22T13:52:58+00:00</time>
        <ele>1727.0</ele>
      </trkpt>
      <trkpt lat="42.834486" lon="-0.141586">
        <time>2023-03-22T13:52:53+00:00</time>
        <ele>1728.0</ele>
      </trkpt>
      <trkpt lat="42.834453" lon="-0.141605">
        <time>2023-03-22T13:52:50+00:00</time>
        <ele>1728.0</ele>
      </trkpt>
      <trkpt lat="42.834373" lon="-0.14164">
        <time>2023-03-22T13:52:43+00:00</time>
        <ele>1728.0</ele>
      </trkpt>
      <trkpt lat="42.834241" lon="-0.141659">
        <time>2023-03-22T13:52:31+00:00</time>
        <ele>1727.0</ele>
      </trkpt>
      <trkpt lat="42.834213" lon="-0.141643">
        <time>2023-03-22T13:52:28+00:00</time>
        <ele>1727.0</ele>
      </trkpt>
      <trkpt lat="42.834136" lon="-0.141662">
        <time>2023-03-22T13:52:21+00:00</time>
        <ele>1726.0</ele>
      </trkpt>
      <trkpt lat="42.83402" lon="-0.141751">
        <time>2023-03-22T13:52:09+00:00</time>
        <ele>1727.0</ele>
      </trkpt>
      <trkpt lat="42.833966" lon="-0.141778">
        <time>2023-03-22T13:52:04+00:00</time>
        <ele>1727.0</ele>
      </trkpt>
      <trkpt lat="42.83378" lon="-0.141834">
        <time>2023-03-22T13:51:48+00:00</time>
        <ele>1728.0</ele>
      </trkpt>
      <trkpt lat="42.833722" lon="-0.141862">
        <time>2023-03-22T13:51:42+00:00</time>
        <ele>1729.0</ele>
      </trkpt>
      <trkpt lat="42.833555" lon="-0.141864">
        <time>2023-03-22T13:51:28+00:00</time>
        <ele>1729.0</ele>
      </trkpt>
      <trkpt lat="42.833351" lon="-0.141766">
        <time>2023-03-22T13:51:11+00:00</time>
        <ele>1728.0</ele>
      </trkpt>
      <trkpt lat="42.833155" lon="-0.141696">
        <time>2023-03-22T13:50:54+00:00</time>
        <ele>1726.0</ele>
      </trkpt>
      <trkpt lat="42.833029" lon="-0.141694">
        <time>2023-03-22T13:50:44+00:00</time>
        <ele>1726.0</ele>
      </trkpt>
      <trkpt lat="42.833006" lon="-0.141685">
        <time>2023-03-22T13:50:42+00:00</time>
        <ele>1726.0</ele>
      </trkpt>
      <trkpt lat="42.832791" lon="-0.141707">
        <time>2023-03-22T13:50:26+00:00</time>
        <ele>1728.0</ele>
      </trkpt>
      <trkpt lat="42.832674" lon="-0.141702">
        <time>2023-03-22T13:50:16+00:00</time>
        <ele>1728.0</ele>
      </trkpt>
      <trkpt lat="42.832661" lon="-0.1417">
        <time>2023-03-22T13:50:15+00:00</time>
        <ele>1728.0</ele>
      </trkpt>
      <trkpt lat="42.832423" lon="-0.141672">
        <time>2023-03-22T13:49:57+00:00</time>
        <ele>1729.0</ele>
      </trkpt>
      <trkpt lat="42.832182" lon="-0.141595">
        <time>2023-03-22T13:49:39+00:00</time>
        <ele>1729.0</ele>
      </trkpt>
      <trkpt lat="42.832028" lon="-0.141536">
        <time>2023-03-22T13:49:26+00:00</time>
        <ele>1728.0</ele>
      </trkpt>
      <trkpt lat="42.831814" lon="-0.141568">
        <time>2023-03-22T13:49:09+00:00</time>
        <ele>1728.0</ele>
      </trkpt>
      <trkpt lat="42.83177" lon="-0.1416">
        <time>2023-03-22T13:49:05+00:00</time>
        <ele>1729.0</ele>
      </trkpt>
      <trkpt lat="42.831671" lon="-0.141666">
        <time>2023-03-22T13:48:56+00:00</time>
        <ele>1729.0</ele>
      </trkpt>
      <trkpt lat="42.831574" lon="-0.141704">
        <time>2023-03-22T13:48:48+00:00</time>
        <ele>1729.0</ele>
      </trkpt>
      <trkpt lat="42.831386" lon="-0.141823">
        <time>2023-03-22T13:48:31+00:00</time>
        <ele>1730.0</ele>
      </trkpt>
      <trkpt lat="42.831233" lon="-0.141861">
        <time>2023-03-22T13:48:17+00:00</time>
        <ele>1729.0</ele>
      </trkpt>
      <trkpt lat="42.831221" lon="-0.14186">
        <time>2023-03-22T13:48:16+00:00</time>
        <ele>1729.0</ele>
      </trkpt>
      <trkpt lat="42.831086" lon="-0.141888">
        <time>2023-03-22T13:48:03+00:00</time>
        <ele>1729.0</ele>
      </trkpt>
      <trkpt lat="42.831001" lon="-0.141894">
        <time>2023-03-22T13:47:54+00:00</time>
        <ele>1729.0</ele>
      </trkpt>
      <trkpt lat="42.830934" lon="-0.14187">
        <time>2023-03-22T13:47:44+00:00</time>
        <ele>1729.0</ele>
      </trkpt>
      <trkpt lat="42.830893" lon="-0.141875">
        <time>2023-03-22T13:47:39+00:00</time>
        <ele>1729.0</ele>
      </trkpt>
      <trkpt lat="42.830768" lon="-0.141871">
        <time>2023-03-22T13:47:24+00:00</time>
        <ele>1729.0</ele>
      </trkpt>
      <trkpt lat="42.830697" lon="-0.141848">
        <time>2023-03-22T13:47:18+00:00</time>
        <ele>1729.0</ele>
      </trkpt>
      <trkpt lat="42.830586" lon="-0.141867">
        <time>2023-03-22T13:47:06+00:00</time>
        <ele>1730.0</ele>
      </trkpt>
      <trkpt lat="42.830559" lon="-0.141875">
        <time>2023-03-22T13:47:03+00:00</time>
        <ele>1730.0</ele>
      </trkpt>
      <trkpt lat="42.830444" lon="-0.141831">
        <time>2023-03-22T13:46:50+00:00</time>
        <ele>1730.0</ele>
      </trkpt>
      <trkpt lat="42.830359" lon="-0.141811">
        <time>2023-03-22T13:46:43+00:00</time>
        <ele>1730.0</ele>
      </trkpt>
      <trkpt lat="42.830279" lon="-0.141758">
        <time>2023-03-22T13:46:35+00:00</time>
        <ele>1729.0</ele>
      </trkpt>
      <trkpt lat="42.830153" lon="-0.141715">
        <time>2023-03-22T13:46:23+00:00</time>
        <ele>1728.0</ele>
      </trkpt>
      <trkpt lat="42.830048" lon="-0.14168">
        <time>2023-03-22T13:46:10+00:00</time>
        <ele>1729.0</ele>
      </trkpt>
      <trkpt lat="42.82991" lon="-0.14161">
        <time>2023-03-22T13:45:56+00:00</time>
        <ele>1729.0</ele>
      </trkpt>
      <trkpt lat="42.829806" lon="-0.141574">
        <time>2023-03-22T13:45:44+00:00</time>
        <ele>1730.0</ele>
      </trkpt>
      <trkpt lat="42.829665" lon="-0.141517">
        <time>2023-03-22T13:45:30+00:00</time>
        <ele>1730.0</ele>
      </trkpt>
      <trkpt lat="42.829567" lon="-0.141434">
        <time>2023-03-22T13:45:17+00:00</time>
        <ele>1728.0</ele>
      </trkpt>
      <trkpt lat="42.829552" lon="-0.141418">
        <time>2023-03-22T13:45:15+00:00</time>
        <ele>1728.0</ele>
      </trkpt>
      <trkpt lat="42.829516" lon="-0.141393">
        <time>2023-03-22T13:45:11+00:00</time>
        <ele>1728.0</ele>
      </trkpt>
      <trkpt lat="42.829497" lon="-0.141384">
        <time>2023-03-22T13:45:09+00:00</time>
        <ele>1728.0</ele>
      </trkpt>
      <trkpt lat="42.829474" lon="-0.141355">
        <time>2023-03-22T13:45:06+00:00</time>
        <ele>1728.0</ele>
      </trkpt>
      <trkpt lat="42.829401" lon="-0.141301">
        <time>2023-03-22T13:44:58+00:00</time>
        <ele>1727.0</ele>
      </trkpt>
      <trkpt lat="42.829378" lon="-0.141279">
        <time>2023-03-22T13:44:55+00:00</time>
        <ele>1727.0</ele>
      </trkpt>
      <trkpt lat="42.829348" lon="-0.141288">
        <time>2023-03-22T13:44:51+00:00</time>
        <ele>1728.0</ele>
      </trkpt>
      <trkpt lat="42.829332" lon="-0.141298">
        <time>2023-03-22T13:44:49+00:00</time>
        <ele>1728.0</ele>
      </trkpt>
      <trkpt lat="42.829251" lon="-0.141302">
        <time>2023-03-22T13:44:41+00:00</time>
        <ele>1729.0</ele>
      </trkpt>
      <trkpt lat="42.829214" lon="-0.141275">
        <time>2023-03-22T13:44:37+00:00</time>
        <ele>1729.0</ele>
      </trkpt>
      <trkpt lat="42.829199" lon="-0.141257">
        <time>2023-03-22T13:44:35+00:00</time>
        <ele>1728.0</ele>
      </trkpt>
      <trkpt lat="42.829136" lon="-0.141204">
        <time>2023-03-22T13:44:29+00:00</time>
        <ele>1727.0</ele>
      </trkpt>
      <trkpt lat="42.829069" lon="-0.14113">
        <time>2023-03-22T13:44:22+00:00</time>
        <ele>1726.0</ele>
      </trkpt>
      <trkpt lat="42.828967" lon="-0.14109">
        <time>2023-03-22T13:44:12+00:00</time>
        <ele>1726.0</ele>
      </trkpt>
      <trkpt lat="42.828912" lon="-0.141072">
        <time>2023-03-22T13:44:07+00:00</time>
        <ele>1726.0</ele>
      </trkpt>
      <trkpt lat="42.828883" lon="-0.141078">
        <time>2023-03-22T13:44:04+00:00</time>
        <ele>1727.0</ele>
      </trkpt>
      <trkpt lat="42.828704" lon="-0.141024">
        <time>2023-03-22T13:43:47+00:00</time>
        <ele>1727.0</ele>
      </trkpt>
      <trkpt lat="42.82867" lon="-0.140983">
        <time>2023-03-22T13:43:43+00:00</time>
        <ele>1727.0</ele>
      </trkpt>
      <trkpt lat="42.828635" lon="-0.140953">
        <time>2023-03-22T13:43:39+00:00</time>
        <ele>1727.0</ele>
      </trkpt>
      <trkpt lat="42.828574" lon="-0.140913">
        <time>2023-03-22T13:43:33+00:00</time>
        <ele>1726.0</ele>
      </trkpt>
      <trkpt lat="42.828468" lon="-0.140784">
        <time>2023-03-22T13:43:20+00:00</time>
        <ele>1726.0</ele>
      </trkpt>
      <trkpt lat="42.828441" lon="-0.140757">
        <time>2023-03-22T13:43:16+00:00</time>
        <ele>1726.0</ele>
      </trkpt>
      <trkpt lat="42.828377" lon="-0.140672">
        <time>2023-03-22T13:43:05+00:00</time>
        <ele>1726.0</ele>
      </trkpt>
      <trkpt lat="42.828372" lon="-0.140662">
        <time>2023-03-22T13:43:04+00:00</time>
        <ele>1726.0</ele>
      </trkpt>
      <trkpt lat="42.828289" lon="-0.140555">
        <time>2023-03-22T13:42:50+00:00</time>
        <ele>1725.0</ele>
      </trkpt>
      <trkpt lat="42.828245" lon="-0.140539">
        <time>2023-03-22T13:42:45+00:00</time>
        <ele>1725.0</ele>
      </trkpt>
      <trkpt lat="42.828227" lon="-0.140527">
        <time>2023-03-22T13:42:43+00:00</time>
        <ele>1725.0</ele>
      </trkpt>
      <trkpt lat="42.8281" lon="-0.140359">
        <time>2023-03-22T13:42:27+00:00</time>
        <ele>1725.0</ele>
      </trkpt>
      <trkpt lat="42.828086" lon="-0.140333">
        <time>2023-03-22T13:42:24+00:00</time>
        <ele>1725.0</ele>
      </trkpt>
      <trkpt lat="42.828086" lon="-0.140301">
        <time>2023-03-22T13:42:11+00:00</time>
        <ele>1725.0</ele>
      </trkpt>
      <trkpt lat="42.827962" lon="-0.140357">
        <time>2023-03-22T13:41:55+00:00</time>
        <ele>1725.0</ele>
      </trkpt>
      <trkpt lat="42.8279" lon="-0.140346">
        <time>2023-03-22T13:41:50+00:00</time>
        <ele>1726.0</ele>
      </trkpt>
      <trkpt lat="42.827728" lon="-0.140346">
        <time>2023-03-22T13:41:35+00:00</time>
        <ele>1726.0</ele>
      </trkpt>
      <trkpt lat="42.827674" lon="-0.140357">
        <time>2023-03-22T13:41:30+00:00</time>
        <ele>1726.0</ele>
      </trkpt>
      <trkpt lat="42.82757" lon="-0.140291">
        <time>2023-03-22T13:41:21+00:00</time>
        <ele>1726.0</ele>
      </trkpt>
      <trkpt lat="42.827352" lon="-0.140271">
        <time>2023-03-22T13:41:03+00:00</time>
        <ele>1728.0</ele>
      </trkpt>
      <trkpt lat="42.827219" lon="-0.140162">
        <time>2023-03-22T13:40:49+00:00</time>
        <ele>1729.0</ele>
      </trkpt>
      <trkpt lat="42.827182" lon="-0.140174">
        <time>2023-03-22T13:40:45+00:00</time>
        <ele>1729.0</ele>
      </trkpt>
      <trkpt lat="42.827117" lon="-0.140145">
        <time>2023-03-22T13:40:38+00:00</time>
        <ele>1729.0</ele>
      </trkpt>
      <trkpt lat="42.827063" lon="-0.140087">
        <time>2023-03-22T13:40:32+00:00</time>
        <ele>1729.0</ele>
      </trkpt>
      <trkpt lat="42.82701" lon="-0.140091">
        <time>2023-03-22T13:40:27+00:00</time>
        <ele>1730.0</ele>
      </trkpt>
      <trkpt lat="42.826894" lon="-0.139999">
        <time>2023-03-22T13:40:15+00:00</time>
        <ele>1730.0</ele>
      </trkpt>
      <trkpt lat="42.82682" lon="-0.139987">
        <time>2023-03-22T13:40:08+00:00</time>
        <ele>1730.0</ele>
      </trkpt>
      <trkpt lat="42.826763" lon="-0.139956">
        <time>2023-03-22T13:40:03+00:00</time>
        <ele>1730.0</ele>
      </trkpt>
      <trkpt lat="42.82665" lon="-0.139986">
        <time>2023-03-22T13:39:53+00:00</time>
        <ele>1731.0</ele>
      </trkpt>
      <trkpt lat="42.826551" lon="-0.139996">
        <time>2023-03-22T13:39:44+00:00</time>
        <ele>1732.0</ele>
      </trkpt>
      <trkpt lat="42.826497" lon="-0.139963">
        <time>2023-03-22T13:39:39+00:00</time>
        <ele>1732.0</ele>
      </trkpt>
      <trkpt lat="42.826443" lon="-0.139966">
        <time>2023-03-22T13:39:34+00:00</time>
        <ele>1732.0</ele>
      </trkpt>
      <trkpt lat="42.8264" lon="-0.139952">
        <time>2023-03-22T13:39:30+00:00</time>
        <ele>1732.0</ele>
      </trkpt>
      <trkpt lat="42.826302" lon="-0.140016">
        <time>2023-03-22T13:39:20+00:00</time>
        <ele>1734.0</ele>
      </trkpt>
      <trkpt lat="42.826184" lon="-0.140024">
        <time>2023-03-22T13:39:06+00:00</time>
        <ele>1735.0</ele>
      </trkpt>
      <trkpt lat="42.826094" lon="-0.140013">
        <time>2023-03-22T13:38:57+00:00</time>
        <ele>1736.0</ele>
      </trkpt>
      <trkpt lat="42.826053" lon="-0.139995">
        <time>2023-03-22T13:38:53+00:00</time>
        <ele>1736.0</ele>
      </trkpt>
      <trkpt lat="42.825979" lon="-0.140009">
        <time>2023-03-22T13:38:46+00:00</time>
        <ele>1737.0</ele>
      </trkpt>
      <trkpt lat="42.825935" lon="-0.140043">
        <time>2023-03-22T13:38:41+00:00</time>
        <ele>1738.0</ele>
      </trkpt>
      <trkpt lat="42.825901" lon="-0.14004">
        <time>2023-03-22T13:38:38+00:00</time>
        <ele>1738.0</ele>
      </trkpt>
      <trkpt lat="42.825857" lon="-0.140018">
        <time>2023-03-22T13:38:34+00:00</time>
        <ele>1738.0</ele>
      </trkpt>
      <trkpt lat="42.82575" lon="-0.139897">
        <time>2023-03-22T13:38:22+00:00</time>
        <ele>1736.0</ele>
      </trkpt>
      <trkpt lat="42.825676" lon="-0.139857">
        <time>2023-03-22T13:38:16+00:00</time>
        <ele>1736.0</ele>
      </trkpt>
      <trkpt lat="42.825643" lon="-0.139843">
        <time>2023-03-22T13:38:12+00:00</time>
        <ele>1736.0</ele>
      </trkpt>
      <trkpt lat="42.825473" lon="-0.139802">
        <time>2023-03-22T13:37:56+00:00</time>
        <ele>1737.0</ele>
      </trkpt>
      <trkpt lat="42.82527" lon="-0.139819">
        <time>2023-03-22T13:37:39+00:00</time>
        <ele>1740.0</ele>
      </trkpt>
      <trkpt lat="42.825125" lon="-0.139789">
        <time>2023-03-22T13:37:25+00:00</time>
        <ele>1741.0</ele>
      </trkpt>
      <trkpt lat="42.825001" lon="-0.139777">
        <time>2023-03-22T13:37:12+00:00</time>
        <ele>1743.0</ele>
      </trkpt>
      <trkpt lat="42.824952" lon="-0.139734">
        <time>2023-03-22T13:37:07+00:00</time>
        <ele>1743.0</ele>
      </trkpt>
      <trkpt lat="42.824831" lon="-0.139705">
        <time>2023-03-22T13:36:55+00:00</time>
        <ele>1744.0</ele>
      </trkpt>
      <trkpt lat="42.824672" lon="-0.139723">
        <time>2023-03-22T13:36:37+00:00</time>
        <ele>1748.0</ele>
      </trkpt>
      <trkpt lat="42.824595" lon="-0.139666">
        <time>2023-03-22T13:36:29+00:00</time>
        <ele>1749.0</ele>
      </trkpt>
      <trkpt lat="42.824505" lon="-0.13958">
        <time>2023-03-22T13:36:18+00:00</time>
        <ele>1751.0</ele>
      </trkpt>
      <trkpt lat="42.824417" lon="-0.139485">
        <time>2023-03-22T13:36:05+00:00</time>
        <ele>1754.0</ele>
      </trkpt>
      <trkpt lat="42.824318" lon="-0.13935">
        <time>2023-03-22T13:35:51+00:00</time>
        <ele>1756.0</ele>
      </trkpt>
      <trkpt lat="42.824237" lon="-0.139259">
        <time>2023-03-22T13:35:39+00:00</time>
        <ele>1759.0</ele>
      </trkpt>
      <trkpt lat="42.824126" lon="-0.139084">
        <time>2023-03-22T13:35:23+00:00</time>
        <ele>1762.0</ele>
      </trkpt>
      <trkpt lat="42.824118" lon="-0.139076">
        <time>2023-03-22T13:35:22+00:00</time>
        <ele>1762.0</ele>
      </trkpt>
      <trkpt lat="42.824016" lon="-0.138973">
        <time>2023-03-22T13:35:07+00:00</time>
        <ele>1765.0</ele>
      </trkpt>
      <trkpt lat="42.823866" lon="-0.138878">
        <time>2023-03-22T13:34:49+00:00</time>
        <ele>1768.0</ele>
      </trkpt>
      <trkpt lat="42.823861" lon="-0.138793">
        <time>2023-03-22T13:34:39+00:00</time>
        <ele>1768.0</ele>
      </trkpt>
      <trkpt lat="42.823882" lon="-0.13858">
        <time>2023-03-22T13:34:24+00:00</time>
        <ele>1771.0</ele>
      </trkpt>
      <trkpt lat="42.823922" lon="-0.138502">
        <time>2023-03-22T13:34:15+00:00</time>
        <ele>1772.0</ele>
      </trkpt>
      <trkpt lat="42.823982" lon="-0.138372">
        <time>2023-03-22T13:34:01+00:00</time>
        <ele>1776.0</ele>
      </trkpt>
      <trkpt lat="42.823957" lon="-0.138306">
        <time>2023-03-22T13:33:48+00:00</time>
        <ele>1778.0</ele>
      </trkpt>
      <trkpt lat="42.823823" lon="-0.138312">
        <time>2023-03-22T13:33:33+00:00</time>
        <ele>1778.0</ele>
      </trkpt>
      <trkpt lat="42.823813" lon="-0.138314">
        <time>2023-03-22T13:33:32+00:00</time>
        <ele>1778.0</ele>
      </trkpt>
      <trkpt lat="42.823654" lon="-0.138363">
        <time>2023-03-22T13:33:15+00:00</time>
        <ele>1779.0</ele>
      </trkpt>
      <trkpt lat="42.823523" lon="-0.138414">
        <time>2023-03-22T13:33:01+00:00</time>
        <ele>1779.0</ele>
      </trkpt>
      <trkpt lat="42.82347" lon="-0.13845">
        <time>2023-03-22T13:32:52+00:00</time>
        <ele>1779.0</ele>
      </trkpt>
      <trkpt lat="42.823381" lon="-0.138391">
        <time>2023-03-22T13:32:38+00:00</time>
        <ele>1780.0</ele>
      </trkpt>
      <trkpt lat="42.823372" lon="-0.138364">
        <time>2023-03-22T13:32:36+00:00</time>
        <ele>1780.0</ele>
      </trkpt>
      <trkpt lat="42.823291" lon="-0.138325">
        <time>2023-03-22T13:32:27+00:00</time>
        <ele>1781.0</ele>
      </trkpt>
      <trkpt lat="42.82316" lon="-0.13817">
        <time>2023-03-22T13:32:12+00:00</time>
        <ele>1782.0</ele>
      </trkpt>
      <trkpt lat="42.823112" lon="-0.138113">
        <time>2023-03-22T13:32:07+00:00</time>
        <ele>1782.0</ele>
      </trkpt>
      <trkpt lat="42.823095" lon="-0.13808">
        <time>2023-03-22T13:32:04+00:00</time>
        <ele>1782.0</ele>
      </trkpt>
      <trkpt lat="42.823042" lon="-0.137875">
        <time>2023-03-22T13:31:50+00:00</time>
        <ele>1785.0</ele>
      </trkpt>
      <trkpt lat="42.822885" lon="-0.137659">
        <time>2023-03-22T13:31:32+00:00</time>
        <ele>1789.0</ele>
      </trkpt>
      <trkpt lat="42.822841" lon="-0.137664">
        <time>2023-03-22T13:31:28+00:00</time>
        <ele>1789.0</ele>
      </trkpt>
      <trkpt lat="42.822804" lon="-0.137652">
        <time>2023-03-22T13:31:25+00:00</time>
        <ele>1790.0</ele>
      </trkpt>
      <trkpt lat="42.822784" lon="-0.137641">
        <time>2023-03-22T13:31:23+00:00</time>
        <ele>1790.0</ele>
      </trkpt>
      <trkpt lat="42.822678" lon="-0.137621">
        <time>2023-03-22T13:31:13+00:00</time>
        <ele>1792.0</ele>
      </trkpt>
      <trkpt lat="42.822639" lon="-0.137606">
        <time>2023-03-22T13:31:09+00:00</time>
        <ele>1793.0</ele>
      </trkpt>
      <trkpt lat="42.8226" lon="-0.137586">
        <time>2023-03-22T13:31:05+00:00</time>
        <ele>1793.0</ele>
      </trkpt>
      <trkpt lat="42.822468" lon="-0.13756">
        <time>2023-03-22T13:30:52+00:00</time>
        <ele>1795.0</ele>
      </trkpt>
      <trkpt lat="42.822402" lon="-0.137529">
        <time>2023-03-22T13:30:46+00:00</time>
        <ele>1795.0</ele>
      </trkpt>
      <trkpt lat="42.822252" lon="-0.13749">
        <time>2023-03-22T13:30:33+00:00</time>
        <ele>1796.0</ele>
      </trkpt>
      <trkpt lat="42.822075" lon="-0.137471">
        <time>2023-03-22T13:30:17+00:00</time>
        <ele>1796.0</ele>
      </trkpt>
      <trkpt lat="42.822018" lon="-0.137443">
        <time>2023-03-22T13:30:12+00:00</time>
        <ele>1796.0</ele>
      </trkpt>
      <trkpt lat="42.821999" lon="-0.13744">
        <time>2023-03-22T13:30:10+00:00</time>
        <ele>1796.0</ele>
      </trkpt>
      <trkpt lat="42.821836" lon="-0.137416">
        <time>2023-03-22T13:29:55+00:00</time>
        <ele>1795.0</ele>
      </trkpt>
      <trkpt lat="42.821681" lon="-0.137297">
        <time>2023-03-22T13:29:40+00:00</time>
        <ele>1799.0</ele>
      </trkpt>
      <trkpt lat="42.821487" lon="-0.137271">
        <time>2023-03-22T13:29:23+00:00</time>
        <ele>1800.0</ele>
      </trkpt>
      <trkpt lat="42.821334" lon="-0.137194">
        <time>2023-03-22T13:29:08+00:00</time>
        <ele>1804.0</ele>
      </trkpt>
      <trkpt lat="42.821234" lon="-0.137185">
        <time>2023-03-22T13:28:59+00:00</time>
        <ele>1804.0</ele>
      </trkpt>
      <trkpt lat="42.821035" lon="-0.137203">
        <time>2023-03-22T13:28:42+00:00</time>
        <ele>1807.0</ele>
      </trkpt>
      <trkpt lat="42.820881" lon="-0.1372">
        <time>2023-03-22T13:28:26+00:00</time>
        <ele>1810.0</ele>
      </trkpt>
      <trkpt lat="42.820842" lon="-0.137216">
        <time>2023-03-22T13:28:22+00:00</time>
        <ele>1810.0</ele>
      </trkpt>
      <trkpt lat="42.820753" lon="-0.137247">
        <time>2023-03-22T13:28:11+00:00</time>
        <ele>1810.0</ele>
      </trkpt>
      <trkpt lat="42.820651" lon="-0.13727">
        <time>2023-03-22T13:28:02+00:00</time>
        <ele>1810.0</ele>
      </trkpt>
      <trkpt lat="42.820498" lon="-0.137284">
        <time>2023-03-22T13:27:46+00:00</time>
        <ele>1812.0</ele>
      </trkpt>
      <trkpt lat="42.820482" lon="-0.137282">
        <time>2023-03-22T13:27:44+00:00</time>
        <ele>1812.0</ele>
      </trkpt>
      <trkpt lat="42.820378" lon="-0.137277">
        <time>2023-03-22T13:27:35+00:00</time>
        <ele>1813.0</ele>
      </trkpt>
      <trkpt lat="42.82037" lon="-0.137285">
        <time>2023-03-22T13:27:34+00:00</time>
        <ele>1813.0</ele>
      </trkpt>
      <trkpt lat="42.820286" lon="-0.137253">
        <time>2023-03-22T13:27:26+00:00</time>
        <ele>1815.0</ele>
      </trkpt>
      <trkpt lat="42.820233" lon="-0.137254">
        <time>2023-03-22T13:27:21+00:00</time>
        <ele>1816.0</ele>
      </trkpt>
      <trkpt lat="42.820171" lon="-0.137309">
        <time>2023-03-22T13:27:12+00:00</time>
        <ele>1815.0</ele>
      </trkpt>
      <trkpt lat="42.820068" lon="-0.137327">
        <time>2023-03-22T13:27:02+00:00</time>
        <ele>1817.0</ele>
      </trkpt>
      <trkpt lat="42.820061" lon="-0.137328">
        <time>2023-03-22T13:27:01+00:00</time>
        <ele>1817.0</ele>
      </trkpt>
      <trkpt lat="42.819942" lon="-0.137411">
        <time>2023-03-22T13:26:47+00:00</time>
        <ele>1816.0</ele>
      </trkpt>
      <trkpt lat="42.819774" lon="-0.137476">
        <time>2023-03-22T13:26:31+00:00</time>
        <ele>1818.0</ele>
      </trkpt>
      <trkpt lat="42.81974" lon="-0.13752">
        <time>2023-03-22T13:26:27+00:00</time>
        <ele>1817.0</ele>
      </trkpt>
      <trkpt lat="42.819634" lon="-0.137618">
        <time>2023-03-22T13:26:14+00:00</time>
        <ele>1817.0</ele>
      </trkpt>
      <trkpt lat="42.819558" lon="-0.13762">
        <time>2023-03-22T13:26:04+00:00</time>
        <ele>1819.0</ele>
      </trkpt>
      <trkpt lat="42.819538" lon="-0.137614">
        <time>2023-03-22T13:26:01+00:00</time>
        <ele>1820.0</ele>
      </trkpt>
      <trkpt lat="42.819484" lon="-0.137603">
        <time>2023-03-22T13:25:53+00:00</time>
        <ele>1822.0</ele>
      </trkpt>
      <trkpt lat="42.81941" lon="-0.137567">
        <time>2023-03-22T13:25:40+00:00</time>
        <ele>1824.0</ele>
      </trkpt>
      <trkpt lat="42.819301" lon="-0.137434">
        <time>2023-03-22T13:25:25+00:00</time>
        <ele>1830.0</ele>
      </trkpt>
      <trkpt lat="42.819323" lon="-0.13737">
        <time>2023-03-22T13:25:15+00:00</time>
        <ele>1831.0</ele>
      </trkpt>
      <trkpt lat="42.819316" lon="-0.137312">
        <time>2023-03-22T13:25:05+00:00</time>
        <ele>1834.0</ele>
      </trkpt>
      <trkpt lat="42.819205" lon="-0.137311">
        <time>2023-03-22T13:24:50+00:00</time>
        <ele>1837.0</ele>
      </trkpt>
      <trkpt lat="42.819183" lon="-0.13734">
        <time>2023-03-22T13:24:47+00:00</time>
        <ele>1836.0</ele>
      </trkpt>
      <trkpt lat="42.819138" lon="-0.137372">
        <time>2023-03-22T13:24:41+00:00</time>
        <ele>1836.0</ele>
      </trkpt>
      <trkpt lat="42.819043" lon="-0.137353">
        <time>2023-03-22T13:24:31+00:00</time>
        <ele>1839.0</ele>
      </trkpt>
      <trkpt lat="42.81899" lon="-0.137411">
        <time>2023-03-22T13:24:25+00:00</time>
        <ele>1838.0</ele>
      </trkpt>
      <trkpt lat="42.818903" lon="-0.137529">
        <time>2023-03-22T13:24:14+00:00</time>
        <ele>1837.0</ele>
      </trkpt>
      <trkpt lat="42.818863" lon="-0.137551">
        <time>2023-03-22T13:24:08+00:00</time>
        <ele>1837.0</ele>
      </trkpt>
      <trkpt lat="42.818676" lon="-0.137618">
        <time>2023-03-22T13:23:51+00:00</time>
        <ele>1840.0</ele>
      </trkpt>
      <trkpt lat="42.818619" lon="-0.13766">
        <time>2023-03-22T13:23:45+00:00</time>
        <ele>1841.0</ele>
      </trkpt>
      <trkpt lat="42.818576" lon="-0.137729">
        <time>2023-03-22T13:23:38+00:00</time>
        <ele>1841.0</ele>
      </trkpt>
      <trkpt lat="42.818462" lon="-0.137861">
        <time>2023-03-22T13:23:23+00:00</time>
        <ele>1841.0</ele>
      </trkpt>
      <trkpt lat="42.818388" lon="-0.137854">
        <time>2023-03-22T13:23:16+00:00</time>
        <ele>1843.0</ele>
      </trkpt>
      <trkpt lat="42.818337" lon="-0.137856">
        <time>2023-03-22T13:23:11+00:00</time>
        <ele>1844.0</ele>
      </trkpt>
      <trkpt lat="42.818198" lon="-0.137864">
        <time>2023-03-22T13:22:58+00:00</time>
        <ele>1845.0</ele>
      </trkpt>
      <trkpt lat="42.81812" lon="-0.137879">
        <time>2023-03-22T13:22:52+00:00</time>
        <ele>1846.0</ele>
      </trkpt>
      <trkpt lat="42.817994" lon="-0.137884">
        <time>2023-03-22T13:22:37+00:00</time>
        <ele>1845.0</ele>
      </trkpt>
      <trkpt lat="42.817935" lon="-0.137838">
        <time>2023-03-22T13:22:31+00:00</time>
        <ele>1846.0</ele>
      </trkpt>
      <trkpt lat="42.817906" lon="-0.137806">
        <time>2023-03-22T13:22:27+00:00</time>
        <ele>1847.0</ele>
      </trkpt>
      <trkpt lat="42.817764" lon="-0.137736">
        <time>2023-03-22T13:22:12+00:00</time>
        <ele>1846.0</ele>
      </trkpt>
      <trkpt lat="42.817742" lon="-0.137714">
        <time>2023-03-22T13:22:09+00:00</time>
        <ele>1846.0</ele>
      </trkpt>
      <trkpt lat="42.817681" lon="-0.137401">
        <time>2023-03-22T13:21:54+00:00</time>
        <ele>1860.0</ele>
      </trkpt>
      <trkpt lat="42.817643" lon="-0.13738">
        <time>2023-03-22T13:21:50+00:00</time>
        <ele>1863.0</ele>
      </trkpt>
      <trkpt lat="42.817489" lon="-0.137359">
        <time>2023-03-22T13:21:36+00:00</time>
        <ele>1869.0</ele>
      </trkpt>
      <trkpt lat="42.81737" lon="-0.137355">
        <time>2023-03-22T13:21:24+00:00</time>
        <ele>1872.0</ele>
      </trkpt>
      <trkpt lat="42.817278" lon="-0.137328">
        <time>2023-03-22T13:21:15+00:00</time>
        <ele>1877.0</ele>
      </trkpt>
      <trkpt lat="42.817237" lon="-0.137326">
        <time>2023-03-22T13:21:11+00:00</time>
        <ele>1877.0</ele>
      </trkpt>
      <trkpt lat="42.817216" lon="-0.137326">
        <time>2023-03-22T13:21:09+00:00</time>
        <ele>1876.0</ele>
      </trkpt>
      <trkpt lat="42.817187" lon="-0.137316">
        <time>2023-03-22T13:21:05+00:00</time>
        <ele>1877.0</ele>
      </trkpt>
      <trkpt lat="42.817121" lon="-0.137325">
        <time>2023-03-22T13:20:58+00:00</time>
        <ele>1876.0</ele>
      </trkpt>
      <trkpt lat="42.817074" lon="-0.137317">
        <time>2023-03-22T13:20:54+00:00</time>
        <ele>1877.0</ele>
      </trkpt>
      <trkpt lat="42.817032" lon="-0.137309">
        <time>2023-03-22T13:20:50+00:00</time>
        <ele>1878.0</ele>
      </trkpt>
      <trkpt lat="42.816911" lon="-0.137286">
        <time>2023-03-22T13:20:37+00:00</time>
        <ele>1880.0</ele>
      </trkpt>
      <trkpt lat="42.816894" lon="-0.137272">
        <time>2023-03-22T13:20:35+00:00</time>
        <ele>1882.0</ele>
      </trkpt>
      <trkpt lat="42.816845" lon="-0.13726">
        <time>2023-03-22T13:20:30+00:00</time>
        <ele>1883.0</ele>
      </trkpt>
      <trkpt lat="42.816821" lon="-0.137269">
        <time>2023-03-22T13:20:27+00:00</time>
        <ele>1882.0</ele>
      </trkpt>
      <trkpt lat="42.816688" lon="-0.137322">
        <time>2023-03-22T13:20:12+00:00</time>
        <ele>1875.0</ele>
      </trkpt>
      <trkpt lat="42.816569" lon="-0.137348">
        <time>2023-03-22T13:20:01+00:00</time>
        <ele>1873.0</ele>
      </trkpt>
      <trkpt lat="42.816459" lon="-0.137347">
        <time>2023-03-22T13:19:48+00:00</time>
        <ele>1874.0</ele>
      </trkpt>
      <trkpt lat="42.816439" lon="-0.137353">
        <time>2023-03-22T13:19:46+00:00</time>
        <ele>1874.0</ele>
      </trkpt>
      <trkpt lat="42.816352" lon="-0.137326">
        <time>2023-03-22T13:19:35+00:00</time>
        <ele>1877.0</ele>
      </trkpt>
      <trkpt lat="42.816283" lon="-0.137284">
        <time>2023-03-22T13:19:24+00:00</time>
        <ele>1881.0</ele>
      </trkpt>
      <trkpt lat="42.816135" lon="-0.137261">
        <time>2023-03-22T13:19:07+00:00</time>
        <ele>1887.0</ele>
      </trkpt>
      <trkpt lat="42.816042" lon="-0.137276">
        <time>2023-03-22T13:18:57+00:00</time>
        <ele>1890.0</ele>
      </trkpt>
      <trkpt lat="42.815994" lon="-0.137274">
        <time>2023-03-22T13:18:46+00:00</time>
        <ele>1892.0</ele>
      </trkpt>
      <trkpt lat="42.815885" lon="-0.137386">
        <time>2023-03-22T13:18:32+00:00</time>
        <ele>1888.0</ele>
      </trkpt>
      <trkpt lat="42.815871" lon="-0.137405">
        <time>2023-03-22T13:18:30+00:00</time>
        <ele>1887.0</ele>
      </trkpt>
      <trkpt lat="42.815829" lon="-0.137484">
        <time>2023-03-22T13:18:22+00:00</time>
        <ele>1885.0</ele>
      </trkpt>
      <trkpt lat="42.815806" lon="-0.137502">
        <time>2023-03-22T13:18:18+00:00</time>
        <ele>1885.0</ele>
      </trkpt>
      <trkpt lat="42.815692" lon="-0.13749">
        <time>2023-03-22T13:18:04+00:00</time>
        <ele>1889.0</ele>
      </trkpt>
      <trkpt lat="42.81561" lon="-0.137429">
        <time>2023-03-22T13:17:50+00:00</time>
        <ele>1892.0</ele>
      </trkpt>
      <trkpt lat="42.815588" lon="-0.13742">
        <time>2023-03-22T13:17:48+00:00</time>
        <ele>1892.0</ele>
      </trkpt>
      <trkpt lat="42.815458" lon="-0.137324">
        <time>2023-03-22T13:17:35+00:00</time>
        <ele>1899.0</ele>
      </trkpt>
      <trkpt lat="42.815313" lon="-0.137302">
        <time>2023-03-22T13:17:21+00:00</time>
        <ele>1899.0</ele>
      </trkpt>
      <trkpt lat="42.815304" lon="-0.13729">
        <time>2023-03-22T13:17:20+00:00</time>
        <ele>1900.0</ele>
      </trkpt>
      <trkpt lat="42.815138" lon="-0.137205">
        <time>2023-03-22T13:17:04+00:00</time>
        <ele>1905.0</ele>
      </trkpt>
      <trkpt lat="42.815054" lon="-0.137209">
        <time>2023-03-22T13:16:55+00:00</time>
        <ele>1905.0</ele>
      </trkpt>
      <trkpt lat="42.814916" lon="-0.137215">
        <time>2023-03-22T13:16:39+00:00</time>
        <ele>1906.0</ele>
      </trkpt>
      <trkpt lat="42.814827" lon="-0.137182">
        <time>2023-03-22T13:16:25+00:00</time>
        <ele>1910.0</ele>
      </trkpt>
      <trkpt lat="42.814687" lon="-0.137178">
        <time>2023-03-22T13:16:09+00:00</time>
        <ele>1912.0</ele>
      </trkpt>
      <trkpt lat="42.814659" lon="-0.137186">
        <time>2023-03-22T13:16:05+00:00</time>
        <ele>1913.0</ele>
      </trkpt>
      <trkpt lat="42.81461" lon="-0.137191">
        <time>2023-03-22T13:15:58+00:00</time>
        <ele>1914.0</ele>
      </trkpt>
      <trkpt lat="42.814611" lon="-0.137157">
        <time>2023-03-22T13:15:46+00:00</time>
        <ele>1916.0</ele>
      </trkpt>
      <trkpt lat="42.81466" lon="-0.137013">
        <time>2023-03-22T13:15:30+00:00</time>
        <ele>1922.0</ele>
      </trkpt>
      <trkpt lat="42.814663" lon="-0.136985">
        <time>2023-03-22T13:15:27+00:00</time>
        <ele>1923.0</ele>
      </trkpt>
      <trkpt lat="42.814643" lon="-0.136972">
        <time>2023-03-22T13:15:24+00:00</time>
        <ele>1924.0</ele>
      </trkpt>
      <trkpt lat="42.814543" lon="-0.137004">
        <time>2023-03-22T13:15:10+00:00</time>
        <ele>1926.0</ele>
      </trkpt>
      <trkpt lat="42.814442" lon="-0.137031">
        <time>2023-03-22T13:14:58+00:00</time>
        <ele>1929.0</ele>
      </trkpt>
      <trkpt lat="42.814289" lon="-0.137026">
        <time>2023-03-22T13:14:41+00:00</time>
        <ele>1938.0</ele>
      </trkpt>
      <trkpt lat="42.81425" lon="-0.137026">
        <time>2023-03-22T13:14:37+00:00</time>
        <ele>1940.0</ele>
      </trkpt>
      <trkpt lat="42.814225" lon="-0.13707">
        <time>2023-03-22T13:14:33+00:00</time>
        <ele>1940.0</ele>
      </trkpt>
      <trkpt lat="42.814115" lon="-0.137134">
        <time>2023-03-22T13:14:20+00:00</time>
        <ele>1944.0</ele>
      </trkpt>
      <trkpt lat="42.814024" lon="-0.137305">
        <time>2023-03-22T13:14:03+00:00</time>
        <ele>1942.0</ele>
      </trkpt>
      <trkpt lat="42.813965" lon="-0.137395">
        <time>2023-03-22T13:13:50+00:00</time>
        <ele>1942.0</ele>
      </trkpt>
      <trkpt lat="42.813861" lon="-0.137473">
        <time>2023-03-22T13:13:35+00:00</time>
        <ele>1945.0</ele>
      </trkpt>
      <trkpt lat="42.813765" lon="-0.137545">
        <time>2023-03-22T13:13:21+00:00</time>
        <ele>1946.0</ele>
      </trkpt>
      <trkpt lat="42.813641" lon="-0.137588">
        <time>2023-03-22T13:13:06+00:00</time>
        <ele>1948.0</ele>
      </trkpt>
      <trkpt lat="42.813507" lon="-0.137658">
        <time>2023-03-22T13:12:52+00:00</time>
        <ele>1948.0</ele>
      </trkpt>
      <trkpt lat="42.813479" lon="-0.13769">
        <time>2023-03-22T13:12:48+00:00</time>
        <ele>1948.0</ele>
      </trkpt>
      <trkpt lat="42.813449" lon="-0.13773">
        <time>2023-03-22T13:12:43+00:00</time>
        <ele>1947.0</ele>
      </trkpt>
      <trkpt lat="42.813446" lon="-0.137743">
        <time>2023-03-22T13:12:41+00:00</time>
        <ele>1947.0</ele>
      </trkpt>
      <trkpt lat="42.813436" lon="-0.137773">
        <time>2023-03-22T13:12:16+00:00</time>
        <ele>1946.0</ele>
      </trkpt>
      <trkpt lat="42.81343" lon="-0.137798">
        <time>2023-03-22T13:12:04+00:00</time>
        <ele>1945.0</ele>
      </trkpt>
      <trkpt lat="42.813324" lon="-0.137813">
        <time>2023-03-22T13:11:50+00:00</time>
        <ele>1948.0</ele>
      </trkpt>
      <trkpt lat="42.813298" lon="-0.137813">
        <time>2023-03-22T13:11:47+00:00</time>
        <ele>1948.0</ele>
      </trkpt>
      <trkpt lat="42.813182" lon="-0.137794">
        <time>2023-03-22T13:11:34+00:00</time>
        <ele>1949.0</ele>
      </trkpt>
      <trkpt lat="42.813071" lon="-0.13774">
        <time>2023-03-22T13:11:20+00:00</time>
        <ele>1950.0</ele>
      </trkpt>
      <trkpt lat="42.81306" lon="-0.137738">
        <time>2023-03-22T13:11:19+00:00</time>
        <ele>1950.0</ele>
      </trkpt>
      <trkpt lat="42.812973" lon="-0.13778">
        <time>2023-03-22T13:11:08+00:00</time>
        <ele>1949.0</ele>
      </trkpt>
      <trkpt lat="42.812907" lon="-0.137887">
        <time>2023-03-22T13:10:54+00:00</time>
        <ele>1946.0</ele>
      </trkpt>
      <trkpt lat="42.812884" lon="-0.137883">
        <time>2023-03-22T13:10:51+00:00</time>
        <ele>1946.0</ele>
      </trkpt>
      <trkpt lat="42.812809" lon="-0.137813">
        <time>2023-03-22T13:10:42+00:00</time>
        <ele>1948.0</ele>
      </trkpt>
      <trkpt lat="42.812665" lon="-0.137708">
        <time>2023-03-22T13:10:29+00:00</time>
        <ele>1951.0</ele>
      </trkpt>
      <trkpt lat="42.812593" lon="-0.137711">
        <time>2023-03-22T13:10:22+00:00</time>
        <ele>1950.0</ele>
      </trkpt>
      <trkpt lat="42.812559" lon="-0.137699">
        <time>2023-03-22T13:10:19+00:00</time>
        <ele>1950.0</ele>
      </trkpt>
      <trkpt lat="42.812505" lon="-0.137722">
        <time>2023-03-22T13:10:13+00:00</time>
        <ele>1950.0</ele>
      </trkpt>
      <trkpt lat="42.812423" lon="-0.137702">
        <time>2023-03-22T13:10:05+00:00</time>
        <ele>1950.0</ele>
      </trkpt>
      <trkpt lat="42.812325" lon="-0.13769">
        <time>2023-03-22T13:09:54+00:00</time>
        <ele>1951.0</ele>
      </trkpt>
      <trkpt lat="42.812254" lon="-0.137645">
        <time>2023-03-22T13:09:44+00:00</time>
        <ele>1953.0</ele>
      </trkpt>
      <trkpt lat="42.812195" lon="-0.137665">
        <time>2023-03-22T13:09:39+00:00</time>
        <ele>1953.0</ele>
      </trkpt>
      <trkpt lat="42.812101" lon="-0.137676">
        <time>2023-03-22T13:09:31+00:00</time>
        <ele>1953.0</ele>
      </trkpt>
      <trkpt lat="42.812009" lon="-0.137682">
        <time>2023-03-22T13:09:22+00:00</time>
        <ele>1954.0</ele>
      </trkpt>
      <trkpt lat="42.81187" lon="-0.137717">
        <time>2023-03-22T13:09:07+00:00</time>
        <ele>1954.0</ele>
      </trkpt>
      <trkpt lat="42.811838" lon="-0.137738">
        <time>2023-03-22T13:09:04+00:00</time>
        <ele>1953.0</ele>
      </trkpt>
      <trkpt lat="42.811757" lon="-0.137729">
        <time>2023-03-22T13:08:57+00:00</time>
        <ele>1953.0</ele>
      </trkpt>
      <trkpt lat="42.811624" lon="-0.137697">
        <time>2023-03-22T13:08:45+00:00</time>
        <ele>1955.0</ele>
      </trkpt>
      <trkpt lat="42.81155" lon="-0.137702">
        <time>2023-03-22T13:08:38+00:00</time>
        <ele>1955.0</ele>
      </trkpt>
      <trkpt lat="42.811529" lon="-0.137701">
        <time>2023-03-22T13:08:36+00:00</time>
        <ele>1956.0</ele>
      </trkpt>
      <trkpt lat="42.81138" lon="-0.137682">
        <time>2023-03-22T13:08:22+00:00</time>
        <ele>1960.0</ele>
      </trkpt>
      <trkpt lat="42.811352" lon="-0.13769">
        <time>2023-03-22T13:08:19+00:00</time>
        <ele>1960.0</ele>
      </trkpt>
      <trkpt lat="42.811216" lon="-0.137704">
        <time>2023-03-22T13:08:01+00:00</time>
        <ele>1965.0</ele>
      </trkpt>
      <trkpt lat="42.811135" lon="-0.137665">
        <time>2023-03-22T13:07:49+00:00</time>
        <ele>1969.0</ele>
      </trkpt>
      <trkpt lat="42.811031" lon="-0.137731">
        <time>2023-03-22T13:07:34+00:00</time>
        <ele>1972.0</ele>
      </trkpt>
      <trkpt lat="42.81095" lon="-0.137846">
        <time>2023-03-22T13:07:19+00:00</time>
        <ele>1972.0</ele>
      </trkpt>
      <trkpt lat="42.810888" lon="-0.137947">
        <time>2023-03-22T13:07:06+00:00</time>
        <ele>1971.0</ele>
      </trkpt>
      <trkpt lat="42.810839" lon="-0.138013">
        <time>2023-03-22T13:06:59+00:00</time>
        <ele>1972.0</ele>
      </trkpt>
      <trkpt lat="42.810811" lon="-0.138067">
        <time>2023-03-22T13:06:54+00:00</time>
        <ele>1972.0</ele>
      </trkpt>
      <trkpt lat="42.810739" lon="-0.138125">
        <time>2023-03-22T13:06:43+00:00</time>
        <ele>1972.0</ele>
      </trkpt>
      <trkpt lat="42.810676" lon="-0.138152">
        <time>2023-03-22T13:06:35+00:00</time>
        <ele>1972.0</ele>
      </trkpt>
      <trkpt lat="42.810608" lon="-0.138182">
        <time>2023-03-22T13:06:27+00:00</time>
        <ele>1972.0</ele>
      </trkpt>
      <trkpt lat="42.810555" lon="-0.13817">
        <time>2023-03-22T13:06:20+00:00</time>
        <ele>1972.0</ele>
      </trkpt>
      <trkpt lat="42.810434" lon="-0.138149">
        <time>2023-03-22T13:06:05+00:00</time>
        <ele>1973.0</ele>
      </trkpt>
      <trkpt lat="42.810335" lon="-0.138136">
        <time>2023-03-22T13:05:55+00:00</time>
        <ele>1973.0</ele>
      </trkpt>
      <trkpt lat="42.810285" lon="-0.138087">
        <time>2023-03-22T13:05:49+00:00</time>
        <ele>1973.0</ele>
      </trkpt>
      <trkpt lat="42.810174" lon="-0.13802">
        <time>2023-03-22T13:05:37+00:00</time>
        <ele>1974.0</ele>
      </trkpt>
      <trkpt lat="42.810108" lon="-0.137978">
        <time>2023-03-22T13:05:30+00:00</time>
        <ele>1975.0</ele>
      </trkpt>
      <trkpt lat="42.809994" lon="-0.137879">
        <time>2023-03-22T13:05:15+00:00</time>
        <ele>1975.0</ele>
      </trkpt>
      <trkpt lat="42.809959" lon="-0.13778">
        <time>2023-03-22T13:05:05+00:00</time>
        <ele>1975.0</ele>
      </trkpt>
      <trkpt lat="42.809937" lon="-0.137721">
        <time>2023-03-22T13:05:01+00:00</time>
        <ele>1976.0</ele>
      </trkpt>
      <trkpt lat="42.809855" lon="-0.137602">
        <time>2023-03-22T13:04:50+00:00</time>
        <ele>1976.0</ele>
      </trkpt>
      <trkpt lat="42.809819" lon="-0.137561">
        <time>2023-03-22T13:04:45+00:00</time>
        <ele>1976.0</ele>
      </trkpt>
      <trkpt lat="42.809809" lon="-0.137554">
        <time>2023-03-22T13:04:44+00:00</time>
        <ele>1976.0</ele>
      </trkpt>
      <trkpt lat="42.809714" lon="-0.137463">
        <time>2023-03-22T13:04:33+00:00</time>
        <ele>1976.0</ele>
      </trkpt>
      <trkpt lat="42.809677" lon="-0.137387">
        <time>2023-03-22T13:04:26+00:00</time>
        <ele>1977.0</ele>
      </trkpt>
      <trkpt lat="42.809679" lon="-0.137377">
        <time>2023-03-22T13:04:25+00:00</time>
        <ele>1977.0</ele>
      </trkpt>
      <trkpt lat="42.809588" lon="-0.137238">
        <time>2023-03-22T13:04:12+00:00</time>
        <ele>1979.0</ele>
      </trkpt>
      <trkpt lat="42.809468" lon="-0.13712">
        <time>2023-03-22T13:03:58+00:00</time>
        <ele>1980.0</ele>
      </trkpt>
      <trkpt lat="42.809377" lon="-0.136965">
        <time>2023-03-22T13:03:45+00:00</time>
        <ele>1982.0</ele>
      </trkpt>
      <trkpt lat="42.809238" lon="-0.136777">
        <time>2023-03-22T13:03:28+00:00</time>
        <ele>1985.0</ele>
      </trkpt>
      <trkpt lat="42.809222" lon="-0.136735">
        <time>2023-03-22T13:03:25+00:00</time>
        <ele>1986.0</ele>
      </trkpt>
      <trkpt lat="42.809191" lon="-0.136701">
        <time>2023-03-22T13:03:21+00:00</time>
        <ele>1986.0</ele>
      </trkpt>
      <trkpt lat="42.809011" lon="-0.136522">
        <time>2023-03-22T13:03:02+00:00</time>
        <ele>1989.0</ele>
      </trkpt>
      <trkpt lat="42.808886" lon="-0.13645">
        <time>2023-03-22T13:02:51+00:00</time>
        <ele>1991.0</ele>
      </trkpt>
      <trkpt lat="42.808696" lon="-0.13647">
        <time>2023-03-22T13:02:34+00:00</time>
        <ele>1990.0</ele>
      </trkpt>
      <trkpt lat="42.808663" lon="-0.136514">
        <time>2023-03-22T13:02:30+00:00</time>
        <ele>1989.0</ele>
      </trkpt>
      <trkpt lat="42.808653" lon="-0.136638">
        <time>2023-03-22T13:02:21+00:00</time>
        <ele>1987.0</ele>
      </trkpt>
      <trkpt lat="42.808722" lon="-0.136774">
        <time>2023-03-22T13:02:11+00:00</time>
        <ele>1984.0</ele>
      </trkpt>
      <trkpt lat="42.808723" lon="-0.136831">
        <time>2023-03-22T13:02:06+00:00</time>
        <ele>1983.0</ele>
      </trkpt>
      <trkpt lat="42.808586" lon="-0.136872">
        <time>2023-03-22T13:01:52+00:00</time>
        <ele>1984.0</ele>
      </trkpt>
      <trkpt lat="42.808567" lon="-0.136899">
        <time>2023-03-22T13:01:49+00:00</time>
        <ele>1984.0</ele>
      </trkpt>
      <trkpt lat="42.808489" lon="-0.136896">
        <time>2023-03-22T13:01:38+00:00</time>
        <ele>1984.0</ele>
      </trkpt>
      <trkpt lat="42.808395" lon="-0.136881">
        <time>2023-03-22T13:01:27+00:00</time>
        <ele>1985.0</ele>
      </trkpt>
      <trkpt lat="42.808216" lon="-0.13681">
        <time>2023-03-22T13:01:10+00:00</time>
        <ele>1986.0</ele>
      </trkpt>
      <trkpt lat="42.808183" lon="-0.136811">
        <time>2023-03-22T13:01:06+00:00</time>
        <ele>1986.0</ele>
      </trkpt>
      <trkpt lat="42.808157" lon="-0.136803">
        <time>2023-03-22T13:01:02+00:00</time>
        <ele>1986.0</ele>
      </trkpt>
      <trkpt lat="42.808094" lon="-0.13677">
        <time>2023-03-22T13:00:55+00:00</time>
        <ele>1986.0</ele>
      </trkpt>
      <trkpt lat="42.808053" lon="-0.136754">
        <time>2023-03-22T13:00:51+00:00</time>
        <ele>1986.0</ele>
      </trkpt>
      <trkpt lat="42.808019" lon="-0.136718">
        <time>2023-03-22T13:00:47+00:00</time>
        <ele>1986.0</ele>
      </trkpt>
      <trkpt lat="42.80795" lon="-0.136685">
        <time>2023-03-22T13:00:41+00:00</time>
        <ele>1986.0</ele>
      </trkpt>
      <trkpt lat="42.807847" lon="-0.136695">
        <time>2023-03-22T13:00:30+00:00</time>
        <ele>1986.0</ele>
      </trkpt>
      <trkpt lat="42.807727" lon="-0.136679">
        <time>2023-03-22T13:00:17+00:00</time>
        <ele>1986.0</ele>
      </trkpt>
      <trkpt lat="42.807688" lon="-0.136662">
        <time>2023-03-22T13:00:13+00:00</time>
        <ele>1986.0</ele>
      </trkpt>
      <trkpt lat="42.807649" lon="-0.136631">
        <time>2023-03-22T13:00:09+00:00</time>
        <ele>1986.0</ele>
      </trkpt>
      <trkpt lat="42.807533" lon="-0.136552">
        <time>2023-03-22T12:59:58+00:00</time>
        <ele>1986.0</ele>
      </trkpt>
      <trkpt lat="42.8075" lon="-0.136539">
        <time>2023-03-22T12:59:54+00:00</time>
        <ele>1986.0</ele>
      </trkpt>
      <trkpt lat="42.807484" lon="-0.136514">
        <time>2023-03-22T12:59:50+00:00</time>
        <ele>1986.0</ele>
      </trkpt>
      <trkpt lat="42.807434" lon="-0.13646">
        <time>2023-03-22T12:59:45+00:00</time>
        <ele>1986.0</ele>
      </trkpt>
      <trkpt lat="42.80724" lon="-0.136265">
        <time>2023-03-22T12:59:26+00:00</time>
        <ele>1986.0</ele>
      </trkpt>
      <trkpt lat="42.807194" lon="-0.13622">
        <time>2023-03-22T12:59:22+00:00</time>
        <ele>1987.0</ele>
      </trkpt>
      <trkpt lat="42.80709" lon="-0.136236">
        <time>2023-03-22T12:59:14+00:00</time>
        <ele>1987.0</ele>
      </trkpt>
      <trkpt lat="42.80689" lon="-0.13629">
        <time>2023-03-22T12:58:58+00:00</time>
        <ele>1987.0</ele>
      </trkpt>
      <trkpt lat="42.806727" lon="-0.136457">
        <time>2023-03-22T12:58:41+00:00</time>
        <ele>1988.0</ele>
      </trkpt>
      <trkpt lat="42.80672" lon="-0.136465">
        <time>2023-03-22T12:58:40+00:00</time>
        <ele>1988.0</ele>
      </trkpt>
      <trkpt lat="42.806711" lon="-0.136471">
        <time>2023-03-22T12:58:39+00:00</time>
        <ele>1988.0</ele>
      </trkpt>
      <trkpt lat="42.8067" lon="-0.136472">
        <time>2023-03-22T12:58:38+00:00</time>
        <ele>1988.0</ele>
      </trkpt>
      <trkpt lat="42.806629" lon="-0.136501">
        <time>2023-03-22T12:58:25+00:00</time>
        <ele>1988.0</ele>
      </trkpt>
      <trkpt lat="42.806619" lon="-0.136505">
        <time>2023-03-22T12:58:24+00:00</time>
        <ele>1988.0</ele>
      </trkpt>
      <trkpt lat="42.806606" lon="-0.136511">
        <time>2023-03-22T12:58:23+00:00</time>
        <ele>1988.0</ele>
      </trkpt>
      <trkpt lat="42.806598" lon="-0.136519">
        <time>2023-03-22T12:58:22+00:00</time>
        <ele>1988.0</ele>
      </trkpt>
      <trkpt lat="42.806591" lon="-0.136534">
        <time>2023-03-22T12:58:21+00:00</time>
        <ele>1988.0</ele>
      </trkpt>
      <trkpt lat="42.806571" lon="-0.136532">
        <time>2023-03-22T12:58:19+00:00</time>
        <ele>1988.0</ele>
      </trkpt>
      <trkpt lat="42.806561" lon="-0.136527">
        <time>2023-03-22T12:58:18+00:00</time>
        <ele>1989.0</ele>
      </trkpt>
      <trkpt lat="42.806548" lon="-0.136525">
        <time>2023-03-22T12:58:17+00:00</time>
        <ele>1989.0</ele>
      </trkpt>
      <trkpt lat="42.806538" lon="-0.136531">
        <time>2023-03-22T12:58:16+00:00</time>
        <ele>1989.0</ele>
      </trkpt>
      <trkpt lat="42.806461" lon="-0.136542">
        <time>2023-03-22T12:58:09+00:00</time>
        <ele>1989.0</ele>
      </trkpt>
      <trkpt lat="42.806447" lon="-0.136541">
        <time>2023-03-22T12:58:08+00:00</time>
        <ele>1989.0</ele>
      </trkpt>
      <trkpt lat="42.806317" lon="-0.136629">
        <time>2023-03-22T12:57:56+00:00</time>
        <ele>1991.0</ele>
      </trkpt>
      <trkpt lat="42.806307" lon="-0.136637">
        <time>2023-03-22T12:57:55+00:00</time>
        <ele>1991.0</ele>
      </trkpt>
      <trkpt lat="42.806263" lon="-0.136698">
        <time>2023-03-22T12:57:49+00:00</time>
        <ele>1991.0</ele>
      </trkpt>
      <trkpt lat="42.806257" lon="-0.136713">
        <time>2023-03-22T12:57:48+00:00</time>
        <ele>1991.0</ele>
      </trkpt>
      <trkpt lat="42.806195" lon="-0.136809">
        <time>2023-03-22T12:57:38+00:00</time>
        <ele>1993.0</ele>
      </trkpt>
      <trkpt lat="42.806186" lon="-0.136811">
        <time>2023-03-22T12:57:37+00:00</time>
        <ele>1993.0</ele>
      </trkpt>
      <trkpt lat="42.806178" lon="-0.136818">
        <time>2023-03-22T12:57:36+00:00</time>
        <ele>1993.0</ele>
      </trkpt>
      <trkpt lat="42.806176" lon="-0.136832">
        <time>2023-03-22T12:57:35+00:00</time>
        <ele>1993.0</ele>
      </trkpt>
      <trkpt lat="42.806176" lon="-0.136849">
        <time>2023-03-22T12:57:34+00:00</time>
        <ele>1993.0</ele>
      </trkpt>
      <trkpt lat="42.806167" lon="-0.136889">
        <time>2023-03-22T12:57:31+00:00</time>
        <ele>1994.0</ele>
      </trkpt>
      <trkpt lat="42.806065" lon="-0.137015">
        <time>2023-03-22T12:57:17+00:00</time>
        <ele>1996.0</ele>
      </trkpt>
      <trkpt lat="42.80606" lon="-0.137028">
        <time>2023-03-22T12:57:16+00:00</time>
        <ele>1996.0</ele>
      </trkpt>
      <trkpt lat="42.806059" lon="-0.137047">
        <time>2023-03-22T12:57:15+00:00</time>
        <ele>1996.0</ele>
      </trkpt>
      <trkpt lat="42.80598" lon="-0.137108">
        <time>2023-03-22T12:57:05+00:00</time>
        <ele>1997.0</ele>
      </trkpt>
      <trkpt lat="42.805974" lon="-0.137108">
        <time>2023-03-22T12:57:04+00:00</time>
        <ele>1998.0</ele>
      </trkpt>
      <trkpt lat="42.805919" lon="-0.137178">
        <time>2023-03-22T12:56:58+00:00</time>
        <ele>1999.0</ele>
      </trkpt>
      <trkpt lat="42.805913" lon="-0.13719">
        <time>2023-03-22T12:56:57+00:00</time>
        <ele>1999.0</ele>
      </trkpt>
      <trkpt lat="42.805907" lon="-0.137203">
        <time>2023-03-22T12:56:56+00:00</time>
        <ele>2000.0</ele>
      </trkpt>
      <trkpt lat="42.805898" lon="-0.137213">
        <time>2023-03-22T12:56:55+00:00</time>
        <ele>2000.0</ele>
      </trkpt>
      <trkpt lat="42.805889" lon="-0.137222">
        <time>2023-03-22T12:56:54+00:00</time>
        <ele>2000.0</ele>
      </trkpt>
      <trkpt lat="42.805883" lon="-0.137239">
        <time>2023-03-22T12:56:53+00:00</time>
        <ele>2000.0</ele>
      </trkpt>
      <trkpt lat="42.805879" lon="-0.137254">
        <time>2023-03-22T12:56:52+00:00</time>
        <ele>2000.0</ele>
      </trkpt>
      <trkpt lat="42.805876" lon="-0.137271">
        <time>2023-03-22T12:56:51+00:00</time>
        <ele>2000.0</ele>
      </trkpt>
      <trkpt lat="42.805876" lon="-0.137285">
        <time>2023-03-22T12:56:50+00:00</time>
        <ele>2001.0</ele>
      </trkpt>
      <trkpt lat="42.805879" lon="-0.137301">
        <time>2023-03-22T12:56:49+00:00</time>
        <ele>2001.0</ele>
      </trkpt>
      <trkpt lat="42.805841" lon="-0.137438">
        <time>2023-03-22T12:56:39+00:00</time>
        <ele>2002.0</ele>
      </trkpt>
      <trkpt lat="42.805824" lon="-0.137456">
        <time>2023-03-22T12:56:37+00:00</time>
        <ele>2002.0</ele>
      </trkpt>
      <trkpt lat="42.805818" lon="-0.137476">
        <time>2023-03-22T12:56:36+00:00</time>
        <ele>2002.0</ele>
      </trkpt>
      <trkpt lat="42.805736" lon="-0.137602">
        <time>2023-03-22T12:56:21+00:00</time>
        <ele>2005.0</ele>
      </trkpt>
      <trkpt lat="42.805715" lon="-0.137641">
        <time>2023-03-22T12:56:16+00:00</time>
        <ele>2005.0</ele>
      </trkpt>
      <trkpt lat="42.805705" lon="-0.137646">
        <time>2023-03-22T12:56:15+00:00</time>
        <ele>2005.0</ele>
      </trkpt>
      <trkpt lat="42.805697" lon="-0.137657">
        <time>2023-03-22T12:56:14+00:00</time>
        <ele>2006.0</ele>
      </trkpt>
      <trkpt lat="42.805687" lon="-0.137669">
        <time>2023-03-22T12:56:13+00:00</time>
        <ele>2006.0</ele>
      </trkpt>
      <trkpt lat="42.805678" lon="-0.137684">
        <time>2023-03-22T12:56:12+00:00</time>
        <ele>2006.0</ele>
      </trkpt>
      <trkpt lat="42.805578" lon="-0.13768">
        <time>2023-03-22T12:56:00+00:00</time>
        <ele>2008.0</ele>
      </trkpt>
      <trkpt lat="42.805565" lon="-0.137682">
        <time>2023-03-22T12:55:59+00:00</time>
        <ele>2008.0</ele>
      </trkpt>
      <trkpt lat="42.805496" lon="-0.137639">
        <time>2023-03-22T12:55:49+00:00</time>
        <ele>2009.0</ele>
      </trkpt>
      <trkpt lat="42.805439" lon="-0.137566">
        <time>2023-03-22T12:55:38+00:00</time>
        <ele>2010.0</ele>
      </trkpt>
      <trkpt lat="42.805318" lon="-0.137521">
        <time>2023-03-22T12:55:24+00:00</time>
        <ele>2014.0</ele>
      </trkpt>
      <trkpt lat="42.805271" lon="-0.137483">
        <time>2023-03-22T12:55:18+00:00</time>
        <ele>2016.0</ele>
      </trkpt>
      <trkpt lat="42.805233" lon="-0.137466">
        <time>2023-03-22T12:55:13+00:00</time>
        <ele>2017.0</ele>
      </trkpt>
      <trkpt lat="42.805137" lon="-0.137413">
        <time>2023-03-22T12:54:59+00:00</time>
        <ele>2019.0</ele>
      </trkpt>
      <trkpt lat="42.805127" lon="-0.137403">
        <time>2023-03-22T12:54:58+00:00</time>
        <ele>2020.0</ele>
      </trkpt>
      <trkpt lat="42.805024" lon="-0.137386">
        <time>2023-03-22T12:54:48+00:00</time>
        <ele>2023.0</ele>
      </trkpt>
      <trkpt lat="42.804995" lon="-0.13741">
        <time>2023-03-22T12:54:43+00:00</time>
        <ele>2023.0</ele>
      </trkpt>
      <trkpt lat="42.805014" lon="-0.137398">
        <time>2023-03-22T12:54:23+00:00</time>
        <ele>2023.0</ele>
      </trkpt>
      <trkpt lat="42.805" lon="-0.137393">
        <time>2023-03-22T12:54:03+00:00</time>
        <ele>2024.0</ele>
      </trkpt>
      <trkpt lat="42.805003" lon="-0.137386">
        <time>2023-03-22T12:53:53+00:00</time>
        <ele>2024.0</ele>
      </trkpt>
      <trkpt lat="42.804961" lon="-0.13737">
        <time>2023-03-22T12:53:40+00:00</time>
        <ele>2025.0</ele>
      </trkpt>
      <trkpt lat="42.804839" lon="-0.137411">
        <time>2023-03-22T12:53:28+00:00</time>
        <ele>2026.0</ele>
      </trkpt>
      <trkpt lat="42.804828" lon="-0.137416">
        <time>2023-03-22T12:53:27+00:00</time>
        <ele>2027.0</ele>
      </trkpt>
      <trkpt lat="42.804819" lon="-0.137422">
        <time>2023-03-22T12:53:26+00:00</time>
        <ele>2027.0</ele>
      </trkpt>
      <trkpt lat="42.80474" lon="-0.137436">
        <time>2023-03-22T12:53:17+00:00</time>
        <ele>2029.0</ele>
      </trkpt>
      <trkpt lat="42.804671" lon="-0.137463">
        <time>2023-03-22T12:53:06+00:00</time>
        <ele>2030.0</ele>
      </trkpt>
      <trkpt lat="42.804545" lon="-0.137442">
        <time>2023-03-22T12:52:51+00:00</time>
        <ele>2033.0</ele>
      </trkpt>
      <trkpt lat="42.804425" lon="-0.137418">
        <time>2023-03-22T12:52:37+00:00</time>
        <ele>2036.0</ele>
      </trkpt>
      <trkpt lat="42.804407" lon="-0.137417">
        <time>2023-03-22T12:52:35+00:00</time>
        <ele>2036.0</ele>
      </trkpt>
      <trkpt lat="42.804359" lon="-0.137408">
        <time>2023-03-22T12:52:27+00:00</time>
        <ele>2037.0</ele>
      </trkpt>
      <trkpt lat="42.804302" lon="-0.137415">
        <time>2023-03-22T12:52:16+00:00</time>
        <ele>2038.0</ele>
      </trkpt>
      <trkpt lat="42.804281" lon="-0.137394">
        <time>2023-03-22T12:52:01+00:00</time>
        <ele>2038.0</ele>
      </trkpt>
      <trkpt lat="42.804288" lon="-0.137387">
        <time>2023-03-22T12:51:43+00:00</time>
        <ele>2038.0</ele>
      </trkpt>
      <trkpt lat="42.804258" lon="-0.137435">
        <time>2023-03-22T12:51:28+00:00</time>
        <ele>2038.0</ele>
      </trkpt>
      <trkpt lat="42.804275" lon="-0.137399">
        <time>2023-03-22T12:51:13+00:00</time>
        <ele>2038.0</ele>
      </trkpt>
      <trkpt lat="42.804276" lon="-0.1374">
        <time>2023-03-22T12:50:43+00:00</time>
        <ele>2038.0</ele>
      </trkpt>
      <trkpt lat="42.804283" lon="-0.137398">
        <time>2023-03-22T12:50:27+00:00</time>
        <ele>2038.0</ele>
      </trkpt>
      <trkpt lat="42.804286" lon="-0.137369">
        <time>2023-03-22T12:50:01+00:00</time>
        <ele>2038.0</ele>
      </trkpt>
      <trkpt lat="42.804284" lon="-0.13736">
        <time>2023-03-22T12:49:59+00:00</time>
        <ele>2039.0</ele>
      </trkpt>
      <trkpt lat="42.804284" lon="-0.137369">
        <time>2023-03-22T12:49:53+00:00</time>
        <ele>2038.0</ele>
      </trkpt>
      <trkpt lat="42.80431" lon="-0.137396">
        <time>2023-03-22T12:49:27+00:00</time>
        <ele>2038.0</ele>
      </trkpt>
      <trkpt lat="42.804289" lon="-0.137406">
        <time>2023-03-22T12:48:56+00:00</time>
        <ele>2038.0</ele>
      </trkpt>
      <trkpt lat="42.80429" lon="-0.137369">
        <time>2023-03-22T12:48:36+00:00</time>
        <ele>2038.0</ele>
      </trkpt>
      <trkpt lat="42.804309" lon="-0.137356">
        <time>2023-03-22T12:48:17+00:00</time>
        <ele>2038.0</ele>
      </trkpt>
      <trkpt lat="42.804296" lon="-0.1374">
        <time>2023-03-22T12:47:37+00:00</time>
        <ele>2038.0</ele>
      </trkpt>
      <trkpt lat="42.804302" lon="-0.137364">
        <time>2023-03-22T12:47:09+00:00</time>
        <ele>2038.0</ele>
      </trkpt>
      <trkpt lat="42.804306" lon="-0.137371">
        <time>2023-03-22T12:46:40+00:00</time>
        <ele>2038.0</ele>
      </trkpt>
      <trkpt lat="42.804299" lon="-0.137398">
        <time>2023-03-22T12:46:05+00:00</time>
        <ele>2038.0</ele>
      </trkpt>
      <trkpt lat="42.804284" lon="-0.137393">
        <time>2023-03-22T12:45:28+00:00</time>
        <ele>2038.0</ele>
      </trkpt>
      <trkpt lat="42.804261" lon="-0.137406">
        <time>2023-03-22T12:45:12+00:00</time>
        <ele>2038.0</ele>
      </trkpt>
      <trkpt lat="42.804263" lon="-0.137406">
        <time>2023-03-22T12:45:11+00:00</time>
        <ele>2038.0</ele>
      </trkpt>
      <trkpt lat="42.804262" lon="-0.137406">
        <time>2023-03-22T12:45:10+00:00</time>
        <ele>2038.0</ele>
      </trkpt>
      <trkpt lat="42.804267" lon="-0.137402">
        <time>2023-03-22T12:45:09+00:00</time>
        <ele>2038.0</ele>
      </trkpt>
      <trkpt lat="42.804277" lon="-0.137407">
        <time>2023-03-22T12:44:56+00:00</time>
        <ele>2038.0</ele>
      </trkpt>
      <trkpt lat="42.804288" lon="-0.137409">
        <time>2023-03-22T12:44:43+00:00</time>
        <ele>2038.0</ele>
      </trkpt>
      <trkpt lat="42.80427" lon="-0.137389">
        <time>2023-03-22T12:44:34+00:00</time>
        <ele>2038.0</ele>
      </trkpt>
      <trkpt lat="42.804227" lon="-0.137423">
        <time>2023-03-22T12:44:26+00:00</time>
        <ele>2039.0</ele>
      </trkpt>
      <trkpt lat="42.804214" lon="-0.137435">
        <time>2023-03-22T12:44:23+00:00</time>
        <ele>2039.0</ele>
      </trkpt>
      <trkpt lat="42.804206" lon="-0.137444">
        <time>2023-03-22T12:44:22+00:00</time>
        <ele>2039.0</ele>
      </trkpt>
      <trkpt lat="42.804195" lon="-0.137447">
        <time>2023-03-22T12:44:08+00:00</time>
        <ele>2040.0</ele>
      </trkpt>
      <trkpt lat="42.804179" lon="-0.137442">
        <time>2023-03-22T12:43:50+00:00</time>
        <ele>2040.0</ele>
      </trkpt>
      <trkpt lat="42.80407" lon="-0.137455">
        <time>2023-03-22T12:43:42+00:00</time>
        <ele>2042.0</ele>
      </trkpt>
      <trkpt lat="42.803903" lon="-0.137569">
        <time>2023-03-22T12:43:32+00:00</time>
        <ele>2043.0</ele>
      </trkpt>
      <trkpt lat="42.803643" lon="-0.137806">
        <time>2023-03-22T12:43:19+00:00</time>
        <ele>2045.0</ele>
      </trkpt>
      <trkpt lat="42.80363" lon="-0.13782">
        <time>2023-03-22T12:43:18+00:00</time>
        <ele>2045.0</ele>
      </trkpt>
      <trkpt lat="42.803616" lon="-0.137834">
        <time>2023-03-22T12:43:17+00:00</time>
        <ele>2045.0</ele>
      </trkpt>
      <trkpt lat="42.803604" lon="-0.137854">
        <time>2023-03-22T12:43:16+00:00</time>
        <ele>2046.0</ele>
      </trkpt>
      <trkpt lat="42.803599" lon="-0.137876">
        <time>2023-03-22T12:43:15+00:00</time>
        <ele>2046.0</ele>
      </trkpt>
      <trkpt lat="42.803585" lon="-0.137896">
        <time>2023-03-22T12:43:14+00:00</time>
        <ele>2046.0</ele>
      </trkpt>
      <trkpt lat="42.803471" lon="-0.137858">
        <time>2023-03-22T12:43:09+00:00</time>
        <ele>2048.0</ele>
      </trkpt>
      <trkpt lat="42.803223" lon="-0.137882">
        <time>2023-03-22T12:43:01+00:00</time>
        <ele>2051.0</ele>
      </trkpt>
      <trkpt lat="42.803206" lon="-0.137885">
        <time>2023-03-22T12:43:00+00:00</time>
        <ele>2051.0</ele>
      </trkpt>
      <trkpt lat="42.803187" lon="-0.137889">
        <time>2023-03-22T12:42:59+00:00</time>
        <ele>2051.0</ele>
      </trkpt>
      <trkpt lat="42.803173" lon="-0.137893">
        <time>2023-03-22T12:42:58+00:00</time>
        <ele>2051.0</ele>
      </trkpt>
      <trkpt lat="42.803164" lon="-0.137898">
        <time>2023-03-22T12:42:57+00:00</time>
        <ele>2051.0</ele>
      </trkpt>
      <trkpt lat="42.803074" lon="-0.137906">
        <time>2023-03-22T12:42:52+00:00</time>
        <ele>2051.0</ele>
      </trkpt>
      <trkpt lat="42.80303" lon="-0.137898">
        <time>2023-03-22T12:42:49+00:00</time>
        <ele>2051.0</ele>
      </trkpt>
      <trkpt lat="42.802996" lon="-0.137888">
        <time>2023-03-22T12:42:39+00:00</time>
        <ele>2051.0</ele>
      </trkpt>
      <trkpt lat="42.803015" lon="-0.137878">
        <time>2023-03-22T12:42:29+00:00</time>
        <ele>2051.0</ele>
      </trkpt>
      <trkpt lat="42.803014" lon="-0.137908">
        <time>2023-03-22T12:42:15+00:00</time>
        <ele>2051.0</ele>
      </trkpt>
      <trkpt lat="42.802934" lon="-0.137925">
        <time>2023-03-22T12:42:03+00:00</time>
        <ele>2051.0</ele>
      </trkpt>
      <trkpt lat="42.802926" lon="-0.137938">
        <time>2023-03-22T12:42:02+00:00</time>
        <ele>2051.0</ele>
      </trkpt>
      <trkpt lat="42.802776" lon="-0.138009">
        <time>2023-03-22T12:41:48+00:00</time>
        <ele>2050.0</ele>
      </trkpt>
      <trkpt lat="42.802678" lon="-0.138091">
        <time>2023-03-22T12:41:37+00:00</time>
        <ele>2050.0</ele>
      </trkpt>
      <trkpt lat="42.80255" lon="-0.138174">
        <time>2023-03-22T12:41:21+00:00</time>
        <ele>2050.0</ele>
      </trkpt>
      <trkpt lat="42.802443" lon="-0.138279">
        <time>2023-03-22T12:41:07+00:00</time>
        <ele>2050.0</ele>
      </trkpt>
      <trkpt lat="42.80242" lon="-0.138302">
        <time>2023-03-22T12:41:03+00:00</time>
        <ele>2050.0</ele>
      </trkpt>
      <trkpt lat="42.802388" lon="-0.138328">
        <time>2023-03-22T12:40:59+00:00</time>
        <ele>2050.0</ele>
      </trkpt>
      <trkpt lat="42.802339" lon="-0.138343">
        <time>2023-03-22T12:40:53+00:00</time>
        <ele>2050.0</ele>
      </trkpt>
      <trkpt lat="42.80232" lon="-0.138346">
        <time>2023-03-22T12:40:51+00:00</time>
        <ele>2050.0</ele>
      </trkpt>
      <trkpt lat="42.802316" lon="-0.138348">
        <time>2023-03-22T12:40:48+00:00</time>
        <ele>2050.0</ele>
      </trkpt>
      <trkpt lat="42.802321" lon="-0.138355">
        <time>2023-03-22T12:40:46+00:00</time>
        <ele>2051.0</ele>
      </trkpt>
      <trkpt lat="42.80232" lon="-0.138353">
        <time>2023-03-22T12:40:43+00:00</time>
        <ele>2050.0</ele>
      </trkpt>
      <trkpt lat="42.80232" lon="-0.138351">
        <time>2023-03-22T12:40:37+00:00</time>
        <ele>2050.0</ele>
      </trkpt>
      <trkpt lat="42.802302" lon="-0.138347">
        <time>2023-03-22T12:40:33+00:00</time>
        <ele>2050.0</ele>
      </trkpt>
      <trkpt lat="42.802301" lon="-0.138359">
        <time>2023-03-22T12:40:31+00:00</time>
        <ele>2051.0</ele>
      </trkpt>
      <trkpt lat="42.802322" lon="-0.138346">
        <time>2023-03-22T12:40:27+00:00</time>
        <ele>2050.0</ele>
      </trkpt>
      <trkpt lat="42.802325" lon="-0.138347">
        <time>2023-03-22T12:40:21+00:00</time>
        <ele>2050.0</ele>
      </trkpt>
      <trkpt lat="42.802321" lon="-0.138351">
        <time>2023-03-22T12:40:10+00:00</time>
        <ele>2050.0</ele>
      </trkpt>
      <trkpt lat="42.802309" lon="-0.138362">
        <time>2023-03-22T12:40:04+00:00</time>
        <ele>2051.0</ele>
      </trkpt>
      <trkpt lat="42.802292" lon="-0.138338">
        <time>2023-03-22T12:39:53+00:00</time>
        <ele>2050.0</ele>
      </trkpt>
      <trkpt lat="42.802211" lon="-0.138346">
        <time>2023-03-22T12:39:48+00:00</time>
        <ele>2051.0</ele>
      </trkpt>
      <trkpt lat="42.802196" lon="-0.138349">
        <time>2023-03-22T12:39:47+00:00</time>
        <ele>2051.0</ele>
      </trkpt>
      <trkpt lat="42.802077" lon="-0.138381">
        <time>2023-03-22T12:39:39+00:00</time>
        <ele>2051.0</ele>
      </trkpt>
      <trkpt lat="42.80195" lon="-0.138434">
        <time>2023-03-22T12:39:31+00:00</time>
        <ele>2051.0</ele>
      </trkpt>
      <trkpt lat="42.801864" lon="-0.138407">
        <time>2023-03-22T12:39:25+00:00</time>
        <ele>2051.0</ele>
      </trkpt>
      <trkpt lat="42.80185" lon="-0.13841">
        <time>2023-03-22T12:39:24+00:00</time>
        <ele>2051.0</ele>
      </trkpt>
      <trkpt lat="42.801832" lon="-0.138415">
        <time>2023-03-22T12:39:22+00:00</time>
        <ele>2051.0</ele>
      </trkpt>
      <trkpt lat="42.80182" lon="-0.138431">
        <time>2023-03-22T12:39:20+00:00</time>
        <ele>2051.0</ele>
      </trkpt>
      <trkpt lat="42.801823" lon="-0.138453">
        <time>2023-03-22T12:39:11+00:00</time>
        <ele>2051.0</ele>
      </trkpt>
      <trkpt lat="42.8018" lon="-0.138464">
        <time>2023-03-22T12:39:08+00:00</time>
        <ele>2051.0</ele>
      </trkpt>
      <trkpt lat="42.801782" lon="-0.138458">
        <time>2023-03-22T12:39:00+00:00</time>
        <ele>2051.0</ele>
      </trkpt>
      <trkpt lat="42.80177" lon="-0.13845">
        <time>2023-03-22T12:38:58+00:00</time>
        <ele>2051.0</ele>
      </trkpt>
      <trkpt lat="42.801745" lon="-0.138463">
        <time>2023-03-22T12:38:54+00:00</time>
        <ele>2050.0</ele>
      </trkpt>
      <trkpt lat="42.801734" lon="-0.138472">
        <time>2023-03-22T12:38:53+00:00</time>
        <ele>2050.0</ele>
      </trkpt>
      <trkpt lat="42.801722" lon="-0.138478">
        <time>2023-03-22T12:38:52+00:00</time>
        <ele>2050.0</ele>
      </trkpt>
      <trkpt lat="42.801708" lon="-0.138479">
        <time>2023-03-22T12:38:51+00:00</time>
        <ele>2050.0</ele>
      </trkpt>
      <trkpt lat="42.801691" lon="-0.138488">
        <time>2023-03-22T12:38:50+00:00</time>
        <ele>2050.0</ele>
      </trkpt>
      <trkpt lat="42.80167" lon="-0.138498">
        <time>2023-03-22T12:38:49+00:00</time>
        <ele>2051.0</ele>
      </trkpt>
      <trkpt lat="42.801648" lon="-0.138499">
        <time>2023-03-22T12:38:48+00:00</time>
        <ele>2050.0</ele>
      </trkpt>
      <trkpt lat="42.801627" lon="-0.138507">
        <time>2023-03-22T12:38:47+00:00</time>
        <ele>2050.0</ele>
      </trkpt>
      <trkpt lat="42.801603" lon="-0.138518">
        <time>2023-03-22T12:38:46+00:00</time>
        <ele>2050.0</ele>
      </trkpt>
      <trkpt lat="42.801577" lon="-0.138528">
        <time>2023-03-22T12:38:45+00:00</time>
        <ele>2050.0</ele>
      </trkpt>
      <trkpt lat="42.801554" lon="-0.138536">
        <time>2023-03-22T12:38:44+00:00</time>
        <ele>2050.0</ele>
      </trkpt>
      <trkpt lat="42.801531" lon="-0.138545">
        <time>2023-03-22T12:38:43+00:00</time>
        <ele>2050.0</ele>
      </trkpt>
      <trkpt lat="42.801509" lon="-0.138549">
        <time>2023-03-22T12:38:42+00:00</time>
        <ele>2050.0</ele>
      </trkpt>
      <trkpt lat="42.801488" lon="-0.138557">
        <time>2023-03-22T12:38:41+00:00</time>
        <ele>2050.0</ele>
      </trkpt>
      <trkpt lat="42.801464" lon="-0.13856">
        <time>2023-03-22T12:38:40+00:00</time>
        <ele>2050.0</ele>
      </trkpt>
      <trkpt lat="42.801442" lon="-0.138567">
        <time>2023-03-22T12:38:39+00:00</time>
        <ele>2050.0</ele>
      </trkpt>
      <trkpt lat="42.801419" lon="-0.138573">
        <time>2023-03-22T12:38:38+00:00</time>
        <ele>2050.0</ele>
      </trkpt>
      <trkpt lat="42.801397" lon="-0.138577">
        <time>2023-03-22T12:38:37+00:00</time>
        <ele>2050.0</ele>
      </trkpt>
      <trkpt lat="42.801376" lon="-0.138582">
        <time>2023-03-22T12:38:36+00:00</time>
        <ele>2050.0</ele>
      </trkpt>
      <trkpt lat="42.801353" lon="-0.138592">
        <time>2023-03-22T12:38:35+00:00</time>
        <ele>2050.0</ele>
      </trkpt>
      <trkpt lat="42.801333" lon="-0.1386">
        <time>2023-03-22T12:38:34+00:00</time>
        <ele>2050.0</ele>
      </trkpt>
      <trkpt lat="42.801313" lon="-0.138614">
        <time>2023-03-22T12:38:33+00:00</time>
        <ele>2050.0</ele>
      </trkpt>
      <trkpt lat="42.801296" lon="-0.138623">
        <time>2023-03-22T12:38:32+00:00</time>
        <ele>2050.0</ele>
      </trkpt>
      <trkpt lat="42.801273" lon="-0.138631">
        <time>2023-03-22T12:38:31+00:00</time>
        <ele>2050.0</ele>
      </trkpt>
      <trkpt lat="42.801161" lon="-0.138692">
        <time>2023-03-22T12:38:24+00:00</time>
        <ele>2050.0</ele>
      </trkpt>
      <trkpt lat="42.801148" lon="-0.138688">
        <time>2023-03-22T12:38:23+00:00</time>
        <ele>2050.0</ele>
      </trkpt>
      <trkpt lat="42.801137" lon="-0.138681">
        <time>2023-03-22T12:38:22+00:00</time>
        <ele>2050.0</ele>
      </trkpt>
      <trkpt lat="42.801107" lon="-0.138654">
        <time>2023-03-22T12:38:15+00:00</time>
        <ele>2050.0</ele>
      </trkpt>
      <trkpt lat="42.80107" lon="-0.138608">
        <time>2023-03-22T12:38:04+00:00</time>
        <ele>2050.0</ele>
      </trkpt>
      <trkpt lat="42.801035" lon="-0.138599">
        <time>2023-03-22T12:37:54+00:00</time>
        <ele>2050.0</ele>
      </trkpt>
      <trkpt lat="42.801014" lon="-0.138598">
        <time>2023-03-22T12:37:43+00:00</time>
        <ele>2050.0</ele>
      </trkpt>
      <trkpt lat="42.801006" lon="-0.138592">
        <time>2023-03-22T12:37:42+00:00</time>
        <ele>2050.0</ele>
      </trkpt>
      <trkpt lat="42.800993" lon="-0.13859">
        <time>2023-03-22T12:37:41+00:00</time>
        <ele>2050.0</ele>
      </trkpt>
      <trkpt lat="42.800979" lon="-0.138587">
        <time>2023-03-22T12:37:40+00:00</time>
        <ele>2050.0</ele>
      </trkpt>
      <trkpt lat="42.800967" lon="-0.138587">
        <time>2023-03-22T12:37:39+00:00</time>
        <ele>2050.0</ele>
      </trkpt>
      <trkpt lat="42.800947" lon="-0.138607">
        <time>2023-03-22T12:37:36+00:00</time>
        <ele>2050.0</ele>
      </trkpt>
      <trkpt lat="42.800899" lon="-0.13864">
        <time>2023-03-22T12:37:28+00:00</time>
        <ele>2050.0</ele>
      </trkpt>
      <trkpt lat="42.8008" lon="-0.138676">
        <time>2023-03-22T12:37:17+00:00</time>
        <ele>2050.0</ele>
      </trkpt>
      <trkpt lat="42.800777" lon="-0.138683">
        <time>2023-03-22T12:37:16+00:00</time>
        <ele>2050.0</ele>
      </trkpt>
      <trkpt lat="42.800752" lon="-0.1387">
        <time>2023-03-22T12:37:15+00:00</time>
        <ele>2050.0</ele>
      </trkpt>
      <trkpt lat="42.800725" lon="-0.138712">
        <time>2023-03-22T12:37:14+00:00</time>
        <ele>2050.0</ele>
      </trkpt>
      <trkpt lat="42.800699" lon="-0.138714">
        <time>2023-03-22T12:37:13+00:00</time>
        <ele>2051.0</ele>
      </trkpt>
      <trkpt lat="42.800679" lon="-0.138718">
        <time>2023-03-22T12:37:12+00:00</time>
        <ele>2051.0</ele>
      </trkpt>
      <trkpt lat="42.800656" lon="-0.138721">
        <time>2023-03-22T12:37:11+00:00</time>
        <ele>2051.0</ele>
      </trkpt>
      <trkpt lat="42.800636" lon="-0.138723">
        <time>2023-03-22T12:37:10+00:00</time>
        <ele>2051.0</ele>
      </trkpt>
      <trkpt lat="42.800619" lon="-0.138725">
        <time>2023-03-22T12:37:09+00:00</time>
        <ele>2051.0</ele>
      </trkpt>
      <trkpt lat="42.800597" lon="-0.138726">
        <time>2023-03-22T12:37:08+00:00</time>
        <ele>2051.0</ele>
      </trkpt>
      <trkpt lat="42.800577" lon="-0.138728">
        <time>2023-03-22T12:37:07+00:00</time>
        <ele>2051.0</ele>
      </trkpt>
      <trkpt lat="42.800533" lon="-0.138732">
        <time>2023-03-22T12:37:05+00:00</time>
        <ele>2051.0</ele>
      </trkpt>
      <trkpt lat="42.800508" lon="-0.138727">
        <time>2023-03-22T12:37:04+00:00</time>
        <ele>2051.0</ele>
      </trkpt>
      <trkpt lat="42.800484" lon="-0.138718">
        <time>2023-03-22T12:37:03+00:00</time>
        <ele>2051.0</ele>
      </trkpt>
      <trkpt lat="42.800457" lon="-0.138714">
        <time>2023-03-22T12:37:02+00:00</time>
        <ele>2052.0</ele>
      </trkpt>
      <trkpt lat="42.800429" lon="-0.138717">
        <time>2023-03-22T12:37:01+00:00</time>
        <ele>2052.0</ele>
      </trkpt>
      <trkpt lat="42.800404" lon="-0.138714">
        <time>2023-03-22T12:37:00+00:00</time>
        <ele>2052.0</ele>
      </trkpt>
      <trkpt lat="42.800381" lon="-0.138715">
        <time>2023-03-22T12:36:59+00:00</time>
        <ele>2052.0</ele>
      </trkpt>
      <trkpt lat="42.800357" lon="-0.138714">
        <time>2023-03-22T12:36:58+00:00</time>
        <ele>2052.0</ele>
      </trkpt>
      <trkpt lat="42.800334" lon="-0.138717">
        <time>2023-03-22T12:36:57+00:00</time>
        <ele>2052.0</ele>
      </trkpt>
      <trkpt lat="42.800311" lon="-0.13873">
        <time>2023-03-22T12:36:56+00:00</time>
        <ele>2052.0</ele>
      </trkpt>
      <trkpt lat="42.800288" lon="-0.138742">
        <time>2023-03-22T12:36:55+00:00</time>
        <ele>2052.0</ele>
      </trkpt>
      <trkpt lat="42.800267" lon="-0.138751">
        <time>2023-03-22T12:36:54+00:00</time>
        <ele>2052.0</ele>
      </trkpt>
      <trkpt lat="42.800246" lon="-0.138761">
        <time>2023-03-22T12:36:53+00:00</time>
        <ele>2051.0</ele>
      </trkpt>
      <trkpt lat="42.800225" lon="-0.138765">
        <time>2023-03-22T12:36:52+00:00</time>
        <ele>2051.0</ele>
      </trkpt>
      <trkpt lat="42.800201" lon="-0.138775">
        <time>2023-03-22T12:36:51+00:00</time>
        <ele>2051.0</ele>
      </trkpt>
      <trkpt lat="42.800177" lon="-0.138785">
        <time>2023-03-22T12:36:50+00:00</time>
        <ele>2051.0</ele>
      </trkpt>
      <trkpt lat="42.800153" lon="-0.138799">
        <time>2023-03-22T12:36:49+00:00</time>
        <ele>2051.0</ele>
      </trkpt>
      <trkpt lat="42.800131" lon="-0.138809">
        <time>2023-03-22T12:36:48+00:00</time>
        <ele>2051.0</ele>
      </trkpt>
      <trkpt lat="42.800107" lon="-0.138814">
        <time>2023-03-22T12:36:47+00:00</time>
        <ele>2051.0</ele>
      </trkpt>
      <trkpt lat="42.800087" lon="-0.138825">
        <time>2023-03-22T12:36:46+00:00</time>
        <ele>2051.0</ele>
      </trkpt>
      <trkpt lat="42.800068" lon="-0.13883">
        <time>2023-03-22T12:36:45+00:00</time>
        <ele>2052.0</ele>
      </trkpt>
      <trkpt lat="42.800046" lon="-0.138839">
        <time>2023-03-22T12:36:44+00:00</time>
        <ele>2052.0</ele>
      </trkpt>
      <trkpt lat="42.800023" lon="-0.138847">
        <time>2023-03-22T12:36:43+00:00</time>
        <ele>2052.0</ele>
      </trkpt>
      <trkpt lat="42.800001" lon="-0.138849">
        <time>2023-03-22T12:36:42+00:00</time>
        <ele>2052.0</ele>
      </trkpt>
      <trkpt lat="42.799976" lon="-0.138854">
        <time>2023-03-22T12:36:41+00:00</time>
        <ele>2052.0</ele>
      </trkpt>
      <trkpt lat="42.799953" lon="-0.138854">
        <time>2023-03-22T12:36:40+00:00</time>
        <ele>2052.0</ele>
      </trkpt>
      <trkpt lat="42.799931" lon="-0.138854">
        <time>2023-03-22T12:36:39+00:00</time>
        <ele>2052.0</ele>
      </trkpt>
      <trkpt lat="42.799908" lon="-0.138853">
        <time>2023-03-22T12:36:38+00:00</time>
        <ele>2052.0</ele>
      </trkpt>
      <trkpt lat="42.799885" lon="-0.138851">
        <time>2023-03-22T12:36:37+00:00</time>
        <ele>2052.0</ele>
      </trkpt>
      <trkpt lat="42.799861" lon="-0.138853">
        <time>2023-03-22T12:36:36+00:00</time>
        <ele>2052.0</ele>
      </trkpt>
      <trkpt lat="42.799837" lon="-0.138852">
        <time>2023-03-22T12:36:35+00:00</time>
        <ele>2052.0</ele>
      </trkpt>
      <trkpt lat="42.799814" lon="-0.138853">
        <time>2023-03-22T12:36:34+00:00</time>
        <ele>2052.0</ele>
      </trkpt>
      <trkpt lat="42.799793" lon="-0.13886">
        <time>2023-03-22T12:36:33+00:00</time>
        <ele>2052.0</ele>
      </trkpt>
      <trkpt lat="42.799775" lon="-0.138858">
        <time>2023-03-22T12:36:32+00:00</time>
        <ele>2052.0</ele>
      </trkpt>
      <trkpt lat="42.799758" lon="-0.138851">
        <time>2023-03-22T12:36:31+00:00</time>
        <ele>2052.0</ele>
      </trkpt>
      <trkpt lat="42.79974" lon="-0.138835">
        <time>2023-03-22T12:36:30+00:00</time>
        <ele>2052.0</ele>
      </trkpt>
      <trkpt lat="42.799724" lon="-0.138821">
        <time>2023-03-22T12:36:29+00:00</time>
        <ele>2052.0</ele>
      </trkpt>
      <trkpt lat="42.799707" lon="-0.138819">
        <time>2023-03-22T12:36:28+00:00</time>
        <ele>2052.0</ele>
      </trkpt>
      <trkpt lat="42.799688" lon="-0.138833">
        <time>2023-03-22T12:36:27+00:00</time>
        <ele>2052.0</ele>
      </trkpt>
      <trkpt lat="42.799672" lon="-0.138853">
        <time>2023-03-22T12:36:26+00:00</time>
        <ele>2052.0</ele>
      </trkpt>
      <trkpt lat="42.799653" lon="-0.138871">
        <time>2023-03-22T12:36:25+00:00</time>
        <ele>2052.0</ele>
      </trkpt>
      <trkpt lat="42.799635" lon="-0.138895">
        <time>2023-03-22T12:36:24+00:00</time>
        <ele>2052.0</ele>
      </trkpt>
      <trkpt lat="42.799615" lon="-0.138914">
        <time>2023-03-22T12:36:23+00:00</time>
        <ele>2052.0</ele>
      </trkpt>
      <trkpt lat="42.799592" lon="-0.138927">
        <time>2023-03-22T12:36:22+00:00</time>
        <ele>2052.0</ele>
      </trkpt>
      <trkpt lat="42.799568" lon="-0.138944">
        <time>2023-03-22T12:36:21+00:00</time>
        <ele>2052.0</ele>
      </trkpt>
      <trkpt lat="42.799542" lon="-0.138955">
        <time>2023-03-22T12:36:20+00:00</time>
        <ele>2052.0</ele>
      </trkpt>
      <trkpt lat="42.799521" lon="-0.138967">
        <time>2023-03-22T12:36:19+00:00</time>
        <ele>2052.0</ele>
      </trkpt>
      <trkpt lat="42.799499" lon="-0.138976">
        <time>2023-03-22T12:36:18+00:00</time>
        <ele>2052.0</ele>
      </trkpt>
      <trkpt lat="42.799478" lon="-0.138994">
        <time>2023-03-22T12:36:17+00:00</time>
        <ele>2052.0</ele>
      </trkpt>
      <trkpt lat="42.799454" lon="-0.139008">
        <time>2023-03-22T12:36:16+00:00</time>
        <ele>2052.0</ele>
      </trkpt>
      <trkpt lat="42.79943" lon="-0.139016">
        <time>2023-03-22T12:36:15+00:00</time>
        <ele>2052.0</ele>
      </trkpt>
      <trkpt lat="42.799387" lon="-0.139056">
        <time>2023-03-22T12:36:13+00:00</time>
        <ele>2052.0</ele>
      </trkpt>
      <trkpt lat="42.799362" lon="-0.139072">
        <time>2023-03-22T12:36:12+00:00</time>
        <ele>2052.0</ele>
      </trkpt>
      <trkpt lat="42.799338" lon="-0.139088">
        <time>2023-03-22T12:36:11+00:00</time>
        <ele>2053.0</ele>
      </trkpt>
      <trkpt lat="42.799315" lon="-0.139096">
        <time>2023-03-22T12:36:10+00:00</time>
        <ele>2053.0</ele>
      </trkpt>
      <trkpt lat="42.799287" lon="-0.139101">
        <time>2023-03-22T12:36:09+00:00</time>
        <ele>2053.0</ele>
      </trkpt>
      <trkpt lat="42.799264" lon="-0.139115">
        <time>2023-03-22T12:36:08+00:00</time>
        <ele>2053.0</ele>
      </trkpt>
      <trkpt lat="42.799237" lon="-0.139127">
        <time>2023-03-22T12:36:07+00:00</time>
        <ele>2054.0</ele>
      </trkpt>
      <trkpt lat="42.799211" lon="-0.139137">
        <time>2023-03-22T12:36:06+00:00</time>
        <ele>2054.0</ele>
      </trkpt>
      <trkpt lat="42.799185" lon="-0.139154">
        <time>2023-03-22T12:36:05+00:00</time>
        <ele>2054.0</ele>
      </trkpt>
      <trkpt lat="42.799162" lon="-0.139163">
        <time>2023-03-22T12:36:04+00:00</time>
        <ele>2055.0</ele>
      </trkpt>
      <trkpt lat="42.799141" lon="-0.139172">
        <time>2023-03-22T12:36:03+00:00</time>
        <ele>2055.0</ele>
      </trkpt>
      <trkpt lat="42.799121" lon="-0.139183">
        <time>2023-03-22T12:36:02+00:00</time>
        <ele>2055.0</ele>
      </trkpt>
      <trkpt lat="42.799101" lon="-0.139187">
        <time>2023-03-22T12:36:01+00:00</time>
        <ele>2055.0</ele>
      </trkpt>
      <trkpt lat="42.799078" lon="-0.139196">
        <time>2023-03-22T12:36:00+00:00</time>
        <ele>2055.0</ele>
      </trkpt>
      <trkpt lat="42.799051" lon="-0.139209">
        <time>2023-03-22T12:35:59+00:00</time>
        <ele>2055.0</ele>
      </trkpt>
      <trkpt lat="42.799022" lon="-0.13922">
        <time>2023-03-22T12:35:58+00:00</time>
        <ele>2055.0</ele>
      </trkpt>
      <trkpt lat="42.798994" lon="-0.139242">
        <time>2023-03-22T12:35:57+00:00</time>
        <ele>2055.0</ele>
      </trkpt>
      <trkpt lat="42.79881" lon="-0.139316">
        <time>2023-03-22T12:35:51+00:00</time>
        <ele>2056.0</ele>
      </trkpt>
      <trkpt lat="42.798779" lon="-0.139331">
        <time>2023-03-22T12:35:50+00:00</time>
        <ele>2056.0</ele>
      </trkpt>
      <trkpt lat="42.798635" lon="-0.139463">
        <time>2023-03-22T12:35:44+00:00</time>
        <ele>2057.0</ele>
      </trkpt>
      <trkpt lat="42.798614" lon="-0.139484">
        <time>2023-03-22T12:35:29+00:00</time>
        <ele>2057.0</ele>
      </trkpt>
      <trkpt lat="42.798603" lon="-0.139492">
        <time>2023-03-22T12:35:13+00:00</time>
        <ele>2057.0</ele>
      </trkpt>
      <trkpt lat="42.798605" lon="-0.13947">
        <time>2023-03-22T12:34:59+00:00</time>
        <ele>2057.0</ele>
      </trkpt>
      <trkpt lat="42.798604" lon="-0.139434">
        <time>2023-03-22T12:34:48+00:00</time>
        <ele>2057.0</ele>
      </trkpt>
      <trkpt lat="42.798514" lon="-0.139462">
        <time>2023-03-22T12:34:37+00:00</time>
        <ele>2057.0</ele>
      </trkpt>
      <trkpt lat="42.798494" lon="-0.139456">
        <time>2023-03-22T12:34:35+00:00</time>
        <ele>2057.0</ele>
      </trkpt>
      <trkpt lat="42.798474" lon="-0.139458">
        <time>2023-03-22T12:34:33+00:00</time>
        <ele>2057.0</ele>
      </trkpt>
      <trkpt lat="42.798454" lon="-0.13945">
        <time>2023-03-22T12:34:31+00:00</time>
        <ele>2057.0</ele>
      </trkpt>
      <trkpt lat="42.798415" lon="-0.139491">
        <time>2023-03-22T12:34:26+00:00</time>
        <ele>2058.0</ele>
      </trkpt>
      <trkpt lat="42.798346" lon="-0.139582">
        <time>2023-03-22T12:34:17+00:00</time>
        <ele>2058.0</ele>
      </trkpt>
      <trkpt lat="42.798317" lon="-0.139599">
        <time>2023-03-22T12:34:13+00:00</time>
        <ele>2059.0</ele>
      </trkpt>
      <trkpt lat="42.798276" lon="-0.139639">
        <time>2023-03-22T12:34:09+00:00</time>
        <ele>2059.0</ele>
      </trkpt>
      <trkpt lat="42.798233" lon="-0.139613">
        <time>2023-03-22T12:34:04+00:00</time>
        <ele>2059.0</ele>
      </trkpt>
      <trkpt lat="42.798189" lon="-0.139573">
        <time>2023-03-22T12:34:00+00:00</time>
        <ele>2059.0</ele>
      </trkpt>
      <trkpt lat="42.798181" lon="-0.139577">
        <time>2023-03-22T12:33:58+00:00</time>
        <ele>2059.0</ele>
      </trkpt>
      <trkpt lat="42.798179" lon="-0.139582">
        <time>2023-03-22T12:33:47+00:00</time>
        <ele>2059.0</ele>
      </trkpt>
      <trkpt lat="42.79814" lon="-0.139588">
        <time>2023-03-22T12:33:35+00:00</time>
        <ele>2059.0</ele>
      </trkpt>
      <trkpt lat="42.798083" lon="-0.139499">
        <time>2023-03-22T12:33:30+00:00</time>
        <ele>2060.0</ele>
      </trkpt>
      <trkpt lat="42.797879" lon="-0.139595">
        <time>2023-03-22T12:33:20+00:00</time>
        <ele>2061.0</ele>
      </trkpt>
      <trkpt lat="42.797656" lon="-0.139814">
        <time>2023-03-22T12:33:06+00:00</time>
        <ele>2066.0</ele>
      </trkpt>
      <trkpt lat="42.797432" lon="-0.139981">
        <time>2023-03-22T12:32:55+00:00</time>
        <ele>2070.0</ele>
      </trkpt>
      <trkpt lat="42.797408" lon="-0.139994">
        <time>2023-03-22T12:32:54+00:00</time>
        <ele>2070.0</ele>
      </trkpt>
      <trkpt lat="42.797391" lon="-0.140014">
        <time>2023-03-22T12:32:53+00:00</time>
        <ele>2070.0</ele>
      </trkpt>
      <trkpt lat="42.79737" lon="-0.140034">
        <time>2023-03-22T12:32:52+00:00</time>
        <ele>2070.0</ele>
      </trkpt>
      <trkpt lat="42.797328" lon="-0.140036">
        <time>2023-03-22T12:32:51+00:00</time>
        <ele>2070.0</ele>
      </trkpt>
      <trkpt lat="42.797257" lon="-0.139988">
        <time>2023-03-22T12:32:48+00:00</time>
        <ele>2073.0</ele>
      </trkpt>
      <trkpt lat="42.797222" lon="-0.139971">
        <time>2023-03-22T12:32:33+00:00</time>
        <ele>2073.0</ele>
      </trkpt>
      <trkpt lat="42.797235" lon="-0.140008">
        <time>2023-03-22T12:32:23+00:00</time>
        <ele>2072.0</ele>
      </trkpt>
      <trkpt lat="42.797236" lon="-0.140013">
        <time>2023-03-22T12:32:20+00:00</time>
        <ele>2072.0</ele>
      </trkpt>
      <trkpt lat="42.797225" lon="-0.140026">
        <time>2023-03-22T12:32:11+00:00</time>
        <ele>2072.0</ele>
      </trkpt>
      <trkpt lat="42.797107" lon="-0.140154">
        <time>2023-03-22T12:31:58+00:00</time>
        <ele>2071.0</ele>
      </trkpt>
      <trkpt lat="42.797103" lon="-0.140172">
        <time>2023-03-22T12:31:57+00:00</time>
        <ele>2071.0</ele>
      </trkpt>
      <trkpt lat="42.797094" lon="-0.140192">
        <time>2023-03-22T12:31:56+00:00</time>
        <ele>2070.0</ele>
      </trkpt>
      <trkpt lat="42.797083" lon="-0.140205">
        <time>2023-03-22T12:31:55+00:00</time>
        <ele>2070.0</ele>
      </trkpt>
      <trkpt lat="42.797068" lon="-0.140224">
        <time>2023-03-22T12:31:54+00:00</time>
        <ele>2070.0</ele>
      </trkpt>
      <trkpt lat="42.797025" lon="-0.140275">
        <time>2023-03-22T12:31:50+00:00</time>
        <ele>2070.0</ele>
      </trkpt>
      <trkpt lat="42.797025" lon="-0.140279">
        <time>2023-03-22T12:31:45+00:00</time>
        <ele>2070.0</ele>
      </trkpt>
      <trkpt lat="42.79702" lon="-0.140279">
        <time>2023-03-22T12:31:26+00:00</time>
        <ele>2070.0</ele>
      </trkpt>
      <trkpt lat="42.797026" lon="-0.140272">
        <time>2023-03-22T12:31:15+00:00</time>
        <ele>2070.0</ele>
      </trkpt>
      <trkpt lat="42.797014" lon="-0.140267">
        <time>2023-03-22T12:31:14+00:00</time>
        <ele>2070.0</ele>
      </trkpt>
      <trkpt lat="42.796894" lon="-0.140155">
        <time>2023-03-22T12:31:06+00:00</time>
        <ele>2073.0</ele>
      </trkpt>
      <trkpt lat="42.796879" lon="-0.14016">
        <time>2023-03-22T12:31:03+00:00</time>
        <ele>2073.0</ele>
      </trkpt>
      <trkpt lat="42.796874" lon="-0.140148">
        <time>2023-03-22T12:30:57+00:00</time>
        <ele>2073.0</ele>
      </trkpt>
      <trkpt lat="42.796846" lon="-0.14016">
        <time>2023-03-22T12:30:47+00:00</time>
        <ele>2073.0</ele>
      </trkpt>
      <trkpt lat="42.796842" lon="-0.14016">
        <time>2023-03-22T12:30:45+00:00</time>
        <ele>2073.0</ele>
      </trkpt>
      <trkpt lat="42.796823" lon="-0.140177">
        <time>2023-03-22T12:30:29+00:00</time>
        <ele>2073.0</ele>
      </trkpt>
      <trkpt lat="42.796801" lon="-0.140153">
        <time>2023-03-22T12:30:27+00:00</time>
        <ele>2073.0</ele>
      </trkpt>
      <trkpt lat="42.796833" lon="-0.13997">
        <time>2023-03-22T12:30:19+00:00</time>
        <ele>2075.0</ele>
      </trkpt>
      <trkpt lat="42.796841" lon="-0.139965">
        <time>2023-03-22T12:30:12+00:00</time>
        <ele>2075.0</ele>
      </trkpt>
      <trkpt lat="42.796658" lon="-0.139774">
        <time>2023-03-22T12:30:04+00:00</time>
        <ele>2078.0</ele>
      </trkpt>
      <trkpt lat="42.796536" lon="-0.13965">
        <time>2023-03-22T12:30:02+00:00</time>
        <ele>2081.0</ele>
      </trkpt>
      <trkpt lat="42.796388" lon="-0.139553">
        <time>2023-03-22T12:30:00+00:00</time>
        <ele>2084.0</ele>
      </trkpt>
      <trkpt lat="42.796262" lon="-0.139436">
        <time>2023-03-22T12:29:58+00:00</time>
        <ele>2090.0</ele>
      </trkpt>
      <trkpt lat="42.796208" lon="-0.139165">
        <time>2023-03-22T12:29:55+00:00</time>
        <ele>2100.0</ele>
      </trkpt>
      <trkpt lat="42.796148" lon="-0.139047">
        <time>2023-03-22T12:29:53+00:00</time>
        <ele>2104.0</ele>
      </trkpt>
      <trkpt lat="42.795983" lon="-0.138981">
        <time>2023-03-22T12:29:50+00:00</time>
        <ele>2108.0</ele>
      </trkpt>
      <trkpt lat="42.795914" lon="-0.138925">
        <time>2023-03-22T12:29:47+00:00</time>
        <ele>2112.0</ele>
      </trkpt>
      <trkpt lat="42.795945" lon="-0.138919">
        <time>2023-03-22T12:29:24+00:00</time>
        <ele>2112.0</ele>
      </trkpt>
      <trkpt lat="42.795908" lon="-0.138904">
        <time>2023-03-22T12:29:13+00:00</time>
        <ele>2113.0</ele>
      </trkpt>
      <trkpt lat="42.795751" lon="-0.138975">
        <time>2023-03-22T12:29:04+00:00</time>
        <ele>2112.0</ele>
      </trkpt>
      <trkpt lat="42.795531" lon="-0.13904">
        <time>2023-03-22T12:28:54+00:00</time>
        <ele>2114.0</ele>
      </trkpt>
      <trkpt lat="42.79552" lon="-0.139039">
        <time>2023-03-22T12:28:51+00:00</time>
        <ele>2115.0</ele>
      </trkpt>
      <trkpt lat="42.795368" lon="-0.139077">
        <time>2023-03-22T12:28:38+00:00</time>
        <ele>2116.0</ele>
      </trkpt>
      <trkpt lat="42.795339" lon="-0.139084">
        <time>2023-03-22T12:28:34+00:00</time>
        <ele>2117.0</ele>
      </trkpt>
      <trkpt lat="42.795298" lon="-0.13911">
        <time>2023-03-22T12:28:23+00:00</time>
        <ele>2118.0</ele>
      </trkpt>
      <trkpt lat="42.795247" lon="-0.139142">
        <time>2023-03-22T12:28:12+00:00</time>
        <ele>2119.0</ele>
      </trkpt>
      <trkpt lat="42.795182" lon="-0.139183">
        <time>2023-03-22T12:28:01+00:00</time>
        <ele>2120.0</ele>
      </trkpt>
      <trkpt lat="42.795107" lon="-0.139247">
        <time>2023-03-22T12:27:48+00:00</time>
        <ele>2120.0</ele>
      </trkpt>
      <trkpt lat="42.794974" lon="-0.139369">
        <time>2023-03-22T12:27:38+00:00</time>
        <ele>2122.0</ele>
      </trkpt>
      <trkpt lat="42.794708" lon="-0.139577">
        <time>2023-03-22T12:27:25+00:00</time>
        <ele>2123.0</ele>
      </trkpt>
      <trkpt lat="42.794683" lon="-0.139588">
        <time>2023-03-22T12:27:24+00:00</time>
        <ele>2124.0</ele>
      </trkpt>
      <trkpt lat="42.794515" lon="-0.139662">
        <time>2023-03-22T12:27:20+00:00</time>
        <ele>2125.0</ele>
      </trkpt>
      <trkpt lat="42.794395" lon="-0.139655">
        <time>2023-03-22T12:27:16+00:00</time>
        <ele>2127.0</ele>
      </trkpt>
      <trkpt lat="42.794402" lon="-0.139645">
        <time>2023-03-22T12:26:59+00:00</time>
        <ele>2128.0</ele>
      </trkpt>
      <trkpt lat="42.794232" lon="-0.13971">
        <time>2023-03-22T12:26:50+00:00</time>
        <ele>2128.0</ele>
      </trkpt>
      <trkpt lat="42.794155" lon="-0.139712">
        <time>2023-03-22T12:26:48+00:00</time>
        <ele>2130.0</ele>
      </trkpt>
      <trkpt lat="42.793859" lon="-0.139708">
        <time>2023-03-22T12:26:42+00:00</time>
        <ele>2138.0</ele>
      </trkpt>
      <trkpt lat="42.793598" lon="-0.139864">
        <time>2023-03-22T12:26:32+00:00</time>
        <ele>2141.0</ele>
      </trkpt>
      <trkpt lat="42.793316" lon="-0.140033">
        <time>2023-03-22T12:26:23+00:00</time>
        <ele>2149.0</ele>
      </trkpt>
      <trkpt lat="42.793195" lon="-0.140185">
        <time>2023-03-22T12:26:13+00:00</time>
        <ele>2149.0</ele>
      </trkpt>
      <trkpt lat="42.793127" lon="-0.140496">
        <time>2023-03-22T12:26:02+00:00</time>
        <ele>2143.0</ele>
      </trkpt>
      <trkpt lat="42.793126" lon="-0.140503">
        <time>2023-03-22T12:26:01+00:00</time>
        <ele>2143.0</ele>
      </trkpt>
      <trkpt lat="42.793098" lon="-0.140549">
        <time>2023-03-22T12:25:57+00:00</time>
        <ele>2144.0</ele>
      </trkpt>
      <trkpt lat="42.793076" lon="-0.140686">
        <time>2023-03-22T12:25:51+00:00</time>
        <ele>2143.0</ele>
      </trkpt>
      <trkpt lat="42.793078" lon="-0.140706">
        <time>2023-03-22T12:25:47+00:00</time>
        <ele>2143.0</ele>
      </trkpt>
      <trkpt lat="42.793073" lon="-0.140714">
        <time>2023-03-22T12:25:40+00:00</time>
        <ele>2143.0</ele>
      </trkpt>
      <trkpt lat="42.793097" lon="-0.140726">
        <time>2023-03-22T12:25:22+00:00</time>
        <ele>2142.0</ele>
      </trkpt>
      <trkpt lat="42.793039" lon="-0.1408">
        <time>2023-03-22T12:25:13+00:00</time>
        <ele>2144.0</ele>
      </trkpt>
      <trkpt lat="42.793036" lon="-0.141026">
        <time>2023-03-22T12:25:02+00:00</time>
        <ele>2146.0</ele>
      </trkpt>
      <trkpt lat="42.793034" lon="-0.141153">
        <time>2023-03-22T12:24:57+00:00</time>
        <ele>2148.0</ele>
      </trkpt>
      <trkpt lat="42.793033" lon="-0.141156">
        <time>2023-03-22T12:24:54+00:00</time>
        <ele>2148.0</ele>
      </trkpt>
      <trkpt lat="42.79304" lon="-0.141159">
        <time>2023-03-22T12:24:42+00:00</time>
        <ele>2148.0</ele>
      </trkpt>
      <trkpt lat="42.79304" lon="-0.141141">
        <time>2023-03-22T12:24:27+00:00</time>
        <ele>2147.0</ele>
      </trkpt>
      <trkpt lat="42.793025" lon="-0.141153">
        <time>2023-03-22T12:24:10+00:00</time>
        <ele>2148.0</ele>
      </trkpt>
      <trkpt lat="42.793022" lon="-0.14117">
        <time>2023-03-22T12:23:56+00:00</time>
        <ele>2148.0</ele>
      </trkpt>
      <trkpt lat="42.793007" lon="-0.141172">
        <time>2023-03-22T12:23:36+00:00</time>
        <ele>2149.0</ele>
      </trkpt>
      <trkpt lat="42.793019" lon="-0.141142">
        <time>2023-03-22T12:22:56+00:00</time>
        <ele>2148.0</ele>
      </trkpt>
      <trkpt lat="42.793047" lon="-0.141155">
        <time>2023-03-22T12:22:47+00:00</time>
        <ele>2147.0</ele>
      </trkpt>
      <trkpt lat="42.79301" lon="-0.14117">
        <time>2023-03-22T12:22:35+00:00</time>
        <ele>2148.0</ele>
      </trkpt>
      <trkpt lat="42.792984" lon="-0.141236">
        <time>2023-03-22T12:22:23+00:00</time>
        <ele>2149.0</ele>
      </trkpt>
      <trkpt lat="42.792972" lon="-0.141241">
        <time>2023-03-22T12:22:20+00:00</time>
        <ele>2149.0</ele>
      </trkpt>
      <trkpt lat="42.792925" lon="-0.141248">
        <time>2023-03-22T12:21:55+00:00</time>
        <ele>2149.0</ele>
      </trkpt>
      <trkpt lat="42.79282" lon="-0.141309">
        <time>2023-03-22T12:21:44+00:00</time>
        <ele>2148.0</ele>
      </trkpt>
      <trkpt lat="42.792804" lon="-0.141427">
        <time>2023-03-22T12:21:35+00:00</time>
        <ele>2146.0</ele>
      </trkpt>
      <trkpt lat="42.792805" lon="-0.14142">
        <time>2023-03-22T12:21:29+00:00</time>
        <ele>2147.0</ele>
      </trkpt>
      <trkpt lat="42.792816" lon="-0.141385">
        <time>2023-03-22T12:21:18+00:00</time>
        <ele>2147.0</ele>
      </trkpt>
      <trkpt lat="42.792742" lon="-0.141351">
        <time>2023-03-22T12:21:04+00:00</time>
        <ele>2146.0</ele>
      </trkpt>
      <trkpt lat="42.792736" lon="-0.141351">
        <time>2023-03-22T12:21:02+00:00</time>
        <ele>2146.0</ele>
      </trkpt>
      <trkpt lat="42.792529" lon="-0.141588">
        <time>2023-03-20T06:15:07+00:00</time>
        <ele>2143.0</ele>
      </trkpt>
      <trkpt lat="42.792528" lon="-0.141589">
        <time>2023-03-20T06:15:08+00:00</time>
        <ele>2143.0</ele>
      </trkpt>
      <trkpt lat="42.792556" lon="-0.141592">
        <time>2023-03-20T06:15:13+00:00</time>
        <ele>2143.0</ele>
      </trkpt>
      <trkpt lat="42.792536" lon="-0.141585">
        <time>2023-03-20T06:15:16+00:00</time>
        <ele>2143.0</ele>
      </trkpt>
      <trkpt lat="42.792529" lon="-0.141586">
        <time>2023-03-20T06:15:17+00:00</time>
        <ele>2143.0</ele>
      </trkpt>
      <trkpt lat="42.792522" lon="-0.141592">
        <time>2023-03-20T06:15:20+00:00</time>
        <ele>2143.0</ele>
      </trkpt>
      <trkpt lat="42.792533" lon="-0.141592">
        <time>2023-03-20T06:15:32+00:00</time>
        <ele>2143.0</ele>
      </trkpt>
      <trkpt lat="42.792521" lon="-0.141586">
        <time>2023-03-20T06:15:38+00:00</time>
        <ele>2143.0</ele>
      </trkpt>
      <trkpt lat="42.792467" lon="-0.141582">
        <time>2023-03-20T06:15:44+00:00</time>
        <ele>2143.0</ele>
      </trkpt>
      <trkpt lat="42.792403" lon="-0.141554">
        <time>2023-03-20T06:15:51+00:00</time>
        <ele>2143.0</ele>
      </trkpt>
      <trkpt lat="42.792276" lon="-0.141521">
        <time>2023-03-20T06:16:03+00:00</time>
        <ele>2144.0</ele>
      </trkpt>
      <trkpt lat="42.792214" lon="-0.141493">
        <time>2023-03-20T06:16:08+00:00</time>
        <ele>2144.0</ele>
      </trkpt>
      <trkpt lat="42.792039" lon="-0.141437">
        <time>2023-03-20T06:16:23+00:00</time>
        <ele>2145.0</ele>
      </trkpt>
      <trkpt lat="42.792027" lon="-0.141431">
        <time>2023-03-20T06:16:24+00:00</time>
        <ele>2145.0</ele>
      </trkpt>
      <trkpt lat="42.791874" lon="-0.141344">
        <time>2023-03-20T06:16:39+00:00</time>
        <ele>2145.0</ele>
      </trkpt>
      <trkpt lat="42.791703" lon="-0.141276">
        <time>2023-03-20T06:16:53+00:00</time>
        <ele>2144.0</ele>
      </trkpt>
      <trkpt lat="42.791655" lon="-0.141269">
        <time>2023-03-20T06:16:57+00:00</time>
        <ele>2144.0</ele>
      </trkpt>
      <trkpt lat="42.791613" lon="-0.141252">
        <time>2023-03-20T06:17:01+00:00</time>
        <ele>2144.0</ele>
      </trkpt>
      <trkpt lat="42.791544" lon="-0.141226">
        <time>2023-03-20T06:17:13+00:00</time>
        <ele>2144.0</ele>
      </trkpt>
      <trkpt lat="42.791487" lon="-0.141208">
        <time>2023-03-20T06:17:17+00:00</time>
        <ele>2144.0</ele>
      </trkpt>
      <trkpt lat="42.791443" lon="-0.141205">
        <time>2023-03-20T06:17:20+00:00</time>
        <ele>2144.0</ele>
      </trkpt>
      <trkpt lat="42.791415" lon="-0.141196">
        <time>2023-03-20T06:17:22+00:00</time>
        <ele>2144.0</ele>
      </trkpt>
      <trkpt lat="42.791294" lon="-0.141178">
        <time>2023-03-20T06:17:32+00:00</time>
        <ele>2144.0</ele>
      </trkpt>
      <trkpt lat="42.791098" lon="-0.141127">
        <time>2023-03-20T06:17:47+00:00</time>
        <ele>2144.0</ele>
      </trkpt>
      <trkpt lat="42.790953" lon="-0.14107">
        <time>2023-03-20T06:17:59+00:00</time>
        <ele>2144.0</ele>
      </trkpt>
      <trkpt lat="42.790771" lon="-0.141061">
        <time>2023-03-20T06:18:13+00:00</time>
        <ele>2144.0</ele>
      </trkpt>
      <trkpt lat="42.790589" lon="-0.141025">
        <time>2023-03-20T06:18:27+00:00</time>
        <ele>2145.0</ele>
      </trkpt>
      <trkpt lat="42.790449" lon="-0.14101">
        <time>2023-03-20T06:18:39+00:00</time>
        <ele>2145.0</ele>
      </trkpt>
      <trkpt lat="42.790267" lon="-0.140995">
        <time>2023-03-20T06:18:53+00:00</time>
        <ele>2146.0</ele>
      </trkpt>
      <trkpt lat="42.790099" lon="-0.140982">
        <time>2023-03-20T06:19:07+00:00</time>
        <ele>2147.0</ele>
      </trkpt>
      <trkpt lat="42.78992" lon="-0.140958">
        <time>2023-03-20T06:19:21+00:00</time>
        <ele>2148.0</ele>
      </trkpt>
      <trkpt lat="42.789757" lon="-0.140934">
        <time>2023-03-20T06:19:35+00:00</time>
        <ele>2149.0</ele>
      </trkpt>
      <trkpt lat="42.789589" lon="-0.14092">
        <time>2023-03-20T06:19:49+00:00</time>
        <ele>2153.0</ele>
      </trkpt>
      <trkpt lat="42.789465" lon="-0.140894">
        <time>2023-03-20T06:20:00+00:00</time>
        <ele>2156.0</ele>
      </trkpt>
      <trkpt lat="42.789308" lon="-0.140881">
        <time>2023-03-20T06:20:14+00:00</time>
        <ele>2157.0</ele>
      </trkpt>
      <trkpt lat="42.789268" lon="-0.140864">
        <time>2023-03-20T06:20:18+00:00</time>
        <ele>2158.0</ele>
      </trkpt>
      <trkpt lat="42.789135" lon="-0.14083">
        <time>2023-03-20T06:20:31+00:00</time>
        <ele>2159.0</ele>
      </trkpt>
      <trkpt lat="42.788985" lon="-0.140789">
        <time>2023-03-20T06:20:45+00:00</time>
        <ele>2160.0</ele>
      </trkpt>
      <trkpt lat="42.788865" lon="-0.14074">
        <time>2023-03-20T06:21:00+00:00</time>
        <ele>2161.0</ele>
      </trkpt>
      <trkpt lat="42.788763" lon="-0.140693">
        <time>2023-03-20T06:21:12+00:00</time>
        <ele>2162.0</ele>
      </trkpt>
      <trkpt lat="42.788604" lon="-0.140641">
        <time>2023-03-20T06:21:27+00:00</time>
        <ele>2162.0</ele>
      </trkpt>
      <trkpt lat="42.788478" lon="-0.140589">
        <time>2023-03-20T06:21:41+00:00</time>
        <ele>2162.0</ele>
      </trkpt>
      <trkpt lat="42.788364" lon="-0.140531">
        <time>2023-03-20T06:21:54+00:00</time>
        <ele>2163.0</ele>
      </trkpt>
      <trkpt lat="42.788249" lon="-0.140453">
        <time>2023-03-20T06:22:07+00:00</time>
        <ele>2164.0</ele>
      </trkpt>
      <trkpt lat="42.788083" lon="-0.140421">
        <time>2023-03-20T06:22:22+00:00</time>
        <ele>2165.0</ele>
      </trkpt>
      <trkpt lat="42.787942" lon="-0.140398">
        <time>2023-03-20T06:22:35+00:00</time>
        <ele>2166.0</ele>
      </trkpt>
      <trkpt lat="42.78782" lon="-0.140396">
        <time>2023-03-20T06:22:47+00:00</time>
        <ele>2166.0</ele>
      </trkpt>
      <trkpt lat="42.787694" lon="-0.140357">
        <time>2023-03-20T06:23:01+00:00</time>
        <ele>2167.0</ele>
      </trkpt>
      <trkpt lat="42.787556" lon="-0.140317">
        <time>2023-03-20T06:23:15+00:00</time>
        <ele>2168.0</ele>
      </trkpt>
      <trkpt lat="42.787511" lon="-0.140307">
        <time>2023-03-20T06:23:19+00:00</time>
        <ele>2168.0</ele>
      </trkpt>
      <trkpt lat="42.787349" lon="-0.140298">
        <time>2023-03-20T06:23:33+00:00</time>
        <ele>2169.0</ele>
      </trkpt>
      <trkpt lat="42.787227" lon="-0.140299">
        <time>2023-03-20T06:23:45+00:00</time>
        <ele>2169.0</ele>
      </trkpt>
      <trkpt lat="42.787093" lon="-0.140324">
        <time>2023-03-20T06:23:58+00:00</time>
        <ele>2170.0</ele>
      </trkpt>
      <trkpt lat="42.786963" lon="-0.140357">
        <time>2023-03-20T06:24:11+00:00</time>
        <ele>2171.0</ele>
      </trkpt>
      <trkpt lat="42.786839" lon="-0.140387">
        <time>2023-03-20T06:24:23+00:00</time>
        <ele>2172.0</ele>
      </trkpt>
      <trkpt lat="42.786704" lon="-0.14044">
        <time>2023-03-20T06:24:36+00:00</time>
        <ele>2173.0</ele>
      </trkpt>
      <trkpt lat="42.786554" lon="-0.140505">
        <time>2023-03-20T06:24:51+00:00</time>
        <ele>2174.0</ele>
      </trkpt>
      <trkpt lat="42.786432" lon="-0.140545">
        <time>2023-03-20T06:25:04+00:00</time>
        <ele>2175.0</ele>
      </trkpt>
      <trkpt lat="42.786404" lon="-0.140558">
        <time>2023-03-20T06:25:07+00:00</time>
        <ele>2175.0</ele>
      </trkpt>
      <trkpt lat="42.786282" lon="-0.14059">
        <time>2023-03-20T06:25:19+00:00</time>
        <ele>2176.0</ele>
      </trkpt>
      <trkpt lat="42.786168" lon="-0.140641">
        <time>2023-03-20T06:25:33+00:00</time>
        <ele>2178.0</ele>
      </trkpt>
      <trkpt lat="42.786067" lon="-0.140687">
        <time>2023-03-20T06:25:46+00:00</time>
        <ele>2180.0</ele>
      </trkpt>
      <trkpt lat="42.785981" lon="-0.140734">
        <time>2023-03-20T06:25:59+00:00</time>
        <ele>2183.0</ele>
      </trkpt>
      <trkpt lat="42.785928" lon="-0.140767">
        <time>2023-03-20T06:26:12+00:00</time>
        <ele>2184.0</ele>
      </trkpt>
      <trkpt lat="42.785836" lon="-0.140796">
        <time>2023-03-20T06:26:26+00:00</time>
        <ele>2186.0</ele>
      </trkpt>
      <trkpt lat="42.785762" lon="-0.140839">
        <time>2023-03-20T06:26:39+00:00</time>
        <ele>2189.0</ele>
      </trkpt>
      <trkpt lat="42.785683" lon="-0.140952">
        <time>2023-03-20T06:26:54+00:00</time>
        <ele>2192.0</ele>
      </trkpt>
      <trkpt lat="42.785605" lon="-0.141014">
        <time>2023-03-20T06:27:07+00:00</time>
        <ele>2195.0</ele>
      </trkpt>
      <trkpt lat="42.78552" lon="-0.141075">
        <time>2023-03-20T06:27:21+00:00</time>
        <ele>2198.0</ele>
      </trkpt>
      <trkpt lat="42.785437" lon="-0.141112">
        <time>2023-03-20T06:27:34+00:00</time>
        <ele>2201.0</ele>
      </trkpt>
      <trkpt lat="42.785341" lon="-0.141159">
        <time>2023-03-20T06:27:46+00:00</time>
        <ele>2205.0</ele>
      </trkpt>
      <trkpt lat="42.785294" lon="-0.14124">
        <time>2023-03-20T06:28:00+00:00</time>
        <ele>2207.0</ele>
      </trkpt>
      <trkpt lat="42.785223" lon="-0.141319">
        <time>2023-03-20T06:28:14+00:00</time>
        <ele>2210.0</ele>
      </trkpt>
      <trkpt lat="42.785157" lon="-0.141386">
        <time>2023-03-20T06:28:27+00:00</time>
        <ele>2213.0</ele>
      </trkpt>
      <trkpt lat="42.785082" lon="-0.14145">
        <time>2023-03-20T06:28:40+00:00</time>
        <ele>2216.0</ele>
      </trkpt>
      <trkpt lat="42.785" lon="-0.141479">
        <time>2023-03-20T06:28:54+00:00</time>
        <ele>2218.0</ele>
      </trkpt>
      <trkpt lat="42.784924" lon="-0.141475">
        <time>2023-03-20T06:29:07+00:00</time>
        <ele>2222.0</ele>
      </trkpt>
      <trkpt lat="42.784873" lon="-0.14142">
        <time>2023-03-20T06:29:21+00:00</time>
        <ele>2225.0</ele>
      </trkpt>
      <trkpt lat="42.784806" lon="-0.141393">
        <time>2023-03-20T06:29:33+00:00</time>
        <ele>2228.0</ele>
      </trkpt>
      <trkpt lat="42.784709" lon="-0.141436">
        <time>2023-03-20T06:29:47+00:00</time>
        <ele>2230.0</ele>
      </trkpt>
      <trkpt lat="42.784593" lon="-0.141457">
        <time>2023-03-20T06:30:03+00:00</time>
        <ele>2233.0</ele>
      </trkpt>
      <trkpt lat="42.784514" lon="-0.141457">
        <time>2023-03-20T06:30:18+00:00</time>
        <ele>2236.0</ele>
      </trkpt>
      <trkpt lat="42.784458" lon="-0.141386">
        <time>2023-03-20T06:30:30+00:00</time>
        <ele>2240.0</ele>
      </trkpt>
      <trkpt lat="42.784381" lon="-0.141425">
        <time>2023-03-20T06:30:43+00:00</time>
        <ele>2241.0</ele>
      </trkpt>
      <trkpt lat="42.784307" lon="-0.141443">
        <time>2023-03-20T06:30:56+00:00</time>
        <ele>2243.0</ele>
      </trkpt>
      <trkpt lat="42.78424" lon="-0.141405">
        <time>2023-03-20T06:31:10+00:00</time>
        <ele>2247.0</ele>
      </trkpt>
      <trkpt lat="42.784178" lon="-0.141433">
        <time>2023-03-20T06:31:20+00:00</time>
        <ele>2248.0</ele>
      </trkpt>
      <trkpt lat="42.784114" lon="-0.141387">
        <time>2023-03-20T06:31:36+00:00</time>
        <ele>2251.0</ele>
      </trkpt>
      <trkpt lat="42.784029" lon="-0.141384">
        <time>2023-03-20T06:31:49+00:00</time>
        <ele>2254.0</ele>
      </trkpt>
      <trkpt lat="42.783967" lon="-0.141376">
        <time>2023-03-20T06:32:00+00:00</time>
        <ele>2256.0</ele>
      </trkpt>
      <trkpt lat="42.783874" lon="-0.141421">
        <time>2023-03-20T06:32:17+00:00</time>
        <ele>2258.0</ele>
      </trkpt>
      <trkpt lat="42.783823" lon="-0.141343">
        <time>2023-03-20T06:32:32+00:00</time>
        <ele>2263.0</ele>
      </trkpt>
      <trkpt lat="42.783778" lon="-0.141292">
        <time>2023-03-20T06:32:43+00:00</time>
        <ele>2266.0</ele>
      </trkpt>
      <trkpt lat="42.783717" lon="-0.141323">
        <time>2023-03-20T06:32:51+00:00</time>
        <ele>2268.0</ele>
      </trkpt>
      <trkpt lat="42.783688" lon="-0.141365">
        <time>2023-03-20T06:33:02+00:00</time>
        <ele>2268.0</ele>
      </trkpt>
      <trkpt lat="42.783642" lon="-0.141283">
        <time>2023-03-20T06:33:18+00:00</time>
        <ele>2271.0</ele>
      </trkpt>
      <trkpt lat="42.783581" lon="-0.141284">
        <time>2023-03-20T06:33:28+00:00</time>
        <ele>2273.0</ele>
      </trkpt>
      <trkpt lat="42.783521" lon="-0.141296">
        <time>2023-03-20T06:33:39+00:00</time>
        <ele>2274.0</ele>
      </trkpt>
      <trkpt lat="42.783421" lon="-0.141302">
        <time>2023-03-20T06:33:55+00:00</time>
        <ele>2277.0</ele>
      </trkpt>
      <trkpt lat="42.783334" lon="-0.1413">
        <time>2023-03-20T06:34:10+00:00</time>
        <ele>2279.0</ele>
      </trkpt>
      <trkpt lat="42.783285" lon="-0.141266">
        <time>2023-03-20T06:34:21+00:00</time>
        <ele>2280.0</ele>
      </trkpt>
      <trkpt lat="42.783267" lon="-0.141207">
        <time>2023-03-20T06:34:34+00:00</time>
        <ele>2281.0</ele>
      </trkpt>
      <trkpt lat="42.783243" lon="-0.141195">
        <time>2023-03-20T06:34:45+00:00</time>
        <ele>2282.0</ele>
      </trkpt>
      <trkpt lat="42.783243" lon="-0.141222">
        <time>2023-03-20T06:35:19+00:00</time>
        <ele>2282.0</ele>
      </trkpt>
      <trkpt lat="42.78325" lon="-0.141222">
        <time>2023-03-20T06:35:34+00:00</time>
        <ele>2282.0</ele>
      </trkpt>
      <trkpt lat="42.783249" lon="-0.141227">
        <time>2023-03-20T06:35:35+00:00</time>
        <ele>2282.0</ele>
      </trkpt>
      <trkpt lat="42.783238" lon="-0.141212">
        <time>2023-03-20T06:35:53+00:00</time>
        <ele>2282.0</ele>
      </trkpt>
      <trkpt lat="42.783242" lon="-0.141211">
        <time>2023-03-20T06:35:54+00:00</time>
        <ele>2282.0</ele>
      </trkpt>
      <trkpt lat="42.783244" lon="-0.14121">
        <time>2023-03-20T06:35:55+00:00</time>
        <ele>2282.0</ele>
      </trkpt>
      <trkpt lat="42.783249" lon="-0.141215">
        <time>2023-03-20T06:36:02+00:00</time>
        <ele>2282.0</ele>
      </trkpt>
      <trkpt lat="42.783248" lon="-0.141215">
        <time>2023-03-20T06:36:03+00:00</time>
        <ele>2282.0</ele>
      </trkpt>
      <trkpt lat="42.78325" lon="-0.141219">
        <time>2023-03-20T06:36:04+00:00</time>
        <ele>2282.0</ele>
      </trkpt>
      <trkpt lat="42.783248" lon="-0.14121">
        <time>2023-03-20T06:36:18+00:00</time>
        <ele>2282.0</ele>
      </trkpt>
      <trkpt lat="42.783271" lon="-0.141193">
        <time>2023-03-20T06:36:32+00:00</time>
        <ele>2281.0</ele>
      </trkpt>
      <trkpt lat="42.783281" lon="-0.141211">
        <time>2023-03-20T06:37:02+00:00</time>
        <ele>2281.0</ele>
      </trkpt>
      <trkpt lat="42.783264" lon="-0.141154">
        <time>2023-03-20T06:37:11+00:00</time>
        <ele>2283.0</ele>
      </trkpt>
      <trkpt lat="42.783214" lon="-0.141129">
        <time>2023-03-20T06:37:21+00:00</time>
        <ele>2285.0</ele>
      </trkpt>
      <trkpt lat="42.783104" lon="-0.14114">
        <time>2023-03-20T06:37:35+00:00</time>
        <ele>2287.0</ele>
      </trkpt>
      <trkpt lat="42.78312" lon="-0.141125">
        <time>2023-03-20T06:37:49+00:00</time>
        <ele>2287.0</ele>
      </trkpt>
      <trkpt lat="42.78314" lon="-0.141007">
        <time>2023-03-20T06:38:01+00:00</time>
        <ele>2292.0</ele>
      </trkpt>
      <trkpt lat="42.783168" lon="-0.140916">
        <time>2023-03-20T06:38:13+00:00</time>
        <ele>2295.0</ele>
      </trkpt>
      <trkpt lat="42.783217" lon="-0.140832">
        <time>2023-03-20T06:38:25+00:00</time>
        <ele>2297.0</ele>
      </trkpt>
      <trkpt lat="42.78327" lon="-0.140759">
        <time>2023-03-20T06:38:37+00:00</time>
        <ele>2297.0</ele>
      </trkpt>
      <trkpt lat="42.783309" lon="-0.140688">
        <time>2023-03-20T06:38:50+00:00</time>
        <ele>2298.0</ele>
      </trkpt>
      <trkpt lat="42.783347" lon="-0.14063">
        <time>2023-03-20T06:39:00+00:00</time>
        <ele>2299.0</ele>
      </trkpt>
      <trkpt lat="42.783399" lon="-0.140573">
        <time>2023-03-20T06:39:14+00:00</time>
        <ele>2298.0</ele>
      </trkpt>
      <trkpt lat="42.78342" lon="-0.140498">
        <time>2023-03-20T06:39:26+00:00</time>
        <ele>2298.0</ele>
      </trkpt>
      <trkpt lat="42.783351" lon="-0.140496">
        <time>2023-03-20T06:39:38+00:00</time>
        <ele>2300.0</ele>
      </trkpt>
      <trkpt lat="42.783299" lon="-0.140481">
        <time>2023-03-20T06:39:51+00:00</time>
        <ele>2302.0</ele>
      </trkpt>
      <trkpt lat="42.783195" lon="-0.140468">
        <time>2023-03-20T06:40:06+00:00</time>
        <ele>2306.0</ele>
      </trkpt>
      <trkpt lat="42.783122" lon="-0.140452">
        <time>2023-03-20T06:40:19+00:00</time>
        <ele>2309.0</ele>
      </trkpt>
      <trkpt lat="42.783071" lon="-0.140438">
        <time>2023-03-20T06:40:29+00:00</time>
        <ele>2311.0</ele>
      </trkpt>
      <trkpt lat="42.783014" lon="-0.140434">
        <time>2023-03-20T06:40:40+00:00</time>
        <ele>2313.0</ele>
      </trkpt>
      <trkpt lat="42.782982" lon="-0.140426">
        <time>2023-03-20T06:40:53+00:00</time>
        <ele>2314.0</ele>
      </trkpt>
      <trkpt lat="42.782943" lon="-0.140402">
        <time>2023-03-20T06:41:01+00:00</time>
        <ele>2316.0</ele>
      </trkpt>
      <trkpt lat="42.782904" lon="-0.140352">
        <time>2023-03-20T06:41:12+00:00</time>
        <ele>2319.0</ele>
      </trkpt>
      <trkpt lat="42.782853" lon="-0.140289">
        <time>2023-03-20T06:41:24+00:00</time>
        <ele>2324.0</ele>
      </trkpt>
      <trkpt lat="42.782819" lon="-0.140217">
        <time>2023-03-20T06:41:35+00:00</time>
        <ele>2329.0</ele>
      </trkpt>
      <trkpt lat="42.782779" lon="-0.140127">
        <time>2023-03-20T06:41:52+00:00</time>
        <ele>2335.0</ele>
      </trkpt>
      <trkpt lat="42.782781" lon="-0.140113">
        <time>2023-03-20T06:41:54+00:00</time>
        <ele>2335.0</ele>
      </trkpt>
      <trkpt lat="42.782735" lon="-0.140141">
        <time>2023-03-20T06:42:03+00:00</time>
        <ele>2336.0</ele>
      </trkpt>
      <trkpt lat="42.782664" lon="-0.140192">
        <time>2023-03-20T06:42:17+00:00</time>
        <ele>2338.0</ele>
      </trkpt>
      <trkpt lat="42.78261" lon="-0.140255">
        <time>2023-03-20T06:42:33+00:00</time>
        <ele>2337.0</ele>
      </trkpt>
      <trkpt lat="42.782551" lon="-0.140328">
        <time>2023-03-20T06:42:46+00:00</time>
        <ele>2337.0</ele>
      </trkpt>
      <trkpt lat="42.782544" lon="-0.140346">
        <time>2023-03-20T06:42:49+00:00</time>
        <ele>2336.0</ele>
      </trkpt>
      <trkpt lat="42.782535" lon="-0.140252">
        <time>2023-03-20T06:43:01+00:00</time>
        <ele>2341.0</ele>
      </trkpt>
      <trkpt lat="42.782513" lon="-0.140174">
        <time>2023-03-20T06:43:14+00:00</time>
        <ele>2346.0</ele>
      </trkpt>
      <trkpt lat="42.782517" lon="-0.140124">
        <time>2023-03-20T06:43:23+00:00</time>
        <ele>2348.0</ele>
      </trkpt>
      <trkpt lat="42.78244" lon="-0.140151">
        <time>2023-03-20T06:43:38+00:00</time>
        <ele>2350.0</ele>
      </trkpt>
      <trkpt lat="42.782357" lon="-0.140252">
        <time>2023-03-20T06:43:56+00:00</time>
        <ele>2349.0</ele>
      </trkpt>
      <trkpt lat="42.78232" lon="-0.140222">
        <time>2023-03-20T06:44:09+00:00</time>
        <ele>2352.0</ele>
      </trkpt>
      <trkpt lat="42.7823" lon="-0.140148">
        <time>2023-03-20T06:44:23+00:00</time>
        <ele>2356.0</ele>
      </trkpt>
      <trkpt lat="42.782276" lon="-0.140076">
        <time>2023-03-20T06:44:34+00:00</time>
        <ele>2361.0</ele>
      </trkpt>
      <trkpt lat="42.78225" lon="-0.140062">
        <time>2023-03-20T06:44:43+00:00</time>
        <ele>2363.0</ele>
      </trkpt>
      <trkpt lat="42.782195" lon="-0.140129">
        <time>2023-03-20T06:44:55+00:00</time>
        <ele>2361.0</ele>
      </trkpt>
      <trkpt lat="42.782154" lon="-0.140198">
        <time>2023-03-20T06:45:08+00:00</time>
        <ele>2360.0</ele>
      </trkpt>
      <trkpt lat="42.782127" lon="-0.140202">
        <time>2023-03-20T06:45:19+00:00</time>
        <ele>2361.0</ele>
      </trkpt>
      <trkpt lat="42.782138" lon="-0.140133">
        <time>2023-03-20T06:45:30+00:00</time>
        <ele>2364.0</ele>
      </trkpt>
      <trkpt lat="42.782123" lon="-0.140049">
        <time>2023-03-20T06:45:43+00:00</time>
        <ele>2369.0</ele>
      </trkpt>
      <trkpt lat="42.782117" lon="-0.139994">
        <time>2023-03-20T06:45:54+00:00</time>
        <ele>2373.0</ele>
      </trkpt>
      <trkpt lat="42.782087" lon="-0.140033">
        <time>2023-03-20T06:46:04+00:00</time>
        <ele>2372.0</ele>
      </trkpt>
      <trkpt lat="42.782043" lon="-0.140078">
        <time>2023-03-20T06:46:18+00:00</time>
        <ele>2371.0</ele>
      </trkpt>
      <trkpt lat="42.782029" lon="-0.140106">
        <time>2023-03-20T06:46:29+00:00</time>
        <ele>2370.0</ele>
      </trkpt>
      <trkpt lat="42.781985" lon="-0.140129">
        <time>2023-03-20T06:46:40+00:00</time>
        <ele>2371.0</ele>
      </trkpt>
      <trkpt lat="42.78197" lon="-0.140122">
        <time>2023-03-20T06:46:54+00:00</time>
        <ele>2372.0</ele>
      </trkpt>
      <trkpt lat="42.781976" lon="-0.140105">
        <time>2023-03-20T06:47:11+00:00</time>
        <ele>2373.0</ele>
      </trkpt>
      <trkpt lat="42.781976" lon="-0.140106">
        <time>2023-03-20T06:47:12+00:00</time>
        <ele>2373.0</ele>
      </trkpt>
      <trkpt lat="42.781974" lon="-0.140107">
        <time>2023-03-20T06:47:13+00:00</time>
        <ele>2373.0</ele>
      </trkpt>
      <trkpt lat="42.781974" lon="-0.140109">
        <time>2023-03-20T06:47:14+00:00</time>
        <ele>2373.0</ele>
      </trkpt>
      <trkpt lat="42.781975" lon="-0.140109">
        <time>2023-03-20T06:47:15+00:00</time>
        <ele>2372.0</ele>
      </trkpt>
      <trkpt lat="42.781975" lon="-0.14011">
        <time>2023-03-20T06:47:16+00:00</time>
        <ele>2372.0</ele>
      </trkpt>
      <trkpt lat="42.781975" lon="-0.140111">
        <time>2023-03-20T06:47:18+00:00</time>
        <ele>2372.0</ele>
      </trkpt>
      <trkpt lat="42.781977" lon="-0.140115">
        <time>2023-03-20T06:47:21+00:00</time>
        <ele>2372.0</ele>
      </trkpt>
      <trkpt lat="42.781984" lon="-0.140123">
        <time>2023-03-20T06:47:40+00:00</time>
        <ele>2371.0</ele>
      </trkpt>
      <trkpt lat="42.781993" lon="-0.140113">
        <time>2023-03-20T06:47:43+00:00</time>
        <ele>2371.0</ele>
      </trkpt>
      <trkpt lat="42.781993" lon="-0.140109">
        <time>2023-03-20T06:47:44+00:00</time>
        <ele>2372.0</ele>
      </trkpt>
      <trkpt lat="42.781959" lon="-0.140116">
        <time>2023-03-20T06:48:08+00:00</time>
        <ele>2373.0</ele>
      </trkpt>
      <trkpt lat="42.781953" lon="-0.140121">
        <time>2023-03-20T06:48:10+00:00</time>
        <ele>2373.0</ele>
      </trkpt>
      <trkpt lat="42.781951" lon="-0.140123">
        <time>2023-03-20T06:48:11+00:00</time>
        <ele>2373.0</ele>
      </trkpt>
      <trkpt lat="42.781949" lon="-0.140124">
        <time>2023-03-20T06:48:12+00:00</time>
        <ele>2373.0</ele>
      </trkpt>
      <trkpt lat="42.781952" lon="-0.140122">
        <time>2023-03-20T06:48:13+00:00</time>
        <ele>2373.0</ele>
      </trkpt>
      <trkpt lat="42.781934" lon="-0.14013">
        <time>2023-03-20T06:48:20+00:00</time>
        <ele>2373.0</ele>
      </trkpt>
      <trkpt lat="42.781954" lon="-0.140132">
        <time>2023-03-20T06:48:31+00:00</time>
        <ele>2372.0</ele>
      </trkpt>
      <trkpt lat="42.781949" lon="-0.140125">
        <time>2023-03-20T06:48:51+00:00</time>
        <ele>2373.0</ele>
      </trkpt>
      <trkpt lat="42.78195" lon="-0.140129">
        <time>2023-03-20T06:49:08+00:00</time>
        <ele>2373.0</ele>
      </trkpt>
      <trkpt lat="42.781947" lon="-0.140133">
        <time>2023-03-20T06:49:10+00:00</time>
        <ele>2373.0</ele>
      </trkpt>
      <trkpt lat="42.781939" lon="-0.140088">
        <time>2023-03-20T06:49:19+00:00</time>
        <ele>2375.0</ele>
      </trkpt>
      <trkpt lat="42.781942" lon="-0.140001">
        <time>2023-03-20T06:49:32+00:00</time>
        <ele>2380.0</ele>
      </trkpt>
      <trkpt lat="42.781914" lon="-0.140004">
        <time>2023-03-20T06:49:44+00:00</time>
        <ele>2381.0</ele>
      </trkpt>
      <trkpt lat="42.781856" lon="-0.140044">
        <time>2023-03-20T06:50:00+00:00</time>
        <ele>2381.0</ele>
      </trkpt>
      <trkpt lat="42.781855" lon="-0.140016">
        <time>2023-03-20T06:50:12+00:00</time>
        <ele>2383.0</ele>
      </trkpt>
      <trkpt lat="42.781854" lon="-0.139954">
        <time>2023-03-20T06:50:23+00:00</time>
        <ele>2386.0</ele>
      </trkpt>
      <trkpt lat="42.781846" lon="-0.139946">
        <time>2023-03-20T06:50:33+00:00</time>
        <ele>2386.0</ele>
      </trkpt>
      <trkpt lat="42.781819" lon="-0.13996">
        <time>2023-03-20T06:50:44+00:00</time>
        <ele>2387.0</ele>
      </trkpt>
      <trkpt lat="42.781797" lon="-0.139968">
        <time>2023-03-20T06:50:58+00:00</time>
        <ele>2387.0</ele>
      </trkpt>
      <trkpt lat="42.781798" lon="-0.139921">
        <time>2023-03-20T06:51:07+00:00</time>
        <ele>2390.0</ele>
      </trkpt>
      <trkpt lat="42.781814" lon="-0.139863">
        <time>2023-03-20T06:51:19+00:00</time>
        <ele>2392.0</ele>
      </trkpt>
      <trkpt lat="42.781836" lon="-0.139798">
        <time>2023-03-20T06:51:31+00:00</time>
        <ele>2395.0</ele>
      </trkpt>
      <trkpt lat="42.781832" lon="-0.139791">
        <time>2023-03-20T06:51:41+00:00</time>
        <ele>2395.0</ele>
      </trkpt>
      <trkpt lat="42.781801" lon="-0.13978">
        <time>2023-03-20T06:51:52+00:00</time>
        <ele>2397.0</ele>
      </trkpt>
      <trkpt lat="42.781774" lon="-0.139792">
        <time>2023-03-20T06:52:05+00:00</time>
        <ele>2397.0</ele>
      </trkpt>
      <trkpt lat="42.781774" lon="-0.139796">
        <time>2023-03-20T06:52:17+00:00</time>
        <ele>2397.0</ele>
      </trkpt>
      <trkpt lat="42.781788" lon="-0.139743">
        <time>2023-03-20T06:52:27+00:00</time>
        <ele>2399.0</ele>
      </trkpt>
      <trkpt lat="42.781773" lon="-0.139735">
        <time>2023-03-20T06:52:37+00:00</time>
        <ele>2400.0</ele>
      </trkpt>
      <trkpt lat="42.781747" lon="-0.139745">
        <time>2023-03-20T06:52:49+00:00</time>
        <ele>2400.0</ele>
      </trkpt>
      <trkpt lat="42.781745" lon="-0.139719">
        <time>2023-03-20T06:53:01+00:00</time>
        <ele>2402.0</ele>
      </trkpt>
      <trkpt lat="42.781745" lon="-0.139714">
        <time>2023-03-20T06:53:10+00:00</time>
        <ele>2402.0</ele>
      </trkpt>
      <trkpt lat="42.781724" lon="-0.139735">
        <time>2023-03-20T06:53:20+00:00</time>
        <ele>2402.0</ele>
      </trkpt>
      <trkpt lat="42.781687" lon="-0.13975">
        <time>2023-03-20T06:53:31+00:00</time>
        <ele>2402.0</ele>
      </trkpt>
      <trkpt lat="42.781666" lon="-0.139766">
        <time>2023-03-20T06:53:43+00:00</time>
        <ele>2402.0</ele>
      </trkpt>
      <trkpt lat="42.781668" lon="-0.139703">
        <time>2023-03-20T06:53:54+00:00</time>
        <ele>2405.0</ele>
      </trkpt>
      <trkpt lat="42.781649" lon="-0.139688">
        <time>2023-03-20T06:54:04+00:00</time>
        <ele>2407.0</ele>
      </trkpt>
      <trkpt lat="42.781627" lon="-0.139719">
        <time>2023-03-20T06:54:17+00:00</time>
        <ele>2406.0</ele>
      </trkpt>
      <trkpt lat="42.781628" lon="-0.139694">
        <time>2023-03-20T06:54:29+00:00</time>
        <ele>2407.0</ele>
      </trkpt>
      <trkpt lat="42.781616" lon="-0.139644">
        <time>2023-03-20T06:54:40+00:00</time>
        <ele>2410.0</ele>
      </trkpt>
      <trkpt lat="42.781606" lon="-0.139651">
        <time>2023-03-20T06:54:51+00:00</time>
        <ele>2410.0</ele>
      </trkpt>
      <trkpt lat="42.781592" lon="-0.139675">
        <time>2023-03-20T06:55:06+00:00</time>
        <ele>2410.0</ele>
      </trkpt>
      <trkpt lat="42.781587" lon="-0.139644">
        <time>2023-03-20T06:55:15+00:00</time>
        <ele>2412.0</ele>
      </trkpt>
      <trkpt lat="42.781562" lon="-0.139611">
        <time>2023-03-20T06:55:27+00:00</time>
        <ele>2414.0</ele>
      </trkpt>
      <trkpt lat="42.781541" lon="-0.139579">
        <time>2023-03-20T06:55:37+00:00</time>
        <ele>2416.0</ele>
      </trkpt>
      <trkpt lat="42.781522" lon="-0.139616">
        <time>2023-03-20T06:55:48+00:00</time>
        <ele>2415.0</ele>
      </trkpt>
      <trkpt lat="42.781512" lon="-0.139632">
        <time>2023-03-20T06:56:00+00:00</time>
        <ele>2415.0</ele>
      </trkpt>
      <trkpt lat="42.781508" lon="-0.139639">
        <time>2023-03-20T06:56:19+00:00</time>
        <ele>2415.0</ele>
      </trkpt>
      <trkpt lat="42.781515" lon="-0.139636">
        <time>2023-03-20T06:56:46+00:00</time>
        <ele>2415.0</ele>
      </trkpt>
      <trkpt lat="42.781495" lon="-0.139648">
        <time>2023-03-20T06:57:02+00:00</time>
        <ele>2415.0</ele>
      </trkpt>
      <trkpt lat="42.781478" lon="-0.139664">
        <time>2023-03-20T06:57:12+00:00</time>
        <ele>2415.0</ele>
      </trkpt>
      <trkpt lat="42.781424" lon="-0.139654">
        <time>2023-03-20T06:57:24+00:00</time>
        <ele>2417.0</ele>
      </trkpt>
      <trkpt lat="42.781358" lon="-0.13963">
        <time>2023-03-20T06:57:39+00:00</time>
        <ele>2419.0</ele>
      </trkpt>
      <trkpt lat="42.781283" lon="-0.139626">
        <time>2023-03-20T06:57:51+00:00</time>
        <ele>2421.0</ele>
      </trkpt>
      <trkpt lat="42.781246" lon="-0.139608">
        <time>2023-03-20T06:58:00+00:00</time>
        <ele>2423.0</ele>
      </trkpt>
      <trkpt lat="42.78126" lon="-0.139567">
        <time>2023-03-20T06:58:11+00:00</time>
        <ele>2424.0</ele>
      </trkpt>
      <trkpt lat="42.781306" lon="-0.139497">
        <time>2023-03-20T06:58:22+00:00</time>
        <ele>2426.0</ele>
      </trkpt>
      <trkpt lat="42.781329" lon="-0.139412">
        <time>2023-03-20T06:58:37+00:00</time>
        <ele>2428.0</ele>
      </trkpt>
      <trkpt lat="42.781347" lon="-0.139301">
        <time>2023-03-20T06:58:49+00:00</time>
        <ele>2431.0</ele>
      </trkpt>
      <trkpt lat="42.78137" lon="-0.139229">
        <time>2023-03-20T06:59:03+00:00</time>
        <ele>2432.0</ele>
      </trkpt>
      <trkpt lat="42.781424" lon="-0.139179">
        <time>2023-03-20T06:59:17+00:00</time>
        <ele>2432.0</ele>
      </trkpt>
      <trkpt lat="42.781474" lon="-0.139114">
        <time>2023-03-20T06:59:28+00:00</time>
        <ele>2432.0</ele>
      </trkpt>
      <trkpt lat="42.78149" lon="-0.139048">
        <time>2023-03-20T06:59:40+00:00</time>
        <ele>2433.0</ele>
      </trkpt>
      <trkpt lat="42.781485" lon="-0.138983">
        <time>2023-03-20T06:59:49+00:00</time>
        <ele>2435.0</ele>
      </trkpt>
      <trkpt lat="42.781461" lon="-0.138947">
        <time>2023-03-20T07:00:03+00:00</time>
        <ele>2437.0</ele>
      </trkpt>
      <trkpt lat="42.781469" lon="-0.138932">
        <time>2023-03-20T07:00:24+00:00</time>
        <ele>2438.0</ele>
      </trkpt>
      <trkpt lat="42.781467" lon="-0.138937">
        <time>2023-03-20T07:00:48+00:00</time>
        <ele>2437.0</ele>
      </trkpt>
      <trkpt lat="42.781431" lon="-0.138913">
        <time>2023-03-20T07:01:11+00:00</time>
        <ele>2439.0</ele>
      </trkpt>
      <trkpt lat="42.781355" lon="-0.138871">
        <time>2023-03-20T07:01:24+00:00</time>
        <ele>2442.0</ele>
      </trkpt>
      <trkpt lat="42.781261" lon="-0.138824">
        <time>2023-03-20T07:01:37+00:00</time>
        <ele>2446.0</ele>
      </trkpt>
      <trkpt lat="42.781169" lon="-0.13878">
        <time>2023-03-20T07:01:53+00:00</time>
        <ele>2450.0</ele>
      </trkpt>
      <trkpt lat="42.781138" lon="-0.138787">
        <time>2023-03-20T07:02:01+00:00</time>
        <ele>2450.0</ele>
      </trkpt>
      <trkpt lat="42.781139" lon="-0.138702">
        <time>2023-03-20T07:02:15+00:00</time>
        <ele>2453.0</ele>
      </trkpt>
      <trkpt lat="42.781144" lon="-0.138623">
        <time>2023-03-20T07:02:32+00:00</time>
        <ele>2455.0</ele>
      </trkpt>
      <trkpt lat="42.781149" lon="-0.138567">
        <time>2023-03-20T07:02:42+00:00</time>
        <ele>2456.0</ele>
      </trkpt>
      <trkpt lat="42.781096" lon="-0.13854">
        <time>2023-03-20T07:02:53+00:00</time>
        <ele>2458.0</ele>
      </trkpt>
      <trkpt lat="42.781049" lon="-0.138525">
        <time>2023-03-20T07:03:10+00:00</time>
        <ele>2461.0</ele>
      </trkpt>
      <trkpt lat="42.78102" lon="-0.138486">
        <time>2023-03-20T07:03:21+00:00</time>
        <ele>2464.0</ele>
      </trkpt>
      <trkpt lat="42.781004" lon="-0.138416">
        <time>2023-03-20T07:03:37+00:00</time>
        <ele>2466.0</ele>
      </trkpt>
      <trkpt lat="42.781006" lon="-0.138344">
        <time>2023-03-20T07:03:48+00:00</time>
        <ele>2468.0</ele>
      </trkpt>
      <trkpt lat="42.781024" lon="-0.138246">
        <time>2023-03-20T07:03:59+00:00</time>
        <ele>2469.0</ele>
      </trkpt>
      <trkpt lat="42.781018" lon="-0.138137">
        <time>2023-03-20T07:04:16+00:00</time>
        <ele>2473.0</ele>
      </trkpt>
      <trkpt lat="42.780996" lon="-0.138059">
        <time>2023-03-20T07:04:32+00:00</time>
        <ele>2477.0</ele>
      </trkpt>
      <trkpt lat="42.780939" lon="-0.138075">
        <time>2023-03-20T07:04:45+00:00</time>
        <ele>2479.0</ele>
      </trkpt>
      <trkpt lat="42.780907" lon="-0.138035">
        <time>2023-03-20T07:04:59+00:00</time>
        <ele>2481.0</ele>
      </trkpt>
      <trkpt lat="42.780894" lon="-0.137952">
        <time>2023-03-20T07:05:14+00:00</time>
        <ele>2485.0</ele>
      </trkpt>
      <trkpt lat="42.780907" lon="-0.137868">
        <time>2023-03-20T07:05:27+00:00</time>
        <ele>2487.0</ele>
      </trkpt>
      <trkpt lat="42.780922" lon="-0.137809">
        <time>2023-03-20T07:05:38+00:00</time>
        <ele>2488.0</ele>
      </trkpt>
      <trkpt lat="42.780973" lon="-0.137744">
        <time>2023-03-20T07:05:50+00:00</time>
        <ele>2489.0</ele>
      </trkpt>
      <trkpt lat="42.780987" lon="-0.137733">
        <time>2023-03-20T07:05:54+00:00</time>
        <ele>2489.0</ele>
      </trkpt>
      <trkpt lat="42.780931" lon="-0.137702">
        <time>2023-03-20T07:06:09+00:00</time>
        <ele>2491.0</ele>
      </trkpt>
      <trkpt lat="42.780874" lon="-0.137685">
        <time>2023-03-20T07:06:21+00:00</time>
        <ele>2493.0</ele>
      </trkpt>
      <trkpt lat="42.780894" lon="-0.13764">
        <time>2023-03-20T07:06:31+00:00</time>
        <ele>2494.0</ele>
      </trkpt>
      <trkpt lat="42.780938" lon="-0.137585">
        <time>2023-03-20T07:06:42+00:00</time>
        <ele>2494.0</ele>
      </trkpt>
      <trkpt lat="42.780966" lon="-0.137529">
        <time>2023-03-20T07:06:53+00:00</time>
        <ele>2495.0</ele>
      </trkpt>
      <trkpt lat="42.780949" lon="-0.13749">
        <time>2023-03-20T07:07:05+00:00</time>
        <ele>2496.0</ele>
      </trkpt>
      <trkpt lat="42.780913" lon="-0.137434">
        <time>2023-03-20T07:07:16+00:00</time>
        <ele>2498.0</ele>
      </trkpt>
      <trkpt lat="42.780853" lon="-0.137416">
        <time>2023-03-20T07:07:29+00:00</time>
        <ele>2500.0</ele>
      </trkpt>
      <trkpt lat="42.780811" lon="-0.137415">
        <time>2023-03-20T07:07:42+00:00</time>
        <ele>2502.0</ele>
      </trkpt>
      <trkpt lat="42.780753" lon="-0.137403">
        <time>2023-03-20T07:07:55+00:00</time>
        <ele>2504.0</ele>
      </trkpt>
      <trkpt lat="42.78074" lon="-0.137329">
        <time>2023-03-20T07:08:06+00:00</time>
        <ele>2506.0</ele>
      </trkpt>
      <trkpt lat="42.780738" lon="-0.137249">
        <time>2023-03-20T07:08:21+00:00</time>
        <ele>2507.0</ele>
      </trkpt>
      <trkpt lat="42.780737" lon="-0.137152">
        <time>2023-03-20T07:08:33+00:00</time>
        <ele>2509.0</ele>
      </trkpt>
      <trkpt lat="42.780721" lon="-0.137065">
        <time>2023-03-20T07:08:45+00:00</time>
        <ele>2512.0</ele>
      </trkpt>
      <trkpt lat="42.780709" lon="-0.137025">
        <time>2023-03-20T07:09:01+00:00</time>
        <ele>2513.0</ele>
      </trkpt>
      <trkpt lat="42.780706" lon="-0.136931">
        <time>2023-03-20T07:09:15+00:00</time>
        <ele>2516.0</ele>
      </trkpt>
      <trkpt lat="42.780697" lon="-0.136836">
        <time>2023-03-20T07:09:26+00:00</time>
        <ele>2519.0</ele>
      </trkpt>
      <trkpt lat="42.780689" lon="-0.136731">
        <time>2023-03-20T07:09:41+00:00</time>
        <ele>2523.0</ele>
      </trkpt>
      <trkpt lat="42.780706" lon="-0.136667">
        <time>2023-03-20T07:09:54+00:00</time>
        <ele>2524.0</ele>
      </trkpt>
      <trkpt lat="42.780707" lon="-0.136634">
        <time>2023-03-20T07:10:04+00:00</time>
        <ele>2525.0</ele>
      </trkpt>
      <trkpt lat="42.780716" lon="-0.136612">
        <time>2023-03-20T07:10:35+00:00</time>
        <ele>2526.0</ele>
      </trkpt>
      <trkpt lat="42.780688" lon="-0.136608">
        <time>2023-03-20T07:10:51+00:00</time>
        <ele>2527.0</ele>
      </trkpt>
      <trkpt lat="42.780572" lon="-0.136634">
        <time>2023-03-20T07:11:09+00:00</time>
        <ele>2530.0</ele>
      </trkpt>
      <trkpt lat="42.780505" lon="-0.13665">
        <time>2023-03-20T07:11:25+00:00</time>
        <ele>2531.0</ele>
      </trkpt>
      <trkpt lat="42.780442" lon="-0.136701">
        <time>2023-03-20T07:11:38+00:00</time>
        <ele>2532.0</ele>
      </trkpt>
      <trkpt lat="42.780366" lon="-0.136739">
        <time>2023-03-20T07:11:50+00:00</time>
        <ele>2534.0</ele>
      </trkpt>
      <trkpt lat="42.780354" lon="-0.136718">
        <time>2023-03-20T07:12:00+00:00</time>
        <ele>2535.0</ele>
      </trkpt>
      <trkpt lat="42.780361" lon="-0.136625">
        <time>2023-03-20T07:12:15+00:00</time>
        <ele>2535.0</ele>
      </trkpt>
      <trkpt lat="42.780375" lon="-0.136559">
        <time>2023-03-20T07:12:26+00:00</time>
        <ele>2534.0</ele>
      </trkpt>
      <trkpt lat="42.780396" lon="-0.136497">
        <time>2023-03-20T07:12:37+00:00</time>
        <ele>2533.0</ele>
      </trkpt>
      <trkpt lat="42.780408" lon="-0.136406">
        <time>2023-03-20T07:12:49+00:00</time>
        <ele>2531.0</ele>
      </trkpt>
      <trkpt lat="42.780361" lon="-0.136374">
        <time>2023-03-20T07:12:59+00:00</time>
        <ele>2531.0</ele>
      </trkpt>
      <trkpt lat="42.78031" lon="-0.136376">
        <time>2023-03-20T07:13:11+00:00</time>
        <ele>2531.0</ele>
      </trkpt>
      <trkpt lat="42.780181" lon="-0.136437">
        <time>2023-03-20T07:13:29+00:00</time>
        <ele>2534.0</ele>
      </trkpt>
      <trkpt lat="42.780109" lon="-0.1365">
        <time>2023-03-20T07:13:44+00:00</time>
        <ele>2536.0</ele>
      </trkpt>
      <trkpt lat="42.780069" lon="-0.136526">
        <time>2023-03-20T07:13:55+00:00</time>
        <ele>2537.0</ele>
      </trkpt>
      <trkpt lat="42.780032" lon="-0.136561">
        <time>2023-03-20T07:14:07+00:00</time>
        <ele>2538.0</ele>
      </trkpt>
      <trkpt lat="42.779975" lon="-0.136622">
        <time>2023-03-20T07:14:18+00:00</time>
        <ele>2540.0</ele>
      </trkpt>
      <trkpt lat="42.77994" lon="-0.136637">
        <time>2023-03-20T07:14:30+00:00</time>
        <ele>2540.0</ele>
      </trkpt>
      <trkpt lat="42.779926" lon="-0.136623">
        <time>2023-03-20T07:14:33+00:00</time>
        <ele>2540.0</ele>
      </trkpt>
      <trkpt lat="42.779903" lon="-0.136597">
        <time>2023-03-20T07:14:36+00:00</time>
        <ele>2541.0</ele>
      </trkpt>
      <trkpt lat="42.779771" lon="-0.136459">
        <time>2023-03-20T07:14:50+00:00</time>
        <ele>2543.0</ele>
      </trkpt>
      <trkpt lat="42.779744" lon="-0.136425">
        <time>2023-03-20T07:14:54+00:00</time>
        <ele>2544.0</ele>
      </trkpt>
      <trkpt lat="42.779681" lon="-0.136307">
        <time>2023-03-20T07:15:06+00:00</time>
        <ele>2547.0</ele>
      </trkpt>
      <trkpt lat="42.779623" lon="-0.136197">
        <time>2023-03-20T07:15:20+00:00</time>
        <ele>2551.0</ele>
      </trkpt>
      <trkpt lat="42.779618" lon="-0.136192">
        <time>2023-03-20T07:15:21+00:00</time>
        <ele>2551.0</ele>
      </trkpt>
      <trkpt lat="42.779581" lon="-0.136133">
        <time>2023-03-20T07:15:38+00:00</time>
        <ele>2554.0</ele>
      </trkpt>
      <trkpt lat="42.779499" lon="-0.136079">
        <time>2023-03-20T07:15:50+00:00</time>
        <ele>2558.0</ele>
      </trkpt>
      <trkpt lat="42.779438" lon="-0.136042">
        <time>2023-03-20T07:16:01+00:00</time>
        <ele>2560.0</ele>
      </trkpt>
      <trkpt lat="42.779354" lon="-0.136003">
        <time>2023-03-20T07:16:15+00:00</time>
        <ele>2564.0</ele>
      </trkpt>
      <trkpt lat="42.779302" lon="-0.135966">
        <time>2023-03-20T07:16:27+00:00</time>
        <ele>2566.0</ele>
      </trkpt>
      <trkpt lat="42.779294" lon="-0.135883">
        <time>2023-03-20T07:16:39+00:00</time>
        <ele>2569.0</ele>
      </trkpt>
      <trkpt lat="42.779302" lon="-0.135848">
        <time>2023-03-20T07:16:51+00:00</time>
        <ele>2570.0</ele>
      </trkpt>
      <trkpt lat="42.779337" lon="-0.135723">
        <time>2023-03-20T07:17:10+00:00</time>
        <ele>2574.0</ele>
      </trkpt>
      <trkpt lat="42.779307" lon="-0.135685">
        <time>2023-03-20T07:17:23+00:00</time>
        <ele>2576.0</ele>
      </trkpt>
      <trkpt lat="42.779241" lon="-0.135662">
        <time>2023-03-20T07:17:36+00:00</time>
        <ele>2578.0</ele>
      </trkpt>
      <trkpt lat="42.779155" lon="-0.13562">
        <time>2023-03-20T07:17:52+00:00</time>
        <ele>2581.0</ele>
      </trkpt>
      <trkpt lat="42.779069" lon="-0.135563">
        <time>2023-03-20T07:18:11+00:00</time>
        <ele>2584.0</ele>
      </trkpt>
      <trkpt lat="42.778972" lon="-0.135508">
        <time>2023-03-20T07:18:28+00:00</time>
        <ele>2586.0</ele>
      </trkpt>
      <trkpt lat="42.778898" lon="-0.135461">
        <time>2023-03-20T07:18:46+00:00</time>
        <ele>2589.0</ele>
      </trkpt>
      <trkpt lat="42.77884" lon="-0.135409">
        <time>2023-03-20T07:18:58+00:00</time>
        <ele>2591.0</ele>
      </trkpt>
      <trkpt lat="42.778788" lon="-0.135352">
        <time>2023-03-20T07:19:13+00:00</time>
        <ele>2594.0</ele>
      </trkpt>
      <trkpt lat="42.778824" lon="-0.135286">
        <time>2023-03-20T07:19:26+00:00</time>
        <ele>2597.0</ele>
      </trkpt>
      <trkpt lat="42.778862" lon="-0.135221">
        <time>2023-03-20T07:19:38+00:00</time>
        <ele>2599.0</ele>
      </trkpt>
      <trkpt lat="42.778904" lon="-0.13517">
        <time>2023-03-20T07:19:48+00:00</time>
        <ele>2601.0</ele>
      </trkpt>
      <trkpt lat="42.778898" lon="-0.135167">
        <time>2023-03-20T07:20:01+00:00</time>
        <ele>2601.0</ele>
      </trkpt>
      <trkpt lat="42.778831" lon="-0.135128">
        <time>2023-03-20T07:20:16+00:00</time>
        <ele>2603.0</ele>
      </trkpt>
      <trkpt lat="42.778755" lon="-0.135082">
        <time>2023-03-20T07:20:29+00:00</time>
        <ele>2606.0</ele>
      </trkpt>
      <trkpt lat="42.778706" lon="-0.135023">
        <time>2023-03-20T07:20:42+00:00</time>
        <ele>2608.0</ele>
      </trkpt>
      <trkpt lat="42.778664" lon="-0.134968">
        <time>2023-03-20T07:20:53+00:00</time>
        <ele>2611.0</ele>
      </trkpt>
      <trkpt lat="42.778622" lon="-0.134891">
        <time>2023-03-20T07:21:07+00:00</time>
        <ele>2615.0</ele>
      </trkpt>
      <trkpt lat="42.778625" lon="-0.134753">
        <time>2023-03-20T07:21:22+00:00</time>
        <ele>2621.0</ele>
      </trkpt>
      <trkpt lat="42.778597" lon="-0.134693">
        <time>2023-03-20T07:21:33+00:00</time>
        <ele>2624.0</ele>
      </trkpt>
      <trkpt lat="42.778541" lon="-0.13466">
        <time>2023-03-20T07:21:44+00:00</time>
        <ele>2627.0</ele>
      </trkpt>
      <trkpt lat="42.778445" lon="-0.134639">
        <time>2023-03-20T07:22:03+00:00</time>
        <ele>2630.0</ele>
      </trkpt>
      <trkpt lat="42.778365" lon="-0.134653">
        <time>2023-03-20T07:22:15+00:00</time>
        <ele>2632.0</ele>
      </trkpt>
      <trkpt lat="42.778312" lon="-0.134655">
        <time>2023-03-20T07:22:31+00:00</time>
        <ele>2633.0</ele>
      </trkpt>
      <trkpt lat="42.778246" lon="-0.134669">
        <time>2023-03-20T07:22:43+00:00</time>
        <ele>2635.0</ele>
      </trkpt>
      <trkpt lat="42.778196" lon="-0.134717">
        <time>2023-03-20T07:22:55+00:00</time>
        <ele>2635.0</ele>
      </trkpt>
      <trkpt lat="42.778151" lon="-0.134762">
        <time>2023-03-20T07:23:06+00:00</time>
        <ele>2635.0</ele>
      </trkpt>
      <trkpt lat="42.778099" lon="-0.134799">
        <time>2023-03-20T07:23:20+00:00</time>
        <ele>2636.0</ele>
      </trkpt>
      <trkpt lat="42.77804" lon="-0.134856">
        <time>2023-03-20T07:23:33+00:00</time>
        <ele>2637.0</ele>
      </trkpt>
      <trkpt lat="42.778036" lon="-0.134798">
        <time>2023-03-20T07:23:42+00:00</time>
        <ele>2639.0</ele>
      </trkpt>
      <trkpt lat="42.778031" lon="-0.134725">
        <time>2023-03-20T07:23:51+00:00</time>
        <ele>2641.0</ele>
      </trkpt>
      <trkpt lat="42.778034" lon="-0.134632">
        <time>2023-03-20T07:24:05+00:00</time>
        <ele>2643.0</ele>
      </trkpt>
      <trkpt lat="42.778026" lon="-0.134542">
        <time>2023-03-20T07:24:21+00:00</time>
        <ele>2646.0</ele>
      </trkpt>
      <trkpt lat="42.77803" lon="-0.134461">
        <time>2023-03-20T07:24:33+00:00</time>
        <ele>2649.0</ele>
      </trkpt>
      <trkpt lat="42.778029" lon="-0.134377">
        <time>2023-03-20T07:24:44+00:00</time>
        <ele>2652.0</ele>
      </trkpt>
      <trkpt lat="42.778057" lon="-0.134289">
        <time>2023-03-20T07:24:57+00:00</time>
        <ele>2653.0</ele>
      </trkpt>
      <trkpt lat="42.77807" lon="-0.134222">
        <time>2023-03-20T07:25:07+00:00</time>
        <ele>2655.0</ele>
      </trkpt>
      <trkpt lat="42.77811" lon="-0.134142">
        <time>2023-03-20T07:25:22+00:00</time>
        <ele>2656.0</ele>
      </trkpt>
      <trkpt lat="42.778149" lon="-0.134081">
        <time>2023-03-20T07:25:33+00:00</time>
        <ele>2657.0</ele>
      </trkpt>
      <trkpt lat="42.778209" lon="-0.133984">
        <time>2023-03-20T07:25:47+00:00</time>
        <ele>2659.0</ele>
      </trkpt>
      <trkpt lat="42.778257" lon="-0.133883">
        <time>2023-03-20T07:26:06+00:00</time>
        <ele>2661.0</ele>
      </trkpt>
      <trkpt lat="42.778296" lon="-0.133804">
        <time>2023-03-20T07:26:18+00:00</time>
        <ele>2662.0</ele>
      </trkpt>
      <trkpt lat="42.778316" lon="-0.13377">
        <time>2023-03-20T07:26:31+00:00</time>
        <ele>2663.0</ele>
      </trkpt>
      <trkpt lat="42.778306" lon="-0.133772">
        <time>2023-03-20T07:26:45+00:00</time>
        <ele>2663.0</ele>
      </trkpt>
      <trkpt lat="42.778347" lon="-0.133761">
        <time>2023-03-20T07:27:07+00:00</time>
        <ele>2662.0</ele>
      </trkpt>
      <trkpt lat="42.778376" lon="-0.13369">
        <time>2023-03-20T07:27:18+00:00</time>
        <ele>2664.0</ele>
      </trkpt>
      <trkpt lat="42.77842" lon="-0.133584">
        <time>2023-03-20T07:27:34+00:00</time>
        <ele>2667.0</ele>
      </trkpt>
      <trkpt lat="42.778456" lon="-0.133502">
        <time>2023-03-20T07:27:48+00:00</time>
        <ele>2669.0</ele>
      </trkpt>
      <trkpt lat="42.778481" lon="-0.133412">
        <time>2023-03-20T07:27:59+00:00</time>
        <ele>2671.0</ele>
      </trkpt>
      <trkpt lat="42.778502" lon="-0.133346">
        <time>2023-03-20T07:28:11+00:00</time>
        <ele>2673.0</ele>
      </trkpt>
      <trkpt lat="42.778532" lon="-0.133236">
        <time>2023-03-20T07:28:25+00:00</time>
        <ele>2678.0</ele>
      </trkpt>
      <trkpt lat="42.778559" lon="-0.133176">
        <time>2023-03-20T07:28:36+00:00</time>
        <ele>2680.0</ele>
      </trkpt>
      <trkpt lat="42.778585" lon="-0.133112">
        <time>2023-03-20T07:28:48+00:00</time>
        <ele>2682.0</ele>
      </trkpt>
      <trkpt lat="42.778596" lon="-0.133064">
        <time>2023-03-20T07:29:02+00:00</time>
        <ele>2684.0</ele>
      </trkpt>
      <trkpt lat="42.778552" lon="-0.133047">
        <time>2023-03-20T07:29:14+00:00</time>
        <ele>2686.0</ele>
      </trkpt>
      <trkpt lat="42.778488" lon="-0.133032">
        <time>2023-03-20T07:29:28+00:00</time>
        <ele>2689.0</ele>
      </trkpt>
      <trkpt lat="42.778422" lon="-0.133023">
        <time>2023-03-20T07:29:43+00:00</time>
        <ele>2691.0</ele>
      </trkpt>
      <trkpt lat="42.778374" lon="-0.133018">
        <time>2023-03-20T07:29:55+00:00</time>
        <ele>2693.0</ele>
      </trkpt>
      <trkpt lat="42.778377" lon="-0.132975">
        <time>2023-03-20T07:30:06+00:00</time>
        <ele>2695.0</ele>
      </trkpt>
      <trkpt lat="42.778407" lon="-0.132904">
        <time>2023-03-20T07:30:19+00:00</time>
        <ele>2697.0</ele>
      </trkpt>
      <trkpt lat="42.778425" lon="-0.13283">
        <time>2023-03-20T07:30:30+00:00</time>
        <ele>2700.0</ele>
      </trkpt>
      <trkpt lat="42.778463" lon="-0.132751">
        <time>2023-03-20T07:30:41+00:00</time>
        <ele>2703.0</ele>
      </trkpt>
      <trkpt lat="42.778495" lon="-0.1327">
        <time>2023-03-20T07:30:54+00:00</time>
        <ele>2704.0</ele>
      </trkpt>
      <trkpt lat="42.778537" lon="-0.132627">
        <time>2023-03-20T07:31:07+00:00</time>
        <ele>2706.0</ele>
      </trkpt>
      <trkpt lat="42.778577" lon="-0.132545">
        <time>2023-03-20T07:31:22+00:00</time>
        <ele>2709.0</ele>
      </trkpt>
      <trkpt lat="42.778621" lon="-0.13245">
        <time>2023-03-20T07:31:35+00:00</time>
        <ele>2712.0</ele>
      </trkpt>
      <trkpt lat="42.778664" lon="-0.132394">
        <time>2023-03-20T07:31:49+00:00</time>
        <ele>2713.0</ele>
      </trkpt>
      <trkpt lat="42.778697" lon="-0.132321">
        <time>2023-03-20T07:32:01+00:00</time>
        <ele>2715.0</ele>
      </trkpt>
      <trkpt lat="42.778728" lon="-0.132264">
        <time>2023-03-20T07:32:13+00:00</time>
        <ele>2716.0</ele>
      </trkpt>
      <trkpt lat="42.778765" lon="-0.132189">
        <time>2023-03-20T07:32:25+00:00</time>
        <ele>2718.0</ele>
      </trkpt>
      <trkpt lat="42.778807" lon="-0.132146">
        <time>2023-03-20T07:32:38+00:00</time>
        <ele>2718.0</ele>
      </trkpt>
      <trkpt lat="42.778876" lon="-0.132067">
        <time>2023-03-20T07:32:51+00:00</time>
        <ele>2719.0</ele>
      </trkpt>
      <trkpt lat="42.77893" lon="-0.131998">
        <time>2023-03-20T07:33:03+00:00</time>
        <ele>2719.0</ele>
      </trkpt>
      <trkpt lat="42.778992" lon="-0.131929">
        <time>2023-03-20T07:33:17+00:00</time>
        <ele>2721.0</ele>
      </trkpt>
      <trkpt lat="42.779077" lon="-0.131851">
        <time>2023-03-20T07:33:32+00:00</time>
        <ele>2722.0</ele>
      </trkpt>
      <trkpt lat="42.779144" lon="-0.131798">
        <time>2023-03-20T07:33:44+00:00</time>
        <ele>2723.0</ele>
      </trkpt>
      <trkpt lat="42.779235" lon="-0.131747">
        <time>2023-03-20T07:34:00+00:00</time>
        <ele>2724.0</ele>
      </trkpt>
      <trkpt lat="42.779285" lon="-0.131718">
        <time>2023-03-20T07:34:11+00:00</time>
        <ele>2724.0</ele>
      </trkpt>
      <trkpt lat="42.779336" lon="-0.131684">
        <time>2023-03-20T07:34:21+00:00</time>
        <ele>2724.0</ele>
      </trkpt>
      <trkpt lat="42.779388" lon="-0.131662">
        <time>2023-03-20T07:34:34+00:00</time>
        <ele>2725.0</ele>
      </trkpt>
      <trkpt lat="42.779436" lon="-0.131634">
        <time>2023-03-20T07:34:44+00:00</time>
        <ele>2726.0</ele>
      </trkpt>
      <trkpt lat="42.77948" lon="-0.131625">
        <time>2023-03-20T07:34:56+00:00</time>
        <ele>2727.0</ele>
      </trkpt>
      <trkpt lat="42.779539" lon="-0.131639">
        <time>2023-03-20T07:35:06+00:00</time>
        <ele>2727.0</ele>
      </trkpt>
      <trkpt lat="42.779599" lon="-0.131635">
        <time>2023-03-20T07:35:16+00:00</time>
        <ele>2729.0</ele>
      </trkpt>
      <trkpt lat="42.779621" lon="-0.131635">
        <time>2023-03-20T07:35:26+00:00</time>
        <ele>2730.0</ele>
      </trkpt>
      <trkpt lat="42.779627" lon="-0.131624">
        <time>2023-03-20T07:35:35+00:00</time>
        <ele>2731.0</ele>
      </trkpt>
      <trkpt lat="42.779567" lon="-0.131572">
        <time>2023-03-20T07:35:47+00:00</time>
        <ele>2731.0</ele>
      </trkpt>
      <trkpt lat="42.779509" lon="-0.131529">
        <time>2023-03-20T07:36:00+00:00</time>
        <ele>2731.0</ele>
      </trkpt>
      <trkpt lat="42.779476" lon="-0.131491">
        <time>2023-03-20T07:36:10+00:00</time>
        <ele>2732.0</ele>
      </trkpt>
      <trkpt lat="42.779428" lon="-0.131451">
        <time>2023-03-20T07:36:21+00:00</time>
        <ele>2731.0</ele>
      </trkpt>
      <trkpt lat="42.779381" lon="-0.131417">
        <time>2023-03-20T07:36:31+00:00</time>
        <ele>2730.0</ele>
      </trkpt>
      <trkpt lat="42.77935" lon="-0.131407">
        <time>2023-03-20T07:36:40+00:00</time>
        <ele>2729.0</ele>
      </trkpt>
      <trkpt lat="42.779336" lon="-0.131403">
        <time>2023-03-20T07:36:43+00:00</time>
        <ele>2729.0</ele>
      </trkpt>
      <trkpt lat="42.779325" lon="-0.131399">
        <time>2023-03-20T07:36:46+00:00</time>
        <ele>2729.0</ele>
      </trkpt>
      <trkpt lat="42.779272" lon="-0.131362">
        <time>2023-03-20T07:36:56+00:00</time>
        <ele>2728.0</ele>
      </trkpt>
      <trkpt lat="42.779262" lon="-0.131344">
        <time>2023-03-20T07:37:09+00:00</time>
        <ele>2728.0</ele>
      </trkpt>
      <trkpt lat="42.779265" lon="-0.131313">
        <time>2023-03-20T07:37:13+00:00</time>
        <ele>2727.0</ele>
      </trkpt>
      <trkpt lat="42.779327" lon="-0.131263">
        <time>2023-03-20T07:37:24+00:00</time>
        <ele>2727.0</ele>
      </trkpt>
      <trkpt lat="42.779337" lon="-0.131251">
        <time>2023-03-20T07:37:38+00:00</time>
        <ele>2727.0</ele>
      </trkpt>
      <trkpt lat="42.779331" lon="-0.131254">
        <time>2023-03-20T07:37:43+00:00</time>
        <ele>2727.0</ele>
      </trkpt>
      <trkpt lat="42.779334" lon="-0.131264">
        <time>2023-03-20T07:37:54+00:00</time>
        <ele>2727.0</ele>
      </trkpt>
      <trkpt lat="42.779327" lon="-0.131248">
        <time>2023-03-20T07:37:59+00:00</time>
        <ele>2727.0</ele>
      </trkpt>
      <trkpt lat="42.779328" lon="-0.131248">
        <time>2023-03-20T07:38:00+00:00</time>
        <ele>2727.0</ele>
      </trkpt>
      <trkpt lat="42.779317" lon="-0.131254">
        <time>2023-03-20T07:38:20+00:00</time>
        <ele>2727.0</ele>
      </trkpt>
      <trkpt lat="42.779337" lon="-0.131227">
        <time>2023-03-20T07:38:35+00:00</time>
        <ele>2727.0</ele>
      </trkpt>
      <trkpt lat="42.779322" lon="-0.131242">
        <time>2023-03-20T07:39:14+00:00</time>
        <ele>2727.0</ele>
      </trkpt>
      <trkpt lat="42.779322" lon="-0.131244">
        <time>2023-03-20T07:39:19+00:00</time>
        <ele>2727.0</ele>
      </trkpt>
      <trkpt lat="42.779327" lon="-0.131262">
        <time>2023-03-20T07:39:50+00:00</time>
        <ele>2727.0</ele>
      </trkpt>
      <trkpt lat="42.77933" lon="-0.131266">
        <time>2023-03-20T07:40:03+00:00</time>
        <ele>2727.0</ele>
      </trkpt>
      <trkpt lat="42.779325" lon="-0.131255">
        <time>2023-03-20T07:40:33+00:00</time>
        <ele>2727.0</ele>
      </trkpt>
      <trkpt lat="42.779362" lon="-0.131259">
        <time>2023-03-20T07:41:02+00:00</time>
        <ele>2728.0</ele>
      </trkpt>
      <trkpt lat="42.779352" lon="-0.131255">
        <time>2023-03-20T07:41:35+00:00</time>
        <ele>2728.0</ele>
      </trkpt>
      <trkpt lat="42.779343" lon="-0.131257">
        <time>2023-03-20T07:42:06+00:00</time>
        <ele>2728.0</ele>
      </trkpt>
      <trkpt lat="42.779357" lon="-0.131256">
        <time>2023-03-20T07:42:50+00:00</time>
        <ele>2728.0</ele>
      </trkpt>
      <trkpt lat="42.779338" lon="-0.131252">
        <time>2023-03-20T07:43:31+00:00</time>
        <ele>2727.0</ele>
      </trkpt>
      <trkpt lat="42.779337" lon="-0.131259">
        <time>2023-03-20T07:43:41+00:00</time>
        <ele>2728.0</ele>
      </trkpt>
      <trkpt lat="42.779336" lon="-0.131262">
        <time>2023-03-20T07:44:21+00:00</time>
        <ele>2728.0</ele>
      </trkpt>
      <trkpt lat="42.779324" lon="-0.131271">
        <time>2023-03-20T07:45:07+00:00</time>
        <ele>2727.0</ele>
      </trkpt>
      <trkpt lat="42.779323" lon="-0.131271">
        <time>2023-03-20T07:45:24+00:00</time>
        <ele>2727.0</ele>
      </trkpt>
      <trkpt lat="42.779314" lon="-0.13126">
        <time>2023-03-20T07:45:31+00:00</time>
        <ele>2727.0</ele>
      </trkpt>
      <trkpt lat="42.779309" lon="-0.131264">
        <time>2023-03-20T07:45:37+00:00</time>
        <ele>2727.0</ele>
      </trkpt>
      <trkpt lat="42.779321" lon="-0.131273">
        <time>2023-03-20T07:45:53+00:00</time>
        <ele>2727.0</ele>
      </trkpt>
      <trkpt lat="42.779313" lon="-0.131251">
        <time>2023-03-20T07:46:11+00:00</time>
        <ele>2727.0</ele>
      </trkpt>
      <trkpt lat="42.77927" lon="-0.131174">
        <time>2023-03-20T07:46:14+00:00</time>
        <ele>2725.0</ele>
      </trkpt>
      <trkpt lat="42.779167" lon="-0.130957">
        <time>2023-03-20T07:46:19+00:00</time>
        <ele>2719.0</ele>
      </trkpt>
      <trkpt lat="42.778917" lon="-0.13082">
        <time>2023-03-20T07:46:22+00:00</time>
        <ele>2716.0</ele>
      </trkpt>
      <trkpt lat="42.77882" lon="-0.130578">
        <time>2023-03-20T07:46:25+00:00</time>
        <ele>2712.0</ele>
      </trkpt>
      <trkpt lat="42.778861" lon="-0.130379">
        <time>2023-03-20T07:46:27+00:00</time>
        <ele>2707.0</ele>
      </trkpt>
      <trkpt lat="42.77893" lon="-0.130321">
        <time>2023-03-20T07:46:28+00:00</time>
        <ele>2705.0</ele>
      </trkpt>
      <trkpt lat="42.779046" lon="-0.130067">
        <time>2023-03-20T07:46:31+00:00</time>
        <ele>2698.0</ele>
      </trkpt>
      <trkpt lat="42.779089" lon="-0.129966">
        <time>2023-03-20T07:46:32+00:00</time>
        <ele>2696.0</ele>
      </trkpt>
      <trkpt lat="42.779096" lon="-0.129853">
        <time>2023-03-20T07:46:33+00:00</time>
        <ele>2695.0</ele>
      </trkpt>
      <trkpt lat="42.779111" lon="-0.129741">
        <time>2023-03-20T07:46:34+00:00</time>
        <ele>2692.0</ele>
      </trkpt>
      <trkpt lat="42.779226" lon="-0.129305">
        <time>2023-03-20T07:46:38+00:00</time>
        <ele>2685.0</ele>
      </trkpt>
      <trkpt lat="42.779239" lon="-0.1292">
        <time>2023-03-20T07:46:39+00:00</time>
        <ele>2683.0</ele>
      </trkpt>
      <trkpt lat="42.779291" lon="-0.129011">
        <time>2023-03-20T07:46:41+00:00</time>
        <ele>2679.0</ele>
      </trkpt>
      <trkpt lat="42.779381" lon="-0.128596">
        <time>2023-03-20T07:46:46+00:00</time>
        <ele>2673.0</ele>
      </trkpt>
      <trkpt lat="42.779374" lon="-0.128498">
        <time>2023-03-20T07:46:47+00:00</time>
        <ele>2671.0</ele>
      </trkpt>
      <trkpt lat="42.779375" lon="-0.128299">
        <time>2023-03-20T07:46:49+00:00</time>
        <ele>2670.0</ele>
      </trkpt>
      <trkpt lat="42.77938" lon="-0.128098">
        <time>2023-03-20T07:46:51+00:00</time>
        <ele>2668.0</ele>
      </trkpt>
      <trkpt lat="42.779395" lon="-0.127915">
        <time>2023-03-20T07:46:53+00:00</time>
        <ele>2665.0</ele>
      </trkpt>
      <trkpt lat="42.779387" lon="-0.127827">
        <time>2023-03-20T07:46:54+00:00</time>
        <ele>2663.0</ele>
      </trkpt>
      <trkpt lat="42.779391" lon="-0.127654">
        <time>2023-03-20T07:46:56+00:00</time>
        <ele>2660.0</ele>
      </trkpt>
      <trkpt lat="42.77929" lon="-0.127405">
        <time>2023-03-20T07:46:59+00:00</time>
        <ele>2655.0</ele>
      </trkpt>
      <trkpt lat="42.779233" lon="-0.127343">
        <time>2023-03-20T07:47:00+00:00</time>
        <ele>2654.0</ele>
      </trkpt>
      <trkpt lat="42.779118" lon="-0.12714">
        <time>2023-03-20T07:47:03+00:00</time>
        <ele>2651.0</ele>
      </trkpt>
      <trkpt lat="42.779059" lon="-0.127007">
        <time>2023-03-20T07:47:05+00:00</time>
        <ele>2650.0</ele>
      </trkpt>
      <trkpt lat="42.778993" lon="-0.126863">
        <time>2023-03-20T07:47:07+00:00</time>
        <ele>2648.0</ele>
      </trkpt>
      <trkpt lat="42.778959" lon="-0.126652">
        <time>2023-03-20T07:47:10+00:00</time>
        <ele>2644.0</ele>
      </trkpt>
      <trkpt lat="42.778972" lon="-0.126571">
        <time>2023-03-20T07:47:11+00:00</time>
        <ele>2643.0</ele>
      </trkpt>
      <trkpt lat="42.779072" lon="-0.126246">
        <time>2023-03-20T07:47:15+00:00</time>
        <ele>2638.0</ele>
      </trkpt>
      <trkpt lat="42.779128" lon="-0.126048">
        <time>2023-03-20T07:47:17+00:00</time>
        <ele>2635.0</ele>
      </trkpt>
      <trkpt lat="42.779136" lon="-0.125848">
        <time>2023-03-20T07:47:19+00:00</time>
        <ele>2635.0</ele>
      </trkpt>
      <trkpt lat="42.779081" lon="-0.125698">
        <time>2023-03-20T07:47:21+00:00</time>
        <ele>2634.0</ele>
      </trkpt>
      <trkpt lat="42.778913" lon="-0.125402">
        <time>2023-03-20T07:47:26+00:00</time>
        <ele>2627.0</ele>
      </trkpt>
      <trkpt lat="42.778857" lon="-0.12527">
        <time>2023-03-20T07:47:28+00:00</time>
        <ele>2625.0</ele>
      </trkpt>
      <trkpt lat="42.778685" lon="-0.125002">
        <time>2023-03-20T07:47:32+00:00</time>
        <ele>2624.0</ele>
      </trkpt>
      <trkpt lat="42.778488" lon="-0.124602">
        <time>2023-03-20T07:47:37+00:00</time>
        <ele>2622.0</ele>
      </trkpt>
      <trkpt lat="42.778349" lon="-0.124165">
        <time>2023-03-20T07:47:42+00:00</time>
        <ele>2614.0</ele>
      </trkpt>
      <trkpt lat="42.778274" lon="-0.124052">
        <time>2023-03-20T07:47:44+00:00</time>
        <ele>2613.0</ele>
      </trkpt>
      <trkpt lat="42.778218" lon="-0.123948">
        <time>2023-03-20T07:47:46+00:00</time>
        <ele>2612.0</ele>
      </trkpt>
      <trkpt lat="42.778177" lon="-0.12351">
        <time>2023-03-20T07:47:51+00:00</time>
        <ele>2600.0</ele>
      </trkpt>
      <trkpt lat="42.778162" lon="-0.123279">
        <time>2023-03-20T07:47:53+00:00</time>
        <ele>2595.0</ele>
      </trkpt>
      <trkpt lat="42.778162" lon="-0.123143">
        <time>2023-03-20T07:47:54+00:00</time>
        <ele>2592.0</ele>
      </trkpt>
      <trkpt lat="42.778118" lon="-0.122892">
        <time>2023-03-20T07:47:56+00:00</time>
        <ele>2588.0</ele>
      </trkpt>
      <trkpt lat="42.778092" lon="-0.122651">
        <time>2023-03-20T07:47:58+00:00</time>
        <ele>2587.0</ele>
      </trkpt>
      <trkpt lat="42.778018" lon="-0.122321">
        <time>2023-03-20T07:48:01+00:00</time>
        <ele>2583.0</ele>
      </trkpt>
      <trkpt lat="42.777882" lon="-0.121971">
        <time>2023-03-20T07:48:05+00:00</time>
        <ele>2581.0</ele>
      </trkpt>
      <trkpt lat="42.777832" lon="-0.121779">
        <time>2023-03-20T07:48:07+00:00</time>
        <ele>2578.0</ele>
      </trkpt>
      <trkpt lat="42.777755" lon="-0.121578">
        <time>2023-03-20T07:48:10+00:00</time>
        <ele>2570.0</ele>
      </trkpt>
      <trkpt lat="42.777755" lon="-0.12153">
        <time>2023-03-20T07:48:11+00:00</time>
        <ele>2568.0</ele>
      </trkpt>
      <trkpt lat="42.777705" lon="-0.121276">
        <time>2023-03-20T07:48:16+00:00</time>
        <ele>2559.0</ele>
      </trkpt>
      <trkpt lat="42.777716" lon="-0.121168">
        <time>2023-03-20T07:48:18+00:00</time>
        <ele>2556.0</ele>
      </trkpt>
      <trkpt lat="42.77767" lon="-0.121043">
        <time>2023-03-20T07:48:21+00:00</time>
        <ele>2554.0</ele>
      </trkpt>
      <trkpt lat="42.77763" lon="-0.120966">
        <time>2023-03-20T07:48:23+00:00</time>
        <ele>2551.0</ele>
      </trkpt>
      <trkpt lat="42.777565" lon="-0.120931">
        <time>2023-03-20T07:48:25+00:00</time>
        <ele>2549.0</ele>
      </trkpt>
      <trkpt lat="42.777503" lon="-0.120865">
        <time>2023-03-20T07:48:27+00:00</time>
        <ele>2545.0</ele>
      </trkpt>
      <trkpt lat="42.77741" lon="-0.120696">
        <time>2023-03-20T07:48:35+00:00</time>
        <ele>2536.0</ele>
      </trkpt>
      <trkpt lat="42.777371" lon="-0.120683">
        <time>2023-03-20T07:48:44+00:00</time>
        <ele>2535.0</ele>
      </trkpt>
      <trkpt lat="42.77738" lon="-0.120599">
        <time>2023-03-20T07:48:48+00:00</time>
        <ele>2533.0</ele>
      </trkpt>
      <trkpt lat="42.777395" lon="-0.120549">
        <time>2023-03-20T07:48:50+00:00</time>
        <ele>2532.0</ele>
      </trkpt>
      <trkpt lat="42.77731" lon="-0.12052">
        <time>2023-03-20T07:48:54+00:00</time>
        <ele>2528.0</ele>
      </trkpt>
      <trkpt lat="42.777235" lon="-0.120542">
        <time>2023-03-20T07:49:00+00:00</time>
        <ele>2524.0</ele>
      </trkpt>
      <trkpt lat="42.777178" lon="-0.120569">
        <time>2023-03-20T07:49:04+00:00</time>
        <ele>2522.0</ele>
      </trkpt>
      <trkpt lat="42.77712" lon="-0.120612">
        <time>2023-03-20T07:49:10+00:00</time>
        <ele>2520.0</ele>
      </trkpt>
      <trkpt lat="42.777107" lon="-0.120635">
        <time>2023-03-20T07:49:21+00:00</time>
        <ele>2520.0</ele>
      </trkpt>
      <trkpt lat="42.777074" lon="-0.120689">
        <time>2023-03-20T07:49:31+00:00</time>
        <ele>2519.0</ele>
      </trkpt>
      <trkpt lat="42.777032" lon="-0.120769">
        <time>2023-03-20T07:49:35+00:00</time>
        <ele>2517.0</ele>
      </trkpt>
      <trkpt lat="42.776952" lon="-0.120943">
        <time>2023-03-20T07:49:41+00:00</time>
        <ele>2515.0</ele>
      </trkpt>
      <trkpt lat="42.776865" lon="-0.121215">
        <time>2023-03-20T07:49:47+00:00</time>
        <ele>2513.0</ele>
      </trkpt>
      <trkpt lat="42.776792" lon="-0.121451">
        <time>2023-03-20T07:49:53+00:00</time>
        <ele>2509.0</ele>
      </trkpt>
      <trkpt lat="42.776779" lon="-0.121481">
        <time>2023-03-20T07:49:54+00:00</time>
        <ele>2508.0</ele>
      </trkpt>
      <trkpt lat="42.776744" lon="-0.121536">
        <time>2023-03-20T07:49:57+00:00</time>
        <ele>2506.0</ele>
      </trkpt>
      <trkpt lat="42.776656" lon="-0.121687">
        <time>2023-03-20T07:50:00+00:00</time>
        <ele>2502.0</ele>
      </trkpt>
      <trkpt lat="42.776628" lon="-0.121755">
        <time>2023-03-20T07:50:01+00:00</time>
        <ele>2502.0</ele>
      </trkpt>
      <trkpt lat="42.776525" lon="-0.122066">
        <time>2023-03-20T07:50:07+00:00</time>
        <ele>2500.0</ele>
      </trkpt>
      <trkpt lat="42.776396" lon="-0.122402">
        <time>2023-03-20T07:50:13+00:00</time>
        <ele>2496.0</ele>
      </trkpt>
      <trkpt lat="42.776309" lon="-0.122613">
        <time>2023-03-20T07:50:17+00:00</time>
        <ele>2493.0</ele>
      </trkpt>
      <trkpt lat="42.776198" lon="-0.122864">
        <time>2023-03-20T07:50:22+00:00</time>
        <ele>2491.0</ele>
      </trkpt>
      <trkpt lat="42.775929" lon="-0.123378">
        <time>2023-03-20T07:50:36+00:00</time>
        <ele>2491.0</ele>
      </trkpt>
      <trkpt lat="42.775829" lon="-0.123514">
        <time>2023-03-20T07:50:46+00:00</time>
        <ele>2491.0</ele>
      </trkpt>
      <trkpt lat="42.775825" lon="-0.123506">
        <time>2023-03-20T07:51:02+00:00</time>
        <ele>2490.0</ele>
      </trkpt>
      <trkpt lat="42.77583" lon="-0.1235">
        <time>2023-03-20T07:51:15+00:00</time>
        <ele>2490.0</ele>
      </trkpt>
      <trkpt lat="42.775819" lon="-0.123495">
        <time>2023-03-20T07:51:37+00:00</time>
        <ele>2490.0</ele>
      </trkpt>
      <trkpt lat="42.775824" lon="-0.123502">
        <time>2023-03-20T07:51:51+00:00</time>
        <ele>2490.0</ele>
      </trkpt>
      <trkpt lat="42.775821" lon="-0.123513">
        <time>2023-03-20T07:52:08+00:00</time>
        <ele>2490.0</ele>
      </trkpt>
      <trkpt lat="42.77582" lon="-0.123501">
        <time>2023-03-20T07:52:12+00:00</time>
        <ele>2490.0</ele>
      </trkpt>
      <trkpt lat="42.775835" lon="-0.123498">
        <time>2023-03-20T07:52:24+00:00</time>
        <ele>2490.0</ele>
      </trkpt>
      <trkpt lat="42.775842" lon="-0.123504">
        <time>2023-03-20T07:52:42+00:00</time>
        <ele>2491.0</ele>
      </trkpt>
      <trkpt lat="42.775843" lon="-0.123505">
        <time>2023-03-20T07:52:55+00:00</time>
        <ele>2491.0</ele>
      </trkpt>
      <trkpt lat="42.775844" lon="-0.123497">
        <time>2023-03-20T07:52:57+00:00</time>
        <ele>2491.0</ele>
      </trkpt>
      <trkpt lat="42.775843" lon="-0.123497">
        <time>2023-03-20T07:52:58+00:00</time>
        <ele>2491.0</ele>
      </trkpt>
      <trkpt lat="42.775844" lon="-0.123498">
        <time>2023-03-20T07:52:59+00:00</time>
        <ele>2491.0</ele>
      </trkpt>
      <trkpt lat="42.775844" lon="-0.123499">
        <time>2023-03-20T07:53:00+00:00</time>
        <ele>2491.0</ele>
      </trkpt>
      <trkpt lat="42.775838" lon="-0.123491">
        <time>2023-03-20T07:53:04+00:00</time>
        <ele>2490.0</ele>
      </trkpt>
      <trkpt lat="42.775836" lon="-0.123489">
        <time>2023-03-20T07:53:08+00:00</time>
        <ele>2490.0</ele>
      </trkpt>
      <trkpt lat="42.775838" lon="-0.123489">
        <time>2023-03-20T07:53:14+00:00</time>
        <ele>2490.0</ele>
      </trkpt>
      <trkpt lat="42.77584" lon="-0.123492">
        <time>2023-03-20T07:53:15+00:00</time>
        <ele>2490.0</ele>
      </trkpt>
      <trkpt lat="42.775841" lon="-0.123494">
        <time>2023-03-20T07:53:17+00:00</time>
        <ele>2491.0</ele>
      </trkpt>
      <trkpt lat="42.77584" lon="-0.123496">
        <time>2023-03-20T07:53:18+00:00</time>
        <ele>2491.0</ele>
      </trkpt>
      <trkpt lat="42.77584" lon="-0.123522">
        <time>2023-03-20T07:53:54+00:00</time>
        <ele>2491.0</ele>
      </trkpt>
      <trkpt lat="42.775837" lon="-0.123532">
        <time>2023-03-20T07:54:26+00:00</time>
        <ele>2492.0</ele>
      </trkpt>
      <trkpt lat="42.775841" lon="-0.123538">
        <time>2023-03-20T07:55:01+00:00</time>
        <ele>2492.0</ele>
      </trkpt>
      <trkpt lat="42.775843" lon="-0.123538">
        <time>2023-03-20T07:55:29+00:00</time>
        <ele>2492.0</ele>
      </trkpt>
      <trkpt lat="42.775844" lon="-0.123533">
        <time>2023-03-20T07:55:58+00:00</time>
        <ele>2492.0</ele>
      </trkpt>
      <trkpt lat="42.775846" lon="-0.123552">
        <time>2023-03-20T07:56:24+00:00</time>
        <ele>2493.0</ele>
      </trkpt>
      <trkpt lat="42.775846" lon="-0.123551">
        <time>2023-03-20T07:56:25+00:00</time>
        <ele>2493.0</ele>
      </trkpt>
      <trkpt lat="42.775845" lon="-0.123552">
        <time>2023-03-20T07:56:26+00:00</time>
        <ele>2493.0</ele>
      </trkpt>
      <trkpt lat="42.775843" lon="-0.123553">
        <time>2023-03-20T07:56:28+00:00</time>
        <ele>2493.0</ele>
      </trkpt>
      <trkpt lat="42.775842" lon="-0.123553">
        <time>2023-03-20T07:56:29+00:00</time>
        <ele>2493.0</ele>
      </trkpt>
      <trkpt lat="42.775827" lon="-0.123516">
        <time>2023-03-20T07:57:01+00:00</time>
        <ele>2491.0</ele>
      </trkpt>
      <trkpt lat="42.775825" lon="-0.123516">
        <time>2023-03-20T07:57:16+00:00</time>
        <ele>2491.0</ele>
      </trkpt>
      <trkpt lat="42.775816" lon="-0.12348">
        <time>2023-03-20T07:57:38+00:00</time>
        <ele>2489.0</ele>
      </trkpt>
      <trkpt lat="42.775814" lon="-0.123489">
        <time>2023-03-20T07:57:42+00:00</time>
        <ele>2489.0</ele>
      </trkpt>
      <trkpt lat="42.775817" lon="-0.123506">
        <time>2023-03-20T07:58:02+00:00</time>
        <ele>2490.0</ele>
      </trkpt>
      <trkpt lat="42.775812" lon="-0.123491">
        <time>2023-03-20T07:58:10+00:00</time>
        <ele>2489.0</ele>
      </trkpt>
      <trkpt lat="42.775812" lon="-0.123495">
        <time>2023-03-20T07:58:12+00:00</time>
        <ele>2489.0</ele>
      </trkpt>
      <trkpt lat="42.775813" lon="-0.123502">
        <time>2023-03-20T07:58:14+00:00</time>
        <ele>2490.0</ele>
      </trkpt>
      <trkpt lat="42.775814" lon="-0.123502">
        <time>2023-03-20T07:58:15+00:00</time>
        <ele>2490.0</ele>
      </trkpt>
      <trkpt lat="42.775818" lon="-0.123513">
        <time>2023-03-20T07:58:17+00:00</time>
        <ele>2490.0</ele>
      </trkpt>
      <trkpt lat="42.775834" lon="-0.123525">
        <time>2023-03-20T07:58:22+00:00</time>
        <ele>2491.0</ele>
      </trkpt>
      <trkpt lat="42.775828" lon="-0.123526">
        <time>2023-03-20T07:58:25+00:00</time>
        <ele>2491.0</ele>
      </trkpt>
      <trkpt lat="42.775843" lon="-0.123524">
        <time>2023-03-20T07:58:40+00:00</time>
        <ele>2492.0</ele>
      </trkpt>
      <trkpt lat="42.775818" lon="-0.123535">
        <time>2023-03-20T07:58:51+00:00</time>
        <ele>2491.0</ele>
      </trkpt>
      <trkpt lat="42.775812" lon="-0.123545">
        <time>2023-03-20T07:59:10+00:00</time>
        <ele>2491.0</ele>
      </trkpt>
      <trkpt lat="42.775824" lon="-0.123524">
        <time>2023-03-20T07:59:29+00:00</time>
        <ele>2491.0</ele>
      </trkpt>
      <trkpt lat="42.775808" lon="-0.123541">
        <time>2023-03-20T07:59:34+00:00</time>
        <ele>2491.0</ele>
      </trkpt>
      <trkpt lat="42.775805" lon="-0.123535">
        <time>2023-03-20T07:59:42+00:00</time>
        <ele>2491.0</ele>
      </trkpt>
      <trkpt lat="42.775812" lon="-0.12356">
        <time>2023-03-20T07:59:48+00:00</time>
        <ele>2492.0</ele>
      </trkpt>
      <trkpt lat="42.775872" lon="-0.123553">
        <time>2023-03-20T07:59:58+00:00</time>
        <ele>2494.0</ele>
      </trkpt>
      <trkpt lat="42.77593" lon="-0.12354">
        <time>2023-03-20T08:00:09+00:00</time>
        <ele>2496.0</ele>
      </trkpt>
      <trkpt lat="42.775995" lon="-0.123531">
        <time>2023-03-20T08:00:21+00:00</time>
        <ele>2498.0</ele>
      </trkpt>
      <trkpt lat="42.776051" lon="-0.123491">
        <time>2023-03-20T08:00:31+00:00</time>
        <ele>2499.0</ele>
      </trkpt>
      <trkpt lat="42.776056" lon="-0.123485">
        <time>2023-03-20T08:00:33+00:00</time>
        <ele>2499.0</ele>
      </trkpt>
      <trkpt lat="42.77605" lon="-0.12357">
        <time>2023-03-20T08:00:45+00:00</time>
        <ele>2502.0</ele>
      </trkpt>
      <trkpt lat="42.776048" lon="-0.12365">
        <time>2023-03-20T08:00:57+00:00</time>
        <ele>2504.0</ele>
      </trkpt>
      <trkpt lat="42.776035" lon="-0.123802">
        <time>2023-03-20T08:01:15+00:00</time>
        <ele>2507.0</ele>
      </trkpt>
      <trkpt lat="42.776025" lon="-0.123896">
        <time>2023-03-20T08:01:26+00:00</time>
        <ele>2509.0</ele>
      </trkpt>
      <trkpt lat="42.776009" lon="-0.123984">
        <time>2023-03-20T08:01:37+00:00</time>
        <ele>2511.0</ele>
      </trkpt>
      <trkpt lat="42.775987" lon="-0.124031">
        <time>2023-03-20T08:01:47+00:00</time>
        <ele>2512.0</ele>
      </trkpt>
      <trkpt lat="42.775931" lon="-0.124131">
        <time>2023-03-20T08:02:02+00:00</time>
        <ele>2514.0</ele>
      </trkpt>
      <trkpt lat="42.775987" lon="-0.124155">
        <time>2023-03-20T08:02:12+00:00</time>
        <ele>2516.0</ele>
      </trkpt>
      <trkpt lat="42.776074" lon="-0.124187">
        <time>2023-03-20T08:02:27+00:00</time>
        <ele>2519.0</ele>
      </trkpt>
      <trkpt lat="42.776126" lon="-0.124172">
        <time>2023-03-20T08:02:38+00:00</time>
        <ele>2520.0</ele>
      </trkpt>
      <trkpt lat="42.776173" lon="-0.124154">
        <time>2023-03-20T08:02:49+00:00</time>
        <ele>2521.0</ele>
      </trkpt>
      <trkpt lat="42.776209" lon="-0.124149">
        <time>2023-03-20T08:02:59+00:00</time>
        <ele>2522.0</ele>
      </trkpt>
      <trkpt lat="42.776206" lon="-0.124321">
        <time>2023-03-20T08:03:16+00:00</time>
        <ele>2526.0</ele>
      </trkpt>
      <trkpt lat="42.776213" lon="-0.124418">
        <time>2023-03-20T08:03:30+00:00</time>
        <ele>2529.0</ele>
      </trkpt>
      <trkpt lat="42.776201" lon="-0.124506">
        <time>2023-03-20T08:03:41+00:00</time>
        <ele>2531.0</ele>
      </trkpt>
      <trkpt lat="42.776192" lon="-0.124577">
        <time>2023-03-20T08:03:51+00:00</time>
        <ele>2532.0</ele>
      </trkpt>
      <trkpt lat="42.776176" lon="-0.124642">
        <time>2023-03-20T08:04:01+00:00</time>
        <ele>2534.0</ele>
      </trkpt>
      <trkpt lat="42.776157" lon="-0.12472">
        <time>2023-03-20T08:04:14+00:00</time>
        <ele>2536.0</ele>
      </trkpt>
      <trkpt lat="42.776122" lon="-0.124777">
        <time>2023-03-20T08:04:24+00:00</time>
        <ele>2538.0</ele>
      </trkpt>
      <trkpt lat="42.776167" lon="-0.124836">
        <time>2023-03-20T08:04:35+00:00</time>
        <ele>2540.0</ele>
      </trkpt>
      <trkpt lat="42.776232" lon="-0.124866">
        <time>2023-03-20T08:04:46+00:00</time>
        <ele>2542.0</ele>
      </trkpt>
      <trkpt lat="42.776294" lon="-0.124867">
        <time>2023-03-20T08:04:58+00:00</time>
        <ele>2543.0</ele>
      </trkpt>
      <trkpt lat="42.776336" lon="-0.124872">
        <time>2023-03-20T08:05:05+00:00</time>
        <ele>2544.0</ele>
      </trkpt>
      <trkpt lat="42.77631" lon="-0.124967">
        <time>2023-03-20T08:05:17+00:00</time>
        <ele>2546.0</ele>
      </trkpt>
      <trkpt lat="42.776304" lon="-0.125036">
        <time>2023-03-20T08:05:28+00:00</time>
        <ele>2548.0</ele>
      </trkpt>
      <trkpt lat="42.776283" lon="-0.125136">
        <time>2023-03-20T08:05:43+00:00</time>
        <ele>2550.0</ele>
      </trkpt>
      <trkpt lat="42.776243" lon="-0.125251">
        <time>2023-03-20T08:06:01+00:00</time>
        <ele>2553.0</ele>
      </trkpt>
      <trkpt lat="42.776276" lon="-0.125314">
        <time>2023-03-20T08:06:10+00:00</time>
        <ele>2555.0</ele>
      </trkpt>
      <trkpt lat="42.77632" lon="-0.125358">
        <time>2023-03-20T08:06:20+00:00</time>
        <ele>2556.0</ele>
      </trkpt>
      <trkpt lat="42.776358" lon="-0.125358">
        <time>2023-03-20T08:06:28+00:00</time>
        <ele>2557.0</ele>
      </trkpt>
      <trkpt lat="42.776326" lon="-0.125445">
        <time>2023-03-20T08:06:40+00:00</time>
        <ele>2559.0</ele>
      </trkpt>
      <trkpt lat="42.776294" lon="-0.125501">
        <time>2023-03-20T08:06:50+00:00</time>
        <ele>2560.0</ele>
      </trkpt>
      <trkpt lat="42.776248" lon="-0.125553">
        <time>2023-03-20T08:07:00+00:00</time>
        <ele>2562.0</ele>
      </trkpt>
      <trkpt lat="42.776214" lon="-0.125588">
        <time>2023-03-20T08:07:13+00:00</time>
        <ele>2563.0</ele>
      </trkpt>
      <trkpt lat="42.776231" lon="-0.125654">
        <time>2023-03-20T08:07:23+00:00</time>
        <ele>2565.0</ele>
      </trkpt>
      <trkpt lat="42.776268" lon="-0.125714">
        <time>2023-03-20T08:07:35+00:00</time>
        <ele>2567.0</ele>
      </trkpt>
      <trkpt lat="42.776322" lon="-0.12577">
        <time>2023-03-20T08:07:48+00:00</time>
        <ele>2569.0</ele>
      </trkpt>
      <trkpt lat="42.776358" lon="-0.125814">
        <time>2023-03-20T08:07:58+00:00</time>
        <ele>2570.0</ele>
      </trkpt>
      <trkpt lat="42.776329" lon="-0.125868">
        <time>2023-03-20T08:08:08+00:00</time>
        <ele>2572.0</ele>
      </trkpt>
      <trkpt lat="42.776306" lon="-0.125934">
        <time>2023-03-20T08:08:20+00:00</time>
        <ele>2574.0</ele>
      </trkpt>
      <trkpt lat="42.776311" lon="-0.126004">
        <time>2023-03-20T08:08:29+00:00</time>
        <ele>2576.0</ele>
      </trkpt>
      <trkpt lat="42.776366" lon="-0.126046">
        <time>2023-03-20T08:08:42+00:00</time>
        <ele>2578.0</ele>
      </trkpt>
      <trkpt lat="42.776387" lon="-0.126087">
        <time>2023-03-20T08:08:54+00:00</time>
        <ele>2580.0</ele>
      </trkpt>
      <trkpt lat="42.776361" lon="-0.126158">
        <time>2023-03-20T08:09:05+00:00</time>
        <ele>2582.0</ele>
      </trkpt>
      <trkpt lat="42.776321" lon="-0.126233">
        <time>2023-03-20T08:09:16+00:00</time>
        <ele>2584.0</ele>
      </trkpt>
      <trkpt lat="42.776335" lon="-0.126275">
        <time>2023-03-20T08:09:27+00:00</time>
        <ele>2585.0</ele>
      </trkpt>
      <trkpt lat="42.776377" lon="-0.126322">
        <time>2023-03-20T08:09:38+00:00</time>
        <ele>2588.0</ele>
      </trkpt>
      <trkpt lat="42.776398" lon="-0.126363">
        <time>2023-03-20T08:09:50+00:00</time>
        <ele>2590.0</ele>
      </trkpt>
      <trkpt lat="42.776362" lon="-0.126436">
        <time>2023-03-20T08:10:01+00:00</time>
        <ele>2591.0</ele>
      </trkpt>
      <trkpt lat="42.776319" lon="-0.126482">
        <time>2023-03-20T08:10:11+00:00</time>
        <ele>2592.0</ele>
      </trkpt>
      <trkpt lat="42.77626" lon="-0.126486">
        <time>2023-03-20T08:10:23+00:00</time>
        <ele>2591.0</ele>
      </trkpt>
      <trkpt lat="42.776214" lon="-0.126464">
        <time>2023-03-20T08:10:37+00:00</time>
        <ele>2589.0</ele>
      </trkpt>
      <trkpt lat="42.776178" lon="-0.126455">
        <time>2023-03-20T08:10:44+00:00</time>
        <ele>2589.0</ele>
      </trkpt>
      <trkpt lat="42.776162" lon="-0.126448">
        <time>2023-03-20T08:10:57+00:00</time>
        <ele>2588.0</ele>
      </trkpt>
      <trkpt lat="42.776161" lon="-0.126464">
        <time>2023-03-20T08:11:11+00:00</time>
        <ele>2589.0</ele>
      </trkpt>
      <trkpt lat="42.77616" lon="-0.126496">
        <time>2023-03-20T08:11:20+00:00</time>
        <ele>2590.0</ele>
      </trkpt>
      <trkpt lat="42.776152" lon="-0.126579">
        <time>2023-03-20T08:11:32+00:00</time>
        <ele>2592.0</ele>
      </trkpt>
      <trkpt lat="42.776143" lon="-0.126665">
        <time>2023-03-20T08:11:43+00:00</time>
        <ele>2594.0</ele>
      </trkpt>
      <trkpt lat="42.776136" lon="-0.126784">
        <time>2023-03-20T08:11:55+00:00</time>
        <ele>2595.0</ele>
      </trkpt>
      <trkpt lat="42.776121" lon="-0.126879">
        <time>2023-03-20T08:12:05+00:00</time>
        <ele>2596.0</ele>
      </trkpt>
      <trkpt lat="42.776114" lon="-0.126967">
        <time>2023-03-20T08:12:16+00:00</time>
        <ele>2597.0</ele>
      </trkpt>
      <trkpt lat="42.776112" lon="-0.126988">
        <time>2023-03-20T08:12:18+00:00</time>
        <ele>2598.0</ele>
      </trkpt>
      <trkpt lat="42.77611" lon="-0.127113">
        <time>2023-03-20T08:12:30+00:00</time>
        <ele>2600.0</ele>
      </trkpt>
      <trkpt lat="42.776116" lon="-0.127246">
        <time>2023-03-20T08:12:44+00:00</time>
        <ele>2603.0</ele>
      </trkpt>
      <trkpt lat="42.776119" lon="-0.127351">
        <time>2023-03-20T08:12:55+00:00</time>
        <ele>2605.0</ele>
      </trkpt>
      <trkpt lat="42.776114" lon="-0.127441">
        <time>2023-03-20T08:13:07+00:00</time>
        <ele>2606.0</ele>
      </trkpt>
      <trkpt lat="42.776119" lon="-0.12752">
        <time>2023-03-20T08:13:16+00:00</time>
        <ele>2607.0</ele>
      </trkpt>
      <trkpt lat="42.776113" lon="-0.127588">
        <time>2023-03-20T08:13:25+00:00</time>
        <ele>2608.0</ele>
      </trkpt>
      <trkpt lat="42.776111" lon="-0.127645">
        <time>2023-03-20T08:13:38+00:00</time>
        <ele>2609.0</ele>
      </trkpt>
      <trkpt lat="42.776103" lon="-0.127654">
        <time>2023-03-20T08:14:00+00:00</time>
        <ele>2608.0</ele>
      </trkpt>
      <trkpt lat="42.776092" lon="-0.127702">
        <time>2023-03-20T08:14:06+00:00</time>
        <ele>2609.0</ele>
      </trkpt>
      <trkpt lat="42.776058" lon="-0.127807">
        <time>2023-03-20T08:14:18+00:00</time>
        <ele>2611.0</ele>
      </trkpt>
      <trkpt lat="42.776015" lon="-0.127878">
        <time>2023-03-20T08:14:29+00:00</time>
        <ele>2612.0</ele>
      </trkpt>
      <trkpt lat="42.775975" lon="-0.127914">
        <time>2023-03-20T08:14:37+00:00</time>
        <ele>2613.0</ele>
      </trkpt>
      <trkpt lat="42.775896" lon="-0.127959">
        <time>2023-03-20T08:14:50+00:00</time>
        <ele>2614.0</ele>
      </trkpt>
      <trkpt lat="42.775847" lon="-0.127998">
        <time>2023-03-20T08:15:00+00:00</time>
        <ele>2616.0</ele>
      </trkpt>
      <trkpt lat="42.775774" lon="-0.128068">
        <time>2023-03-20T08:15:14+00:00</time>
        <ele>2618.0</ele>
      </trkpt>
      <trkpt lat="42.775686" lon="-0.128163">
        <time>2023-03-20T08:15:28+00:00</time>
        <ele>2619.0</ele>
      </trkpt>
      <trkpt lat="42.775621" lon="-0.128259">
        <time>2023-03-20T08:15:41+00:00</time>
        <ele>2620.0</ele>
      </trkpt>
      <trkpt lat="42.775566" lon="-0.128333">
        <time>2023-03-20T08:15:53+00:00</time>
        <ele>2621.0</ele>
      </trkpt>
      <trkpt lat="42.775485" lon="-0.128436">
        <time>2023-03-20T08:16:05+00:00</time>
        <ele>2622.0</ele>
      </trkpt>
      <trkpt lat="42.775357" lon="-0.128563">
        <time>2023-03-20T08:16:22+00:00</time>
        <ele>2623.0</ele>
      </trkpt>
      <trkpt lat="42.77532" lon="-0.128629">
        <time>2023-03-20T08:16:31+00:00</time>
        <ele>2624.0</ele>
      </trkpt>
      <trkpt lat="42.775268" lon="-0.128719">
        <time>2023-03-20T08:16:43+00:00</time>
        <ele>2625.0</ele>
      </trkpt>
      <trkpt lat="42.775201" lon="-0.128755">
        <time>2023-03-20T08:16:57+00:00</time>
        <ele>2624.0</ele>
      </trkpt>
      <trkpt lat="42.775194" lon="-0.128758">
        <time>2023-03-20T08:16:58+00:00</time>
        <ele>2624.0</ele>
      </trkpt>
      <trkpt lat="42.775114" lon="-0.128773">
        <time>2023-03-20T08:17:08+00:00</time>
        <ele>2624.0</ele>
      </trkpt>
      <trkpt lat="42.775087" lon="-0.128782">
        <time>2023-03-20T08:17:11+00:00</time>
        <ele>2624.0</ele>
      </trkpt>
      <trkpt lat="42.774961" lon="-0.128744">
        <time>2023-03-20T08:17:25+00:00</time>
        <ele>2623.0</ele>
      </trkpt>
      <trkpt lat="42.774914" lon="-0.128688">
        <time>2023-03-20T08:17:32+00:00</time>
        <ele>2623.0</ele>
      </trkpt>
      <trkpt lat="42.774882" lon="-0.12864">
        <time>2023-03-20T08:17:44+00:00</time>
        <ele>2622.0</ele>
      </trkpt>
      <trkpt lat="42.774875" lon="-0.128631">
        <time>2023-03-20T08:17:58+00:00</time>
        <ele>2622.0</ele>
      </trkpt>
      <trkpt lat="42.774877" lon="-0.128638">
        <time>2023-03-20T08:18:08+00:00</time>
        <ele>2622.0</ele>
      </trkpt>
      <trkpt lat="42.774876" lon="-0.128646">
        <time>2023-03-20T08:18:40+00:00</time>
        <ele>2622.0</ele>
      </trkpt>
      <trkpt lat="42.774876" lon="-0.128654">
        <time>2023-03-20T08:18:43+00:00</time>
        <ele>2622.0</ele>
      </trkpt>
      <trkpt lat="42.774877" lon="-0.128651">
        <time>2023-03-20T08:18:44+00:00</time>
        <ele>2622.0</ele>
      </trkpt>
      <trkpt lat="42.774877" lon="-0.12865">
        <time>2023-03-20T08:18:45+00:00</time>
        <ele>2622.0</ele>
      </trkpt>
      <trkpt lat="42.77488" lon="-0.12863">
        <time>2023-03-20T08:18:55+00:00</time>
        <ele>2621.0</ele>
      </trkpt>
      <trkpt lat="42.774881" lon="-0.128632">
        <time>2023-03-20T08:18:59+00:00</time>
        <ele>2622.0</ele>
      </trkpt>
      <trkpt lat="42.774885" lon="-0.128635">
        <time>2023-03-20T08:19:02+00:00</time>
        <ele>2622.0</ele>
      </trkpt>
      <trkpt lat="42.774884" lon="-0.128639">
        <time>2023-03-20T08:19:04+00:00</time>
        <ele>2622.0</ele>
      </trkpt>
      <trkpt lat="42.774883" lon="-0.128643">
        <time>2023-03-20T08:19:05+00:00</time>
        <ele>2622.0</ele>
      </trkpt>
      <trkpt lat="42.774883" lon="-0.128647">
        <time>2023-03-20T08:19:06+00:00</time>
        <ele>2622.0</ele>
      </trkpt>
      <trkpt lat="42.774882" lon="-0.128649">
        <time>2023-03-20T08:19:07+00:00</time>
        <ele>2622.0</ele>
      </trkpt>
      <trkpt lat="42.774882" lon="-0.128677">
        <time>2023-03-20T08:19:39+00:00</time>
        <ele>2623.0</ele>
      </trkpt>
      <trkpt lat="42.77488" lon="-0.128677">
        <time>2023-03-20T08:20:26+00:00</time>
        <ele>2623.0</ele>
      </trkpt>
      <trkpt lat="42.774873" lon="-0.128671">
        <time>2023-03-20T08:21:11+00:00</time>
        <ele>2623.0</ele>
      </trkpt>
      <trkpt lat="42.774864" lon="-0.128675">
        <time>2023-03-20T08:21:55+00:00</time>
        <ele>2623.0</ele>
      </trkpt>
      <trkpt lat="42.774895" lon="-0.128704">
        <time>2023-03-20T08:22:36+00:00</time>
        <ele>2623.0</ele>
      </trkpt>
      <trkpt lat="42.77488" lon="-0.128667">
        <time>2023-03-20T08:23:14+00:00</time>
        <ele>2623.0</ele>
      </trkpt>
      <trkpt lat="42.774859" lon="-0.128668">
        <time>2023-03-20T08:23:56+00:00</time>
        <ele>2623.0</ele>
      </trkpt>
      <trkpt lat="42.774857" lon="-0.128654">
        <time>2023-03-20T08:24:42+00:00</time>
        <ele>2622.0</ele>
      </trkpt>
      <trkpt lat="42.774858" lon="-0.128676">
        <time>2023-03-20T08:25:20+00:00</time>
        <ele>2623.0</ele>
      </trkpt>
      <trkpt lat="42.774856" lon="-0.128652">
        <time>2023-03-20T08:25:22+00:00</time>
        <ele>2622.0</ele>
      </trkpt>
      <trkpt lat="42.774855" lon="-0.128653">
        <time>2023-03-20T08:25:23+00:00</time>
        <ele>2622.0</ele>
      </trkpt>
      <trkpt lat="42.774879" lon="-0.128591">
        <time>2023-03-20T08:25:37+00:00</time>
        <ele>2620.0</ele>
      </trkpt>
      <trkpt lat="42.774876" lon="-0.128591">
        <time>2023-03-20T08:25:44+00:00</time>
        <ele>2620.0</ele>
      </trkpt>
      <trkpt lat="42.774881" lon="-0.128607">
        <time>2023-03-20T08:26:06+00:00</time>
        <ele>2621.0</ele>
      </trkpt>
      <trkpt lat="42.774879" lon="-0.128622">
        <time>2023-03-20T08:26:19+00:00</time>
        <ele>2621.0</ele>
      </trkpt>
      <trkpt lat="42.77489" lon="-0.128591">
        <time>2023-03-20T08:26:30+00:00</time>
        <ele>2620.0</ele>
      </trkpt>
      <trkpt lat="42.774894" lon="-0.128572">
        <time>2023-03-20T08:27:02+00:00</time>
        <ele>2620.0</ele>
      </trkpt>
      <trkpt lat="42.774892" lon="-0.128565">
        <time>2023-03-20T08:27:37+00:00</time>
        <ele>2620.0</ele>
      </trkpt>
      <trkpt lat="42.774872" lon="-0.128662">
        <time>2023-03-20T08:28:04+00:00</time>
        <ele>2622.0</ele>
      </trkpt>
      <trkpt lat="42.77487" lon="-0.128666">
        <time>2023-03-20T08:28:05+00:00</time>
        <ele>2623.0</ele>
      </trkpt>
      <trkpt lat="42.774845" lon="-0.128679">
        <time>2023-03-20T08:28:35+00:00</time>
        <ele>2623.0</ele>
      </trkpt>
      <trkpt lat="42.774839" lon="-0.128681">
        <time>2023-03-20T08:29:05+00:00</time>
        <ele>2623.0</ele>
      </trkpt>
      <trkpt lat="42.774854" lon="-0.128634">
        <time>2023-03-20T08:29:44+00:00</time>
        <ele>2622.0</ele>
      </trkpt>
      <trkpt lat="42.77484" lon="-0.128673">
        <time>2023-03-20T08:30:25+00:00</time>
        <ele>2623.0</ele>
      </trkpt>
      <trkpt lat="42.774794" lon="-0.12865">
        <time>2023-03-20T08:31:04+00:00</time>
        <ele>2623.0</ele>
      </trkpt>
      <trkpt lat="42.774821" lon="-0.128661">
        <time>2023-03-20T08:31:28+00:00</time>
        <ele>2623.0</ele>
      </trkpt>
      <trkpt lat="42.774826" lon="-0.128667">
        <time>2023-03-20T08:31:32+00:00</time>
        <ele>2623.0</ele>
      </trkpt>
      <trkpt lat="42.774846" lon="-0.128662">
        <time>2023-03-20T08:31:34+00:00</time>
        <ele>2623.0</ele>
      </trkpt>
      <trkpt lat="42.774843" lon="-0.128658">
        <time>2023-03-20T08:31:35+00:00</time>
        <ele>2623.0</ele>
      </trkpt>
      <trkpt lat="42.774843" lon="-0.128656">
        <time>2023-03-20T08:31:36+00:00</time>
        <ele>2623.0</ele>
      </trkpt>
      <trkpt lat="42.774843" lon="-0.128652">
        <time>2023-03-20T08:31:43+00:00</time>
        <ele>2623.0</ele>
      </trkpt>
      <trkpt lat="42.774844" lon="-0.128646">
        <time>2023-03-20T08:31:44+00:00</time>
        <ele>2622.0</ele>
      </trkpt>
      <trkpt lat="42.774844" lon="-0.128636">
        <time>2023-03-20T08:31:46+00:00</time>
        <ele>2622.0</ele>
      </trkpt>
      <trkpt lat="42.774845" lon="-0.128632">
        <time>2023-03-20T08:31:47+00:00</time>
        <ele>2622.0</ele>
      </trkpt>
      <trkpt lat="42.774849" lon="-0.128609">
        <time>2023-03-20T08:32:21+00:00</time>
        <ele>2621.0</ele>
      </trkpt>
      <trkpt lat="42.774853" lon="-0.128619">
        <time>2023-03-20T08:32:26+00:00</time>
        <ele>2622.0</ele>
      </trkpt>
      <trkpt lat="42.774853" lon="-0.128619">
        <time>2023-03-20T08:32:27+00:00</time>
        <ele>2622.0</ele>
      </trkpt>
      <trkpt lat="42.774843" lon="-0.128622">
        <time>2023-03-20T08:32:34+00:00</time>
        <ele>2622.0</ele>
      </trkpt>
      <trkpt lat="42.774841" lon="-0.128619">
        <time>2023-03-20T08:32:35+00:00</time>
        <ele>2622.0</ele>
      </trkpt>
      <trkpt lat="42.774845" lon="-0.128624">
        <time>2023-03-20T08:32:36+00:00</time>
        <ele>2622.0</ele>
      </trkpt>
      <trkpt lat="42.774847" lon="-0.128625">
        <time>2023-03-20T08:32:38+00:00</time>
        <ele>2622.0</ele>
      </trkpt>
      <trkpt lat="42.774851" lon="-0.128629">
        <time>2023-03-20T08:32:44+00:00</time>
        <ele>2622.0</ele>
      </trkpt>
      <trkpt lat="42.774862" lon="-0.128649">
        <time>2023-03-20T08:33:02+00:00</time>
        <ele>2622.0</ele>
      </trkpt>
      <trkpt lat="42.774864" lon="-0.128648">
        <time>2023-03-20T08:33:03+00:00</time>
        <ele>2622.0</ele>
      </trkpt>
      <trkpt lat="42.77487" lon="-0.128627">
        <time>2023-03-20T08:33:12+00:00</time>
        <ele>2622.0</ele>
      </trkpt>
      <trkpt lat="42.774871" lon="-0.128625">
        <time>2023-03-20T08:33:13+00:00</time>
        <ele>2621.0</ele>
      </trkpt>
      <trkpt lat="42.774871" lon="-0.128628">
        <time>2023-03-20T08:33:17+00:00</time>
        <ele>2622.0</ele>
      </trkpt>
      <trkpt lat="42.774865" lon="-0.128637">
        <time>2023-03-20T08:33:20+00:00</time>
        <ele>2622.0</ele>
      </trkpt>
      <trkpt lat="42.774864" lon="-0.12864">
        <time>2023-03-20T08:33:21+00:00</time>
        <ele>2622.0</ele>
      </trkpt>
      <trkpt lat="42.774864" lon="-0.128634">
        <time>2023-03-20T08:33:23+00:00</time>
        <ele>2622.0</ele>
      </trkpt>
      <trkpt lat="42.774869" lon="-0.128622">
        <time>2023-03-20T08:33:32+00:00</time>
        <ele>2621.0</ele>
      </trkpt>
      <trkpt lat="42.774873" lon="-0.128615">
        <time>2023-03-20T08:33:36+00:00</time>
        <ele>2621.0</ele>
      </trkpt>
      <trkpt lat="42.77487" lon="-0.128647">
        <time>2023-03-20T08:33:46+00:00</time>
        <ele>2622.0</ele>
      </trkpt>
      <trkpt lat="42.77487" lon="-0.128684">
        <time>2023-03-20T08:33:57+00:00</time>
        <ele>2623.0</ele>
      </trkpt>
      <trkpt lat="42.774863" lon="-0.12865">
        <time>2023-03-20T08:34:13+00:00</time>
        <ele>2622.0</ele>
      </trkpt>
      <trkpt lat="42.774876" lon="-0.128645">
        <time>2023-03-20T08:34:21+00:00</time>
        <ele>2622.0</ele>
      </trkpt>
      <trkpt lat="42.774883" lon="-0.128664">
        <time>2023-03-20T08:34:24+00:00</time>
        <ele>2622.0</ele>
      </trkpt>
      <trkpt lat="42.774902" lon="-0.128682">
        <time>2023-03-20T08:34:27+00:00</time>
        <ele>2623.0</ele>
      </trkpt>
      <trkpt lat="42.774918" lon="-0.128792">
        <time>2023-03-20T08:34:39+00:00</time>
        <ele>2625.0</ele>
      </trkpt>
      <trkpt lat="42.774919" lon="-0.128799">
        <time>2023-03-20T08:34:40+00:00</time>
        <ele>2625.0</ele>
      </trkpt>
      <trkpt lat="42.774876" lon="-0.128928">
        <time>2023-03-20T08:34:54+00:00</time>
        <ele>2627.0</ele>
      </trkpt>
      <trkpt lat="42.77483" lon="-0.129038">
        <time>2023-03-20T08:35:08+00:00</time>
        <ele>2629.0</ele>
      </trkpt>
      <trkpt lat="42.774827" lon="-0.129053">
        <time>2023-03-20T08:35:09+00:00</time>
        <ele>2630.0</ele>
      </trkpt>
      <trkpt lat="42.7748" lon="-0.129169">
        <time>2023-03-20T08:35:21+00:00</time>
        <ele>2630.0</ele>
      </trkpt>
      <trkpt lat="42.77478" lon="-0.129261">
        <time>2023-03-20T08:35:34+00:00</time>
        <ele>2631.0</ele>
      </trkpt>
      <trkpt lat="42.774755" lon="-0.129373">
        <time>2023-03-20T08:35:47+00:00</time>
        <ele>2633.0</ele>
      </trkpt>
      <trkpt lat="42.774737" lon="-0.129452">
        <time>2023-03-20T08:35:58+00:00</time>
        <ele>2634.0</ele>
      </trkpt>
      <trkpt lat="42.774733" lon="-0.129473">
        <time>2023-03-20T08:36:13+00:00</time>
        <ele>2635.0</ele>
      </trkpt>
      <trkpt lat="42.774744" lon="-0.129475">
        <time>2023-03-20T08:36:32+00:00</time>
        <ele>2634.0</ele>
      </trkpt>
      <trkpt lat="42.774743" lon="-0.129481">
        <time>2023-03-20T08:36:39+00:00</time>
        <ele>2634.0</ele>
      </trkpt>
      <trkpt lat="42.774703" lon="-0.129597">
        <time>2023-03-20T08:36:52+00:00</time>
        <ele>2638.0</ele>
      </trkpt>
      <trkpt lat="42.774645" lon="-0.129641">
        <time>2023-03-20T08:37:04+00:00</time>
        <ele>2642.0</ele>
      </trkpt>
      <trkpt lat="42.774537" lon="-0.129617">
        <time>2023-03-20T08:37:17+00:00</time>
        <ele>2647.0</ele>
      </trkpt>
      <trkpt lat="42.774492" lon="-0.129593">
        <time>2023-03-20T08:37:27+00:00</time>
        <ele>2648.0</ele>
      </trkpt>
      <trkpt lat="42.774445" lon="-0.129541">
        <time>2023-03-20T08:37:38+00:00</time>
        <ele>2650.0</ele>
      </trkpt>
      <trkpt lat="42.774406" lon="-0.129497">
        <time>2023-03-20T08:37:50+00:00</time>
        <ele>2651.0</ele>
      </trkpt>
      <trkpt lat="42.774373" lon="-0.129438">
        <time>2023-03-20T08:38:04+00:00</time>
        <ele>2652.0</ele>
      </trkpt>
      <trkpt lat="42.774374" lon="-0.129432">
        <time>2023-03-20T08:38:05+00:00</time>
        <ele>2652.0</ele>
      </trkpt>
      <trkpt lat="42.77437" lon="-0.129472">
        <time>2023-03-20T08:38:17+00:00</time>
        <ele>2653.0</ele>
      </trkpt>
      <trkpt lat="42.774346" lon="-0.129555">
        <time>2023-03-20T08:38:30+00:00</time>
        <ele>2655.0</ele>
      </trkpt>
      <trkpt lat="42.774355" lon="-0.1296">
        <time>2023-03-20T08:38:39+00:00</time>
        <ele>2655.0</ele>
      </trkpt>
      <trkpt lat="42.774308" lon="-0.129618">
        <time>2023-03-20T08:38:51+00:00</time>
        <ele>2658.0</ele>
      </trkpt>
      <trkpt lat="42.774237" lon="-0.129609">
        <time>2023-03-20T08:39:03+00:00</time>
        <ele>2661.0</ele>
      </trkpt>
      <trkpt lat="42.774181" lon="-0.129574">
        <time>2023-03-20T08:39:19+00:00</time>
        <ele>2663.0</ele>
      </trkpt>
      <trkpt lat="42.774132" lon="-0.129552">
        <time>2023-03-20T08:39:31+00:00</time>
        <ele>2665.0</ele>
      </trkpt>
      <trkpt lat="42.77408" lon="-0.129484">
        <time>2023-03-20T08:39:44+00:00</time>
        <ele>2666.0</ele>
      </trkpt>
      <trkpt lat="42.774077" lon="-0.129477">
        <time>2023-03-20T08:39:45+00:00</time>
        <ele>2666.0</ele>
      </trkpt>
      <trkpt lat="42.774069" lon="-0.129476">
        <time>2023-03-20T08:39:47+00:00</time>
        <ele>2666.0</ele>
      </trkpt>
      <trkpt lat="42.774058" lon="-0.129464">
        <time>2023-03-20T08:39:50+00:00</time>
        <ele>2667.0</ele>
      </trkpt>
      <trkpt lat="42.774018" lon="-0.129495">
        <time>2023-03-20T08:40:06+00:00</time>
        <ele>2669.0</ele>
      </trkpt>
      <trkpt lat="42.774011" lon="-0.129512">
        <time>2023-03-20T08:40:09+00:00</time>
        <ele>2669.0</ele>
      </trkpt>
      <trkpt lat="42.773979" lon="-0.1296">
        <time>2023-03-20T08:40:23+00:00</time>
        <ele>2672.0</ele>
      </trkpt>
      <trkpt lat="42.773946" lon="-0.129686">
        <time>2023-03-20T08:40:35+00:00</time>
        <ele>2674.0</ele>
      </trkpt>
      <trkpt lat="42.773909" lon="-0.129784">
        <time>2023-03-20T08:40:49+00:00</time>
        <ele>2676.0</ele>
      </trkpt>
      <trkpt lat="42.773876" lon="-0.129887">
        <time>2023-03-20T08:41:02+00:00</time>
        <ele>2678.0</ele>
      </trkpt>
      <trkpt lat="42.773848" lon="-0.129987">
        <time>2023-03-20T08:41:13+00:00</time>
        <ele>2681.0</ele>
      </trkpt>
      <trkpt lat="42.773828" lon="-0.130098">
        <time>2023-03-20T08:41:32+00:00</time>
        <ele>2683.0</ele>
      </trkpt>
      <trkpt lat="42.773819" lon="-0.130198">
        <time>2023-03-20T08:41:45+00:00</time>
        <ele>2685.0</ele>
      </trkpt>
      <trkpt lat="42.773827" lon="-0.13028">
        <time>2023-03-20T08:42:00+00:00</time>
        <ele>2686.0</ele>
      </trkpt>
      <trkpt lat="42.77382" lon="-0.130353">
        <time>2023-03-20T08:42:15+00:00</time>
        <ele>2687.0</ele>
      </trkpt>
      <trkpt lat="42.773766" lon="-0.130387">
        <time>2023-03-20T08:42:26+00:00</time>
        <ele>2690.0</ele>
      </trkpt>
      <trkpt lat="42.773712" lon="-0.130378">
        <time>2023-03-20T08:42:41+00:00</time>
        <ele>2692.0</ele>
      </trkpt>
      <trkpt lat="42.773655" lon="-0.130394">
        <time>2023-03-20T08:42:54+00:00</time>
        <ele>2695.0</ele>
      </trkpt>
      <trkpt lat="42.773598" lon="-0.130383">
        <time>2023-03-20T08:43:07+00:00</time>
        <ele>2697.0</ele>
      </trkpt>
      <trkpt lat="42.773533" lon="-0.130332">
        <time>2023-03-20T08:43:20+00:00</time>
        <ele>2700.0</ele>
      </trkpt>
      <trkpt lat="42.773512" lon="-0.130391">
        <time>2023-03-20T08:43:36+00:00</time>
        <ele>2703.0</ele>
      </trkpt>
      <trkpt lat="42.773503" lon="-0.130514">
        <time>2023-03-20T08:43:55+00:00</time>
        <ele>2705.0</ele>
      </trkpt>
      <trkpt lat="42.77351" lon="-0.130618">
        <time>2023-03-20T08:44:08+00:00</time>
        <ele>2706.0</ele>
      </trkpt>
      <trkpt lat="42.773503" lon="-0.1307">
        <time>2023-03-20T08:44:20+00:00</time>
        <ele>2708.0</ele>
      </trkpt>
      <trkpt lat="42.773521" lon="-0.130805">
        <time>2023-03-20T08:44:32+00:00</time>
        <ele>2709.0</ele>
      </trkpt>
      <trkpt lat="42.773546" lon="-0.130939">
        <time>2023-03-20T08:44:50+00:00</time>
        <ele>2710.0</ele>
      </trkpt>
      <trkpt lat="42.77357" lon="-0.131032">
        <time>2023-03-20T08:45:05+00:00</time>
        <ele>2711.0</ele>
      </trkpt>
      <trkpt lat="42.773594" lon="-0.131146">
        <time>2023-03-20T08:45:22+00:00</time>
        <ele>2714.0</ele>
      </trkpt>
      <trkpt lat="42.77361" lon="-0.131175">
        <time>2023-03-20T08:45:36+00:00</time>
        <ele>2714.0</ele>
      </trkpt>
      <trkpt lat="42.77362" lon="-0.131168">
        <time>2023-03-20T08:45:49+00:00</time>
        <ele>2714.0</ele>
      </trkpt>
      <trkpt lat="42.773598" lon="-0.131202">
        <time>2023-03-20T08:46:05+00:00</time>
        <ele>2715.0</ele>
      </trkpt>
      <trkpt lat="42.773525" lon="-0.131221">
        <time>2023-03-20T08:46:20+00:00</time>
        <ele>2718.0</ele>
      </trkpt>
      <trkpt lat="42.773482" lon="-0.131232">
        <time>2023-03-20T08:46:31+00:00</time>
        <ele>2720.0</ele>
      </trkpt>
      <trkpt lat="42.773434" lon="-0.131251">
        <time>2023-03-20T08:46:54+00:00</time>
        <ele>2722.0</ele>
      </trkpt>
      <trkpt lat="42.77338" lon="-0.131257">
        <time>2023-03-20T08:47:05+00:00</time>
        <ele>2725.0</ele>
      </trkpt>
      <trkpt lat="42.773342" lon="-0.131307">
        <time>2023-03-20T08:47:21+00:00</time>
        <ele>2727.0</ele>
      </trkpt>
      <trkpt lat="42.773343" lon="-0.131435">
        <time>2023-03-20T08:47:36+00:00</time>
        <ele>2729.0</ele>
      </trkpt>
      <trkpt lat="42.773338" lon="-0.13151">
        <time>2023-03-20T08:47:49+00:00</time>
        <ele>2730.0</ele>
      </trkpt>
      <trkpt lat="42.773308" lon="-0.131624">
        <time>2023-03-20T08:48:03+00:00</time>
        <ele>2733.0</ele>
      </trkpt>
      <trkpt lat="42.77328" lon="-0.131751">
        <time>2023-03-20T08:48:17+00:00</time>
        <ele>2736.0</ele>
      </trkpt>
      <trkpt lat="42.773256" lon="-0.131854">
        <time>2023-03-20T08:48:31+00:00</time>
        <ele>2738.0</ele>
      </trkpt>
      <trkpt lat="42.773235" lon="-0.131915">
        <time>2023-03-20T08:48:42+00:00</time>
        <ele>2740.0</ele>
      </trkpt>
      <trkpt lat="42.773157" lon="-0.131963">
        <time>2023-03-20T08:48:57+00:00</time>
        <ele>2743.0</ele>
      </trkpt>
      <trkpt lat="42.773076" lon="-0.131989">
        <time>2023-03-20T08:49:13+00:00</time>
        <ele>2745.0</ele>
      </trkpt>
      <trkpt lat="42.772997" lon="-0.132027">
        <time>2023-03-20T08:49:30+00:00</time>
        <ele>2747.0</ele>
      </trkpt>
      <trkpt lat="42.772932" lon="-0.13206">
        <time>2023-03-20T08:49:42+00:00</time>
        <ele>2750.0</ele>
      </trkpt>
      <trkpt lat="42.772869" lon="-0.132076">
        <time>2023-03-20T08:49:53+00:00</time>
        <ele>2753.0</ele>
      </trkpt>
      <trkpt lat="42.772865" lon="-0.132144">
        <time>2023-03-20T08:50:07+00:00</time>
        <ele>2755.0</ele>
      </trkpt>
      <trkpt lat="42.772867" lon="-0.132241">
        <time>2023-03-20T08:50:19+00:00</time>
        <ele>2756.0</ele>
      </trkpt>
      <trkpt lat="42.772873" lon="-0.132343">
        <time>2023-03-20T08:50:36+00:00</time>
        <ele>2758.0</ele>
      </trkpt>
      <trkpt lat="42.772881" lon="-0.132451">
        <time>2023-03-20T08:50:49+00:00</time>
        <ele>2760.0</ele>
      </trkpt>
      <trkpt lat="42.772835" lon="-0.13249">
        <time>2023-03-20T08:51:01+00:00</time>
        <ele>2763.0</ele>
      </trkpt>
      <trkpt lat="42.772766" lon="-0.132489">
        <time>2023-03-20T08:51:13+00:00</time>
        <ele>2765.0</ele>
      </trkpt>
      <trkpt lat="42.772729" lon="-0.132497">
        <time>2023-03-20T08:51:20+00:00</time>
        <ele>2766.0</ele>
      </trkpt>
      <trkpt lat="42.772723" lon="-0.132498">
        <time>2023-03-20T08:51:21+00:00</time>
        <ele>2767.0</ele>
      </trkpt>
      <trkpt lat="42.772638" lon="-0.13247">
        <time>2023-03-20T08:51:41+00:00</time>
        <ele>2769.0</ele>
      </trkpt>
      <trkpt lat="42.772567" lon="-0.132444">
        <time>2023-03-20T08:51:53+00:00</time>
        <ele>2772.0</ele>
      </trkpt>
      <trkpt lat="42.772503" lon="-0.132443">
        <time>2023-03-20T08:52:06+00:00</time>
        <ele>2775.0</ele>
      </trkpt>
      <trkpt lat="42.77245" lon="-0.132443">
        <time>2023-03-20T08:52:20+00:00</time>
        <ele>2777.0</ele>
      </trkpt>
      <trkpt lat="42.772365" lon="-0.132416">
        <time>2023-03-20T08:52:34+00:00</time>
        <ele>2780.0</ele>
      </trkpt>
      <trkpt lat="42.772292" lon="-0.132383">
        <time>2023-03-20T08:52:48+00:00</time>
        <ele>2782.0</ele>
      </trkpt>
      <trkpt lat="42.772231" lon="-0.132375">
        <time>2023-03-20T08:53:04+00:00</time>
        <ele>2785.0</ele>
      </trkpt>
      <trkpt lat="42.772194" lon="-0.132449">
        <time>2023-03-20T08:53:17+00:00</time>
        <ele>2787.0</ele>
      </trkpt>
      <trkpt lat="42.772171" lon="-0.132478">
        <time>2023-03-20T08:53:29+00:00</time>
        <ele>2788.0</ele>
      </trkpt>
      <trkpt lat="42.772174" lon="-0.132493">
        <time>2023-03-20T08:53:47+00:00</time>
        <ele>2788.0</ele>
      </trkpt>
      <trkpt lat="42.772146" lon="-0.132611">
        <time>2023-03-20T08:54:01+00:00</time>
        <ele>2791.0</ele>
      </trkpt>
      <trkpt lat="42.772123" lon="-0.132723">
        <time>2023-03-20T08:54:18+00:00</time>
        <ele>2793.0</ele>
      </trkpt>
      <trkpt lat="42.772081" lon="-0.132749">
        <time>2023-03-20T08:54:29+00:00</time>
        <ele>2795.0</ele>
      </trkpt>
      <trkpt lat="42.772019" lon="-0.132719">
        <time>2023-03-20T08:54:42+00:00</time>
        <ele>2796.0</ele>
      </trkpt>
      <trkpt lat="42.77195" lon="-0.132672">
        <time>2023-03-20T08:54:55+00:00</time>
        <ele>2797.0</ele>
      </trkpt>
      <trkpt lat="42.771879" lon="-0.132642">
        <time>2023-03-20T08:55:10+00:00</time>
        <ele>2799.0</ele>
      </trkpt>
      <trkpt lat="42.77181" lon="-0.132665">
        <time>2023-03-20T08:55:24+00:00</time>
        <ele>2801.0</ele>
      </trkpt>
      <trkpt lat="42.771806" lon="-0.13277">
        <time>2023-03-20T08:55:40+00:00</time>
        <ele>2805.0</ele>
      </trkpt>
      <trkpt lat="42.771788" lon="-0.132881">
        <time>2023-03-20T08:55:54+00:00</time>
        <ele>2808.0</ele>
      </trkpt>
      <trkpt lat="42.771779" lon="-0.13301">
        <time>2023-03-20T08:56:11+00:00</time>
        <ele>2812.0</ele>
      </trkpt>
      <trkpt lat="42.771775" lon="-0.133038">
        <time>2023-03-20T08:56:14+00:00</time>
        <ele>2812.0</ele>
      </trkpt>
      <trkpt lat="42.771773" lon="-0.133056">
        <time>2023-03-20T08:56:16+00:00</time>
        <ele>2813.0</ele>
      </trkpt>
      <trkpt lat="42.771776" lon="-0.133073">
        <time>2023-03-20T08:56:18+00:00</time>
        <ele>2813.0</ele>
      </trkpt>
      <trkpt lat="42.771783" lon="-0.133147">
        <time>2023-03-20T08:56:35+00:00</time>
        <ele>2815.0</ele>
      </trkpt>
      <trkpt lat="42.771697" lon="-0.133149">
        <time>2023-03-20T08:56:49+00:00</time>
        <ele>2819.0</ele>
      </trkpt>
      <trkpt lat="42.771626" lon="-0.133131">
        <time>2023-03-20T08:57:02+00:00</time>
        <ele>2822.0</ele>
      </trkpt>
      <trkpt lat="42.771612" lon="-0.133125">
        <time>2023-03-20T08:57:13+00:00</time>
        <ele>2823.0</ele>
      </trkpt>
      <trkpt lat="42.771617" lon="-0.133195">
        <time>2023-03-20T08:57:27+00:00</time>
        <ele>2824.0</ele>
      </trkpt>
      <trkpt lat="42.771574" lon="-0.133197">
        <time>2023-03-20T08:57:40+00:00</time>
        <ele>2826.0</ele>
      </trkpt>
      <trkpt lat="42.771529" lon="-0.13316">
        <time>2023-03-20T08:57:53+00:00</time>
        <ele>2827.0</ele>
      </trkpt>
      <trkpt lat="42.771499" lon="-0.133119">
        <time>2023-03-20T08:58:04+00:00</time>
        <ele>2828.0</ele>
      </trkpt>
      <trkpt lat="42.771468" lon="-0.133077">
        <time>2023-03-20T08:58:17+00:00</time>
        <ele>2828.0</ele>
      </trkpt>
      <trkpt lat="42.771436" lon="-0.133041">
        <time>2023-03-20T08:58:27+00:00</time>
        <ele>2829.0</ele>
      </trkpt>
      <trkpt lat="42.771407" lon="-0.133026">
        <time>2023-03-20T08:58:33+00:00</time>
        <ele>2830.0</ele>
      </trkpt>
      <trkpt lat="42.771356" lon="-0.132986">
        <time>2023-03-20T08:58:44+00:00</time>
        <ele>2831.0</ele>
      </trkpt>
      <trkpt lat="42.771317" lon="-0.132987">
        <time>2023-03-20T08:58:56+00:00</time>
        <ele>2832.0</ele>
      </trkpt>
      <trkpt lat="42.771317" lon="-0.133067">
        <time>2023-03-20T08:59:10+00:00</time>
        <ele>2834.0</ele>
      </trkpt>
      <trkpt lat="42.771303" lon="-0.133144">
        <time>2023-03-20T08:59:23+00:00</time>
        <ele>2836.0</ele>
      </trkpt>
      <trkpt lat="42.771279" lon="-0.133225">
        <time>2023-03-20T08:59:36+00:00</time>
        <ele>2839.0</ele>
      </trkpt>
      <trkpt lat="42.771218" lon="-0.133243">
        <time>2023-03-20T08:59:49+00:00</time>
        <ele>2841.0</ele>
      </trkpt>
      <trkpt lat="42.77116" lon="-0.133252">
        <time>2023-03-20T09:00:01+00:00</time>
        <ele>2842.0</ele>
      </trkpt>
      <trkpt lat="42.7711" lon="-0.133282">
        <time>2023-03-20T09:00:16+00:00</time>
        <ele>2842.0</ele>
      </trkpt>
      <trkpt lat="42.771044" lon="-0.133348">
        <time>2023-03-20T09:00:31+00:00</time>
        <ele>2844.0</ele>
      </trkpt>
      <trkpt lat="42.771004" lon="-0.133429">
        <time>2023-03-20T09:00:46+00:00</time>
        <ele>2846.0</ele>
      </trkpt>
      <trkpt lat="42.770998" lon="-0.133487">
        <time>2023-03-20T09:00:56+00:00</time>
        <ele>2847.0</ele>
      </trkpt>
      <trkpt lat="42.771" lon="-0.133494">
        <time>2023-03-20T09:00:58+00:00</time>
        <ele>2847.0</ele>
      </trkpt>
      <trkpt lat="42.771008" lon="-0.133516">
        <time>2023-03-20T09:01:02+00:00</time>
        <ele>2848.0</ele>
      </trkpt>
      <trkpt lat="42.771024" lon="-0.133537">
        <time>2023-03-20T09:01:16+00:00</time>
        <ele>2848.0</ele>
      </trkpt>
      <trkpt lat="42.771028" lon="-0.133552">
        <time>2023-03-20T09:01:22+00:00</time>
        <ele>2848.0</ele>
      </trkpt>
      <trkpt lat="42.771029" lon="-0.133553">
        <time>2023-03-20T09:01:23+00:00</time>
        <ele>2849.0</ele>
      </trkpt>
      <trkpt lat="42.771029" lon="-0.133553">
        <time>2023-03-20T09:01:24+00:00</time>
        <ele>2849.0</ele>
      </trkpt>
      <trkpt lat="42.771031" lon="-0.133553">
        <time>2023-03-20T09:01:25+00:00</time>
        <ele>2849.0</ele>
      </trkpt>
      <trkpt lat="42.771033" lon="-0.133552">
        <time>2023-03-20T09:01:26+00:00</time>
        <ele>2848.0</ele>
      </trkpt>
      <trkpt lat="42.771034" lon="-0.133553">
        <time>2023-03-20T09:01:27+00:00</time>
        <ele>2848.0</ele>
      </trkpt>
      <trkpt lat="42.771036" lon="-0.133555">
        <time>2023-03-20T09:01:28+00:00</time>
        <ele>2849.0</ele>
      </trkpt>
      <trkpt lat="42.771038" lon="-0.133556">
        <time>2023-03-20T09:01:33+00:00</time>
        <ele>2849.0</ele>
      </trkpt>
      <trkpt lat="42.771038" lon="-0.133556">
        <time>2023-03-20T09:01:34+00:00</time>
        <ele>2849.0</ele>
      </trkpt>
      <trkpt lat="42.771058" lon="-0.133563">
        <time>2023-03-20T09:01:52+00:00</time>
        <ele>2849.0</ele>
      </trkpt>
      <trkpt lat="42.771062" lon="-0.133571">
        <time>2023-03-20T09:02:00+00:00</time>
        <ele>2849.0</ele>
      </trkpt>
      <trkpt lat="42.771063" lon="-0.133564">
        <time>2023-03-20T09:02:04+00:00</time>
        <ele>2849.0</ele>
      </trkpt>
      <trkpt lat="42.771059" lon="-0.133563">
        <time>2023-03-20T09:02:06+00:00</time>
        <ele>2849.0</ele>
      </trkpt>
      <trkpt lat="42.771052" lon="-0.133558">
        <time>2023-03-20T09:02:12+00:00</time>
        <ele>2849.0</ele>
      </trkpt>
      <trkpt lat="42.771047" lon="-0.133555">
        <time>2023-03-20T09:02:16+00:00</time>
        <ele>2848.0</ele>
      </trkpt>
      <trkpt lat="42.771048" lon="-0.133555">
        <time>2023-03-20T09:02:17+00:00</time>
        <ele>2848.0</ele>
      </trkpt>
      <trkpt lat="42.771047" lon="-0.133559">
        <time>2023-03-20T09:02:20+00:00</time>
        <ele>2849.0</ele>
      </trkpt>
      <trkpt lat="42.771045" lon="-0.133541">
        <time>2023-03-20T09:02:30+00:00</time>
        <ele>2848.0</ele>
      </trkpt>
      <trkpt lat="42.771045" lon="-0.133539">
        <time>2023-03-20T09:02:44+00:00</time>
        <ele>2848.0</ele>
      </trkpt>
      <trkpt lat="42.771028" lon="-0.133546">
        <time>2023-03-20T09:03:02+00:00</time>
        <ele>2848.0</ele>
      </trkpt>
      <trkpt lat="42.771042" lon="-0.133588">
        <time>2023-03-20T09:03:13+00:00</time>
        <ele>2849.0</ele>
      </trkpt>
      <trkpt lat="42.771088" lon="-0.133674">
        <time>2023-03-20T09:03:28+00:00</time>
        <ele>2851.0</ele>
      </trkpt>
      <trkpt lat="42.771092" lon="-0.133767">
        <time>2023-03-20T09:03:39+00:00</time>
        <ele>2853.0</ele>
      </trkpt>
      <trkpt lat="42.771072" lon="-0.133845">
        <time>2023-03-20T09:03:54+00:00</time>
        <ele>2855.0</ele>
      </trkpt>
      <trkpt lat="42.77103" lon="-0.13392">
        <time>2023-03-20T09:04:06+00:00</time>
        <ele>2857.0</ele>
      </trkpt>
      <trkpt lat="42.771075" lon="-0.134015">
        <time>2023-03-20T09:04:21+00:00</time>
        <ele>2860.0</ele>
      </trkpt>
      <trkpt lat="42.771126" lon="-0.134117">
        <time>2023-03-20T09:04:35+00:00</time>
        <ele>2863.0</ele>
      </trkpt>
      <trkpt lat="42.771163" lon="-0.134224">
        <time>2023-03-20T09:04:54+00:00</time>
        <ele>2866.0</ele>
      </trkpt>
      <trkpt lat="42.771133" lon="-0.134332">
        <time>2023-03-20T09:05:07+00:00</time>
        <ele>2869.0</ele>
      </trkpt>
      <trkpt lat="42.771106" lon="-0.134402">
        <time>2023-03-20T09:05:20+00:00</time>
        <ele>2870.0</ele>
      </trkpt>
      <trkpt lat="42.771069" lon="-0.134506">
        <time>2023-03-20T09:05:35+00:00</time>
        <ele>2873.0</ele>
      </trkpt>
      <trkpt lat="42.771053" lon="-0.134599">
        <time>2023-03-20T09:05:49+00:00</time>
        <ele>2875.0</ele>
      </trkpt>
      <trkpt lat="42.771032" lon="-0.134687">
        <time>2023-03-20T09:06:01+00:00</time>
        <ele>2878.0</ele>
      </trkpt>
      <trkpt lat="42.771028" lon="-0.134711">
        <time>2023-03-20T09:06:04+00:00</time>
        <ele>2878.0</ele>
      </trkpt>
      <trkpt lat="42.771027" lon="-0.134724">
        <time>2023-03-20T09:06:06+00:00</time>
        <ele>2879.0</ele>
      </trkpt>
      <trkpt lat="42.771023" lon="-0.134744">
        <time>2023-03-20T09:06:09+00:00</time>
        <ele>2880.0</ele>
      </trkpt>
      <trkpt lat="42.771024" lon="-0.1348">
        <time>2023-03-20T09:06:20+00:00</time>
        <ele>2882.0</ele>
      </trkpt>
      <trkpt lat="42.771019" lon="-0.134889">
        <time>2023-03-20T09:06:32+00:00</time>
        <ele>2885.0</ele>
      </trkpt>
      <trkpt lat="42.77101" lon="-0.134974">
        <time>2023-03-20T09:06:46+00:00</time>
        <ele>2888.0</ele>
      </trkpt>
      <trkpt lat="42.771005" lon="-0.135057">
        <time>2023-03-20T09:06:59+00:00</time>
        <ele>2891.0</ele>
      </trkpt>
      <trkpt lat="42.771004" lon="-0.135065">
        <time>2023-03-20T09:07:00+00:00</time>
        <ele>2892.0</ele>
      </trkpt>
      <trkpt lat="42.771001" lon="-0.135166">
        <time>2023-03-20T09:07:12+00:00</time>
        <ele>2895.0</ele>
      </trkpt>
      <trkpt lat="42.770999" lon="-0.135219">
        <time>2023-03-20T09:07:23+00:00</time>
        <ele>2897.0</ele>
      </trkpt>
      <trkpt lat="42.770994" lon="-0.135293">
        <time>2023-03-20T09:07:35+00:00</time>
        <ele>2900.0</ele>
      </trkpt>
      <trkpt lat="42.770989" lon="-0.13538">
        <time>2023-03-20T09:07:48+00:00</time>
        <ele>2904.0</ele>
      </trkpt>
      <trkpt lat="42.770988" lon="-0.1354">
        <time>2023-03-20T09:07:51+00:00</time>
        <ele>2905.0</ele>
      </trkpt>
      <trkpt lat="42.770987" lon="-0.135489">
        <time>2023-03-20T09:08:06+00:00</time>
        <ele>2908.0</ele>
      </trkpt>
      <trkpt lat="42.770972" lon="-0.135597">
        <time>2023-03-20T09:08:19+00:00</time>
        <ele>2913.0</ele>
      </trkpt>
      <trkpt lat="42.770951" lon="-0.1357">
        <time>2023-03-20T09:08:38+00:00</time>
        <ele>2918.0</ele>
      </trkpt>
      <trkpt lat="42.77094" lon="-0.135724">
        <time>2023-03-20T09:08:42+00:00</time>
        <ele>2919.0</ele>
      </trkpt>
      <trkpt lat="42.770938" lon="-0.13573">
        <time>2023-03-20T09:08:43+00:00</time>
        <ele>2919.0</ele>
      </trkpt>
      <trkpt lat="42.770908" lon="-0.135797">
        <time>2023-03-20T09:08:55+00:00</time>
        <ele>2923.0</ele>
      </trkpt>
      <trkpt lat="42.770904" lon="-0.135805">
        <time>2023-03-20T09:08:56+00:00</time>
        <ele>2923.0</ele>
      </trkpt>
      <trkpt lat="42.770859" lon="-0.135883">
        <time>2023-03-20T09:09:10+00:00</time>
        <ele>2926.0</ele>
      </trkpt>
      <trkpt lat="42.77085" lon="-0.135891">
        <time>2023-03-20T09:09:12+00:00</time>
        <ele>2926.0</ele>
      </trkpt>
      <trkpt lat="42.770805" lon="-0.135955">
        <time>2023-03-20T09:09:25+00:00</time>
        <ele>2929.0</ele>
      </trkpt>
      <trkpt lat="42.770812" lon="-0.135997">
        <time>2023-03-20T09:09:37+00:00</time>
        <ele>2930.0</ele>
      </trkpt>
      <trkpt lat="42.770851" lon="-0.13606">
        <time>2023-03-20T09:09:49+00:00</time>
        <ele>2932.0</ele>
      </trkpt>
      <trkpt lat="42.770871" lon="-0.136104">
        <time>2023-03-20T09:10:03+00:00</time>
        <ele>2933.0</ele>
      </trkpt>
      <trkpt lat="42.770923" lon="-0.136137">
        <time>2023-03-20T09:10:16+00:00</time>
        <ele>2934.0</ele>
      </trkpt>
      <trkpt lat="42.770979" lon="-0.136192">
        <time>2023-03-20T09:10:31+00:00</time>
        <ele>2935.0</ele>
      </trkpt>
      <trkpt lat="42.770981" lon="-0.136282">
        <time>2023-03-20T09:10:42+00:00</time>
        <ele>2937.0</ele>
      </trkpt>
      <trkpt lat="42.771004" lon="-0.136374">
        <time>2023-03-20T09:10:59+00:00</time>
        <ele>2940.0</ele>
      </trkpt>
      <trkpt lat="42.771059" lon="-0.13647">
        <time>2023-03-20T09:11:12+00:00</time>
        <ele>2942.0</ele>
      </trkpt>
      <trkpt lat="42.771088" lon="-0.136583">
        <time>2023-03-20T09:11:25+00:00</time>
        <ele>2945.0</ele>
      </trkpt>
      <trkpt lat="42.771114" lon="-0.13666">
        <time>2023-03-20T09:11:39+00:00</time>
        <ele>2947.0</ele>
      </trkpt>
      <trkpt lat="42.77115" lon="-0.136766">
        <time>2023-03-20T09:11:55+00:00</time>
        <ele>2950.0</ele>
      </trkpt>
      <trkpt lat="42.77117" lon="-0.136851">
        <time>2023-03-20T09:12:10+00:00</time>
        <ele>2952.0</ele>
      </trkpt>
      <trkpt lat="42.771205" lon="-0.136937">
        <time>2023-03-20T09:12:24+00:00</time>
        <ele>2954.0</ele>
      </trkpt>
      <trkpt lat="42.771244" lon="-0.137027">
        <time>2023-03-20T09:12:40+00:00</time>
        <ele>2957.0</ele>
      </trkpt>
      <trkpt lat="42.771248" lon="-0.137033">
        <time>2023-03-20T09:12:41+00:00</time>
        <ele>2957.0</ele>
      </trkpt>
      <trkpt lat="42.771255" lon="-0.137061">
        <time>2023-03-20T09:12:45+00:00</time>
        <ele>2958.0</ele>
      </trkpt>
      <trkpt lat="42.771257" lon="-0.137079">
        <time>2023-03-20T09:12:47+00:00</time>
        <ele>2958.0</ele>
      </trkpt>
      <trkpt lat="42.771279" lon="-0.137175">
        <time>2023-03-20T09:13:03+00:00</time>
        <ele>2961.0</ele>
      </trkpt>
      <trkpt lat="42.771293" lon="-0.137269">
        <time>2023-03-20T09:13:15+00:00</time>
        <ele>2963.0</ele>
      </trkpt>
      <trkpt lat="42.771305" lon="-0.137317">
        <time>2023-03-20T09:13:25+00:00</time>
        <ele>2965.0</ele>
      </trkpt>
      <trkpt lat="42.771316" lon="-0.137351">
        <time>2023-03-20T09:13:32+00:00</time>
        <ele>2966.0</ele>
      </trkpt>
      <trkpt lat="42.771331" lon="-0.137379">
        <time>2023-03-20T09:13:37+00:00</time>
        <ele>2967.0</ele>
      </trkpt>
      <trkpt lat="42.771336" lon="-0.137395">
        <time>2023-03-20T09:13:40+00:00</time>
        <ele>2967.0</ele>
      </trkpt>
      <trkpt lat="42.771343" lon="-0.13743">
        <time>2023-03-20T09:13:44+00:00</time>
        <ele>2968.0</ele>
      </trkpt>
      <trkpt lat="42.771348" lon="-0.137493">
        <time>2023-03-20T09:14:00+00:00</time>
        <ele>2970.0</ele>
      </trkpt>
      <trkpt lat="42.77136" lon="-0.137578">
        <time>2023-03-20T09:14:19+00:00</time>
        <ele>2972.0</ele>
      </trkpt>
      <trkpt lat="42.771387" lon="-0.137663">
        <time>2023-03-20T09:14:32+00:00</time>
        <ele>2974.0</ele>
      </trkpt>
      <trkpt lat="42.771413" lon="-0.137753">
        <time>2023-03-20T09:14:47+00:00</time>
        <ele>2977.0</ele>
      </trkpt>
      <trkpt lat="42.771441" lon="-0.137796">
        <time>2023-03-20T09:14:56+00:00</time>
        <ele>2978.0</ele>
      </trkpt>
      <trkpt lat="42.771448" lon="-0.13781">
        <time>2023-03-20T09:14:58+00:00</time>
        <ele>2978.0</ele>
      </trkpt>
      <trkpt lat="42.771484" lon="-0.137886">
        <time>2023-03-20T09:15:11+00:00</time>
        <ele>2981.0</ele>
      </trkpt>
      <trkpt lat="42.771517" lon="-0.137947">
        <time>2023-03-20T09:15:23+00:00</time>
        <ele>2982.0</ele>
      </trkpt>
      <trkpt lat="42.771525" lon="-0.137959">
        <time>2023-03-20T09:15:25+00:00</time>
        <ele>2983.0</ele>
      </trkpt>
      <trkpt lat="42.771578" lon="-0.138033">
        <time>2023-03-20T09:15:37+00:00</time>
        <ele>2986.0</ele>
      </trkpt>
      <trkpt lat="42.771551" lon="-0.138131">
        <time>2023-03-20T09:15:52+00:00</time>
        <ele>2990.0</ele>
      </trkpt>
      <trkpt lat="42.771496" lon="-0.138188">
        <time>2023-03-20T09:16:04+00:00</time>
        <ele>2991.0</ele>
      </trkpt>
      <trkpt lat="42.771463" lon="-0.138227">
        <time>2023-03-20T09:16:13+00:00</time>
        <ele>2992.0</ele>
      </trkpt>
      <trkpt lat="42.771413" lon="-0.13828">
        <time>2023-03-20T09:16:27+00:00</time>
        <ele>2994.0</ele>
      </trkpt>
      <trkpt lat="42.771357" lon="-0.138332">
        <time>2023-03-20T09:16:40+00:00</time>
        <ele>2995.0</ele>
      </trkpt>
      <trkpt lat="42.771294" lon="-0.138384">
        <time>2023-03-20T09:16:55+00:00</time>
        <ele>2996.0</ele>
      </trkpt>
      <trkpt lat="42.771248" lon="-0.13842">
        <time>2023-03-20T09:17:09+00:00</time>
        <ele>2997.0</ele>
      </trkpt>
      <trkpt lat="42.771276" lon="-0.138494">
        <time>2023-03-20T09:17:24+00:00</time>
        <ele>3000.0</ele>
      </trkpt>
      <trkpt lat="42.77131" lon="-0.138595">
        <time>2023-03-20T09:17:37+00:00</time>
        <ele>3004.0</ele>
      </trkpt>
      <trkpt lat="42.771343" lon="-0.138687">
        <time>2023-03-20T09:17:55+00:00</time>
        <ele>3007.0</ele>
      </trkpt>
      <trkpt lat="42.771347" lon="-0.138712">
        <time>2023-03-20T09:17:59+00:00</time>
        <ele>3008.0</ele>
      </trkpt>
      <trkpt lat="42.771354" lon="-0.138728">
        <time>2023-03-20T09:18:01+00:00</time>
        <ele>3009.0</ele>
      </trkpt>
      <trkpt lat="42.771364" lon="-0.138744">
        <time>2023-03-20T09:18:03+00:00</time>
        <ele>3009.0</ele>
      </trkpt>
      <trkpt lat="42.771374" lon="-0.138819">
        <time>2023-03-20T09:18:17+00:00</time>
        <ele>3012.0</ele>
      </trkpt>
      <trkpt lat="42.771368" lon="-0.138823">
        <time>2023-03-20T09:18:18+00:00</time>
        <ele>3012.0</ele>
      </trkpt>
      <trkpt lat="42.771327" lon="-0.138864">
        <time>2023-03-20T09:18:28+00:00</time>
        <ele>3012.0</ele>
      </trkpt>
      <trkpt lat="42.771278" lon="-0.138921">
        <time>2023-03-20T09:18:41+00:00</time>
        <ele>3013.0</ele>
      </trkpt>
      <trkpt lat="42.771225" lon="-0.138963">
        <time>2023-03-20T09:18:55+00:00</time>
        <ele>3014.0</ele>
      </trkpt>
      <trkpt lat="42.771216" lon="-0.139028">
        <time>2023-03-20T09:19:06+00:00</time>
        <ele>3016.0</ele>
      </trkpt>
      <trkpt lat="42.771235" lon="-0.139099">
        <time>2023-03-20T09:19:21+00:00</time>
        <ele>3017.0</ele>
      </trkpt>
      <trkpt lat="42.771244" lon="-0.139222">
        <time>2023-03-20T09:19:38+00:00</time>
        <ele>3020.0</ele>
      </trkpt>
      <trkpt lat="42.771249" lon="-0.139296">
        <time>2023-03-20T09:19:52+00:00</time>
        <ele>3022.0</ele>
      </trkpt>
      <trkpt lat="42.771241" lon="-0.139391">
        <time>2023-03-20T09:20:07+00:00</time>
        <ele>3025.0</ele>
      </trkpt>
      <trkpt lat="42.77123" lon="-0.139462">
        <time>2023-03-20T09:20:18+00:00</time>
        <ele>3027.0</ele>
      </trkpt>
      <trkpt lat="42.771221" lon="-0.139526">
        <time>2023-03-20T09:20:30+00:00</time>
        <ele>3028.0</ele>
      </trkpt>
      <trkpt lat="42.771213" lon="-0.139588">
        <time>2023-03-20T09:20:40+00:00</time>
        <ele>3030.0</ele>
      </trkpt>
      <trkpt lat="42.771211" lon="-0.139648">
        <time>2023-03-20T09:20:49+00:00</time>
        <ele>3032.0</ele>
      </trkpt>
      <trkpt lat="42.771212" lon="-0.139689">
        <time>2023-03-20T09:20:55+00:00</time>
        <ele>3033.0</ele>
      </trkpt>
      <trkpt lat="42.771218" lon="-0.139736">
        <time>2023-03-20T09:21:03+00:00</time>
        <ele>3034.0</ele>
      </trkpt>
      <trkpt lat="42.771219" lon="-0.139758">
        <time>2023-03-20T09:21:07+00:00</time>
        <ele>3035.0</ele>
      </trkpt>
      <trkpt lat="42.771232" lon="-0.139845">
        <time>2023-03-20T09:21:19+00:00</time>
        <ele>3037.0</ele>
      </trkpt>
      <trkpt lat="42.771242" lon="-0.139923">
        <time>2023-03-20T09:21:31+00:00</time>
        <ele>3039.0</ele>
      </trkpt>
      <trkpt lat="42.771243" lon="-0.139968">
        <time>2023-03-20T09:21:38+00:00</time>
        <ele>3040.0</ele>
      </trkpt>
      <trkpt lat="42.771244" lon="-0.140059">
        <time>2023-03-20T09:21:51+00:00</time>
        <ele>3041.0</ele>
      </trkpt>
      <trkpt lat="42.771249" lon="-0.140112">
        <time>2023-03-20T09:22:00+00:00</time>
        <ele>3042.0</ele>
      </trkpt>
      <trkpt lat="42.771248" lon="-0.140118">
        <time>2023-03-20T09:22:01+00:00</time>
        <ele>3043.0</ele>
      </trkpt>
      <trkpt lat="42.771265" lon="-0.140274">
        <time>2023-03-20T09:22:22+00:00</time>
        <ele>3047.0</ele>
      </trkpt>
      <trkpt lat="42.771258" lon="-0.140313">
        <time>2023-03-20T09:22:36+00:00</time>
        <ele>3048.0</ele>
      </trkpt>
      <trkpt lat="42.771267" lon="-0.14038">
        <time>2023-03-20T09:22:53+00:00</time>
        <ele>3049.0</ele>
      </trkpt>
      <trkpt lat="42.771285" lon="-0.14049">
        <time>2023-03-20T09:23:11+00:00</time>
        <ele>3052.0</ele>
      </trkpt>
      <trkpt lat="42.77131" lon="-0.140603">
        <time>2023-03-20T09:23:24+00:00</time>
        <ele>3054.0</ele>
      </trkpt>
      <trkpt lat="42.771333" lon="-0.140723">
        <time>2023-03-20T09:23:41+00:00</time>
        <ele>3057.0</ele>
      </trkpt>
      <trkpt lat="42.771362" lon="-0.140816">
        <time>2023-03-20T09:23:55+00:00</time>
        <ele>3058.0</ele>
      </trkpt>
      <trkpt lat="42.771405" lon="-0.140936">
        <time>2023-03-20T09:24:11+00:00</time>
        <ele>3061.0</ele>
      </trkpt>
      <trkpt lat="42.771419" lon="-0.141055">
        <time>2023-03-20T09:24:28+00:00</time>
        <ele>3063.0</ele>
      </trkpt>
      <trkpt lat="42.771447" lon="-0.141165">
        <time>2023-03-20T09:24:43+00:00</time>
        <ele>3066.0</ele>
      </trkpt>
      <trkpt lat="42.771457" lon="-0.141283">
        <time>2023-03-20T09:24:58+00:00</time>
        <ele>3068.0</ele>
      </trkpt>
      <trkpt lat="42.771492" lon="-0.141475">
        <time>2023-03-20T09:25:20+00:00</time>
        <ele>3071.0</ele>
      </trkpt>
      <trkpt lat="42.771509" lon="-0.141552">
        <time>2023-03-20T09:25:34+00:00</time>
        <ele>3072.0</ele>
      </trkpt>
      <trkpt lat="42.771538" lon="-0.141647">
        <time>2023-03-20T09:25:47+00:00</time>
        <ele>3074.0</ele>
      </trkpt>
      <trkpt lat="42.771552" lon="-0.14175">
        <time>2023-03-20T09:26:00+00:00</time>
        <ele>3075.0</ele>
      </trkpt>
      <trkpt lat="42.771584" lon="-0.141863">
        <time>2023-03-20T09:26:14+00:00</time>
        <ele>3077.0</ele>
      </trkpt>
      <trkpt lat="42.771627" lon="-0.141985">
        <time>2023-03-20T09:26:29+00:00</time>
        <ele>3079.0</ele>
      </trkpt>
      <trkpt lat="42.771655" lon="-0.142085">
        <time>2023-03-20T09:26:45+00:00</time>
        <ele>3081.0</ele>
      </trkpt>
      <trkpt lat="42.771688" lon="-0.1422">
        <time>2023-03-20T09:27:01+00:00</time>
        <ele>3083.0</ele>
      </trkpt>
      <trkpt lat="42.771726" lon="-0.142299">
        <time>2023-03-20T09:27:16+00:00</time>
        <ele>3085.0</ele>
      </trkpt>
      <trkpt lat="42.771753" lon="-0.142367">
        <time>2023-03-20T09:27:26+00:00</time>
        <ele>3086.0</ele>
      </trkpt>
      <trkpt lat="42.771755" lon="-0.142381">
        <time>2023-03-20T09:27:27+00:00</time>
        <ele>3087.0</ele>
      </trkpt>
      <trkpt lat="42.7718" lon="-0.142523">
        <time>2023-03-20T09:27:47+00:00</time>
        <ele>3089.0</ele>
      </trkpt>
      <trkpt lat="42.771803" lon="-0.14253">
        <time>2023-03-20T09:27:48+00:00</time>
        <ele>3090.0</ele>
      </trkpt>
      <trkpt lat="42.771828" lon="-0.142652">
        <time>2023-03-20T09:28:03+00:00</time>
        <ele>3092.0</ele>
      </trkpt>
      <trkpt lat="42.771861" lon="-0.142814">
        <time>2023-03-20T09:28:21+00:00</time>
        <ele>3095.0</ele>
      </trkpt>
      <trkpt lat="42.771883" lon="-0.142919">
        <time>2023-03-20T09:28:35+00:00</time>
        <ele>3097.0</ele>
      </trkpt>
      <trkpt lat="42.771909" lon="-0.143039">
        <time>2023-03-20T09:28:54+00:00</time>
        <ele>3099.0</ele>
      </trkpt>
      <trkpt lat="42.771933" lon="-0.143142">
        <time>2023-03-20T09:29:09+00:00</time>
        <ele>3101.0</ele>
      </trkpt>
      <trkpt lat="42.771954" lon="-0.143241">
        <time>2023-03-20T09:29:21+00:00</time>
        <ele>3103.0</ele>
      </trkpt>
      <trkpt lat="42.771976" lon="-0.143342">
        <time>2023-03-20T09:29:37+00:00</time>
        <ele>3105.0</ele>
      </trkpt>
      <trkpt lat="42.771997" lon="-0.14344">
        <time>2023-03-20T09:29:50+00:00</time>
        <ele>3107.0</ele>
      </trkpt>
      <trkpt lat="42.772017" lon="-0.143528">
        <time>2023-03-20T09:30:03+00:00</time>
        <ele>3108.0</ele>
      </trkpt>
      <trkpt lat="42.772039" lon="-0.143639">
        <time>2023-03-20T09:30:17+00:00</time>
        <ele>3110.0</ele>
      </trkpt>
      <trkpt lat="42.77205" lon="-0.143734">
        <time>2023-03-20T09:30:30+00:00</time>
        <ele>3111.0</ele>
      </trkpt>
      <trkpt lat="42.772068" lon="-0.143819">
        <time>2023-03-20T09:30:43+00:00</time>
        <ele>3113.0</ele>
      </trkpt>
      <trkpt lat="42.772105" lon="-0.143917">
        <time>2023-03-20T09:30:59+00:00</time>
        <ele>3115.0</ele>
      </trkpt>
      <trkpt lat="42.772128" lon="-0.144025">
        <time>2023-03-20T09:31:12+00:00</time>
        <ele>3116.0</ele>
      </trkpt>
      <trkpt lat="42.772149" lon="-0.14412">
        <time>2023-03-20T09:31:27+00:00</time>
        <ele>3118.0</ele>
      </trkpt>
      <trkpt lat="42.772179" lon="-0.144212">
        <time>2023-03-20T09:31:42+00:00</time>
        <ele>3120.0</ele>
      </trkpt>
      <trkpt lat="42.772186" lon="-0.144315">
        <time>2023-03-20T09:31:58+00:00</time>
        <ele>3121.0</ele>
      </trkpt>
      <trkpt lat="42.772206" lon="-0.14442">
        <time>2023-03-20T09:32:13+00:00</time>
        <ele>3123.0</ele>
      </trkpt>
      <trkpt lat="42.77223" lon="-0.144535">
        <time>2023-03-20T09:32:29+00:00</time>
        <ele>3124.0</ele>
      </trkpt>
      <trkpt lat="42.772251" lon="-0.14461">
        <time>2023-03-20T09:32:42+00:00</time>
        <ele>3125.0</ele>
      </trkpt>
      <trkpt lat="42.772267" lon="-0.144702">
        <time>2023-03-20T09:32:56+00:00</time>
        <ele>3126.0</ele>
      </trkpt>
      <trkpt lat="42.772276" lon="-0.144784">
        <time>2023-03-20T09:33:09+00:00</time>
        <ele>3127.0</ele>
      </trkpt>
      <trkpt lat="42.772297" lon="-0.144866">
        <time>2023-03-20T09:33:22+00:00</time>
        <ele>3128.0</ele>
      </trkpt>
      <trkpt lat="42.772313" lon="-0.144965">
        <time>2023-03-20T09:33:35+00:00</time>
        <ele>3129.0</ele>
      </trkpt>
      <trkpt lat="42.772315" lon="-0.145058">
        <time>2023-03-20T09:33:47+00:00</time>
        <ele>3130.0</ele>
      </trkpt>
      <trkpt lat="42.772343" lon="-0.145167">
        <time>2023-03-20T09:34:04+00:00</time>
        <ele>3131.0</ele>
      </trkpt>
      <trkpt lat="42.772362" lon="-0.145269">
        <time>2023-03-20T09:34:19+00:00</time>
        <ele>3132.0</ele>
      </trkpt>
      <trkpt lat="42.772381" lon="-0.145355">
        <time>2023-03-20T09:34:34+00:00</time>
        <ele>3133.0</ele>
      </trkpt>
      <trkpt lat="42.772399" lon="-0.145439">
        <time>2023-03-20T09:34:48+00:00</time>
        <ele>3134.0</ele>
      </trkpt>
      <trkpt lat="42.772423" lon="-0.145527">
        <time>2023-03-20T09:35:03+00:00</time>
        <ele>3135.0</ele>
      </trkpt>
      <trkpt lat="42.772436" lon="-0.145602">
        <time>2023-03-20T09:35:16+00:00</time>
        <ele>3136.0</ele>
      </trkpt>
      <trkpt lat="42.772453" lon="-0.145689">
        <time>2023-03-20T09:35:30+00:00</time>
        <ele>3136.0</ele>
      </trkpt>
      <trkpt lat="42.772471" lon="-0.145782">
        <time>2023-03-20T09:35:44+00:00</time>
        <ele>3137.0</ele>
      </trkpt>
      <trkpt lat="42.772496" lon="-0.145863">
        <time>2023-03-20T09:35:58+00:00</time>
        <ele>3138.0</ele>
      </trkpt>
      <trkpt lat="42.772518" lon="-0.145959">
        <time>2023-03-20T09:36:12+00:00</time>
        <ele>3138.0</ele>
      </trkpt>
      <trkpt lat="42.772536" lon="-0.146054">
        <time>2023-03-20T09:36:27+00:00</time>
        <ele>3139.0</ele>
      </trkpt>
      <trkpt lat="42.772555" lon="-0.146132">
        <time>2023-03-20T09:36:42+00:00</time>
        <ele>3140.0</ele>
      </trkpt>
      <trkpt lat="42.772587" lon="-0.146185">
        <time>2023-03-20T09:36:55+00:00</time>
        <ele>3141.0</ele>
      </trkpt>
      <trkpt lat="42.772599" lon="-0.146198">
        <time>2023-03-20T09:37:13+00:00</time>
        <ele>3141.0</ele>
      </trkpt>
      <trkpt lat="42.7726" lon="-0.146161">
        <time>2023-03-20T09:37:35+00:00</time>
        <ele>3140.0</ele>
      </trkpt>
      <trkpt lat="42.772628" lon="-0.146128">
        <time>2023-03-20T09:37:39+00:00</time>
        <ele>3139.0</ele>
      </trkpt>
      <trkpt lat="42.772728" lon="-0.146106">
        <time>2023-03-20T09:37:48+00:00</time>
        <ele>3137.0</ele>
      </trkpt>
      <trkpt lat="42.772832" lon="-0.14611">
        <time>2023-03-20T09:38:04+00:00</time>
        <ele>3135.0</ele>
      </trkpt>
      <trkpt lat="42.772834" lon="-0.146112">
        <time>2023-03-20T09:38:12+00:00</time>
        <ele>3135.0</ele>
      </trkpt>
      <trkpt lat="42.772823" lon="-0.14614">
        <time>2023-03-20T09:38:35+00:00</time>
        <ele>3136.0</ele>
      </trkpt>
      <trkpt lat="42.772781" lon="-0.146223">
        <time>2023-03-20T09:38:47+00:00</time>
        <ele>3139.0</ele>
      </trkpt>
      <trkpt lat="42.772776" lon="-0.146231">
        <time>2023-03-20T09:38:48+00:00</time>
        <ele>3139.0</ele>
      </trkpt>
      <trkpt lat="42.772742" lon="-0.146276">
        <time>2023-03-20T09:38:53+00:00</time>
        <ele>3140.0</ele>
      </trkpt>
      <trkpt lat="42.772673" lon="-0.1464">
        <time>2023-03-20T09:39:07+00:00</time>
        <ele>3145.0</ele>
      </trkpt>
      <trkpt lat="42.772613" lon="-0.146515">
        <time>2023-03-20T09:39:21+00:00</time>
        <ele>3147.0</ele>
      </trkpt>
      <trkpt lat="42.772608" lon="-0.146609">
        <time>2023-03-20T09:39:35+00:00</time>
        <ele>3150.0</ele>
      </trkpt>
      <trkpt lat="42.772577" lon="-0.146714">
        <time>2023-03-20T09:39:52+00:00</time>
        <ele>3152.0</ele>
      </trkpt>
      <trkpt lat="42.772552" lon="-0.146819">
        <time>2023-03-20T09:40:05+00:00</time>
        <ele>3154.0</ele>
      </trkpt>
      <trkpt lat="42.772529" lon="-0.146952">
        <time>2023-03-20T09:40:22+00:00</time>
        <ele>3156.0</ele>
      </trkpt>
      <trkpt lat="42.772514" lon="-0.147022">
        <time>2023-03-20T09:40:34+00:00</time>
        <ele>3158.0</ele>
      </trkpt>
      <trkpt lat="42.772517" lon="-0.147111">
        <time>2023-03-20T09:40:47+00:00</time>
        <ele>3160.0</ele>
      </trkpt>
      <trkpt lat="42.772519" lon="-0.147204">
        <time>2023-03-20T09:41:02+00:00</time>
        <ele>3161.0</ele>
      </trkpt>
      <trkpt lat="42.772513" lon="-0.14728">
        <time>2023-03-20T09:41:15+00:00</time>
        <ele>3163.0</ele>
      </trkpt>
      <trkpt lat="42.772524" lon="-0.147338">
        <time>2023-03-20T09:41:32+00:00</time>
        <ele>3164.0</ele>
      </trkpt>
      <trkpt lat="42.772515" lon="-0.147336">
        <time>2023-03-20T09:41:58+00:00</time>
        <ele>3164.0</ele>
      </trkpt>
      <trkpt lat="42.77255" lon="-0.147427">
        <time>2023-03-20T09:42:11+00:00</time>
        <ele>3166.0</ele>
      </trkpt>
      <trkpt lat="42.772543" lon="-0.147497">
        <time>2023-03-20T09:42:25+00:00</time>
        <ele>3167.0</ele>
      </trkpt>
      <trkpt lat="42.772567" lon="-0.147574">
        <time>2023-03-20T09:42:38+00:00</time>
        <ele>3169.0</ele>
      </trkpt>
      <trkpt lat="42.772589" lon="-0.14766">
        <time>2023-03-20T09:42:52+00:00</time>
        <ele>3172.0</ele>
      </trkpt>
      <trkpt lat="42.772597" lon="-0.147618">
        <time>2023-03-20T09:43:04+00:00</time>
        <ele>3171.0</ele>
      </trkpt>
      <trkpt lat="42.772621" lon="-0.147626">
        <time>2023-03-20T09:43:17+00:00</time>
        <ele>3172.0</ele>
      </trkpt>
      <trkpt lat="42.772659" lon="-0.147732">
        <time>2023-03-20T09:43:32+00:00</time>
        <ele>3176.0</ele>
      </trkpt>
      <trkpt lat="42.772655" lon="-0.147766">
        <time>2023-03-20T09:43:44+00:00</time>
        <ele>3176.0</ele>
      </trkpt>
      <trkpt lat="42.772637" lon="-0.147784">
        <time>2023-03-20T09:44:01+00:00</time>
        <ele>3176.0</ele>
      </trkpt>
      <trkpt lat="42.772632" lon="-0.147785">
        <time>2023-03-20T09:44:11+00:00</time>
        <ele>3176.0</ele>
      </trkpt>
      <trkpt lat="42.772615" lon="-0.147785">
        <time>2023-03-20T09:44:28+00:00</time>
        <ele>3175.0</ele>
      </trkpt>
      <trkpt lat="42.772621" lon="-0.147768">
        <time>2023-03-20T09:44:37+00:00</time>
        <ele>3175.0</ele>
      </trkpt>
      <trkpt lat="42.772637" lon="-0.147779">
        <time>2023-03-20T09:44:51+00:00</time>
        <ele>3176.0</ele>
      </trkpt>
      <trkpt lat="42.772633" lon="-0.147773">
        <time>2023-03-20T09:45:09+00:00</time>
        <ele>3176.0</ele>
      </trkpt>
      <trkpt lat="42.772634" lon="-0.147776">
        <time>2023-03-20T09:45:24+00:00</time>
        <ele>3176.0</ele>
      </trkpt>
      <trkpt lat="42.772634" lon="-0.14778">
        <time>2023-03-20T09:45:27+00:00</time>
        <ele>3176.0</ele>
      </trkpt>
      <trkpt lat="42.772634" lon="-0.147783">
        <time>2023-03-20T09:45:28+00:00</time>
        <ele>3176.0</ele>
      </trkpt>
      <trkpt lat="42.772634" lon="-0.147784">
        <time>2023-03-20T09:45:29+00:00</time>
        <ele>3176.0</ele>
      </trkpt>
      <trkpt lat="42.772636" lon="-0.147782">
        <time>2023-03-20T09:45:30+00:00</time>
        <ele>3176.0</ele>
      </trkpt>
      <trkpt lat="42.772635" lon="-0.147779">
        <time>2023-03-20T09:45:31+00:00</time>
        <ele>3176.0</ele>
      </trkpt>
      <trkpt lat="42.772633" lon="-0.147774">
        <time>2023-03-20T09:45:38+00:00</time>
        <ele>3176.0</ele>
      </trkpt>
      <trkpt lat="42.772632" lon="-0.147775">
        <time>2023-03-20T09:45:39+00:00</time>
        <ele>3176.0</ele>
      </trkpt>
      <trkpt lat="42.772631" lon="-0.147774">
        <time>2023-03-20T09:45:40+00:00</time>
        <ele>3175.0</ele>
      </trkpt>
      <trkpt lat="42.772634" lon="-0.147778">
        <time>2023-03-20T09:45:44+00:00</time>
        <ele>3176.0</ele>
      </trkpt>
      <trkpt lat="42.772633" lon="-0.147783">
        <time>2023-03-20T09:45:46+00:00</time>
        <ele>3176.0</ele>
      </trkpt>
      <trkpt lat="42.772633" lon="-0.147783">
        <time>2023-03-20T09:45:47+00:00</time>
        <ele>3176.0</ele>
      </trkpt>
      <trkpt lat="42.772634" lon="-0.147792">
        <time>2023-03-20T09:45:51+00:00</time>
        <ele>3176.0</ele>
      </trkpt>
      <trkpt lat="42.772647" lon="-0.14778">
        <time>2023-03-20T09:46:00+00:00</time>
        <ele>3176.0</ele>
      </trkpt>
      <trkpt lat="42.77265" lon="-0.147779">
        <time>2023-03-20T09:46:02+00:00</time>
        <ele>3176.0</ele>
      </trkpt>
      <trkpt lat="42.772644" lon="-0.147769">
        <time>2023-03-20T09:46:11+00:00</time>
        <ele>3176.0</ele>
      </trkpt>
      <trkpt lat="42.772652" lon="-0.147757">
        <time>2023-03-20T09:46:17+00:00</time>
        <ele>3176.0</ele>
      </trkpt>
      <trkpt lat="42.77266" lon="-0.147757">
        <time>2023-03-20T09:46:20+00:00</time>
        <ele>3176.0</ele>
      </trkpt>
      <trkpt lat="42.772663" lon="-0.147755">
        <time>2023-03-20T09:46:21+00:00</time>
        <ele>3177.0</ele>
      </trkpt>
      <trkpt lat="42.772662" lon="-0.147778">
        <time>2023-03-20T09:46:47+00:00</time>
        <ele>3177.0</ele>
      </trkpt>
      <trkpt lat="42.772665" lon="-0.147779">
        <time>2023-03-20T09:46:48+00:00</time>
        <ele>3177.0</ele>
      </trkpt>
      <trkpt lat="42.772667" lon="-0.147778">
        <time>2023-03-20T09:46:49+00:00</time>
        <ele>3177.0</ele>
      </trkpt>
      <trkpt lat="42.772667" lon="-0.147783">
        <time>2023-03-20T09:46:53+00:00</time>
        <ele>3177.0</ele>
      </trkpt>
      <trkpt lat="42.772671" lon="-0.147784">
        <time>2023-03-20T09:46:54+00:00</time>
        <ele>3177.0</ele>
      </trkpt>
      <trkpt lat="42.772673" lon="-0.147786">
        <time>2023-03-20T09:46:55+00:00</time>
        <ele>3178.0</ele>
      </trkpt>
      <trkpt lat="42.772662" lon="-0.147788">
        <time>2023-03-20T09:47:06+00:00</time>
        <ele>3177.0</ele>
      </trkpt>
      <trkpt lat="42.77269" lon="-0.147784">
        <time>2023-03-20T09:47:12+00:00</time>
        <ele>3178.0</ele>
      </trkpt>
      <trkpt lat="42.772694" lon="-0.147783">
        <time>2023-03-20T09:47:13+00:00</time>
        <ele>3179.0</ele>
      </trkpt>
      <trkpt lat="42.772695" lon="-0.147784">
        <time>2023-03-20T09:47:14+00:00</time>
        <ele>3179.0</ele>
      </trkpt>
      <trkpt lat="42.772696" lon="-0.147788">
        <time>2023-03-20T09:47:15+00:00</time>
        <ele>3179.0</ele>
      </trkpt>
      <trkpt lat="42.772688" lon="-0.14779">
        <time>2023-03-20T09:47:20+00:00</time>
        <ele>3178.0</ele>
      </trkpt>
      <trkpt lat="42.772691" lon="-0.147785">
        <time>2023-03-20T09:47:23+00:00</time>
        <ele>3178.0</ele>
      </trkpt>
      <trkpt lat="42.772692" lon="-0.147782">
        <time>2023-03-20T09:47:24+00:00</time>
        <ele>3178.0</ele>
      </trkpt>
      <trkpt lat="42.772693" lon="-0.147779">
        <time>2023-03-20T09:47:26+00:00</time>
        <ele>3178.0</ele>
      </trkpt>
      <trkpt lat="42.772701" lon="-0.147784">
        <time>2023-03-20T09:47:33+00:00</time>
        <ele>3179.0</ele>
      </trkpt>
      <trkpt lat="42.772702" lon="-0.147785">
        <time>2023-03-20T09:47:34+00:00</time>
        <ele>3179.0</ele>
      </trkpt>
      <trkpt lat="42.772697" lon="-0.147796">
        <time>2023-03-20T09:47:37+00:00</time>
        <ele>3179.0</ele>
      </trkpt>
      <trkpt lat="42.772696" lon="-0.147804">
        <time>2023-03-20T09:47:41+00:00</time>
        <ele>3179.0</ele>
      </trkpt>
      <trkpt lat="42.772698" lon="-0.147804">
        <time>2023-03-20T09:47:43+00:00</time>
        <ele>3179.0</ele>
      </trkpt>
      <trkpt lat="42.772698" lon="-0.147806">
        <time>2023-03-20T09:47:44+00:00</time>
        <ele>3179.0</ele>
      </trkpt>
      <trkpt lat="42.772698" lon="-0.147807">
        <time>2023-03-20T09:47:45+00:00</time>
        <ele>3179.0</ele>
      </trkpt>
      <trkpt lat="42.772699" lon="-0.147808">
        <time>2023-03-20T09:47:47+00:00</time>
        <ele>3179.0</ele>
      </trkpt>
      <trkpt lat="42.772699" lon="-0.147808">
        <time>2023-03-20T09:47:48+00:00</time>
        <ele>3179.0</ele>
      </trkpt>
      <trkpt lat="42.772699" lon="-0.147808">
        <time>2023-03-20T09:47:49+00:00</time>
        <ele>3179.0</ele>
      </trkpt>
      <trkpt lat="42.772687" lon="-0.147802">
        <time>2023-03-20T09:47:57+00:00</time>
        <ele>3179.0</ele>
      </trkpt>
      <trkpt lat="42.772686" lon="-0.147804">
        <time>2023-03-20T09:47:58+00:00</time>
        <ele>3179.0</ele>
      </trkpt>
      <trkpt lat="42.772684" lon="-0.147809">
        <time>2023-03-20T09:47:59+00:00</time>
        <ele>3179.0</ele>
      </trkpt>
      <trkpt lat="42.772683" lon="-0.14781">
        <time>2023-03-20T09:48:00+00:00</time>
        <ele>3179.0</ele>
      </trkpt>
      <trkpt lat="42.772682" lon="-0.147811">
        <time>2023-03-20T09:48:01+00:00</time>
        <ele>3179.0</ele>
      </trkpt>
      <trkpt lat="42.772679" lon="-0.147814">
        <time>2023-03-20T09:48:02+00:00</time>
        <ele>3179.0</ele>
      </trkpt>
      <trkpt lat="42.772677" lon="-0.147819">
        <time>2023-03-20T09:48:09+00:00</time>
        <ele>3179.0</ele>
      </trkpt>
      <trkpt lat="42.772676" lon="-0.147816">
        <time>2023-03-20T09:48:10+00:00</time>
        <ele>3178.0</ele>
      </trkpt>
      <trkpt lat="42.772674" lon="-0.147815">
        <time>2023-03-20T09:48:11+00:00</time>
        <ele>3178.0</ele>
      </trkpt>
      <trkpt lat="42.772658" lon="-0.147798">
        <time>2023-03-20T09:48:19+00:00</time>
        <ele>3177.0</ele>
      </trkpt>
      <trkpt lat="42.772657" lon="-0.147798">
        <time>2023-03-20T09:48:20+00:00</time>
        <ele>3177.0</ele>
      </trkpt>
      <trkpt lat="42.772657" lon="-0.147795">
        <time>2023-03-20T09:48:21+00:00</time>
        <ele>3177.0</ele>
      </trkpt>
      <trkpt lat="42.772659" lon="-0.147793">
        <time>2023-03-20T09:48:22+00:00</time>
        <ele>3177.0</ele>
      </trkpt>
      <trkpt lat="42.772647" lon="-0.147789">
        <time>2023-03-20T09:48:24+00:00</time>
        <ele>3177.0</ele>
      </trkpt>
      <trkpt lat="42.772636" lon="-0.147788">
        <time>2023-03-20T09:48:34+00:00</time>
        <ele>3176.0</ele>
      </trkpt>
      <trkpt lat="42.772633" lon="-0.147786">
        <time>2023-03-20T09:48:35+00:00</time>
        <ele>3176.0</ele>
      </trkpt>
      <trkpt lat="42.772631" lon="-0.147787">
        <time>2023-03-20T09:48:36+00:00</time>
        <ele>3176.0</ele>
      </trkpt>
      <trkpt lat="42.772635" lon="-0.147779">
        <time>2023-03-20T09:48:57+00:00</time>
        <ele>3176.0</ele>
      </trkpt>
      <trkpt lat="42.772597" lon="-0.147786">
        <time>2023-03-20T09:49:30+00:00</time>
        <ele>3174.0</ele>
      </trkpt>
      <trkpt lat="42.772599" lon="-0.147773">
        <time>2023-03-20T09:49:41+00:00</time>
        <ele>3174.0</ele>
      </trkpt>
      <trkpt lat="42.772597" lon="-0.147771">
        <time>2023-03-20T09:49:42+00:00</time>
        <ele>3174.0</ele>
      </trkpt>
      <trkpt lat="42.772606" lon="-0.147781">
        <time>2023-03-20T09:50:08+00:00</time>
        <ele>3174.0</ele>
      </trkpt>
      <trkpt lat="42.772603" lon="-0.147796">
        <time>2023-03-20T09:50:24+00:00</time>
        <ele>3175.0</ele>
      </trkpt>
      <trkpt lat="42.772614" lon="-0.147804">
        <time>2023-03-20T09:50:51+00:00</time>
        <ele>3175.0</ele>
      </trkpt>
      <trkpt lat="42.772623" lon="-0.147788">
        <time>2023-03-20T09:51:29+00:00</time>
        <ele>3175.0</ele>
      </trkpt>
      <trkpt lat="42.772643" lon="-0.147786">
        <time>2023-03-20T09:52:02+00:00</time>
        <ele>3176.0</ele>
      </trkpt>
      <trkpt lat="42.772645" lon="-0.147786">
        <time>2023-03-20T09:52:04+00:00</time>
        <ele>3176.0</ele>
      </trkpt>
      <trkpt lat="42.772629" lon="-0.147819">
        <time>2023-03-20T09:52:12+00:00</time>
        <ele>3176.0</ele>
      </trkpt>
      <trkpt lat="42.772633" lon="-0.147818">
        <time>2023-03-20T09:52:14+00:00</time>
        <ele>3176.0</ele>
      </trkpt>
      <trkpt lat="42.772629" lon="-0.147812">
        <time>2023-03-20T09:52:16+00:00</time>
        <ele>3176.0</ele>
      </trkpt>
      <trkpt lat="42.772618" lon="-0.147803">
        <time>2023-03-20T09:52:37+00:00</time>
        <ele>3175.0</ele>
      </trkpt>
      <trkpt lat="42.772621" lon="-0.147802">
        <time>2023-03-20T09:52:40+00:00</time>
        <ele>3176.0</ele>
      </trkpt>
      <trkpt lat="42.772618" lon="-0.147803">
        <time>2023-03-20T09:52:45+00:00</time>
        <ele>3175.0</ele>
      </trkpt>
      <trkpt lat="42.772612" lon="-0.147801">
        <time>2023-03-20T09:52:53+00:00</time>
        <ele>3175.0</ele>
      </trkpt>
      <trkpt lat="42.772619" lon="-0.147784">
        <time>2023-03-20T09:52:59+00:00</time>
        <ele>3175.0</ele>
      </trkpt>
      <trkpt lat="42.772621" lon="-0.147792">
        <time>2023-03-20T09:53:29+00:00</time>
        <ele>3175.0</ele>
      </trkpt>
      <trkpt lat="42.772615" lon="-0.147795">
        <time>2023-03-20T09:53:33+00:00</time>
        <ele>3175.0</ele>
      </trkpt>
      <trkpt lat="42.772614" lon="-0.1478">
        <time>2023-03-20T09:53:43+00:00</time>
        <ele>3175.0</ele>
      </trkpt>
      <trkpt lat="42.772614" lon="-0.147799">
        <time>2023-03-20T09:53:44+00:00</time>
        <ele>3175.0</ele>
      </trkpt>
      <trkpt lat="42.772614" lon="-0.147799">
        <time>2023-03-20T09:53:45+00:00</time>
        <ele>3175.0</ele>
      </trkpt>
      <trkpt lat="42.772614" lon="-0.147799">
        <time>2023-03-20T09:53:46+00:00</time>
        <ele>3175.0</ele>
      </trkpt>
      <trkpt lat="42.772613" lon="-0.147798">
        <time>2023-03-20T09:53:47+00:00</time>
        <ele>3175.0</ele>
      </trkpt>
      <trkpt lat="42.772609" lon="-0.147795">
        <time>2023-03-20T09:53:48+00:00</time>
        <ele>3175.0</ele>
      </trkpt>
      <trkpt lat="42.772604" lon="-0.147804">
        <time>2023-03-20T09:53:49+00:00</time>
        <ele>3175.0</ele>
      </trkpt>
      <trkpt lat="42.7726" lon="-0.147806">
        <time>2023-03-20T09:53:52+00:00</time>
        <ele>3175.0</ele>
      </trkpt>
      <trkpt lat="42.772603" lon="-0.147807">
        <time>2023-03-20T09:53:54+00:00</time>
        <ele>3175.0</ele>
      </trkpt>
      <trkpt lat="42.772615" lon="-0.147806">
        <time>2023-03-20T09:53:58+00:00</time>
        <ele>3175.0</ele>
      </trkpt>
      <trkpt lat="42.772617" lon="-0.147792">
        <time>2023-03-20T09:54:32+00:00</time>
        <ele>3175.0</ele>
      </trkpt>
      <trkpt lat="42.772621" lon="-0.147787">
        <time>2023-03-20T09:54:34+00:00</time>
        <ele>3175.0</ele>
      </trkpt>
      <trkpt lat="42.772622" lon="-0.147787">
        <time>2023-03-20T09:54:35+00:00</time>
        <ele>3175.0</ele>
      </trkpt>
      <trkpt lat="42.77263" lon="-0.147787">
        <time>2023-03-20T09:54:41+00:00</time>
        <ele>3176.0</ele>
      </trkpt>
      <trkpt lat="42.772632" lon="-0.14779">
        <time>2023-03-20T09:54:43+00:00</time>
        <ele>3176.0</ele>
      </trkpt>
      <trkpt lat="42.772634" lon="-0.147792">
        <time>2023-03-20T09:54:44+00:00</time>
        <ele>3176.0</ele>
      </trkpt>
      <trkpt lat="42.772635" lon="-0.147793">
        <time>2023-03-20T09:54:45+00:00</time>
        <ele>3176.0</ele>
      </trkpt>
      <trkpt lat="42.772631" lon="-0.147794">
        <time>2023-03-20T09:54:46+00:00</time>
        <ele>3176.0</ele>
      </trkpt>
      <trkpt lat="42.772638" lon="-0.147806">
        <time>2023-03-20T09:54:50+00:00</time>
        <ele>3176.0</ele>
      </trkpt>
      <trkpt lat="42.772637" lon="-0.147805">
        <time>2023-03-20T09:54:51+00:00</time>
        <ele>3176.0</ele>
      </trkpt>
      <trkpt lat="42.772639" lon="-0.147805">
        <time>2023-03-20T09:54:52+00:00</time>
        <ele>3176.0</ele>
      </trkpt>
      <trkpt lat="42.772641" lon="-0.147804">
        <time>2023-03-20T09:54:53+00:00</time>
        <ele>3177.0</ele>
      </trkpt>
      <trkpt lat="42.772655" lon="-0.147797">
        <time>2023-03-20T09:55:00+00:00</time>
        <ele>3177.0</ele>
      </trkpt>
      <trkpt lat="42.772655" lon="-0.147793">
        <time>2023-03-20T09:55:03+00:00</time>
        <ele>3177.0</ele>
      </trkpt>
      <trkpt lat="42.772644" lon="-0.147777">
        <time>2023-03-20T09:55:21+00:00</time>
        <ele>3176.0</ele>
      </trkpt>
      <trkpt lat="42.772632" lon="-0.1478">
        <time>2023-03-20T09:55:37+00:00</time>
        <ele>3176.0</ele>
      </trkpt>
      <trkpt lat="42.772625" lon="-0.147796">
        <time>2023-03-20T09:55:52+00:00</time>
        <ele>3176.0</ele>
      </trkpt>
      <trkpt lat="42.772665" lon="-0.147799">
        <time>2023-03-20T09:56:05+00:00</time>
        <ele>3178.0</ele>
      </trkpt>
      <trkpt lat="42.772712" lon="-0.147791">
        <time>2023-03-20T09:56:19+00:00</time>
        <ele>3180.0</ele>
      </trkpt>
      <trkpt lat="42.772727" lon="-0.147791">
        <time>2023-03-20T09:56:30+00:00</time>
        <ele>3180.0</ele>
      </trkpt>
      <trkpt lat="42.772754" lon="-0.147826">
        <time>2023-03-20T09:56:42+00:00</time>
        <ele>3182.0</ele>
      </trkpt>
      <trkpt lat="42.772766" lon="-0.147841">
        <time>2023-03-20T09:56:55+00:00</time>
        <ele>3183.0</ele>
      </trkpt>
      <trkpt lat="42.772794" lon="-0.147819">
        <time>2023-03-20T09:57:06+00:00</time>
        <ele>3184.0</ele>
      </trkpt>
      <trkpt lat="42.77281" lon="-0.147829">
        <time>2023-03-20T09:57:16+00:00</time>
        <ele>3186.0</ele>
      </trkpt>
      <trkpt lat="42.772834" lon="-0.147848">
        <time>2023-03-20T09:57:28+00:00</time>
        <ele>3189.0</ele>
      </trkpt>
      <trkpt lat="42.772861" lon="-0.14786">
        <time>2023-03-20T09:57:40+00:00</time>
        <ele>3191.0</ele>
      </trkpt>
      <trkpt lat="42.772869" lon="-0.147859">
        <time>2023-03-20T09:57:53+00:00</time>
        <ele>3192.0</ele>
      </trkpt>
      <trkpt lat="42.772888" lon="-0.147855">
        <time>2023-03-20T09:58:05+00:00</time>
        <ele>3194.0</ele>
      </trkpt>
      <trkpt lat="42.772891" lon="-0.147859">
        <time>2023-03-20T09:58:18+00:00</time>
        <ele>3194.0</ele>
      </trkpt>
      <trkpt lat="42.77291" lon="-0.147863">
        <time>2023-03-20T09:58:29+00:00</time>
        <ele>3196.0</ele>
      </trkpt>
      <trkpt lat="42.772919" lon="-0.147855">
        <time>2023-03-20T09:58:40+00:00</time>
        <ele>3196.0</ele>
      </trkpt>
      <trkpt lat="42.772937" lon="-0.147858">
        <time>2023-03-20T09:58:53+00:00</time>
        <ele>3198.0</ele>
      </trkpt>
      <trkpt lat="42.772954" lon="-0.147869">
        <time>2023-03-20T09:59:05+00:00</time>
        <ele>3200.0</ele>
      </trkpt>
      <trkpt lat="42.772973" lon="-0.147859">
        <time>2023-03-20T09:59:15+00:00</time>
        <ele>3201.0</ele>
      </trkpt>
      <trkpt lat="42.772964" lon="-0.147858">
        <time>2023-03-20T09:59:29+00:00</time>
        <ele>3201.0</ele>
      </trkpt>
      <trkpt lat="42.772969" lon="-0.147871">
        <time>2023-03-20T10:00:01+00:00</time>
        <ele>3201.0</ele>
      </trkpt>
      <trkpt lat="42.772998" lon="-0.147848">
        <time>2023-03-20T10:00:13+00:00</time>
        <ele>3203.0</ele>
      </trkpt>
      <trkpt lat="42.773016" lon="-0.14782">
        <time>2023-03-20T10:00:26+00:00</time>
        <ele>3204.0</ele>
      </trkpt>
      <trkpt lat="42.773033" lon="-0.147809">
        <time>2023-03-20T10:00:39+00:00</time>
        <ele>3206.0</ele>
      </trkpt>
      <trkpt lat="42.773043" lon="-0.147816">
        <time>2023-03-20T10:00:49+00:00</time>
        <ele>3207.0</ele>
      </trkpt>
      <trkpt lat="42.773064" lon="-0.147806">
        <time>2023-03-20T10:00:59+00:00</time>
        <ele>3208.0</ele>
      </trkpt>
      <trkpt lat="42.773073" lon="-0.147803">
        <time>2023-03-20T10:01:12+00:00</time>
        <ele>3209.0</ele>
      </trkpt>
      <trkpt lat="42.773091" lon="-0.147805">
        <time>2023-03-20T10:01:24+00:00</time>
        <ele>3211.0</ele>
      </trkpt>
      <trkpt lat="42.7731" lon="-0.1478">
        <time>2023-03-20T10:01:35+00:00</time>
        <ele>3211.0</ele>
      </trkpt>
      <trkpt lat="42.773121" lon="-0.147778">
        <time>2023-03-20T10:01:47+00:00</time>
        <ele>3213.0</ele>
      </trkpt>
      <trkpt lat="42.773136" lon="-0.147776">
        <time>2023-03-20T10:01:58+00:00</time>
        <ele>3214.0</ele>
      </trkpt>
      <trkpt lat="42.773142" lon="-0.147775">
        <time>2023-03-20T10:02:02+00:00</time>
        <ele>3215.0</ele>
      </trkpt>
      <trkpt lat="42.773152" lon="-0.147775">
        <time>2023-03-20T10:02:07+00:00</time>
        <ele>3216.0</ele>
      </trkpt>
      <trkpt lat="42.773164" lon="-0.147757">
        <time>2023-03-20T10:02:19+00:00</time>
        <ele>3216.0</ele>
      </trkpt>
      <trkpt lat="42.773177" lon="-0.147742">
        <time>2023-03-20T10:02:29+00:00</time>
        <ele>3217.0</ele>
      </trkpt>
      <trkpt lat="42.773183" lon="-0.147743">
        <time>2023-03-20T10:02:43+00:00</time>
        <ele>3218.0</ele>
      </trkpt>
      <trkpt lat="42.773202" lon="-0.147725">
        <time>2023-03-20T10:02:54+00:00</time>
        <ele>3219.0</ele>
      </trkpt>
      <trkpt lat="42.773222" lon="-0.147716">
        <time>2023-03-20T10:03:05+00:00</time>
        <ele>3221.0</ele>
      </trkpt>
      <trkpt lat="42.773231" lon="-0.147728">
        <time>2023-03-20T10:03:20+00:00</time>
        <ele>3222.0</ele>
      </trkpt>
      <trkpt lat="42.773241" lon="-0.147736">
        <time>2023-03-20T10:03:33+00:00</time>
        <ele>3223.0</ele>
      </trkpt>
      <trkpt lat="42.773255" lon="-0.147744">
        <time>2023-03-20T10:03:42+00:00</time>
        <ele>3224.0</ele>
      </trkpt>
      <trkpt lat="42.773273" lon="-0.147743">
        <time>2023-03-20T10:03:52+00:00</time>
        <ele>3226.0</ele>
      </trkpt>
      <trkpt lat="42.773289" lon="-0.147733">
        <time>2023-03-20T10:04:03+00:00</time>
        <ele>3227.0</ele>
      </trkpt>
      <trkpt lat="42.773303" lon="-0.14773">
        <time>2023-03-20T10:04:13+00:00</time>
        <ele>3228.0</ele>
      </trkpt>
      <trkpt lat="42.773316" lon="-0.147744">
        <time>2023-03-20T10:04:25+00:00</time>
        <ele>3230.0</ele>
      </trkpt>
      <trkpt lat="42.773327" lon="-0.147754">
        <time>2023-03-20T10:04:36+00:00</time>
        <ele>3231.0</ele>
      </trkpt>
      <trkpt lat="42.773351" lon="-0.147753">
        <time>2023-03-20T10:04:56+00:00</time>
        <ele>3233.0</ele>
      </trkpt>
      <trkpt lat="42.773363" lon="-0.147754">
        <time>2023-03-20T10:05:05+00:00</time>
        <ele>3234.0</ele>
      </trkpt>
      <trkpt lat="42.773373" lon="-0.147759">
        <time>2023-03-20T10:05:17+00:00</time>
        <ele>3235.0</ele>
      </trkpt>
      <trkpt lat="42.773391" lon="-0.147764">
        <time>2023-03-20T10:05:27+00:00</time>
        <ele>3236.0</ele>
      </trkpt>
      <trkpt lat="42.773408" lon="-0.147789">
        <time>2023-03-20T10:05:36+00:00</time>
        <ele>3238.0</ele>
      </trkpt>
      <trkpt lat="42.773415" lon="-0.147781">
        <time>2023-03-20T10:05:48+00:00</time>
        <ele>3239.0</ele>
      </trkpt>
      <trkpt lat="42.773428" lon="-0.147772">
        <time>2023-03-20T10:06:05+00:00</time>
        <ele>3240.0</ele>
      </trkpt>
      <trkpt lat="42.773451" lon="-0.14779">
        <time>2023-03-20T10:06:17+00:00</time>
        <ele>3242.0</ele>
      </trkpt>
      <trkpt lat="42.773424" lon="-0.147795">
        <time>2023-03-20T10:06:40+00:00</time>
        <ele>3240.0</ele>
      </trkpt>
      <trkpt lat="42.773436" lon="-0.147754">
        <time>2023-03-20T10:06:59+00:00</time>
        <ele>3241.0</ele>
      </trkpt>
      <trkpt lat="42.773449" lon="-0.147715">
        <time>2023-03-20T10:07:10+00:00</time>
        <ele>3242.0</ele>
      </trkpt>
      <trkpt lat="42.773451" lon="-0.147668">
        <time>2023-03-20T10:07:20+00:00</time>
        <ele>3242.0</ele>
      </trkpt>
      <trkpt lat="42.773472" lon="-0.147624">
        <time>2023-03-20T10:07:33+00:00</time>
        <ele>3243.0</ele>
      </trkpt>
      <trkpt lat="42.773489" lon="-0.147603">
        <time>2023-03-20T10:07:44+00:00</time>
        <ele>3245.0</ele>
      </trkpt>
      <trkpt lat="42.773504" lon="-0.147589">
        <time>2023-03-20T10:07:56+00:00</time>
        <ele>3246.0</ele>
      </trkpt>
      <trkpt lat="42.773516" lon="-0.147582">
        <time>2023-03-20T10:08:11+00:00</time>
        <ele>3247.0</ele>
      </trkpt>
      <trkpt lat="42.773529" lon="-0.147588">
        <time>2023-03-20T10:08:25+00:00</time>
        <ele>3249.0</ele>
      </trkpt>
      <trkpt lat="42.773533" lon="-0.147597">
        <time>2023-03-20T10:08:31+00:00</time>
        <ele>3249.0</ele>
      </trkpt>
      <trkpt lat="42.773555" lon="-0.147612">
        <time>2023-03-20T10:08:42+00:00</time>
        <ele>3252.0</ele>
      </trkpt>
      <trkpt lat="42.773571" lon="-0.14762">
        <time>2023-03-20T10:08:53+00:00</time>
        <ele>3254.0</ele>
      </trkpt>
      <trkpt lat="42.773581" lon="-0.147618">
        <time>2023-03-20T10:08:58+00:00</time>
        <ele>3255.0</ele>
      </trkpt>
      <trkpt lat="42.773586" lon="-0.147653">
        <time>2023-03-20T10:09:09+00:00</time>
        <ele>3256.0</ele>
      </trkpt>
      <trkpt lat="42.773597" lon="-0.147672">
        <time>2023-03-20T10:09:19+00:00</time>
        <ele>3256.0</ele>
      </trkpt>
      <trkpt lat="42.773598" lon="-0.147673">
        <time>2023-03-20T10:09:52+00:00</time>
        <ele>3256.0</ele>
      </trkpt>
      <trkpt lat="42.77361" lon="-0.147685">
        <time>2023-03-20T10:09:58+00:00</time>
        <ele>3257.0</ele>
      </trkpt>
      <trkpt lat="42.773624" lon="-0.147701">
        <time>2023-03-20T10:10:09+00:00</time>
        <ele>3257.0</ele>
      </trkpt>
      <trkpt lat="42.773647" lon="-0.147736">
        <time>2023-03-20T10:10:21+00:00</time>
        <ele>3258.0</ele>
      </trkpt>
      <trkpt lat="42.773664" lon="-0.147769">
        <time>2023-03-20T10:10:33+00:00</time>
        <ele>3259.0</ele>
      </trkpt>
      <trkpt lat="42.773678" lon="-0.147776">
        <time>2023-03-20T10:10:46+00:00</time>
        <ele>3259.0</ele>
      </trkpt>
      <trkpt lat="42.773697" lon="-0.14779">
        <time>2023-03-20T10:10:54+00:00</time>
        <ele>3260.0</ele>
      </trkpt>
      <trkpt lat="42.773703" lon="-0.147791">
        <time>2023-03-20T10:11:04+00:00</time>
        <ele>3260.0</ele>
      </trkpt>
      <trkpt lat="42.773721" lon="-0.147808">
        <time>2023-03-20T10:11:15+00:00</time>
        <ele>3260.0</ele>
      </trkpt>
      <trkpt lat="42.773738" lon="-0.147815">
        <time>2023-03-20T10:11:30+00:00</time>
        <ele>3261.0</ele>
      </trkpt>
      <trkpt lat="42.773752" lon="-0.14783">
        <time>2023-03-20T10:11:42+00:00</time>
        <ele>3261.0</ele>
      </trkpt>
      <trkpt lat="42.77377" lon="-0.147845">
        <time>2023-03-20T10:11:53+00:00</time>
        <ele>3261.0</ele>
      </trkpt>
      <trkpt lat="42.773775" lon="-0.147852">
        <time>2023-03-20T10:11:58+00:00</time>
        <ele>3261.0</ele>
      </trkpt>
      <trkpt lat="42.773778" lon="-0.147851">
        <time>2023-03-20T10:12:05+00:00</time>
        <ele>3262.0</ele>
      </trkpt>
      <trkpt lat="42.773778" lon="-0.147851">
        <time>2023-03-20T10:12:06+00:00</time>
        <ele>3262.0</ele>
      </trkpt>
      <trkpt lat="42.773774" lon="-0.147852">
        <time>2023-03-20T10:12:10+00:00</time>
        <ele>3261.0</ele>
      </trkpt>
      <trkpt lat="42.773774" lon="-0.147859">
        <time>2023-03-20T10:12:20+00:00</time>
        <ele>3261.0</ele>
      </trkpt>
      <trkpt lat="42.773774" lon="-0.147859">
        <time>2023-03-20T10:12:22+00:00</time>
        <ele>3261.0</ele>
      </trkpt>
      <trkpt lat="42.773771" lon="-0.147859">
        <time>2023-03-20T10:12:25+00:00</time>
        <ele>3261.0</ele>
      </trkpt>
      <trkpt lat="42.773775" lon="-0.147851">
        <time>2023-03-20T10:12:33+00:00</time>
        <ele>3261.0</ele>
      </trkpt>
      <trkpt lat="42.773775" lon="-0.147853">
        <time>2023-03-20T10:12:42+00:00</time>
        <ele>3261.0</ele>
      </trkpt>
      <trkpt lat="42.773767" lon="-0.147859">
        <time>2023-03-20T10:12:51+00:00</time>
        <ele>3261.0</ele>
      </trkpt>
      <trkpt lat="42.773767" lon="-0.14786">
        <time>2023-03-20T10:12:53+00:00</time>
        <ele>3261.0</ele>
      </trkpt>
      <trkpt lat="42.773765" lon="-0.147866">
        <time>2023-03-20T10:13:04+00:00</time>
        <ele>3261.0</ele>
      </trkpt>
      <trkpt lat="42.77377" lon="-0.147863">
        <time>2023-03-20T10:13:06+00:00</time>
        <ele>3261.0</ele>
      </trkpt>
      <trkpt lat="42.773792" lon="-0.147853">
        <time>2023-03-20T10:13:12+00:00</time>
        <ele>3261.0</ele>
      </trkpt>
      <trkpt lat="42.773798" lon="-0.147842">
        <time>2023-03-20T10:13:15+00:00</time>
        <ele>3261.0</ele>
      </trkpt>
      <trkpt lat="42.773817" lon="-0.14779">
        <time>2023-03-20T10:13:29+00:00</time>
        <ele>3263.0</ele>
      </trkpt>
      <trkpt lat="42.77383" lon="-0.147756">
        <time>2023-03-20T10:13:40+00:00</time>
        <ele>3264.0</ele>
      </trkpt>
      <trkpt lat="42.773832" lon="-0.147754">
        <time>2023-03-20T10:13:41+00:00</time>
        <ele>3264.0</ele>
      </trkpt>
      <trkpt lat="42.773844" lon="-0.147723">
        <time>2023-03-20T10:13:55+00:00</time>
        <ele>3265.0</ele>
      </trkpt>
      <trkpt lat="42.773858" lon="-0.147675">
        <time>2023-03-20T10:14:05+00:00</time>
        <ele>3267.0</ele>
      </trkpt>
      <trkpt lat="42.773875" lon="-0.147621">
        <time>2023-03-20T10:14:17+00:00</time>
        <ele>3268.0</ele>
      </trkpt>
      <trkpt lat="42.773878" lon="-0.147614">
        <time>2023-03-20T10:14:19+00:00</time>
        <ele>3268.0</ele>
      </trkpt>
      <trkpt lat="42.773888" lon="-0.147543">
        <time>2023-03-20T10:14:32+00:00</time>
        <ele>3268.0</ele>
      </trkpt>
      <trkpt lat="42.77389" lon="-0.147525">
        <time>2023-03-20T10:14:34+00:00</time>
        <ele>3268.0</ele>
      </trkpt>
      <trkpt lat="42.77389" lon="-0.147492">
        <time>2023-03-20T10:14:47+00:00</time>
        <ele>3268.0</ele>
      </trkpt>
      <trkpt lat="42.773912" lon="-0.147456">
        <time>2023-03-20T10:14:58+00:00</time>
        <ele>3268.0</ele>
      </trkpt>
      <trkpt lat="42.773927" lon="-0.147436">
        <time>2023-03-20T10:15:09+00:00</time>
        <ele>3269.0</ele>
      </trkpt>
      <trkpt lat="42.773939" lon="-0.147414">
        <time>2023-03-20T10:15:19+00:00</time>
        <ele>3269.0</ele>
      </trkpt>
      <trkpt lat="42.773971" lon="-0.147393">
        <time>2023-03-20T10:15:27+00:00</time>
        <ele>3270.0</ele>
      </trkpt>
      <trkpt lat="42.773978" lon="-0.14737">
        <time>2023-03-20T10:15:31+00:00</time>
        <ele>3270.0</ele>
      </trkpt>
      <trkpt lat="42.773975" lon="-0.147366">
        <time>2023-03-20T10:15:33+00:00</time>
        <ele>3269.0</ele>
      </trkpt>
      <trkpt lat="42.77397" lon="-0.147373">
        <time>2023-03-20T10:15:52+00:00</time>
        <ele>3270.0</ele>
      </trkpt>
      <trkpt lat="42.773967" lon="-0.147368">
        <time>2023-03-20T10:16:08+00:00</time>
        <ele>3269.0</ele>
      </trkpt>
      <trkpt lat="42.77397" lon="-0.147368">
        <time>2023-03-20T10:16:10+00:00</time>
        <ele>3269.0</ele>
      </trkpt>
      <trkpt lat="42.773984" lon="-0.147329">
        <time>2023-03-20T10:16:21+00:00</time>
        <ele>3267.0</ele>
      </trkpt>
      <trkpt lat="42.774" lon="-0.14733">
        <time>2023-03-20T10:16:38+00:00</time>
        <ele>3266.0</ele>
      </trkpt>
      <trkpt lat="42.774004" lon="-0.147327">
        <time>2023-03-20T10:17:04+00:00</time>
        <ele>3266.0</ele>
      </trkpt>
      <trkpt lat="42.773999" lon="-0.147328">
        <time>2023-03-20T10:17:27+00:00</time>
        <ele>3266.0</ele>
      </trkpt>
      <trkpt lat="42.773996" lon="-0.147325">
        <time>2023-03-20T10:17:28+00:00</time>
        <ele>3266.0</ele>
      </trkpt>
      <trkpt lat="42.773994" lon="-0.147325">
        <time>2023-03-20T10:17:29+00:00</time>
        <ele>3266.0</ele>
      </trkpt>
      <trkpt lat="42.773993" lon="-0.147325">
        <time>2023-03-20T10:17:32+00:00</time>
        <ele>3266.0</ele>
      </trkpt>
      <trkpt lat="42.773993" lon="-0.147321">
        <time>2023-03-20T10:17:33+00:00</time>
        <ele>3266.0</ele>
      </trkpt>
      <trkpt lat="42.773994" lon="-0.147319">
        <time>2023-03-20T10:17:34+00:00</time>
        <ele>3266.0</ele>
      </trkpt>
      <trkpt lat="42.773991" lon="-0.147321">
        <time>2023-03-20T10:17:37+00:00</time>
        <ele>3266.0</ele>
      </trkpt>
      <trkpt lat="42.773998" lon="-0.147327">
        <time>2023-03-20T10:18:05+00:00</time>
        <ele>3266.0</ele>
      </trkpt>
      <trkpt lat="42.773998" lon="-0.147327">
        <time>2023-03-20T10:18:08+00:00</time>
        <ele>3266.0</ele>
      </trkpt>
      <trkpt lat="42.773988" lon="-0.147342">
        <time>2023-03-20T10:18:30+00:00</time>
        <ele>3267.0</ele>
      </trkpt>
      <trkpt lat="42.773992" lon="-0.147343">
        <time>2023-03-20T10:19:09+00:00</time>
        <ele>3267.0</ele>
      </trkpt>
      <trkpt lat="42.773992" lon="-0.147346">
        <time>2023-03-20T10:19:57+00:00</time>
        <ele>3268.0</ele>
      </trkpt>
      <trkpt lat="42.773998" lon="-0.147343">
        <time>2023-03-20T10:20:32+00:00</time>
        <ele>3267.0</ele>
      </trkpt>
      <trkpt lat="42.773999" lon="-0.147343">
        <time>2023-03-20T10:20:34+00:00</time>
        <ele>3267.0</ele>
      </trkpt>
      <trkpt lat="42.774" lon="-0.147332">
        <time>2023-03-20T10:21:13+00:00</time>
        <ele>3266.0</ele>
      </trkpt>
      <trkpt lat="42.774017" lon="-0.147341">
        <time>2023-03-20T10:21:55+00:00</time>
        <ele>3266.0</ele>
      </trkpt>
      <trkpt lat="42.774019" lon="-0.147337">
        <time>2023-03-20T10:22:29+00:00</time>
        <ele>3266.0</ele>
      </trkpt>
      <trkpt lat="42.774017" lon="-0.147341">
        <time>2023-03-20T10:22:58+00:00</time>
        <ele>3266.0</ele>
      </trkpt>
      <trkpt lat="42.774012" lon="-0.147343">
        <time>2023-03-20T10:23:28+00:00</time>
        <ele>3267.0</ele>
      </trkpt>
      <trkpt lat="42.774009" lon="-0.147347">
        <time>2023-03-20T10:23:49+00:00</time>
        <ele>3267.0</ele>
      </trkpt>
      <trkpt lat="42.774006" lon="-0.147348">
        <time>2023-03-20T10:23:58+00:00</time>
        <ele>3267.0</ele>
      </trkpt>
      <trkpt lat="42.774003" lon="-0.147346">
        <time>2023-03-20T10:24:41+00:00</time>
        <ele>3267.0</ele>
      </trkpt>
      <trkpt lat="42.773996" lon="-0.147346">
        <time>2023-03-20T10:25:11+00:00</time>
        <ele>3267.0</ele>
      </trkpt>
      <trkpt lat="42.773999" lon="-0.147341">
        <time>2023-03-20T10:25:18+00:00</time>
        <ele>3267.0</ele>
      </trkpt>
      <trkpt lat="42.774002" lon="-0.147341">
        <time>2023-03-20T10:25:21+00:00</time>
        <ele>3267.0</ele>
      </trkpt>
      <trkpt lat="42.774003" lon="-0.147341">
        <time>2023-03-20T10:25:22+00:00</time>
        <ele>3267.0</ele>
      </trkpt>
      <trkpt lat="42.774011" lon="-0.147347">
        <time>2023-03-20T10:26:11+00:00</time>
        <ele>3267.0</ele>
      </trkpt>
      <trkpt lat="42.774012" lon="-0.147344">
        <time>2023-03-20T10:26:42+00:00</time>
        <ele>3267.0</ele>
      </trkpt>
      <trkpt lat="42.774011" lon="-0.147344">
        <time>2023-03-20T10:26:48+00:00</time>
        <ele>3267.0</ele>
      </trkpt>
      <trkpt lat="42.774012" lon="-0.147346">
        <time>2023-03-20T10:26:52+00:00</time>
        <ele>3267.0</ele>
      </trkpt>
      <trkpt lat="42.774012" lon="-0.147346">
        <time>2023-03-20T10:27:38+00:00</time>
        <ele>3267.0</ele>
      </trkpt>
      <trkpt lat="42.774012" lon="-0.147345">
        <time>2023-03-20T10:28:12+00:00</time>
        <ele>3267.0</ele>
      </trkpt>
      <trkpt lat="42.773985" lon="-0.147331">
        <time>2023-03-20T10:28:35+00:00</time>
        <ele>3267.0</ele>
      </trkpt>
      <trkpt lat="42.773996" lon="-0.14732">
        <time>2023-03-20T10:28:43+00:00</time>
        <ele>3266.0</ele>
      </trkpt>
      <trkpt lat="42.773997" lon="-0.147327">
        <time>2023-03-20T10:28:47+00:00</time>
        <ele>3266.0</ele>
      </trkpt>
      <trkpt lat="42.773996" lon="-0.147322">
        <time>2023-03-20T10:28:49+00:00</time>
        <ele>3266.0</ele>
      </trkpt>
      <trkpt lat="42.773995" lon="-0.147321">
        <time>2023-03-20T10:28:50+00:00</time>
        <ele>3266.0</ele>
      </trkpt>
      <trkpt lat="42.773992" lon="-0.147318">
        <time>2023-03-20T10:28:55+00:00</time>
        <ele>3266.0</ele>
      </trkpt>
      <trkpt lat="42.773988" lon="-0.147325">
        <time>2023-03-20T10:28:56+00:00</time>
        <ele>3266.0</ele>
      </trkpt>
      <trkpt lat="42.773988" lon="-0.147322">
        <time>2023-03-20T10:28:57+00:00</time>
        <ele>3266.0</ele>
      </trkpt>
      <trkpt lat="42.773986" lon="-0.147323">
        <time>2023-03-20T10:28:59+00:00</time>
        <ele>3266.0</ele>
      </trkpt>
      <trkpt lat="42.77398" lon="-0.147322">
        <time>2023-03-20T10:29:37+00:00</time>
        <ele>3266.0</ele>
      </trkpt>
      <trkpt lat="42.773979" lon="-0.147321">
        <time>2023-03-20T10:30:11+00:00</time>
        <ele>3266.0</ele>
      </trkpt>
      <trkpt lat="42.773981" lon="-0.147336">
        <time>2023-03-20T10:30:57+00:00</time>
        <ele>3267.0</ele>
      </trkpt>
      <trkpt lat="42.773976" lon="-0.147325">
        <time>2023-03-20T10:31:42+00:00</time>
        <ele>3266.0</ele>
      </trkpt>
      <trkpt lat="42.773973" lon="-0.147322">
        <time>2023-03-20T10:32:26+00:00</time>
        <ele>3266.0</ele>
      </trkpt>
      <trkpt lat="42.773973" lon="-0.147321">
        <time>2023-03-20T10:32:27+00:00</time>
        <ele>3266.0</ele>
      </trkpt>
      <trkpt lat="42.773972" lon="-0.147316">
        <time>2023-03-20T10:33:07+00:00</time>
        <ele>3266.0</ele>
      </trkpt>
      <trkpt lat="42.773976" lon="-0.147318">
        <time>2023-03-20T10:33:52+00:00</time>
        <ele>3266.0</ele>
      </trkpt>
      <trkpt lat="42.773973" lon="-0.147317">
        <time>2023-03-20T10:34:31+00:00</time>
        <ele>3266.0</ele>
      </trkpt>
      <trkpt lat="42.773966" lon="-0.147324">
        <time>2023-03-20T10:35:16+00:00</time>
        <ele>3266.0</ele>
      </trkpt>
      <trkpt lat="42.773965" lon="-0.147322">
        <time>2023-03-20T10:36:02+00:00</time>
        <ele>3266.0</ele>
      </trkpt>
      <trkpt lat="42.773969" lon="-0.14732">
        <time>2023-03-20T10:36:39+00:00</time>
        <ele>3266.0</ele>
      </trkpt>
      <trkpt lat="42.773968" lon="-0.147319">
        <time>2023-03-20T10:37:11+00:00</time>
        <ele>3266.0</ele>
      </trkpt>
      <trkpt lat="42.773967" lon="-0.147315">
        <time>2023-03-20T10:37:41+00:00</time>
        <ele>3266.0</ele>
      </trkpt>
      <trkpt lat="42.773969" lon="-0.147323">
        <time>2023-03-20T10:38:00+00:00</time>
        <ele>3266.0</ele>
      </trkpt>
      <trkpt lat="42.77397" lon="-0.147326">
        <time>2023-03-20T10:38:02+00:00</time>
        <ele>3266.0</ele>
      </trkpt>
      <trkpt lat="42.773969" lon="-0.147312">
        <time>2023-03-20T10:38:38+00:00</time>
        <ele>3265.0</ele>
      </trkpt>
      <trkpt lat="42.773971" lon="-0.147312">
        <time>2023-03-20T10:39:15+00:00</time>
        <ele>3265.0</ele>
      </trkpt>
      <trkpt lat="42.773966" lon="-0.147321">
        <time>2023-03-20T10:39:51+00:00</time>
        <ele>3266.0</ele>
      </trkpt>
      <trkpt lat="42.77397" lon="-0.14733">
        <time>2023-03-20T10:40:24+00:00</time>
        <ele>3267.0</ele>
      </trkpt>
      <trkpt lat="42.773971" lon="-0.147332">
        <time>2023-03-20T10:40:56+00:00</time>
        <ele>3267.0</ele>
      </trkpt>
      <trkpt lat="42.773974" lon="-0.147332">
        <time>2023-03-20T10:41:26+00:00</time>
        <ele>3267.0</ele>
      </trkpt>
      <trkpt lat="42.773972" lon="-0.147328">
        <time>2023-03-20T10:41:48+00:00</time>
        <ele>3267.0</ele>
      </trkpt>
      <trkpt lat="42.773975" lon="-0.147334">
        <time>2023-03-20T10:42:29+00:00</time>
        <ele>3267.0</ele>
      </trkpt>
      <trkpt lat="42.773968" lon="-0.147325">
        <time>2023-03-20T10:42:58+00:00</time>
        <ele>3266.0</ele>
      </trkpt>
      <trkpt lat="42.773974" lon="-0.147336">
        <time>2023-03-20T10:43:33+00:00</time>
        <ele>3267.0</ele>
      </trkpt>
      <trkpt lat="42.773975" lon="-0.147329">
        <time>2023-03-20T10:43:56+00:00</time>
        <ele>3267.0</ele>
      </trkpt>
      <trkpt lat="42.773979" lon="-0.147331">
        <time>2023-03-20T10:44:30+00:00</time>
        <ele>3267.0</ele>
      </trkpt>
      <trkpt lat="42.773974" lon="-0.147319">
        <time>2023-03-20T10:44:58+00:00</time>
        <ele>3266.0</ele>
      </trkpt>
      <trkpt lat="42.773975" lon="-0.14732">
        <time>2023-03-20T10:45:29+00:00</time>
        <ele>3266.0</ele>
      </trkpt>
      <trkpt lat="42.773975" lon="-0.147322">
        <time>2023-03-20T10:46:01+00:00</time>
        <ele>3266.0</ele>
      </trkpt>
      <trkpt lat="42.773976" lon="-0.147324">
        <time>2023-03-20T10:46:33+00:00</time>
        <ele>3266.0</ele>
      </trkpt>
      <trkpt lat="42.773977" lon="-0.147335">
        <time>2023-03-20T10:47:08+00:00</time>
        <ele>3267.0</ele>
      </trkpt>
      <trkpt lat="42.773999" lon="-0.147341">
        <time>2023-03-20T10:47:39+00:00</time>
        <ele>3267.0</ele>
      </trkpt>
      <trkpt lat="42.774005" lon="-0.147335">
        <time>2023-03-20T10:48:10+00:00</time>
        <ele>3266.0</ele>
      </trkpt>
      <trkpt lat="42.774" lon="-0.147329">
        <time>2023-03-20T10:48:38+00:00</time>
        <ele>3266.0</ele>
      </trkpt>
      <trkpt lat="42.77401" lon="-0.147332">
        <time>2023-03-20T10:49:09+00:00</time>
        <ele>3266.0</ele>
      </trkpt>
      <trkpt lat="42.774006" lon="-0.14733">
        <time>2023-03-20T10:49:35+00:00</time>
        <ele>3266.0</ele>
      </trkpt>
      <trkpt lat="42.774007" lon="-0.147332">
        <time>2023-03-20T10:49:37+00:00</time>
        <ele>3266.0</ele>
      </trkpt>
      <trkpt lat="42.774007" lon="-0.147323">
        <time>2023-03-20T10:50:06+00:00</time>
        <ele>3265.0</ele>
      </trkpt>
      <trkpt lat="42.774007" lon="-0.147323">
        <time>2023-03-20T10:50:13+00:00</time>
        <ele>3265.0</ele>
      </trkpt>
      <trkpt lat="42.774001" lon="-0.147319">
        <time>2023-03-20T10:50:39+00:00</time>
        <ele>3265.0</ele>
      </trkpt>
      <trkpt lat="42.773986" lon="-0.147318">
        <time>2023-03-20T10:50:53+00:00</time>
        <ele>3266.0</ele>
      </trkpt>
      <trkpt lat="42.773988" lon="-0.147314">
        <time>2023-03-20T10:50:54+00:00</time>
        <ele>3265.0</ele>
      </trkpt>
      <trkpt lat="42.773975" lon="-0.147315">
        <time>2023-03-20T10:51:06+00:00</time>
        <ele>3266.0</ele>
      </trkpt>
      <trkpt lat="42.773973" lon="-0.147317">
        <time>2023-03-20T10:51:07+00:00</time>
        <ele>3266.0</ele>
      </trkpt>
      <trkpt lat="42.773974" lon="-0.147315">
        <time>2023-03-20T10:51:08+00:00</time>
        <ele>3266.0</ele>
      </trkpt>
      <trkpt lat="42.773976" lon="-0.147316">
        <time>2023-03-20T10:51:10+00:00</time>
        <ele>3266.0</ele>
      </trkpt>
      <trkpt lat="42.773987" lon="-0.147318">
        <time>2023-03-20T10:51:33+00:00</time>
        <ele>3266.0</ele>
      </trkpt>
      <trkpt lat="42.77399" lon="-0.147322">
        <time>2023-03-20T10:52:00+00:00</time>
        <ele>3266.0</ele>
      </trkpt>
      <trkpt lat="42.773984" lon="-0.147319">
        <time>2023-03-20T10:52:20+00:00</time>
        <ele>3266.0</ele>
      </trkpt>
      <trkpt lat="42.773977" lon="-0.147322">
        <time>2023-03-20T10:52:25+00:00</time>
        <ele>3266.0</ele>
      </trkpt>
      <trkpt lat="42.773979" lon="-0.147321">
        <time>2023-03-20T10:52:28+00:00</time>
        <ele>3266.0</ele>
      </trkpt>
      <trkpt lat="42.773978" lon="-0.147313">
        <time>2023-03-20T10:52:43+00:00</time>
        <ele>3266.0</ele>
      </trkpt>
      <trkpt lat="42.77398" lon="-0.147313">
        <time>2023-03-20T10:52:44+00:00</time>
        <ele>3266.0</ele>
      </trkpt>
      <trkpt lat="42.77398" lon="-0.147314">
        <time>2023-03-20T10:52:45+00:00</time>
        <ele>3266.0</ele>
      </trkpt>
      <trkpt lat="42.77398" lon="-0.147315">
        <time>2023-03-20T10:52:46+00:00</time>
        <ele>3266.0</ele>
      </trkpt>
      <trkpt lat="42.773982" lon="-0.147317">
        <time>2023-03-20T10:52:48+00:00</time>
        <ele>3266.0</ele>
      </trkpt>
      <trkpt lat="42.773986" lon="-0.147326">
        <time>2023-03-20T10:53:01+00:00</time>
        <ele>3266.0</ele>
      </trkpt>
      <trkpt lat="42.773983" lon="-0.147329">
        <time>2023-03-20T10:53:05+00:00</time>
        <ele>3267.0</ele>
      </trkpt>
      <trkpt lat="42.773984" lon="-0.147328">
        <time>2023-03-20T10:53:07+00:00</time>
        <ele>3266.0</ele>
      </trkpt>
      <trkpt lat="42.773985" lon="-0.147328">
        <time>2023-03-20T10:53:08+00:00</time>
        <ele>3266.0</ele>
      </trkpt>
      <trkpt lat="42.773985" lon="-0.147329">
        <time>2023-03-20T10:53:09+00:00</time>
        <ele>3267.0</ele>
      </trkpt>
      <trkpt lat="42.773986" lon="-0.147331">
        <time>2023-03-20T10:53:11+00:00</time>
        <ele>3267.0</ele>
      </trkpt>
      <trkpt lat="42.773983" lon="-0.147325">
        <time>2023-03-20T10:53:16+00:00</time>
        <ele>3266.0</ele>
      </trkpt>
      <trkpt lat="42.773986" lon="-0.147328">
        <time>2023-03-20T10:53:17+00:00</time>
        <ele>3266.0</ele>
      </trkpt>
      <trkpt lat="42.773993" lon="-0.14733">
        <time>2023-03-20T10:53:42+00:00</time>
        <ele>3266.0</ele>
      </trkpt>
      <trkpt lat="42.773994" lon="-0.147337">
        <time>2023-03-20T10:53:43+00:00</time>
        <ele>3267.0</ele>
      </trkpt>
      <trkpt lat="42.773995" lon="-0.147333">
        <time>2023-03-20T10:53:44+00:00</time>
        <ele>3267.0</ele>
      </trkpt>
      <trkpt lat="42.773995" lon="-0.147328">
        <time>2023-03-20T10:53:50+00:00</time>
        <ele>3266.0</ele>
      </trkpt>
      <trkpt lat="42.773998" lon="-0.147321">
        <time>2023-03-20T10:54:07+00:00</time>
        <ele>3266.0</ele>
      </trkpt>
      <trkpt lat="42.773997" lon="-0.147314">
        <time>2023-03-20T10:54:08+00:00</time>
        <ele>3265.0</ele>
      </trkpt>
      <trkpt lat="42.773991" lon="-0.147315">
        <time>2023-03-20T10:54:10+00:00</time>
        <ele>3265.0</ele>
      </trkpt>
      <trkpt lat="42.773989" lon="-0.147312">
        <time>2023-03-20T10:54:11+00:00</time>
        <ele>3265.0</ele>
      </trkpt>
      <trkpt lat="42.773978" lon="-0.147307">
        <time>2023-03-20T10:54:24+00:00</time>
        <ele>3265.0</ele>
      </trkpt>
      <trkpt lat="42.773987" lon="-0.147316">
        <time>2023-03-20T10:55:00+00:00</time>
        <ele>3266.0</ele>
      </trkpt>
      <trkpt lat="42.773986" lon="-0.147318">
        <time>2023-03-20T10:55:13+00:00</time>
        <ele>3266.0</ele>
      </trkpt>
      <trkpt lat="42.773976" lon="-0.147324">
        <time>2023-03-20T10:55:42+00:00</time>
        <ele>3266.0</ele>
      </trkpt>
      <trkpt lat="42.773986" lon="-0.147322">
        <time>2023-03-20T10:55:52+00:00</time>
        <ele>3266.0</ele>
      </trkpt>
      <trkpt lat="42.77401" lon="-0.147328">
        <time>2023-03-20T10:56:32+00:00</time>
        <ele>3266.0</ele>
      </trkpt>
      <trkpt lat="42.773999" lon="-0.14735">
        <time>2023-03-20T10:57:11+00:00</time>
        <ele>3268.0</ele>
      </trkpt>
      <trkpt lat="42.773999" lon="-0.147346">
        <time>2023-03-20T10:57:27+00:00</time>
        <ele>3267.0</ele>
      </trkpt>
      <trkpt lat="42.774011" lon="-0.147333">
        <time>2023-03-20T10:58:05+00:00</time>
        <ele>3266.0</ele>
      </trkpt>
      <trkpt lat="42.774006" lon="-0.147337">
        <time>2023-03-20T10:58:28+00:00</time>
        <ele>3266.0</ele>
      </trkpt>
      <trkpt lat="42.774" lon="-0.147333">
        <time>2023-03-20T10:58:29+00:00</time>
        <ele>3266.0</ele>
      </trkpt>
      <trkpt lat="42.774" lon="-0.147331">
        <time>2023-03-20T10:58:30+00:00</time>
        <ele>3266.0</ele>
      </trkpt>
      <trkpt lat="42.773995" lon="-0.147336">
        <time>2023-03-20T10:58:34+00:00</time>
        <ele>3267.0</ele>
      </trkpt>
      <trkpt lat="42.773995" lon="-0.147328">
        <time>2023-03-20T10:58:37+00:00</time>
        <ele>3266.0</ele>
      </trkpt>
      <trkpt lat="42.774" lon="-0.147321">
        <time>2023-03-20T10:58:44+00:00</time>
        <ele>3265.0</ele>
      </trkpt>
      <trkpt lat="42.773997" lon="-0.147334">
        <time>2023-03-20T10:59:13+00:00</time>
        <ele>3267.0</ele>
      </trkpt>
      <trkpt lat="42.773994" lon="-0.147348">
        <time>2023-03-20T10:59:28+00:00</time>
        <ele>3268.0</ele>
      </trkpt>
      <trkpt lat="42.773995" lon="-0.147349">
        <time>2023-03-20T10:59:39+00:00</time>
        <ele>3268.0</ele>
      </trkpt>
      <trkpt lat="42.773998" lon="-0.147351">
        <time>2023-03-20T10:59:43+00:00</time>
        <ele>3268.0</ele>
      </trkpt>
      <trkpt lat="42.773997" lon="-0.147351">
        <time>2023-03-20T10:59:45+00:00</time>
        <ele>3268.0</ele>
      </trkpt>
      <trkpt lat="42.773997" lon="-0.147351">
        <time>2023-03-20T10:59:47+00:00</time>
        <ele>3268.0</ele>
      </trkpt>
      <trkpt lat="42.773996" lon="-0.14735">
        <time>2023-03-20T10:59:50+00:00</time>
        <ele>3268.0</ele>
      </trkpt>
      <trkpt lat="42.773992" lon="-0.147346">
        <time>2023-03-20T11:00:02+00:00</time>
        <ele>3268.0</ele>
      </trkpt>
      <trkpt lat="42.774001" lon="-0.147333">
        <time>2023-03-20T11:00:31+00:00</time>
        <ele>3266.0</ele>
      </trkpt>
      <trkpt lat="42.774009" lon="-0.147319">
        <time>2023-03-20T11:00:43+00:00</time>
        <ele>3265.0</ele>
      </trkpt>
      <trkpt lat="42.77401" lon="-0.147327">
        <time>2023-03-20T11:00:56+00:00</time>
        <ele>3266.0</ele>
      </trkpt>
      <trkpt lat="42.774004" lon="-0.147326">
        <time>2023-03-20T11:01:09+00:00</time>
        <ele>3266.0</ele>
      </trkpt>
      <trkpt lat="42.774011" lon="-0.147341">
        <time>2023-03-20T11:01:21+00:00</time>
        <ele>3267.0</ele>
      </trkpt>
      <trkpt lat="42.774005" lon="-0.147356">
        <time>2023-03-20T11:01:30+00:00</time>
        <ele>3268.0</ele>
      </trkpt>
      <trkpt lat="42.774018" lon="-0.147348">
        <time>2023-03-20T11:01:56+00:00</time>
        <ele>3267.0</ele>
      </trkpt>
      <trkpt lat="42.773989" lon="-0.147399">
        <time>2023-03-20T11:02:09+00:00</time>
        <ele>3270.0</ele>
      </trkpt>
      <trkpt lat="42.773949" lon="-0.147396">
        <time>2023-03-20T11:02:19+00:00</time>
        <ele>3270.0</ele>
      </trkpt>
      <trkpt lat="42.773937" lon="-0.147448">
        <time>2023-03-20T11:02:32+00:00</time>
        <ele>3269.0</ele>
      </trkpt>
      <trkpt lat="42.773924" lon="-0.147479">
        <time>2023-03-20T11:02:43+00:00</time>
        <ele>3269.0</ele>
      </trkpt>
      <trkpt lat="42.773911" lon="-0.147488">
        <time>2023-03-20T11:02:52+00:00</time>
        <ele>3268.0</ele>
      </trkpt>
      <trkpt lat="42.773914" lon="-0.147545">
        <time>2023-03-20T11:03:04+00:00</time>
        <ele>3268.0</ele>
      </trkpt>
      <trkpt lat="42.773895" lon="-0.147585">
        <time>2023-03-20T11:03:14+00:00</time>
        <ele>3268.0</ele>
      </trkpt>
      <trkpt lat="42.773895" lon="-0.147605">
        <time>2023-03-20T11:03:19+00:00</time>
        <ele>3268.0</ele>
      </trkpt>
      <trkpt lat="42.773886" lon="-0.147632">
        <time>2023-03-20T11:03:24+00:00</time>
        <ele>3268.0</ele>
      </trkpt>
      <trkpt lat="42.77388" lon="-0.14767">
        <time>2023-03-20T11:03:30+00:00</time>
        <ele>3267.0</ele>
      </trkpt>
      <trkpt lat="42.773876" lon="-0.147728">
        <time>2023-03-20T11:03:41+00:00</time>
        <ele>3264.0</ele>
      </trkpt>
      <trkpt lat="42.773855" lon="-0.147779">
        <time>2023-03-20T11:03:53+00:00</time>
        <ele>3263.0</ele>
      </trkpt>
      <trkpt lat="42.773832" lon="-0.147848">
        <time>2023-03-20T11:04:03+00:00</time>
        <ele>3261.0</ele>
      </trkpt>
      <trkpt lat="42.773791" lon="-0.147918">
        <time>2023-03-20T11:04:19+00:00</time>
        <ele>3259.0</ele>
      </trkpt>
      <trkpt lat="42.773769" lon="-0.147899">
        <time>2023-03-20T11:04:27+00:00</time>
        <ele>3260.0</ele>
      </trkpt>
      <trkpt lat="42.773757" lon="-0.147934">
        <time>2023-03-20T11:04:39+00:00</time>
        <ele>3258.0</ele>
      </trkpt>
      <trkpt lat="42.773737" lon="-0.147955">
        <time>2023-03-20T11:04:52+00:00</time>
        <ele>3256.0</ele>
      </trkpt>
      <trkpt lat="42.773731" lon="-0.147976">
        <time>2023-03-20T11:05:03+00:00</time>
        <ele>3255.0</ele>
      </trkpt>
      <trkpt lat="42.773698" lon="-0.147988">
        <time>2023-03-20T11:05:14+00:00</time>
        <ele>3253.0</ele>
      </trkpt>
      <trkpt lat="42.773667" lon="-0.148004">
        <time>2023-03-20T11:05:27+00:00</time>
        <ele>3252.0</ele>
      </trkpt>
      <trkpt lat="42.773674" lon="-0.148032">
        <time>2023-03-20T11:05:37+00:00</time>
        <ele>3250.0</ele>
      </trkpt>
      <trkpt lat="42.773668" lon="-0.148034">
        <time>2023-03-20T11:05:43+00:00</time>
        <ele>3250.0</ele>
      </trkpt>
      <trkpt lat="42.773674" lon="-0.148074">
        <time>2023-03-20T11:05:53+00:00</time>
        <ele>3248.0</ele>
      </trkpt>
      <trkpt lat="42.773657" lon="-0.14809">
        <time>2023-03-20T11:06:05+00:00</time>
        <ele>3247.0</ele>
      </trkpt>
      <trkpt lat="42.773647" lon="-0.148092">
        <time>2023-03-20T11:06:18+00:00</time>
        <ele>3247.0</ele>
      </trkpt>
      <trkpt lat="42.773642" lon="-0.148111">
        <time>2023-03-20T11:06:28+00:00</time>
        <ele>3246.0</ele>
      </trkpt>
      <trkpt lat="42.77363" lon="-0.148127">
        <time>2023-03-20T11:06:39+00:00</time>
        <ele>3246.0</ele>
      </trkpt>
      <trkpt lat="42.773622" lon="-0.148147">
        <time>2023-03-20T11:06:52+00:00</time>
        <ele>3245.0</ele>
      </trkpt>
      <trkpt lat="42.773617" lon="-0.148156">
        <time>2023-03-20T11:07:05+00:00</time>
        <ele>3244.0</ele>
      </trkpt>
      <trkpt lat="42.773608" lon="-0.14817">
        <time>2023-03-20T11:07:19+00:00</time>
        <ele>3244.0</ele>
      </trkpt>
      <trkpt lat="42.773607" lon="-0.148192">
        <time>2023-03-20T11:07:28+00:00</time>
        <ele>3243.0</ele>
      </trkpt>
      <trkpt lat="42.773595" lon="-0.148212">
        <time>2023-03-20T11:07:41+00:00</time>
        <ele>3242.0</ele>
      </trkpt>
      <trkpt lat="42.773593" lon="-0.14824">
        <time>2023-03-20T11:07:54+00:00</time>
        <ele>3241.0</ele>
      </trkpt>
      <trkpt lat="42.773592" lon="-0.148242">
        <time>2023-03-20T11:07:55+00:00</time>
        <ele>3241.0</ele>
      </trkpt>
      <trkpt lat="42.773586" lon="-0.148309">
        <time>2023-03-20T11:08:10+00:00</time>
        <ele>3238.0</ele>
      </trkpt>
      <trkpt lat="42.773549" lon="-0.148405">
        <time>2023-03-20T11:08:25+00:00</time>
        <ele>3233.0</ele>
      </trkpt>
      <trkpt lat="42.773508" lon="-0.148457">
        <time>2023-03-20T11:08:37+00:00</time>
        <ele>3231.0</ele>
      </trkpt>
      <trkpt lat="42.773495" lon="-0.148471">
        <time>2023-03-20T11:08:48+00:00</time>
        <ele>3231.0</ele>
      </trkpt>
      <trkpt lat="42.77349" lon="-0.14851">
        <time>2023-03-20T11:09:00+00:00</time>
        <ele>3230.0</ele>
      </trkpt>
      <trkpt lat="42.773498" lon="-0.148533">
        <time>2023-03-20T11:09:06+00:00</time>
        <ele>3229.0</ele>
      </trkpt>
      <trkpt lat="42.773482" lon="-0.148565">
        <time>2023-03-20T11:09:18+00:00</time>
        <ele>3229.0</ele>
      </trkpt>
      <trkpt lat="42.773472" lon="-0.148587">
        <time>2023-03-20T11:09:27+00:00</time>
        <ele>3229.0</ele>
      </trkpt>
      <trkpt lat="42.773459" lon="-0.148633">
        <time>2023-03-20T11:09:40+00:00</time>
        <ele>3228.0</ele>
      </trkpt>
      <trkpt lat="42.773422" lon="-0.148714">
        <time>2023-03-20T11:09:54+00:00</time>
        <ele>3228.0</ele>
      </trkpt>
      <trkpt lat="42.77338" lon="-0.14876">
        <time>2023-03-20T11:10:06+00:00</time>
        <ele>3230.0</ele>
      </trkpt>
      <trkpt lat="42.773345" lon="-0.148795">
        <time>2023-03-20T11:10:20+00:00</time>
        <ele>3230.0</ele>
      </trkpt>
      <trkpt lat="42.773341" lon="-0.148824">
        <time>2023-03-20T11:10:32+00:00</time>
        <ele>3230.0</ele>
      </trkpt>
      <trkpt lat="42.773343" lon="-0.148822">
        <time>2023-03-20T11:10:46+00:00</time>
        <ele>3230.0</ele>
      </trkpt>
      <trkpt lat="42.773322" lon="-0.148825">
        <time>2023-03-20T11:10:59+00:00</time>
        <ele>3230.0</ele>
      </trkpt>
      <trkpt lat="42.773328" lon="-0.148822">
        <time>2023-03-20T11:11:10+00:00</time>
        <ele>3230.0</ele>
      </trkpt>
      <trkpt lat="42.773333" lon="-0.148818">
        <time>2023-03-20T11:11:32+00:00</time>
        <ele>3230.0</ele>
      </trkpt>
      <trkpt lat="42.773345" lon="-0.148821">
        <time>2023-03-20T11:11:48+00:00</time>
        <ele>3230.0</ele>
      </trkpt>
      <trkpt lat="42.773319" lon="-0.148807">
        <time>2023-03-20T11:12:25+00:00</time>
        <ele>3230.0</ele>
      </trkpt>
      <trkpt lat="42.77332" lon="-0.148797">
        <time>2023-03-20T11:13:08+00:00</time>
        <ele>3230.0</ele>
      </trkpt>
      <trkpt lat="42.773317" lon="-0.148794">
        <time>2023-03-20T11:13:55+00:00</time>
        <ele>3230.0</ele>
      </trkpt>
      <trkpt lat="42.773327" lon="-0.148803">
        <time>2023-03-20T11:14:36+00:00</time>
        <ele>3230.0</ele>
      </trkpt>
      <trkpt lat="42.773323" lon="-0.148797">
        <time>2023-03-20T11:15:08+00:00</time>
        <ele>3230.0</ele>
      </trkpt>
      <trkpt lat="42.773325" lon="-0.148801">
        <time>2023-03-20T11:15:09+00:00</time>
        <ele>3230.0</ele>
      </trkpt>
      <trkpt lat="42.773327" lon="-0.148822">
        <time>2023-03-20T11:15:29+00:00</time>
        <ele>3230.0</ele>
      </trkpt>
      <trkpt lat="42.773326" lon="-0.148823">
        <time>2023-03-20T11:15:48+00:00</time>
        <ele>3230.0</ele>
      </trkpt>
      <trkpt lat="42.773334" lon="-0.148816">
        <time>2023-03-20T11:16:21+00:00</time>
        <ele>3230.0</ele>
      </trkpt>
      <trkpt lat="42.773334" lon="-0.148823">
        <time>2023-03-20T11:17:02+00:00</time>
        <ele>3230.0</ele>
      </trkpt>
      <trkpt lat="42.77332" lon="-0.148822">
        <time>2023-03-20T11:17:20+00:00</time>
        <ele>3230.0</ele>
      </trkpt>
      <trkpt lat="42.773322" lon="-0.148826">
        <time>2023-03-20T11:17:38+00:00</time>
        <ele>3230.0</ele>
      </trkpt>
      <trkpt lat="42.77333" lon="-0.148826">
        <time>2023-03-20T11:17:57+00:00</time>
        <ele>3230.0</ele>
      </trkpt>
      <trkpt lat="42.773329" lon="-0.148825">
        <time>2023-03-20T11:18:16+00:00</time>
        <ele>3230.0</ele>
      </trkpt>
      <trkpt lat="42.773333" lon="-0.148819">
        <time>2023-03-20T11:18:22+00:00</time>
        <ele>3230.0</ele>
      </trkpt>
      <trkpt lat="42.773323" lon="-0.148827">
        <time>2023-03-20T11:18:42+00:00</time>
        <ele>3230.0</ele>
      </trkpt>
      <trkpt lat="42.773309" lon="-0.148834">
        <time>2023-03-20T11:18:45+00:00</time>
        <ele>3230.0</ele>
      </trkpt>
      <trkpt lat="42.773291" lon="-0.148835">
        <time>2023-03-20T11:18:56+00:00</time>
        <ele>3230.0</ele>
      </trkpt>
      <trkpt lat="42.773272" lon="-0.148848">
        <time>2023-03-20T11:19:00+00:00</time>
        <ele>3230.0</ele>
      </trkpt>
      <trkpt lat="42.773269" lon="-0.14885">
        <time>2023-03-20T11:19:01+00:00</time>
        <ele>3231.0</ele>
      </trkpt>
      <trkpt lat="42.773242" lon="-0.148843">
        <time>2023-03-20T11:19:05+00:00</time>
        <ele>3231.0</ele>
      </trkpt>
      <trkpt lat="42.773233" lon="-0.14885">
        <time>2023-03-20T11:19:09+00:00</time>
        <ele>3231.0</ele>
      </trkpt>
      <trkpt lat="42.773211" lon="-0.148849">
        <time>2023-03-20T11:19:11+00:00</time>
        <ele>3231.0</ele>
      </trkpt>
      <trkpt lat="42.773189" lon="-0.148844">
        <time>2023-03-20T11:19:13+00:00</time>
        <ele>3231.0</ele>
      </trkpt>
      <trkpt lat="42.773169" lon="-0.148876">
        <time>2023-03-20T11:19:15+00:00</time>
        <ele>3231.0</ele>
      </trkpt>
      <trkpt lat="42.773121" lon="-0.148853">
        <time>2023-03-20T11:19:18+00:00</time>
        <ele>3229.0</ele>
      </trkpt>
      <trkpt lat="42.773077" lon="-0.148901">
        <time>2023-03-20T11:19:20+00:00</time>
        <ele>3229.0</ele>
      </trkpt>
      <trkpt lat="42.773059" lon="-0.148968">
        <time>2023-03-20T11:19:22+00:00</time>
        <ele>3230.0</ele>
      </trkpt>
      <trkpt lat="42.773056" lon="-0.148989">
        <time>2023-03-20T11:19:29+00:00</time>
        <ele>3231.0</ele>
      </trkpt>
      <trkpt lat="42.773058" lon="-0.148984">
        <time>2023-03-20T11:19:30+00:00</time>
        <ele>3231.0</ele>
      </trkpt>
      <trkpt lat="42.773024" lon="-0.148995">
        <time>2023-03-20T11:19:33+00:00</time>
        <ele>3230.0</ele>
      </trkpt>
      <trkpt lat="42.773011" lon="-0.148972">
        <time>2023-03-20T11:19:34+00:00</time>
        <ele>3229.0</ele>
      </trkpt>
      <trkpt lat="42.772982" lon="-0.148921">
        <time>2023-03-20T11:19:37+00:00</time>
        <ele>3227.0</ele>
      </trkpt>
      <trkpt lat="42.772909" lon="-0.148904">
        <time>2023-03-20T11:19:40+00:00</time>
        <ele>3222.0</ele>
      </trkpt>
      <trkpt lat="42.772905" lon="-0.148874">
        <time>2023-03-20T11:19:41+00:00</time>
        <ele>3221.0</ele>
      </trkpt>
      <trkpt lat="42.772866" lon="-0.148864">
        <time>2023-03-20T11:19:43+00:00</time>
        <ele>3218.0</ele>
      </trkpt>
      <trkpt lat="42.772796" lon="-0.148796">
        <time>2023-03-20T11:19:47+00:00</time>
        <ele>3212.0</ele>
      </trkpt>
      <trkpt lat="42.772734" lon="-0.14876">
        <time>2023-03-20T11:19:50+00:00</time>
        <ele>3206.0</ele>
      </trkpt>
      <trkpt lat="42.772707" lon="-0.148654">
        <time>2023-03-20T11:19:52+00:00</time>
        <ele>3202.0</ele>
      </trkpt>
      <trkpt lat="42.772724" lon="-0.148482">
        <time>2023-03-20T11:19:54+00:00</time>
        <ele>3199.0</ele>
      </trkpt>
      <trkpt lat="42.772747" lon="-0.148322">
        <time>2023-03-20T11:19:56+00:00</time>
        <ele>3196.0</ele>
      </trkpt>
      <trkpt lat="42.772752" lon="-0.148136">
        <time>2023-03-20T11:19:59+00:00</time>
        <ele>3191.0</ele>
      </trkpt>
      <trkpt lat="42.77271" lon="-0.148109">
        <time>2023-03-20T11:20:00+00:00</time>
        <ele>3188.0</ele>
      </trkpt>
      <trkpt lat="42.77264" lon="-0.14798">
        <time>2023-03-20T11:20:02+00:00</time>
        <ele>3181.0</ele>
      </trkpt>
      <trkpt lat="42.772593" lon="-0.147839">
        <time>2023-03-20T11:20:04+00:00</time>
        <ele>3175.0</ele>
      </trkpt>
      <trkpt lat="42.772555" lon="-0.14779">
        <time>2023-03-20T11:20:05+00:00</time>
        <ele>3173.0</ele>
      </trkpt>
      <trkpt lat="42.772545" lon="-0.147724">
        <time>2023-03-20T11:20:06+00:00</time>
        <ele>3171.0</ele>
      </trkpt>
      <trkpt lat="42.772556" lon="-0.147659">
        <time>2023-03-20T11:20:08+00:00</time>
        <ele>3171.0</ele>
      </trkpt>
      <trkpt lat="42.772551" lon="-0.147664">
        <time>2023-03-20T11:20:21+00:00</time>
        <ele>3170.0</ele>
      </trkpt>
      <trkpt lat="42.772541" lon="-0.147672">
        <time>2023-03-20T11:20:39+00:00</time>
        <ele>3170.0</ele>
      </trkpt>
      <trkpt lat="42.772544" lon="-0.14766">
        <time>2023-03-20T11:21:01+00:00</time>
        <ele>3170.0</ele>
      </trkpt>
      <trkpt lat="42.772541" lon="-0.147663">
        <time>2023-03-20T11:21:18+00:00</time>
        <ele>3170.0</ele>
      </trkpt>
      <trkpt lat="42.77255" lon="-0.147665">
        <time>2023-03-20T11:21:27+00:00</time>
        <ele>3170.0</ele>
      </trkpt>
      <trkpt lat="42.772551" lon="-0.147663">
        <time>2023-03-20T11:21:28+00:00</time>
        <ele>3170.0</ele>
      </trkpt>
      <trkpt lat="42.772552" lon="-0.147668">
        <time>2023-03-20T11:21:34+00:00</time>
        <ele>3171.0</ele>
      </trkpt>
      <trkpt lat="42.772563" lon="-0.147707">
        <time>2023-03-20T11:22:00+00:00</time>
        <ele>3172.0</ele>
      </trkpt>
      <trkpt lat="42.772572" lon="-0.147715">
        <time>2023-03-20T11:22:39+00:00</time>
        <ele>3172.0</ele>
      </trkpt>
      <trkpt lat="42.772575" lon="-0.147717">
        <time>2023-03-20T11:22:55+00:00</time>
        <ele>3172.0</ele>
      </trkpt>
      <trkpt lat="42.772578" lon="-0.14772">
        <time>2023-03-20T11:22:56+00:00</time>
        <ele>3172.0</ele>
      </trkpt>
      <trkpt lat="42.772577" lon="-0.147719">
        <time>2023-03-20T11:22:57+00:00</time>
        <ele>3172.0</ele>
      </trkpt>
      <trkpt lat="42.772576" lon="-0.147717">
        <time>2023-03-20T11:22:58+00:00</time>
        <ele>3172.0</ele>
      </trkpt>
      <trkpt lat="42.772576" lon="-0.147707">
        <time>2023-03-20T11:23:05+00:00</time>
        <ele>3172.0</ele>
      </trkpt>
      <trkpt lat="42.77257" lon="-0.147697">
        <time>2023-03-20T11:23:12+00:00</time>
        <ele>3172.0</ele>
      </trkpt>
      <trkpt lat="42.772565" lon="-0.147697">
        <time>2023-03-20T11:23:25+00:00</time>
        <ele>3171.0</ele>
      </trkpt>
      <trkpt lat="42.772543" lon="-0.14767">
        <time>2023-03-20T11:23:48+00:00</time>
        <ele>3170.0</ele>
      </trkpt>
      <trkpt lat="42.77255" lon="-0.147669">
        <time>2023-03-20T11:24:08+00:00</time>
        <ele>3171.0</ele>
      </trkpt>
      <trkpt lat="42.772552" lon="-0.147672">
        <time>2023-03-20T11:24:23+00:00</time>
        <ele>3171.0</ele>
      </trkpt>
      <trkpt lat="42.772549" lon="-0.147662">
        <time>2023-03-20T11:24:48+00:00</time>
        <ele>3170.0</ele>
      </trkpt>
      <trkpt lat="42.772518" lon="-0.147175">
        <time>2023-03-20T11:24:55+00:00</time>
        <ele>3161.0</ele>
      </trkpt>
      <trkpt lat="42.772504" lon="-0.146918">
        <time>2023-03-20T11:24:57+00:00</time>
        <ele>3155.0</ele>
      </trkpt>
      <trkpt lat="42.772479" lon="-0.146601">
        <time>2023-03-20T11:24:59+00:00</time>
        <ele>3148.0</ele>
      </trkpt>
      <trkpt lat="42.772489" lon="-0.146279">
        <time>2023-03-20T11:25:01+00:00</time>
        <ele>3142.0</ele>
      </trkpt>
      <trkpt lat="42.772418" lon="-0.145854">
        <time>2023-03-20T11:25:04+00:00</time>
        <ele>3138.0</ele>
      </trkpt>
      <trkpt lat="42.772426" lon="-0.145722">
        <time>2023-03-20T11:25:05+00:00</time>
        <ele>3136.0</ele>
      </trkpt>
      <trkpt lat="42.77245" lon="-0.145476">
        <time>2023-03-20T11:25:07+00:00</time>
        <ele>3135.0</ele>
      </trkpt>
      <trkpt lat="42.772398" lon="-0.145243">
        <time>2023-03-20T11:25:09+00:00</time>
        <ele>3133.0</ele>
      </trkpt>
      <trkpt lat="42.772386" lon="-0.144864">
        <time>2023-03-20T11:25:12+00:00</time>
        <ele>3131.0</ele>
      </trkpt>
      <trkpt lat="42.772387" lon="-0.144743">
        <time>2023-03-20T11:25:13+00:00</time>
        <ele>3130.0</ele>
      </trkpt>
      <trkpt lat="42.772368" lon="-0.14449">
        <time>2023-03-20T11:25:15+00:00</time>
        <ele>3127.0</ele>
      </trkpt>
      <trkpt lat="42.772345" lon="-0.144221">
        <time>2023-03-20T11:25:17+00:00</time>
        <ele>3125.0</ele>
      </trkpt>
      <trkpt lat="42.772339" lon="-0.14408">
        <time>2023-03-20T11:25:18+00:00</time>
        <ele>3123.0</ele>
      </trkpt>
      <trkpt lat="42.772253" lon="-0.143808">
        <time>2023-03-20T11:25:20+00:00</time>
        <ele>3118.0</ele>
      </trkpt>
      <trkpt lat="42.772184" lon="-0.143358">
        <time>2023-03-20T11:25:23+00:00</time>
        <ele>3110.0</ele>
      </trkpt>
      <trkpt lat="42.772184" lon="-0.142927">
        <time>2023-03-20T11:25:26+00:00</time>
        <ele>3106.0</ele>
      </trkpt>
      <trkpt lat="42.772199" lon="-0.142546">
        <time>2023-03-20T11:25:29+00:00</time>
        <ele>3101.0</ele>
      </trkpt>
      <trkpt lat="42.772195" lon="-0.142198">
        <time>2023-03-20T11:25:32+00:00</time>
        <ele>3098.0</ele>
      </trkpt>
      <trkpt lat="42.772183" lon="-0.141849">
        <time>2023-03-20T11:25:35+00:00</time>
        <ele>3094.0</ele>
      </trkpt>
      <trkpt lat="42.772118" lon="-0.141645">
        <time>2023-03-20T11:25:37+00:00</time>
        <ele>3090.0</ele>
      </trkpt>
      <trkpt lat="42.772016" lon="-0.141454">
        <time>2023-03-20T11:25:39+00:00</time>
        <ele>3085.0</ele>
      </trkpt>
      <trkpt lat="42.772013" lon="-0.141337">
        <time>2023-03-20T11:25:40+00:00</time>
        <ele>3083.0</ele>
      </trkpt>
      <trkpt lat="42.771966" lon="-0.14089">
        <time>2023-03-20T11:25:45+00:00</time>
        <ele>3074.0</ele>
      </trkpt>
      <trkpt lat="42.771962" lon="-0.140837">
        <time>2023-03-20T11:25:46+00:00</time>
        <ele>3073.0</ele>
      </trkpt>
      <trkpt lat="42.771964" lon="-0.140843">
        <time>2023-03-20T11:25:48+00:00</time>
        <ele>3073.0</ele>
      </trkpt>
      <trkpt lat="42.771975" lon="-0.140833">
        <time>2023-03-20T11:25:56+00:00</time>
        <ele>3073.0</ele>
      </trkpt>
      <trkpt lat="42.771966" lon="-0.140689">
        <time>2023-03-20T11:26:00+00:00</time>
        <ele>3070.0</ele>
      </trkpt>
      <trkpt lat="42.771878" lon="-0.140531">
        <time>2023-03-20T11:26:03+00:00</time>
        <ele>3065.0</ele>
      </trkpt>
      <trkpt lat="42.771856" lon="-0.140456">
        <time>2023-03-20T11:26:04+00:00</time>
        <ele>3062.0</ele>
      </trkpt>
      <trkpt lat="42.771899" lon="-0.140296">
        <time>2023-03-20T11:26:06+00:00</time>
        <ele>3060.0</ele>
      </trkpt>
      <trkpt lat="42.771929" lon="-0.14022">
        <time>2023-03-20T11:26:07+00:00</time>
        <ele>3059.0</ele>
      </trkpt>
      <trkpt lat="42.771979" lon="-0.140069">
        <time>2023-03-20T11:26:09+00:00</time>
        <ele>3056.0</ele>
      </trkpt>
      <trkpt lat="42.771894" lon="-0.139943">
        <time>2023-03-20T11:26:12+00:00</time>
        <ele>3051.0</ele>
      </trkpt>
      <trkpt lat="42.771853" lon="-0.13992">
        <time>2023-03-20T11:26:13+00:00</time>
        <ele>3050.0</ele>
      </trkpt>
      <trkpt lat="42.771846" lon="-0.139877">
        <time>2023-03-20T11:26:14+00:00</time>
        <ele>3049.0</ele>
      </trkpt>
      <trkpt lat="42.771858" lon="-0.139859">
        <time>2023-03-20T11:26:16+00:00</time>
        <ele>3048.0</ele>
      </trkpt>
      <trkpt lat="42.771858" lon="-0.139872">
        <time>2023-03-20T11:26:30+00:00</time>
        <ele>3049.0</ele>
      </trkpt>
      <trkpt lat="42.771736" lon="-0.139767">
        <time>2023-03-20T11:26:34+00:00</time>
        <ele>3043.0</ele>
      </trkpt>
      <trkpt lat="42.771637" lon="-0.139637">
        <time>2023-03-20T11:26:36+00:00</time>
        <ele>3038.0</ele>
      </trkpt>
      <trkpt lat="42.771584" lon="-0.139466">
        <time>2023-03-20T11:26:38+00:00</time>
        <ele>3032.0</ele>
      </trkpt>
      <trkpt lat="42.77154" lon="-0.139278">
        <time>2023-03-20T11:26:40+00:00</time>
        <ele>3026.0</ele>
      </trkpt>
      <trkpt lat="42.771492" lon="-0.139108">
        <time>2023-03-20T11:26:42+00:00</time>
        <ele>3022.0</ele>
      </trkpt>
      <trkpt lat="42.771491" lon="-0.13901">
        <time>2023-03-20T11:26:43+00:00</time>
        <ele>3019.0</ele>
      </trkpt>
      <trkpt lat="42.771461" lon="-0.138837">
        <time>2023-03-20T11:26:45+00:00</time>
        <ele>3013.0</ele>
      </trkpt>
      <trkpt lat="42.771454" lon="-0.138571">
        <time>2023-03-20T11:26:48+00:00</time>
        <ele>3004.0</ele>
      </trkpt>
      <trkpt lat="42.771451" lon="-0.138479">
        <time>2023-03-20T11:26:49+00:00</time>
        <ele>3000.0</ele>
      </trkpt>
      <trkpt lat="42.77144" lon="-0.138291">
        <time>2023-03-20T11:26:51+00:00</time>
        <ele>2994.0</ele>
      </trkpt>
      <trkpt lat="42.771429" lon="-0.138093">
        <time>2023-03-20T11:26:53+00:00</time>
        <ele>2987.0</ele>
      </trkpt>
      <trkpt lat="42.77141" lon="-0.137896">
        <time>2023-03-20T11:26:55+00:00</time>
        <ele>2981.0</ele>
      </trkpt>
      <trkpt lat="42.771397" lon="-0.137703">
        <time>2023-03-20T11:26:57+00:00</time>
        <ele>2975.0</ele>
      </trkpt>
      <trkpt lat="42.771406" lon="-0.137618">
        <time>2023-03-20T11:26:58+00:00</time>
        <ele>2973.0</ele>
      </trkpt>
      <trkpt lat="42.771429" lon="-0.137445">
        <time>2023-03-20T11:27:00+00:00</time>
        <ele>2968.0</ele>
      </trkpt>
      <trkpt lat="42.771427" lon="-0.137232">
        <time>2023-03-20T11:27:03+00:00</time>
        <ele>2961.0</ele>
      </trkpt>
      <trkpt lat="42.771447" lon="-0.137228">
        <time>2023-03-20T11:27:04+00:00</time>
        <ele>2961.0</ele>
      </trkpt>
      <trkpt lat="42.77146" lon="-0.137235">
        <time>2023-03-20T11:27:05+00:00</time>
        <ele>2961.0</ele>
      </trkpt>
      <trkpt lat="42.771454" lon="-0.137239">
        <time>2023-03-20T11:27:24+00:00</time>
        <ele>2961.0</ele>
      </trkpt>
      <trkpt lat="42.771452" lon="-0.137235">
        <time>2023-03-20T11:27:54+00:00</time>
        <ele>2961.0</ele>
      </trkpt>
      <trkpt lat="42.771459" lon="-0.137086">
        <time>2023-03-20T11:27:58+00:00</time>
        <ele>2956.0</ele>
      </trkpt>
      <trkpt lat="42.771327" lon="-0.13676">
        <time>2023-03-20T11:28:03+00:00</time>
        <ele>2948.0</ele>
      </trkpt>
      <trkpt lat="42.771232" lon="-0.136663">
        <time>2023-03-20T11:28:05+00:00</time>
        <ele>2946.0</ele>
      </trkpt>
      <trkpt lat="42.771033" lon="-0.136383">
        <time>2023-03-20T11:28:10+00:00</time>
        <ele>2940.0</ele>
      </trkpt>
      <trkpt lat="42.770993" lon="-0.136228">
        <time>2023-03-20T11:28:12+00:00</time>
        <ele>2936.0</ele>
      </trkpt>
      <trkpt lat="42.77094" lon="-0.136078">
        <time>2023-03-20T11:28:14+00:00</time>
        <ele>2932.0</ele>
      </trkpt>
      <trkpt lat="42.770896" lon="-0.135922">
        <time>2023-03-20T11:28:16+00:00</time>
        <ele>2927.0</ele>
      </trkpt>
      <trkpt lat="42.770891" lon="-0.135642">
        <time>2023-03-20T11:28:19+00:00</time>
        <ele>2916.0</ele>
      </trkpt>
      <trkpt lat="42.770889" lon="-0.135444">
        <time>2023-03-20T11:28:21+00:00</time>
        <ele>2908.0</ele>
      </trkpt>
      <trkpt lat="42.770895" lon="-0.13534">
        <time>2023-03-20T11:28:22+00:00</time>
        <ele>2904.0</ele>
      </trkpt>
      <trkpt lat="42.770888" lon="-0.135151">
        <time>2023-03-20T11:28:24+00:00</time>
        <ele>2896.0</ele>
      </trkpt>
      <trkpt lat="42.770901" lon="-0.135019">
        <time>2023-03-20T11:28:26+00:00</time>
        <ele>2891.0</ele>
      </trkpt>
      <trkpt lat="42.770914" lon="-0.13472">
        <time>2023-03-20T11:28:30+00:00</time>
        <ele>2879.0</ele>
      </trkpt>
      <trkpt lat="42.771125" lon="-0.134505">
        <time>2023-03-20T11:28:35+00:00</time>
        <ele>2873.0</ele>
      </trkpt>
      <trkpt lat="42.77117" lon="-0.134279">
        <time>2023-03-20T11:28:38+00:00</time>
        <ele>2868.0</ele>
      </trkpt>
      <trkpt lat="42.771194" lon="-0.134113">
        <time>2023-03-20T11:28:40+00:00</time>
        <ele>2863.0</ele>
      </trkpt>
      <trkpt lat="42.771263" lon="-0.134048">
        <time>2023-03-20T11:28:43+00:00</time>
        <ele>2861.0</ele>
      </trkpt>
      <trkpt lat="42.771276" lon="-0.134075">
        <time>2023-03-20T11:28:54+00:00</time>
        <ele>2861.0</ele>
      </trkpt>
      <trkpt lat="42.771274" lon="-0.134069">
        <time>2023-03-20T11:29:18+00:00</time>
        <ele>2861.0</ele>
      </trkpt>
      <trkpt lat="42.771279" lon="-0.134068">
        <time>2023-03-20T11:29:43+00:00</time>
        <ele>2861.0</ele>
      </trkpt>
      <trkpt lat="42.771274" lon="-0.134072">
        <time>2023-03-20T11:30:08+00:00</time>
        <ele>2861.0</ele>
      </trkpt>
      <trkpt lat="42.771279" lon="-0.134071">
        <time>2023-03-20T11:30:25+00:00</time>
        <ele>2861.0</ele>
      </trkpt>
      <trkpt lat="42.771249" lon="-0.133928">
        <time>2023-03-20T11:30:30+00:00</time>
        <ele>2857.0</ele>
      </trkpt>
      <trkpt lat="42.771231" lon="-0.133916">
        <time>2023-03-20T11:30:31+00:00</time>
        <ele>2856.0</ele>
      </trkpt>
      <trkpt lat="42.77118" lon="-0.133883">
        <time>2023-03-20T11:30:33+00:00</time>
        <ele>2856.0</ele>
      </trkpt>
      <trkpt lat="42.771171" lon="-0.133698">
        <time>2023-03-20T11:30:37+00:00</time>
        <ele>2851.0</ele>
      </trkpt>
      <trkpt lat="42.771218" lon="-0.133527">
        <time>2023-03-20T11:30:40+00:00</time>
        <ele>2847.0</ele>
      </trkpt>
      <trkpt lat="42.771252" lon="-0.133397">
        <time>2023-03-20T11:30:42+00:00</time>
        <ele>2843.0</ele>
      </trkpt>
      <trkpt lat="42.771331" lon="-0.133337">
        <time>2023-03-20T11:30:44+00:00</time>
        <ele>2839.0</ele>
      </trkpt>
      <trkpt lat="42.771405" lon="-0.133265">
        <time>2023-03-20T11:30:46+00:00</time>
        <ele>2835.0</ele>
      </trkpt>
      <trkpt lat="42.771446" lon="-0.133239">
        <time>2023-03-20T11:30:47+00:00</time>
        <ele>2833.0</ele>
      </trkpt>
      <trkpt lat="42.77154" lon="-0.133194">
        <time>2023-03-20T11:30:49+00:00</time>
        <ele>2828.0</ele>
      </trkpt>
      <trkpt lat="42.771582" lon="-0.133187">
        <time>2023-03-20T11:30:50+00:00</time>
        <ele>2826.0</ele>
      </trkpt>
      <trkpt lat="42.771618" lon="-0.13313">
        <time>2023-03-20T11:30:51+00:00</time>
        <ele>2823.0</ele>
      </trkpt>
      <trkpt lat="42.771707" lon="-0.133092">
        <time>2023-03-20T11:30:53+00:00</time>
        <ele>2817.0</ele>
      </trkpt>
      <trkpt lat="42.771742" lon="-0.133028">
        <time>2023-03-20T11:30:54+00:00</time>
        <ele>2814.0</ele>
      </trkpt>
      <trkpt lat="42.771836" lon="-0.132932">
        <time>2023-03-20T11:30:56+00:00</time>
        <ele>2807.0</ele>
      </trkpt>
      <trkpt lat="42.771874" lon="-0.132875">
        <time>2023-03-20T11:30:57+00:00</time>
        <ele>2804.0</ele>
      </trkpt>
      <trkpt lat="42.771943" lon="-0.132767">
        <time>2023-03-20T11:30:59+00:00</time>
        <ele>2799.0</ele>
      </trkpt>
      <trkpt lat="42.77193" lon="-0.132694">
        <time>2023-03-20T11:31:00+00:00</time>
        <ele>2798.0</ele>
      </trkpt>
      <trkpt lat="42.771886" lon="-0.132544">
        <time>2023-03-20T11:31:02+00:00</time>
        <ele>2796.0</ele>
      </trkpt>
      <trkpt lat="42.771939" lon="-0.132354">
        <time>2023-03-20T11:31:05+00:00</time>
        <ele>2790.0</ele>
      </trkpt>
      <trkpt lat="42.772025" lon="-0.132242">
        <time>2023-03-20T11:31:07+00:00</time>
        <ele>2786.0</ele>
      </trkpt>
      <trkpt lat="42.772116" lon="-0.132141">
        <time>2023-03-20T11:31:09+00:00</time>
        <ele>2784.0</ele>
      </trkpt>
      <trkpt lat="42.772286" lon="-0.13193">
        <time>2023-03-20T11:31:13+00:00</time>
        <ele>2776.0</ele>
      </trkpt>
      <trkpt lat="42.77234" lon="-0.131886">
        <time>2023-03-20T11:31:14+00:00</time>
        <ele>2774.0</ele>
      </trkpt>
      <trkpt lat="42.772361" lon="-0.131813">
        <time>2023-03-20T11:31:15+00:00</time>
        <ele>2772.0</ele>
      </trkpt>
      <trkpt lat="42.772426" lon="-0.131626">
        <time>2023-03-20T11:31:18+00:00</time>
        <ele>2765.0</ele>
      </trkpt>
      <trkpt lat="42.772494" lon="-0.131541">
        <time>2023-03-20T11:31:20+00:00</time>
        <ele>2761.0</ele>
      </trkpt>
      <trkpt lat="42.772573" lon="-0.131529">
        <time>2023-03-20T11:31:22+00:00</time>
        <ele>2759.0</ele>
      </trkpt>
      <trkpt lat="42.772646" lon="-0.131406">
        <time>2023-03-20T11:31:24+00:00</time>
        <ele>2754.0</ele>
      </trkpt>
      <trkpt lat="42.772724" lon="-0.131264">
        <time>2023-03-20T11:31:26+00:00</time>
        <ele>2749.0</ele>
      </trkpt>
      <trkpt lat="42.772785" lon="-0.131117">
        <time>2023-03-20T11:31:28+00:00</time>
        <ele>2745.0</ele>
      </trkpt>
      <trkpt lat="42.772893" lon="-0.13098">
        <time>2023-03-20T11:31:31+00:00</time>
        <ele>2739.0</ele>
      </trkpt>
      <trkpt lat="42.772904" lon="-0.130985">
        <time>2023-03-20T11:31:33+00:00</time>
        <ele>2739.0</ele>
      </trkpt>
      <trkpt lat="42.772909" lon="-0.130997">
        <time>2023-03-20T11:31:53+00:00</time>
        <ele>2739.0</ele>
      </trkpt>
      <trkpt lat="42.772913" lon="-0.130997">
        <time>2023-03-20T11:32:14+00:00</time>
        <ele>2739.0</ele>
      </trkpt>
      <trkpt lat="42.772919" lon="-0.130993">
        <time>2023-03-20T11:32:33+00:00</time>
        <ele>2739.0</ele>
      </trkpt>
      <trkpt lat="42.77292" lon="-0.130985">
        <time>2023-03-20T11:33:00+00:00</time>
        <ele>2738.0</ele>
      </trkpt>
      <trkpt lat="42.772934" lon="-0.131">
        <time>2023-03-20T11:33:07+00:00</time>
        <ele>2738.0</ele>
      </trkpt>
      <trkpt lat="42.772983" lon="-0.130757">
        <time>2023-03-20T11:33:12+00:00</time>
        <ele>2733.0</ele>
      </trkpt>
      <trkpt lat="42.773007" lon="-0.130604">
        <time>2023-03-20T11:33:14+00:00</time>
        <ele>2730.0</ele>
      </trkpt>
      <trkpt lat="42.773062" lon="-0.130487">
        <time>2023-03-20T11:33:16+00:00</time>
        <ele>2726.0</ele>
      </trkpt>
      <trkpt lat="42.773123" lon="-0.130418">
        <time>2023-03-20T11:33:18+00:00</time>
        <ele>2723.0</ele>
      </trkpt>
      <trkpt lat="42.773197" lon="-0.130333">
        <time>2023-03-20T11:33:20+00:00</time>
        <ele>2718.0</ele>
      </trkpt>
      <trkpt lat="42.773248" lon="-0.130296">
        <time>2023-03-20T11:33:21+00:00</time>
        <ele>2715.0</ele>
      </trkpt>
      <trkpt lat="42.773317" lon="-0.13029">
        <time>2023-03-20T11:33:22+00:00</time>
        <ele>2712.0</ele>
      </trkpt>
      <trkpt lat="42.773364" lon="-0.130244">
        <time>2023-03-20T11:33:23+00:00</time>
        <ele>2708.0</ele>
      </trkpt>
      <trkpt lat="42.77339" lon="-0.130159">
        <time>2023-03-20T11:33:24+00:00</time>
        <ele>2706.0</ele>
      </trkpt>
      <trkpt lat="42.773494" lon="-0.130066">
        <time>2023-03-20T11:33:26+00:00</time>
        <ele>2698.0</ele>
      </trkpt>
      <trkpt lat="42.773531" lon="-0.130001">
        <time>2023-03-20T11:33:27+00:00</time>
        <ele>2695.0</ele>
      </trkpt>
      <trkpt lat="42.773606" lon="-0.12988">
        <time>2023-03-20T11:33:29+00:00</time>
        <ele>2690.0</ele>
      </trkpt>
      <trkpt lat="42.773685" lon="-0.129764">
        <time>2023-03-20T11:33:31+00:00</time>
        <ele>2685.0</ele>
      </trkpt>
      <trkpt lat="42.77378" lon="-0.129655">
        <time>2023-03-20T11:33:33+00:00</time>
        <ele>2680.0</ele>
      </trkpt>
      <trkpt lat="42.773901" lon="-0.129619">
        <time>2023-03-20T11:33:35+00:00</time>
        <ele>2675.0</ele>
      </trkpt>
      <trkpt lat="42.773994" lon="-0.129543">
        <time>2023-03-20T11:33:37+00:00</time>
        <ele>2670.0</ele>
      </trkpt>
      <trkpt lat="42.774084" lon="-0.129556">
        <time>2023-03-20T11:33:39+00:00</time>
        <ele>2667.0</ele>
      </trkpt>
      <trkpt lat="42.774152" lon="-0.12948">
        <time>2023-03-20T11:33:41+00:00</time>
        <ele>2663.0</ele>
      </trkpt>
      <trkpt lat="42.774246" lon="-0.12954">
        <time>2023-03-20T11:33:43+00:00</time>
        <ele>2660.0</ele>
      </trkpt>
      <trkpt lat="42.77441" lon="-0.129501">
        <time>2023-03-20T11:33:46+00:00</time>
        <ele>2651.0</ele>
      </trkpt>
      <trkpt lat="42.774527" lon="-0.129397">
        <time>2023-03-20T11:33:48+00:00</time>
        <ele>2644.0</ele>
      </trkpt>
      <trkpt lat="42.774609" lon="-0.129408">
        <time>2023-03-20T11:33:49+00:00</time>
        <ele>2640.0</ele>
      </trkpt>
      <trkpt lat="42.774778" lon="-0.129419">
        <time>2023-03-20T11:33:51+00:00</time>
        <ele>2632.0</ele>
      </trkpt>
      <trkpt lat="42.774903" lon="-0.129244">
        <time>2023-03-20T11:33:53+00:00</time>
        <ele>2629.0</ele>
      </trkpt>
      <trkpt lat="42.775055" lon="-0.129093">
        <time>2023-03-20T11:33:55+00:00</time>
        <ele>2628.0</ele>
      </trkpt>
      <trkpt lat="42.775175" lon="-0.128954">
        <time>2023-03-20T11:33:57+00:00</time>
        <ele>2627.0</ele>
      </trkpt>
      <trkpt lat="42.775256" lon="-0.128837">
        <time>2023-03-20T11:33:59+00:00</time>
        <ele>2627.0</ele>
      </trkpt>
      <trkpt lat="42.775694" lon="-0.128392">
        <time>2023-03-20T11:34:10+00:00</time>
        <ele>2624.0</ele>
      </trkpt>
      <trkpt lat="42.77586" lon="-0.128252">
        <time>2023-03-20T11:34:14+00:00</time>
        <ele>2622.0</ele>
      </trkpt>
      <trkpt lat="42.775929" lon="-0.128166">
        <time>2023-03-20T11:34:16+00:00</time>
        <ele>2620.0</ele>
      </trkpt>
      <trkpt lat="42.776057" lon="-0.127902">
        <time>2023-03-20T11:34:19+00:00</time>
        <ele>2613.0</ele>
      </trkpt>
      <trkpt lat="42.776129" lon="-0.127621">
        <time>2023-03-20T11:34:21+00:00</time>
        <ele>2609.0</ele>
      </trkpt>
      <trkpt lat="42.776141" lon="-0.127458">
        <time>2023-03-20T11:34:22+00:00</time>
        <ele>2607.0</ele>
      </trkpt>
      <trkpt lat="42.776161" lon="-0.127036">
        <time>2023-03-20T11:34:26+00:00</time>
        <ele>2601.0</ele>
      </trkpt>
      <trkpt lat="42.776191" lon="-0.126636">
        <time>2023-03-20T11:34:32+00:00</time>
        <ele>2594.0</ele>
      </trkpt>
      <trkpt lat="42.77619" lon="-0.126606">
        <time>2023-03-20T11:34:43+00:00</time>
        <ele>2593.0</ele>
      </trkpt>
      <trkpt lat="42.776191" lon="-0.126591">
        <time>2023-03-20T11:34:54+00:00</time>
        <ele>2593.0</ele>
      </trkpt>
      <trkpt lat="42.776189" lon="-0.126535">
        <time>2023-03-20T11:34:58+00:00</time>
        <ele>2591.0</ele>
      </trkpt>
      <trkpt lat="42.776186" lon="-0.126549">
        <time>2023-03-20T11:35:22+00:00</time>
        <ele>2592.0</ele>
      </trkpt>
      <trkpt lat="42.77619" lon="-0.126552">
        <time>2023-03-20T11:35:34+00:00</time>
        <ele>2592.0</ele>
      </trkpt>
      <trkpt lat="42.77622" lon="-0.126354">
        <time>2023-03-20T11:35:38+00:00</time>
        <ele>2586.0</ele>
      </trkpt>
      <trkpt lat="42.776265" lon="-0.126205">
        <time>2023-03-20T11:35:40+00:00</time>
        <ele>2582.0</ele>
      </trkpt>
      <trkpt lat="42.776287" lon="-0.126129">
        <time>2023-03-20T11:35:41+00:00</time>
        <ele>2580.0</ele>
      </trkpt>
      <trkpt lat="42.776277" lon="-0.126037">
        <time>2023-03-20T11:35:42+00:00</time>
        <ele>2577.0</ele>
      </trkpt>
      <trkpt lat="42.776316" lon="-0.125845">
        <time>2023-03-20T11:35:44+00:00</time>
        <ele>2571.0</ele>
      </trkpt>
      <trkpt lat="42.77629" lon="-0.125756">
        <time>2023-03-20T11:35:45+00:00</time>
        <ele>2568.0</ele>
      </trkpt>
      <trkpt lat="42.776275" lon="-0.125554">
        <time>2023-03-20T11:35:47+00:00</time>
        <ele>2562.0</ele>
      </trkpt>
      <trkpt lat="42.776257" lon="-0.125454">
        <time>2023-03-20T11:35:48+00:00</time>
        <ele>2559.0</ele>
      </trkpt>
      <trkpt lat="42.776244" lon="-0.125238">
        <time>2023-03-20T11:35:50+00:00</time>
        <ele>2553.0</ele>
      </trkpt>
      <trkpt lat="42.776208" lon="-0.125127">
        <time>2023-03-20T11:35:51+00:00</time>
        <ele>2549.0</ele>
      </trkpt>
      <trkpt lat="42.776201" lon="-0.125024">
        <time>2023-03-20T11:35:52+00:00</time>
        <ele>2546.0</ele>
      </trkpt>
      <trkpt lat="42.776201" lon="-0.124916">
        <time>2023-03-20T11:35:53+00:00</time>
        <ele>2543.0</ele>
      </trkpt>
      <trkpt lat="42.776159" lon="-0.124835">
        <time>2023-03-20T11:35:54+00:00</time>
        <ele>2540.0</ele>
      </trkpt>
      <trkpt lat="42.776119" lon="-0.124651">
        <time>2023-03-20T11:35:56+00:00</time>
        <ele>2534.0</ele>
      </trkpt>
      <trkpt lat="42.77606" lon="-0.12449">
        <time>2023-03-20T11:35:58+00:00</time>
        <ele>2528.0</ele>
      </trkpt>
      <trkpt lat="42.77606" lon="-0.124434">
        <time>2023-03-20T11:35:59+00:00</time>
        <ele>2526.0</ele>
      </trkpt>
      <trkpt lat="42.77607" lon="-0.124429">
        <time>2023-03-20T11:36:01+00:00</time>
        <ele>2526.0</ele>
      </trkpt>
      <trkpt lat="42.776067" lon="-0.124435">
        <time>2023-03-20T11:36:24+00:00</time>
        <ele>2526.0</ele>
      </trkpt>
      <trkpt lat="42.776066" lon="-0.124441">
        <time>2023-03-20T11:36:33+00:00</time>
        <ele>2527.0</ele>
      </trkpt>
      <trkpt lat="42.776073" lon="-0.12445">
        <time>2023-03-20T11:36:48+00:00</time>
        <ele>2527.0</ele>
      </trkpt>
      <trkpt lat="42.776067" lon="-0.12443">
        <time>2023-03-20T11:37:12+00:00</time>
        <ele>2526.0</ele>
      </trkpt>
      <trkpt lat="42.776059" lon="-0.124424">
        <time>2023-03-20T11:37:26+00:00</time>
        <ele>2526.0</ele>
      </trkpt>
      <trkpt lat="42.776084" lon="-0.12443">
        <time>2023-03-20T11:37:46+00:00</time>
        <ele>2526.0</ele>
      </trkpt>
      <trkpt lat="42.776089" lon="-0.124435">
        <time>2023-03-20T11:37:53+00:00</time>
        <ele>2527.0</ele>
      </trkpt>
      <trkpt lat="42.776124" lon="-0.124366">
        <time>2023-03-20T11:37:56+00:00</time>
        <ele>2525.0</ele>
      </trkpt>
      <trkpt lat="42.776181" lon="-0.124149">
        <time>2023-03-20T11:37:59+00:00</time>
        <ele>2521.0</ele>
      </trkpt>
      <trkpt lat="42.776256" lon="-0.123729">
        <time>2023-03-20T11:38:03+00:00</time>
        <ele>2515.0</ele>
      </trkpt>
      <trkpt lat="42.77635" lon="-0.123353">
        <time>2023-03-20T11:38:07+00:00</time>
        <ele>2512.0</ele>
      </trkpt>
      <trkpt lat="42.77637" lon="-0.123275">
        <time>2023-03-20T11:38:08+00:00</time>
        <ele>2512.0</ele>
      </trkpt>
      <trkpt lat="42.776409" lon="-0.123059">
        <time>2023-03-20T11:38:11+00:00</time>
        <ele>2510.0</ele>
      </trkpt>
      <trkpt lat="42.776434" lon="-0.12289">
        <time>2023-03-20T11:38:13+00:00</time>
        <ele>2508.0</ele>
      </trkpt>
      <trkpt lat="42.776504" lon="-0.122502">
        <time>2023-03-20T11:38:18+00:00</time>
        <ele>2506.0</ele>
      </trkpt>
      <trkpt lat="42.776552" lon="-0.122162">
        <time>2023-03-20T11:38:22+00:00</time>
        <ele>2504.0</ele>
      </trkpt>
      <trkpt lat="42.776585" lon="-0.121934">
        <time>2023-03-20T11:38:25+00:00</time>
        <ele>2502.0</ele>
      </trkpt>
      <trkpt lat="42.776616" lon="-0.121741">
        <time>2023-03-20T11:38:28+00:00</time>
        <ele>2501.0</ele>
      </trkpt>
      <trkpt lat="42.776653" lon="-0.121454">
        <time>2023-03-20T11:38:34+00:00</time>
        <ele>2497.0</ele>
      </trkpt>
      <trkpt lat="42.776666" lon="-0.121201">
        <time>2023-03-20T11:38:41+00:00</time>
        <ele>2494.0</ele>
      </trkpt>
      <trkpt lat="42.776655" lon="-0.121113">
        <time>2023-03-20T11:38:44+00:00</time>
        <ele>2491.0</ele>
      </trkpt>
      <trkpt lat="42.776643" lon="-0.121086">
        <time>2023-03-20T11:38:53+00:00</time>
        <ele>2490.0</ele>
      </trkpt>
      <trkpt lat="42.776641" lon="-0.12108">
        <time>2023-03-20T11:39:10+00:00</time>
        <ele>2490.0</ele>
      </trkpt>
      <trkpt lat="42.776647" lon="-0.121097">
        <time>2023-03-20T11:39:39+00:00</time>
        <ele>2490.0</ele>
      </trkpt>
      <trkpt lat="42.77665" lon="-0.121096">
        <time>2023-03-20T11:39:52+00:00</time>
        <ele>2491.0</ele>
      </trkpt>
      <trkpt lat="42.776652" lon="-0.121072">
        <time>2023-03-20T11:40:04+00:00</time>
        <ele>2490.0</ele>
      </trkpt>
      <trkpt lat="42.776647" lon="-0.121095">
        <time>2023-03-20T11:40:30+00:00</time>
        <ele>2490.0</ele>
      </trkpt>
      <trkpt lat="42.776641" lon="-0.121107">
        <time>2023-03-20T11:41:07+00:00</time>
        <ele>2490.0</ele>
      </trkpt>
      <trkpt lat="42.776644" lon="-0.121107">
        <time>2023-03-20T11:41:36+00:00</time>
        <ele>2490.0</ele>
      </trkpt>
      <trkpt lat="42.776646" lon="-0.12112">
        <time>2023-03-20T11:42:02+00:00</time>
        <ele>2491.0</ele>
      </trkpt>
      <trkpt lat="42.776652" lon="-0.121099">
        <time>2023-03-20T11:42:21+00:00</time>
        <ele>2491.0</ele>
      </trkpt>
      <trkpt lat="42.776655" lon="-0.121095">
        <time>2023-03-20T11:42:22+00:00</time>
        <ele>2491.0</ele>
      </trkpt>
      <trkpt lat="42.776656" lon="-0.121094">
        <time>2023-03-20T11:42:24+00:00</time>
        <ele>2491.0</ele>
      </trkpt>
      <trkpt lat="42.776657" lon="-0.121095">
        <time>2023-03-20T11:42:25+00:00</time>
        <ele>2491.0</ele>
      </trkpt>
      <trkpt lat="42.776667" lon="-0.121088">
        <time>2023-03-20T11:42:49+00:00</time>
        <ele>2492.0</ele>
      </trkpt>
      <trkpt lat="42.776669" lon="-0.121092">
        <time>2023-03-20T11:42:54+00:00</time>
        <ele>2492.0</ele>
      </trkpt>
      <trkpt lat="42.776672" lon="-0.121095">
        <time>2023-03-20T11:42:56+00:00</time>
        <ele>2493.0</ele>
      </trkpt>
      <trkpt lat="42.776679" lon="-0.1211">
        <time>2023-03-20T11:43:00+00:00</time>
        <ele>2493.0</ele>
      </trkpt>
      <trkpt lat="42.77668" lon="-0.1211">
        <time>2023-03-20T11:43:01+00:00</time>
        <ele>2493.0</ele>
      </trkpt>
      <trkpt lat="42.776681" lon="-0.1211">
        <time>2023-03-20T11:43:02+00:00</time>
        <ele>2494.0</ele>
      </trkpt>
      <trkpt lat="42.776682" lon="-0.121099">
        <time>2023-03-20T11:43:04+00:00</time>
        <ele>2494.0</ele>
      </trkpt>
      <trkpt lat="42.776686" lon="-0.121086">
        <time>2023-03-20T11:43:19+00:00</time>
        <ele>2494.0</ele>
      </trkpt>
      <trkpt lat="42.776687" lon="-0.12108">
        <time>2023-03-20T11:43:26+00:00</time>
        <ele>2494.0</ele>
      </trkpt>
      <trkpt lat="42.776688" lon="-0.121079">
        <time>2023-03-20T11:43:28+00:00</time>
        <ele>2494.0</ele>
      </trkpt>
      <trkpt lat="42.776689" lon="-0.121079">
        <time>2023-03-20T11:43:29+00:00</time>
        <ele>2494.0</ele>
      </trkpt>
      <trkpt lat="42.776689" lon="-0.121077">
        <time>2023-03-20T11:43:37+00:00</time>
        <ele>2494.0</ele>
      </trkpt>
      <trkpt lat="42.776691" lon="-0.121077">
        <time>2023-03-20T11:43:39+00:00</time>
        <ele>2494.0</ele>
      </trkpt>
      <trkpt lat="42.77669" lon="-0.121077">
        <time>2023-03-20T11:43:41+00:00</time>
        <ele>2494.0</ele>
      </trkpt>
      <trkpt lat="42.776688" lon="-0.121075">
        <time>2023-03-20T11:43:43+00:00</time>
        <ele>2494.0</ele>
      </trkpt>
      <trkpt lat="42.776689" lon="-0.121076">
        <time>2023-03-20T11:43:46+00:00</time>
        <ele>2494.0</ele>
      </trkpt>
      <trkpt lat="42.776688" lon="-0.121079">
        <time>2023-03-20T11:43:49+00:00</time>
        <ele>2494.0</ele>
      </trkpt>
      <trkpt lat="42.77669" lon="-0.121081">
        <time>2023-03-20T11:43:55+00:00</time>
        <ele>2494.0</ele>
      </trkpt>
      <trkpt lat="42.776689" lon="-0.121078">
        <time>2023-03-20T11:43:57+00:00</time>
        <ele>2494.0</ele>
      </trkpt>
      <trkpt lat="42.776689" lon="-0.121079">
        <time>2023-03-20T11:43:58+00:00</time>
        <ele>2494.0</ele>
      </trkpt>
      <trkpt lat="42.776689" lon="-0.121079">
        <time>2023-03-20T11:43:59+00:00</time>
        <ele>2494.0</ele>
      </trkpt>
      <trkpt lat="42.776688" lon="-0.121082">
        <time>2023-03-20T11:44:01+00:00</time>
        <ele>2494.0</ele>
      </trkpt>
      <trkpt lat="42.776687" lon="-0.121082">
        <time>2023-03-20T11:44:03+00:00</time>
        <ele>2494.0</ele>
      </trkpt>
      <trkpt lat="42.776686" lon="-0.121082">
        <time>2023-03-20T11:44:05+00:00</time>
        <ele>2494.0</ele>
      </trkpt>
      <trkpt lat="42.776685" lon="-0.121082">
        <time>2023-03-20T11:44:06+00:00</time>
        <ele>2494.0</ele>
      </trkpt>
      <trkpt lat="42.776684" lon="-0.121078">
        <time>2023-03-20T11:44:11+00:00</time>
        <ele>2493.0</ele>
      </trkpt>
      <trkpt lat="42.776684" lon="-0.121077">
        <time>2023-03-20T11:44:12+00:00</time>
        <ele>2493.0</ele>
      </trkpt>
      <trkpt lat="42.776682" lon="-0.121076">
        <time>2023-03-20T11:44:14+00:00</time>
        <ele>2493.0</ele>
      </trkpt>
      <trkpt lat="42.776683" lon="-0.121075">
        <time>2023-03-20T11:44:15+00:00</time>
        <ele>2493.0</ele>
      </trkpt>
      <trkpt lat="42.776685" lon="-0.121073">
        <time>2023-03-20T11:44:16+00:00</time>
        <ele>2493.0</ele>
      </trkpt>
      <trkpt lat="42.776685" lon="-0.121072">
        <time>2023-03-20T11:44:17+00:00</time>
        <ele>2493.0</ele>
      </trkpt>
      <trkpt lat="42.776682" lon="-0.121071">
        <time>2023-03-20T11:44:19+00:00</time>
        <ele>2493.0</ele>
      </trkpt>
      <trkpt lat="42.77668" lon="-0.121069">
        <time>2023-03-20T11:44:21+00:00</time>
        <ele>2493.0</ele>
      </trkpt>
      <trkpt lat="42.776677" lon="-0.121071">
        <time>2023-03-20T11:44:36+00:00</time>
        <ele>2493.0</ele>
      </trkpt>
      <trkpt lat="42.776676" lon="-0.121071">
        <time>2023-03-20T11:44:37+00:00</time>
        <ele>2493.0</ele>
      </trkpt>
      <trkpt lat="42.776677" lon="-0.121071">
        <time>2023-03-20T11:44:38+00:00</time>
        <ele>2493.0</ele>
      </trkpt>
      <trkpt lat="42.776676" lon="-0.121071">
        <time>2023-03-20T11:44:45+00:00</time>
        <ele>2493.0</ele>
      </trkpt>
      <trkpt lat="42.776676" lon="-0.121071">
        <time>2023-03-20T11:44:46+00:00</time>
        <ele>2493.0</ele>
      </trkpt>
      <trkpt lat="42.776671" lon="-0.121075">
        <time>2023-03-20T11:44:56+00:00</time>
        <ele>2492.0</ele>
      </trkpt>
      <trkpt lat="42.776672" lon="-0.121078">
        <time>2023-03-20T11:44:57+00:00</time>
        <ele>2492.0</ele>
      </trkpt>
      <trkpt lat="42.776672" lon="-0.121078">
        <time>2023-03-20T11:45:01+00:00</time>
        <ele>2492.0</ele>
      </trkpt>
      <trkpt lat="42.77667" lon="-0.121077">
        <time>2023-03-20T11:45:03+00:00</time>
        <ele>2492.0</ele>
      </trkpt>
      <trkpt lat="42.776675" lon="-0.121077">
        <time>2023-03-20T11:45:12+00:00</time>
        <ele>2493.0</ele>
      </trkpt>
      <trkpt lat="42.776675" lon="-0.121078">
        <time>2023-03-20T11:45:13+00:00</time>
        <ele>2493.0</ele>
      </trkpt>
      <trkpt lat="42.77668" lon="-0.121086">
        <time>2023-03-20T11:45:43+00:00</time>
        <ele>2493.0</ele>
      </trkpt>
      <trkpt lat="42.776674" lon="-0.121092">
        <time>2023-03-20T11:45:52+00:00</time>
        <ele>2493.0</ele>
      </trkpt>
      <trkpt lat="42.776692" lon="-0.121082">
        <time>2023-03-20T11:46:03+00:00</time>
        <ele>2494.0</ele>
      </trkpt>
      <trkpt lat="42.776691" lon="-0.121083">
        <time>2023-03-20T11:46:04+00:00</time>
        <ele>2494.0</ele>
      </trkpt>
      <trkpt lat="42.776692" lon="-0.12108">
        <time>2023-03-20T11:46:17+00:00</time>
        <ele>2494.0</ele>
      </trkpt>
      <trkpt lat="42.776692" lon="-0.12108">
        <time>2023-03-20T11:46:18+00:00</time>
        <ele>2494.0</ele>
      </trkpt>
      <trkpt lat="42.776692" lon="-0.12108">
        <time>2023-03-20T11:46:19+00:00</time>
        <ele>2494.0</ele>
      </trkpt>
      <trkpt lat="42.776691" lon="-0.121081">
        <time>2023-03-20T11:46:21+00:00</time>
        <ele>2494.0</ele>
      </trkpt>
      <trkpt lat="42.77669" lon="-0.121076">
        <time>2023-03-20T11:46:56+00:00</time>
        <ele>2494.0</ele>
      </trkpt>
      <trkpt lat="42.776687" lon="-0.121071">
        <time>2023-03-20T11:47:00+00:00</time>
        <ele>2494.0</ele>
      </trkpt>
      <trkpt lat="42.776687" lon="-0.121073">
        <time>2023-03-20T11:47:01+00:00</time>
        <ele>2494.0</ele>
      </trkpt>
      <trkpt lat="42.776687" lon="-0.121074">
        <time>2023-03-20T11:47:06+00:00</time>
        <ele>2494.0</ele>
      </trkpt>
      <trkpt lat="42.776686" lon="-0.121074">
        <time>2023-03-20T11:47:07+00:00</time>
        <ele>2494.0</ele>
      </trkpt>
      <trkpt lat="42.776678" lon="-0.121077">
        <time>2023-03-20T11:47:16+00:00</time>
        <ele>2493.0</ele>
      </trkpt>
      <trkpt lat="42.776678" lon="-0.121077">
        <time>2023-03-20T11:47:17+00:00</time>
        <ele>2493.0</ele>
      </trkpt>
      <trkpt lat="42.776678" lon="-0.121076">
        <time>2023-03-20T11:47:18+00:00</time>
        <ele>2493.0</ele>
      </trkpt>
      <trkpt lat="42.776676" lon="-0.121075">
        <time>2023-03-20T11:47:20+00:00</time>
        <ele>2493.0</ele>
      </trkpt>
      <trkpt lat="42.776668" lon="-0.121077">
        <time>2023-03-20T11:47:47+00:00</time>
        <ele>2492.0</ele>
      </trkpt>
      <trkpt lat="42.776668" lon="-0.121077">
        <time>2023-03-20T11:47:49+00:00</time>
        <ele>2492.0</ele>
      </trkpt>
      <trkpt lat="42.776665" lon="-0.121078">
        <time>2023-03-20T11:48:00+00:00</time>
        <ele>2492.0</ele>
      </trkpt>
      <trkpt lat="42.776665" lon="-0.121077">
        <time>2023-03-20T11:48:01+00:00</time>
        <ele>2492.0</ele>
      </trkpt>
      <trkpt lat="42.776664" lon="-0.121078">
        <time>2023-03-20T11:48:02+00:00</time>
        <ele>2492.0</ele>
      </trkpt>
      <trkpt lat="42.776664" lon="-0.121079">
        <time>2023-03-20T11:48:05+00:00</time>
        <ele>2492.0</ele>
      </trkpt>
      <trkpt lat="42.776666" lon="-0.121082">
        <time>2023-03-20T11:48:06+00:00</time>
        <ele>2492.0</ele>
      </trkpt>
      <trkpt lat="42.776657" lon="-0.121087">
        <time>2023-03-20T11:48:19+00:00</time>
        <ele>2491.0</ele>
      </trkpt>
      <trkpt lat="42.776656" lon="-0.121086">
        <time>2023-03-20T11:48:20+00:00</time>
        <ele>2491.0</ele>
      </trkpt>
      <trkpt lat="42.776656" lon="-0.121085">
        <time>2023-03-20T11:48:23+00:00</time>
        <ele>2491.0</ele>
      </trkpt>
      <trkpt lat="42.776657" lon="-0.121086">
        <time>2023-03-20T11:48:24+00:00</time>
        <ele>2491.0</ele>
      </trkpt>
      <trkpt lat="42.776654" lon="-0.121084">
        <time>2023-03-20T11:48:56+00:00</time>
        <ele>2491.0</ele>
      </trkpt>
      <trkpt lat="42.776655" lon="-0.121073">
        <time>2023-03-20T11:49:17+00:00</time>
        <ele>2491.0</ele>
      </trkpt>
      <trkpt lat="42.77665" lon="-0.121071">
        <time>2023-03-20T11:49:39+00:00</time>
        <ele>2490.0</ele>
      </trkpt>
      <trkpt lat="42.776654" lon="-0.121065">
        <time>2023-03-20T11:49:46+00:00</time>
        <ele>2491.0</ele>
      </trkpt>
      <trkpt lat="42.776659" lon="-0.121061">
        <time>2023-03-20T11:49:55+00:00</time>
        <ele>2491.0</ele>
      </trkpt>
      <trkpt lat="42.776703" lon="-0.12096">
        <time>2023-03-20T11:50:08+00:00</time>
        <ele>2493.0</ele>
      </trkpt>
      <trkpt lat="42.776739" lon="-0.120878">
        <time>2023-03-20T11:50:20+00:00</time>
        <ele>2494.0</ele>
      </trkpt>
      <trkpt lat="42.776777" lon="-0.120823">
        <time>2023-03-20T11:50:32+00:00</time>
        <ele>2496.0</ele>
      </trkpt>
      <trkpt lat="42.776789" lon="-0.120796">
        <time>2023-03-20T11:50:46+00:00</time>
        <ele>2497.0</ele>
      </trkpt>
      <trkpt lat="42.776793" lon="-0.120797">
        <time>2023-03-20T11:50:47+00:00</time>
        <ele>2497.0</ele>
      </trkpt>
      <trkpt lat="42.776797" lon="-0.12079">
        <time>2023-03-20T11:50:49+00:00</time>
        <ele>2497.0</ele>
      </trkpt>
      <trkpt lat="42.776831" lon="-0.120747">
        <time>2023-03-20T11:51:03+00:00</time>
        <ele>2499.0</ele>
      </trkpt>
      <trkpt lat="42.77687" lon="-0.120692">
        <time>2023-03-20T11:51:18+00:00</time>
        <ele>2501.0</ele>
      </trkpt>
      <trkpt lat="42.776906" lon="-0.120596">
        <time>2023-03-20T11:51:37+00:00</time>
        <ele>2502.0</ele>
      </trkpt>
      <trkpt lat="42.776935" lon="-0.120541">
        <time>2023-03-20T11:51:50+00:00</time>
        <ele>2503.0</ele>
      </trkpt>
      <trkpt lat="42.77696" lon="-0.120534">
        <time>2023-03-20T11:51:58+00:00</time>
        <ele>2505.0</ele>
      </trkpt>
      <trkpt lat="42.776989" lon="-0.120519">
        <time>2023-03-20T11:52:08+00:00</time>
        <ele>2507.0</ele>
      </trkpt>
      <trkpt lat="42.777011" lon="-0.12051">
        <time>2023-03-20T11:52:28+00:00</time>
        <ele>2509.0</ele>
      </trkpt>
      <trkpt lat="42.777022" lon="-0.120494">
        <time>2023-03-20T11:52:37+00:00</time>
        <ele>2509.0</ele>
      </trkpt>
      <trkpt lat="42.77705" lon="-0.120478">
        <time>2023-03-20T11:52:55+00:00</time>
        <ele>2511.0</ele>
      </trkpt>
      <trkpt lat="42.777064" lon="-0.120467">
        <time>2023-03-20T11:53:03+00:00</time>
        <ele>2511.0</ele>
      </trkpt>
      <trkpt lat="42.777083" lon="-0.120427">
        <time>2023-03-20T11:53:15+00:00</time>
        <ele>2512.0</ele>
      </trkpt>
      <trkpt lat="42.777102" lon="-0.120392">
        <time>2023-03-20T11:53:26+00:00</time>
        <ele>2512.0</ele>
      </trkpt>
      <trkpt lat="42.77713" lon="-0.120369">
        <time>2023-03-20T11:53:38+00:00</time>
        <ele>2513.0</ele>
      </trkpt>
      <trkpt lat="42.777129" lon="-0.120401">
        <time>2023-03-20T11:53:48+00:00</time>
        <ele>2514.0</ele>
      </trkpt>
      <trkpt lat="42.777187" lon="-0.120362">
        <time>2023-03-20T11:54:00+00:00</time>
        <ele>2516.0</ele>
      </trkpt>
      <trkpt lat="42.777217" lon="-0.120322">
        <time>2023-03-20T11:54:13+00:00</time>
        <ele>2516.0</ele>
      </trkpt>
      <trkpt lat="42.77723" lon="-0.120329">
        <time>2023-03-20T11:54:28+00:00</time>
        <ele>2517.0</ele>
      </trkpt>
      <trkpt lat="42.777229" lon="-0.120325">
        <time>2023-03-20T11:54:42+00:00</time>
        <ele>2517.0</ele>
      </trkpt>
      <trkpt lat="42.777221" lon="-0.120314">
        <time>2023-03-20T11:54:56+00:00</time>
        <ele>2516.0</ele>
      </trkpt>
      <trkpt lat="42.777231" lon="-0.120321">
        <time>2023-03-20T11:55:10+00:00</time>
        <ele>2517.0</ele>
      </trkpt>
      <trkpt lat="42.777221" lon="-0.120316">
        <time>2023-03-20T11:55:20+00:00</time>
        <ele>2516.0</ele>
      </trkpt>
      <trkpt lat="42.777303" lon="-0.120341">
        <time>2023-03-20T11:55:33+00:00</time>
        <ele>2521.0</ele>
      </trkpt>
      <trkpt lat="42.777403" lon="-0.120363">
        <time>2023-03-20T11:55:47+00:00</time>
        <ele>2526.0</ele>
      </trkpt>
      <trkpt lat="42.777416" lon="-0.120366">
        <time>2023-03-20T11:55:51+00:00</time>
        <ele>2526.0</ele>
      </trkpt>
      <trkpt lat="42.777391" lon="-0.12043">
        <time>2023-03-20T11:56:00+00:00</time>
        <ele>2528.0</ele>
      </trkpt>
      <trkpt lat="42.777355" lon="-0.120508">
        <time>2023-03-20T11:56:15+00:00</time>
        <ele>2529.0</ele>
      </trkpt>
      <trkpt lat="42.777402" lon="-0.120491">
        <time>2023-03-20T11:56:24+00:00</time>
        <ele>2530.0</ele>
      </trkpt>
      <trkpt lat="42.777468" lon="-0.120505">
        <time>2023-03-20T11:56:35+00:00</time>
        <ele>2533.0</ele>
      </trkpt>
      <trkpt lat="42.777397" lon="-0.120585">
        <time>2023-03-20T11:56:47+00:00</time>
        <ele>2533.0</ele>
      </trkpt>
      <trkpt lat="42.777425" lon="-0.120601">
        <time>2023-03-20T11:56:58+00:00</time>
        <ele>2534.0</ele>
      </trkpt>
      <trkpt lat="42.777465" lon="-0.120612">
        <time>2023-03-20T11:57:10+00:00</time>
        <ele>2536.0</ele>
      </trkpt>
      <trkpt lat="42.77748" lon="-0.120624">
        <time>2023-03-20T11:57:13+00:00</time>
        <ele>2536.0</ele>
      </trkpt>
      <trkpt lat="42.77745" lon="-0.120695">
        <time>2023-03-20T11:57:22+00:00</time>
        <ele>2538.0</ele>
      </trkpt>
      <trkpt lat="42.777468" lon="-0.120734">
        <time>2023-03-20T11:57:33+00:00</time>
        <ele>2540.0</ele>
      </trkpt>
      <trkpt lat="42.77748" lon="-0.120798">
        <time>2023-03-20T11:57:45+00:00</time>
        <ele>2542.0</ele>
      </trkpt>
      <trkpt lat="42.777521" lon="-0.120899">
        <time>2023-03-20T11:57:59+00:00</time>
        <ele>2547.0</ele>
      </trkpt>
      <trkpt lat="42.777554" lon="-0.120954">
        <time>2023-03-20T11:58:12+00:00</time>
        <ele>2550.0</ele>
      </trkpt>
      <trkpt lat="42.777603" lon="-0.121009">
        <time>2023-03-20T11:58:25+00:00</time>
        <ele>2552.0</ele>
      </trkpt>
      <trkpt lat="42.777686" lon="-0.121036">
        <time>2023-03-20T11:58:38+00:00</time>
        <ele>2553.0</ele>
      </trkpt>
      <trkpt lat="42.777748" lon="-0.12105">
        <time>2023-03-20T11:58:49+00:00</time>
        <ele>2554.0</ele>
      </trkpt>
      <trkpt lat="42.777755" lon="-0.121107">
        <time>2023-03-20T11:59:00+00:00</time>
        <ele>2556.0</ele>
      </trkpt>
      <trkpt lat="42.777734" lon="-0.121196">
        <time>2023-03-20T11:59:14+00:00</time>
        <ele>2557.0</ele>
      </trkpt>
      <trkpt lat="42.777724" lon="-0.121259">
        <time>2023-03-20T11:59:28+00:00</time>
        <ele>2558.0</ele>
      </trkpt>
      <trkpt lat="42.777755" lon="-0.121257">
        <time>2023-03-20T11:59:37+00:00</time>
        <ele>2559.0</ele>
      </trkpt>
      <trkpt lat="42.777822" lon="-0.121269">
        <time>2023-03-20T11:59:49+00:00</time>
        <ele>2561.0</ele>
      </trkpt>
      <trkpt lat="42.777862" lon="-0.12132">
        <time>2023-03-20T12:00:00+00:00</time>
        <ele>2563.0</ele>
      </trkpt>
      <trkpt lat="42.777881" lon="-0.121432">
        <time>2023-03-20T12:00:17+00:00</time>
        <ele>2566.0</ele>
      </trkpt>
      <trkpt lat="42.777867" lon="-0.121548">
        <time>2023-03-20T12:00:29+00:00</time>
        <ele>2569.0</ele>
      </trkpt>
      <trkpt lat="42.777866" lon="-0.121597">
        <time>2023-03-20T12:00:34+00:00</time>
        <ele>2571.0</ele>
      </trkpt>
      <trkpt lat="42.777875" lon="-0.121671">
        <time>2023-03-20T12:00:47+00:00</time>
        <ele>2574.0</ele>
      </trkpt>
      <trkpt lat="42.777903" lon="-0.121771">
        <time>2023-03-20T12:00:59+00:00</time>
        <ele>2577.0</ele>
      </trkpt>
      <trkpt lat="42.777923" lon="-0.121863">
        <time>2023-03-20T12:01:11+00:00</time>
        <ele>2578.0</ele>
      </trkpt>
      <trkpt lat="42.777954" lon="-0.121985">
        <time>2023-03-20T12:01:24+00:00</time>
        <ele>2580.0</ele>
      </trkpt>
      <trkpt lat="42.777977" lon="-0.122087">
        <time>2023-03-20T12:01:36+00:00</time>
        <ele>2581.0</ele>
      </trkpt>
      <trkpt lat="42.777983" lon="-0.12211">
        <time>2023-03-20T12:01:39+00:00</time>
        <ele>2581.0</ele>
      </trkpt>
      <trkpt lat="42.778016" lon="-0.122235">
        <time>2023-03-20T12:01:52+00:00</time>
        <ele>2582.0</ele>
      </trkpt>
      <trkpt lat="42.778049" lon="-0.122358">
        <time>2023-03-20T12:02:05+00:00</time>
        <ele>2584.0</ele>
      </trkpt>
      <trkpt lat="42.778058" lon="-0.122411">
        <time>2023-03-20T12:02:10+00:00</time>
        <ele>2584.0</ele>
      </trkpt>
      <trkpt lat="42.778079" lon="-0.122496">
        <time>2023-03-20T12:02:19+00:00</time>
        <ele>2585.0</ele>
      </trkpt>
      <trkpt lat="42.778092" lon="-0.122543">
        <time>2023-03-20T12:02:23+00:00</time>
        <ele>2585.0</ele>
      </trkpt>
      <trkpt lat="42.778114" lon="-0.122667">
        <time>2023-03-20T12:02:36+00:00</time>
        <ele>2586.0</ele>
      </trkpt>
      <trkpt lat="42.778131" lon="-0.122798">
        <time>2023-03-20T12:02:49+00:00</time>
        <ele>2587.0</ele>
      </trkpt>
      <trkpt lat="42.778172" lon="-0.122929">
        <time>2023-03-20T12:03:02+00:00</time>
        <ele>2589.0</ele>
      </trkpt>
      <trkpt lat="42.778189" lon="-0.123054">
        <time>2023-03-20T12:03:16+00:00</time>
        <ele>2591.0</ele>
      </trkpt>
      <trkpt lat="42.778207" lon="-0.12318">
        <time>2023-03-20T12:03:31+00:00</time>
        <ele>2593.0</ele>
      </trkpt>
      <trkpt lat="42.77822" lon="-0.123306">
        <time>2023-03-20T12:03:45+00:00</time>
        <ele>2595.0</ele>
      </trkpt>
      <trkpt lat="42.778232" lon="-0.123381">
        <time>2023-03-20T12:03:55+00:00</time>
        <ele>2596.0</ele>
      </trkpt>
      <trkpt lat="42.778263" lon="-0.123445">
        <time>2023-03-20T12:04:09+00:00</time>
        <ele>2597.0</ele>
      </trkpt>
      <trkpt lat="42.778291" lon="-0.123503">
        <time>2023-03-20T12:04:18+00:00</time>
        <ele>2598.0</ele>
      </trkpt>
      <trkpt lat="42.778258" lon="-0.12358">
        <time>2023-03-20T12:04:29+00:00</time>
        <ele>2600.0</ele>
      </trkpt>
      <trkpt lat="42.778285" lon="-0.123632">
        <time>2023-03-20T12:04:38+00:00</time>
        <ele>2601.0</ele>
      </trkpt>
      <trkpt lat="42.778335" lon="-0.123698">
        <time>2023-03-20T12:04:50+00:00</time>
        <ele>2601.0</ele>
      </trkpt>
      <trkpt lat="42.778368" lon="-0.123767">
        <time>2023-03-20T12:05:01+00:00</time>
        <ele>2604.0</ele>
      </trkpt>
      <trkpt lat="42.778411" lon="-0.123841">
        <time>2023-03-20T12:05:14+00:00</time>
        <ele>2606.0</ele>
      </trkpt>
      <trkpt lat="42.778456" lon="-0.123942">
        <time>2023-03-20T12:05:28+00:00</time>
        <ele>2608.0</ele>
      </trkpt>
      <trkpt lat="42.778504" lon="-0.124064">
        <time>2023-03-20T12:05:42+00:00</time>
        <ele>2610.0</ele>
      </trkpt>
      <trkpt lat="42.778546" lon="-0.124196">
        <time>2023-03-20T12:05:57+00:00</time>
        <ele>2612.0</ele>
      </trkpt>
      <trkpt lat="42.778556" lon="-0.124229">
        <time>2023-03-20T12:06:01+00:00</time>
        <ele>2613.0</ele>
      </trkpt>
      <trkpt lat="42.778598" lon="-0.124371">
        <time>2023-03-20T12:06:15+00:00</time>
        <ele>2617.0</ele>
      </trkpt>
      <trkpt lat="42.778637" lon="-0.124482">
        <time>2023-03-20T12:06:29+00:00</time>
        <ele>2619.0</ele>
      </trkpt>
      <trkpt lat="42.778675" lon="-0.124587">
        <time>2023-03-20T12:06:42+00:00</time>
        <ele>2620.0</ele>
      </trkpt>
      <trkpt lat="42.778721" lon="-0.124716">
        <time>2023-03-20T12:06:57+00:00</time>
        <ele>2620.0</ele>
      </trkpt>
      <trkpt lat="42.778769" lon="-0.124847">
        <time>2023-03-20T12:07:12+00:00</time>
        <ele>2622.0</ele>
      </trkpt>
      <trkpt lat="42.778814" lon="-0.12496">
        <time>2023-03-20T12:07:25+00:00</time>
        <ele>2623.0</ele>
      </trkpt>
      <trkpt lat="42.778869" lon="-0.125113">
        <time>2023-03-20T12:07:40+00:00</time>
        <ele>2624.0</ele>
      </trkpt>
      <trkpt lat="42.778872" lon="-0.125121">
        <time>2023-03-20T12:07:41+00:00</time>
        <ele>2624.0</ele>
      </trkpt>
      <trkpt lat="42.778926" lon="-0.125246">
        <time>2023-03-20T12:07:55+00:00</time>
        <ele>2625.0</ele>
      </trkpt>
      <trkpt lat="42.778931" lon="-0.125257">
        <time>2023-03-20T12:07:56+00:00</time>
        <ele>2625.0</ele>
      </trkpt>
      <trkpt lat="42.778938" lon="-0.125306">
        <time>2023-03-20T12:08:09+00:00</time>
        <ele>2626.0</ele>
      </trkpt>
      <trkpt lat="42.778996" lon="-0.125382">
        <time>2023-03-20T12:08:20+00:00</time>
        <ele>2629.0</ele>
      </trkpt>
      <trkpt lat="42.779044" lon="-0.125485">
        <time>2023-03-20T12:08:33+00:00</time>
        <ele>2632.0</ele>
      </trkpt>
      <trkpt lat="42.779086" lon="-0.125588">
        <time>2023-03-20T12:08:47+00:00</time>
        <ele>2633.0</ele>
      </trkpt>
      <trkpt lat="42.77913" lon="-0.125706">
        <time>2023-03-20T12:09:03+00:00</time>
        <ele>2634.0</ele>
      </trkpt>
      <trkpt lat="42.779182" lon="-0.125825">
        <time>2023-03-20T12:09:17+00:00</time>
        <ele>2635.0</ele>
      </trkpt>
      <trkpt lat="42.779193" lon="-0.125851">
        <time>2023-03-20T12:09:20+00:00</time>
        <ele>2635.0</ele>
      </trkpt>
      <trkpt lat="42.779254" lon="-0.125989">
        <time>2023-03-20T12:09:35+00:00</time>
        <ele>2635.0</ele>
      </trkpt>
      <trkpt lat="42.779294" lon="-0.126104">
        <time>2023-03-20T12:09:50+00:00</time>
        <ele>2636.0</ele>
      </trkpt>
      <trkpt lat="42.779325" lon="-0.12623">
        <time>2023-03-20T12:10:03+00:00</time>
        <ele>2636.0</ele>
      </trkpt>
      <trkpt lat="42.779352" lon="-0.126351">
        <time>2023-03-20T12:10:17+00:00</time>
        <ele>2637.0</ele>
      </trkpt>
      <trkpt lat="42.779359" lon="-0.126433">
        <time>2023-03-20T12:10:28+00:00</time>
        <ele>2638.0</ele>
      </trkpt>
      <trkpt lat="42.779376" lon="-0.126522">
        <time>2023-03-20T12:10:39+00:00</time>
        <ele>2639.0</ele>
      </trkpt>
      <trkpt lat="42.779386" lon="-0.12661">
        <time>2023-03-20T12:10:51+00:00</time>
        <ele>2640.0</ele>
      </trkpt>
      <trkpt lat="42.779406" lon="-0.126716">
        <time>2023-03-20T12:11:03+00:00</time>
        <ele>2642.0</ele>
      </trkpt>
      <trkpt lat="42.779421" lon="-0.126836">
        <time>2023-03-20T12:11:17+00:00</time>
        <ele>2645.0</ele>
      </trkpt>
      <trkpt lat="42.779418" lon="-0.126981">
        <time>2023-03-20T12:11:32+00:00</time>
        <ele>2648.0</ele>
      </trkpt>
      <trkpt lat="42.779412" lon="-0.127143">
        <time>2023-03-20T12:11:47+00:00</time>
        <ele>2651.0</ele>
      </trkpt>
      <trkpt lat="42.779395" lon="-0.127295">
        <time>2023-03-20T12:12:04+00:00</time>
        <ele>2653.0</ele>
      </trkpt>
      <trkpt lat="42.779405" lon="-0.127418">
        <time>2023-03-20T12:12:22+00:00</time>
        <ele>2655.0</ele>
      </trkpt>
      <trkpt lat="42.77941" lon="-0.127511">
        <time>2023-03-20T12:12:35+00:00</time>
        <ele>2657.0</ele>
      </trkpt>
      <trkpt lat="42.779415" lon="-0.127605">
        <time>2023-03-20T12:12:49+00:00</time>
        <ele>2659.0</ele>
      </trkpt>
      <trkpt lat="42.779417" lon="-0.127722">
        <time>2023-03-20T12:13:03+00:00</time>
        <ele>2661.0</ele>
      </trkpt>
      <trkpt lat="42.779419" lon="-0.127836">
        <time>2023-03-20T12:13:17+00:00</time>
        <ele>2664.0</ele>
      </trkpt>
      <trkpt lat="42.779426" lon="-0.127959">
        <time>2023-03-20T12:13:31+00:00</time>
        <ele>2666.0</ele>
      </trkpt>
      <trkpt lat="42.779417" lon="-0.128072">
        <time>2023-03-20T12:13:44+00:00</time>
        <ele>2667.0</ele>
      </trkpt>
      <trkpt lat="42.779401" lon="-0.128185">
        <time>2023-03-20T12:13:57+00:00</time>
        <ele>2668.0</ele>
      </trkpt>
      <trkpt lat="42.779398" lon="-0.128325">
        <time>2023-03-20T12:14:11+00:00</time>
        <ele>2670.0</ele>
      </trkpt>
      <trkpt lat="42.7794" lon="-0.128437">
        <time>2023-03-20T12:14:24+00:00</time>
        <ele>2671.0</ele>
      </trkpt>
      <trkpt lat="42.779386" lon="-0.128559">
        <time>2023-03-20T12:14:39+00:00</time>
        <ele>2672.0</ele>
      </trkpt>
      <trkpt lat="42.779388" lon="-0.128658">
        <time>2023-03-20T12:14:54+00:00</time>
        <ele>2674.0</ele>
      </trkpt>
      <trkpt lat="42.779364" lon="-0.128843">
        <time>2023-03-20T12:15:12+00:00</time>
        <ele>2677.0</ele>
      </trkpt>
      <trkpt lat="42.779337" lon="-0.128945">
        <time>2023-03-20T12:15:26+00:00</time>
        <ele>2678.0</ele>
      </trkpt>
      <trkpt lat="42.779322" lon="-0.129077">
        <time>2023-03-20T12:15:41+00:00</time>
        <ele>2680.0</ele>
      </trkpt>
      <trkpt lat="42.779293" lon="-0.129187">
        <time>2023-03-20T12:15:59+00:00</time>
        <ele>2682.0</ele>
      </trkpt>
      <trkpt lat="42.779262" lon="-0.129283">
        <time>2023-03-20T12:16:14+00:00</time>
        <ele>2684.0</ele>
      </trkpt>
      <trkpt lat="42.779243" lon="-0.129392">
        <time>2023-03-20T12:16:30+00:00</time>
        <ele>2686.0</ele>
      </trkpt>
      <trkpt lat="42.779217" lon="-0.129586">
        <time>2023-03-20T12:16:50+00:00</time>
        <ele>2689.0</ele>
      </trkpt>
      <trkpt lat="42.779194" lon="-0.129708">
        <time>2023-03-20T12:17:03+00:00</time>
        <ele>2692.0</ele>
      </trkpt>
      <trkpt lat="42.779175" lon="-0.129782">
        <time>2023-03-20T12:17:15+00:00</time>
        <ele>2693.0</ele>
      </trkpt>
      <trkpt lat="42.77916" lon="-0.12988">
        <time>2023-03-20T12:17:27+00:00</time>
        <ele>2695.0</ele>
      </trkpt>
      <trkpt lat="42.779142" lon="-0.130037">
        <time>2023-03-20T12:17:43+00:00</time>
        <ele>2697.0</ele>
      </trkpt>
      <trkpt lat="42.779122" lon="-0.130121">
        <time>2023-03-20T12:17:57+00:00</time>
        <ele>2698.0</ele>
      </trkpt>
      <trkpt lat="42.779072" lon="-0.130181">
        <time>2023-03-20T12:18:10+00:00</time>
        <ele>2700.0</ele>
      </trkpt>
      <trkpt lat="42.779005" lon="-0.130271">
        <time>2023-03-20T12:18:22+00:00</time>
        <ele>2703.0</ele>
      </trkpt>
      <trkpt lat="42.778968" lon="-0.130329">
        <time>2023-03-20T12:18:33+00:00</time>
        <ele>2704.0</ele>
      </trkpt>
      <trkpt lat="42.778937" lon="-0.130399">
        <time>2023-03-20T12:18:44+00:00</time>
        <ele>2706.0</ele>
      </trkpt>
      <trkpt lat="42.779031" lon="-0.13046">
        <time>2023-03-20T12:19:02+00:00</time>
        <ele>2707.0</ele>
      </trkpt>
      <trkpt lat="42.779081" lon="-0.130513">
        <time>2023-03-20T12:19:14+00:00</time>
        <ele>2708.0</ele>
      </trkpt>
      <trkpt lat="42.779064" lon="-0.130598">
        <time>2023-03-20T12:19:23+00:00</time>
        <ele>2710.0</ele>
      </trkpt>
      <trkpt lat="42.779" lon="-0.13069">
        <time>2023-03-20T12:19:38+00:00</time>
        <ele>2713.0</ele>
      </trkpt>
      <trkpt lat="42.778999" lon="-0.130757">
        <time>2023-03-20T12:19:53+00:00</time>
        <ele>2714.0</ele>
      </trkpt>
      <trkpt lat="42.779039" lon="-0.130832">
        <time>2023-03-20T12:20:06+00:00</time>
        <ele>2716.0</ele>
      </trkpt>
      <trkpt lat="42.779084" lon="-0.130897">
        <time>2023-03-20T12:20:20+00:00</time>
        <ele>2717.0</ele>
      </trkpt>
      <trkpt lat="42.779119" lon="-0.130967">
        <time>2023-03-20T12:20:34+00:00</time>
        <ele>2719.0</ele>
      </trkpt>
      <trkpt lat="42.779192" lon="-0.130983">
        <time>2023-03-20T12:20:46+00:00</time>
        <ele>2720.0</ele>
      </trkpt>
      <trkpt lat="42.779213" lon="-0.131039">
        <time>2023-03-20T12:20:57+00:00</time>
        <ele>2722.0</ele>
      </trkpt>
      <trkpt lat="42.779227" lon="-0.131122">
        <time>2023-03-20T12:21:09+00:00</time>
        <ele>2724.0</ele>
      </trkpt>
      <trkpt lat="42.779258" lon="-0.131191">
        <time>2023-03-20T12:21:21+00:00</time>
        <ele>2726.0</ele>
      </trkpt>
      <trkpt lat="42.779292" lon="-0.13128">
        <time>2023-03-20T12:21:34+00:00</time>
        <ele>2727.0</ele>
      </trkpt>
      <trkpt lat="42.779319" lon="-0.131361">
        <time>2023-03-20T12:21:45+00:00</time>
        <ele>2728.0</ele>
      </trkpt>
      <trkpt lat="42.779319" lon="-0.131367">
        <time>2023-03-20T12:21:51+00:00</time>
        <ele>2728.0</ele>
      </trkpt>
      <trkpt lat="42.779317" lon="-0.131366">
        <time>2023-03-20T12:21:53+00:00</time>
        <ele>2728.0</ele>
      </trkpt>
      <trkpt lat="42.779329" lon="-0.131368">
        <time>2023-03-20T12:22:05+00:00</time>
        <ele>2728.0</ele>
      </trkpt>
      <trkpt lat="42.7793" lon="-0.131366">
        <time>2023-03-20T12:22:40+00:00</time>
        <ele>2728.0</ele>
      </trkpt>
      <trkpt lat="42.779289" lon="-0.13137">
        <time>2023-03-20T12:23:13+00:00</time>
        <ele>2728.0</ele>
      </trkpt>
      <trkpt lat="42.77931" lon="-0.13137">
        <time>2023-03-20T12:23:38+00:00</time>
        <ele>2728.0</ele>
      </trkpt>
      <trkpt lat="42.77929" lon="-0.131384">
        <time>2023-03-20T12:23:54+00:00</time>
        <ele>2728.0</ele>
      </trkpt>
      <trkpt lat="42.779301" lon="-0.131377">
        <time>2023-03-20T12:24:11+00:00</time>
        <ele>2728.0</ele>
      </trkpt>
      <trkpt lat="42.779316" lon="-0.131385">
        <time>2023-03-20T12:24:21+00:00</time>
        <ele>2728.0</ele>
      </trkpt>
      <trkpt lat="42.779316" lon="-0.131384">
        <time>2023-03-20T12:24:22+00:00</time>
        <ele>2728.0</ele>
      </trkpt>
      <trkpt lat="42.779318" lon="-0.131387">
        <time>2023-03-20T12:24:23+00:00</time>
        <ele>2728.0</ele>
      </trkpt>
      <trkpt lat="42.779299" lon="-0.131418">
        <time>2023-03-20T12:25:01+00:00</time>
        <ele>2729.0</ele>
      </trkpt>
      <trkpt lat="42.779293" lon="-0.131426">
        <time>2023-03-20T12:25:41+00:00</time>
        <ele>2729.0</ele>
      </trkpt>
      <trkpt lat="42.779297" lon="-0.13143">
        <time>2023-03-20T12:26:25+00:00</time>
        <ele>2729.0</ele>
      </trkpt>
      <trkpt lat="42.779299" lon="-0.131419">
        <time>2023-03-20T12:27:08+00:00</time>
        <ele>2729.0</ele>
      </trkpt>
      <trkpt lat="42.779305" lon="-0.131412">
        <time>2023-03-20T12:27:51+00:00</time>
        <ele>2729.0</ele>
      </trkpt>
      <trkpt lat="42.779304" lon="-0.131408">
        <time>2023-03-20T12:28:45+00:00</time>
        <ele>2729.0</ele>
      </trkpt>
      <trkpt lat="42.779307" lon="-0.131406">
        <time>2023-03-20T12:29:27+00:00</time>
        <ele>2729.0</ele>
      </trkpt>
      <trkpt lat="42.779302" lon="-0.131413">
        <time>2023-03-20T12:29:49+00:00</time>
        <ele>2729.0</ele>
      </trkpt>
      <trkpt lat="42.779307" lon="-0.131409">
        <time>2023-03-20T12:29:51+00:00</time>
        <ele>2729.0</ele>
      </trkpt>
      <trkpt lat="42.779306" lon="-0.131405">
        <time>2023-03-20T12:29:52+00:00</time>
        <ele>2729.0</ele>
      </trkpt>
      <trkpt lat="42.779315" lon="-0.131383">
        <time>2023-03-20T12:30:12+00:00</time>
        <ele>2728.0</ele>
      </trkpt>
      <trkpt lat="42.779303" lon="-0.131367">
        <time>2023-03-20T12:30:36+00:00</time>
        <ele>2728.0</ele>
      </trkpt>
      <trkpt lat="42.779309" lon="-0.131375">
        <time>2023-03-20T12:30:37+00:00</time>
        <ele>2728.0</ele>
      </trkpt>
      <trkpt lat="42.779308" lon="-0.131393">
        <time>2023-03-20T12:31:07+00:00</time>
        <ele>2728.0</ele>
      </trkpt>
      <trkpt lat="42.779316" lon="-0.131397">
        <time>2023-03-20T12:31:39+00:00</time>
        <ele>2729.0</ele>
      </trkpt>
      <trkpt lat="42.779323" lon="-0.131379">
        <time>2023-03-20T12:32:13+00:00</time>
        <ele>2728.0</ele>
      </trkpt>
      <trkpt lat="42.779295" lon="-0.131382">
        <time>2023-03-20T12:32:46+00:00</time>
        <ele>2728.0</ele>
      </trkpt>
      <trkpt lat="42.779307" lon="-0.131379">
        <time>2023-03-20T12:33:22+00:00</time>
        <ele>2728.0</ele>
      </trkpt>
      <trkpt lat="42.7793" lon="-0.131379">
        <time>2023-03-20T12:33:48+00:00</time>
        <ele>2728.0</ele>
      </trkpt>
      <trkpt lat="42.779291" lon="-0.131368">
        <time>2023-03-20T12:34:04+00:00</time>
        <ele>2728.0</ele>
      </trkpt>
      <trkpt lat="42.779318" lon="-0.131375">
        <time>2023-03-20T12:34:23+00:00</time>
        <ele>2728.0</ele>
      </trkpt>
      <trkpt lat="42.779309" lon="-0.131364">
        <time>2023-03-20T12:34:44+00:00</time>
        <ele>2728.0</ele>
      </trkpt>
      <trkpt lat="42.779298" lon="-0.131377">
        <time>2023-03-20T12:35:11+00:00</time>
        <ele>2728.0</ele>
      </trkpt>
      <trkpt lat="42.779312" lon="-0.131382">
        <time>2023-03-20T12:35:30+00:00</time>
        <ele>2728.0</ele>
      </trkpt>
      <trkpt lat="42.779314" lon="-0.131386">
        <time>2023-03-20T12:35:43+00:00</time>
        <ele>2728.0</ele>
      </trkpt>
      <trkpt lat="42.779429" lon="-0.131443">
        <time>2023-03-20T12:35:49+00:00</time>
        <ele>2731.0</ele>
      </trkpt>
      <trkpt lat="42.779445" lon="-0.13147">
        <time>2023-03-20T12:35:51+00:00</time>
        <ele>2731.0</ele>
      </trkpt>
      <trkpt lat="42.77947" lon="-0.131502">
        <time>2023-03-20T12:35:54+00:00</time>
        <ele>2731.0</ele>
      </trkpt>
      <trkpt lat="42.779535" lon="-0.131546">
        <time>2023-03-20T12:35:57+00:00</time>
        <ele>2731.0</ele>
      </trkpt>
      <trkpt lat="42.779681" lon="-0.13169">
        <time>2023-03-20T12:36:02+00:00</time>
        <ele>2730.0</ele>
      </trkpt>
      <trkpt lat="42.779815" lon="-0.131829">
        <time>2023-03-20T12:36:14+00:00</time>
        <ele>2727.0</ele>
      </trkpt>
      <trkpt lat="42.779815" lon="-0.131834">
        <time>2023-03-20T12:36:16+00:00</time>
        <ele>2727.0</ele>
      </trkpt>
      <trkpt lat="42.779687" lon="-0.131937">
        <time>2023-03-20T12:36:20+00:00</time>
        <ele>2715.0</ele>
      </trkpt>
      <trkpt lat="42.779379" lon="-0.131982">
        <time>2023-03-20T12:36:23+00:00</time>
        <ele>2710.0</ele>
      </trkpt>
      <trkpt lat="42.779272" lon="-0.132001">
        <time>2023-03-20T12:36:24+00:00</time>
        <ele>2710.0</ele>
      </trkpt>
      <trkpt lat="42.778904" lon="-0.132149">
        <time>2023-03-20T12:36:28+00:00</time>
        <ele>2714.0</ele>
      </trkpt>
      <trkpt lat="42.778769" lon="-0.132245">
        <time>2023-03-20T12:36:30+00:00</time>
        <ele>2716.0</ele>
      </trkpt>
      <trkpt lat="42.778581" lon="-0.132478">
        <time>2023-03-20T12:36:34+00:00</time>
        <ele>2712.0</ele>
      </trkpt>
      <trkpt lat="42.778649" lon="-0.132617">
        <time>2023-03-20T12:36:37+00:00</time>
        <ele>2702.0</ele>
      </trkpt>
      <trkpt lat="42.778686" lon="-0.132751">
        <time>2023-03-20T12:36:39+00:00</time>
        <ele>2695.0</ele>
      </trkpt>
      <trkpt lat="42.778647" lon="-0.13305">
        <time>2023-03-20T12:36:43+00:00</time>
        <ele>2683.0</ele>
      </trkpt>
      <trkpt lat="42.77866" lon="-0.133112">
        <time>2023-03-20T12:36:45+00:00</time>
        <ele>2680.0</ele>
      </trkpt>
      <trkpt lat="42.778671" lon="-0.133095">
        <time>2023-03-20T12:36:47+00:00</time>
        <ele>2680.0</ele>
      </trkpt>
      <trkpt lat="42.778668" lon="-0.133094">
        <time>2023-03-20T12:36:49+00:00</time>
        <ele>2680.0</ele>
      </trkpt>
      <trkpt lat="42.778671" lon="-0.133074">
        <time>2023-03-20T12:37:10+00:00</time>
        <ele>2681.0</ele>
      </trkpt>
      <trkpt lat="42.77867" lon="-0.133075">
        <time>2023-03-20T12:37:11+00:00</time>
        <ele>2681.0</ele>
      </trkpt>
      <trkpt lat="42.778679" lon="-0.133262">
        <time>2023-03-20T12:37:15+00:00</time>
        <ele>2673.0</ele>
      </trkpt>
      <trkpt lat="42.778724" lon="-0.133434">
        <time>2023-03-20T12:37:17+00:00</time>
        <ele>2664.0</ele>
      </trkpt>
      <trkpt lat="42.778745" lon="-0.133517">
        <time>2023-03-20T12:37:18+00:00</time>
        <ele>2661.0</ele>
      </trkpt>
      <trkpt lat="42.778788" lon="-0.133596">
        <time>2023-03-20T12:37:19+00:00</time>
        <ele>2657.0</ele>
      </trkpt>
      <trkpt lat="42.778809" lon="-0.133692">
        <time>2023-03-20T12:37:20+00:00</time>
        <ele>2653.0</ele>
      </trkpt>
      <trkpt lat="42.778836" lon="-0.133867">
        <time>2023-03-20T12:37:22+00:00</time>
        <ele>2649.0</ele>
      </trkpt>
      <trkpt lat="42.778823" lon="-0.134018">
        <time>2023-03-20T12:37:25+00:00</time>
        <ele>2645.0</ele>
      </trkpt>
      <trkpt lat="42.778814" lon="-0.134017">
        <time>2023-03-20T12:37:26+00:00</time>
        <ele>2645.0</ele>
      </trkpt>
      <trkpt lat="42.778806" lon="-0.134019">
        <time>2023-03-20T12:37:28+00:00</time>
        <ele>2645.0</ele>
      </trkpt>
      <trkpt lat="42.778806" lon="-0.134195">
        <time>2023-03-20T12:37:33+00:00</time>
        <ele>2640.0</ele>
      </trkpt>
      <trkpt lat="42.778832" lon="-0.13436">
        <time>2023-03-20T12:37:36+00:00</time>
        <ele>2635.0</ele>
      </trkpt>
      <trkpt lat="42.778811" lon="-0.13441">
        <time>2023-03-20T12:37:37+00:00</time>
        <ele>2633.0</ele>
      </trkpt>
      <trkpt lat="42.778826" lon="-0.134472">
        <time>2023-03-20T12:37:38+00:00</time>
        <ele>2631.0</ele>
      </trkpt>
      <trkpt lat="42.778874" lon="-0.134557">
        <time>2023-03-20T12:37:40+00:00</time>
        <ele>2627.0</ele>
      </trkpt>
      <trkpt lat="42.778861" lon="-0.134562">
        <time>2023-03-20T12:37:42+00:00</time>
        <ele>2627.0</ele>
      </trkpt>
      <trkpt lat="42.778867" lon="-0.134556">
        <time>2023-03-20T12:38:02+00:00</time>
        <ele>2627.0</ele>
      </trkpt>
      <trkpt lat="42.778867" lon="-0.134557">
        <time>2023-03-20T12:38:12+00:00</time>
        <ele>2627.0</ele>
      </trkpt>
      <trkpt lat="42.778837" lon="-0.13471">
        <time>2023-03-20T12:38:16+00:00</time>
        <ele>2621.0</ele>
      </trkpt>
      <trkpt lat="42.778875" lon="-0.13487">
        <time>2023-03-20T12:38:18+00:00</time>
        <ele>2614.0</ele>
      </trkpt>
      <trkpt lat="42.77892" lon="-0.134917">
        <time>2023-03-20T12:38:19+00:00</time>
        <ele>2612.0</ele>
      </trkpt>
      <trkpt lat="42.779009" lon="-0.135065">
        <time>2023-03-20T12:38:22+00:00</time>
        <ele>2606.0</ele>
      </trkpt>
      <trkpt lat="42.779051" lon="-0.135203">
        <time>2023-03-20T12:38:24+00:00</time>
        <ele>2599.0</ele>
      </trkpt>
      <trkpt lat="42.77907" lon="-0.135279">
        <time>2023-03-20T12:38:25+00:00</time>
        <ele>2596.0</ele>
      </trkpt>
      <trkpt lat="42.779102" lon="-0.135362">
        <time>2023-03-20T12:38:26+00:00</time>
        <ele>2592.0</ele>
      </trkpt>
      <trkpt lat="42.779139" lon="-0.135441">
        <time>2023-03-20T12:38:27+00:00</time>
        <ele>2589.0</ele>
      </trkpt>
      <trkpt lat="42.779289" lon="-0.135629">
        <time>2023-03-20T12:38:30+00:00</time>
        <ele>2579.0</ele>
      </trkpt>
      <trkpt lat="42.779329" lon="-0.135692">
        <time>2023-03-20T12:38:31+00:00</time>
        <ele>2576.0</ele>
      </trkpt>
      <trkpt lat="42.779408" lon="-0.135862">
        <time>2023-03-20T12:38:33+00:00</time>
        <ele>2567.0</ele>
      </trkpt>
      <trkpt lat="42.779428" lon="-0.135965">
        <time>2023-03-20T12:38:34+00:00</time>
        <ele>2563.0</ele>
      </trkpt>
      <trkpt lat="42.779449" lon="-0.136069">
        <time>2023-03-20T12:38:35+00:00</time>
        <ele>2559.0</ele>
      </trkpt>
      <trkpt lat="42.779571" lon="-0.136344">
        <time>2023-03-20T12:38:38+00:00</time>
        <ele>2550.0</ele>
      </trkpt>
      <trkpt lat="42.779708" lon="-0.13664">
        <time>2023-03-20T12:38:42+00:00</time>
        <ele>2543.0</ele>
      </trkpt>
      <trkpt lat="42.779741" lon="-0.136682">
        <time>2023-03-20T12:38:43+00:00</time>
        <ele>2542.0</ele>
      </trkpt>
      <trkpt lat="42.779829" lon="-0.136762">
        <time>2023-03-20T12:38:46+00:00</time>
        <ele>2541.0</ele>
      </trkpt>
      <trkpt lat="42.779824" lon="-0.137008">
        <time>2023-03-20T12:38:50+00:00</time>
        <ele>2537.0</ele>
      </trkpt>
      <trkpt lat="42.7798" lon="-0.137084">
        <time>2023-03-20T12:38:51+00:00</time>
        <ele>2534.0</ele>
      </trkpt>
      <trkpt lat="42.779795" lon="-0.137171">
        <time>2023-03-20T12:38:52+00:00</time>
        <ele>2531.0</ele>
      </trkpt>
      <trkpt lat="42.779785" lon="-0.137342">
        <time>2023-03-20T12:38:54+00:00</time>
        <ele>2525.0</ele>
      </trkpt>
      <trkpt lat="42.779782" lon="-0.137426">
        <time>2023-03-20T12:38:55+00:00</time>
        <ele>2522.0</ele>
      </trkpt>
      <trkpt lat="42.779748" lon="-0.13754">
        <time>2023-03-20T12:38:59+00:00</time>
        <ele>2518.0</ele>
      </trkpt>
      <trkpt lat="42.779712" lon="-0.137537">
        <time>2023-03-20T12:39:14+00:00</time>
        <ele>2518.0</ele>
      </trkpt>
      <trkpt lat="42.779724" lon="-0.137525">
        <time>2023-03-20T12:39:33+00:00</time>
        <ele>2519.0</ele>
      </trkpt>
      <trkpt lat="42.779722" lon="-0.137517">
        <time>2023-03-20T12:39:47+00:00</time>
        <ele>2519.0</ele>
      </trkpt>
      <trkpt lat="42.779727" lon="-0.137518">
        <time>2023-03-20T12:39:51+00:00</time>
        <ele>2519.0</ele>
      </trkpt>
      <trkpt lat="42.779765" lon="-0.137762">
        <time>2023-03-20T12:39:57+00:00</time>
        <ele>2513.0</ele>
      </trkpt>
      <trkpt lat="42.779795" lon="-0.137886">
        <time>2023-03-20T12:39:59+00:00</time>
        <ele>2509.0</ele>
      </trkpt>
      <trkpt lat="42.779833" lon="-0.138018">
        <time>2023-03-20T12:40:01+00:00</time>
        <ele>2504.0</ele>
      </trkpt>
      <trkpt lat="42.779842" lon="-0.138128">
        <time>2023-03-20T12:40:03+00:00</time>
        <ele>2499.0</ele>
      </trkpt>
      <trkpt lat="42.779908" lon="-0.13819">
        <time>2023-03-20T12:40:05+00:00</time>
        <ele>2494.0</ele>
      </trkpt>
      <trkpt lat="42.779996" lon="-0.138251">
        <time>2023-03-20T12:40:07+00:00</time>
        <ele>2490.0</ele>
      </trkpt>
      <trkpt lat="42.780141" lon="-0.138268">
        <time>2023-03-20T12:40:09+00:00</time>
        <ele>2487.0</ele>
      </trkpt>
      <trkpt lat="42.780241" lon="-0.138401">
        <time>2023-03-20T12:40:11+00:00</time>
        <ele>2481.0</ele>
      </trkpt>
      <trkpt lat="42.780273" lon="-0.138486">
        <time>2023-03-20T12:40:12+00:00</time>
        <ele>2478.0</ele>
      </trkpt>
      <trkpt lat="42.780309" lon="-0.138643">
        <time>2023-03-20T12:40:14+00:00</time>
        <ele>2470.0</ele>
      </trkpt>
      <trkpt lat="42.780322" lon="-0.138721">
        <time>2023-03-20T12:40:15+00:00</time>
        <ele>2466.0</ele>
      </trkpt>
      <trkpt lat="42.780347" lon="-0.138803">
        <time>2023-03-20T12:40:16+00:00</time>
        <ele>2463.0</ele>
      </trkpt>
      <trkpt lat="42.780366" lon="-0.138974">
        <time>2023-03-20T12:40:18+00:00</time>
        <ele>2456.0</ele>
      </trkpt>
      <trkpt lat="42.780401" lon="-0.139044">
        <time>2023-03-20T12:40:19+00:00</time>
        <ele>2454.0</ele>
      </trkpt>
      <trkpt lat="42.780406" lon="-0.139169">
        <time>2023-03-20T12:40:21+00:00</time>
        <ele>2450.0</ele>
      </trkpt>
      <trkpt lat="42.780448" lon="-0.139269">
        <time>2023-03-20T12:40:23+00:00</time>
        <ele>2447.0</ele>
      </trkpt>
      <trkpt lat="42.78052" lon="-0.139323">
        <time>2023-03-20T12:40:25+00:00</time>
        <ele>2444.0</ele>
      </trkpt>
      <trkpt lat="42.78057" lon="-0.139353">
        <time>2023-03-20T12:40:31+00:00</time>
        <ele>2443.0</ele>
      </trkpt>
      <trkpt lat="42.780562" lon="-0.13936">
        <time>2023-03-20T12:40:53+00:00</time>
        <ele>2443.0</ele>
      </trkpt>
      <trkpt lat="42.780556" lon="-0.139362">
        <time>2023-03-20T12:41:14+00:00</time>
        <ele>2443.0</ele>
      </trkpt>
      <trkpt lat="42.780559" lon="-0.139363">
        <time>2023-03-20T12:41:19+00:00</time>
        <ele>2443.0</ele>
      </trkpt>
      <trkpt lat="42.780574" lon="-0.139499">
        <time>2023-03-20T12:41:23+00:00</time>
        <ele>2437.0</ele>
      </trkpt>
      <trkpt lat="42.780597" lon="-0.139554">
        <time>2023-03-20T12:41:24+00:00</time>
        <ele>2434.0</ele>
      </trkpt>
      <trkpt lat="42.780681" lon="-0.139774">
        <time>2023-03-20T12:41:28+00:00</time>
        <ele>2423.0</ele>
      </trkpt>
      <trkpt lat="42.780697" lon="-0.139874">
        <time>2023-03-20T12:41:30+00:00</time>
        <ele>2418.0</ele>
      </trkpt>
      <trkpt lat="42.780735" lon="-0.139965">
        <time>2023-03-20T12:41:32+00:00</time>
        <ele>2413.0</ele>
      </trkpt>
      <trkpt lat="42.780737" lon="-0.140041">
        <time>2023-03-20T12:41:34+00:00</time>
        <ele>2409.0</ele>
      </trkpt>
      <trkpt lat="42.780755" lon="-0.140057">
        <time>2023-03-20T12:41:35+00:00</time>
        <ele>2409.0</ele>
      </trkpt>
      <trkpt lat="42.780777" lon="-0.140086">
        <time>2023-03-20T12:41:39+00:00</time>
        <ele>2407.0</ele>
      </trkpt>
      <trkpt lat="42.780766" lon="-0.140079">
        <time>2023-03-20T12:41:41+00:00</time>
        <ele>2407.0</ele>
      </trkpt>
      <trkpt lat="42.780476" lon="-0.140246">
        <time>2023-03-20T12:41:50+00:00</time>
        <ele>2401.0</ele>
      </trkpt>
      <trkpt lat="42.780344" lon="-0.140417">
        <time>2023-03-20T12:41:54+00:00</time>
        <ele>2397.0</ele>
      </trkpt>
      <trkpt lat="42.780402" lon="-0.14048">
        <time>2023-03-20T12:41:56+00:00</time>
        <ele>2393.0</ele>
      </trkpt>
      <trkpt lat="42.780453" lon="-0.140558">
        <time>2023-03-20T12:41:58+00:00</time>
        <ele>2388.0</ele>
      </trkpt>
      <trkpt lat="42.780512" lon="-0.140655">
        <time>2023-03-20T12:42:00+00:00</time>
        <ele>2383.0</ele>
      </trkpt>
      <trkpt lat="42.780606" lon="-0.140726">
        <time>2023-03-20T12:42:02+00:00</time>
        <ele>2378.0</ele>
      </trkpt>
      <trkpt lat="42.780647" lon="-0.140822">
        <time>2023-03-20T12:42:04+00:00</time>
        <ele>2373.0</ele>
      </trkpt>
      <trkpt lat="42.780694" lon="-0.140833">
        <time>2023-03-20T12:42:05+00:00</time>
        <ele>2371.0</ele>
      </trkpt>
      <trkpt lat="42.780742" lon="-0.140928">
        <time>2023-03-20T12:42:07+00:00</time>
        <ele>2366.0</ele>
      </trkpt>
      <trkpt lat="42.780772" lon="-0.14106">
        <time>2023-03-20T12:42:09+00:00</time>
        <ele>2359.0</ele>
      </trkpt>
      <trkpt lat="42.780798" lon="-0.141125">
        <time>2023-03-20T12:42:10+00:00</time>
        <ele>2355.0</ele>
      </trkpt>
      <trkpt lat="42.780912" lon="-0.141315">
        <time>2023-03-20T12:42:14+00:00</time>
        <ele>2343.0</ele>
      </trkpt>
      <trkpt lat="42.78092" lon="-0.141479">
        <time>2023-03-20T12:42:16+00:00</time>
        <ele>2336.0</ele>
      </trkpt>
      <trkpt lat="42.780965" lon="-0.141544">
        <time>2023-03-20T12:42:17+00:00</time>
        <ele>2332.0</ele>
      </trkpt>
      <trkpt lat="42.781037" lon="-0.141577">
        <time>2023-03-20T12:42:18+00:00</time>
        <ele>2328.0</ele>
      </trkpt>
      <trkpt lat="42.781101" lon="-0.141637">
        <time>2023-03-20T12:42:19+00:00</time>
        <ele>2324.0</ele>
      </trkpt>
      <trkpt lat="42.781134" lon="-0.141746">
        <time>2023-03-20T12:42:20+00:00</time>
        <ele>2320.0</ele>
      </trkpt>
      <trkpt lat="42.781259" lon="-0.141871">
        <time>2023-03-20T12:42:22+00:00</time>
        <ele>2314.0</ele>
      </trkpt>
      <trkpt lat="42.781441" lon="-0.141934">
        <time>2023-03-20T12:42:24+00:00</time>
        <ele>2308.0</ele>
      </trkpt>
      <trkpt lat="42.781616" lon="-0.142063">
        <time>2023-03-20T12:42:26+00:00</time>
        <ele>2301.0</ele>
      </trkpt>
      <trkpt lat="42.78171" lon="-0.142034">
        <time>2023-03-20T12:42:27+00:00</time>
        <ele>2298.0</ele>
      </trkpt>
      <trkpt lat="42.781891" lon="-0.142046">
        <time>2023-03-20T12:42:29+00:00</time>
        <ele>2293.0</ele>
      </trkpt>
      <trkpt lat="42.782008" lon="-0.142239">
        <time>2023-03-20T12:42:31+00:00</time>
        <ele>2288.0</ele>
      </trkpt>
      <trkpt lat="42.782157" lon="-0.142251">
        <time>2023-03-20T12:42:33+00:00</time>
        <ele>2283.0</ele>
      </trkpt>
      <trkpt lat="42.782382" lon="-0.142298">
        <time>2023-03-20T12:42:36+00:00</time>
        <ele>2279.0</ele>
      </trkpt>
      <trkpt lat="42.782515" lon="-0.142408">
        <time>2023-03-20T12:42:38+00:00</time>
        <ele>2275.0</ele>
      </trkpt>
      <trkpt lat="42.782715" lon="-0.14258">
        <time>2023-03-20T12:42:41+00:00</time>
        <ele>2271.0</ele>
      </trkpt>
      <trkpt lat="42.782762" lon="-0.142588">
        <time>2023-03-20T12:42:44+00:00</time>
        <ele>2270.0</ele>
      </trkpt>
      <trkpt lat="42.782729" lon="-0.142592">
        <time>2023-03-20T12:43:00+00:00</time>
        <ele>2271.0</ele>
      </trkpt>
      <trkpt lat="42.782731" lon="-0.142574">
        <time>2023-03-20T12:43:22+00:00</time>
        <ele>2271.0</ele>
      </trkpt>
      <trkpt lat="42.782737" lon="-0.142587">
        <time>2023-03-20T12:43:41+00:00</time>
        <ele>2270.0</ele>
      </trkpt>
      <trkpt lat="42.782734" lon="-0.14259">
        <time>2023-03-20T12:43:53+00:00</time>
        <ele>2270.0</ele>
      </trkpt>
      <trkpt lat="42.782843" lon="-0.142577">
        <time>2023-03-20T12:43:58+00:00</time>
        <ele>2269.0</ele>
      </trkpt>
      <trkpt lat="42.783082" lon="-0.142879">
        <time>2023-03-20T12:44:06+00:00</time>
        <ele>2263.0</ele>
      </trkpt>
      <trkpt lat="42.78327" lon="-0.142843">
        <time>2023-03-20T12:44:09+00:00</time>
        <ele>2259.0</ele>
      </trkpt>
      <trkpt lat="42.783415" lon="-0.142763">
        <time>2023-03-20T12:44:11+00:00</time>
        <ele>2256.0</ele>
      </trkpt>
      <trkpt lat="42.78357" lon="-0.142696">
        <time>2023-03-20T12:44:13+00:00</time>
        <ele>2254.0</ele>
      </trkpt>
      <trkpt lat="42.783838" lon="-0.14268">
        <time>2023-03-20T12:44:16+00:00</time>
        <ele>2249.0</ele>
      </trkpt>
      <trkpt lat="42.784111" lon="-0.142643">
        <time>2023-03-20T12:44:19+00:00</time>
        <ele>2244.0</ele>
      </trkpt>
      <trkpt lat="42.7842" lon="-0.142614">
        <time>2023-03-20T12:44:20+00:00</time>
        <ele>2242.0</ele>
      </trkpt>
      <trkpt lat="42.784561" lon="-0.142626">
        <time>2023-03-20T12:44:24+00:00</time>
        <ele>2234.0</ele>
      </trkpt>
      <trkpt lat="42.78481" lon="-0.142451">
        <time>2023-03-20T12:44:27+00:00</time>
        <ele>2228.0</ele>
      </trkpt>
      <trkpt lat="42.78505" lon="-0.142402">
        <time>2023-03-20T12:44:30+00:00</time>
        <ele>2219.0</ele>
      </trkpt>
      <trkpt lat="42.785119" lon="-0.142464">
        <time>2023-03-20T12:44:31+00:00</time>
        <ele>2218.0</ele>
      </trkpt>
      <trkpt lat="42.785198" lon="-0.14253">
        <time>2023-03-20T12:44:32+00:00</time>
        <ele>2215.0</ele>
      </trkpt>
      <trkpt lat="42.785275" lon="-0.14261">
        <time>2023-03-20T12:44:33+00:00</time>
        <ele>2212.0</ele>
      </trkpt>
      <trkpt lat="42.785434" lon="-0.142725">
        <time>2023-03-20T12:44:35+00:00</time>
        <ele>2206.0</ele>
      </trkpt>
      <trkpt lat="42.785626" lon="-0.142685">
        <time>2023-03-20T12:44:37+00:00</time>
        <ele>2200.0</ele>
      </trkpt>
      <trkpt lat="42.785813" lon="-0.142549">
        <time>2023-03-20T12:44:39+00:00</time>
        <ele>2195.0</ele>
      </trkpt>
      <trkpt lat="42.786214" lon="-0.142308">
        <time>2023-03-20T12:44:43+00:00</time>
        <ele>2185.0</ele>
      </trkpt>
      <trkpt lat="42.786446" lon="-0.142339">
        <time>2023-03-20T12:44:45+00:00</time>
        <ele>2182.0</ele>
      </trkpt>
      <trkpt lat="42.786809" lon="-0.142435">
        <time>2023-03-20T12:44:48+00:00</time>
        <ele>2177.0</ele>
      </trkpt>
      <trkpt lat="42.787059" lon="-0.142489">
        <time>2023-03-20T12:44:50+00:00</time>
        <ele>2173.0</ele>
      </trkpt>
      <trkpt lat="42.787427" lon="-0.142546">
        <time>2023-03-20T12:44:53+00:00</time>
        <ele>2172.0</ele>
      </trkpt>
      <trkpt lat="42.787782" lon="-0.14261">
        <time>2023-03-20T12:44:56+00:00</time>
        <ele>2168.0</ele>
      </trkpt>
      <trkpt lat="42.788124" lon="-0.142656">
        <time>2023-03-20T12:44:59+00:00</time>
        <ele>2164.0</ele>
      </trkpt>
      <trkpt lat="42.788549" lon="-0.142679">
        <time>2023-03-20T12:45:03+00:00</time>
        <ele>2161.0</ele>
      </trkpt>
      <trkpt lat="42.788748" lon="-0.142695">
        <time>2023-03-20T12:45:05+00:00</time>
        <ele>2159.0</ele>
      </trkpt>
      <trkpt lat="42.789113" lon="-0.142593">
        <time>2023-03-20T12:45:09+00:00</time>
        <ele>2156.0</ele>
      </trkpt>
      <trkpt lat="42.789284" lon="-0.142512">
        <time>2023-03-20T12:45:11+00:00</time>
        <ele>2155.0</ele>
      </trkpt>
      <trkpt lat="42.789765" lon="-0.142289">
        <time>2023-03-20T12:45:17+00:00</time>
        <ele>2150.0</ele>
      </trkpt>
      <trkpt lat="42.789919" lon="-0.142244">
        <time>2023-03-20T12:45:19+00:00</time>
        <ele>2149.0</ele>
      </trkpt>
      <trkpt lat="42.790343" lon="-0.142054">
        <time>2023-03-20T12:45:25+00:00</time>
        <ele>2147.0</ele>
      </trkpt>
      <trkpt lat="42.790479" lon="-0.142011">
        <time>2023-03-20T12:45:27+00:00</time>
        <ele>2146.0</ele>
      </trkpt>
      <trkpt lat="42.791185" lon="-0.141872">
        <time>2023-03-20T12:45:39+00:00</time>
        <ele>2145.0</ele>
      </trkpt>
      <trkpt lat="42.791293" lon="-0.14186">
        <time>2023-03-20T12:45:41+00:00</time>
        <ele>2145.0</ele>
      </trkpt>
      <trkpt lat="42.791439" lon="-0.141808">
        <time>2023-03-20T12:45:44+00:00</time>
        <ele>2146.0</ele>
      </trkpt>
      <trkpt lat="42.791621" lon="-0.141766">
        <time>2023-03-20T12:45:48+00:00</time>
        <ele>2145.0</ele>
      </trkpt>
      <trkpt lat="42.791799" lon="-0.141596">
        <time>2023-03-20T12:45:53+00:00</time>
        <ele>2145.0</ele>
      </trkpt>
      <trkpt lat="42.792009" lon="-0.141496">
        <time>2023-03-20T12:45:59+00:00</time>
        <ele>2144.0</ele>
      </trkpt>
      <trkpt lat="42.792481" lon="-0.141633">
        <time>2023-03-20T12:46:14+00:00</time>
        <ele>2143.0</ele>
      </trkpt>
      <trkpt lat="42.792573" lon="-0.141665">
        <time>2023-03-20T12:46:23+00:00</time>
        <ele>2143.0</ele>
      </trkpt>
      <trkpt lat="42.792576" lon="-0.14164">
        <time>2023-03-20T12:46:36+00:00</time>
        <ele>2143.0</ele>
      </trkpt>
      <trkpt lat="42.79257" lon="-0.141631">
        <time>2023-03-20T12:47:24+00:00</time>
        <ele>2143.0</ele>
      </trkpt>
      <trkpt lat="42.792564" lon="-0.141643">
        <time>2023-03-20T12:47:31+00:00</time>
        <ele>2143.0</ele>
      </trkpt>
      <trkpt lat="42.792565" lon="-0.141643">
        <time>2023-03-20T12:47:32+00:00</time>
        <ele>2143.0</ele>
      </trkpt>
      <trkpt lat="42.792568" lon="-0.141642">
        <time>2023-03-20T12:47:34+00:00</time>
        <ele>2143.0</ele>
      </trkpt>
      <trkpt lat="42.792578" lon="-0.141646">
        <time>2023-03-20T12:47:51+00:00</time>
        <ele>2143.0</ele>
      </trkpt>
      <trkpt lat="42.792575" lon="-0.14166">
        <time>2023-03-20T12:48:30+00:00</time>
        <ele>2143.0</ele>
      </trkpt>
      <trkpt lat="42.79259" lon="-0.141654">
        <time>2023-03-20T12:48:42+00:00</time>
        <ele>2143.0</ele>
      </trkpt>
      <trkpt lat="42.792593" lon="-0.141651">
        <time>2023-03-20T12:48:51+00:00</time>
        <ele>2143.0</ele>
      </trkpt>
      <trkpt lat="42.792619" lon="-0.141685">
        <time>2023-03-20T12:49:04+00:00</time>
        <ele>2143.0</ele>
      </trkpt>
      <trkpt lat="42.792656" lon="-0.141701">
        <time>2023-03-20T12:49:13+00:00</time>
        <ele>2143.0</ele>
      </trkpt>
      <trkpt lat="42.792681" lon="-0.14161">
        <time>2023-03-20T12:49:24+00:00</time>
        <ele>2144.0</ele>
      </trkpt>
      <trkpt lat="42.792746" lon="-0.14152">
        <time>2023-03-20T12:49:36+00:00</time>
        <ele>2145.0</ele>
      </trkpt>
      <trkpt lat="42.79273" lon="-0.141441">
        <time>2023-03-20T12:49:48+00:00</time>
        <ele>2145.0</ele>
      </trkpt>
      <trkpt lat="42.792721" lon="-0.1414">
        <time>2023-03-20T12:49:53+00:00</time>
        <ele>2145.0</ele>
      </trkpt>
      <trkpt lat="42.792809" lon="-0.14138">
        <time>2023-03-20T12:50:08+00:00</time>
        <ele>2147.0</ele>
      </trkpt>
      <trkpt lat="42.792853" lon="-0.141377">
        <time>2023-03-20T12:50:22+00:00</time>
        <ele>2148.0</ele>
      </trkpt>
      <trkpt lat="42.792863" lon="-0.141413">
        <time>2023-03-20T12:50:36+00:00</time>
        <ele>2148.0</ele>
      </trkpt>
      <trkpt lat="42.792843" lon="-0.141365">
        <time>2023-03-20T12:50:50+00:00</time>
        <ele>2148.0</ele>
      </trkpt>
      <trkpt lat="42.79283" lon="-0.141356">
        <time>2023-03-20T12:50:57+00:00</time>
        <ele>2147.0</ele>
      </trkpt>
      <trkpt lat="42.792824" lon="-0.141352">
        <time>2023-03-20T12:51:15+00:00</time>
        <ele>2147.0</ele>
      </trkpt>
      <trkpt lat="42.792826" lon="-0.141354">
        <time>2023-03-20T12:51:17+00:00</time>
        <ele>2147.0</ele>
      </trkpt>
      <trkpt lat="42.79284" lon="-0.141354">
        <time>2023-03-20T12:51:32+00:00</time>
        <ele>2148.0</ele>
      </trkpt>
      <trkpt lat="42.792846" lon="-0.141357">
        <time>2023-03-20T12:51:41+00:00</time>
        <ele>2148.0</ele>
      </trkpt>
      <trkpt lat="42.792847" lon="-0.141353">
        <time>2023-03-20T12:52:04+00:00</time>
        <ele>2148.0</ele>
      </trkpt>
      <trkpt lat="42.792797" lon="-0.141379">
        <time>2023-03-20T12:53:57+00:00</time>
        <ele>2147.0</ele>
      </trkpt>
      <trkpt lat="42.792811" lon="-0.141371">
        <time>2023-03-20T12:54:05+00:00</time>
        <ele>2147.0</ele>
      </trkpt>
      <trkpt lat="42.792819" lon="-0.141365">
        <time>2023-03-20T12:54:11+00:00</time>
        <ele>2147.0</ele>
      </trkpt>
      <trkpt lat="42.793036" lon="-0.141339">
        <time>2023-03-21T06:13:42+00:00</time>
        <ele>2148.0</ele>
      </trkpt>
      <trkpt lat="42.792894" lon="-0.141325">
        <time>2023-03-21T06:13:51+00:00</time>
        <ele>2149.0</ele>
      </trkpt>
      <trkpt lat="42.792908" lon="-0.141325">
        <time>2023-03-21T06:13:56+00:00</time>
        <ele>2149.0</ele>
      </trkpt>
      <trkpt lat="42.792914" lon="-0.141332">
        <time>2023-03-21T06:14:02+00:00</time>
        <ele>2149.0</ele>
      </trkpt>
      <trkpt lat="42.792917" lon="-0.141329">
        <time>2023-03-21T06:14:08+00:00</time>
        <ele>2149.0</ele>
      </trkpt>
      <trkpt lat="42.792902" lon="-0.141345">
        <time>2023-03-21T06:14:14+00:00</time>
        <ele>2149.0</ele>
      </trkpt>
      <trkpt lat="42.792883" lon="-0.141355">
        <time>2023-03-21T06:14:22+00:00</time>
        <ele>2148.0</ele>
      </trkpt>
      <trkpt lat="42.7929" lon="-0.141343">
        <time>2023-03-21T06:14:30+00:00</time>
        <ele>2149.0</ele>
      </trkpt>
      <trkpt lat="42.792887" lon="-0.141323">
        <time>2023-03-21T06:14:40+00:00</time>
        <ele>2148.0</ele>
      </trkpt>
      <trkpt lat="42.792857" lon="-0.141291">
        <time>2023-03-21T06:14:53+00:00</time>
        <ele>2148.0</ele>
      </trkpt>
      <trkpt lat="42.792854" lon="-0.141288">
        <time>2023-03-21T06:14:54+00:00</time>
        <ele>2148.0</ele>
      </trkpt>
      <trkpt lat="42.792806" lon="-0.14123">
        <time>2023-03-21T06:15:05+00:00</time>
        <ele>2148.0</ele>
      </trkpt>
      <trkpt lat="42.792761" lon="-0.141168">
        <time>2023-03-21T06:15:13+00:00</time>
        <ele>2148.0</ele>
      </trkpt>
      <trkpt lat="42.79272" lon="-0.141095">
        <time>2023-03-21T06:15:21+00:00</time>
        <ele>2148.0</ele>
      </trkpt>
      <trkpt lat="42.792717" lon="-0.141085">
        <time>2023-03-21T06:15:22+00:00</time>
        <ele>2147.0</ele>
      </trkpt>
      <trkpt lat="42.792724" lon="-0.141055">
        <time>2023-03-21T06:15:24+00:00</time>
        <ele>2148.0</ele>
      </trkpt>
      <trkpt lat="42.792725" lon="-0.141041">
        <time>2023-03-21T06:15:25+00:00</time>
        <ele>2148.0</ele>
      </trkpt>
      <trkpt lat="42.792697" lon="-0.140957">
        <time>2023-03-21T06:15:35+00:00</time>
        <ele>2148.0</ele>
      </trkpt>
      <trkpt lat="42.7927" lon="-0.140908">
        <time>2023-03-21T06:15:39+00:00</time>
        <ele>2148.0</ele>
      </trkpt>
      <trkpt lat="42.792646" lon="-0.140808">
        <time>2023-03-21T06:15:52+00:00</time>
        <ele>2149.0</ele>
      </trkpt>
      <trkpt lat="42.792613" lon="-0.140765">
        <time>2023-03-21T06:15:59+00:00</time>
        <ele>2150.0</ele>
      </trkpt>
      <trkpt lat="42.792621" lon="-0.140733">
        <time>2023-03-21T06:16:01+00:00</time>
        <ele>2151.0</ele>
      </trkpt>
      <trkpt lat="42.792603" lon="-0.140667">
        <time>2023-03-21T06:16:07+00:00</time>
        <ele>2152.0</ele>
      </trkpt>
      <trkpt lat="42.79259" lon="-0.140429">
        <time>2023-03-21T06:16:25+00:00</time>
        <ele>2162.0</ele>
      </trkpt>
      <trkpt lat="42.792538" lon="-0.140295">
        <time>2023-03-21T06:16:40+00:00</time>
        <ele>2170.0</ele>
      </trkpt>
      <trkpt lat="42.792454" lon="-0.140208">
        <time>2023-03-21T06:16:54+00:00</time>
        <ele>2175.0</ele>
      </trkpt>
      <trkpt lat="42.792449" lon="-0.140167">
        <time>2023-03-21T06:16:59+00:00</time>
        <ele>2177.0</ele>
      </trkpt>
      <trkpt lat="42.792389" lon="-0.140086">
        <time>2023-03-21T06:17:13+00:00</time>
        <ele>2181.0</ele>
      </trkpt>
      <trkpt lat="42.792275" lon="-0.140042">
        <time>2023-03-21T06:17:26+00:00</time>
        <ele>2178.0</ele>
      </trkpt>
      <trkpt lat="42.792198" lon="-0.139978">
        <time>2023-03-21T06:17:39+00:00</time>
        <ele>2178.0</ele>
      </trkpt>
      <trkpt lat="42.792173" lon="-0.139865">
        <time>2023-03-21T06:17:52+00:00</time>
        <ele>2184.0</ele>
      </trkpt>
      <trkpt lat="42.792082" lon="-0.139827">
        <time>2023-03-21T06:18:05+00:00</time>
        <ele>2182.0</ele>
      </trkpt>
      <trkpt lat="42.79202" lon="-0.139949">
        <time>2023-03-21T06:18:17+00:00</time>
        <ele>2173.0</ele>
      </trkpt>
      <trkpt lat="42.792078" lon="-0.139897">
        <time>2023-03-21T06:18:28+00:00</time>
        <ele>2178.0</ele>
      </trkpt>
      <trkpt lat="42.79208" lon="-0.139907">
        <time>2023-03-21T06:18:33+00:00</time>
        <ele>2177.0</ele>
      </trkpt>
      <trkpt lat="42.792079" lon="-0.13991">
        <time>2023-03-21T06:18:34+00:00</time>
        <ele>2177.0</ele>
      </trkpt>
      <trkpt lat="42.792074" lon="-0.139905">
        <time>2023-03-21T06:18:35+00:00</time>
        <ele>2177.0</ele>
      </trkpt>
      <trkpt lat="42.792071" lon="-0.139903">
        <time>2023-03-21T06:18:37+00:00</time>
        <ele>2177.0</ele>
      </trkpt>
      <trkpt lat="42.792058" lon="-0.139891">
        <time>2023-03-21T06:18:58+00:00</time>
        <ele>2177.0</ele>
      </trkpt>
      <trkpt lat="42.792063" lon="-0.139893">
        <time>2023-03-21T06:19:03+00:00</time>
        <ele>2177.0</ele>
      </trkpt>
      <trkpt lat="42.792066" lon="-0.139892">
        <time>2023-03-21T06:19:20+00:00</time>
        <ele>2178.0</ele>
      </trkpt>
      <trkpt lat="42.792061" lon="-0.139892">
        <time>2023-03-21T06:19:21+00:00</time>
        <ele>2177.0</ele>
      </trkpt>
      <trkpt lat="42.792065" lon="-0.139881">
        <time>2023-03-21T06:19:22+00:00</time>
        <ele>2178.0</ele>
      </trkpt>
      <trkpt lat="42.792076" lon="-0.139869">
        <time>2023-03-21T06:19:23+00:00</time>
        <ele>2179.0</ele>
      </trkpt>
      <trkpt lat="42.792086" lon="-0.139859">
        <time>2023-03-21T06:19:24+00:00</time>
        <ele>2180.0</ele>
      </trkpt>
      <trkpt lat="42.79209" lon="-0.139851">
        <time>2023-03-21T06:19:26+00:00</time>
        <ele>2181.0</ele>
      </trkpt>
      <trkpt lat="42.792089" lon="-0.139851">
        <time>2023-03-21T06:19:27+00:00</time>
        <ele>2181.0</ele>
      </trkpt>
      <trkpt lat="42.792099" lon="-0.139843">
        <time>2023-03-21T06:19:30+00:00</time>
        <ele>2182.0</ele>
      </trkpt>
      <trkpt lat="42.7921" lon="-0.139839">
        <time>2023-03-21T06:19:31+00:00</time>
        <ele>2182.0</ele>
      </trkpt>
      <trkpt lat="42.792038" lon="-0.139967">
        <time>2023-03-21T06:19:39+00:00</time>
        <ele>2173.0</ele>
      </trkpt>
      <trkpt lat="42.792072" lon="-0.139888">
        <time>2023-03-21T06:19:53+00:00</time>
        <ele>2178.0</ele>
      </trkpt>
      <trkpt lat="42.792064" lon="-0.139896">
        <time>2023-03-21T06:20:09+00:00</time>
        <ele>2177.0</ele>
      </trkpt>
      <trkpt lat="42.792075" lon="-0.139891">
        <time>2023-03-21T06:20:13+00:00</time>
        <ele>2178.0</ele>
      </trkpt>
      <trkpt lat="42.792056" lon="-0.139927">
        <time>2023-03-21T06:20:30+00:00</time>
        <ele>2175.0</ele>
      </trkpt>
      <trkpt lat="42.792021" lon="-0.139942">
        <time>2023-03-21T06:20:51+00:00</time>
        <ele>2173.0</ele>
      </trkpt>
      <trkpt lat="42.792013" lon="-0.139946">
        <time>2023-03-21T06:20:54+00:00</time>
        <ele>2173.0</ele>
      </trkpt>
      <trkpt lat="42.791997" lon="-0.139874">
        <time>2023-03-21T06:21:04+00:00</time>
        <ele>2176.0</ele>
      </trkpt>
      <trkpt lat="42.791909" lon="-0.139805">
        <time>2023-03-21T06:21:17+00:00</time>
        <ele>2177.0</ele>
      </trkpt>
      <trkpt lat="42.791869" lon="-0.139743">
        <time>2023-03-21T06:21:29+00:00</time>
        <ele>2179.0</ele>
      </trkpt>
      <trkpt lat="42.791802" lon="-0.139654">
        <time>2023-03-21T06:21:42+00:00</time>
        <ele>2182.0</ele>
      </trkpt>
      <trkpt lat="42.791712" lon="-0.139595">
        <time>2023-03-21T06:21:57+00:00</time>
        <ele>2184.0</ele>
      </trkpt>
      <trkpt lat="42.791628" lon="-0.139525">
        <time>2023-03-21T06:22:11+00:00</time>
        <ele>2186.0</ele>
      </trkpt>
      <trkpt lat="42.791531" lon="-0.139496">
        <time>2023-03-21T06:22:25+00:00</time>
        <ele>2186.0</ele>
      </trkpt>
      <trkpt lat="42.791467" lon="-0.139432">
        <time>2023-03-21T06:22:38+00:00</time>
        <ele>2189.0</ele>
      </trkpt>
      <trkpt lat="42.791406" lon="-0.139383">
        <time>2023-03-21T06:22:51+00:00</time>
        <ele>2190.0</ele>
      </trkpt>
      <trkpt lat="42.791322" lon="-0.139329">
        <time>2023-03-21T06:23:05+00:00</time>
        <ele>2192.0</ele>
      </trkpt>
      <trkpt lat="42.791263" lon="-0.139281">
        <time>2023-03-21T06:23:18+00:00</time>
        <ele>2193.0</ele>
      </trkpt>
      <trkpt lat="42.791174" lon="-0.139191">
        <time>2023-03-21T06:23:35+00:00</time>
        <ele>2195.0</ele>
      </trkpt>
      <trkpt lat="42.791124" lon="-0.139117">
        <time>2023-03-21T06:23:49+00:00</time>
        <ele>2196.0</ele>
      </trkpt>
      <trkpt lat="42.791069" lon="-0.139063">
        <time>2023-03-21T06:24:01+00:00</time>
        <ele>2197.0</ele>
      </trkpt>
      <trkpt lat="42.791002" lon="-0.138982">
        <time>2023-03-21T06:24:14+00:00</time>
        <ele>2199.0</ele>
      </trkpt>
      <trkpt lat="42.790922" lon="-0.138928">
        <time>2023-03-21T06:24:28+00:00</time>
        <ele>2202.0</ele>
      </trkpt>
      <trkpt lat="42.790848" lon="-0.138872">
        <time>2023-03-21T06:24:42+00:00</time>
        <ele>2205.0</ele>
      </trkpt>
      <trkpt lat="42.79078" lon="-0.138804">
        <time>2023-03-21T06:24:57+00:00</time>
        <ele>2208.0</ele>
      </trkpt>
      <trkpt lat="42.790679" lon="-0.138782">
        <time>2023-03-21T06:25:12+00:00</time>
        <ele>2213.0</ele>
      </trkpt>
      <trkpt lat="42.790639" lon="-0.138795">
        <time>2023-03-21T06:25:17+00:00</time>
        <ele>2214.0</ele>
      </trkpt>
      <trkpt lat="42.790663" lon="-0.138708">
        <time>2023-03-21T06:25:28+00:00</time>
        <ele>2216.0</ele>
      </trkpt>
      <trkpt lat="42.790717" lon="-0.138602">
        <time>2023-03-21T06:25:44+00:00</time>
        <ele>2218.0</ele>
      </trkpt>
      <trkpt lat="42.790779" lon="-0.138552">
        <time>2023-03-21T06:25:55+00:00</time>
        <ele>2218.0</ele>
      </trkpt>
      <trkpt lat="42.790822" lon="-0.138548">
        <time>2023-03-21T06:26:05+00:00</time>
        <ele>2218.0</ele>
      </trkpt>
      <trkpt lat="42.790774" lon="-0.138488">
        <time>2023-03-21T06:26:16+00:00</time>
        <ele>2221.0</ele>
      </trkpt>
      <trkpt lat="42.790705" lon="-0.13847">
        <time>2023-03-21T06:26:29+00:00</time>
        <ele>2223.0</ele>
      </trkpt>
      <trkpt lat="42.790631" lon="-0.138454">
        <time>2023-03-21T06:26:42+00:00</time>
        <ele>2226.0</ele>
      </trkpt>
      <trkpt lat="42.790605" lon="-0.138461">
        <time>2023-03-21T06:26:53+00:00</time>
        <ele>2226.0</ele>
      </trkpt>
      <trkpt lat="42.790609" lon="-0.138414">
        <time>2023-03-21T06:27:01+00:00</time>
        <ele>2228.0</ele>
      </trkpt>
      <trkpt lat="42.790636" lon="-0.138382">
        <time>2023-03-21T06:27:11+00:00</time>
        <ele>2229.0</ele>
      </trkpt>
      <trkpt lat="42.790671" lon="-0.138345">
        <time>2023-03-21T06:27:21+00:00</time>
        <ele>2230.0</ele>
      </trkpt>
      <trkpt lat="42.790683" lon="-0.138342">
        <time>2023-03-21T06:27:24+00:00</time>
        <ele>2230.0</ele>
      </trkpt>
      <trkpt lat="42.790646" lon="-0.138322">
        <time>2023-03-21T06:27:33+00:00</time>
        <ele>2232.0</ele>
      </trkpt>
      <trkpt lat="42.790596" lon="-0.138315">
        <time>2023-03-21T06:27:45+00:00</time>
        <ele>2233.0</ele>
      </trkpt>
      <trkpt lat="42.790539" lon="-0.13831">
        <time>2023-03-21T06:27:57+00:00</time>
        <ele>2235.0</ele>
      </trkpt>
      <trkpt lat="42.790477" lon="-0.138408">
        <time>2023-03-21T06:28:12+00:00</time>
        <ele>2232.0</ele>
      </trkpt>
      <trkpt lat="42.790419" lon="-0.138445">
        <time>2023-03-21T06:28:24+00:00</time>
        <ele>2232.0</ele>
      </trkpt>
      <trkpt lat="42.79034" lon="-0.138378">
        <time>2023-03-21T06:28:38+00:00</time>
        <ele>2236.0</ele>
      </trkpt>
      <trkpt lat="42.790348" lon="-0.138356">
        <time>2023-03-21T06:28:47+00:00</time>
        <ele>2237.0</ele>
      </trkpt>
      <trkpt lat="42.790363" lon="-0.138269">
        <time>2023-03-21T06:29:00+00:00</time>
        <ele>2240.0</ele>
      </trkpt>
      <trkpt lat="42.790383" lon="-0.138203">
        <time>2023-03-21T06:29:11+00:00</time>
        <ele>2242.0</ele>
      </trkpt>
      <trkpt lat="42.790424" lon="-0.138146">
        <time>2023-03-21T06:29:23+00:00</time>
        <ele>2244.0</ele>
      </trkpt>
      <trkpt lat="42.790406" lon="-0.138131">
        <time>2023-03-21T06:29:34+00:00</time>
        <ele>2245.0</ele>
      </trkpt>
      <trkpt lat="42.790344" lon="-0.138132">
        <time>2023-03-21T06:29:45+00:00</time>
        <ele>2246.0</ele>
      </trkpt>
      <trkpt lat="42.790295" lon="-0.138122">
        <time>2023-03-21T06:29:57+00:00</time>
        <ele>2248.0</ele>
      </trkpt>
      <trkpt lat="42.790342" lon="-0.138029">
        <time>2023-03-21T06:30:14+00:00</time>
        <ele>2251.0</ele>
      </trkpt>
      <trkpt lat="42.790389" lon="-0.137954">
        <time>2023-03-21T06:30:26+00:00</time>
        <ele>2253.0</ele>
      </trkpt>
      <trkpt lat="42.790431" lon="-0.137902">
        <time>2023-03-21T06:30:38+00:00</time>
        <ele>2256.0</ele>
      </trkpt>
      <trkpt lat="42.790353" lon="-0.137864">
        <time>2023-03-21T06:30:52+00:00</time>
        <ele>2259.0</ele>
      </trkpt>
      <trkpt lat="42.790288" lon="-0.137824">
        <time>2023-03-21T06:31:05+00:00</time>
        <ele>2262.0</ele>
      </trkpt>
      <trkpt lat="42.790238" lon="-0.1378">
        <time>2023-03-21T06:31:18+00:00</time>
        <ele>2264.0</ele>
      </trkpt>
      <trkpt lat="42.790143" lon="-0.137741">
        <time>2023-03-21T06:31:35+00:00</time>
        <ele>2267.0</ele>
      </trkpt>
      <trkpt lat="42.790103" lon="-0.137693">
        <time>2023-03-21T06:31:47+00:00</time>
        <ele>2268.0</ele>
      </trkpt>
      <trkpt lat="42.790046" lon="-0.137649">
        <time>2023-03-21T06:31:58+00:00</time>
        <ele>2269.0</ele>
      </trkpt>
      <trkpt lat="42.790008" lon="-0.137616">
        <time>2023-03-21T06:32:08+00:00</time>
        <ele>2269.0</ele>
      </trkpt>
      <trkpt lat="42.78997" lon="-0.137546">
        <time>2023-03-21T06:32:20+00:00</time>
        <ele>2272.0</ele>
      </trkpt>
      <trkpt lat="42.789888" lon="-0.137445">
        <time>2023-03-21T06:32:39+00:00</time>
        <ele>2274.0</ele>
      </trkpt>
      <trkpt lat="42.789818" lon="-0.137371">
        <time>2023-03-21T06:32:55+00:00</time>
        <ele>2277.0</ele>
      </trkpt>
      <trkpt lat="42.789748" lon="-0.137293">
        <time>2023-03-21T06:33:12+00:00</time>
        <ele>2280.0</ele>
      </trkpt>
      <trkpt lat="42.78977" lon="-0.137242">
        <time>2023-03-21T06:33:28+00:00</time>
        <ele>2283.0</ele>
      </trkpt>
      <trkpt lat="42.789815" lon="-0.137216">
        <time>2023-03-21T06:33:45+00:00</time>
        <ele>2284.0</ele>
      </trkpt>
      <trkpt lat="42.789885" lon="-0.137181">
        <time>2023-03-21T06:33:59+00:00</time>
        <ele>2286.0</ele>
      </trkpt>
      <trkpt lat="42.789941" lon="-0.137141">
        <time>2023-03-21T06:34:13+00:00</time>
        <ele>2289.0</ele>
      </trkpt>
      <trkpt lat="42.789903" lon="-0.137114">
        <time>2023-03-21T06:34:23+00:00</time>
        <ele>2290.0</ele>
      </trkpt>
      <trkpt lat="42.789831" lon="-0.137019">
        <time>2023-03-21T06:34:39+00:00</time>
        <ele>2292.0</ele>
      </trkpt>
      <trkpt lat="42.789774" lon="-0.136966">
        <time>2023-03-21T06:34:52+00:00</time>
        <ele>2294.0</ele>
      </trkpt>
      <trkpt lat="42.789721" lon="-0.136911">
        <time>2023-03-21T06:35:04+00:00</time>
        <ele>2296.0</ele>
      </trkpt>
      <trkpt lat="42.789687" lon="-0.136882">
        <time>2023-03-21T06:35:16+00:00</time>
        <ele>2297.0</ele>
      </trkpt>
      <trkpt lat="42.789598" lon="-0.136811">
        <time>2023-03-21T06:35:32+00:00</time>
        <ele>2300.0</ele>
      </trkpt>
      <trkpt lat="42.789535" lon="-0.136781">
        <time>2023-03-21T06:35:44+00:00</time>
        <ele>2303.0</ele>
      </trkpt>
      <trkpt lat="42.789526" lon="-0.136758">
        <time>2023-03-21T06:35:54+00:00</time>
        <ele>2305.0</ele>
      </trkpt>
      <trkpt lat="42.789614" lon="-0.136707">
        <time>2023-03-21T06:36:08+00:00</time>
        <ele>2305.0</ele>
      </trkpt>
      <trkpt lat="42.78965" lon="-0.13667">
        <time>2023-03-21T06:36:14+00:00</time>
        <ele>2307.0</ele>
      </trkpt>
      <trkpt lat="42.789707" lon="-0.136633">
        <time>2023-03-21T06:36:25+00:00</time>
        <ele>2308.0</ele>
      </trkpt>
      <trkpt lat="42.789783" lon="-0.136559">
        <time>2023-03-21T06:36:39+00:00</time>
        <ele>2311.0</ele>
      </trkpt>
      <trkpt lat="42.789835" lon="-0.136508">
        <time>2023-03-21T06:36:51+00:00</time>
        <ele>2313.0</ele>
      </trkpt>
      <trkpt lat="42.789868" lon="-0.136481">
        <time>2023-03-21T06:37:04+00:00</time>
        <ele>2315.0</ele>
      </trkpt>
      <trkpt lat="42.789865" lon="-0.136477">
        <time>2023-03-21T06:37:08+00:00</time>
        <ele>2315.0</ele>
      </trkpt>
      <trkpt lat="42.789868" lon="-0.136472">
        <time>2023-03-21T06:37:09+00:00</time>
        <ele>2315.0</ele>
      </trkpt>
      <trkpt lat="42.789871" lon="-0.136472">
        <time>2023-03-21T06:37:10+00:00</time>
        <ele>2315.0</ele>
      </trkpt>
      <trkpt lat="42.78987" lon="-0.136474">
        <time>2023-03-21T06:37:11+00:00</time>
        <ele>2315.0</ele>
      </trkpt>
      <trkpt lat="42.789881" lon="-0.136451">
        <time>2023-03-21T06:37:40+00:00</time>
        <ele>2316.0</ele>
      </trkpt>
      <trkpt lat="42.789879" lon="-0.13645">
        <time>2023-03-21T06:37:52+00:00</time>
        <ele>2316.0</ele>
      </trkpt>
      <trkpt lat="42.789881" lon="-0.136437">
        <time>2023-03-21T06:38:00+00:00</time>
        <ele>2317.0</ele>
      </trkpt>
      <trkpt lat="42.789879" lon="-0.136453">
        <time>2023-03-21T06:38:05+00:00</time>
        <ele>2316.0</ele>
      </trkpt>
      <trkpt lat="42.78988" lon="-0.136454">
        <time>2023-03-21T06:38:06+00:00</time>
        <ele>2316.0</ele>
      </trkpt>
      <trkpt lat="42.789883" lon="-0.136454">
        <time>2023-03-21T06:38:08+00:00</time>
        <ele>2316.0</ele>
      </trkpt>
      <trkpt lat="42.789886" lon="-0.136452">
        <time>2023-03-21T06:38:09+00:00</time>
        <ele>2316.0</ele>
      </trkpt>
      <trkpt lat="42.789898" lon="-0.136439">
        <time>2023-03-21T06:38:12+00:00</time>
        <ele>2317.0</ele>
      </trkpt>
      <trkpt lat="42.789949" lon="-0.136374">
        <time>2023-03-21T06:38:39+00:00</time>
        <ele>2320.0</ele>
      </trkpt>
      <trkpt lat="42.78994" lon="-0.136414">
        <time>2023-03-21T06:38:56+00:00</time>
        <ele>2318.0</ele>
      </trkpt>
      <trkpt lat="42.789946" lon="-0.13641">
        <time>2023-03-21T06:38:57+00:00</time>
        <ele>2318.0</ele>
      </trkpt>
      <trkpt lat="42.78996" lon="-0.136399">
        <time>2023-03-21T06:38:59+00:00</time>
        <ele>2318.0</ele>
      </trkpt>
      <trkpt lat="42.789966" lon="-0.1364">
        <time>2023-03-21T06:39:00+00:00</time>
        <ele>2318.0</ele>
      </trkpt>
      <trkpt lat="42.789955" lon="-0.136415">
        <time>2023-03-21T06:39:02+00:00</time>
        <ele>2318.0</ele>
      </trkpt>
      <trkpt lat="42.789955" lon="-0.136419">
        <time>2023-03-21T06:39:04+00:00</time>
        <ele>2317.0</ele>
      </trkpt>
      <trkpt lat="42.789964" lon="-0.136415">
        <time>2023-03-21T06:39:07+00:00</time>
        <ele>2318.0</ele>
      </trkpt>
      <trkpt lat="42.789966" lon="-0.136419">
        <time>2023-03-21T06:39:08+00:00</time>
        <ele>2317.0</ele>
      </trkpt>
      <trkpt lat="42.789961" lon="-0.136414">
        <time>2023-03-21T06:39:10+00:00</time>
        <ele>2318.0</ele>
      </trkpt>
      <trkpt lat="42.789912" lon="-0.136458">
        <time>2023-03-21T06:39:22+00:00</time>
        <ele>2316.0</ele>
      </trkpt>
      <trkpt lat="42.789893" lon="-0.13649">
        <time>2023-03-21T06:39:43+00:00</time>
        <ele>2314.0</ele>
      </trkpt>
      <trkpt lat="42.78993" lon="-0.136433">
        <time>2023-03-21T06:39:57+00:00</time>
        <ele>2317.0</ele>
      </trkpt>
      <trkpt lat="42.789994" lon="-0.136392">
        <time>2023-03-21T06:40:14+00:00</time>
        <ele>2319.0</ele>
      </trkpt>
      <trkpt lat="42.790054" lon="-0.136372">
        <time>2023-03-21T06:40:27+00:00</time>
        <ele>2320.0</ele>
      </trkpt>
      <trkpt lat="42.790121" lon="-0.136349">
        <time>2023-03-21T06:40:41+00:00</time>
        <ele>2322.0</ele>
      </trkpt>
      <trkpt lat="42.790208" lon="-0.136316">
        <time>2023-03-21T06:40:54+00:00</time>
        <ele>2325.0</ele>
      </trkpt>
      <trkpt lat="42.790287" lon="-0.136279">
        <time>2023-03-21T06:41:07+00:00</time>
        <ele>2328.0</ele>
      </trkpt>
      <trkpt lat="42.790304" lon="-0.136263">
        <time>2023-03-21T06:41:17+00:00</time>
        <ele>2329.0</ele>
      </trkpt>
      <trkpt lat="42.790238" lon="-0.136208">
        <time>2023-03-21T06:41:32+00:00</time>
        <ele>2331.0</ele>
      </trkpt>
      <trkpt lat="42.790197" lon="-0.136154">
        <time>2023-03-21T06:41:44+00:00</time>
        <ele>2333.0</ele>
      </trkpt>
      <trkpt lat="42.790145" lon="-0.13612">
        <time>2023-03-21T06:41:56+00:00</time>
        <ele>2335.0</ele>
      </trkpt>
      <trkpt lat="42.790116" lon="-0.136063">
        <time>2023-03-21T06:42:10+00:00</time>
        <ele>2339.0</ele>
      </trkpt>
      <trkpt lat="42.790153" lon="-0.136029">
        <time>2023-03-21T06:42:23+00:00</time>
        <ele>2341.0</ele>
      </trkpt>
      <trkpt lat="42.79024" lon="-0.135988">
        <time>2023-03-21T06:42:39+00:00</time>
        <ele>2343.0</ele>
      </trkpt>
      <trkpt lat="42.790307" lon="-0.135972">
        <time>2023-03-21T06:42:51+00:00</time>
        <ele>2344.0</ele>
      </trkpt>
      <trkpt lat="42.790406" lon="-0.13592">
        <time>2023-03-21T06:43:10+00:00</time>
        <ele>2346.0</ele>
      </trkpt>
      <trkpt lat="42.790461" lon="-0.135885">
        <time>2023-03-21T06:43:21+00:00</time>
        <ele>2348.0</ele>
      </trkpt>
      <trkpt lat="42.790545" lon="-0.135896">
        <time>2023-03-21T06:43:37+00:00</time>
        <ele>2348.0</ele>
      </trkpt>
      <trkpt lat="42.790598" lon="-0.135922">
        <time>2023-03-21T06:43:54+00:00</time>
        <ele>2347.0</ele>
      </trkpt>
      <trkpt lat="42.790626" lon="-0.1359">
        <time>2023-03-21T06:44:14+00:00</time>
        <ele>2348.0</ele>
      </trkpt>
      <trkpt lat="42.790641" lon="-0.135888">
        <time>2023-03-21T06:44:33+00:00</time>
        <ele>2349.0</ele>
      </trkpt>
      <trkpt lat="42.79065" lon="-0.13591">
        <time>2023-03-21T06:44:49+00:00</time>
        <ele>2348.0</ele>
      </trkpt>
      <trkpt lat="42.790725" lon="-0.135876">
        <time>2023-03-21T06:45:01+00:00</time>
        <ele>2350.0</ele>
      </trkpt>
      <trkpt lat="42.79077" lon="-0.13584">
        <time>2023-03-21T06:45:13+00:00</time>
        <ele>2352.0</ele>
      </trkpt>
      <trkpt lat="42.790794" lon="-0.1358">
        <time>2023-03-21T06:45:25+00:00</time>
        <ele>2354.0</ele>
      </trkpt>
      <trkpt lat="42.790737" lon="-0.135723">
        <time>2023-03-21T06:45:39+00:00</time>
        <ele>2358.0</ele>
      </trkpt>
      <trkpt lat="42.79068" lon="-0.135621">
        <time>2023-03-21T06:45:54+00:00</time>
        <ele>2363.0</ele>
      </trkpt>
      <trkpt lat="42.79062" lon="-0.135557">
        <time>2023-03-21T06:46:08+00:00</time>
        <ele>2366.0</ele>
      </trkpt>
      <trkpt lat="42.790565" lon="-0.135485">
        <time>2023-03-21T06:46:21+00:00</time>
        <ele>2369.0</ele>
      </trkpt>
      <trkpt lat="42.790494" lon="-0.135449">
        <time>2023-03-21T06:46:36+00:00</time>
        <ele>2370.0</ele>
      </trkpt>
      <trkpt lat="42.790403" lon="-0.135407">
        <time>2023-03-21T06:46:52+00:00</time>
        <ele>2372.0</ele>
      </trkpt>
      <trkpt lat="42.790349" lon="-0.135365">
        <time>2023-03-21T06:47:05+00:00</time>
        <ele>2374.0</ele>
      </trkpt>
      <trkpt lat="42.790287" lon="-0.135329">
        <time>2023-03-21T06:47:19+00:00</time>
        <ele>2375.0</ele>
      </trkpt>
      <trkpt lat="42.790203" lon="-0.135257">
        <time>2023-03-21T06:47:35+00:00</time>
        <ele>2378.0</ele>
      </trkpt>
      <trkpt lat="42.790135" lon="-0.135235">
        <time>2023-03-21T06:47:48+00:00</time>
        <ele>2380.0</ele>
      </trkpt>
      <trkpt lat="42.790037" lon="-0.135213">
        <time>2023-03-21T06:48:04+00:00</time>
        <ele>2381.0</ele>
      </trkpt>
      <trkpt lat="42.789999" lon="-0.13519">
        <time>2023-03-21T06:48:14+00:00</time>
        <ele>2382.0</ele>
      </trkpt>
      <trkpt lat="42.789975" lon="-0.135196">
        <time>2023-03-21T06:48:30+00:00</time>
        <ele>2382.0</ele>
      </trkpt>
      <trkpt lat="42.790038" lon="-0.135064">
        <time>2023-03-21T06:48:45+00:00</time>
        <ele>2387.0</ele>
      </trkpt>
      <trkpt lat="42.790108" lon="-0.13497">
        <time>2023-03-21T06:49:00+00:00</time>
        <ele>2390.0</ele>
      </trkpt>
      <trkpt lat="42.790167" lon="-0.1349">
        <time>2023-03-21T06:49:13+00:00</time>
        <ele>2392.0</ele>
      </trkpt>
      <trkpt lat="42.790241" lon="-0.134849">
        <time>2023-03-21T06:49:26+00:00</time>
        <ele>2394.0</ele>
      </trkpt>
      <trkpt lat="42.790338" lon="-0.134823">
        <time>2023-03-21T06:49:42+00:00</time>
        <ele>2394.0</ele>
      </trkpt>
      <trkpt lat="42.790386" lon="-0.134806">
        <time>2023-03-21T06:49:53+00:00</time>
        <ele>2395.0</ele>
      </trkpt>
      <trkpt lat="42.790449" lon="-0.134796">
        <time>2023-03-21T06:50:05+00:00</time>
        <ele>2395.0</ele>
      </trkpt>
      <trkpt lat="42.790472" lon="-0.134764">
        <time>2023-03-21T06:50:15+00:00</time>
        <ele>2396.0</ele>
      </trkpt>
      <trkpt lat="42.790482" lon="-0.134787">
        <time>2023-03-21T06:50:36+00:00</time>
        <ele>2396.0</ele>
      </trkpt>
      <trkpt lat="42.790447" lon="-0.134727">
        <time>2023-03-21T06:50:52+00:00</time>
        <ele>2397.0</ele>
      </trkpt>
      <trkpt lat="42.790408" lon="-0.134618">
        <time>2023-03-21T06:51:07+00:00</time>
        <ele>2400.0</ele>
      </trkpt>
      <trkpt lat="42.790422" lon="-0.134573">
        <time>2023-03-21T06:51:14+00:00</time>
        <ele>2401.0</ele>
      </trkpt>
      <trkpt lat="42.790487" lon="-0.134463">
        <time>2023-03-21T06:51:28+00:00</time>
        <ele>2402.0</ele>
      </trkpt>
      <trkpt lat="42.790518" lon="-0.134388">
        <time>2023-03-21T06:51:39+00:00</time>
        <ele>2404.0</ele>
      </trkpt>
      <trkpt lat="42.79057" lon="-0.134249">
        <time>2023-03-21T06:51:56+00:00</time>
        <ele>2408.0</ele>
      </trkpt>
      <trkpt lat="42.790567" lon="-0.134216">
        <time>2023-03-21T06:52:11+00:00</time>
        <ele>2409.0</ele>
      </trkpt>
      <trkpt lat="42.790593" lon="-0.134193">
        <time>2023-03-21T06:52:32+00:00</time>
        <ele>2409.0</ele>
      </trkpt>
      <trkpt lat="42.79059" lon="-0.134197">
        <time>2023-03-21T06:52:54+00:00</time>
        <ele>2409.0</ele>
      </trkpt>
      <trkpt lat="42.790582" lon="-0.134187">
        <time>2023-03-21T06:53:20+00:00</time>
        <ele>2409.0</ele>
      </trkpt>
      <trkpt lat="42.790605" lon="-0.134198">
        <time>2023-03-21T06:53:52+00:00</time>
        <ele>2409.0</ele>
      </trkpt>
      <trkpt lat="42.790613" lon="-0.13418">
        <time>2023-03-21T06:54:19+00:00</time>
        <ele>2409.0</ele>
      </trkpt>
      <trkpt lat="42.790586" lon="-0.134192">
        <time>2023-03-21T06:54:43+00:00</time>
        <ele>2409.0</ele>
      </trkpt>
      <trkpt lat="42.7906" lon="-0.13416">
        <time>2023-03-21T06:54:47+00:00</time>
        <ele>2410.0</ele>
      </trkpt>
      <trkpt lat="42.790661" lon="-0.134023">
        <time>2023-03-21T06:55:01+00:00</time>
        <ele>2414.0</ele>
      </trkpt>
      <trkpt lat="42.790734" lon="-0.133926">
        <time>2023-03-21T06:55:15+00:00</time>
        <ele>2416.0</ele>
      </trkpt>
      <trkpt lat="42.79079" lon="-0.133849">
        <time>2023-03-21T06:55:27+00:00</time>
        <ele>2418.0</ele>
      </trkpt>
      <trkpt lat="42.790836" lon="-0.133769">
        <time>2023-03-21T06:55:39+00:00</time>
        <ele>2420.0</ele>
      </trkpt>
      <trkpt lat="42.790858" lon="-0.133648">
        <time>2023-03-21T06:55:53+00:00</time>
        <ele>2423.0</ele>
      </trkpt>
      <trkpt lat="42.790862" lon="-0.133514">
        <time>2023-03-21T06:56:06+00:00</time>
        <ele>2427.0</ele>
      </trkpt>
      <trkpt lat="42.790914" lon="-0.13343">
        <time>2023-03-21T06:56:19+00:00</time>
        <ele>2428.0</ele>
      </trkpt>
      <trkpt lat="42.790963" lon="-0.13334">
        <time>2023-03-21T06:56:31+00:00</time>
        <ele>2430.0</ele>
      </trkpt>
      <trkpt lat="42.791007" lon="-0.133203">
        <time>2023-03-21T06:56:47+00:00</time>
        <ele>2435.0</ele>
      </trkpt>
      <trkpt lat="42.791056" lon="-0.133097">
        <time>2023-03-21T06:57:01+00:00</time>
        <ele>2439.0</ele>
      </trkpt>
      <trkpt lat="42.791105" lon="-0.133009">
        <time>2023-03-21T06:57:14+00:00</time>
        <ele>2440.0</ele>
      </trkpt>
      <trkpt lat="42.791081" lon="-0.132943">
        <time>2023-03-21T06:57:26+00:00</time>
        <ele>2442.0</ele>
      </trkpt>
      <trkpt lat="42.791066" lon="-0.132911">
        <time>2023-03-21T06:57:36+00:00</time>
        <ele>2443.0</ele>
      </trkpt>
      <trkpt lat="42.791095" lon="-0.132812">
        <time>2023-03-21T06:57:50+00:00</time>
        <ele>2444.0</ele>
      </trkpt>
      <trkpt lat="42.791052" lon="-0.132764">
        <time>2023-03-21T06:58:08+00:00</time>
        <ele>2445.0</ele>
      </trkpt>
      <trkpt lat="42.791074" lon="-0.132664">
        <time>2023-03-21T06:58:19+00:00</time>
        <ele>2446.0</ele>
      </trkpt>
      <trkpt lat="42.791064" lon="-0.13256">
        <time>2023-03-21T06:58:32+00:00</time>
        <ele>2448.0</ele>
      </trkpt>
      <trkpt lat="42.791056" lon="-0.132456">
        <time>2023-03-21T06:58:43+00:00</time>
        <ele>2449.0</ele>
      </trkpt>
      <trkpt lat="42.791064" lon="-0.132355">
        <time>2023-03-21T06:58:54+00:00</time>
        <ele>2450.0</ele>
      </trkpt>
      <trkpt lat="42.79108" lon="-0.132207">
        <time>2023-03-21T06:59:08+00:00</time>
        <ele>2452.0</ele>
      </trkpt>
      <trkpt lat="42.791087" lon="-0.132063">
        <time>2023-03-21T06:59:23+00:00</time>
        <ele>2453.0</ele>
      </trkpt>
      <trkpt lat="42.791095" lon="-0.131946">
        <time>2023-03-21T06:59:36+00:00</time>
        <ele>2454.0</ele>
      </trkpt>
      <trkpt lat="42.791104" lon="-0.131822">
        <time>2023-03-21T06:59:49+00:00</time>
        <ele>2456.0</ele>
      </trkpt>
      <trkpt lat="42.791111" lon="-0.131693">
        <time>2023-03-21T07:00:03+00:00</time>
        <ele>2459.0</ele>
      </trkpt>
      <trkpt lat="42.791087" lon="-0.13155">
        <time>2023-03-21T07:00:18+00:00</time>
        <ele>2461.0</ele>
      </trkpt>
      <trkpt lat="42.79108" lon="-0.131424">
        <time>2023-03-21T07:00:32+00:00</time>
        <ele>2464.0</ele>
      </trkpt>
      <trkpt lat="42.791072" lon="-0.131324">
        <time>2023-03-21T07:00:44+00:00</time>
        <ele>2467.0</ele>
      </trkpt>
      <trkpt lat="42.79105" lon="-0.131211">
        <time>2023-03-21T07:00:59+00:00</time>
        <ele>2469.0</ele>
      </trkpt>
      <trkpt lat="42.791104" lon="-0.131155">
        <time>2023-03-21T07:01:13+00:00</time>
        <ele>2473.0</ele>
      </trkpt>
      <trkpt lat="42.791124" lon="-0.131146">
        <time>2023-03-21T07:01:19+00:00</time>
        <ele>2474.0</ele>
      </trkpt>
      <trkpt lat="42.791121" lon="-0.131088">
        <time>2023-03-21T07:01:30+00:00</time>
        <ele>2475.0</ele>
      </trkpt>
      <trkpt lat="42.791106" lon="-0.130997">
        <time>2023-03-21T07:01:43+00:00</time>
        <ele>2477.0</ele>
      </trkpt>
      <trkpt lat="42.791082" lon="-0.130891">
        <time>2023-03-21T07:01:57+00:00</time>
        <ele>2478.0</ele>
      </trkpt>
      <trkpt lat="42.791084" lon="-0.130807">
        <time>2023-03-21T07:02:09+00:00</time>
        <ele>2480.0</ele>
      </trkpt>
      <trkpt lat="42.791136" lon="-0.130788">
        <time>2023-03-21T07:02:20+00:00</time>
        <ele>2483.0</ele>
      </trkpt>
      <trkpt lat="42.791211" lon="-0.130806">
        <time>2023-03-21T07:02:33+00:00</time>
        <ele>2486.0</ele>
      </trkpt>
      <trkpt lat="42.791197" lon="-0.130713">
        <time>2023-03-21T07:02:48+00:00</time>
        <ele>2487.0</ele>
      </trkpt>
      <trkpt lat="42.791209" lon="-0.130597">
        <time>2023-03-21T07:03:01+00:00</time>
        <ele>2491.0</ele>
      </trkpt>
      <trkpt lat="42.791197" lon="-0.13049">
        <time>2023-03-21T07:03:15+00:00</time>
        <ele>2493.0</ele>
      </trkpt>
      <trkpt lat="42.791192" lon="-0.130381">
        <time>2023-03-21T07:03:34+00:00</time>
        <ele>2496.0</ele>
      </trkpt>
      <trkpt lat="42.791268" lon="-0.130402">
        <time>2023-03-21T07:03:46+00:00</time>
        <ele>2499.0</ele>
      </trkpt>
      <trkpt lat="42.791336" lon="-0.130414">
        <time>2023-03-21T07:03:58+00:00</time>
        <ele>2502.0</ele>
      </trkpt>
      <trkpt lat="42.791374" lon="-0.130445">
        <time>2023-03-21T07:04:13+00:00</time>
        <ele>2503.0</ele>
      </trkpt>
      <trkpt lat="42.791377" lon="-0.130371">
        <time>2023-03-21T07:04:25+00:00</time>
        <ele>2505.0</ele>
      </trkpt>
      <trkpt lat="42.791356" lon="-0.130371">
        <time>2023-03-21T07:04:38+00:00</time>
        <ele>2504.0</ele>
      </trkpt>
      <trkpt lat="42.791328" lon="-0.130358">
        <time>2023-03-21T07:04:58+00:00</time>
        <ele>2503.0</ele>
      </trkpt>
      <trkpt lat="42.791305" lon="-0.130305">
        <time>2023-03-21T07:05:17+00:00</time>
        <ele>2504.0</ele>
      </trkpt>
      <trkpt lat="42.791355" lon="-0.130304">
        <time>2023-03-21T07:05:30+00:00</time>
        <ele>2506.0</ele>
      </trkpt>
      <trkpt lat="42.791401" lon="-0.130336">
        <time>2023-03-21T07:05:43+00:00</time>
        <ele>2507.0</ele>
      </trkpt>
      <trkpt lat="42.791485" lon="-0.130424">
        <time>2023-03-21T07:05:59+00:00</time>
        <ele>2510.0</ele>
      </trkpt>
      <trkpt lat="42.791487" lon="-0.130406">
        <time>2023-03-21T07:06:09+00:00</time>
        <ele>2510.0</ele>
      </trkpt>
      <trkpt lat="42.791506" lon="-0.130314">
        <time>2023-03-21T07:06:21+00:00</time>
        <ele>2513.0</ele>
      </trkpt>
      <trkpt lat="42.791502" lon="-0.130181">
        <time>2023-03-21T07:06:37+00:00</time>
        <ele>2515.0</ele>
      </trkpt>
      <trkpt lat="42.791488" lon="-0.1301">
        <time>2023-03-21T07:06:49+00:00</time>
        <ele>2517.0</ele>
      </trkpt>
      <trkpt lat="42.791458" lon="-0.130007">
        <time>2023-03-21T07:07:02+00:00</time>
        <ele>2518.0</ele>
      </trkpt>
      <trkpt lat="42.79141" lon="-0.129998">
        <time>2023-03-21T07:07:13+00:00</time>
        <ele>2516.0</ele>
      </trkpt>
      <trkpt lat="42.791475" lon="-0.130016">
        <time>2023-03-21T07:07:30+00:00</time>
        <ele>2518.0</ele>
      </trkpt>
      <trkpt lat="42.791483" lon="-0.129987">
        <time>2023-03-21T07:07:41+00:00</time>
        <ele>2519.0</ele>
      </trkpt>
      <trkpt lat="42.791457" lon="-0.129927">
        <time>2023-03-21T07:07:52+00:00</time>
        <ele>2520.0</ele>
      </trkpt>
      <trkpt lat="42.791442" lon="-0.129829">
        <time>2023-03-21T07:08:03+00:00</time>
        <ele>2522.0</ele>
      </trkpt>
      <trkpt lat="42.791428" lon="-0.129749">
        <time>2023-03-21T07:08:15+00:00</time>
        <ele>2525.0</ele>
      </trkpt>
      <trkpt lat="42.791488" lon="-0.129727">
        <time>2023-03-21T07:08:31+00:00</time>
        <ele>2526.0</ele>
      </trkpt>
      <trkpt lat="42.791577" lon="-0.129764">
        <time>2023-03-21T07:08:47+00:00</time>
        <ele>2527.0</ele>
      </trkpt>
      <trkpt lat="42.791609" lon="-0.12977">
        <time>2023-03-21T07:08:58+00:00</time>
        <ele>2528.0</ele>
      </trkpt>
      <trkpt lat="42.791612" lon="-0.129649">
        <time>2023-03-21T07:09:13+00:00</time>
        <ele>2530.0</ele>
      </trkpt>
      <trkpt lat="42.791618" lon="-0.129506">
        <time>2023-03-21T07:09:29+00:00</time>
        <ele>2534.0</ele>
      </trkpt>
      <trkpt lat="42.791613" lon="-0.129399">
        <time>2023-03-21T07:09:41+00:00</time>
        <ele>2536.0</ele>
      </trkpt>
      <trkpt lat="42.791621" lon="-0.129267">
        <time>2023-03-21T07:09:56+00:00</time>
        <ele>2540.0</ele>
      </trkpt>
      <trkpt lat="42.791631" lon="-0.129178">
        <time>2023-03-21T07:10:08+00:00</time>
        <ele>2542.0</ele>
      </trkpt>
      <trkpt lat="42.79165" lon="-0.129095">
        <time>2023-03-21T07:10:20+00:00</time>
        <ele>2544.0</ele>
      </trkpt>
      <trkpt lat="42.791668" lon="-0.128976">
        <time>2023-03-21T07:10:34+00:00</time>
        <ele>2546.0</ele>
      </trkpt>
      <trkpt lat="42.791687" lon="-0.128852">
        <time>2023-03-21T07:10:49+00:00</time>
        <ele>2549.0</ele>
      </trkpt>
      <trkpt lat="42.791698" lon="-0.12874">
        <time>2023-03-21T07:11:02+00:00</time>
        <ele>2551.0</ele>
      </trkpt>
      <trkpt lat="42.791713" lon="-0.12864">
        <time>2023-03-21T07:11:14+00:00</time>
        <ele>2554.0</ele>
      </trkpt>
      <trkpt lat="42.791725" lon="-0.128529">
        <time>2023-03-21T07:11:27+00:00</time>
        <ele>2557.0</ele>
      </trkpt>
      <trkpt lat="42.791741" lon="-0.12841">
        <time>2023-03-21T07:11:41+00:00</time>
        <ele>2559.0</ele>
      </trkpt>
      <trkpt lat="42.791748" lon="-0.128304">
        <time>2023-03-21T07:11:54+00:00</time>
        <ele>2561.0</ele>
      </trkpt>
      <trkpt lat="42.791767" lon="-0.128192">
        <time>2023-03-21T07:12:07+00:00</time>
        <ele>2564.0</ele>
      </trkpt>
      <trkpt lat="42.791829" lon="-0.128081">
        <time>2023-03-21T07:12:22+00:00</time>
        <ele>2567.0</ele>
      </trkpt>
      <trkpt lat="42.79188" lon="-0.128012">
        <time>2023-03-21T07:12:36+00:00</time>
        <ele>2569.0</ele>
      </trkpt>
      <trkpt lat="42.791903" lon="-0.127948">
        <time>2023-03-21T07:12:47+00:00</time>
        <ele>2571.0</ele>
      </trkpt>
      <trkpt lat="42.791882" lon="-0.127885">
        <time>2023-03-21T07:12:58+00:00</time>
        <ele>2574.0</ele>
      </trkpt>
      <trkpt lat="42.791822" lon="-0.127843">
        <time>2023-03-21T07:13:09+00:00</time>
        <ele>2576.0</ele>
      </trkpt>
      <trkpt lat="42.79181" lon="-0.127823">
        <time>2023-03-21T07:13:22+00:00</time>
        <ele>2577.0</ele>
      </trkpt>
      <trkpt lat="42.791878" lon="-0.127776">
        <time>2023-03-21T07:13:35+00:00</time>
        <ele>2579.0</ele>
      </trkpt>
      <trkpt lat="42.79195" lon="-0.127702">
        <time>2023-03-21T07:13:49+00:00</time>
        <ele>2580.0</ele>
      </trkpt>
      <trkpt lat="42.792013" lon="-0.12768">
        <time>2023-03-21T07:14:00+00:00</time>
        <ele>2581.0</ele>
      </trkpt>
      <trkpt lat="42.791988" lon="-0.127592">
        <time>2023-03-21T07:14:12+00:00</time>
        <ele>2584.0</ele>
      </trkpt>
      <trkpt lat="42.791971" lon="-0.127533">
        <time>2023-03-21T07:14:23+00:00</time>
        <ele>2586.0</ele>
      </trkpt>
      <trkpt lat="42.791974" lon="-0.12744">
        <time>2023-03-21T07:14:37+00:00</time>
        <ele>2590.0</ele>
      </trkpt>
      <trkpt lat="42.792002" lon="-0.127352">
        <time>2023-03-21T07:14:49+00:00</time>
        <ele>2591.0</ele>
      </trkpt>
      <trkpt lat="42.792029" lon="-0.127265">
        <time>2023-03-21T07:15:00+00:00</time>
        <ele>2593.0</ele>
      </trkpt>
      <trkpt lat="42.792051" lon="-0.127172">
        <time>2023-03-21T07:15:16+00:00</time>
        <ele>2594.0</ele>
      </trkpt>
      <trkpt lat="42.792077" lon="-0.127088">
        <time>2023-03-21T07:15:28+00:00</time>
        <ele>2595.0</ele>
      </trkpt>
      <trkpt lat="42.792107" lon="-0.127018">
        <time>2023-03-21T07:15:40+00:00</time>
        <ele>2595.0</ele>
      </trkpt>
      <trkpt lat="42.792105" lon="-0.12701">
        <time>2023-03-21T07:15:56+00:00</time>
        <ele>2595.0</ele>
      </trkpt>
      <trkpt lat="42.792111" lon="-0.127005">
        <time>2023-03-21T07:16:07+00:00</time>
        <ele>2595.0</ele>
      </trkpt>
      <trkpt lat="42.792101" lon="-0.127005">
        <time>2023-03-21T07:16:17+00:00</time>
        <ele>2595.0</ele>
      </trkpt>
      <trkpt lat="42.792105" lon="-0.127005">
        <time>2023-03-21T07:16:19+00:00</time>
        <ele>2595.0</ele>
      </trkpt>
      <trkpt lat="42.792106" lon="-0.127005">
        <time>2023-03-21T07:16:20+00:00</time>
        <ele>2595.0</ele>
      </trkpt>
      <trkpt lat="42.792107" lon="-0.127004">
        <time>2023-03-21T07:16:22+00:00</time>
        <ele>2595.0</ele>
      </trkpt>
      <trkpt lat="42.792107" lon="-0.127004">
        <time>2023-03-21T07:16:23+00:00</time>
        <ele>2595.0</ele>
      </trkpt>
      <trkpt lat="42.792108" lon="-0.127004">
        <time>2023-03-21T07:16:24+00:00</time>
        <ele>2595.0</ele>
      </trkpt>
      <trkpt lat="42.792107" lon="-0.127003">
        <time>2023-03-21T07:16:25+00:00</time>
        <ele>2595.0</ele>
      </trkpt>
      <trkpt lat="42.792114" lon="-0.127">
        <time>2023-03-21T07:16:30+00:00</time>
        <ele>2595.0</ele>
      </trkpt>
      <trkpt lat="42.792114" lon="-0.127006">
        <time>2023-03-21T07:16:55+00:00</time>
        <ele>2594.0</ele>
      </trkpt>
      <trkpt lat="42.792096" lon="-0.126995">
        <time>2023-03-21T07:17:28+00:00</time>
        <ele>2596.0</ele>
      </trkpt>
      <trkpt lat="42.792096" lon="-0.127007">
        <time>2023-03-21T07:18:06+00:00</time>
        <ele>2595.0</ele>
      </trkpt>
      <trkpt lat="42.792105" lon="-0.127003">
        <time>2023-03-21T07:18:40+00:00</time>
        <ele>2595.0</ele>
      </trkpt>
      <trkpt lat="42.792104" lon="-0.126991">
        <time>2023-03-21T07:19:19+00:00</time>
        <ele>2595.0</ele>
      </trkpt>
      <trkpt lat="42.792119" lon="-0.126995">
        <time>2023-03-21T07:20:00+00:00</time>
        <ele>2594.0</ele>
      </trkpt>
      <trkpt lat="42.792123" lon="-0.127014">
        <time>2023-03-21T07:20:41+00:00</time>
        <ele>2594.0</ele>
      </trkpt>
      <trkpt lat="42.792126" lon="-0.127003">
        <time>2023-03-21T07:21:22+00:00</time>
        <ele>2594.0</ele>
      </trkpt>
      <trkpt lat="42.792102" lon="-0.126995">
        <time>2023-03-21T07:21:59+00:00</time>
        <ele>2595.0</ele>
      </trkpt>
      <trkpt lat="42.79213" lon="-0.127001">
        <time>2023-03-21T07:22:36+00:00</time>
        <ele>2594.0</ele>
      </trkpt>
      <trkpt lat="42.792114" lon="-0.12699">
        <time>2023-03-21T07:23:16+00:00</time>
        <ele>2595.0</ele>
      </trkpt>
      <trkpt lat="42.792103" lon="-0.126997">
        <time>2023-03-21T07:23:29+00:00</time>
        <ele>2595.0</ele>
      </trkpt>
      <trkpt lat="42.792111" lon="-0.126997">
        <time>2023-03-21T07:23:32+00:00</time>
        <ele>2595.0</ele>
      </trkpt>
      <trkpt lat="42.792112" lon="-0.126997">
        <time>2023-03-21T07:23:33+00:00</time>
        <ele>2595.0</ele>
      </trkpt>
      <trkpt lat="42.792113" lon="-0.126996">
        <time>2023-03-21T07:23:35+00:00</time>
        <ele>2595.0</ele>
      </trkpt>
      <trkpt lat="42.792113" lon="-0.126998">
        <time>2023-03-21T07:23:36+00:00</time>
        <ele>2595.0</ele>
      </trkpt>
      <trkpt lat="42.792111" lon="-0.127003">
        <time>2023-03-21T07:23:37+00:00</time>
        <ele>2595.0</ele>
      </trkpt>
      <trkpt lat="42.792115" lon="-0.127002">
        <time>2023-03-21T07:23:38+00:00</time>
        <ele>2594.0</ele>
      </trkpt>
      <trkpt lat="42.792122" lon="-0.127002">
        <time>2023-03-21T07:23:45+00:00</time>
        <ele>2594.0</ele>
      </trkpt>
      <trkpt lat="42.792119" lon="-0.127001">
        <time>2023-03-21T07:23:47+00:00</time>
        <ele>2594.0</ele>
      </trkpt>
      <trkpt lat="42.792123" lon="-0.127">
        <time>2023-03-21T07:23:49+00:00</time>
        <ele>2594.0</ele>
      </trkpt>
      <trkpt lat="42.79212" lon="-0.126996">
        <time>2023-03-21T07:24:17+00:00</time>
        <ele>2594.0</ele>
      </trkpt>
      <trkpt lat="42.792128" lon="-0.126986">
        <time>2023-03-21T07:25:04+00:00</time>
        <ele>2594.0</ele>
      </trkpt>
      <trkpt lat="42.792125" lon="-0.126975">
        <time>2023-03-21T07:25:47+00:00</time>
        <ele>2594.0</ele>
      </trkpt>
      <trkpt lat="42.792111" lon="-0.126992">
        <time>2023-03-21T07:26:09+00:00</time>
        <ele>2595.0</ele>
      </trkpt>
      <trkpt lat="42.792119" lon="-0.127002">
        <time>2023-03-21T07:26:23+00:00</time>
        <ele>2594.0</ele>
      </trkpt>
      <trkpt lat="42.792118" lon="-0.127022">
        <time>2023-03-21T07:26:41+00:00</time>
        <ele>2594.0</ele>
      </trkpt>
      <trkpt lat="42.792126" lon="-0.127004">
        <time>2023-03-21T07:27:08+00:00</time>
        <ele>2594.0</ele>
      </trkpt>
      <trkpt lat="42.792117" lon="-0.127004">
        <time>2023-03-21T07:27:19+00:00</time>
        <ele>2594.0</ele>
      </trkpt>
      <trkpt lat="42.792187" lon="-0.126931">
        <time>2023-03-21T07:27:23+00:00</time>
        <ele>2591.0</ele>
      </trkpt>
      <trkpt lat="42.79222" lon="-0.12691">
        <time>2023-03-21T07:27:24+00:00</time>
        <ele>2589.0</ele>
      </trkpt>
      <trkpt lat="42.792297" lon="-0.126785">
        <time>2023-03-21T07:27:29+00:00</time>
        <ele>2584.0</ele>
      </trkpt>
      <trkpt lat="42.792249" lon="-0.12669">
        <time>2023-03-21T07:27:32+00:00</time>
        <ele>2587.0</ele>
      </trkpt>
      <trkpt lat="42.792239" lon="-0.126644">
        <time>2023-03-21T07:27:33+00:00</time>
        <ele>2587.0</ele>
      </trkpt>
      <trkpt lat="42.792236" lon="-0.126608">
        <time>2023-03-21T07:27:34+00:00</time>
        <ele>2587.0</ele>
      </trkpt>
      <trkpt lat="42.792242" lon="-0.126573">
        <time>2023-03-21T07:27:35+00:00</time>
        <ele>2587.0</ele>
      </trkpt>
      <trkpt lat="42.792272" lon="-0.126556">
        <time>2023-03-21T07:27:36+00:00</time>
        <ele>2584.0</ele>
      </trkpt>
      <trkpt lat="42.792314" lon="-0.126566">
        <time>2023-03-21T07:27:37+00:00</time>
        <ele>2580.0</ele>
      </trkpt>
      <trkpt lat="42.792342" lon="-0.126557">
        <time>2023-03-21T07:27:38+00:00</time>
        <ele>2578.0</ele>
      </trkpt>
      <trkpt lat="42.792345" lon="-0.126519">
        <time>2023-03-21T07:27:39+00:00</time>
        <ele>2577.0</ele>
      </trkpt>
      <trkpt lat="42.792352" lon="-0.12647">
        <time>2023-03-21T07:27:40+00:00</time>
        <ele>2576.0</ele>
      </trkpt>
      <trkpt lat="42.792378" lon="-0.126436">
        <time>2023-03-21T07:27:41+00:00</time>
        <ele>2574.0</ele>
      </trkpt>
      <trkpt lat="42.792419" lon="-0.126427">
        <time>2023-03-21T07:27:42+00:00</time>
        <ele>2572.0</ele>
      </trkpt>
      <trkpt lat="42.792449" lon="-0.126397">
        <time>2023-03-21T07:27:43+00:00</time>
        <ele>2570.0</ele>
      </trkpt>
      <trkpt lat="42.792475" lon="-0.126349">
        <time>2023-03-21T07:27:44+00:00</time>
        <ele>2568.0</ele>
      </trkpt>
      <trkpt lat="42.792524" lon="-0.126326">
        <time>2023-03-21T07:27:45+00:00</time>
        <ele>2565.0</ele>
      </trkpt>
      <trkpt lat="42.792563" lon="-0.126294">
        <time>2023-03-21T07:27:46+00:00</time>
        <ele>2562.0</ele>
      </trkpt>
      <trkpt lat="42.792632" lon="-0.126193">
        <time>2023-03-21T07:27:48+00:00</time>
        <ele>2556.0</ele>
      </trkpt>
      <trkpt lat="42.792681" lon="-0.126158">
        <time>2023-03-21T07:27:49+00:00</time>
        <ele>2552.0</ele>
      </trkpt>
      <trkpt lat="42.792692" lon="-0.126102">
        <time>2023-03-21T07:27:50+00:00</time>
        <ele>2550.0</ele>
      </trkpt>
      <trkpt lat="42.792728" lon="-0.125985">
        <time>2023-03-21T07:27:52+00:00</time>
        <ele>2546.0</ele>
      </trkpt>
      <trkpt lat="42.792789" lon="-0.12585">
        <time>2023-03-21T07:27:54+00:00</time>
        <ele>2540.0</ele>
      </trkpt>
      <trkpt lat="42.79286" lon="-0.125734">
        <time>2023-03-21T07:27:56+00:00</time>
        <ele>2534.0</ele>
      </trkpt>
      <trkpt lat="42.792928" lon="-0.125639">
        <time>2023-03-21T07:27:58+00:00</time>
        <ele>2528.0</ele>
      </trkpt>
      <trkpt lat="42.792963" lon="-0.125653">
        <time>2023-03-21T07:28:00+00:00</time>
        <ele>2526.0</ele>
      </trkpt>
      <trkpt lat="42.792965" lon="-0.125681">
        <time>2023-03-21T07:28:08+00:00</time>
        <ele>2526.0</ele>
      </trkpt>
      <trkpt lat="42.792996" lon="-0.125469">
        <time>2023-03-21T07:28:12+00:00</time>
        <ele>2521.0</ele>
      </trkpt>
      <trkpt lat="42.793081" lon="-0.125368">
        <time>2023-03-21T07:28:14+00:00</time>
        <ele>2514.0</ele>
      </trkpt>
      <trkpt lat="42.793112" lon="-0.125253">
        <time>2023-03-21T07:28:16+00:00</time>
        <ele>2510.0</ele>
      </trkpt>
      <trkpt lat="42.793191" lon="-0.125165">
        <time>2023-03-21T07:28:18+00:00</time>
        <ele>2504.0</ele>
      </trkpt>
      <trkpt lat="42.793197" lon="-0.125093">
        <time>2023-03-21T07:28:19+00:00</time>
        <ele>2503.0</ele>
      </trkpt>
      <trkpt lat="42.793194" lon="-0.124925">
        <time>2023-03-21T07:28:22+00:00</time>
        <ele>2499.0</ele>
      </trkpt>
      <trkpt lat="42.793229" lon="-0.124888">
        <time>2023-03-21T07:28:23+00:00</time>
        <ele>2497.0</ele>
      </trkpt>
      <trkpt lat="42.793247" lon="-0.124752">
        <time>2023-03-21T07:28:25+00:00</time>
        <ele>2493.0</ele>
      </trkpt>
      <trkpt lat="42.793318" lon="-0.124679">
        <time>2023-03-21T07:28:27+00:00</time>
        <ele>2488.0</ele>
      </trkpt>
      <trkpt lat="42.793357" lon="-0.124533">
        <time>2023-03-21T07:28:29+00:00</time>
        <ele>2485.0</ele>
      </trkpt>
      <trkpt lat="42.793417" lon="-0.124501">
        <time>2023-03-21T07:28:30+00:00</time>
        <ele>2482.0</ele>
      </trkpt>
      <trkpt lat="42.793506" lon="-0.124488">
        <time>2023-03-21T07:28:32+00:00</time>
        <ele>2478.0</ele>
      </trkpt>
      <trkpt lat="42.79362" lon="-0.12431">
        <time>2023-03-21T07:28:35+00:00</time>
        <ele>2469.0</ele>
      </trkpt>
      <trkpt lat="42.793626" lon="-0.124193">
        <time>2023-03-21T07:28:37+00:00</time>
        <ele>2465.0</ele>
      </trkpt>
      <trkpt lat="42.793589" lon="-0.124121">
        <time>2023-03-21T07:28:49+00:00</time>
        <ele>2465.0</ele>
      </trkpt>
      <trkpt lat="42.793602" lon="-0.124132">
        <time>2023-03-21T07:29:13+00:00</time>
        <ele>2464.0</ele>
      </trkpt>
      <trkpt lat="42.7936" lon="-0.124132">
        <time>2023-03-21T07:29:23+00:00</time>
        <ele>2464.0</ele>
      </trkpt>
      <trkpt lat="42.793733" lon="-0.124069">
        <time>2023-03-21T07:29:27+00:00</time>
        <ele>2455.0</ele>
      </trkpt>
      <trkpt lat="42.793834" lon="-0.12399">
        <time>2023-03-21T07:29:29+00:00</time>
        <ele>2450.0</ele>
      </trkpt>
      <trkpt lat="42.793917" lon="-0.123845">
        <time>2023-03-21T07:29:31+00:00</time>
        <ele>2444.0</ele>
      </trkpt>
      <trkpt lat="42.79395" lon="-0.123686">
        <time>2023-03-21T07:29:33+00:00</time>
        <ele>2440.0</ele>
      </trkpt>
      <trkpt lat="42.794029" lon="-0.123544">
        <time>2023-03-21T07:29:35+00:00</time>
        <ele>2437.0</ele>
      </trkpt>
      <trkpt lat="42.794041" lon="-0.12345">
        <time>2023-03-21T07:29:36+00:00</time>
        <ele>2434.0</ele>
      </trkpt>
      <trkpt lat="42.794089" lon="-0.123295">
        <time>2023-03-21T07:29:38+00:00</time>
        <ele>2428.0</ele>
      </trkpt>
      <trkpt lat="42.794117" lon="-0.123131">
        <time>2023-03-21T07:29:40+00:00</time>
        <ele>2421.0</ele>
      </trkpt>
      <trkpt lat="42.794048" lon="-0.122888">
        <time>2023-03-21T07:29:44+00:00</time>
        <ele>2414.0</ele>
      </trkpt>
      <trkpt lat="42.794016" lon="-0.122729">
        <time>2023-03-21T07:29:46+00:00</time>
        <ele>2409.0</ele>
      </trkpt>
      <trkpt lat="42.793938" lon="-0.122568">
        <time>2023-03-21T07:29:49+00:00</time>
        <ele>2405.0</ele>
      </trkpt>
      <trkpt lat="42.793934" lon="-0.122495">
        <time>2023-03-21T07:29:50+00:00</time>
        <ele>2403.0</ele>
      </trkpt>
      <trkpt lat="42.793907" lon="-0.122288">
        <time>2023-03-21T07:29:53+00:00</time>
        <ele>2396.0</ele>
      </trkpt>
      <trkpt lat="42.79389" lon="-0.12221">
        <time>2023-03-21T07:29:54+00:00</time>
        <ele>2394.0</ele>
      </trkpt>
      <trkpt lat="42.793852" lon="-0.122065">
        <time>2023-03-21T07:29:56+00:00</time>
        <ele>2391.0</ele>
      </trkpt>
      <trkpt lat="42.793872" lon="-0.121906">
        <time>2023-03-21T07:29:58+00:00</time>
        <ele>2386.0</ele>
      </trkpt>
      <trkpt lat="42.793894" lon="-0.121674">
        <time>2023-03-21T07:30:01+00:00</time>
        <ele>2379.0</ele>
      </trkpt>
      <trkpt lat="42.793862" lon="-0.121455">
        <time>2023-03-21T07:30:05+00:00</time>
        <ele>2374.0</ele>
      </trkpt>
      <trkpt lat="42.793888" lon="-0.121289">
        <time>2023-03-21T07:30:07+00:00</time>
        <ele>2371.0</ele>
      </trkpt>
      <trkpt lat="42.793947" lon="-0.121161">
        <time>2023-03-21T07:30:09+00:00</time>
        <ele>2368.0</ele>
      </trkpt>
      <trkpt lat="42.793932" lon="-0.121016">
        <time>2023-03-21T07:30:11+00:00</time>
        <ele>2367.0</ele>
      </trkpt>
      <trkpt lat="42.793924" lon="-0.120768">
        <time>2023-03-21T07:30:15+00:00</time>
        <ele>2365.0</ele>
      </trkpt>
      <trkpt lat="42.793939" lon="-0.120563">
        <time>2023-03-21T07:30:19+00:00</time>
        <ele>2363.0</ele>
      </trkpt>
      <trkpt lat="42.794016" lon="-0.120446">
        <time>2023-03-21T07:30:22+00:00</time>
        <ele>2358.0</ele>
      </trkpt>
      <trkpt lat="42.794041" lon="-0.120363">
        <time>2023-03-21T07:30:24+00:00</time>
        <ele>2357.0</ele>
      </trkpt>
      <trkpt lat="42.794038" lon="-0.120169">
        <time>2023-03-21T07:30:28+00:00</time>
        <ele>2358.0</ele>
      </trkpt>
      <trkpt lat="42.794082" lon="-0.120049">
        <time>2023-03-21T07:30:32+00:00</time>
        <ele>2357.0</ele>
      </trkpt>
      <trkpt lat="42.794086" lon="-0.120051">
        <time>2023-03-21T07:30:36+00:00</time>
        <ele>2356.0</ele>
      </trkpt>
      <trkpt lat="42.794166" lon="-0.120081">
        <time>2023-03-21T07:30:39+00:00</time>
        <ele>2351.0</ele>
      </trkpt>
      <trkpt lat="42.794169" lon="-0.120127">
        <time>2023-03-21T07:30:47+00:00</time>
        <ele>2350.0</ele>
      </trkpt>
      <trkpt lat="42.794153" lon="-0.120107">
        <time>2023-03-21T07:31:09+00:00</time>
        <ele>2351.0</ele>
      </trkpt>
      <trkpt lat="42.794154" lon="-0.120105">
        <time>2023-03-21T07:31:29+00:00</time>
        <ele>2351.0</ele>
      </trkpt>
      <trkpt lat="42.794154" lon="-0.120125">
        <time>2023-03-21T07:31:38+00:00</time>
        <ele>2351.0</ele>
      </trkpt>
      <trkpt lat="42.794264" lon="-0.120064">
        <time>2023-03-21T07:31:42+00:00</time>
        <ele>2347.0</ele>
      </trkpt>
      <trkpt lat="42.794331" lon="-0.119941">
        <time>2023-03-21T07:31:44+00:00</time>
        <ele>2344.0</ele>
      </trkpt>
      <trkpt lat="42.794442" lon="-0.119842">
        <time>2023-03-21T07:31:46+00:00</time>
        <ele>2341.0</ele>
      </trkpt>
      <trkpt lat="42.794496" lon="-0.119702">
        <time>2023-03-21T07:31:48+00:00</time>
        <ele>2339.0</ele>
      </trkpt>
      <trkpt lat="42.79453" lon="-0.119565">
        <time>2023-03-21T07:31:50+00:00</time>
        <ele>2337.0</ele>
      </trkpt>
      <trkpt lat="42.794648" lon="-0.11929">
        <time>2023-03-21T07:31:54+00:00</time>
        <ele>2329.0</ele>
      </trkpt>
      <trkpt lat="42.794759" lon="-0.119212">
        <time>2023-03-21T07:31:57+00:00</time>
        <ele>2324.0</ele>
      </trkpt>
      <trkpt lat="42.794793" lon="-0.119172">
        <time>2023-03-21T07:31:58+00:00</time>
        <ele>2322.0</ele>
      </trkpt>
      <trkpt lat="42.794827" lon="-0.11913">
        <time>2023-03-21T07:31:59+00:00</time>
        <ele>2320.0</ele>
      </trkpt>
      <trkpt lat="42.794837" lon="-0.119078">
        <time>2023-03-21T07:32:00+00:00</time>
        <ele>2318.0</ele>
      </trkpt>
      <trkpt lat="42.794828" lon="-0.119006">
        <time>2023-03-21T07:32:01+00:00</time>
        <ele>2317.0</ele>
      </trkpt>
      <trkpt lat="42.794837" lon="-0.118937">
        <time>2023-03-21T07:32:02+00:00</time>
        <ele>2315.0</ele>
      </trkpt>
      <trkpt lat="42.794877" lon="-0.118896">
        <time>2023-03-21T07:32:03+00:00</time>
        <ele>2313.0</ele>
      </trkpt>
      <trkpt lat="42.794924" lon="-0.118875">
        <time>2023-03-21T07:32:04+00:00</time>
        <ele>2311.0</ele>
      </trkpt>
      <trkpt lat="42.794964" lon="-0.118837">
        <time>2023-03-21T07:32:05+00:00</time>
        <ele>2309.0</ele>
      </trkpt>
      <trkpt lat="42.794968" lon="-0.1187">
        <time>2023-03-21T07:32:07+00:00</time>
        <ele>2305.0</ele>
      </trkpt>
      <trkpt lat="42.794995" lon="-0.118638">
        <time>2023-03-21T07:32:08+00:00</time>
        <ele>2303.0</ele>
      </trkpt>
      <trkpt lat="42.795061" lon="-0.118475">
        <time>2023-03-21T07:32:11+00:00</time>
        <ele>2297.0</ele>
      </trkpt>
      <trkpt lat="42.795074" lon="-0.118407">
        <time>2023-03-21T07:32:12+00:00</time>
        <ele>2295.0</ele>
      </trkpt>
      <trkpt lat="42.795124" lon="-0.11828">
        <time>2023-03-21T07:32:14+00:00</time>
        <ele>2291.0</ele>
      </trkpt>
      <trkpt lat="42.795211" lon="-0.118128">
        <time>2023-03-21T07:32:17+00:00</time>
        <ele>2285.0</ele>
      </trkpt>
      <trkpt lat="42.795331" lon="-0.117947">
        <time>2023-03-21T07:32:20+00:00</time>
        <ele>2278.0</ele>
      </trkpt>
      <trkpt lat="42.795379" lon="-0.117832">
        <time>2023-03-21T07:32:22+00:00</time>
        <ele>2274.0</ele>
      </trkpt>
      <trkpt lat="42.795516" lon="-0.117761">
        <time>2023-03-21T07:32:25+00:00</time>
        <ele>2269.0</ele>
      </trkpt>
      <trkpt lat="42.795602" lon="-0.117701">
        <time>2023-03-21T07:32:27+00:00</time>
        <ele>2266.0</ele>
      </trkpt>
      <trkpt lat="42.795747" lon="-0.117563">
        <time>2023-03-21T07:32:36+00:00</time>
        <ele>2261.0</ele>
      </trkpt>
      <trkpt lat="42.795732" lon="-0.117569">
        <time>2023-03-21T07:33:05+00:00</time>
        <ele>2261.0</ele>
      </trkpt>
      <trkpt lat="42.795735" lon="-0.117548">
        <time>2023-03-21T07:33:14+00:00</time>
        <ele>2260.0</ele>
      </trkpt>
      <trkpt lat="42.795706" lon="-0.11741">
        <time>2023-03-21T07:33:18+00:00</time>
        <ele>2254.0</ele>
      </trkpt>
      <trkpt lat="42.795629" lon="-0.117347">
        <time>2023-03-21T07:33:20+00:00</time>
        <ele>2253.0</ele>
      </trkpt>
      <trkpt lat="42.795618" lon="-0.117259">
        <time>2023-03-21T07:33:21+00:00</time>
        <ele>2249.0</ele>
      </trkpt>
      <trkpt lat="42.795589" lon="-0.117197">
        <time>2023-03-21T07:33:22+00:00</time>
        <ele>2247.0</ele>
      </trkpt>
      <trkpt lat="42.795536" lon="-0.117015">
        <time>2023-03-21T07:33:25+00:00</time>
        <ele>2240.0</ele>
      </trkpt>
      <trkpt lat="42.795541" lon="-0.11693">
        <time>2023-03-21T07:33:26+00:00</time>
        <ele>2235.0</ele>
      </trkpt>
      <trkpt lat="42.795507" lon="-0.116868">
        <time>2023-03-21T07:33:28+00:00</time>
        <ele>2233.0</ele>
      </trkpt>
      <trkpt lat="42.795503" lon="-0.116825">
        <time>2023-03-21T07:33:29+00:00</time>
        <ele>2231.0</ele>
      </trkpt>
      <trkpt lat="42.795522" lon="-0.116789">
        <time>2023-03-21T07:33:30+00:00</time>
        <ele>2228.0</ele>
      </trkpt>
      <trkpt lat="42.795547" lon="-0.116712">
        <time>2023-03-21T07:33:32+00:00</time>
        <ele>2223.0</ele>
      </trkpt>
      <trkpt lat="42.795517" lon="-0.116637">
        <time>2023-03-21T07:33:34+00:00</time>
        <ele>2220.0</ele>
      </trkpt>
      <trkpt lat="42.795547" lon="-0.116577">
        <time>2023-03-21T07:33:35+00:00</time>
        <ele>2216.0</ele>
      </trkpt>
      <trkpt lat="42.795597" lon="-0.116465">
        <time>2023-03-21T07:33:37+00:00</time>
        <ele>2210.0</ele>
      </trkpt>
      <trkpt lat="42.795574" lon="-0.11641">
        <time>2023-03-21T07:33:38+00:00</time>
        <ele>2207.0</ele>
      </trkpt>
      <trkpt lat="42.795559" lon="-0.116357">
        <time>2023-03-21T07:33:39+00:00</time>
        <ele>2205.0</ele>
      </trkpt>
      <trkpt lat="42.795568" lon="-0.116232">
        <time>2023-03-21T07:33:41+00:00</time>
        <ele>2200.0</ele>
      </trkpt>
      <trkpt lat="42.795537" lon="-0.116215">
        <time>2023-03-21T07:33:42+00:00</time>
        <ele>2200.0</ele>
      </trkpt>
      <trkpt lat="42.795311" lon="-0.116142">
        <time>2023-03-21T07:33:47+00:00</time>
        <ele>2202.0</ele>
      </trkpt>
      <trkpt lat="42.795238" lon="-0.115973">
        <time>2023-03-21T07:33:52+00:00</time>
        <ele>2200.0</ele>
      </trkpt>
      <trkpt lat="42.795273" lon="-0.115898">
        <time>2023-03-21T07:33:54+00:00</time>
        <ele>2196.0</ele>
      </trkpt>
      <trkpt lat="42.795218" lon="-0.115784">
        <time>2023-03-21T07:33:57+00:00</time>
        <ele>2195.0</ele>
      </trkpt>
      <trkpt lat="42.795222" lon="-0.115572">
        <time>2023-03-21T07:34:01+00:00</time>
        <ele>2189.0</ele>
      </trkpt>
      <trkpt lat="42.795219" lon="-0.115382">
        <time>2023-03-21T07:34:04+00:00</time>
        <ele>2183.0</ele>
      </trkpt>
      <trkpt lat="42.795262" lon="-0.115269">
        <time>2023-03-21T07:34:06+00:00</time>
        <ele>2178.0</ele>
      </trkpt>
      <trkpt lat="42.795248" lon="-0.115213">
        <time>2023-03-21T07:34:07+00:00</time>
        <ele>2177.0</ele>
      </trkpt>
      <trkpt lat="42.795116" lon="-0.114814">
        <time>2023-03-21T07:34:16+00:00</time>
        <ele>2172.0</ele>
      </trkpt>
      <trkpt lat="42.795196" lon="-0.114705">
        <time>2023-03-21T07:34:19+00:00</time>
        <ele>2166.0</ele>
      </trkpt>
      <trkpt lat="42.795233" lon="-0.114602">
        <time>2023-03-21T07:34:21+00:00</time>
        <ele>2162.0</ele>
      </trkpt>
      <trkpt lat="42.795302" lon="-0.114535">
        <time>2023-03-21T07:34:23+00:00</time>
        <ele>2157.0</ele>
      </trkpt>
      <trkpt lat="42.795355" lon="-0.11439">
        <time>2023-03-21T07:34:26+00:00</time>
        <ele>2152.0</ele>
      </trkpt>
      <trkpt lat="42.795387" lon="-0.114346">
        <time>2023-03-21T07:34:27+00:00</time>
        <ele>2150.0</ele>
      </trkpt>
      <trkpt lat="42.795386" lon="-0.114286">
        <time>2023-03-21T07:34:28+00:00</time>
        <ele>2149.0</ele>
      </trkpt>
      <trkpt lat="42.795363" lon="-0.114198">
        <time>2023-03-21T07:34:30+00:00</time>
        <ele>2149.0</ele>
      </trkpt>
      <trkpt lat="42.795356" lon="-0.114091">
        <time>2023-03-21T07:34:33+00:00</time>
        <ele>2148.0</ele>
      </trkpt>
      <trkpt lat="42.795334" lon="-0.113913">
        <time>2023-03-21T07:34:36+00:00</time>
        <ele>2149.0</ele>
      </trkpt>
      <trkpt lat="42.795379" lon="-0.113792">
        <time>2023-03-21T07:34:39+00:00</time>
        <ele>2148.0</ele>
      </trkpt>
      <trkpt lat="42.795461" lon="-0.113769">
        <time>2023-03-21T07:34:41+00:00</time>
        <ele>2145.0</ele>
      </trkpt>
      <trkpt lat="42.795518" lon="-0.11364">
        <time>2023-03-21T07:34:43+00:00</time>
        <ele>2143.0</ele>
      </trkpt>
      <trkpt lat="42.795542" lon="-0.113592">
        <time>2023-03-21T07:34:44+00:00</time>
        <ele>2143.0</ele>
      </trkpt>
      <trkpt lat="42.795658" lon="-0.113395">
        <time>2023-03-21T07:34:49+00:00</time>
        <ele>2138.0</ele>
      </trkpt>
      <trkpt lat="42.79581" lon="-0.113299">
        <time>2023-03-21T07:34:53+00:00</time>
        <ele>2132.0</ele>
      </trkpt>
      <trkpt lat="42.795939" lon="-0.113202">
        <time>2023-03-21T07:34:57+00:00</time>
        <ele>2126.0</ele>
      </trkpt>
      <trkpt lat="42.796043" lon="-0.11316">
        <time>2023-03-21T07:35:00+00:00</time>
        <ele>2123.0</ele>
      </trkpt>
      <trkpt lat="42.796055" lon="-0.113143">
        <time>2023-03-21T07:35:01+00:00</time>
        <ele>2123.0</ele>
      </trkpt>
      <trkpt lat="42.796025" lon="-0.113114">
        <time>2023-03-21T07:35:15+00:00</time>
        <ele>2124.0</ele>
      </trkpt>
      <trkpt lat="42.796027" lon="-0.113119">
        <time>2023-03-21T07:35:38+00:00</time>
        <ele>2124.0</ele>
      </trkpt>
      <trkpt lat="42.796141" lon="-0.112755">
        <time>2023-03-21T07:35:44+00:00</time>
        <ele>2122.0</ele>
      </trkpt>
      <trkpt lat="42.796184" lon="-0.112604">
        <time>2023-03-21T07:35:46+00:00</time>
        <ele>2122.0</ele>
      </trkpt>
      <trkpt lat="42.796227" lon="-0.11247">
        <time>2023-03-21T07:35:48+00:00</time>
        <ele>2123.0</ele>
      </trkpt>
      <trkpt lat="42.796428" lon="-0.112139">
        <time>2023-03-21T07:35:58+00:00</time>
        <ele>2121.0</ele>
      </trkpt>
      <trkpt lat="42.79644" lon="-0.112121">
        <time>2023-03-21T07:36:12+00:00</time>
        <ele>2121.0</ele>
      </trkpt>
      <trkpt lat="42.796427" lon="-0.112119">
        <time>2023-03-21T07:36:26+00:00</time>
        <ele>2121.0</ele>
      </trkpt>
      <trkpt lat="42.796426" lon="-0.112115">
        <time>2023-03-21T07:36:42+00:00</time>
        <ele>2121.0</ele>
      </trkpt>
      <trkpt lat="42.796423" lon="-0.112114">
        <time>2023-03-21T07:36:55+00:00</time>
        <ele>2122.0</ele>
      </trkpt>
      <trkpt lat="42.796412" lon="-0.112106">
        <time>2023-03-21T07:37:28+00:00</time>
        <ele>2122.0</ele>
      </trkpt>
      <trkpt lat="42.796409" lon="-0.112108">
        <time>2023-03-21T07:38:05+00:00</time>
        <ele>2122.0</ele>
      </trkpt>
      <trkpt lat="42.796409" lon="-0.112107">
        <time>2023-03-21T07:38:15+00:00</time>
        <ele>2122.0</ele>
      </trkpt>
      <trkpt lat="42.79641" lon="-0.112107">
        <time>2023-03-21T07:38:16+00:00</time>
        <ele>2122.0</ele>
      </trkpt>
      <trkpt lat="42.79641" lon="-0.112107">
        <time>2023-03-21T07:38:17+00:00</time>
        <ele>2122.0</ele>
      </trkpt>
      <trkpt lat="42.79641" lon="-0.112107">
        <time>2023-03-21T07:38:19+00:00</time>
        <ele>2122.0</ele>
      </trkpt>
      <trkpt lat="42.796411" lon="-0.112107">
        <time>2023-03-21T07:38:21+00:00</time>
        <ele>2122.0</ele>
      </trkpt>
      <trkpt lat="42.796411" lon="-0.112106">
        <time>2023-03-21T07:38:22+00:00</time>
        <ele>2122.0</ele>
      </trkpt>
      <trkpt lat="42.796407" lon="-0.112102">
        <time>2023-03-21T07:38:29+00:00</time>
        <ele>2122.0</ele>
      </trkpt>
      <trkpt lat="42.796406" lon="-0.112102">
        <time>2023-03-21T07:38:30+00:00</time>
        <ele>2123.0</ele>
      </trkpt>
      <trkpt lat="42.796406" lon="-0.112103">
        <time>2023-03-21T07:38:31+00:00</time>
        <ele>2122.0</ele>
      </trkpt>
      <trkpt lat="42.796405" lon="-0.112111">
        <time>2023-03-21T07:38:36+00:00</time>
        <ele>2122.0</ele>
      </trkpt>
      <trkpt lat="42.796405" lon="-0.112114">
        <time>2023-03-21T07:38:37+00:00</time>
        <ele>2122.0</ele>
      </trkpt>
      <trkpt lat="42.796403" lon="-0.112119">
        <time>2023-03-21T07:38:42+00:00</time>
        <ele>2122.0</ele>
      </trkpt>
      <trkpt lat="42.796404" lon="-0.112119">
        <time>2023-03-21T07:38:43+00:00</time>
        <ele>2122.0</ele>
      </trkpt>
      <trkpt lat="42.796403" lon="-0.112118">
        <time>2023-03-21T07:38:46+00:00</time>
        <ele>2122.0</ele>
      </trkpt>
      <trkpt lat="42.796402" lon="-0.11212">
        <time>2023-03-21T07:38:49+00:00</time>
        <ele>2122.0</ele>
      </trkpt>
      <trkpt lat="42.796401" lon="-0.112122">
        <time>2023-03-21T07:38:50+00:00</time>
        <ele>2122.0</ele>
      </trkpt>
      <trkpt lat="42.796401" lon="-0.112124">
        <time>2023-03-21T07:38:51+00:00</time>
        <ele>2122.0</ele>
      </trkpt>
      <trkpt lat="42.796401" lon="-0.112125">
        <time>2023-03-21T07:38:52+00:00</time>
        <ele>2122.0</ele>
      </trkpt>
      <trkpt lat="42.796402" lon="-0.112128">
        <time>2023-03-21T07:38:55+00:00</time>
        <ele>2122.0</ele>
      </trkpt>
      <trkpt lat="42.796402" lon="-0.112128">
        <time>2023-03-21T07:38:57+00:00</time>
        <ele>2122.0</ele>
      </trkpt>
      <trkpt lat="42.796403" lon="-0.112126">
        <time>2023-03-21T07:38:59+00:00</time>
        <ele>2122.0</ele>
      </trkpt>
      <trkpt lat="42.796397" lon="-0.112137">
        <time>2023-03-21T07:39:29+00:00</time>
        <ele>2122.0</ele>
      </trkpt>
      <trkpt lat="42.796396" lon="-0.112136">
        <time>2023-03-21T07:39:33+00:00</time>
        <ele>2122.0</ele>
      </trkpt>
      <trkpt lat="42.796399" lon="-0.112135">
        <time>2023-03-21T07:39:34+00:00</time>
        <ele>2122.0</ele>
      </trkpt>
      <trkpt lat="42.7964" lon="-0.112136">
        <time>2023-03-21T07:39:35+00:00</time>
        <ele>2122.0</ele>
      </trkpt>
      <trkpt lat="42.796404" lon="-0.112149">
        <time>2023-03-21T07:39:42+00:00</time>
        <ele>2122.0</ele>
      </trkpt>
      <trkpt lat="42.796417" lon="-0.112135">
        <time>2023-03-21T07:40:16+00:00</time>
        <ele>2121.0</ele>
      </trkpt>
      <trkpt lat="42.796413" lon="-0.112124">
        <time>2023-03-21T07:40:43+00:00</time>
        <ele>2122.0</ele>
      </trkpt>
      <trkpt lat="42.796411" lon="-0.112145">
        <time>2023-03-21T07:41:17+00:00</time>
        <ele>2122.0</ele>
      </trkpt>
      <trkpt lat="42.796413" lon="-0.112139">
        <time>2023-03-21T07:41:32+00:00</time>
        <ele>2122.0</ele>
      </trkpt>
      <trkpt lat="42.796408" lon="-0.112133">
        <time>2023-03-21T07:41:36+00:00</time>
        <ele>2122.0</ele>
      </trkpt>
      <trkpt lat="42.796402" lon="-0.112125">
        <time>2023-03-21T07:42:09+00:00</time>
        <ele>2122.0</ele>
      </trkpt>
      <trkpt lat="42.796426" lon="-0.112135">
        <time>2023-03-21T07:42:39+00:00</time>
        <ele>2121.0</ele>
      </trkpt>
      <trkpt lat="42.796433" lon="-0.112136">
        <time>2023-03-21T07:43:11+00:00</time>
        <ele>2121.0</ele>
      </trkpt>
      <trkpt lat="42.796428" lon="-0.112123">
        <time>2023-03-21T07:43:42+00:00</time>
        <ele>2121.0</ele>
      </trkpt>
      <trkpt lat="42.796427" lon="-0.11212">
        <time>2023-03-21T07:43:44+00:00</time>
        <ele>2121.0</ele>
      </trkpt>
      <trkpt lat="42.796427" lon="-0.112117">
        <time>2023-03-21T07:43:45+00:00</time>
        <ele>2121.0</ele>
      </trkpt>
      <trkpt lat="42.796426" lon="-0.112115">
        <time>2023-03-21T07:43:46+00:00</time>
        <ele>2121.0</ele>
      </trkpt>
      <trkpt lat="42.796424" lon="-0.112109">
        <time>2023-03-21T07:43:48+00:00</time>
        <ele>2122.0</ele>
      </trkpt>
      <trkpt lat="42.796414" lon="-0.1121">
        <time>2023-03-21T07:43:55+00:00</time>
        <ele>2122.0</ele>
      </trkpt>
      <trkpt lat="42.796409" lon="-0.112091">
        <time>2023-03-21T07:43:58+00:00</time>
        <ele>2123.0</ele>
      </trkpt>
      <trkpt lat="42.796406" lon="-0.11209">
        <time>2023-03-21T07:44:03+00:00</time>
        <ele>2123.0</ele>
      </trkpt>
      <trkpt lat="42.796415" lon="-0.112094">
        <time>2023-03-21T07:44:10+00:00</time>
        <ele>2122.0</ele>
      </trkpt>
      <trkpt lat="42.796415" lon="-0.112093">
        <time>2023-03-21T07:44:11+00:00</time>
        <ele>2122.0</ele>
      </trkpt>
      <trkpt lat="42.796419" lon="-0.112095">
        <time>2023-03-21T07:44:14+00:00</time>
        <ele>2122.0</ele>
      </trkpt>
      <trkpt lat="42.796419" lon="-0.112099">
        <time>2023-03-21T07:44:22+00:00</time>
        <ele>2122.0</ele>
      </trkpt>
      <trkpt lat="42.796426" lon="-0.11211">
        <time>2023-03-21T07:44:30+00:00</time>
        <ele>2121.0</ele>
      </trkpt>
      <trkpt lat="42.796423" lon="-0.112129">
        <time>2023-03-21T07:44:35+00:00</time>
        <ele>2121.0</ele>
      </trkpt>
      <trkpt lat="42.796413" lon="-0.112113">
        <time>2023-03-21T07:44:49+00:00</time>
        <ele>2122.0</ele>
      </trkpt>
      <trkpt lat="42.796412" lon="-0.112117">
        <time>2023-03-21T07:44:51+00:00</time>
        <ele>2122.0</ele>
      </trkpt>
      <trkpt lat="42.796403" lon="-0.112126">
        <time>2023-03-21T07:44:53+00:00</time>
        <ele>2122.0</ele>
      </trkpt>
      <trkpt lat="42.796304" lon="-0.112134">
        <time>2023-03-21T07:45:07+00:00</time>
        <ele>2127.0</ele>
      </trkpt>
      <trkpt lat="42.796259" lon="-0.112125">
        <time>2023-03-21T07:45:18+00:00</time>
        <ele>2129.0</ele>
      </trkpt>
      <trkpt lat="42.79628" lon="-0.112002">
        <time>2023-03-21T07:45:32+00:00</time>
        <ele>2131.0</ele>
      </trkpt>
      <trkpt lat="42.796304" lon="-0.111899">
        <time>2023-03-21T07:45:46+00:00</time>
        <ele>2132.0</ele>
      </trkpt>
      <trkpt lat="42.796236" lon="-0.111924">
        <time>2023-03-21T07:45:57+00:00</time>
        <ele>2135.0</ele>
      </trkpt>
      <trkpt lat="42.796171" lon="-0.111961">
        <time>2023-03-21T07:46:09+00:00</time>
        <ele>2138.0</ele>
      </trkpt>
      <trkpt lat="42.79615" lon="-0.111942">
        <time>2023-03-21T07:46:20+00:00</time>
        <ele>2139.0</ele>
      </trkpt>
      <trkpt lat="42.796177" lon="-0.111832">
        <time>2023-03-21T07:46:33+00:00</time>
        <ele>2140.0</ele>
      </trkpt>
      <trkpt lat="42.796223" lon="-0.111754">
        <time>2023-03-21T07:46:45+00:00</time>
        <ele>2140.0</ele>
      </trkpt>
      <trkpt lat="42.796256" lon="-0.111697">
        <time>2023-03-21T07:46:56+00:00</time>
        <ele>2139.0</ele>
      </trkpt>
      <trkpt lat="42.796167" lon="-0.111687">
        <time>2023-03-21T07:47:09+00:00</time>
        <ele>2144.0</ele>
      </trkpt>
      <trkpt lat="42.79609" lon="-0.111691">
        <time>2023-03-21T07:47:22+00:00</time>
        <ele>2148.0</ele>
      </trkpt>
      <trkpt lat="42.795998" lon="-0.11169">
        <time>2023-03-21T07:47:38+00:00</time>
        <ele>2153.0</ele>
      </trkpt>
      <trkpt lat="42.79596" lon="-0.111737">
        <time>2023-03-21T07:47:49+00:00</time>
        <ele>2154.0</ele>
      </trkpt>
      <trkpt lat="42.795943" lon="-0.111633">
        <time>2023-03-21T07:48:02+00:00</time>
        <ele>2157.0</ele>
      </trkpt>
      <trkpt lat="42.795973" lon="-0.111559">
        <time>2023-03-21T07:48:14+00:00</time>
        <ele>2157.0</ele>
      </trkpt>
      <trkpt lat="42.796027" lon="-0.111463">
        <time>2023-03-21T07:48:29+00:00</time>
        <ele>2157.0</ele>
      </trkpt>
      <trkpt lat="42.79608" lon="-0.111408">
        <time>2023-03-21T07:48:42+00:00</time>
        <ele>2156.0</ele>
      </trkpt>
      <trkpt lat="42.796086" lon="-0.111409">
        <time>2023-03-21T07:48:43+00:00</time>
        <ele>2155.0</ele>
      </trkpt>
      <trkpt lat="42.796069" lon="-0.111399">
        <time>2023-03-21T07:48:46+00:00</time>
        <ele>2156.0</ele>
      </trkpt>
      <trkpt lat="42.795959" lon="-0.111388">
        <time>2023-03-21T07:49:02+00:00</time>
        <ele>2162.0</ele>
      </trkpt>
      <trkpt lat="42.795958" lon="-0.11137">
        <time>2023-03-21T07:49:15+00:00</time>
        <ele>2162.0</ele>
      </trkpt>
      <trkpt lat="42.796019" lon="-0.111308">
        <time>2023-03-21T07:49:29+00:00</time>
        <ele>2161.0</ele>
      </trkpt>
      <trkpt lat="42.796024" lon="-0.111273">
        <time>2023-03-21T07:49:40+00:00</time>
        <ele>2162.0</ele>
      </trkpt>
      <trkpt lat="42.795934" lon="-0.111264">
        <time>2023-03-21T07:49:55+00:00</time>
        <ele>2166.0</ele>
      </trkpt>
      <trkpt lat="42.795876" lon="-0.111285">
        <time>2023-03-21T07:50:09+00:00</time>
        <ele>2168.0</ele>
      </trkpt>
      <trkpt lat="42.795856" lon="-0.111263">
        <time>2023-03-21T07:50:20+00:00</time>
        <ele>2170.0</ele>
      </trkpt>
      <trkpt lat="42.795902" lon="-0.111179">
        <time>2023-03-21T07:50:35+00:00</time>
        <ele>2170.0</ele>
      </trkpt>
      <trkpt lat="42.795935" lon="-0.111107">
        <time>2023-03-21T07:50:46+00:00</time>
        <ele>2171.0</ele>
      </trkpt>
      <trkpt lat="42.795874" lon="-0.111092">
        <time>2023-03-21T07:50:56+00:00</time>
        <ele>2174.0</ele>
      </trkpt>
      <trkpt lat="42.795787" lon="-0.111063">
        <time>2023-03-21T07:51:10+00:00</time>
        <ele>2179.0</ele>
      </trkpt>
      <trkpt lat="42.795727" lon="-0.111055">
        <time>2023-03-21T07:51:23+00:00</time>
        <ele>2181.0</ele>
      </trkpt>
      <trkpt lat="42.795708" lon="-0.11104">
        <time>2023-03-21T07:51:49+00:00</time>
        <ele>2183.0</ele>
      </trkpt>
      <trkpt lat="42.795652" lon="-0.111058">
        <time>2023-03-21T07:52:01+00:00</time>
        <ele>2185.0</ele>
      </trkpt>
      <trkpt lat="42.795581" lon="-0.111112">
        <time>2023-03-21T07:52:15+00:00</time>
        <ele>2187.0</ele>
      </trkpt>
      <trkpt lat="42.795529" lon="-0.111153">
        <time>2023-03-21T07:52:27+00:00</time>
        <ele>2189.0</ele>
      </trkpt>
      <trkpt lat="42.795479" lon="-0.111204">
        <time>2023-03-21T07:52:39+00:00</time>
        <ele>2190.0</ele>
      </trkpt>
      <trkpt lat="42.795426" lon="-0.111248">
        <time>2023-03-21T07:52:52+00:00</time>
        <ele>2192.0</ele>
      </trkpt>
      <trkpt lat="42.795347" lon="-0.111284">
        <time>2023-03-21T07:53:05+00:00</time>
        <ele>2195.0</ele>
      </trkpt>
      <trkpt lat="42.795318" lon="-0.111239">
        <time>2023-03-21T07:53:14+00:00</time>
        <ele>2197.0</ele>
      </trkpt>
      <trkpt lat="42.795286" lon="-0.111141">
        <time>2023-03-21T07:53:26+00:00</time>
        <ele>2200.0</ele>
      </trkpt>
      <trkpt lat="42.795273" lon="-0.111074">
        <time>2023-03-21T07:53:38+00:00</time>
        <ele>2202.0</ele>
      </trkpt>
      <trkpt lat="42.795241" lon="-0.110988">
        <time>2023-03-21T07:53:53+00:00</time>
        <ele>2205.0</ele>
      </trkpt>
      <trkpt lat="42.795217" lon="-0.110866">
        <time>2023-03-21T07:54:09+00:00</time>
        <ele>2208.0</ele>
      </trkpt>
      <trkpt lat="42.795207" lon="-0.110798">
        <time>2023-03-21T07:54:24+00:00</time>
        <ele>2209.0</ele>
      </trkpt>
      <trkpt lat="42.795169" lon="-0.110854">
        <time>2023-03-21T07:54:38+00:00</time>
        <ele>2211.0</ele>
      </trkpt>
      <trkpt lat="42.795151" lon="-0.110883">
        <time>2023-03-21T07:54:54+00:00</time>
        <ele>2211.0</ele>
      </trkpt>
      <trkpt lat="42.795101" lon="-0.110929">
        <time>2023-03-21T07:55:06+00:00</time>
        <ele>2214.0</ele>
      </trkpt>
      <trkpt lat="42.795023" lon="-0.110985">
        <time>2023-03-21T07:55:18+00:00</time>
        <ele>2218.0</ele>
      </trkpt>
      <trkpt lat="42.794987" lon="-0.111054">
        <time>2023-03-21T07:55:30+00:00</time>
        <ele>2219.0</ele>
      </trkpt>
      <trkpt lat="42.79495" lon="-0.111121">
        <time>2023-03-21T07:55:41+00:00</time>
        <ele>2221.0</ele>
      </trkpt>
      <trkpt lat="42.794923" lon="-0.111205">
        <time>2023-03-21T07:55:55+00:00</time>
        <ele>2222.0</ele>
      </trkpt>
      <trkpt lat="42.794891" lon="-0.111237">
        <time>2023-03-21T07:56:10+00:00</time>
        <ele>2224.0</ele>
      </trkpt>
      <trkpt lat="42.794862" lon="-0.111105">
        <time>2023-03-21T07:56:29+00:00</time>
        <ele>2227.0</ele>
      </trkpt>
      <trkpt lat="42.79485" lon="-0.111014">
        <time>2023-03-21T07:56:42+00:00</time>
        <ele>2228.0</ele>
      </trkpt>
      <trkpt lat="42.794823" lon="-0.110937">
        <time>2023-03-21T07:56:56+00:00</time>
        <ele>2231.0</ele>
      </trkpt>
      <trkpt lat="42.794777" lon="-0.11099">
        <time>2023-03-21T07:57:07+00:00</time>
        <ele>2233.0</ele>
      </trkpt>
      <trkpt lat="42.794733" lon="-0.111074">
        <time>2023-03-21T07:57:21+00:00</time>
        <ele>2235.0</ele>
      </trkpt>
      <trkpt lat="42.79469" lon="-0.111138">
        <time>2023-03-21T07:57:36+00:00</time>
        <ele>2237.0</ele>
      </trkpt>
      <trkpt lat="42.794676" lon="-0.111192">
        <time>2023-03-21T07:57:43+00:00</time>
        <ele>2238.0</ele>
      </trkpt>
      <trkpt lat="42.794646" lon="-0.111143">
        <time>2023-03-21T07:57:54+00:00</time>
        <ele>2240.0</ele>
      </trkpt>
      <trkpt lat="42.794638" lon="-0.111058">
        <time>2023-03-21T07:58:06+00:00</time>
        <ele>2241.0</ele>
      </trkpt>
      <trkpt lat="42.794619" lon="-0.110967">
        <time>2023-03-21T07:58:18+00:00</time>
        <ele>2243.0</ele>
      </trkpt>
      <trkpt lat="42.7946" lon="-0.110967">
        <time>2023-03-21T07:58:28+00:00</time>
        <ele>2245.0</ele>
      </trkpt>
      <trkpt lat="42.794551" lon="-0.111022">
        <time>2023-03-21T07:58:41+00:00</time>
        <ele>2247.0</ele>
      </trkpt>
      <trkpt lat="42.794507" lon="-0.1111">
        <time>2023-03-21T07:58:56+00:00</time>
        <ele>2249.0</ele>
      </trkpt>
      <trkpt lat="42.794474" lon="-0.11113">
        <time>2023-03-21T07:59:09+00:00</time>
        <ele>2250.0</ele>
      </trkpt>
      <trkpt lat="42.794445" lon="-0.11104">
        <time>2023-03-21T07:59:21+00:00</time>
        <ele>2252.0</ele>
      </trkpt>
      <trkpt lat="42.794437" lon="-0.110948">
        <time>2023-03-21T07:59:35+00:00</time>
        <ele>2254.0</ele>
      </trkpt>
      <trkpt lat="42.794409" lon="-0.110988">
        <time>2023-03-21T07:59:47+00:00</time>
        <ele>2255.0</ele>
      </trkpt>
      <trkpt lat="42.794363" lon="-0.111053">
        <time>2023-03-21T07:59:58+00:00</time>
        <ele>2256.0</ele>
      </trkpt>
      <trkpt lat="42.794322" lon="-0.111071">
        <time>2023-03-21T08:00:12+00:00</time>
        <ele>2259.0</ele>
      </trkpt>
      <trkpt lat="42.794284" lon="-0.110968">
        <time>2023-03-21T08:00:28+00:00</time>
        <ele>2262.0</ele>
      </trkpt>
      <trkpt lat="42.794296" lon="-0.110873">
        <time>2023-03-21T08:00:43+00:00</time>
        <ele>2264.0</ele>
      </trkpt>
      <trkpt lat="42.794302" lon="-0.110856">
        <time>2023-03-21T08:00:46+00:00</time>
        <ele>2264.0</ele>
      </trkpt>
      <trkpt lat="42.794298" lon="-0.110858">
        <time>2023-03-21T08:00:49+00:00</time>
        <ele>2264.0</ele>
      </trkpt>
      <trkpt lat="42.794267" lon="-0.110901">
        <time>2023-03-21T08:01:01+00:00</time>
        <ele>2265.0</ele>
      </trkpt>
      <trkpt lat="42.794202" lon="-0.110948">
        <time>2023-03-21T08:01:17+00:00</time>
        <ele>2268.0</ele>
      </trkpt>
      <trkpt lat="42.794162" lon="-0.111014">
        <time>2023-03-21T08:01:29+00:00</time>
        <ele>2269.0</ele>
      </trkpt>
      <trkpt lat="42.794124" lon="-0.111089">
        <time>2023-03-21T08:01:42+00:00</time>
        <ele>2271.0</ele>
      </trkpt>
      <trkpt lat="42.794098" lon="-0.11117">
        <time>2023-03-21T08:01:55+00:00</time>
        <ele>2271.0</ele>
      </trkpt>
      <trkpt lat="42.794098" lon="-0.111213">
        <time>2023-03-21T08:02:08+00:00</time>
        <ele>2271.0</ele>
      </trkpt>
      <trkpt lat="42.794123" lon="-0.111213">
        <time>2023-03-21T08:02:29+00:00</time>
        <ele>2269.0</ele>
      </trkpt>
      <trkpt lat="42.794087" lon="-0.111194">
        <time>2023-03-21T08:02:45+00:00</time>
        <ele>2272.0</ele>
      </trkpt>
      <trkpt lat="42.794042" lon="-0.111131">
        <time>2023-03-21T08:02:59+00:00</time>
        <ele>2276.0</ele>
      </trkpt>
      <trkpt lat="42.793996" lon="-0.111039">
        <time>2023-03-21T08:03:11+00:00</time>
        <ele>2281.0</ele>
      </trkpt>
      <trkpt lat="42.793978" lon="-0.110945">
        <time>2023-03-21T08:03:26+00:00</time>
        <ele>2285.0</ele>
      </trkpt>
      <trkpt lat="42.793958" lon="-0.110914">
        <time>2023-03-21T08:03:38+00:00</time>
        <ele>2288.0</ele>
      </trkpt>
      <trkpt lat="42.79389" lon="-0.110964">
        <time>2023-03-21T08:03:53+00:00</time>
        <ele>2291.0</ele>
      </trkpt>
      <trkpt lat="42.793843" lon="-0.111038">
        <time>2023-03-21T08:04:06+00:00</time>
        <ele>2292.0</ele>
      </trkpt>
      <trkpt lat="42.793796" lon="-0.111112">
        <time>2023-03-21T08:04:17+00:00</time>
        <ele>2293.0</ele>
      </trkpt>
      <trkpt lat="42.793747" lon="-0.111212">
        <time>2023-03-21T08:04:34+00:00</time>
        <ele>2294.0</ele>
      </trkpt>
      <trkpt lat="42.793723" lon="-0.111296">
        <time>2023-03-21T08:04:47+00:00</time>
        <ele>2294.0</ele>
      </trkpt>
      <trkpt lat="42.793684" lon="-0.111382">
        <time>2023-03-21T08:05:01+00:00</time>
        <ele>2296.0</ele>
      </trkpt>
      <trkpt lat="42.793661" lon="-0.111453">
        <time>2023-03-21T08:05:15+00:00</time>
        <ele>2296.0</ele>
      </trkpt>
      <trkpt lat="42.793641" lon="-0.111536">
        <time>2023-03-21T08:05:28+00:00</time>
        <ele>2297.0</ele>
      </trkpt>
      <trkpt lat="42.793637" lon="-0.111619">
        <time>2023-03-21T08:05:41+00:00</time>
        <ele>2297.0</ele>
      </trkpt>
      <trkpt lat="42.793626" lon="-0.111667">
        <time>2023-03-21T08:05:53+00:00</time>
        <ele>2298.0</ele>
      </trkpt>
      <trkpt lat="42.793551" lon="-0.111632">
        <time>2023-03-21T08:06:09+00:00</time>
        <ele>2302.0</ele>
      </trkpt>
      <trkpt lat="42.793484" lon="-0.111556">
        <time>2023-03-21T08:06:25+00:00</time>
        <ele>2305.0</ele>
      </trkpt>
      <trkpt lat="42.79344" lon="-0.111462">
        <time>2023-03-21T08:06:40+00:00</time>
        <ele>2309.0</ele>
      </trkpt>
      <trkpt lat="42.793415" lon="-0.111399">
        <time>2023-03-21T08:06:54+00:00</time>
        <ele>2311.0</ele>
      </trkpt>
      <trkpt lat="42.79339" lon="-0.111336">
        <time>2023-03-21T08:07:08+00:00</time>
        <ele>2314.0</ele>
      </trkpt>
      <trkpt lat="42.793371" lon="-0.111282">
        <time>2023-03-21T08:07:19+00:00</time>
        <ele>2317.0</ele>
      </trkpt>
      <trkpt lat="42.79333" lon="-0.111352">
        <time>2023-03-21T08:07:31+00:00</time>
        <ele>2318.0</ele>
      </trkpt>
      <trkpt lat="42.793302" lon="-0.111446">
        <time>2023-03-21T08:07:45+00:00</time>
        <ele>2317.0</ele>
      </trkpt>
      <trkpt lat="42.793255" lon="-0.111524">
        <time>2023-03-21T08:08:00+00:00</time>
        <ele>2318.0</ele>
      </trkpt>
      <trkpt lat="42.793226" lon="-0.111593">
        <time>2023-03-21T08:08:15+00:00</time>
        <ele>2319.0</ele>
      </trkpt>
      <trkpt lat="42.793208" lon="-0.111677">
        <time>2023-03-21T08:08:28+00:00</time>
        <ele>2319.0</ele>
      </trkpt>
      <trkpt lat="42.793175" lon="-0.111749">
        <time>2023-03-21T08:08:43+00:00</time>
        <ele>2320.0</ele>
      </trkpt>
      <trkpt lat="42.793134" lon="-0.111702">
        <time>2023-03-21T08:08:54+00:00</time>
        <ele>2323.0</ele>
      </trkpt>
      <trkpt lat="42.793085" lon="-0.111618">
        <time>2023-03-21T08:09:10+00:00</time>
        <ele>2326.0</ele>
      </trkpt>
      <trkpt lat="42.793037" lon="-0.111535">
        <time>2023-03-21T08:09:25+00:00</time>
        <ele>2330.0</ele>
      </trkpt>
      <trkpt lat="42.79301" lon="-0.111468">
        <time>2023-03-21T08:09:39+00:00</time>
        <ele>2335.0</ele>
      </trkpt>
      <trkpt lat="42.792999" lon="-0.111435">
        <time>2023-03-21T08:09:48+00:00</time>
        <ele>2338.0</ele>
      </trkpt>
      <trkpt lat="42.792955" lon="-0.111487">
        <time>2023-03-21T08:10:01+00:00</time>
        <ele>2338.0</ele>
      </trkpt>
      <trkpt lat="42.792892" lon="-0.111544">
        <time>2023-03-21T08:10:16+00:00</time>
        <ele>2339.0</ele>
      </trkpt>
      <trkpt lat="42.792839" lon="-0.111598">
        <time>2023-03-21T08:10:30+00:00</time>
        <ele>2342.0</ele>
      </trkpt>
      <trkpt lat="42.792792" lon="-0.111645">
        <time>2023-03-21T08:10:43+00:00</time>
        <ele>2343.0</ele>
      </trkpt>
      <trkpt lat="42.792741" lon="-0.111688">
        <time>2023-03-21T08:10:57+00:00</time>
        <ele>2345.0</ele>
      </trkpt>
      <trkpt lat="42.792675" lon="-0.111728">
        <time>2023-03-21T08:11:11+00:00</time>
        <ele>2347.0</ele>
      </trkpt>
      <trkpt lat="42.792626" lon="-0.111758">
        <time>2023-03-21T08:11:25+00:00</time>
        <ele>2349.0</ele>
      </trkpt>
      <trkpt lat="42.792563" lon="-0.111805">
        <time>2023-03-21T08:11:39+00:00</time>
        <ele>2350.0</ele>
      </trkpt>
      <trkpt lat="42.792502" lon="-0.11185">
        <time>2023-03-21T08:11:53+00:00</time>
        <ele>2353.0</ele>
      </trkpt>
      <trkpt lat="42.792453" lon="-0.111895">
        <time>2023-03-21T08:12:06+00:00</time>
        <ele>2355.0</ele>
      </trkpt>
      <trkpt lat="42.792426" lon="-0.111913">
        <time>2023-03-21T08:12:17+00:00</time>
        <ele>2356.0</ele>
      </trkpt>
      <trkpt lat="42.792386" lon="-0.111832">
        <time>2023-03-21T08:12:33+00:00</time>
        <ele>2358.0</ele>
      </trkpt>
      <trkpt lat="42.792358" lon="-0.111754">
        <time>2023-03-21T08:12:47+00:00</time>
        <ele>2361.0</ele>
      </trkpt>
      <trkpt lat="42.792349" lon="-0.111682">
        <time>2023-03-21T08:13:01+00:00</time>
        <ele>2364.0</ele>
      </trkpt>
      <trkpt lat="42.792327" lon="-0.111653">
        <time>2023-03-21T08:13:11+00:00</time>
        <ele>2367.0</ele>
      </trkpt>
      <trkpt lat="42.79226" lon="-0.111688">
        <time>2023-03-21T08:13:24+00:00</time>
        <ele>2369.0</ele>
      </trkpt>
      <trkpt lat="42.792183" lon="-0.111717">
        <time>2023-03-21T08:13:39+00:00</time>
        <ele>2372.0</ele>
      </trkpt>
      <trkpt lat="42.792134" lon="-0.111748">
        <time>2023-03-21T08:13:52+00:00</time>
        <ele>2373.0</ele>
      </trkpt>
      <trkpt lat="42.792082" lon="-0.111794">
        <time>2023-03-21T08:14:06+00:00</time>
        <ele>2373.0</ele>
      </trkpt>
      <trkpt lat="42.792041" lon="-0.111859">
        <time>2023-03-21T08:14:20+00:00</time>
        <ele>2374.0</ele>
      </trkpt>
      <trkpt lat="42.792015" lon="-0.111883">
        <time>2023-03-21T08:14:31+00:00</time>
        <ele>2375.0</ele>
      </trkpt>
      <trkpt lat="42.791979" lon="-0.111821">
        <time>2023-03-21T08:14:45+00:00</time>
        <ele>2377.0</ele>
      </trkpt>
      <trkpt lat="42.791946" lon="-0.111752">
        <time>2023-03-21T08:14:59+00:00</time>
        <ele>2382.0</ele>
      </trkpt>
      <trkpt lat="42.791916" lon="-0.111665">
        <time>2023-03-21T08:15:14+00:00</time>
        <ele>2387.0</ele>
      </trkpt>
      <trkpt lat="42.791901" lon="-0.11159">
        <time>2023-03-21T08:15:28+00:00</time>
        <ele>2391.0</ele>
      </trkpt>
      <trkpt lat="42.791857" lon="-0.111644">
        <time>2023-03-21T08:15:39+00:00</time>
        <ele>2391.0</ele>
      </trkpt>
      <trkpt lat="42.791799" lon="-0.111682">
        <time>2023-03-21T08:15:53+00:00</time>
        <ele>2392.0</ele>
      </trkpt>
      <trkpt lat="42.791759" lon="-0.111719">
        <time>2023-03-21T08:16:07+00:00</time>
        <ele>2393.0</ele>
      </trkpt>
      <trkpt lat="42.791696" lon="-0.111768">
        <time>2023-03-21T08:16:20+00:00</time>
        <ele>2394.0</ele>
      </trkpt>
      <trkpt lat="42.791642" lon="-0.111791">
        <time>2023-03-21T08:16:34+00:00</time>
        <ele>2395.0</ele>
      </trkpt>
      <trkpt lat="42.791582" lon="-0.111834">
        <time>2023-03-21T08:16:47+00:00</time>
        <ele>2397.0</ele>
      </trkpt>
      <trkpt lat="42.79154" lon="-0.111875">
        <time>2023-03-21T08:17:02+00:00</time>
        <ele>2399.0</ele>
      </trkpt>
      <trkpt lat="42.791483" lon="-0.111945">
        <time>2023-03-21T08:17:15+00:00</time>
        <ele>2400.0</ele>
      </trkpt>
      <trkpt lat="42.79146" lon="-0.111996">
        <time>2023-03-21T08:17:27+00:00</time>
        <ele>2401.0</ele>
      </trkpt>
      <trkpt lat="42.791426" lon="-0.111941">
        <time>2023-03-21T08:17:40+00:00</time>
        <ele>2403.0</ele>
      </trkpt>
      <trkpt lat="42.791405" lon="-0.111906">
        <time>2023-03-21T08:17:54+00:00</time>
        <ele>2404.0</ele>
      </trkpt>
      <trkpt lat="42.791384" lon="-0.111846">
        <time>2023-03-21T08:18:06+00:00</time>
        <ele>2405.0</ele>
      </trkpt>
      <trkpt lat="42.791367" lon="-0.111784">
        <time>2023-03-21T08:18:19+00:00</time>
        <ele>2407.0</ele>
      </trkpt>
      <trkpt lat="42.791354" lon="-0.111736">
        <time>2023-03-21T08:18:32+00:00</time>
        <ele>2409.0</ele>
      </trkpt>
      <trkpt lat="42.79133" lon="-0.111751">
        <time>2023-03-21T08:18:47+00:00</time>
        <ele>2410.0</ele>
      </trkpt>
      <trkpt lat="42.791318" lon="-0.111737">
        <time>2023-03-21T08:19:15+00:00</time>
        <ele>2411.0</ele>
      </trkpt>
      <trkpt lat="42.791292" lon="-0.111754">
        <time>2023-03-21T08:19:36+00:00</time>
        <ele>2411.0</ele>
      </trkpt>
      <trkpt lat="42.791227" lon="-0.111777">
        <time>2023-03-21T08:19:51+00:00</time>
        <ele>2413.0</ele>
      </trkpt>
      <trkpt lat="42.791173" lon="-0.111815">
        <time>2023-03-21T08:20:03+00:00</time>
        <ele>2414.0</ele>
      </trkpt>
      <trkpt lat="42.79113" lon="-0.111864">
        <time>2023-03-21T08:20:17+00:00</time>
        <ele>2416.0</ele>
      </trkpt>
      <trkpt lat="42.791089" lon="-0.111919">
        <time>2023-03-21T08:20:29+00:00</time>
        <ele>2417.0</ele>
      </trkpt>
      <trkpt lat="42.79105" lon="-0.111944">
        <time>2023-03-21T08:20:42+00:00</time>
        <ele>2419.0</ele>
      </trkpt>
      <trkpt lat="42.790993" lon="-0.111892">
        <time>2023-03-21T08:20:57+00:00</time>
        <ele>2422.0</ele>
      </trkpt>
      <trkpt lat="42.790913" lon="-0.111864">
        <time>2023-03-21T08:21:13+00:00</time>
        <ele>2425.0</ele>
      </trkpt>
      <trkpt lat="42.790845" lon="-0.11183">
        <time>2023-03-21T08:21:27+00:00</time>
        <ele>2427.0</ele>
      </trkpt>
      <trkpt lat="42.790772" lon="-0.111792">
        <time>2023-03-21T08:21:43+00:00</time>
        <ele>2431.0</ele>
      </trkpt>
      <trkpt lat="42.79074" lon="-0.111733">
        <time>2023-03-21T08:21:57+00:00</time>
        <ele>2434.0</ele>
      </trkpt>
      <trkpt lat="42.790696" lon="-0.111765">
        <time>2023-03-21T08:22:07+00:00</time>
        <ele>2435.0</ele>
      </trkpt>
      <trkpt lat="42.790636" lon="-0.111771">
        <time>2023-03-21T08:22:21+00:00</time>
        <ele>2437.0</ele>
      </trkpt>
      <trkpt lat="42.790572" lon="-0.11179">
        <time>2023-03-21T08:22:35+00:00</time>
        <ele>2439.0</ele>
      </trkpt>
      <trkpt lat="42.790501" lon="-0.11182">
        <time>2023-03-21T08:22:50+00:00</time>
        <ele>2440.0</ele>
      </trkpt>
      <trkpt lat="42.790456" lon="-0.111887">
        <time>2023-03-21T08:23:05+00:00</time>
        <ele>2441.0</ele>
      </trkpt>
      <trkpt lat="42.790424" lon="-0.111964">
        <time>2023-03-21T08:23:18+00:00</time>
        <ele>2441.0</ele>
      </trkpt>
      <trkpt lat="42.790403" lon="-0.11205">
        <time>2023-03-21T08:23:32+00:00</time>
        <ele>2441.0</ele>
      </trkpt>
      <trkpt lat="42.790348" lon="-0.112037">
        <time>2023-03-21T08:23:42+00:00</time>
        <ele>2442.0</ele>
      </trkpt>
      <trkpt lat="42.790293" lon="-0.112005">
        <time>2023-03-21T08:23:57+00:00</time>
        <ele>2444.0</ele>
      </trkpt>
      <trkpt lat="42.790226" lon="-0.111966">
        <time>2023-03-21T08:24:14+00:00</time>
        <ele>2446.0</ele>
      </trkpt>
      <trkpt lat="42.790174" lon="-0.111919">
        <time>2023-03-21T08:24:28+00:00</time>
        <ele>2448.0</ele>
      </trkpt>
      <trkpt lat="42.790128" lon="-0.111853">
        <time>2023-03-21T08:24:43+00:00</time>
        <ele>2450.0</ele>
      </trkpt>
      <trkpt lat="42.790072" lon="-0.111848">
        <time>2023-03-21T08:24:56+00:00</time>
        <ele>2451.0</ele>
      </trkpt>
      <trkpt lat="42.790085" lon="-0.111845">
        <time>2023-03-21T08:25:14+00:00</time>
        <ele>2451.0</ele>
      </trkpt>
      <trkpt lat="42.790042" lon="-0.111833">
        <time>2023-03-21T08:25:33+00:00</time>
        <ele>2452.0</ele>
      </trkpt>
      <trkpt lat="42.78997" lon="-0.111806">
        <time>2023-03-21T08:25:47+00:00</time>
        <ele>2454.0</ele>
      </trkpt>
      <trkpt lat="42.789863" lon="-0.111774">
        <time>2023-03-21T08:26:04+00:00</time>
        <ele>2459.0</ele>
      </trkpt>
      <trkpt lat="42.789796" lon="-0.111733">
        <time>2023-03-21T08:26:20+00:00</time>
        <ele>2462.0</ele>
      </trkpt>
      <trkpt lat="42.789729" lon="-0.111717">
        <time>2023-03-21T08:26:34+00:00</time>
        <ele>2464.0</ele>
      </trkpt>
      <trkpt lat="42.789647" lon="-0.111695">
        <time>2023-03-21T08:26:48+00:00</time>
        <ele>2467.0</ele>
      </trkpt>
      <trkpt lat="42.789587" lon="-0.111676">
        <time>2023-03-21T08:27:02+00:00</time>
        <ele>2470.0</ele>
      </trkpt>
      <trkpt lat="42.789519" lon="-0.11168">
        <time>2023-03-21T08:27:15+00:00</time>
        <ele>2472.0</ele>
      </trkpt>
      <trkpt lat="42.78948" lon="-0.11167">
        <time>2023-03-21T08:27:27+00:00</time>
        <ele>2473.0</ele>
      </trkpt>
      <trkpt lat="42.789456" lon="-0.111645">
        <time>2023-03-21T08:27:33+00:00</time>
        <ele>2474.0</ele>
      </trkpt>
      <trkpt lat="42.789444" lon="-0.111644">
        <time>2023-03-21T08:27:44+00:00</time>
        <ele>2475.0</ele>
      </trkpt>
      <trkpt lat="42.789455" lon="-0.111665">
        <time>2023-03-21T08:27:57+00:00</time>
        <ele>2474.0</ele>
      </trkpt>
      <trkpt lat="42.789467" lon="-0.111644">
        <time>2023-03-21T08:28:15+00:00</time>
        <ele>2474.0</ele>
      </trkpt>
      <trkpt lat="42.789467" lon="-0.11164">
        <time>2023-03-21T08:28:16+00:00</time>
        <ele>2474.0</ele>
      </trkpt>
      <trkpt lat="42.789461" lon="-0.111638">
        <time>2023-03-21T08:28:17+00:00</time>
        <ele>2474.0</ele>
      </trkpt>
      <trkpt lat="42.789455" lon="-0.111638">
        <time>2023-03-21T08:28:18+00:00</time>
        <ele>2474.0</ele>
      </trkpt>
      <trkpt lat="42.789423" lon="-0.111594">
        <time>2023-03-21T08:28:45+00:00</time>
        <ele>2476.0</ele>
      </trkpt>
      <trkpt lat="42.789477" lon="-0.111672">
        <time>2023-03-21T08:29:13+00:00</time>
        <ele>2473.0</ele>
      </trkpt>
      <trkpt lat="42.789478" lon="-0.111677">
        <time>2023-03-21T08:29:43+00:00</time>
        <ele>2473.0</ele>
      </trkpt>
      <trkpt lat="42.789452" lon="-0.111694">
        <time>2023-03-21T08:30:24+00:00</time>
        <ele>2474.0</ele>
      </trkpt>
      <trkpt lat="42.789427" lon="-0.111693">
        <time>2023-03-21T08:31:07+00:00</time>
        <ele>2475.0</ele>
      </trkpt>
      <trkpt lat="42.789431" lon="-0.111711">
        <time>2023-03-21T08:31:47+00:00</time>
        <ele>2474.0</ele>
      </trkpt>
      <trkpt lat="42.789436" lon="-0.111647">
        <time>2023-03-21T08:32:22+00:00</time>
        <ele>2475.0</ele>
      </trkpt>
      <trkpt lat="42.789444" lon="-0.111718">
        <time>2023-03-21T08:33:07+00:00</time>
        <ele>2474.0</ele>
      </trkpt>
      <trkpt lat="42.789457" lon="-0.111669">
        <time>2023-03-21T08:33:42+00:00</time>
        <ele>2474.0</ele>
      </trkpt>
      <trkpt lat="42.789427" lon="-0.11164">
        <time>2023-03-21T08:34:25+00:00</time>
        <ele>2475.0</ele>
      </trkpt>
      <trkpt lat="42.78943" lon="-0.111628">
        <time>2023-03-21T08:34:59+00:00</time>
        <ele>2475.0</ele>
      </trkpt>
      <trkpt lat="42.789428" lon="-0.111669">
        <time>2023-03-21T08:35:35+00:00</time>
        <ele>2475.0</ele>
      </trkpt>
      <trkpt lat="42.789398" lon="-0.111691">
        <time>2023-03-21T08:36:01+00:00</time>
        <ele>2475.0</ele>
      </trkpt>
      <trkpt lat="42.78942" lon="-0.111693">
        <time>2023-03-21T08:36:04+00:00</time>
        <ele>2475.0</ele>
      </trkpt>
      <trkpt lat="42.789427" lon="-0.111694">
        <time>2023-03-21T08:36:06+00:00</time>
        <ele>2475.0</ele>
      </trkpt>
      <trkpt lat="42.789425" lon="-0.111695">
        <time>2023-03-21T08:36:17+00:00</time>
        <ele>2475.0</ele>
      </trkpt>
      <trkpt lat="42.789441" lon="-0.111695">
        <time>2023-03-21T08:36:34+00:00</time>
        <ele>2474.0</ele>
      </trkpt>
      <trkpt lat="42.789444" lon="-0.111668">
        <time>2023-03-21T08:36:48+00:00</time>
        <ele>2474.0</ele>
      </trkpt>
      <trkpt lat="42.789436" lon="-0.111688">
        <time>2023-03-21T08:37:05+00:00</time>
        <ele>2474.0</ele>
      </trkpt>
      <trkpt lat="42.789472" lon="-0.111706">
        <time>2023-03-21T08:37:22+00:00</time>
        <ele>2473.0</ele>
      </trkpt>
      <trkpt lat="42.78947" lon="-0.111712">
        <time>2023-03-21T08:37:28+00:00</time>
        <ele>2473.0</ele>
      </trkpt>
      <trkpt lat="42.789481" lon="-0.11171">
        <time>2023-03-21T08:37:35+00:00</time>
        <ele>2472.0</ele>
      </trkpt>
      <trkpt lat="42.789504" lon="-0.11175">
        <time>2023-03-21T08:37:37+00:00</time>
        <ele>2471.0</ele>
      </trkpt>
      <trkpt lat="42.789525" lon="-0.111892">
        <time>2023-03-21T08:37:42+00:00</time>
        <ele>2469.0</ele>
      </trkpt>
      <trkpt lat="42.789499" lon="-0.111935">
        <time>2023-03-21T08:37:47+00:00</time>
        <ele>2469.0</ele>
      </trkpt>
      <trkpt lat="42.789431" lon="-0.112026">
        <time>2023-03-21T08:38:02+00:00</time>
        <ele>2471.0</ele>
      </trkpt>
      <trkpt lat="42.789413" lon="-0.112086">
        <time>2023-03-21T08:38:16+00:00</time>
        <ele>2471.0</ele>
      </trkpt>
      <trkpt lat="42.78942" lon="-0.112115">
        <time>2023-03-21T08:38:39+00:00</time>
        <ele>2471.0</ele>
      </trkpt>
      <trkpt lat="42.789381" lon="-0.112074">
        <time>2023-03-21T08:39:01+00:00</time>
        <ele>2472.0</ele>
      </trkpt>
      <trkpt lat="42.789385" lon="-0.112064">
        <time>2023-03-21T08:39:28+00:00</time>
        <ele>2472.0</ele>
      </trkpt>
      <trkpt lat="42.789376" lon="-0.11209">
        <time>2023-03-21T08:39:51+00:00</time>
        <ele>2472.0</ele>
      </trkpt>
      <trkpt lat="42.7894" lon="-0.112129">
        <time>2023-03-21T08:40:17+00:00</time>
        <ele>2472.0</ele>
      </trkpt>
      <trkpt lat="42.789379" lon="-0.112055">
        <time>2023-03-21T08:40:31+00:00</time>
        <ele>2472.0</ele>
      </trkpt>
      <trkpt lat="42.789345" lon="-0.112101">
        <time>2023-03-21T08:40:53+00:00</time>
        <ele>2473.0</ele>
      </trkpt>
      <trkpt lat="42.789278" lon="-0.112117">
        <time>2023-03-21T08:41:05+00:00</time>
        <ele>2475.0</ele>
      </trkpt>
      <trkpt lat="42.789216" lon="-0.112087">
        <time>2023-03-21T08:41:18+00:00</time>
        <ele>2476.0</ele>
      </trkpt>
      <trkpt lat="42.789117" lon="-0.112072">
        <time>2023-03-21T08:41:33+00:00</time>
        <ele>2479.0</ele>
      </trkpt>
      <trkpt lat="42.78904" lon="-0.112048">
        <time>2023-03-21T08:41:45+00:00</time>
        <ele>2482.0</ele>
      </trkpt>
      <trkpt lat="42.788971" lon="-0.112038">
        <time>2023-03-21T08:41:57+00:00</time>
        <ele>2485.0</ele>
      </trkpt>
      <trkpt lat="42.788894" lon="-0.112045">
        <time>2023-03-21T08:42:10+00:00</time>
        <ele>2488.0</ele>
      </trkpt>
      <trkpt lat="42.788832" lon="-0.112067">
        <time>2023-03-21T08:42:26+00:00</time>
        <ele>2490.0</ele>
      </trkpt>
      <trkpt lat="42.788757" lon="-0.112096">
        <time>2023-03-21T08:42:42+00:00</time>
        <ele>2493.0</ele>
      </trkpt>
      <trkpt lat="42.788714" lon="-0.112156">
        <time>2023-03-21T08:42:55+00:00</time>
        <ele>2495.0</ele>
      </trkpt>
      <trkpt lat="42.788659" lon="-0.112207">
        <time>2023-03-21T08:43:12+00:00</time>
        <ele>2497.0</ele>
      </trkpt>
      <trkpt lat="42.788613" lon="-0.112147">
        <time>2023-03-21T08:43:26+00:00</time>
        <ele>2499.0</ele>
      </trkpt>
      <trkpt lat="42.788556" lon="-0.112085">
        <time>2023-03-21T08:43:40+00:00</time>
        <ele>2501.0</ele>
      </trkpt>
      <trkpt lat="42.788514" lon="-0.112038">
        <time>2023-03-21T08:43:54+00:00</time>
        <ele>2503.0</ele>
      </trkpt>
      <trkpt lat="42.788429" lon="-0.112045">
        <time>2023-03-21T08:44:09+00:00</time>
        <ele>2506.0</ele>
      </trkpt>
      <trkpt lat="42.788354" lon="-0.112078">
        <time>2023-03-21T08:44:25+00:00</time>
        <ele>2508.0</ele>
      </trkpt>
      <trkpt lat="42.788278" lon="-0.112089">
        <time>2023-03-21T08:44:37+00:00</time>
        <ele>2512.0</ele>
      </trkpt>
      <trkpt lat="42.788188" lon="-0.112107">
        <time>2023-03-21T08:44:54+00:00</time>
        <ele>2516.0</ele>
      </trkpt>
      <trkpt lat="42.78812" lon="-0.112142">
        <time>2023-03-21T08:45:09+00:00</time>
        <ele>2518.0</ele>
      </trkpt>
      <trkpt lat="42.78808" lon="-0.112161">
        <time>2023-03-21T08:45:21+00:00</time>
        <ele>2519.0</ele>
      </trkpt>
      <trkpt lat="42.788034" lon="-0.112166">
        <time>2023-03-21T08:45:37+00:00</time>
        <ele>2520.0</ele>
      </trkpt>
      <trkpt lat="42.787966" lon="-0.112183">
        <time>2023-03-21T08:45:50+00:00</time>
        <ele>2523.0</ele>
      </trkpt>
      <trkpt lat="42.787925" lon="-0.112194">
        <time>2023-03-21T08:46:07+00:00</time>
        <ele>2524.0</ele>
      </trkpt>
      <trkpt lat="42.78791" lon="-0.112212">
        <time>2023-03-21T08:46:28+00:00</time>
        <ele>2524.0</ele>
      </trkpt>
      <trkpt lat="42.787857" lon="-0.112263">
        <time>2023-03-21T08:46:44+00:00</time>
        <ele>2525.0</ele>
      </trkpt>
      <trkpt lat="42.787804" lon="-0.112337">
        <time>2023-03-21T08:47:02+00:00</time>
        <ele>2526.0</ele>
      </trkpt>
      <trkpt lat="42.787765" lon="-0.112425">
        <time>2023-03-21T08:47:16+00:00</time>
        <ele>2527.0</ele>
      </trkpt>
      <trkpt lat="42.787717" lon="-0.112515">
        <time>2023-03-21T08:47:30+00:00</time>
        <ele>2529.0</ele>
      </trkpt>
      <trkpt lat="42.78767" lon="-0.11247">
        <time>2023-03-21T08:47:44+00:00</time>
        <ele>2532.0</ele>
      </trkpt>
      <trkpt lat="42.787629" lon="-0.11244">
        <time>2023-03-21T08:47:58+00:00</time>
        <ele>2535.0</ele>
      </trkpt>
      <trkpt lat="42.787578" lon="-0.112389">
        <time>2023-03-21T08:48:12+00:00</time>
        <ele>2538.0</ele>
      </trkpt>
      <trkpt lat="42.787525" lon="-0.112285">
        <time>2023-03-21T08:48:26+00:00</time>
        <ele>2542.0</ele>
      </trkpt>
      <trkpt lat="42.787469" lon="-0.112177">
        <time>2023-03-21T08:48:40+00:00</time>
        <ele>2547.0</ele>
      </trkpt>
      <trkpt lat="42.787458" lon="-0.112151">
        <time>2023-03-21T08:48:46+00:00</time>
        <ele>2548.0</ele>
      </trkpt>
      <trkpt lat="42.787431" lon="-0.112153">
        <time>2023-03-21T08:48:57+00:00</time>
        <ele>2549.0</ele>
      </trkpt>
      <trkpt lat="42.787385" lon="-0.112269">
        <time>2023-03-21T08:49:16+00:00</time>
        <ele>2549.0</ele>
      </trkpt>
      <trkpt lat="42.78735" lon="-0.112378">
        <time>2023-03-21T08:49:32+00:00</time>
        <ele>2549.0</ele>
      </trkpt>
      <trkpt lat="42.787328" lon="-0.112383">
        <time>2023-03-21T08:49:43+00:00</time>
        <ele>2549.0</ele>
      </trkpt>
      <trkpt lat="42.787291" lon="-0.112338">
        <time>2023-03-21T08:49:56+00:00</time>
        <ele>2551.0</ele>
      </trkpt>
      <trkpt lat="42.787245" lon="-0.112275">
        <time>2023-03-21T08:50:10+00:00</time>
        <ele>2555.0</ele>
      </trkpt>
      <trkpt lat="42.787203" lon="-0.112241">
        <time>2023-03-21T08:50:21+00:00</time>
        <ele>2557.0</ele>
      </trkpt>
      <trkpt lat="42.787157" lon="-0.11233">
        <time>2023-03-21T08:50:35+00:00</time>
        <ele>2557.0</ele>
      </trkpt>
      <trkpt lat="42.787136" lon="-0.112424">
        <time>2023-03-21T08:50:47+00:00</time>
        <ele>2557.0</ele>
      </trkpt>
      <trkpt lat="42.787108" lon="-0.112415">
        <time>2023-03-21T08:50:58+00:00</time>
        <ele>2558.0</ele>
      </trkpt>
      <trkpt lat="42.787068" lon="-0.112394">
        <time>2023-03-21T08:51:09+00:00</time>
        <ele>2560.0</ele>
      </trkpt>
      <trkpt lat="42.787019" lon="-0.112321">
        <time>2023-03-21T08:51:22+00:00</time>
        <ele>2563.0</ele>
      </trkpt>
      <trkpt lat="42.786973" lon="-0.112293">
        <time>2023-03-21T08:51:33+00:00</time>
        <ele>2565.0</ele>
      </trkpt>
      <trkpt lat="42.786899" lon="-0.11233">
        <time>2023-03-21T08:51:47+00:00</time>
        <ele>2567.0</ele>
      </trkpt>
      <trkpt lat="42.786814" lon="-0.112366">
        <time>2023-03-21T08:52:02+00:00</time>
        <ele>2569.0</ele>
      </trkpt>
      <trkpt lat="42.786736" lon="-0.112407">
        <time>2023-03-21T08:52:19+00:00</time>
        <ele>2572.0</ele>
      </trkpt>
      <trkpt lat="42.786643" lon="-0.112439">
        <time>2023-03-21T08:52:38+00:00</time>
        <ele>2576.0</ele>
      </trkpt>
      <trkpt lat="42.786626" lon="-0.112454">
        <time>2023-03-21T08:52:52+00:00</time>
        <ele>2576.0</ele>
      </trkpt>
      <trkpt lat="42.786628" lon="-0.11245">
        <time>2023-03-21T08:52:55+00:00</time>
        <ele>2576.0</ele>
      </trkpt>
      <trkpt lat="42.78664" lon="-0.112463">
        <time>2023-03-21T08:53:21+00:00</time>
        <ele>2575.0</ele>
      </trkpt>
      <trkpt lat="42.786653" lon="-0.112471">
        <time>2023-03-21T08:53:45+00:00</time>
        <ele>2575.0</ele>
      </trkpt>
      <trkpt lat="42.786631" lon="-0.112469">
        <time>2023-03-21T08:54:08+00:00</time>
        <ele>2575.0</ele>
      </trkpt>
      <trkpt lat="42.786566" lon="-0.11248">
        <time>2023-03-21T08:54:22+00:00</time>
        <ele>2578.0</ele>
      </trkpt>
      <trkpt lat="42.78647" lon="-0.112468">
        <time>2023-03-21T08:54:36+00:00</time>
        <ele>2582.0</ele>
      </trkpt>
      <trkpt lat="42.786393" lon="-0.112472">
        <time>2023-03-21T08:54:51+00:00</time>
        <ele>2585.0</ele>
      </trkpt>
      <trkpt lat="42.786307" lon="-0.112483">
        <time>2023-03-21T08:55:07+00:00</time>
        <ele>2587.0</ele>
      </trkpt>
      <trkpt lat="42.786225" lon="-0.112479">
        <time>2023-03-21T08:55:21+00:00</time>
        <ele>2590.0</ele>
      </trkpt>
      <trkpt lat="42.786149" lon="-0.11248">
        <time>2023-03-21T08:55:37+00:00</time>
        <ele>2593.0</ele>
      </trkpt>
      <trkpt lat="42.786079" lon="-0.112477">
        <time>2023-03-21T08:55:52+00:00</time>
        <ele>2596.0</ele>
      </trkpt>
      <trkpt lat="42.786019" lon="-0.112482">
        <time>2023-03-21T08:56:06+00:00</time>
        <ele>2598.0</ele>
      </trkpt>
      <trkpt lat="42.785955" lon="-0.112437">
        <time>2023-03-21T08:56:18+00:00</time>
        <ele>2603.0</ele>
      </trkpt>
      <trkpt lat="42.785903" lon="-0.11246">
        <time>2023-03-21T08:56:33+00:00</time>
        <ele>2605.0</ele>
      </trkpt>
      <trkpt lat="42.785813" lon="-0.112454">
        <time>2023-03-21T08:56:48+00:00</time>
        <ele>2609.0</ele>
      </trkpt>
      <trkpt lat="42.785813" lon="-0.112441">
        <time>2023-03-21T08:56:59+00:00</time>
        <ele>2610.0</ele>
      </trkpt>
      <trkpt lat="42.785858" lon="-0.112415">
        <time>2023-03-21T08:57:14+00:00</time>
        <ele>2609.0</ele>
      </trkpt>
      <trkpt lat="42.785879" lon="-0.112353">
        <time>2023-03-21T08:57:26+00:00</time>
        <ele>2611.0</ele>
      </trkpt>
      <trkpt lat="42.785888" lon="-0.112278">
        <time>2023-03-21T08:57:39+00:00</time>
        <ele>2613.0</ele>
      </trkpt>
      <trkpt lat="42.785894" lon="-0.112196">
        <time>2023-03-21T08:57:52+00:00</time>
        <ele>2616.0</ele>
      </trkpt>
      <trkpt lat="42.785905" lon="-0.112113">
        <time>2023-03-21T08:58:05+00:00</time>
        <ele>2619.0</ele>
      </trkpt>
      <trkpt lat="42.785926" lon="-0.112053">
        <time>2023-03-21T08:58:17+00:00</time>
        <ele>2620.0</ele>
      </trkpt>
      <trkpt lat="42.785951" lon="-0.111995">
        <time>2023-03-21T08:58:29+00:00</time>
        <ele>2621.0</ele>
      </trkpt>
      <trkpt lat="42.785913" lon="-0.112005">
        <time>2023-03-21T08:58:40+00:00</time>
        <ele>2623.0</ele>
      </trkpt>
      <trkpt lat="42.785849" lon="-0.112015">
        <time>2023-03-21T08:58:56+00:00</time>
        <ele>2626.0</ele>
      </trkpt>
      <trkpt lat="42.785786" lon="-0.112046">
        <time>2023-03-21T08:59:11+00:00</time>
        <ele>2627.0</ele>
      </trkpt>
      <trkpt lat="42.785741" lon="-0.11209">
        <time>2023-03-21T08:59:26+00:00</time>
        <ele>2628.0</ele>
      </trkpt>
      <trkpt lat="42.785672" lon="-0.11209">
        <time>2023-03-21T08:59:40+00:00</time>
        <ele>2631.0</ele>
      </trkpt>
      <trkpt lat="42.785617" lon="-0.112112">
        <time>2023-03-21T08:59:54+00:00</time>
        <ele>2633.0</ele>
      </trkpt>
      <trkpt lat="42.785532" lon="-0.112103">
        <time>2023-03-21T09:00:10+00:00</time>
        <ele>2637.0</ele>
      </trkpt>
      <trkpt lat="42.78545" lon="-0.112116">
        <time>2023-03-21T09:00:26+00:00</time>
        <ele>2641.0</ele>
      </trkpt>
      <trkpt lat="42.785421" lon="-0.112094">
        <time>2023-03-21T09:00:46+00:00</time>
        <ele>2643.0</ele>
      </trkpt>
      <trkpt lat="42.785458" lon="-0.112101">
        <time>2023-03-21T09:01:19+00:00</time>
        <ele>2641.0</ele>
      </trkpt>
      <trkpt lat="42.785468" lon="-0.112169">
        <time>2023-03-21T09:01:45+00:00</time>
        <ele>2638.0</ele>
      </trkpt>
      <trkpt lat="42.785419" lon="-0.112139">
        <time>2023-03-21T09:02:10+00:00</time>
        <ele>2641.0</ele>
      </trkpt>
      <trkpt lat="42.785367" lon="-0.112188">
        <time>2023-03-21T09:02:23+00:00</time>
        <ele>2642.0</ele>
      </trkpt>
      <trkpt lat="42.7853" lon="-0.112224">
        <time>2023-03-21T09:02:36+00:00</time>
        <ele>2643.0</ele>
      </trkpt>
      <trkpt lat="42.785243" lon="-0.11226">
        <time>2023-03-21T09:02:50+00:00</time>
        <ele>2645.0</ele>
      </trkpt>
      <trkpt lat="42.785257" lon="-0.112275">
        <time>2023-03-21T09:02:52+00:00</time>
        <ele>2643.0</ele>
      </trkpt>
      <trkpt lat="42.785262" lon="-0.112224">
        <time>2023-03-21T09:03:02+00:00</time>
        <ele>2645.0</ele>
      </trkpt>
      <trkpt lat="42.785274" lon="-0.112148">
        <time>2023-03-21T09:03:16+00:00</time>
        <ele>2648.0</ele>
      </trkpt>
      <trkpt lat="42.785294" lon="-0.112063">
        <time>2023-03-21T09:03:28+00:00</time>
        <ele>2650.0</ele>
      </trkpt>
      <trkpt lat="42.785323" lon="-0.11201">
        <time>2023-03-21T09:03:40+00:00</time>
        <ele>2651.0</ele>
      </trkpt>
      <trkpt lat="42.785342" lon="-0.111938">
        <time>2023-03-21T09:03:51+00:00</time>
        <ele>2653.0</ele>
      </trkpt>
      <trkpt lat="42.785319" lon="-0.111936">
        <time>2023-03-21T09:04:01+00:00</time>
        <ele>2654.0</ele>
      </trkpt>
      <trkpt lat="42.785243" lon="-0.111985">
        <time>2023-03-21T09:04:17+00:00</time>
        <ele>2655.0</ele>
      </trkpt>
      <trkpt lat="42.785182" lon="-0.112016">
        <time>2023-03-21T09:04:33+00:00</time>
        <ele>2657.0</ele>
      </trkpt>
      <trkpt lat="42.785115" lon="-0.112061">
        <time>2023-03-21T09:04:50+00:00</time>
        <ele>2658.0</ele>
      </trkpt>
      <trkpt lat="42.785061" lon="-0.112102">
        <time>2023-03-21T09:05:04+00:00</time>
        <ele>2658.0</ele>
      </trkpt>
      <trkpt lat="42.784975" lon="-0.112104">
        <time>2023-03-21T09:05:19+00:00</time>
        <ele>2663.0</ele>
      </trkpt>
      <trkpt lat="42.784936" lon="-0.11213">
        <time>2023-03-21T09:05:32+00:00</time>
        <ele>2664.0</ele>
      </trkpt>
      <trkpt lat="42.784879" lon="-0.11216">
        <time>2023-03-21T09:05:45+00:00</time>
        <ele>2666.0</ele>
      </trkpt>
      <trkpt lat="42.784809" lon="-0.11218">
        <time>2023-03-21T09:06:00+00:00</time>
        <ele>2668.0</ele>
      </trkpt>
      <trkpt lat="42.784747" lon="-0.112216">
        <time>2023-03-21T09:06:16+00:00</time>
        <ele>2669.0</ele>
      </trkpt>
      <trkpt lat="42.784722" lon="-0.112226">
        <time>2023-03-21T09:06:30+00:00</time>
        <ele>2669.0</ele>
      </trkpt>
      <trkpt lat="42.784747" lon="-0.112127">
        <time>2023-03-21T09:06:45+00:00</time>
        <ele>2672.0</ele>
      </trkpt>
      <trkpt lat="42.784773" lon="-0.112032">
        <time>2023-03-21T09:06:59+00:00</time>
        <ele>2675.0</ele>
      </trkpt>
      <trkpt lat="42.784788" lon="-0.111981">
        <time>2023-03-21T09:07:13+00:00</time>
        <ele>2676.0</ele>
      </trkpt>
      <trkpt lat="42.784725" lon="-0.111985">
        <time>2023-03-21T09:07:25+00:00</time>
        <ele>2679.0</ele>
      </trkpt>
      <trkpt lat="42.784679" lon="-0.111994">
        <time>2023-03-21T09:07:37+00:00</time>
        <ele>2680.0</ele>
      </trkpt>
      <trkpt lat="42.784617" lon="-0.11203">
        <time>2023-03-21T09:07:52+00:00</time>
        <ele>2680.0</ele>
      </trkpt>
      <trkpt lat="42.784531" lon="-0.112052">
        <time>2023-03-21T09:08:07+00:00</time>
        <ele>2681.0</ele>
      </trkpt>
      <trkpt lat="42.784479" lon="-0.112051">
        <time>2023-03-21T09:08:22+00:00</time>
        <ele>2682.0</ele>
      </trkpt>
      <trkpt lat="42.784448" lon="-0.112024">
        <time>2023-03-21T09:08:35+00:00</time>
        <ele>2684.0</ele>
      </trkpt>
      <trkpt lat="42.784488" lon="-0.111952">
        <time>2023-03-21T09:08:50+00:00</time>
        <ele>2686.0</ele>
      </trkpt>
      <trkpt lat="42.784497" lon="-0.111862">
        <time>2023-03-21T09:09:01+00:00</time>
        <ele>2690.0</ele>
      </trkpt>
      <trkpt lat="42.784525" lon="-0.111802">
        <time>2023-03-21T09:09:14+00:00</time>
        <ele>2692.0</ele>
      </trkpt>
      <trkpt lat="42.784557" lon="-0.111761">
        <time>2023-03-21T09:09:34+00:00</time>
        <ele>2693.0</ele>
      </trkpt>
      <trkpt lat="42.784585" lon="-0.111664">
        <time>2023-03-21T09:09:50+00:00</time>
        <ele>2696.0</ele>
      </trkpt>
      <trkpt lat="42.784615" lon="-0.111591">
        <time>2023-03-21T09:10:04+00:00</time>
        <ele>2699.0</ele>
      </trkpt>
      <trkpt lat="42.784634" lon="-0.111521">
        <time>2023-03-21T09:10:17+00:00</time>
        <ele>2701.0</ele>
      </trkpt>
      <trkpt lat="42.784613" lon="-0.111508">
        <time>2023-03-21T09:10:27+00:00</time>
        <ele>2702.0</ele>
      </trkpt>
      <trkpt lat="42.784551" lon="-0.111517">
        <time>2023-03-21T09:10:42+00:00</time>
        <ele>2704.0</ele>
      </trkpt>
      <trkpt lat="42.784484" lon="-0.111523">
        <time>2023-03-21T09:10:58+00:00</time>
        <ele>2706.0</ele>
      </trkpt>
      <trkpt lat="42.784425" lon="-0.111532">
        <time>2023-03-21T09:11:12+00:00</time>
        <ele>2708.0</ele>
      </trkpt>
      <trkpt lat="42.784379" lon="-0.111538">
        <time>2023-03-21T09:11:25+00:00</time>
        <ele>2709.0</ele>
      </trkpt>
      <trkpt lat="42.784322" lon="-0.111536">
        <time>2023-03-21T09:11:39+00:00</time>
        <ele>2710.0</ele>
      </trkpt>
      <trkpt lat="42.784265" lon="-0.111535">
        <time>2023-03-21T09:11:54+00:00</time>
        <ele>2712.0</ele>
      </trkpt>
      <trkpt lat="42.784208" lon="-0.111536">
        <time>2023-03-21T09:12:07+00:00</time>
        <ele>2713.0</ele>
      </trkpt>
      <trkpt lat="42.784147" lon="-0.111524">
        <time>2023-03-21T09:12:22+00:00</time>
        <ele>2715.0</ele>
      </trkpt>
      <trkpt lat="42.784112" lon="-0.111493">
        <time>2023-03-21T09:12:35+00:00</time>
        <ele>2718.0</ele>
      </trkpt>
      <trkpt lat="42.78416" lon="-0.111409">
        <time>2023-03-21T09:12:50+00:00</time>
        <ele>2721.0</ele>
      </trkpt>
      <trkpt lat="42.784206" lon="-0.111348">
        <time>2023-03-21T09:13:03+00:00</time>
        <ele>2722.0</ele>
      </trkpt>
      <trkpt lat="42.784232" lon="-0.111286">
        <time>2023-03-21T09:13:15+00:00</time>
        <ele>2725.0</ele>
      </trkpt>
      <trkpt lat="42.784279" lon="-0.111229">
        <time>2023-03-21T09:13:28+00:00</time>
        <ele>2726.0</ele>
      </trkpt>
      <trkpt lat="42.784312" lon="-0.111173">
        <time>2023-03-21T09:13:42+00:00</time>
        <ele>2728.0</ele>
      </trkpt>
      <trkpt lat="42.784323" lon="-0.111167">
        <time>2023-03-21T09:13:52+00:00</time>
        <ele>2728.0</ele>
      </trkpt>
      <trkpt lat="42.784272" lon="-0.111196">
        <time>2023-03-21T09:14:03+00:00</time>
        <ele>2728.0</ele>
      </trkpt>
      <trkpt lat="42.784221" lon="-0.111192">
        <time>2023-03-21T09:14:18+00:00</time>
        <ele>2730.0</ele>
      </trkpt>
      <trkpt lat="42.784142" lon="-0.111209">
        <time>2023-03-21T09:14:33+00:00</time>
        <ele>2731.0</ele>
      </trkpt>
      <trkpt lat="42.784083" lon="-0.11121">
        <time>2023-03-21T09:14:49+00:00</time>
        <ele>2733.0</ele>
      </trkpt>
      <trkpt lat="42.784053" lon="-0.11122">
        <time>2023-03-21T09:15:03+00:00</time>
        <ele>2734.0</ele>
      </trkpt>
      <trkpt lat="42.784089" lon="-0.111126">
        <time>2023-03-21T09:15:18+00:00</time>
        <ele>2737.0</ele>
      </trkpt>
      <trkpt lat="42.784133" lon="-0.111044">
        <time>2023-03-21T09:15:33+00:00</time>
        <ele>2740.0</ele>
      </trkpt>
      <trkpt lat="42.784186" lon="-0.110982">
        <time>2023-03-21T09:15:48+00:00</time>
        <ele>2742.0</ele>
      </trkpt>
      <trkpt lat="42.784199" lon="-0.110955">
        <time>2023-03-21T09:16:02+00:00</time>
        <ele>2744.0</ele>
      </trkpt>
      <trkpt lat="42.784197" lon="-0.110955">
        <time>2023-03-21T09:16:14+00:00</time>
        <ele>2744.0</ele>
      </trkpt>
      <trkpt lat="42.784184" lon="-0.110963">
        <time>2023-03-21T09:16:21+00:00</time>
        <ele>2743.0</ele>
      </trkpt>
      <trkpt lat="42.784185" lon="-0.110956">
        <time>2023-03-21T09:16:38+00:00</time>
        <ele>2744.0</ele>
      </trkpt>
      <trkpt lat="42.78418" lon="-0.110938">
        <time>2023-03-21T09:16:47+00:00</time>
        <ele>2745.0</ele>
      </trkpt>
      <trkpt lat="42.78418" lon="-0.110936">
        <time>2023-03-21T09:16:49+00:00</time>
        <ele>2745.0</ele>
      </trkpt>
      <trkpt lat="42.784179" lon="-0.110935">
        <time>2023-03-21T09:16:50+00:00</time>
        <ele>2746.0</ele>
      </trkpt>
      <trkpt lat="42.784173" lon="-0.110939">
        <time>2023-03-21T09:17:00+00:00</time>
        <ele>2745.0</ele>
      </trkpt>
      <trkpt lat="42.784172" lon="-0.110942">
        <time>2023-03-21T09:17:01+00:00</time>
        <ele>2745.0</ele>
      </trkpt>
      <trkpt lat="42.784171" lon="-0.110942">
        <time>2023-03-21T09:17:02+00:00</time>
        <ele>2745.0</ele>
      </trkpt>
      <trkpt lat="42.784173" lon="-0.11094">
        <time>2023-03-21T09:17:04+00:00</time>
        <ele>2745.0</ele>
      </trkpt>
      <trkpt lat="42.784183" lon="-0.110926">
        <time>2023-03-21T09:17:09+00:00</time>
        <ele>2746.0</ele>
      </trkpt>
      <trkpt lat="42.784185" lon="-0.110926">
        <time>2023-03-21T09:17:10+00:00</time>
        <ele>2746.0</ele>
      </trkpt>
      <trkpt lat="42.784192" lon="-0.110922">
        <time>2023-03-21T09:17:14+00:00</time>
        <ele>2746.0</ele>
      </trkpt>
      <trkpt lat="42.784193" lon="-0.110923">
        <time>2023-03-21T09:17:15+00:00</time>
        <ele>2746.0</ele>
      </trkpt>
      <trkpt lat="42.784195" lon="-0.110925">
        <time>2023-03-21T09:17:17+00:00</time>
        <ele>2746.0</ele>
      </trkpt>
      <trkpt lat="42.784194" lon="-0.110929">
        <time>2023-03-21T09:17:18+00:00</time>
        <ele>2746.0</ele>
      </trkpt>
      <trkpt lat="42.784182" lon="-0.110946">
        <time>2023-03-21T09:17:22+00:00</time>
        <ele>2745.0</ele>
      </trkpt>
      <trkpt lat="42.784213" lon="-0.110922">
        <time>2023-03-21T09:17:35+00:00</time>
        <ele>2745.0</ele>
      </trkpt>
      <trkpt lat="42.784217" lon="-0.110916">
        <time>2023-03-21T09:17:36+00:00</time>
        <ele>2746.0</ele>
      </trkpt>
      <trkpt lat="42.784223" lon="-0.110911">
        <time>2023-03-21T09:17:37+00:00</time>
        <ele>2746.0</ele>
      </trkpt>
      <trkpt lat="42.784229" lon="-0.110908">
        <time>2023-03-21T09:17:39+00:00</time>
        <ele>2746.0</ele>
      </trkpt>
      <trkpt lat="42.784234" lon="-0.110906">
        <time>2023-03-21T09:17:44+00:00</time>
        <ele>2746.0</ele>
      </trkpt>
      <trkpt lat="42.784233" lon="-0.110904">
        <time>2023-03-21T09:17:46+00:00</time>
        <ele>2746.0</ele>
      </trkpt>
      <trkpt lat="42.784232" lon="-0.110906">
        <time>2023-03-21T09:17:47+00:00</time>
        <ele>2746.0</ele>
      </trkpt>
      <trkpt lat="42.78422" lon="-0.110905">
        <time>2023-03-21T09:17:51+00:00</time>
        <ele>2746.0</ele>
      </trkpt>
      <trkpt lat="42.784219" lon="-0.110904">
        <time>2023-03-21T09:17:52+00:00</time>
        <ele>2747.0</ele>
      </trkpt>
      <trkpt lat="42.784217" lon="-0.110904">
        <time>2023-03-21T09:17:53+00:00</time>
        <ele>2747.0</ele>
      </trkpt>
      <trkpt lat="42.784207" lon="-0.110895">
        <time>2023-03-21T09:18:00+00:00</time>
        <ele>2748.0</ele>
      </trkpt>
      <trkpt lat="42.784205" lon="-0.110893">
        <time>2023-03-21T09:18:01+00:00</time>
        <ele>2748.0</ele>
      </trkpt>
      <trkpt lat="42.784199" lon="-0.110889">
        <time>2023-03-21T09:18:04+00:00</time>
        <ele>2748.0</ele>
      </trkpt>
      <trkpt lat="42.784198" lon="-0.110891">
        <time>2023-03-21T09:18:05+00:00</time>
        <ele>2748.0</ele>
      </trkpt>
      <trkpt lat="42.784198" lon="-0.110892">
        <time>2023-03-21T09:18:06+00:00</time>
        <ele>2748.0</ele>
      </trkpt>
      <trkpt lat="42.784194" lon="-0.110894">
        <time>2023-03-21T09:18:08+00:00</time>
        <ele>2748.0</ele>
      </trkpt>
      <trkpt lat="42.784191" lon="-0.110898">
        <time>2023-03-21T09:18:14+00:00</time>
        <ele>2748.0</ele>
      </trkpt>
      <trkpt lat="42.784193" lon="-0.110894">
        <time>2023-03-21T09:18:16+00:00</time>
        <ele>2748.0</ele>
      </trkpt>
      <trkpt lat="42.784195" lon="-0.110888">
        <time>2023-03-21T09:18:18+00:00</time>
        <ele>2748.0</ele>
      </trkpt>
      <trkpt lat="42.784191" lon="-0.110876">
        <time>2023-03-21T09:18:22+00:00</time>
        <ele>2749.0</ele>
      </trkpt>
      <trkpt lat="42.78417" lon="-0.110856">
        <time>2023-03-21T09:18:57+00:00</time>
        <ele>2751.0</ele>
      </trkpt>
      <trkpt lat="42.784168" lon="-0.110878">
        <time>2023-03-21T09:19:08+00:00</time>
        <ele>2750.0</ele>
      </trkpt>
      <trkpt lat="42.784182" lon="-0.110906">
        <time>2023-03-21T09:19:11+00:00</time>
        <ele>2747.0</ele>
      </trkpt>
      <trkpt lat="42.784184" lon="-0.110917">
        <time>2023-03-21T09:19:12+00:00</time>
        <ele>2747.0</ele>
      </trkpt>
      <trkpt lat="42.784186" lon="-0.110925">
        <time>2023-03-21T09:19:19+00:00</time>
        <ele>2746.0</ele>
      </trkpt>
      <trkpt lat="42.784184" lon="-0.110923">
        <time>2023-03-21T09:19:20+00:00</time>
        <ele>2746.0</ele>
      </trkpt>
      <trkpt lat="42.784176" lon="-0.110925">
        <time>2023-03-21T09:19:23+00:00</time>
        <ele>2746.0</ele>
      </trkpt>
      <trkpt lat="42.784164" lon="-0.110908">
        <time>2023-03-21T09:19:36+00:00</time>
        <ele>2748.0</ele>
      </trkpt>
      <trkpt lat="42.784171" lon="-0.110907">
        <time>2023-03-21T09:19:38+00:00</time>
        <ele>2748.0</ele>
      </trkpt>
      <trkpt lat="42.784174" lon="-0.110908">
        <time>2023-03-21T09:19:39+00:00</time>
        <ele>2748.0</ele>
      </trkpt>
      <trkpt lat="42.78419" lon="-0.110912">
        <time>2023-03-21T09:19:42+00:00</time>
        <ele>2747.0</ele>
      </trkpt>
      <trkpt lat="42.784186" lon="-0.11093">
        <time>2023-03-21T09:19:53+00:00</time>
        <ele>2746.0</ele>
      </trkpt>
      <trkpt lat="42.784186" lon="-0.110933">
        <time>2023-03-21T09:19:54+00:00</time>
        <ele>2746.0</ele>
      </trkpt>
      <trkpt lat="42.7842" lon="-0.110967">
        <time>2023-03-21T09:20:10+00:00</time>
        <ele>2743.0</ele>
      </trkpt>
      <trkpt lat="42.784195" lon="-0.110984">
        <time>2023-03-21T09:20:51+00:00</time>
        <ele>2742.0</ele>
      </trkpt>
      <trkpt lat="42.784197" lon="-0.110967">
        <time>2023-03-21T09:21:41+00:00</time>
        <ele>2743.0</ele>
      </trkpt>
      <trkpt lat="42.784196" lon="-0.110967">
        <time>2023-03-21T09:21:42+00:00</time>
        <ele>2743.0</ele>
      </trkpt>
      <trkpt lat="42.784195" lon="-0.110968">
        <time>2023-03-21T09:21:43+00:00</time>
        <ele>2743.0</ele>
      </trkpt>
      <trkpt lat="42.784159" lon="-0.110998">
        <time>2023-03-21T09:22:22+00:00</time>
        <ele>2742.0</ele>
      </trkpt>
      <trkpt lat="42.784203" lon="-0.110997">
        <time>2023-03-21T09:23:02+00:00</time>
        <ele>2741.0</ele>
      </trkpt>
      <trkpt lat="42.784181" lon="-0.110998">
        <time>2023-03-21T09:23:35+00:00</time>
        <ele>2741.0</ele>
      </trkpt>
      <trkpt lat="42.784177" lon="-0.111001">
        <time>2023-03-21T09:23:39+00:00</time>
        <ele>2741.0</ele>
      </trkpt>
      <trkpt lat="42.784176" lon="-0.111">
        <time>2023-03-21T09:23:40+00:00</time>
        <ele>2741.0</ele>
      </trkpt>
      <trkpt lat="42.78418" lon="-0.110996">
        <time>2023-03-21T09:23:42+00:00</time>
        <ele>2741.0</ele>
      </trkpt>
      <trkpt lat="42.784183" lon="-0.11099">
        <time>2023-03-21T09:23:43+00:00</time>
        <ele>2742.0</ele>
      </trkpt>
      <trkpt lat="42.78418" lon="-0.110987">
        <time>2023-03-21T09:23:48+00:00</time>
        <ele>2742.0</ele>
      </trkpt>
      <trkpt lat="42.784181" lon="-0.110987">
        <time>2023-03-21T09:23:49+00:00</time>
        <ele>2742.0</ele>
      </trkpt>
      <trkpt lat="42.784183" lon="-0.11099">
        <time>2023-03-21T09:23:52+00:00</time>
        <ele>2742.0</ele>
      </trkpt>
      <trkpt lat="42.784164" lon="-0.110999">
        <time>2023-03-21T09:24:21+00:00</time>
        <ele>2742.0</ele>
      </trkpt>
      <trkpt lat="42.784158" lon="-0.111001">
        <time>2023-03-21T09:24:35+00:00</time>
        <ele>2742.0</ele>
      </trkpt>
      <trkpt lat="42.784157" lon="-0.111002">
        <time>2023-03-21T09:24:36+00:00</time>
        <ele>2742.0</ele>
      </trkpt>
      <trkpt lat="42.784158" lon="-0.110997">
        <time>2023-03-21T09:24:38+00:00</time>
        <ele>2742.0</ele>
      </trkpt>
      <trkpt lat="42.784166" lon="-0.110982">
        <time>2023-03-21T09:25:07+00:00</time>
        <ele>2743.0</ele>
      </trkpt>
      <trkpt lat="42.784195" lon="-0.110978">
        <time>2023-03-21T09:25:25+00:00</time>
        <ele>2742.0</ele>
      </trkpt>
      <trkpt lat="42.784191" lon="-0.110979">
        <time>2023-03-21T09:25:26+00:00</time>
        <ele>2742.0</ele>
      </trkpt>
      <trkpt lat="42.784189" lon="-0.110981">
        <time>2023-03-21T09:25:27+00:00</time>
        <ele>2742.0</ele>
      </trkpt>
      <trkpt lat="42.78419" lon="-0.110987">
        <time>2023-03-21T09:25:31+00:00</time>
        <ele>2742.0</ele>
      </trkpt>
      <trkpt lat="42.784188" lon="-0.110988">
        <time>2023-03-21T09:25:32+00:00</time>
        <ele>2742.0</ele>
      </trkpt>
      <trkpt lat="42.784189" lon="-0.110986">
        <time>2023-03-21T09:25:33+00:00</time>
        <ele>2742.0</ele>
      </trkpt>
      <trkpt lat="42.784188" lon="-0.110979">
        <time>2023-03-21T09:25:36+00:00</time>
        <ele>2742.0</ele>
      </trkpt>
      <trkpt lat="42.784177" lon="-0.110977">
        <time>2023-03-21T09:25:46+00:00</time>
        <ele>2743.0</ele>
      </trkpt>
      <trkpt lat="42.784176" lon="-0.110979">
        <time>2023-03-21T09:25:47+00:00</time>
        <ele>2743.0</ele>
      </trkpt>
      <trkpt lat="42.784175" lon="-0.11098">
        <time>2023-03-21T09:25:48+00:00</time>
        <ele>2743.0</ele>
      </trkpt>
      <trkpt lat="42.784174" lon="-0.11098">
        <time>2023-03-21T09:25:49+00:00</time>
        <ele>2743.0</ele>
      </trkpt>
      <trkpt lat="42.784174" lon="-0.110979">
        <time>2023-03-21T09:25:50+00:00</time>
        <ele>2743.0</ele>
      </trkpt>
      <trkpt lat="42.78417" lon="-0.110981">
        <time>2023-03-21T09:25:52+00:00</time>
        <ele>2743.0</ele>
      </trkpt>
      <trkpt lat="42.784168" lon="-0.110986">
        <time>2023-03-21T09:25:53+00:00</time>
        <ele>2742.0</ele>
      </trkpt>
      <trkpt lat="42.784166" lon="-0.110986">
        <time>2023-03-21T09:25:55+00:00</time>
        <ele>2742.0</ele>
      </trkpt>
      <trkpt lat="42.784167" lon="-0.110983">
        <time>2023-03-21T09:25:56+00:00</time>
        <ele>2743.0</ele>
      </trkpt>
      <trkpt lat="42.784166" lon="-0.110985">
        <time>2023-03-21T09:26:00+00:00</time>
        <ele>2743.0</ele>
      </trkpt>
      <trkpt lat="42.784167" lon="-0.110982">
        <time>2023-03-21T09:26:01+00:00</time>
        <ele>2743.0</ele>
      </trkpt>
      <trkpt lat="42.784176" lon="-0.110968">
        <time>2023-03-21T09:26:08+00:00</time>
        <ele>2743.0</ele>
      </trkpt>
      <trkpt lat="42.78417" lon="-0.111005">
        <time>2023-03-21T09:26:20+00:00</time>
        <ele>2741.0</ele>
      </trkpt>
      <trkpt lat="42.784181" lon="-0.111013">
        <time>2023-03-21T09:26:38+00:00</time>
        <ele>2740.0</ele>
      </trkpt>
      <trkpt lat="42.784153" lon="-0.110992">
        <time>2023-03-21T09:26:49+00:00</time>
        <ele>2742.0</ele>
      </trkpt>
      <trkpt lat="42.784141" lon="-0.110953">
        <time>2023-03-21T09:27:00+00:00</time>
        <ele>2745.0</ele>
      </trkpt>
      <trkpt lat="42.784123" lon="-0.110948">
        <time>2023-03-21T09:27:14+00:00</time>
        <ele>2746.0</ele>
      </trkpt>
      <trkpt lat="42.784095" lon="-0.110924">
        <time>2023-03-21T09:27:27+00:00</time>
        <ele>2749.0</ele>
      </trkpt>
      <trkpt lat="42.784096" lon="-0.110869">
        <time>2023-03-21T09:27:40+00:00</time>
        <ele>2752.0</ele>
      </trkpt>
      <trkpt lat="42.784083" lon="-0.11084">
        <time>2023-03-21T09:27:55+00:00</time>
        <ele>2755.0</ele>
      </trkpt>
      <trkpt lat="42.784067" lon="-0.110812">
        <time>2023-03-21T09:28:08+00:00</time>
        <ele>2757.0</ele>
      </trkpt>
      <trkpt lat="42.784053" lon="-0.110792">
        <time>2023-03-21T09:28:20+00:00</time>
        <ele>2759.0</ele>
      </trkpt>
      <trkpt lat="42.784032" lon="-0.110771">
        <time>2023-03-21T09:28:34+00:00</time>
        <ele>2761.0</ele>
      </trkpt>
      <trkpt lat="42.784018" lon="-0.11071">
        <time>2023-03-21T09:28:47+00:00</time>
        <ele>2766.0</ele>
      </trkpt>
      <trkpt lat="42.78401" lon="-0.110674">
        <time>2023-03-21T09:28:59+00:00</time>
        <ele>2769.0</ele>
      </trkpt>
      <trkpt lat="42.784023" lon="-0.110635">
        <time>2023-03-21T09:29:10+00:00</time>
        <ele>2771.0</ele>
      </trkpt>
      <trkpt lat="42.784028" lon="-0.110589">
        <time>2023-03-21T09:29:22+00:00</time>
        <ele>2774.0</ele>
      </trkpt>
      <trkpt lat="42.784037" lon="-0.110551">
        <time>2023-03-21T09:29:34+00:00</time>
        <ele>2777.0</ele>
      </trkpt>
      <trkpt lat="42.78404" lon="-0.110506">
        <time>2023-03-21T09:29:46+00:00</time>
        <ele>2780.0</ele>
      </trkpt>
      <trkpt lat="42.784038" lon="-0.110471">
        <time>2023-03-21T09:29:58+00:00</time>
        <ele>2783.0</ele>
      </trkpt>
      <trkpt lat="42.784048" lon="-0.11043">
        <time>2023-03-21T09:30:09+00:00</time>
        <ele>2785.0</ele>
      </trkpt>
      <trkpt lat="42.78405" lon="-0.110406">
        <time>2023-03-21T09:30:20+00:00</time>
        <ele>2787.0</ele>
      </trkpt>
      <trkpt lat="42.784078" lon="-0.110401">
        <time>2023-03-21T09:30:33+00:00</time>
        <ele>2787.0</ele>
      </trkpt>
      <trkpt lat="42.784044" lon="-0.110376">
        <time>2023-03-21T09:30:53+00:00</time>
        <ele>2790.0</ele>
      </trkpt>
      <trkpt lat="42.78401" lon="-0.110345">
        <time>2023-03-21T09:31:09+00:00</time>
        <ele>2793.0</ele>
      </trkpt>
      <trkpt lat="42.78401" lon="-0.110331">
        <time>2023-03-21T09:31:25+00:00</time>
        <ele>2794.0</ele>
      </trkpt>
      <trkpt lat="42.784027" lon="-0.110335">
        <time>2023-03-21T09:31:49+00:00</time>
        <ele>2793.0</ele>
      </trkpt>
      <trkpt lat="42.783981" lon="-0.110321">
        <time>2023-03-21T09:32:03+00:00</time>
        <ele>2795.0</ele>
      </trkpt>
      <trkpt lat="42.783943" lon="-0.110306">
        <time>2023-03-21T09:32:17+00:00</time>
        <ele>2797.0</ele>
      </trkpt>
      <trkpt lat="42.783917" lon="-0.1103">
        <time>2023-03-21T09:32:35+00:00</time>
        <ele>2798.0</ele>
      </trkpt>
      <trkpt lat="42.783916" lon="-0.110259">
        <time>2023-03-21T09:32:46+00:00</time>
        <ele>2801.0</ele>
      </trkpt>
      <trkpt lat="42.783929" lon="-0.11021">
        <time>2023-03-21T09:32:58+00:00</time>
        <ele>2804.0</ele>
      </trkpt>
      <trkpt lat="42.783949" lon="-0.110167">
        <time>2023-03-21T09:33:10+00:00</time>
        <ele>2807.0</ele>
      </trkpt>
      <trkpt lat="42.783963" lon="-0.110132">
        <time>2023-03-21T09:33:21+00:00</time>
        <ele>2809.0</ele>
      </trkpt>
      <trkpt lat="42.783971" lon="-0.110121">
        <time>2023-03-21T09:33:33+00:00</time>
        <ele>2810.0</ele>
      </trkpt>
      <trkpt lat="42.78395" lon="-0.110107">
        <time>2023-03-21T09:33:47+00:00</time>
        <ele>2812.0</ele>
      </trkpt>
      <trkpt lat="42.783917" lon="-0.110105">
        <time>2023-03-21T09:33:58+00:00</time>
        <ele>2812.0</ele>
      </trkpt>
      <trkpt lat="42.783906" lon="-0.110083">
        <time>2023-03-21T09:34:09+00:00</time>
        <ele>2814.0</ele>
      </trkpt>
      <trkpt lat="42.783887" lon="-0.110064">
        <time>2023-03-21T09:34:20+00:00</time>
        <ele>2816.0</ele>
      </trkpt>
      <trkpt lat="42.783878" lon="-0.110048">
        <time>2023-03-21T09:34:30+00:00</time>
        <ele>2817.0</ele>
      </trkpt>
      <trkpt lat="42.783861" lon="-0.110045">
        <time>2023-03-21T09:34:41+00:00</time>
        <ele>2818.0</ele>
      </trkpt>
      <trkpt lat="42.783856" lon="-0.110029">
        <time>2023-03-21T09:34:55+00:00</time>
        <ele>2819.0</ele>
      </trkpt>
      <trkpt lat="42.783886" lon="-0.110035">
        <time>2023-03-21T09:35:14+00:00</time>
        <ele>2818.0</ele>
      </trkpt>
      <trkpt lat="42.783866" lon="-0.110016">
        <time>2023-03-21T09:35:29+00:00</time>
        <ele>2820.0</ele>
      </trkpt>
      <trkpt lat="42.783851" lon="-0.109966">
        <time>2023-03-21T09:35:40+00:00</time>
        <ele>2824.0</ele>
      </trkpt>
      <trkpt lat="42.78383" lon="-0.109943">
        <time>2023-03-21T09:35:51+00:00</time>
        <ele>2826.0</ele>
      </trkpt>
      <trkpt lat="42.783814" lon="-0.109932">
        <time>2023-03-21T09:36:03+00:00</time>
        <ele>2828.0</ele>
      </trkpt>
      <trkpt lat="42.783808" lon="-0.109913">
        <time>2023-03-21T09:36:13+00:00</time>
        <ele>2829.0</ele>
      </trkpt>
      <trkpt lat="42.783812" lon="-0.109904">
        <time>2023-03-21T09:36:23+00:00</time>
        <ele>2830.0</ele>
      </trkpt>
      <trkpt lat="42.783782" lon="-0.109907">
        <time>2023-03-21T09:36:41+00:00</time>
        <ele>2831.0</ele>
      </trkpt>
      <trkpt lat="42.78379" lon="-0.109891">
        <time>2023-03-21T09:36:52+00:00</time>
        <ele>2832.0</ele>
      </trkpt>
      <trkpt lat="42.783803" lon="-0.109866">
        <time>2023-03-21T09:37:03+00:00</time>
        <ele>2834.0</ele>
      </trkpt>
      <trkpt lat="42.783794" lon="-0.109851">
        <time>2023-03-21T09:37:14+00:00</time>
        <ele>2835.0</ele>
      </trkpt>
      <trkpt lat="42.783766" lon="-0.109836">
        <time>2023-03-21T09:37:26+00:00</time>
        <ele>2837.0</ele>
      </trkpt>
      <trkpt lat="42.783748" lon="-0.109829">
        <time>2023-03-21T09:37:37+00:00</time>
        <ele>2838.0</ele>
      </trkpt>
      <trkpt lat="42.783739" lon="-0.109806">
        <time>2023-03-21T09:37:54+00:00</time>
        <ele>2840.0</ele>
      </trkpt>
      <trkpt lat="42.783734" lon="-0.109798">
        <time>2023-03-21T09:38:06+00:00</time>
        <ele>2841.0</ele>
      </trkpt>
      <trkpt lat="42.78375" lon="-0.109764">
        <time>2023-03-21T09:38:33+00:00</time>
        <ele>2844.0</ele>
      </trkpt>
      <trkpt lat="42.783697" lon="-0.109806">
        <time>2023-03-21T09:39:01+00:00</time>
        <ele>2841.0</ele>
      </trkpt>
      <trkpt lat="42.783663" lon="-0.109837">
        <time>2023-03-21T09:39:28+00:00</time>
        <ele>2840.0</ele>
      </trkpt>
      <trkpt lat="42.783668" lon="-0.109804">
        <time>2023-03-21T09:39:41+00:00</time>
        <ele>2842.0</ele>
      </trkpt>
      <trkpt lat="42.783691" lon="-0.109757">
        <time>2023-03-21T09:39:52+00:00</time>
        <ele>2845.0</ele>
      </trkpt>
      <trkpt lat="42.783704" lon="-0.109744">
        <time>2023-03-21T09:40:04+00:00</time>
        <ele>2846.0</ele>
      </trkpt>
      <trkpt lat="42.783704" lon="-0.109719">
        <time>2023-03-21T09:40:16+00:00</time>
        <ele>2848.0</ele>
      </trkpt>
      <trkpt lat="42.783691" lon="-0.109702">
        <time>2023-03-21T09:40:26+00:00</time>
        <ele>2850.0</ele>
      </trkpt>
      <trkpt lat="42.783668" lon="-0.109686">
        <time>2023-03-21T09:40:38+00:00</time>
        <ele>2851.0</ele>
      </trkpt>
      <trkpt lat="42.783626" lon="-0.109666">
        <time>2023-03-21T09:40:50+00:00</time>
        <ele>2854.0</ele>
      </trkpt>
      <trkpt lat="42.783626" lon="-0.109623">
        <time>2023-03-21T09:41:05+00:00</time>
        <ele>2857.0</ele>
      </trkpt>
      <trkpt lat="42.783634" lon="-0.109594">
        <time>2023-03-21T09:41:15+00:00</time>
        <ele>2859.0</ele>
      </trkpt>
      <trkpt lat="42.783645" lon="-0.109593">
        <time>2023-03-21T09:41:26+00:00</time>
        <ele>2859.0</ele>
      </trkpt>
      <trkpt lat="42.78363" lon="-0.109569">
        <time>2023-03-21T09:41:38+00:00</time>
        <ele>2861.0</ele>
      </trkpt>
      <trkpt lat="42.783605" lon="-0.109554">
        <time>2023-03-21T09:41:52+00:00</time>
        <ele>2863.0</ele>
      </trkpt>
      <trkpt lat="42.783599" lon="-0.109546">
        <time>2023-03-21T09:42:04+00:00</time>
        <ele>2864.0</ele>
      </trkpt>
      <trkpt lat="42.783579" lon="-0.109512">
        <time>2023-03-21T09:42:16+00:00</time>
        <ele>2867.0</ele>
      </trkpt>
      <trkpt lat="42.783557" lon="-0.109493">
        <time>2023-03-21T09:42:27+00:00</time>
        <ele>2869.0</ele>
      </trkpt>
      <trkpt lat="42.783557" lon="-0.109462">
        <time>2023-03-21T09:42:40+00:00</time>
        <ele>2871.0</ele>
      </trkpt>
      <trkpt lat="42.783569" lon="-0.109423">
        <time>2023-03-21T09:42:51+00:00</time>
        <ele>2874.0</ele>
      </trkpt>
      <trkpt lat="42.783574" lon="-0.109401">
        <time>2023-03-21T09:43:01+00:00</time>
        <ele>2875.0</ele>
      </trkpt>
      <trkpt lat="42.783563" lon="-0.109393">
        <time>2023-03-21T09:43:15+00:00</time>
        <ele>2876.0</ele>
      </trkpt>
      <trkpt lat="42.783581" lon="-0.109373">
        <time>2023-03-21T09:43:27+00:00</time>
        <ele>2877.0</ele>
      </trkpt>
      <trkpt lat="42.783578" lon="-0.109388">
        <time>2023-03-21T09:43:39+00:00</time>
        <ele>2876.0</ele>
      </trkpt>
      <trkpt lat="42.783539" lon="-0.109372">
        <time>2023-03-21T09:43:57+00:00</time>
        <ele>2878.0</ele>
      </trkpt>
      <trkpt lat="42.783584" lon="-0.109328">
        <time>2023-03-21T09:44:19+00:00</time>
        <ele>2881.0</ele>
      </trkpt>
      <trkpt lat="42.78357" lon="-0.109299">
        <time>2023-03-21T09:44:34+00:00</time>
        <ele>2883.0</ele>
      </trkpt>
      <trkpt lat="42.783522" lon="-0.109259">
        <time>2023-03-21T09:44:48+00:00</time>
        <ele>2886.0</ele>
      </trkpt>
      <trkpt lat="42.783494" lon="-0.109257">
        <time>2023-03-21T09:45:01+00:00</time>
        <ele>2886.0</ele>
      </trkpt>
      <trkpt lat="42.783481" lon="-0.109254">
        <time>2023-03-21T09:45:13+00:00</time>
        <ele>2886.0</ele>
      </trkpt>
      <trkpt lat="42.783466" lon="-0.109256">
        <time>2023-03-21T09:45:24+00:00</time>
        <ele>2886.0</ele>
      </trkpt>
      <trkpt lat="42.783459" lon="-0.10927">
        <time>2023-03-21T09:45:43+00:00</time>
        <ele>2885.0</ele>
      </trkpt>
      <trkpt lat="42.783457" lon="-0.109258">
        <time>2023-03-21T09:45:54+00:00</time>
        <ele>2886.0</ele>
      </trkpt>
      <trkpt lat="42.783452" lon="-0.109218">
        <time>2023-03-21T09:46:05+00:00</time>
        <ele>2889.0</ele>
      </trkpt>
      <trkpt lat="42.783455" lon="-0.109188">
        <time>2023-03-21T09:46:17+00:00</time>
        <ele>2891.0</ele>
      </trkpt>
      <trkpt lat="42.783452" lon="-0.10918">
        <time>2023-03-21T09:46:27+00:00</time>
        <ele>2892.0</ele>
      </trkpt>
      <trkpt lat="42.783426" lon="-0.109168">
        <time>2023-03-21T09:46:39+00:00</time>
        <ele>2893.0</ele>
      </trkpt>
      <trkpt lat="42.78339" lon="-0.109157">
        <time>2023-03-21T09:46:52+00:00</time>
        <ele>2894.0</ele>
      </trkpt>
      <trkpt lat="42.783378" lon="-0.109154">
        <time>2023-03-21T09:47:02+00:00</time>
        <ele>2895.0</ele>
      </trkpt>
      <trkpt lat="42.783373" lon="-0.109163">
        <time>2023-03-21T09:47:14+00:00</time>
        <ele>2894.0</ele>
      </trkpt>
      <trkpt lat="42.783368" lon="-0.109144">
        <time>2023-03-21T09:47:26+00:00</time>
        <ele>2895.0</ele>
      </trkpt>
      <trkpt lat="42.783364" lon="-0.109115">
        <time>2023-03-21T09:47:36+00:00</time>
        <ele>2897.0</ele>
      </trkpt>
      <trkpt lat="42.78337" lon="-0.109094">
        <time>2023-03-21T09:47:46+00:00</time>
        <ele>2897.0</ele>
      </trkpt>
      <trkpt lat="42.783336" lon="-0.109098">
        <time>2023-03-21T09:47:58+00:00</time>
        <ele>2898.0</ele>
      </trkpt>
      <trkpt lat="42.783346" lon="-0.109081">
        <time>2023-03-21T09:48:12+00:00</time>
        <ele>2898.0</ele>
      </trkpt>
      <trkpt lat="42.783341" lon="-0.109069">
        <time>2023-03-21T09:48:24+00:00</time>
        <ele>2898.0</ele>
      </trkpt>
      <trkpt lat="42.78332" lon="-0.109051">
        <time>2023-03-21T09:48:37+00:00</time>
        <ele>2899.0</ele>
      </trkpt>
      <trkpt lat="42.78332" lon="-0.109069">
        <time>2023-03-21T09:48:44+00:00</time>
        <ele>2898.0</ele>
      </trkpt>
      <trkpt lat="42.783294" lon="-0.109047">
        <time>2023-03-21T09:48:56+00:00</time>
        <ele>2899.0</ele>
      </trkpt>
      <trkpt lat="42.783301" lon="-0.109052">
        <time>2023-03-21T09:49:11+00:00</time>
        <ele>2899.0</ele>
      </trkpt>
      <trkpt lat="42.783296" lon="-0.10904">
        <time>2023-03-21T09:49:21+00:00</time>
        <ele>2899.0</ele>
      </trkpt>
      <trkpt lat="42.783276" lon="-0.109008">
        <time>2023-03-21T09:49:32+00:00</time>
        <ele>2899.0</ele>
      </trkpt>
      <trkpt lat="42.783258" lon="-0.108983">
        <time>2023-03-21T09:49:43+00:00</time>
        <ele>2900.0</ele>
      </trkpt>
      <trkpt lat="42.783255" lon="-0.108957">
        <time>2023-03-21T09:49:53+00:00</time>
        <ele>2900.0</ele>
      </trkpt>
      <trkpt lat="42.783266" lon="-0.108932">
        <time>2023-03-21T09:50:04+00:00</time>
        <ele>2900.0</ele>
      </trkpt>
      <trkpt lat="42.783262" lon="-0.108908">
        <time>2023-03-21T09:50:13+00:00</time>
        <ele>2900.0</ele>
      </trkpt>
      <trkpt lat="42.783264" lon="-0.108903">
        <time>2023-03-21T09:50:25+00:00</time>
        <ele>2900.0</ele>
      </trkpt>
      <trkpt lat="42.783231" lon="-0.108893">
        <time>2023-03-21T09:50:36+00:00</time>
        <ele>2901.0</ele>
      </trkpt>
      <trkpt lat="42.783208" lon="-0.108881">
        <time>2023-03-21T09:50:46+00:00</time>
        <ele>2902.0</ele>
      </trkpt>
      <trkpt lat="42.783186" lon="-0.108884">
        <time>2023-03-21T09:50:56+00:00</time>
        <ele>2903.0</ele>
      </trkpt>
      <trkpt lat="42.783171" lon="-0.108891">
        <time>2023-03-21T09:51:08+00:00</time>
        <ele>2903.0</ele>
      </trkpt>
      <trkpt lat="42.783163" lon="-0.10891">
        <time>2023-03-21T09:51:20+00:00</time>
        <ele>2903.0</ele>
      </trkpt>
      <trkpt lat="42.783169" lon="-0.108924">
        <time>2023-03-21T09:51:33+00:00</time>
        <ele>2903.0</ele>
      </trkpt>
      <trkpt lat="42.783188" lon="-0.108939">
        <time>2023-03-21T09:51:56+00:00</time>
        <ele>2902.0</ele>
      </trkpt>
      <trkpt lat="42.783164" lon="-0.108932">
        <time>2023-03-21T09:52:11+00:00</time>
        <ele>2903.0</ele>
      </trkpt>
      <trkpt lat="42.783139" lon="-0.108929">
        <time>2023-03-21T09:52:24+00:00</time>
        <ele>2904.0</ele>
      </trkpt>
      <trkpt lat="42.783124" lon="-0.10891">
        <time>2023-03-21T09:52:36+00:00</time>
        <ele>2904.0</ele>
      </trkpt>
      <trkpt lat="42.783105" lon="-0.108925">
        <time>2023-03-21T09:52:46+00:00</time>
        <ele>2904.0</ele>
      </trkpt>
      <trkpt lat="42.783089" lon="-0.108924">
        <time>2023-03-21T09:53:01+00:00</time>
        <ele>2905.0</ele>
      </trkpt>
      <trkpt lat="42.783068" lon="-0.108917">
        <time>2023-03-21T09:53:14+00:00</time>
        <ele>2906.0</ele>
      </trkpt>
      <trkpt lat="42.783049" lon="-0.108915">
        <time>2023-03-21T09:53:25+00:00</time>
        <ele>2907.0</ele>
      </trkpt>
      <trkpt lat="42.783047" lon="-0.1089">
        <time>2023-03-21T09:53:39+00:00</time>
        <ele>2907.0</ele>
      </trkpt>
      <trkpt lat="42.783031" lon="-0.108882">
        <time>2023-03-21T09:53:51+00:00</time>
        <ele>2908.0</ele>
      </trkpt>
      <trkpt lat="42.783019" lon="-0.108864">
        <time>2023-03-21T09:54:03+00:00</time>
        <ele>2908.0</ele>
      </trkpt>
      <trkpt lat="42.783028" lon="-0.108849">
        <time>2023-03-21T09:54:16+00:00</time>
        <ele>2908.0</ele>
      </trkpt>
      <trkpt lat="42.78301" lon="-0.108842">
        <time>2023-03-21T09:54:37+00:00</time>
        <ele>2908.0</ele>
      </trkpt>
      <trkpt lat="42.782983" lon="-0.108847">
        <time>2023-03-21T09:54:55+00:00</time>
        <ele>2910.0</ele>
      </trkpt>
      <trkpt lat="42.782942" lon="-0.108853">
        <time>2023-03-21T09:55:07+00:00</time>
        <ele>2912.0</ele>
      </trkpt>
      <trkpt lat="42.782915" lon="-0.108849">
        <time>2023-03-21T09:55:17+00:00</time>
        <ele>2913.0</ele>
      </trkpt>
      <trkpt lat="42.782888" lon="-0.108841">
        <time>2023-03-21T09:55:27+00:00</time>
        <ele>2914.0</ele>
      </trkpt>
      <trkpt lat="42.782867" lon="-0.108835">
        <time>2023-03-21T09:55:39+00:00</time>
        <ele>2915.0</ele>
      </trkpt>
      <trkpt lat="42.782857" lon="-0.108825">
        <time>2023-03-21T09:55:50+00:00</time>
        <ele>2916.0</ele>
      </trkpt>
      <trkpt lat="42.782869" lon="-0.108792">
        <time>2023-03-21T09:56:04+00:00</time>
        <ele>2914.0</ele>
      </trkpt>
      <trkpt lat="42.782857" lon="-0.108801">
        <time>2023-03-21T09:56:21+00:00</time>
        <ele>2915.0</ele>
      </trkpt>
      <trkpt lat="42.782861" lon="-0.108816">
        <time>2023-03-21T09:56:42+00:00</time>
        <ele>2915.0</ele>
      </trkpt>
      <trkpt lat="42.782862" lon="-0.108819">
        <time>2023-03-21T09:56:58+00:00</time>
        <ele>2915.0</ele>
      </trkpt>
      <trkpt lat="42.782858" lon="-0.108787">
        <time>2023-03-21T09:57:09+00:00</time>
        <ele>2915.0</ele>
      </trkpt>
      <trkpt lat="42.782824" lon="-0.108784">
        <time>2023-03-21T09:57:20+00:00</time>
        <ele>2917.0</ele>
      </trkpt>
      <trkpt lat="42.782801" lon="-0.10878">
        <time>2023-03-21T09:57:32+00:00</time>
        <ele>2919.0</ele>
      </trkpt>
      <trkpt lat="42.782793" lon="-0.108787">
        <time>2023-03-21T09:57:44+00:00</time>
        <ele>2919.0</ele>
      </trkpt>
      <trkpt lat="42.782785" lon="-0.108785">
        <time>2023-03-21T09:57:59+00:00</time>
        <ele>2920.0</ele>
      </trkpt>
      <trkpt lat="42.782783" lon="-0.108791">
        <time>2023-03-21T09:58:14+00:00</time>
        <ele>2920.0</ele>
      </trkpt>
      <trkpt lat="42.782777" lon="-0.108805">
        <time>2023-03-21T09:58:25+00:00</time>
        <ele>2921.0</ele>
      </trkpt>
      <trkpt lat="42.782768" lon="-0.108819">
        <time>2023-03-21T09:58:36+00:00</time>
        <ele>2922.0</ele>
      </trkpt>
      <trkpt lat="42.782762" lon="-0.108823">
        <time>2023-03-21T09:58:55+00:00</time>
        <ele>2922.0</ele>
      </trkpt>
      <trkpt lat="42.782764" lon="-0.10882">
        <time>2023-03-21T09:59:18+00:00</time>
        <ele>2922.0</ele>
      </trkpt>
      <trkpt lat="42.782765" lon="-0.108817">
        <time>2023-03-21T09:59:39+00:00</time>
        <ele>2922.0</ele>
      </trkpt>
      <trkpt lat="42.782767" lon="-0.108815">
        <time>2023-03-21T09:59:55+00:00</time>
        <ele>2922.0</ele>
      </trkpt>
      <trkpt lat="42.782764" lon="-0.1088">
        <time>2023-03-21T10:00:18+00:00</time>
        <ele>2922.0</ele>
      </trkpt>
      <trkpt lat="42.782752" lon="-0.108814">
        <time>2023-03-21T10:00:40+00:00</time>
        <ele>2923.0</ele>
      </trkpt>
      <trkpt lat="42.782738" lon="-0.108823">
        <time>2023-03-21T10:00:58+00:00</time>
        <ele>2924.0</ele>
      </trkpt>
      <trkpt lat="42.782712" lon="-0.108839">
        <time>2023-03-21T10:01:10+00:00</time>
        <ele>2926.0</ele>
      </trkpt>
      <trkpt lat="42.782707" lon="-0.108845">
        <time>2023-03-21T10:01:23+00:00</time>
        <ele>2927.0</ele>
      </trkpt>
      <trkpt lat="42.782703" lon="-0.108834">
        <time>2023-03-21T10:01:38+00:00</time>
        <ele>2927.0</ele>
      </trkpt>
      <trkpt lat="42.782695" lon="-0.10885">
        <time>2023-03-21T10:01:53+00:00</time>
        <ele>2928.0</ele>
      </trkpt>
      <trkpt lat="42.782685" lon="-0.108862">
        <time>2023-03-21T10:02:06+00:00</time>
        <ele>2928.0</ele>
      </trkpt>
      <trkpt lat="42.782678" lon="-0.10887">
        <time>2023-03-21T10:02:21+00:00</time>
        <ele>2929.0</ele>
      </trkpt>
      <trkpt lat="42.782676" lon="-0.108865">
        <time>2023-03-21T10:02:39+00:00</time>
        <ele>2929.0</ele>
      </trkpt>
      <trkpt lat="42.782666" lon="-0.108858">
        <time>2023-03-21T10:02:51+00:00</time>
        <ele>2929.0</ele>
      </trkpt>
      <trkpt lat="42.782652" lon="-0.108861">
        <time>2023-03-21T10:03:07+00:00</time>
        <ele>2930.0</ele>
      </trkpt>
      <trkpt lat="42.782646" lon="-0.108859">
        <time>2023-03-21T10:03:20+00:00</time>
        <ele>2930.0</ele>
      </trkpt>
      <trkpt lat="42.782639" lon="-0.108842">
        <time>2023-03-21T10:03:38+00:00</time>
        <ele>2930.0</ele>
      </trkpt>
      <trkpt lat="42.782634" lon="-0.10884">
        <time>2023-03-21T10:03:49+00:00</time>
        <ele>2931.0</ele>
      </trkpt>
      <trkpt lat="42.782624" lon="-0.108833">
        <time>2023-03-21T10:04:02+00:00</time>
        <ele>2931.0</ele>
      </trkpt>
      <trkpt lat="42.782619" lon="-0.108819">
        <time>2023-03-21T10:04:16+00:00</time>
        <ele>2931.0</ele>
      </trkpt>
      <trkpt lat="42.782613" lon="-0.108818">
        <time>2023-03-21T10:04:29+00:00</time>
        <ele>2931.0</ele>
      </trkpt>
      <trkpt lat="42.782611" lon="-0.108804">
        <time>2023-03-21T10:04:42+00:00</time>
        <ele>2931.0</ele>
      </trkpt>
      <trkpt lat="42.782616" lon="-0.108785">
        <time>2023-03-21T10:04:54+00:00</time>
        <ele>2930.0</ele>
      </trkpt>
      <trkpt lat="42.782609" lon="-0.10879">
        <time>2023-03-21T10:05:08+00:00</time>
        <ele>2931.0</ele>
      </trkpt>
      <trkpt lat="42.782591" lon="-0.108786">
        <time>2023-03-21T10:05:21+00:00</time>
        <ele>2932.0</ele>
      </trkpt>
      <trkpt lat="42.7826" lon="-0.10879">
        <time>2023-03-21T10:05:46+00:00</time>
        <ele>2931.0</ele>
      </trkpt>
      <trkpt lat="42.782608" lon="-0.108781">
        <time>2023-03-21T10:06:13+00:00</time>
        <ele>2931.0</ele>
      </trkpt>
      <trkpt lat="42.782606" lon="-0.108773">
        <time>2023-03-21T10:06:37+00:00</time>
        <ele>2931.0</ele>
      </trkpt>
      <trkpt lat="42.782599" lon="-0.108784">
        <time>2023-03-21T10:07:00+00:00</time>
        <ele>2931.0</ele>
      </trkpt>
      <trkpt lat="42.7826" lon="-0.108781">
        <time>2023-03-21T10:07:18+00:00</time>
        <ele>2931.0</ele>
      </trkpt>
      <trkpt lat="42.782602" lon="-0.108768">
        <time>2023-03-21T10:07:30+00:00</time>
        <ele>2931.0</ele>
      </trkpt>
      <trkpt lat="42.7826" lon="-0.108773">
        <time>2023-03-21T10:07:45+00:00</time>
        <ele>2931.0</ele>
      </trkpt>
      <trkpt lat="42.782603" lon="-0.10877">
        <time>2023-03-21T10:08:01+00:00</time>
        <ele>2931.0</ele>
      </trkpt>
      <trkpt lat="42.782598" lon="-0.108766">
        <time>2023-03-21T10:08:16+00:00</time>
        <ele>2931.0</ele>
      </trkpt>
      <trkpt lat="42.782591" lon="-0.108754">
        <time>2023-03-21T10:08:32+00:00</time>
        <ele>2931.0</ele>
      </trkpt>
      <trkpt lat="42.782584" lon="-0.108753">
        <time>2023-03-21T10:08:45+00:00</time>
        <ele>2931.0</ele>
      </trkpt>
      <trkpt lat="42.782581" lon="-0.108729">
        <time>2023-03-21T10:09:02+00:00</time>
        <ele>2931.0</ele>
      </trkpt>
      <trkpt lat="42.782576" lon="-0.108738">
        <time>2023-03-21T10:09:24+00:00</time>
        <ele>2932.0</ele>
      </trkpt>
      <trkpt lat="42.782556" lon="-0.108738">
        <time>2023-03-21T10:09:39+00:00</time>
        <ele>2932.0</ele>
      </trkpt>
      <trkpt lat="42.782548" lon="-0.108733">
        <time>2023-03-21T10:09:52+00:00</time>
        <ele>2933.0</ele>
      </trkpt>
      <trkpt lat="42.782541" lon="-0.108714">
        <time>2023-03-21T10:10:07+00:00</time>
        <ele>2933.0</ele>
      </trkpt>
      <trkpt lat="42.782529" lon="-0.108723">
        <time>2023-03-21T10:10:30+00:00</time>
        <ele>2934.0</ele>
      </trkpt>
      <trkpt lat="42.782499" lon="-0.108735">
        <time>2023-03-21T10:10:46+00:00</time>
        <ele>2935.0</ele>
      </trkpt>
      <trkpt lat="42.782475" lon="-0.108716">
        <time>2023-03-21T10:10:56+00:00</time>
        <ele>2936.0</ele>
      </trkpt>
      <trkpt lat="42.782465" lon="-0.108704">
        <time>2023-03-21T10:11:07+00:00</time>
        <ele>2935.0</ele>
      </trkpt>
      <trkpt lat="42.782455" lon="-0.108712">
        <time>2023-03-21T10:11:16+00:00</time>
        <ele>2935.0</ele>
      </trkpt>
      <trkpt lat="42.782468" lon="-0.108774">
        <time>2023-03-21T10:11:28+00:00</time>
        <ele>2936.0</ele>
      </trkpt>
      <trkpt lat="42.782481" lon="-0.10885">
        <time>2023-03-21T10:11:41+00:00</time>
        <ele>2937.0</ele>
      </trkpt>
      <trkpt lat="42.78248" lon="-0.108879">
        <time>2023-03-21T10:11:53+00:00</time>
        <ele>2937.0</ele>
      </trkpt>
      <trkpt lat="42.782483" lon="-0.108891">
        <time>2023-03-21T10:12:07+00:00</time>
        <ele>2937.0</ele>
      </trkpt>
      <trkpt lat="42.782485" lon="-0.108888">
        <time>2023-03-21T10:12:08+00:00</time>
        <ele>2937.0</ele>
      </trkpt>
      <trkpt lat="42.782482" lon="-0.108908">
        <time>2023-03-21T10:12:28+00:00</time>
        <ele>2937.0</ele>
      </trkpt>
      <trkpt lat="42.78248" lon="-0.10891">
        <time>2023-03-21T10:12:29+00:00</time>
        <ele>2937.0</ele>
      </trkpt>
      <trkpt lat="42.782479" lon="-0.108869">
        <time>2023-03-21T10:12:54+00:00</time>
        <ele>2937.0</ele>
      </trkpt>
      <trkpt lat="42.782485" lon="-0.108872">
        <time>2023-03-21T10:12:56+00:00</time>
        <ele>2937.0</ele>
      </trkpt>
      <trkpt lat="42.782487" lon="-0.108873">
        <time>2023-03-21T10:13:40+00:00</time>
        <ele>2937.0</ele>
      </trkpt>
      <trkpt lat="42.78249" lon="-0.108884">
        <time>2023-03-21T10:14:20+00:00</time>
        <ele>2937.0</ele>
      </trkpt>
      <trkpt lat="42.782489" lon="-0.108879">
        <time>2023-03-21T10:14:56+00:00</time>
        <ele>2937.0</ele>
      </trkpt>
      <trkpt lat="42.782488" lon="-0.108885">
        <time>2023-03-21T10:15:41+00:00</time>
        <ele>2937.0</ele>
      </trkpt>
      <trkpt lat="42.782489" lon="-0.108885">
        <time>2023-03-21T10:16:21+00:00</time>
        <ele>2937.0</ele>
      </trkpt>
      <trkpt lat="42.782487" lon="-0.10889">
        <time>2023-03-21T10:17:02+00:00</time>
        <ele>2937.0</ele>
      </trkpt>
      <trkpt lat="42.782492" lon="-0.108895">
        <time>2023-03-21T10:17:52+00:00</time>
        <ele>2937.0</ele>
      </trkpt>
      <trkpt lat="42.782484" lon="-0.108886">
        <time>2023-03-21T10:18:34+00:00</time>
        <ele>2937.0</ele>
      </trkpt>
      <trkpt lat="42.782487" lon="-0.108884">
        <time>2023-03-21T10:19:10+00:00</time>
        <ele>2937.0</ele>
      </trkpt>
      <trkpt lat="42.782486" lon="-0.108884">
        <time>2023-03-21T10:20:01+00:00</time>
        <ele>2937.0</ele>
      </trkpt>
      <trkpt lat="42.782483" lon="-0.108888">
        <time>2023-03-21T10:20:39+00:00</time>
        <ele>2937.0</ele>
      </trkpt>
      <trkpt lat="42.782485" lon="-0.108876">
        <time>2023-03-21T10:21:26+00:00</time>
        <ele>2937.0</ele>
      </trkpt>
      <trkpt lat="42.782486" lon="-0.108871">
        <time>2023-03-21T10:22:00+00:00</time>
        <ele>2937.0</ele>
      </trkpt>
      <trkpt lat="42.782487" lon="-0.108877">
        <time>2023-03-21T10:22:08+00:00</time>
        <ele>2937.0</ele>
      </trkpt>
      <trkpt lat="42.782486" lon="-0.108876">
        <time>2023-03-21T10:22:11+00:00</time>
        <ele>2937.0</ele>
      </trkpt>
      <trkpt lat="42.782498" lon="-0.108874">
        <time>2023-03-21T10:22:48+00:00</time>
        <ele>2937.0</ele>
      </trkpt>
      <trkpt lat="42.782502" lon="-0.108878">
        <time>2023-03-21T10:23:29+00:00</time>
        <ele>2937.0</ele>
      </trkpt>
      <trkpt lat="42.782489" lon="-0.108896">
        <time>2023-03-21T10:24:12+00:00</time>
        <ele>2937.0</ele>
      </trkpt>
      <trkpt lat="42.782487" lon="-0.108898">
        <time>2023-03-21T10:24:57+00:00</time>
        <ele>2937.0</ele>
      </trkpt>
      <trkpt lat="42.782483" lon="-0.108895">
        <time>2023-03-21T10:25:26+00:00</time>
        <ele>2937.0</ele>
      </trkpt>
      <trkpt lat="42.782484" lon="-0.108882">
        <time>2023-03-21T10:25:34+00:00</time>
        <ele>2937.0</ele>
      </trkpt>
      <trkpt lat="42.782489" lon="-0.108878">
        <time>2023-03-21T10:26:16+00:00</time>
        <ele>2937.0</ele>
      </trkpt>
      <trkpt lat="42.782488" lon="-0.108875">
        <time>2023-03-21T10:26:56+00:00</time>
        <ele>2937.0</ele>
      </trkpt>
      <trkpt lat="42.782483" lon="-0.108873">
        <time>2023-03-21T10:27:34+00:00</time>
        <ele>2937.0</ele>
      </trkpt>
      <trkpt lat="42.782487" lon="-0.108876">
        <time>2023-03-21T10:28:08+00:00</time>
        <ele>2937.0</ele>
      </trkpt>
      <trkpt lat="42.782485" lon="-0.108876">
        <time>2023-03-21T10:28:41+00:00</time>
        <ele>2937.0</ele>
      </trkpt>
      <trkpt lat="42.782481" lon="-0.108876">
        <time>2023-03-21T10:29:17+00:00</time>
        <ele>2937.0</ele>
      </trkpt>
      <trkpt lat="42.782484" lon="-0.108873">
        <time>2023-03-21T10:29:54+00:00</time>
        <ele>2937.0</ele>
      </trkpt>
      <trkpt lat="42.782482" lon="-0.108872">
        <time>2023-03-21T10:30:25+00:00</time>
        <ele>2937.0</ele>
      </trkpt>
      <trkpt lat="42.782483" lon="-0.108866">
        <time>2023-03-21T10:30:58+00:00</time>
        <ele>2937.0</ele>
      </trkpt>
      <trkpt lat="42.78248" lon="-0.108874">
        <time>2023-03-21T10:31:32+00:00</time>
        <ele>2937.0</ele>
      </trkpt>
      <trkpt lat="42.782484" lon="-0.108878">
        <time>2023-03-21T10:32:03+00:00</time>
        <ele>2937.0</ele>
      </trkpt>
      <trkpt lat="42.782482" lon="-0.108879">
        <time>2023-03-21T10:32:34+00:00</time>
        <ele>2937.0</ele>
      </trkpt>
      <trkpt lat="42.782484" lon="-0.108884">
        <time>2023-03-21T10:33:04+00:00</time>
        <ele>2937.0</ele>
      </trkpt>
      <trkpt lat="42.782481" lon="-0.108885">
        <time>2023-03-21T10:33:44+00:00</time>
        <ele>2937.0</ele>
      </trkpt>
      <trkpt lat="42.782485" lon="-0.108886">
        <time>2023-03-21T10:34:21+00:00</time>
        <ele>2937.0</ele>
      </trkpt>
      <trkpt lat="42.782485" lon="-0.108888">
        <time>2023-03-21T10:34:51+00:00</time>
        <ele>2937.0</ele>
      </trkpt>
      <trkpt lat="42.782483" lon="-0.108883">
        <time>2023-03-21T10:35:27+00:00</time>
        <ele>2937.0</ele>
      </trkpt>
      <trkpt lat="42.782481" lon="-0.108882">
        <time>2023-03-21T10:36:03+00:00</time>
        <ele>2937.0</ele>
      </trkpt>
      <trkpt lat="42.782487" lon="-0.108882">
        <time>2023-03-21T10:36:33+00:00</time>
        <ele>2937.0</ele>
      </trkpt>
      <trkpt lat="42.782483" lon="-0.108876">
        <time>2023-03-21T10:37:11+00:00</time>
        <ele>2937.0</ele>
      </trkpt>
      <trkpt lat="42.782486" lon="-0.108882">
        <time>2023-03-21T10:37:52+00:00</time>
        <ele>2937.0</ele>
      </trkpt>
      <trkpt lat="42.782486" lon="-0.108887">
        <time>2023-03-21T10:38:29+00:00</time>
        <ele>2937.0</ele>
      </trkpt>
      <trkpt lat="42.78249" lon="-0.108882">
        <time>2023-03-21T10:39:04+00:00</time>
        <ele>2937.0</ele>
      </trkpt>
      <trkpt lat="42.78249" lon="-0.108878">
        <time>2023-03-21T10:39:32+00:00</time>
        <ele>2937.0</ele>
      </trkpt>
      <trkpt lat="42.782498" lon="-0.108875">
        <time>2023-03-21T10:40:11+00:00</time>
        <ele>2937.0</ele>
      </trkpt>
      <trkpt lat="42.782503" lon="-0.108871">
        <time>2023-03-21T10:40:15+00:00</time>
        <ele>2937.0</ele>
      </trkpt>
      <trkpt lat="42.782505" lon="-0.108871">
        <time>2023-03-21T10:40:16+00:00</time>
        <ele>2936.0</ele>
      </trkpt>
      <trkpt lat="42.782484" lon="-0.108882">
        <time>2023-03-21T10:40:54+00:00</time>
        <ele>2937.0</ele>
      </trkpt>
      <trkpt lat="42.78248" lon="-0.108873">
        <time>2023-03-21T10:41:32+00:00</time>
        <ele>2937.0</ele>
      </trkpt>
      <trkpt lat="42.782481" lon="-0.108871">
        <time>2023-03-21T10:42:08+00:00</time>
        <ele>2937.0</ele>
      </trkpt>
      <trkpt lat="42.782487" lon="-0.108878">
        <time>2023-03-21T10:42:40+00:00</time>
        <ele>2937.0</ele>
      </trkpt>
      <trkpt lat="42.78249" lon="-0.108877">
        <time>2023-03-21T10:42:41+00:00</time>
        <ele>2937.0</ele>
      </trkpt>
      <trkpt lat="42.782491" lon="-0.108877">
        <time>2023-03-21T10:42:42+00:00</time>
        <ele>2937.0</ele>
      </trkpt>
      <trkpt lat="42.782489" lon="-0.108887">
        <time>2023-03-21T10:42:47+00:00</time>
        <ele>2937.0</ele>
      </trkpt>
      <trkpt lat="42.782487" lon="-0.108893">
        <time>2023-03-21T10:43:25+00:00</time>
        <ele>2937.0</ele>
      </trkpt>
      <trkpt lat="42.782487" lon="-0.108893">
        <time>2023-03-21T10:43:55+00:00</time>
        <ele>2937.0</ele>
      </trkpt>
      <trkpt lat="42.782487" lon="-0.108893">
        <time>2023-03-21T10:44:21+00:00</time>
        <ele>2937.0</ele>
      </trkpt>
      <trkpt lat="42.782487" lon="-0.108895">
        <time>2023-03-21T10:44:22+00:00</time>
        <ele>2937.0</ele>
      </trkpt>
      <trkpt lat="42.78249" lon="-0.108885">
        <time>2023-03-21T10:44:53+00:00</time>
        <ele>2937.0</ele>
      </trkpt>
      <trkpt lat="42.78249" lon="-0.108886">
        <time>2023-03-21T10:44:54+00:00</time>
        <ele>2937.0</ele>
      </trkpt>
      <trkpt lat="42.782491" lon="-0.108887">
        <time>2023-03-21T10:44:55+00:00</time>
        <ele>2937.0</ele>
      </trkpt>
      <trkpt lat="42.782491" lon="-0.108887">
        <time>2023-03-21T10:44:56+00:00</time>
        <ele>2937.0</ele>
      </trkpt>
      <trkpt lat="42.782492" lon="-0.108888">
        <time>2023-03-21T10:44:57+00:00</time>
        <ele>2937.0</ele>
      </trkpt>
      <trkpt lat="42.782494" lon="-0.108895">
        <time>2023-03-21T10:45:01+00:00</time>
        <ele>2937.0</ele>
      </trkpt>
      <trkpt lat="42.782493" lon="-0.10889">
        <time>2023-03-21T10:45:02+00:00</time>
        <ele>2937.0</ele>
      </trkpt>
      <trkpt lat="42.782492" lon="-0.108871">
        <time>2023-03-21T10:45:22+00:00</time>
        <ele>2937.0</ele>
      </trkpt>
      <trkpt lat="42.7825" lon="-0.108869">
        <time>2023-03-21T10:45:37+00:00</time>
        <ele>2937.0</ele>
      </trkpt>
      <trkpt lat="42.782501" lon="-0.108874">
        <time>2023-03-21T10:45:55+00:00</time>
        <ele>2937.0</ele>
      </trkpt>
      <trkpt lat="42.782497" lon="-0.108891">
        <time>2023-03-21T10:46:11+00:00</time>
        <ele>2937.0</ele>
      </trkpt>
      <trkpt lat="42.782483" lon="-0.108892">
        <time>2023-03-21T10:46:30+00:00</time>
        <ele>2937.0</ele>
      </trkpt>
      <trkpt lat="42.782409" lon="-0.108778">
        <time>2023-03-21T10:46:34+00:00</time>
        <ele>2936.0</ele>
      </trkpt>
      <trkpt lat="42.782281" lon="-0.108573">
        <time>2023-03-21T10:46:38+00:00</time>
        <ele>2934.0</ele>
      </trkpt>
      <trkpt lat="42.782163" lon="-0.10857">
        <time>2023-03-21T10:46:41+00:00</time>
        <ele>2931.0</ele>
      </trkpt>
      <trkpt lat="42.782073" lon="-0.108604">
        <time>2023-03-21T10:46:43+00:00</time>
        <ele>2927.0</ele>
      </trkpt>
      <trkpt lat="42.781988" lon="-0.108672">
        <time>2023-03-21T10:46:45+00:00</time>
        <ele>2922.0</ele>
      </trkpt>
      <trkpt lat="42.781917" lon="-0.108757">
        <time>2023-03-21T10:46:47+00:00</time>
        <ele>2917.0</ele>
      </trkpt>
      <trkpt lat="42.781831" lon="-0.1088">
        <time>2023-03-21T10:46:49+00:00</time>
        <ele>2911.0</ele>
      </trkpt>
      <trkpt lat="42.781805" lon="-0.108848">
        <time>2023-03-21T10:46:50+00:00</time>
        <ele>2909.0</ele>
      </trkpt>
      <trkpt lat="42.781741" lon="-0.108873">
        <time>2023-03-21T10:46:52+00:00</time>
        <ele>2905.0</ele>
      </trkpt>
      <trkpt lat="42.781706" lon="-0.108836">
        <time>2023-03-21T10:46:55+00:00</time>
        <ele>2903.0</ele>
      </trkpt>
      <trkpt lat="42.781709" lon="-0.10884">
        <time>2023-03-21T10:47:00+00:00</time>
        <ele>2904.0</ele>
      </trkpt>
      <trkpt lat="42.781603" lon="-0.108574">
        <time>2023-03-21T10:47:13+00:00</time>
        <ele>2897.0</ele>
      </trkpt>
      <trkpt lat="42.781578" lon="-0.108441">
        <time>2023-03-21T10:47:18+00:00</time>
        <ele>2893.0</ele>
      </trkpt>
      <trkpt lat="42.781507" lon="-0.108459">
        <time>2023-03-21T10:47:22+00:00</time>
        <ele>2888.0</ele>
      </trkpt>
      <trkpt lat="42.781435" lon="-0.108452">
        <time>2023-03-21T10:47:24+00:00</time>
        <ele>2882.0</ele>
      </trkpt>
      <trkpt lat="42.781373" lon="-0.108497">
        <time>2023-03-21T10:47:26+00:00</time>
        <ele>2878.0</ele>
      </trkpt>
      <trkpt lat="42.781353" lon="-0.108494">
        <time>2023-03-21T10:47:27+00:00</time>
        <ele>2876.0</ele>
      </trkpt>
      <trkpt lat="42.781353" lon="-0.108488">
        <time>2023-03-21T10:47:29+00:00</time>
        <ele>2876.0</ele>
      </trkpt>
      <trkpt lat="42.781355" lon="-0.108485">
        <time>2023-03-21T10:47:54+00:00</time>
        <ele>2876.0</ele>
      </trkpt>
      <trkpt lat="42.781353" lon="-0.108494">
        <time>2023-03-21T10:48:19+00:00</time>
        <ele>2876.0</ele>
      </trkpt>
      <trkpt lat="42.781354" lon="-0.108484">
        <time>2023-03-21T10:48:37+00:00</time>
        <ele>2876.0</ele>
      </trkpt>
      <trkpt lat="42.781351" lon="-0.108474">
        <time>2023-03-21T10:48:49+00:00</time>
        <ele>2876.0</ele>
      </trkpt>
      <trkpt lat="42.781258" lon="-0.108463">
        <time>2023-03-21T10:48:54+00:00</time>
        <ele>2868.0</ele>
      </trkpt>
      <trkpt lat="42.781226" lon="-0.108445">
        <time>2023-03-21T10:48:55+00:00</time>
        <ele>2866.0</ele>
      </trkpt>
      <trkpt lat="42.781192" lon="-0.108431">
        <time>2023-03-21T10:48:56+00:00</time>
        <ele>2863.0</ele>
      </trkpt>
      <trkpt lat="42.781121" lon="-0.108496">
        <time>2023-03-21T10:48:58+00:00</time>
        <ele>2859.0</ele>
      </trkpt>
      <trkpt lat="42.781091" lon="-0.108497">
        <time>2023-03-21T10:48:59+00:00</time>
        <ele>2856.0</ele>
      </trkpt>
      <trkpt lat="42.781029" lon="-0.108476">
        <time>2023-03-21T10:49:01+00:00</time>
        <ele>2850.0</ele>
      </trkpt>
      <trkpt lat="42.780969" lon="-0.108535">
        <time>2023-03-21T10:49:03+00:00</time>
        <ele>2846.0</ele>
      </trkpt>
      <trkpt lat="42.780941" lon="-0.108514">
        <time>2023-03-21T10:49:04+00:00</time>
        <ele>2843.0</ele>
      </trkpt>
      <trkpt lat="42.780913" lon="-0.108491">
        <time>2023-03-21T10:49:05+00:00</time>
        <ele>2840.0</ele>
      </trkpt>
      <trkpt lat="42.780826" lon="-0.108394">
        <time>2023-03-21T10:49:08+00:00</time>
        <ele>2830.0</ele>
      </trkpt>
      <trkpt lat="42.780816" lon="-0.108214">
        <time>2023-03-21T10:49:10+00:00</time>
        <ele>2825.0</ele>
      </trkpt>
      <trkpt lat="42.780828" lon="-0.107853">
        <time>2023-03-21T10:49:13+00:00</time>
        <ele>2822.0</ele>
      </trkpt>
      <trkpt lat="42.78083" lon="-0.10752">
        <time>2023-03-21T10:49:17+00:00</time>
        <ele>2818.0</ele>
      </trkpt>
      <trkpt lat="42.780831" lon="-0.107474">
        <time>2023-03-21T10:49:18+00:00</time>
        <ele>2818.0</ele>
      </trkpt>
      <trkpt lat="42.78075" lon="-0.107389">
        <time>2023-03-21T10:49:22+00:00</time>
        <ele>2809.0</ele>
      </trkpt>
      <trkpt lat="42.780749" lon="-0.107358">
        <time>2023-03-21T10:49:24+00:00</time>
        <ele>2808.0</ele>
      </trkpt>
      <trkpt lat="42.780746" lon="-0.10736">
        <time>2023-03-21T10:49:30+00:00</time>
        <ele>2808.0</ele>
      </trkpt>
      <trkpt lat="42.780673" lon="-0.107374">
        <time>2023-03-21T10:49:33+00:00</time>
        <ele>2802.0</ele>
      </trkpt>
      <trkpt lat="42.78062" lon="-0.107331">
        <time>2023-03-21T10:49:35+00:00</time>
        <ele>2797.0</ele>
      </trkpt>
      <trkpt lat="42.780556" lon="-0.107332">
        <time>2023-03-21T10:49:37+00:00</time>
        <ele>2791.0</ele>
      </trkpt>
      <trkpt lat="42.780503" lon="-0.107275">
        <time>2023-03-21T10:49:39+00:00</time>
        <ele>2786.0</ele>
      </trkpt>
      <trkpt lat="42.780452" lon="-0.107252">
        <time>2023-03-21T10:49:41+00:00</time>
        <ele>2781.0</ele>
      </trkpt>
      <trkpt lat="42.78043" lon="-0.107179">
        <time>2023-03-21T10:49:43+00:00</time>
        <ele>2778.0</ele>
      </trkpt>
      <trkpt lat="42.780379" lon="-0.107076">
        <time>2023-03-21T10:49:47+00:00</time>
        <ele>2772.0</ele>
      </trkpt>
      <trkpt lat="42.780353" lon="-0.106987">
        <time>2023-03-21T10:49:49+00:00</time>
        <ele>2769.0</ele>
      </trkpt>
      <trkpt lat="42.780319" lon="-0.106975">
        <time>2023-03-21T10:49:50+00:00</time>
        <ele>2766.0</ele>
      </trkpt>
      <trkpt lat="42.780263" lon="-0.106921">
        <time>2023-03-21T10:49:52+00:00</time>
        <ele>2761.0</ele>
      </trkpt>
      <trkpt lat="42.780214" lon="-0.106871">
        <time>2023-03-21T10:49:54+00:00</time>
        <ele>2757.0</ele>
      </trkpt>
      <trkpt lat="42.780178" lon="-0.106945">
        <time>2023-03-21T10:49:56+00:00</time>
        <ele>2756.0</ele>
      </trkpt>
      <trkpt lat="42.780177" lon="-0.106963">
        <time>2023-03-21T10:49:57+00:00</time>
        <ele>2756.0</ele>
      </trkpt>
      <trkpt lat="42.780179" lon="-0.106973">
        <time>2023-03-21T10:50:16+00:00</time>
        <ele>2756.0</ele>
      </trkpt>
      <trkpt lat="42.78018" lon="-0.106974">
        <time>2023-03-21T10:50:33+00:00</time>
        <ele>2756.0</ele>
      </trkpt>
      <trkpt lat="42.780182" lon="-0.106968">
        <time>2023-03-21T10:50:46+00:00</time>
        <ele>2756.0</ele>
      </trkpt>
      <trkpt lat="42.780178" lon="-0.106965">
        <time>2023-03-21T10:51:10+00:00</time>
        <ele>2756.0</ele>
      </trkpt>
      <trkpt lat="42.780181" lon="-0.106977">
        <time>2023-03-21T10:51:18+00:00</time>
        <ele>2756.0</ele>
      </trkpt>
      <trkpt lat="42.780059" lon="-0.106916">
        <time>2023-03-21T10:51:22+00:00</time>
        <ele>2748.0</ele>
      </trkpt>
      <trkpt lat="42.77995" lon="-0.106884">
        <time>2023-03-21T10:51:24+00:00</time>
        <ele>2741.0</ele>
      </trkpt>
      <trkpt lat="42.77982" lon="-0.106812">
        <time>2023-03-21T10:51:26+00:00</time>
        <ele>2733.0</ele>
      </trkpt>
      <trkpt lat="42.779761" lon="-0.106769">
        <time>2023-03-21T10:51:27+00:00</time>
        <ele>2729.0</ele>
      </trkpt>
      <trkpt lat="42.779704" lon="-0.10673">
        <time>2023-03-21T10:51:28+00:00</time>
        <ele>2725.0</ele>
      </trkpt>
      <trkpt lat="42.779641" lon="-0.106711">
        <time>2023-03-21T10:51:29+00:00</time>
        <ele>2722.0</ele>
      </trkpt>
      <trkpt lat="42.779576" lon="-0.106625">
        <time>2023-03-21T10:51:31+00:00</time>
        <ele>2717.0</ele>
      </trkpt>
      <trkpt lat="42.77953" lon="-0.106518">
        <time>2023-03-21T10:51:33+00:00</time>
        <ele>2711.0</ele>
      </trkpt>
      <trkpt lat="42.779481" lon="-0.106407">
        <time>2023-03-21T10:51:35+00:00</time>
        <ele>2704.0</ele>
      </trkpt>
      <trkpt lat="42.779477" lon="-0.106338">
        <time>2023-03-21T10:51:36+00:00</time>
        <ele>2700.0</ele>
      </trkpt>
      <trkpt lat="42.779469" lon="-0.106058">
        <time>2023-03-21T10:51:40+00:00</time>
        <ele>2686.0</ele>
      </trkpt>
      <trkpt lat="42.779529" lon="-0.105786">
        <time>2023-03-21T10:51:43+00:00</time>
        <ele>2682.0</ele>
      </trkpt>
      <trkpt lat="42.779574" lon="-0.105572">
        <time>2023-03-21T10:51:45+00:00</time>
        <ele>2682.0</ele>
      </trkpt>
      <trkpt lat="42.779486" lon="-0.10543">
        <time>2023-03-21T10:51:48+00:00</time>
        <ele>2676.0</ele>
      </trkpt>
      <trkpt lat="42.779476" lon="-0.105388">
        <time>2023-03-21T10:51:49+00:00</time>
        <ele>2675.0</ele>
      </trkpt>
      <trkpt lat="42.779475" lon="-0.105357">
        <time>2023-03-21T10:51:50+00:00</time>
        <ele>2674.0</ele>
      </trkpt>
      <trkpt lat="42.779447" lon="-0.105324">
        <time>2023-03-21T10:51:52+00:00</time>
        <ele>2672.0</ele>
      </trkpt>
      <trkpt lat="42.779445" lon="-0.105325">
        <time>2023-03-21T10:51:53+00:00</time>
        <ele>2672.0</ele>
      </trkpt>
      <trkpt lat="42.779453" lon="-0.105345">
        <time>2023-03-21T10:52:12+00:00</time>
        <ele>2673.0</ele>
      </trkpt>
      <trkpt lat="42.779449" lon="-0.105348">
        <time>2023-03-21T10:52:14+00:00</time>
        <ele>2673.0</ele>
      </trkpt>
      <trkpt lat="42.779369" lon="-0.105261">
        <time>2023-03-21T10:52:17+00:00</time>
        <ele>2668.0</ele>
      </trkpt>
      <trkpt lat="42.779227" lon="-0.105244">
        <time>2023-03-21T10:52:20+00:00</time>
        <ele>2659.0</ele>
      </trkpt>
      <trkpt lat="42.779137" lon="-0.105285">
        <time>2023-03-21T10:52:22+00:00</time>
        <ele>2653.0</ele>
      </trkpt>
      <trkpt lat="42.77903" lon="-0.105262">
        <time>2023-03-21T10:52:24+00:00</time>
        <ele>2646.0</ele>
      </trkpt>
      <trkpt lat="42.778966" lon="-0.105167">
        <time>2023-03-21T10:52:26+00:00</time>
        <ele>2641.0</ele>
      </trkpt>
      <trkpt lat="42.778871" lon="-0.105131">
        <time>2023-03-21T10:52:28+00:00</time>
        <ele>2634.0</ele>
      </trkpt>
      <trkpt lat="42.778843" lon="-0.104988">
        <time>2023-03-21T10:52:30+00:00</time>
        <ele>2632.0</ele>
      </trkpt>
      <trkpt lat="42.778778" lon="-0.104927">
        <time>2023-03-21T10:52:32+00:00</time>
        <ele>2627.0</ele>
      </trkpt>
      <trkpt lat="42.778696" lon="-0.104863">
        <time>2023-03-21T10:52:34+00:00</time>
        <ele>2620.0</ele>
      </trkpt>
      <trkpt lat="42.778619" lon="-0.104838">
        <time>2023-03-21T10:52:36+00:00</time>
        <ele>2614.0</ele>
      </trkpt>
      <trkpt lat="42.778586" lon="-0.104792">
        <time>2023-03-21T10:52:37+00:00</time>
        <ele>2611.0</ele>
      </trkpt>
      <trkpt lat="42.778531" lon="-0.104696">
        <time>2023-03-21T10:52:39+00:00</time>
        <ele>2607.0</ele>
      </trkpt>
      <trkpt lat="42.778445" lon="-0.104634">
        <time>2023-03-21T10:52:41+00:00</time>
        <ele>2601.0</ele>
      </trkpt>
      <trkpt lat="42.778338" lon="-0.104542">
        <time>2023-03-21T10:52:44+00:00</time>
        <ele>2595.0</ele>
      </trkpt>
      <trkpt lat="42.778221" lon="-0.104512">
        <time>2023-03-21T10:52:46+00:00</time>
        <ele>2590.0</ele>
      </trkpt>
      <trkpt lat="42.777998" lon="-0.10439">
        <time>2023-03-21T10:52:49+00:00</time>
        <ele>2582.0</ele>
      </trkpt>
      <trkpt lat="42.777702" lon="-0.104396">
        <time>2023-03-21T10:52:52+00:00</time>
        <ele>2574.0</ele>
      </trkpt>
      <trkpt lat="42.77761" lon="-0.104383">
        <time>2023-03-21T10:52:53+00:00</time>
        <ele>2572.0</ele>
      </trkpt>
      <trkpt lat="42.777241" lon="-0.10435">
        <time>2023-03-21T10:52:57+00:00</time>
        <ele>2566.0</ele>
      </trkpt>
      <trkpt lat="42.777076" lon="-0.104396">
        <time>2023-03-21T10:52:59+00:00</time>
        <ele>2564.0</ele>
      </trkpt>
      <trkpt lat="42.776872" lon="-0.104465">
        <time>2023-03-21T10:53:02+00:00</time>
        <ele>2563.0</ele>
      </trkpt>
      <trkpt lat="42.77689" lon="-0.10447">
        <time>2023-03-21T10:53:09+00:00</time>
        <ele>2563.0</ele>
      </trkpt>
      <trkpt lat="42.776893" lon="-0.104457">
        <time>2023-03-21T10:53:20+00:00</time>
        <ele>2563.0</ele>
      </trkpt>
      <trkpt lat="42.776885" lon="-0.104473">
        <time>2023-03-21T10:53:40+00:00</time>
        <ele>2563.0</ele>
      </trkpt>
      <trkpt lat="42.776892" lon="-0.104462">
        <time>2023-03-21T10:54:02+00:00</time>
        <ele>2563.0</ele>
      </trkpt>
      <trkpt lat="42.776903" lon="-0.10446">
        <time>2023-03-21T10:54:04+00:00</time>
        <ele>2563.0</ele>
      </trkpt>
      <trkpt lat="42.776962" lon="-0.104587">
        <time>2023-03-21T10:54:08+00:00</time>
        <ele>2561.0</ele>
      </trkpt>
      <trkpt lat="42.777084" lon="-0.104837">
        <time>2023-03-21T10:54:12+00:00</time>
        <ele>2559.0</ele>
      </trkpt>
      <trkpt lat="42.777111" lon="-0.105142">
        <time>2023-03-21T10:54:16+00:00</time>
        <ele>2555.0</ele>
      </trkpt>
      <trkpt lat="42.777093" lon="-0.105413">
        <time>2023-03-21T10:54:21+00:00</time>
        <ele>2551.0</ele>
      </trkpt>
      <trkpt lat="42.777089" lon="-0.10545">
        <time>2023-03-21T10:54:22+00:00</time>
        <ele>2550.0</ele>
      </trkpt>
      <trkpt lat="42.777094" lon="-0.105519">
        <time>2023-03-21T10:54:24+00:00</time>
        <ele>2549.0</ele>
      </trkpt>
      <trkpt lat="42.776993" lon="-0.105589">
        <time>2023-03-21T10:54:28+00:00</time>
        <ele>2546.0</ele>
      </trkpt>
      <trkpt lat="42.776935" lon="-0.105666">
        <time>2023-03-21T10:54:30+00:00</time>
        <ele>2545.0</ele>
      </trkpt>
      <trkpt lat="42.776853" lon="-0.105765">
        <time>2023-03-21T10:54:33+00:00</time>
        <ele>2544.0</ele>
      </trkpt>
      <trkpt lat="42.77684" lon="-0.105864">
        <time>2023-03-21T10:54:35+00:00</time>
        <ele>2542.0</ele>
      </trkpt>
      <trkpt lat="42.776819" lon="-0.105992">
        <time>2023-03-21T10:54:37+00:00</time>
        <ele>2537.0</ele>
      </trkpt>
      <trkpt lat="42.776793" lon="-0.106099">
        <time>2023-03-21T10:54:38+00:00</time>
        <ele>2533.0</ele>
      </trkpt>
      <trkpt lat="42.776734" lon="-0.106203">
        <time>2023-03-21T10:54:39+00:00</time>
        <ele>2528.0</ele>
      </trkpt>
      <trkpt lat="42.776655" lon="-0.1063">
        <time>2023-03-21T10:54:40+00:00</time>
        <ele>2524.0</ele>
      </trkpt>
      <trkpt lat="42.776593" lon="-0.106402">
        <time>2023-03-21T10:54:41+00:00</time>
        <ele>2520.0</ele>
      </trkpt>
      <trkpt lat="42.776586" lon="-0.106497">
        <time>2023-03-21T10:54:42+00:00</time>
        <ele>2516.0</ele>
      </trkpt>
      <trkpt lat="42.776627" lon="-0.106577">
        <time>2023-03-21T10:54:43+00:00</time>
        <ele>2512.0</ele>
      </trkpt>
      <trkpt lat="42.776674" lon="-0.106676">
        <time>2023-03-21T10:54:44+00:00</time>
        <ele>2508.0</ele>
      </trkpt>
      <trkpt lat="42.776733" lon="-0.106938">
        <time>2023-03-21T10:54:46+00:00</time>
        <ele>2498.0</ele>
      </trkpt>
      <trkpt lat="42.776712" lon="-0.107059">
        <time>2023-03-21T10:54:47+00:00</time>
        <ele>2494.0</ele>
      </trkpt>
      <trkpt lat="42.776487" lon="-0.107385">
        <time>2023-03-21T10:54:50+00:00</time>
        <ele>2484.0</ele>
      </trkpt>
      <trkpt lat="42.776389" lon="-0.107494">
        <time>2023-03-21T10:54:51+00:00</time>
        <ele>2482.0</ele>
      </trkpt>
      <trkpt lat="42.776291" lon="-0.107604">
        <time>2023-03-21T10:54:52+00:00</time>
        <ele>2480.0</ele>
      </trkpt>
      <trkpt lat="42.776107" lon="-0.107849">
        <time>2023-03-21T10:54:54+00:00</time>
        <ele>2475.0</ele>
      </trkpt>
      <trkpt lat="42.775937" lon="-0.108067">
        <time>2023-03-21T10:54:56+00:00</time>
        <ele>2466.0</ele>
      </trkpt>
      <trkpt lat="42.775741" lon="-0.108218">
        <time>2023-03-21T10:54:58+00:00</time>
        <ele>2459.0</ele>
      </trkpt>
      <trkpt lat="42.775566" lon="-0.108378">
        <time>2023-03-21T10:55:00+00:00</time>
        <ele>2455.0</ele>
      </trkpt>
      <trkpt lat="42.77539" lon="-0.108623">
        <time>2023-03-21T10:55:03+00:00</time>
        <ele>2452.0</ele>
      </trkpt>
      <trkpt lat="42.775135" lon="-0.109139">
        <time>2023-03-21T10:55:11+00:00</time>
        <ele>2450.0</ele>
      </trkpt>
      <trkpt lat="42.775099" lon="-0.109205">
        <time>2023-03-21T10:55:21+00:00</time>
        <ele>2450.0</ele>
      </trkpt>
      <trkpt lat="42.775068" lon="-0.109244">
        <time>2023-03-21T10:55:38+00:00</time>
        <ele>2450.0</ele>
      </trkpt>
      <trkpt lat="42.774987" lon="-0.109373">
        <time>2023-03-21T10:55:43+00:00</time>
        <ele>2450.0</ele>
      </trkpt>
      <trkpt lat="42.774947" lon="-0.10948">
        <time>2023-03-21T10:55:45+00:00</time>
        <ele>2450.0</ele>
      </trkpt>
      <trkpt lat="42.774772" lon="-0.109687">
        <time>2023-03-21T10:55:49+00:00</time>
        <ele>2448.0</ele>
      </trkpt>
      <trkpt lat="42.774705" lon="-0.109798">
        <time>2023-03-21T10:55:51+00:00</time>
        <ele>2449.0</ele>
      </trkpt>
      <trkpt lat="42.774691" lon="-0.109972">
        <time>2023-03-21T10:55:53+00:00</time>
        <ele>2447.0</ele>
      </trkpt>
      <trkpt lat="42.774682" lon="-0.110179">
        <time>2023-03-21T10:55:55+00:00</time>
        <ele>2445.0</ele>
      </trkpt>
      <trkpt lat="42.774611" lon="-0.110449">
        <time>2023-03-21T10:56:00+00:00</time>
        <ele>2436.0</ele>
      </trkpt>
      <trkpt lat="42.774625" lon="-0.110585">
        <time>2023-03-21T10:56:02+00:00</time>
        <ele>2431.0</ele>
      </trkpt>
      <trkpt lat="42.774625" lon="-0.110753">
        <time>2023-03-21T10:56:05+00:00</time>
        <ele>2424.0</ele>
      </trkpt>
      <trkpt lat="42.774742" lon="-0.11103">
        <time>2023-03-21T10:56:11+00:00</time>
        <ele>2416.0</ele>
      </trkpt>
      <trkpt lat="42.774937" lon="-0.111308">
        <time>2023-03-21T10:56:16+00:00</time>
        <ele>2413.0</ele>
      </trkpt>
      <trkpt lat="42.775081" lon="-0.111409">
        <time>2023-03-21T10:56:19+00:00</time>
        <ele>2414.0</ele>
      </trkpt>
      <trkpt lat="42.77533" lon="-0.111639">
        <time>2023-03-21T10:56:25+00:00</time>
        <ele>2411.0</ele>
      </trkpt>
      <trkpt lat="42.775525" lon="-0.111887">
        <time>2023-03-21T10:56:30+00:00</time>
        <ele>2405.0</ele>
      </trkpt>
      <trkpt lat="42.775622" lon="-0.111984">
        <time>2023-03-21T10:56:32+00:00</time>
        <ele>2404.0</ele>
      </trkpt>
      <trkpt lat="42.775848" lon="-0.112145">
        <time>2023-03-21T10:56:36+00:00</time>
        <ele>2405.0</ele>
      </trkpt>
      <trkpt lat="42.775967" lon="-0.11222">
        <time>2023-03-21T10:56:38+00:00</time>
        <ele>2405.0</ele>
      </trkpt>
      <trkpt lat="42.775999" lon="-0.112368">
        <time>2023-03-21T10:56:41+00:00</time>
        <ele>2397.0</ele>
      </trkpt>
      <trkpt lat="42.775957" lon="-0.112429">
        <time>2023-03-21T10:56:42+00:00</time>
        <ele>2391.0</ele>
      </trkpt>
      <trkpt lat="42.775952" lon="-0.112512">
        <time>2023-03-21T10:56:43+00:00</time>
        <ele>2385.0</ele>
      </trkpt>
      <trkpt lat="42.775948" lon="-0.112601">
        <time>2023-03-21T10:56:44+00:00</time>
        <ele>2379.0</ele>
      </trkpt>
      <trkpt lat="42.775913" lon="-0.112687">
        <time>2023-03-21T10:56:45+00:00</time>
        <ele>2374.0</ele>
      </trkpt>
      <trkpt lat="42.775891" lon="-0.112775">
        <time>2023-03-21T10:56:46+00:00</time>
        <ele>2370.0</ele>
      </trkpt>
      <trkpt lat="42.775873" lon="-0.112863">
        <time>2023-03-21T10:56:47+00:00</time>
        <ele>2366.0</ele>
      </trkpt>
      <trkpt lat="42.775826" lon="-0.112936">
        <time>2023-03-21T10:56:48+00:00</time>
        <ele>2362.0</ele>
      </trkpt>
      <trkpt lat="42.775791" lon="-0.113018">
        <time>2023-03-21T10:56:49+00:00</time>
        <ele>2357.0</ele>
      </trkpt>
      <trkpt lat="42.775776" lon="-0.113113">
        <time>2023-03-21T10:56:50+00:00</time>
        <ele>2353.0</ele>
      </trkpt>
      <trkpt lat="42.775733" lon="-0.113186">
        <time>2023-03-21T10:56:51+00:00</time>
        <ele>2349.0</ele>
      </trkpt>
      <trkpt lat="42.775675" lon="-0.113264">
        <time>2023-03-21T10:56:52+00:00</time>
        <ele>2346.0</ele>
      </trkpt>
      <trkpt lat="42.775643" lon="-0.113395">
        <time>2023-03-21T10:56:53+00:00</time>
        <ele>2341.0</ele>
      </trkpt>
      <trkpt lat="42.775653" lon="-0.113543">
        <time>2023-03-21T10:56:54+00:00</time>
        <ele>2336.0</ele>
      </trkpt>
      <trkpt lat="42.775705" lon="-0.113698">
        <time>2023-03-21T10:56:55+00:00</time>
        <ele>2332.0</ele>
      </trkpt>
      <trkpt lat="42.775761" lon="-0.113805">
        <time>2023-03-21T10:56:56+00:00</time>
        <ele>2329.0</ele>
      </trkpt>
      <trkpt lat="42.775886" lon="-0.113937">
        <time>2023-03-21T10:56:58+00:00</time>
        <ele>2329.0</ele>
      </trkpt>
      <trkpt lat="42.775941" lon="-0.113996">
        <time>2023-03-21T10:56:59+00:00</time>
        <ele>2329.0</ele>
      </trkpt>
      <trkpt lat="42.77596" lon="-0.11418">
        <time>2023-03-21T10:57:02+00:00</time>
        <ele>2325.0</ele>
      </trkpt>
      <trkpt lat="42.77597" lon="-0.114352">
        <time>2023-03-21T10:57:04+00:00</time>
        <ele>2321.0</ele>
      </trkpt>
      <trkpt lat="42.775972" lon="-0.114443">
        <time>2023-03-21T10:57:05+00:00</time>
        <ele>2319.0</ele>
      </trkpt>
      <trkpt lat="42.775994" lon="-0.114513">
        <time>2023-03-21T10:57:06+00:00</time>
        <ele>2317.0</ele>
      </trkpt>
      <trkpt lat="42.776028" lon="-0.114587">
        <time>2023-03-21T10:57:07+00:00</time>
        <ele>2316.0</ele>
      </trkpt>
      <trkpt lat="42.776044" lon="-0.114674">
        <time>2023-03-21T10:57:08+00:00</time>
        <ele>2314.0</ele>
      </trkpt>
      <trkpt lat="42.776053" lon="-0.114766">
        <time>2023-03-21T10:57:09+00:00</time>
        <ele>2311.0</ele>
      </trkpt>
      <trkpt lat="42.776085" lon="-0.114844">
        <time>2023-03-21T10:57:10+00:00</time>
        <ele>2310.0</ele>
      </trkpt>
      <trkpt lat="42.776214" lon="-0.115067">
        <time>2023-03-21T10:57:14+00:00</time>
        <ele>2308.0</ele>
      </trkpt>
      <trkpt lat="42.776248" lon="-0.115111">
        <time>2023-03-21T10:57:21+00:00</time>
        <ele>2308.0</ele>
      </trkpt>
      <trkpt lat="42.776235" lon="-0.115115">
        <time>2023-03-21T10:57:34+00:00</time>
        <ele>2307.0</ele>
      </trkpt>
      <trkpt lat="42.776227" lon="-0.115108">
        <time>2023-03-21T10:57:38+00:00</time>
        <ele>2307.0</ele>
      </trkpt>
      <trkpt lat="42.776237" lon="-0.115099">
        <time>2023-03-21T10:58:00+00:00</time>
        <ele>2308.0</ele>
      </trkpt>
      <trkpt lat="42.776239" lon="-0.115095">
        <time>2023-03-21T10:58:29+00:00</time>
        <ele>2308.0</ele>
      </trkpt>
      <trkpt lat="42.776242" lon="-0.115099">
        <time>2023-03-21T10:58:46+00:00</time>
        <ele>2308.0</ele>
      </trkpt>
      <trkpt lat="42.776238" lon="-0.115096">
        <time>2023-03-21T10:58:49+00:00</time>
        <ele>2308.0</ele>
      </trkpt>
      <trkpt lat="42.776245" lon="-0.115094">
        <time>2023-03-21T10:59:09+00:00</time>
        <ele>2308.0</ele>
      </trkpt>
      <trkpt lat="42.77624" lon="-0.115081">
        <time>2023-03-21T10:59:22+00:00</time>
        <ele>2308.0</ele>
      </trkpt>
      <trkpt lat="42.776242" lon="-0.115097">
        <time>2023-03-21T10:59:41+00:00</time>
        <ele>2308.0</ele>
      </trkpt>
      <trkpt lat="42.776241" lon="-0.115095">
        <time>2023-03-21T11:00:09+00:00</time>
        <ele>2308.0</ele>
      </trkpt>
      <trkpt lat="42.776257" lon="-0.115081">
        <time>2023-03-21T11:00:28+00:00</time>
        <ele>2309.0</ele>
      </trkpt>
      <trkpt lat="42.776246" lon="-0.115078">
        <time>2023-03-21T11:00:53+00:00</time>
        <ele>2308.0</ele>
      </trkpt>
      <trkpt lat="42.776247" lon="-0.115082">
        <time>2023-03-21T11:01:00+00:00</time>
        <ele>2308.0</ele>
      </trkpt>
      <trkpt lat="42.776247" lon="-0.115082">
        <time>2023-03-21T11:01:01+00:00</time>
        <ele>2308.0</ele>
      </trkpt>
      <trkpt lat="42.776249" lon="-0.115081">
        <time>2023-03-21T11:01:02+00:00</time>
        <ele>2308.0</ele>
      </trkpt>
      <trkpt lat="42.776248" lon="-0.115079">
        <time>2023-03-21T11:01:03+00:00</time>
        <ele>2308.0</ele>
      </trkpt>
      <trkpt lat="42.776257" lon="-0.115078">
        <time>2023-03-21T11:01:24+00:00</time>
        <ele>2309.0</ele>
      </trkpt>
      <trkpt lat="42.776297" lon="-0.115069">
        <time>2023-03-21T11:01:52+00:00</time>
        <ele>2310.0</ele>
      </trkpt>
      <trkpt lat="42.776294" lon="-0.115073">
        <time>2023-03-21T11:02:00+00:00</time>
        <ele>2310.0</ele>
      </trkpt>
      <trkpt lat="42.776295" lon="-0.115074">
        <time>2023-03-21T11:02:01+00:00</time>
        <ele>2310.0</ele>
      </trkpt>
      <trkpt lat="42.776276" lon="-0.115099">
        <time>2023-03-21T11:02:15+00:00</time>
        <ele>2309.0</ele>
      </trkpt>
      <trkpt lat="42.77627" lon="-0.115102">
        <time>2023-03-21T11:02:18+00:00</time>
        <ele>2309.0</ele>
      </trkpt>
      <trkpt lat="42.776267" lon="-0.115104">
        <time>2023-03-21T11:02:20+00:00</time>
        <ele>2308.0</ele>
      </trkpt>
      <trkpt lat="42.776268" lon="-0.115094">
        <time>2023-03-21T11:02:51+00:00</time>
        <ele>2309.0</ele>
      </trkpt>
      <trkpt lat="42.776244" lon="-0.115102">
        <time>2023-03-21T11:03:17+00:00</time>
        <ele>2308.0</ele>
      </trkpt>
      <trkpt lat="42.77624" lon="-0.115121">
        <time>2023-03-21T11:03:51+00:00</time>
        <ele>2307.0</ele>
      </trkpt>
      <trkpt lat="42.776287" lon="-0.115044">
        <time>2023-03-21T11:04:26+00:00</time>
        <ele>2311.0</ele>
      </trkpt>
      <trkpt lat="42.776289" lon="-0.115045">
        <time>2023-03-21T11:04:55+00:00</time>
        <ele>2311.0</ele>
      </trkpt>
      <trkpt lat="42.776287" lon="-0.115058">
        <time>2023-03-21T11:05:04+00:00</time>
        <ele>2310.0</ele>
      </trkpt>
      <trkpt lat="42.77628" lon="-0.115066">
        <time>2023-03-21T11:05:09+00:00</time>
        <ele>2310.0</ele>
      </trkpt>
      <trkpt lat="42.776307" lon="-0.115058">
        <time>2023-03-21T11:05:39+00:00</time>
        <ele>2311.0</ele>
      </trkpt>
      <trkpt lat="42.776291" lon="-0.115067">
        <time>2023-03-21T11:06:18+00:00</time>
        <ele>2310.0</ele>
      </trkpt>
      <trkpt lat="42.776296" lon="-0.115051">
        <time>2023-03-21T11:06:23+00:00</time>
        <ele>2311.0</ele>
      </trkpt>
      <trkpt lat="42.776297" lon="-0.115052">
        <time>2023-03-21T11:06:24+00:00</time>
        <ele>2311.0</ele>
      </trkpt>
      <trkpt lat="42.776295" lon="-0.115056">
        <time>2023-03-21T11:06:26+00:00</time>
        <ele>2310.0</ele>
      </trkpt>
      <trkpt lat="42.776292" lon="-0.11506">
        <time>2023-03-21T11:06:27+00:00</time>
        <ele>2310.0</ele>
      </trkpt>
      <trkpt lat="42.776291" lon="-0.115062">
        <time>2023-03-21T11:06:29+00:00</time>
        <ele>2310.0</ele>
      </trkpt>
      <trkpt lat="42.776263" lon="-0.115073">
        <time>2023-03-21T11:06:58+00:00</time>
        <ele>2309.0</ele>
      </trkpt>
      <trkpt lat="42.77626" lon="-0.115081">
        <time>2023-03-21T11:07:00+00:00</time>
        <ele>2309.0</ele>
      </trkpt>
      <trkpt lat="42.776258" lon="-0.115072">
        <time>2023-03-21T11:07:12+00:00</time>
        <ele>2309.0</ele>
      </trkpt>
      <trkpt lat="42.776269" lon="-0.115022">
        <time>2023-03-21T11:07:28+00:00</time>
        <ele>2311.0</ele>
      </trkpt>
      <trkpt lat="42.776268" lon="-0.11498">
        <time>2023-03-21T11:07:34+00:00</time>
        <ele>2312.0</ele>
      </trkpt>
      <trkpt lat="42.776276" lon="-0.114867">
        <time>2023-03-21T11:07:46+00:00</time>
        <ele>2316.0</ele>
      </trkpt>
      <trkpt lat="42.776255" lon="-0.114742">
        <time>2023-03-21T11:08:00+00:00</time>
        <ele>2319.0</ele>
      </trkpt>
      <trkpt lat="42.776305" lon="-0.114783">
        <time>2023-03-21T11:08:11+00:00</time>
        <ele>2319.0</ele>
      </trkpt>
      <trkpt lat="42.776378" lon="-0.1148">
        <time>2023-03-21T11:08:23+00:00</time>
        <ele>2322.0</ele>
      </trkpt>
      <trkpt lat="42.776449" lon="-0.114822">
        <time>2023-03-21T11:08:34+00:00</time>
        <ele>2324.0</ele>
      </trkpt>
      <trkpt lat="42.776504" lon="-0.114843">
        <time>2023-03-21T11:08:51+00:00</time>
        <ele>2325.0</ele>
      </trkpt>
      <trkpt lat="42.776574" lon="-0.114882">
        <time>2023-03-21T11:09:03+00:00</time>
        <ele>2327.0</ele>
      </trkpt>
      <trkpt lat="42.776578" lon="-0.114842">
        <time>2023-03-21T11:09:13+00:00</time>
        <ele>2328.0</ele>
      </trkpt>
      <trkpt lat="42.776576" lon="-0.114719">
        <time>2023-03-21T11:09:24+00:00</time>
        <ele>2333.0</ele>
      </trkpt>
      <trkpt lat="42.776556" lon="-0.114637">
        <time>2023-03-21T11:09:39+00:00</time>
        <ele>2335.0</ele>
      </trkpt>
      <trkpt lat="42.7766" lon="-0.114648">
        <time>2023-03-21T11:09:49+00:00</time>
        <ele>2337.0</ele>
      </trkpt>
      <trkpt lat="42.776644" lon="-0.114715">
        <time>2023-03-21T11:10:06+00:00</time>
        <ele>2336.0</ele>
      </trkpt>
      <trkpt lat="42.776729" lon="-0.114759">
        <time>2023-03-21T11:10:18+00:00</time>
        <ele>2337.0</ele>
      </trkpt>
      <trkpt lat="42.7768" lon="-0.114824">
        <time>2023-03-21T11:10:36+00:00</time>
        <ele>2338.0</ele>
      </trkpt>
      <trkpt lat="42.776826" lon="-0.114917">
        <time>2023-03-21T11:10:47+00:00</time>
        <ele>2337.0</ele>
      </trkpt>
      <trkpt lat="42.776867" lon="-0.114984">
        <time>2023-03-21T11:11:02+00:00</time>
        <ele>2337.0</ele>
      </trkpt>
      <trkpt lat="42.776946" lon="-0.115019">
        <time>2023-03-21T11:11:14+00:00</time>
        <ele>2340.0</ele>
      </trkpt>
      <trkpt lat="42.77701" lon="-0.115081">
        <time>2023-03-21T11:11:29+00:00</time>
        <ele>2342.0</ele>
      </trkpt>
      <trkpt lat="42.777073" lon="-0.115039">
        <time>2023-03-21T11:11:48+00:00</time>
        <ele>2346.0</ele>
      </trkpt>
      <trkpt lat="42.777053" lon="-0.11502">
        <time>2023-03-21T11:12:02+00:00</time>
        <ele>2346.0</ele>
      </trkpt>
      <trkpt lat="42.777073" lon="-0.114962">
        <time>2023-03-21T11:12:15+00:00</time>
        <ele>2348.0</ele>
      </trkpt>
      <trkpt lat="42.777079" lon="-0.114853">
        <time>2023-03-21T11:12:29+00:00</time>
        <ele>2351.0</ele>
      </trkpt>
      <trkpt lat="42.777099" lon="-0.114801">
        <time>2023-03-21T11:12:42+00:00</time>
        <ele>2354.0</ele>
      </trkpt>
      <trkpt lat="42.777168" lon="-0.114826">
        <time>2023-03-21T11:12:54+00:00</time>
        <ele>2356.0</ele>
      </trkpt>
      <trkpt lat="42.777241" lon="-0.114888">
        <time>2023-03-21T11:13:06+00:00</time>
        <ele>2358.0</ele>
      </trkpt>
      <trkpt lat="42.777304" lon="-0.114945">
        <time>2023-03-21T11:13:22+00:00</time>
        <ele>2359.0</ele>
      </trkpt>
      <trkpt lat="42.777362" lon="-0.115008">
        <time>2023-03-21T11:13:33+00:00</time>
        <ele>2361.0</ele>
      </trkpt>
      <trkpt lat="42.777406" lon="-0.115015">
        <time>2023-03-21T11:13:51+00:00</time>
        <ele>2363.0</ele>
      </trkpt>
      <trkpt lat="42.7774" lon="-0.114933">
        <time>2023-03-21T11:14:04+00:00</time>
        <ele>2365.0</ele>
      </trkpt>
      <trkpt lat="42.777418" lon="-0.114826">
        <time>2023-03-21T11:14:17+00:00</time>
        <ele>2369.0</ele>
      </trkpt>
      <trkpt lat="42.77743" lon="-0.114786">
        <time>2023-03-21T11:14:23+00:00</time>
        <ele>2371.0</ele>
      </trkpt>
      <trkpt lat="42.777483" lon="-0.11484">
        <time>2023-03-21T11:14:34+00:00</time>
        <ele>2373.0</ele>
      </trkpt>
      <trkpt lat="42.777531" lon="-0.11491">
        <time>2023-03-21T11:14:46+00:00</time>
        <ele>2373.0</ele>
      </trkpt>
      <trkpt lat="42.777598" lon="-0.114931">
        <time>2023-03-21T11:15:01+00:00</time>
        <ele>2377.0</ele>
      </trkpt>
      <trkpt lat="42.77766" lon="-0.114937">
        <time>2023-03-21T11:15:13+00:00</time>
        <ele>2380.0</ele>
      </trkpt>
      <trkpt lat="42.777751" lon="-0.114915">
        <time>2023-03-21T11:15:27+00:00</time>
        <ele>2386.0</ele>
      </trkpt>
      <trkpt lat="42.777819" lon="-0.114953">
        <time>2023-03-21T11:15:41+00:00</time>
        <ele>2388.0</ele>
      </trkpt>
      <trkpt lat="42.777881" lon="-0.114932">
        <time>2023-03-21T11:15:53+00:00</time>
        <ele>2392.0</ele>
      </trkpt>
      <trkpt lat="42.777833" lon="-0.114915">
        <time>2023-03-21T11:16:05+00:00</time>
        <ele>2390.0</ele>
      </trkpt>
      <trkpt lat="42.777784" lon="-0.114863">
        <time>2023-03-21T11:16:18+00:00</time>
        <ele>2390.0</ele>
      </trkpt>
      <trkpt lat="42.777789" lon="-0.114806">
        <time>2023-03-21T11:16:29+00:00</time>
        <ele>2393.0</ele>
      </trkpt>
      <trkpt lat="42.777861" lon="-0.114799">
        <time>2023-03-21T11:16:43+00:00</time>
        <ele>2397.0</ele>
      </trkpt>
      <trkpt lat="42.777943" lon="-0.114805">
        <time>2023-03-21T11:16:57+00:00</time>
        <ele>2401.0</ele>
      </trkpt>
      <trkpt lat="42.778023" lon="-0.114835">
        <time>2023-03-21T11:17:10+00:00</time>
        <ele>2403.0</ele>
      </trkpt>
      <trkpt lat="42.778099" lon="-0.114883">
        <time>2023-03-21T11:17:25+00:00</time>
        <ele>2405.0</ele>
      </trkpt>
      <trkpt lat="42.778151" lon="-0.114948">
        <time>2023-03-21T11:17:39+00:00</time>
        <ele>2405.0</ele>
      </trkpt>
      <trkpt lat="42.778198" lon="-0.115025">
        <time>2023-03-21T11:17:53+00:00</time>
        <ele>2403.0</ele>
      </trkpt>
      <trkpt lat="42.778267" lon="-0.115071">
        <time>2023-03-21T11:18:07+00:00</time>
        <ele>2405.0</ele>
      </trkpt>
      <trkpt lat="42.778313" lon="-0.115137">
        <time>2023-03-21T11:18:19+00:00</time>
        <ele>2406.0</ele>
      </trkpt>
      <trkpt lat="42.778335" lon="-0.115222">
        <time>2023-03-21T11:18:31+00:00</time>
        <ele>2405.0</ele>
      </trkpt>
      <trkpt lat="42.778343" lon="-0.115261">
        <time>2023-03-21T11:18:36+00:00</time>
        <ele>2404.0</ele>
      </trkpt>
      <trkpt lat="42.778336" lon="-0.115276">
        <time>2023-03-21T11:18:49+00:00</time>
        <ele>2404.0</ele>
      </trkpt>
      <trkpt lat="42.778342" lon="-0.115263">
        <time>2023-03-21T11:19:07+00:00</time>
        <ele>2404.0</ele>
      </trkpt>
      <trkpt lat="42.778344" lon="-0.115284">
        <time>2023-03-21T11:19:31+00:00</time>
        <ele>2404.0</ele>
      </trkpt>
      <trkpt lat="42.778393" lon="-0.115236">
        <time>2023-03-21T11:19:43+00:00</time>
        <ele>2407.0</ele>
      </trkpt>
      <trkpt lat="42.778459" lon="-0.115152">
        <time>2023-03-21T11:19:56+00:00</time>
        <ele>2413.0</ele>
      </trkpt>
      <trkpt lat="42.778502" lon="-0.115082">
        <time>2023-03-21T11:20:07+00:00</time>
        <ele>2416.0</ele>
      </trkpt>
      <trkpt lat="42.778509" lon="-0.115104">
        <time>2023-03-21T11:20:18+00:00</time>
        <ele>2416.0</ele>
      </trkpt>
      <trkpt lat="42.778537" lon="-0.115145">
        <time>2023-03-21T11:20:36+00:00</time>
        <ele>2417.0</ele>
      </trkpt>
      <trkpt lat="42.778584" lon="-0.115252">
        <time>2023-03-21T11:20:53+00:00</time>
        <ele>2417.0</ele>
      </trkpt>
      <trkpt lat="42.778614" lon="-0.115241">
        <time>2023-03-21T11:21:04+00:00</time>
        <ele>2420.0</ele>
      </trkpt>
      <trkpt lat="42.778642" lon="-0.115165">
        <time>2023-03-21T11:21:18+00:00</time>
        <ele>2423.0</ele>
      </trkpt>
      <trkpt lat="42.778661" lon="-0.115139">
        <time>2023-03-21T11:21:29+00:00</time>
        <ele>2424.0</ele>
      </trkpt>
      <trkpt lat="42.778699" lon="-0.115204">
        <time>2023-03-21T11:21:41+00:00</time>
        <ele>2425.0</ele>
      </trkpt>
      <trkpt lat="42.778725" lon="-0.115223">
        <time>2023-03-21T11:21:51+00:00</time>
        <ele>2427.0</ele>
      </trkpt>
      <trkpt lat="42.778738" lon="-0.115159">
        <time>2023-03-21T11:22:03+00:00</time>
        <ele>2429.0</ele>
      </trkpt>
      <trkpt lat="42.778791" lon="-0.115202">
        <time>2023-03-21T11:22:14+00:00</time>
        <ele>2431.0</ele>
      </trkpt>
      <trkpt lat="42.778786" lon="-0.115146">
        <time>2023-03-21T11:22:24+00:00</time>
        <ele>2432.0</ele>
      </trkpt>
      <trkpt lat="42.778839" lon="-0.115151">
        <time>2023-03-21T11:22:34+00:00</time>
        <ele>2435.0</ele>
      </trkpt>
      <trkpt lat="42.778856" lon="-0.115143">
        <time>2023-03-21T11:22:44+00:00</time>
        <ele>2436.0</ele>
      </trkpt>
      <trkpt lat="42.778878" lon="-0.115126">
        <time>2023-03-21T11:22:57+00:00</time>
        <ele>2437.0</ele>
      </trkpt>
      <trkpt lat="42.778927" lon="-0.115149">
        <time>2023-03-21T11:23:08+00:00</time>
        <ele>2440.0</ele>
      </trkpt>
      <trkpt lat="42.778928" lon="-0.115103">
        <time>2023-03-21T11:23:19+00:00</time>
        <ele>2440.0</ele>
      </trkpt>
      <trkpt lat="42.778958" lon="-0.115097">
        <time>2023-03-21T11:23:31+00:00</time>
        <ele>2441.0</ele>
      </trkpt>
      <trkpt lat="42.778984" lon="-0.115089">
        <time>2023-03-21T11:23:42+00:00</time>
        <ele>2442.0</ele>
      </trkpt>
      <trkpt lat="42.779" lon="-0.115059">
        <time>2023-03-21T11:23:54+00:00</time>
        <ele>2442.0</ele>
      </trkpt>
      <trkpt lat="42.779045" lon="-0.1151">
        <time>2023-03-21T11:24:08+00:00</time>
        <ele>2444.0</ele>
      </trkpt>
      <trkpt lat="42.77907" lon="-0.115061">
        <time>2023-03-21T11:24:16+00:00</time>
        <ele>2445.0</ele>
      </trkpt>
      <trkpt lat="42.779134" lon="-0.115031">
        <time>2023-03-21T11:24:31+00:00</time>
        <ele>2447.0</ele>
      </trkpt>
      <trkpt lat="42.779183" lon="-0.114993">
        <time>2023-03-21T11:24:39+00:00</time>
        <ele>2447.0</ele>
      </trkpt>
      <trkpt lat="42.77931" lon="-0.114907">
        <time>2023-03-21T11:24:52+00:00</time>
        <ele>2449.0</ele>
      </trkpt>
      <trkpt lat="42.779439" lon="-0.114892">
        <time>2023-03-21T11:25:08+00:00</time>
        <ele>2450.0</ele>
      </trkpt>
      <trkpt lat="42.77946" lon="-0.11488">
        <time>2023-03-21T11:25:11+00:00</time>
        <ele>2450.0</ele>
      </trkpt>
      <trkpt lat="42.779553" lon="-0.114854">
        <time>2023-03-21T11:25:24+00:00</time>
        <ele>2450.0</ele>
      </trkpt>
      <trkpt lat="42.779614" lon="-0.114862">
        <time>2023-03-21T11:25:33+00:00</time>
        <ele>2451.0</ele>
      </trkpt>
      <trkpt lat="42.779702" lon="-0.114899">
        <time>2023-03-21T11:25:46+00:00</time>
        <ele>2452.0</ele>
      </trkpt>
      <trkpt lat="42.779803" lon="-0.114942">
        <time>2023-03-21T11:26:02+00:00</time>
        <ele>2454.0</ele>
      </trkpt>
      <trkpt lat="42.779885" lon="-0.114983">
        <time>2023-03-21T11:26:14+00:00</time>
        <ele>2456.0</ele>
      </trkpt>
      <trkpt lat="42.779936" lon="-0.115021">
        <time>2023-03-21T11:26:25+00:00</time>
        <ele>2457.0</ele>
      </trkpt>
      <trkpt lat="42.780059" lon="-0.115124">
        <time>2023-03-21T11:26:39+00:00</time>
        <ele>2460.0</ele>
      </trkpt>
      <trkpt lat="42.780159" lon="-0.11519">
        <time>2023-03-21T11:26:53+00:00</time>
        <ele>2461.0</ele>
      </trkpt>
      <trkpt lat="42.780247" lon="-0.11527">
        <time>2023-03-21T11:27:06+00:00</time>
        <ele>2462.0</ele>
      </trkpt>
      <trkpt lat="42.780352" lon="-0.115355">
        <time>2023-03-21T11:27:20+00:00</time>
        <ele>2462.0</ele>
      </trkpt>
      <trkpt lat="42.780442" lon="-0.11541">
        <time>2023-03-21T11:27:32+00:00</time>
        <ele>2463.0</ele>
      </trkpt>
      <trkpt lat="42.780552" lon="-0.115486">
        <time>2023-03-21T11:27:45+00:00</time>
        <ele>2464.0</ele>
      </trkpt>
      <trkpt lat="42.780633" lon="-0.115525">
        <time>2023-03-21T11:27:57+00:00</time>
        <ele>2466.0</ele>
      </trkpt>
      <trkpt lat="42.780674" lon="-0.115474">
        <time>2023-03-21T11:28:06+00:00</time>
        <ele>2467.0</ele>
      </trkpt>
      <trkpt lat="42.780679" lon="-0.115371">
        <time>2023-03-21T11:28:21+00:00</time>
        <ele>2468.0</ele>
      </trkpt>
      <trkpt lat="42.780723" lon="-0.115422">
        <time>2023-03-21T11:28:29+00:00</time>
        <ele>2470.0</ele>
      </trkpt>
      <trkpt lat="42.780762" lon="-0.115502">
        <time>2023-03-21T11:28:41+00:00</time>
        <ele>2472.0</ele>
      </trkpt>
      <trkpt lat="42.780789" lon="-0.115596">
        <time>2023-03-21T11:28:55+00:00</time>
        <ele>2474.0</ele>
      </trkpt>
      <trkpt lat="42.780753" lon="-0.115593">
        <time>2023-03-21T11:29:12+00:00</time>
        <ele>2471.0</ele>
      </trkpt>
      <trkpt lat="42.780785" lon="-0.115575">
        <time>2023-03-21T11:29:37+00:00</time>
        <ele>2473.0</ele>
      </trkpt>
      <trkpt lat="42.780777" lon="-0.115651">
        <time>2023-03-21T11:29:51+00:00</time>
        <ele>2474.0</ele>
      </trkpt>
      <trkpt lat="42.780847" lon="-0.115602">
        <time>2023-03-21T11:30:05+00:00</time>
        <ele>2478.0</ele>
      </trkpt>
      <trkpt lat="42.780848" lon="-0.115647">
        <time>2023-03-21T11:30:14+00:00</time>
        <ele>2478.0</ele>
      </trkpt>
      <trkpt lat="42.780827" lon="-0.115742">
        <time>2023-03-21T11:30:26+00:00</time>
        <ele>2478.0</ele>
      </trkpt>
      <trkpt lat="42.780809" lon="-0.115836">
        <time>2023-03-21T11:30:40+00:00</time>
        <ele>2478.0</ele>
      </trkpt>
      <trkpt lat="42.780805" lon="-0.115937">
        <time>2023-03-21T11:30:53+00:00</time>
        <ele>2480.0</ele>
      </trkpt>
      <trkpt lat="42.78078" lon="-0.116034">
        <time>2023-03-21T11:31:07+00:00</time>
        <ele>2482.0</ele>
      </trkpt>
      <trkpt lat="42.780785" lon="-0.116058">
        <time>2023-03-21T11:31:12+00:00</time>
        <ele>2483.0</ele>
      </trkpt>
      <trkpt lat="42.780849" lon="-0.116036">
        <time>2023-03-21T11:31:23+00:00</time>
        <ele>2485.0</ele>
      </trkpt>
      <trkpt lat="42.780925" lon="-0.116028">
        <time>2023-03-21T11:31:37+00:00</time>
        <ele>2489.0</ele>
      </trkpt>
      <trkpt lat="42.780955" lon="-0.11598">
        <time>2023-03-21T11:31:51+00:00</time>
        <ele>2492.0</ele>
      </trkpt>
      <trkpt lat="42.78093" lon="-0.11604">
        <time>2023-03-21T11:32:01+00:00</time>
        <ele>2490.0</ele>
      </trkpt>
      <trkpt lat="42.780898" lon="-0.116132">
        <time>2023-03-21T11:32:14+00:00</time>
        <ele>2489.0</ele>
      </trkpt>
      <trkpt lat="42.780864" lon="-0.116236">
        <time>2023-03-21T11:32:28+00:00</time>
        <ele>2491.0</ele>
      </trkpt>
      <trkpt lat="42.780841" lon="-0.116321">
        <time>2023-03-21T11:32:39+00:00</time>
        <ele>2493.0</ele>
      </trkpt>
      <trkpt lat="42.780827" lon="-0.116405">
        <time>2023-03-21T11:32:52+00:00</time>
        <ele>2496.0</ele>
      </trkpt>
      <trkpt lat="42.780836" lon="-0.11653">
        <time>2023-03-21T11:33:08+00:00</time>
        <ele>2499.0</ele>
      </trkpt>
      <trkpt lat="42.780818" lon="-0.116585">
        <time>2023-03-21T11:33:20+00:00</time>
        <ele>2500.0</ele>
      </trkpt>
      <trkpt lat="42.780846" lon="-0.116647">
        <time>2023-03-21T11:33:32+00:00</time>
        <ele>2502.0</ele>
      </trkpt>
      <trkpt lat="42.780922" lon="-0.116654">
        <time>2023-03-21T11:33:47+00:00</time>
        <ele>2503.0</ele>
      </trkpt>
      <trkpt lat="42.780948" lon="-0.116639">
        <time>2023-03-21T11:34:05+00:00</time>
        <ele>2504.0</ele>
      </trkpt>
      <trkpt lat="42.780924" lon="-0.11677">
        <time>2023-03-21T11:34:19+00:00</time>
        <ele>2506.0</ele>
      </trkpt>
      <trkpt lat="42.780909" lon="-0.116881">
        <time>2023-03-21T11:34:35+00:00</time>
        <ele>2508.0</ele>
      </trkpt>
      <trkpt lat="42.780897" lon="-0.11701">
        <time>2023-03-21T11:34:48+00:00</time>
        <ele>2512.0</ele>
      </trkpt>
      <trkpt lat="42.78092" lon="-0.117132">
        <time>2023-03-21T11:34:59+00:00</time>
        <ele>2515.0</ele>
      </trkpt>
      <trkpt lat="42.780918" lon="-0.117216">
        <time>2023-03-21T11:35:12+00:00</time>
        <ele>2517.0</ele>
      </trkpt>
      <trkpt lat="42.780904" lon="-0.117313">
        <time>2023-03-21T11:35:24+00:00</time>
        <ele>2519.0</ele>
      </trkpt>
      <trkpt lat="42.780897" lon="-0.11739">
        <time>2023-03-21T11:35:36+00:00</time>
        <ele>2520.0</ele>
      </trkpt>
      <trkpt lat="42.780898" lon="-0.117471">
        <time>2023-03-21T11:35:52+00:00</time>
        <ele>2522.0</ele>
      </trkpt>
      <trkpt lat="42.780925" lon="-0.117542">
        <time>2023-03-21T11:36:04+00:00</time>
        <ele>2524.0</ele>
      </trkpt>
      <trkpt lat="42.780938" lon="-0.11761">
        <time>2023-03-21T11:36:15+00:00</time>
        <ele>2525.0</ele>
      </trkpt>
      <trkpt lat="42.780883" lon="-0.11773">
        <time>2023-03-21T11:36:31+00:00</time>
        <ele>2527.0</ele>
      </trkpt>
      <trkpt lat="42.780818" lon="-0.117796">
        <time>2023-03-21T11:36:46+00:00</time>
        <ele>2531.0</ele>
      </trkpt>
      <trkpt lat="42.780824" lon="-0.117872">
        <time>2023-03-21T11:36:59+00:00</time>
        <ele>2533.0</ele>
      </trkpt>
      <trkpt lat="42.780843" lon="-0.117953">
        <time>2023-03-21T11:37:13+00:00</time>
        <ele>2535.0</ele>
      </trkpt>
      <trkpt lat="42.780811" lon="-0.11803">
        <time>2023-03-21T11:37:26+00:00</time>
        <ele>2538.0</ele>
      </trkpt>
      <trkpt lat="42.780742" lon="-0.118056">
        <time>2023-03-21T11:37:39+00:00</time>
        <ele>2541.0</ele>
      </trkpt>
      <trkpt lat="42.780781" lon="-0.118146">
        <time>2023-03-21T11:37:49+00:00</time>
        <ele>2542.0</ele>
      </trkpt>
      <trkpt lat="42.78082" lon="-0.118193">
        <time>2023-03-21T11:38:01+00:00</time>
        <ele>2542.0</ele>
      </trkpt>
      <trkpt lat="42.780877" lon="-0.118264">
        <time>2023-03-21T11:38:15+00:00</time>
        <ele>2542.0</ele>
      </trkpt>
      <trkpt lat="42.780913" lon="-0.118321">
        <time>2023-03-21T11:38:27+00:00</time>
        <ele>2543.0</ele>
      </trkpt>
      <trkpt lat="42.780962" lon="-0.118417">
        <time>2023-03-21T11:38:39+00:00</time>
        <ele>2547.0</ele>
      </trkpt>
      <trkpt lat="42.781021" lon="-0.118487">
        <time>2023-03-21T11:38:53+00:00</time>
        <ele>2549.0</ele>
      </trkpt>
      <trkpt lat="42.781065" lon="-0.118588">
        <time>2023-03-21T11:39:08+00:00</time>
        <ele>2552.0</ele>
      </trkpt>
      <trkpt lat="42.781109" lon="-0.118691">
        <time>2023-03-21T11:39:21+00:00</time>
        <ele>2553.0</ele>
      </trkpt>
      <trkpt lat="42.781103" lon="-0.118792">
        <time>2023-03-21T11:39:33+00:00</time>
        <ele>2554.0</ele>
      </trkpt>
      <trkpt lat="42.781102" lon="-0.118819">
        <time>2023-03-21T11:39:37+00:00</time>
        <ele>2555.0</ele>
      </trkpt>
      <trkpt lat="42.781091" lon="-0.118925">
        <time>2023-03-21T11:39:51+00:00</time>
        <ele>2556.0</ele>
      </trkpt>
      <trkpt lat="42.781088" lon="-0.119022">
        <time>2023-03-21T11:40:00+00:00</time>
        <ele>2557.0</ele>
      </trkpt>
      <trkpt lat="42.781082" lon="-0.119091">
        <time>2023-03-21T11:40:06+00:00</time>
        <ele>2558.0</ele>
      </trkpt>
      <trkpt lat="42.781073" lon="-0.119192">
        <time>2023-03-21T11:40:14+00:00</time>
        <ele>2559.0</ele>
      </trkpt>
      <trkpt lat="42.781081" lon="-0.119366">
        <time>2023-03-21T11:40:28+00:00</time>
        <ele>2561.0</ele>
      </trkpt>
      <trkpt lat="42.781088" lon="-0.119542">
        <time>2023-03-21T11:40:44+00:00</time>
        <ele>2562.0</ele>
      </trkpt>
      <trkpt lat="42.781108" lon="-0.119656">
        <time>2023-03-21T11:41:00+00:00</time>
        <ele>2563.0</ele>
      </trkpt>
      <trkpt lat="42.781101" lon="-0.119721">
        <time>2023-03-21T11:41:07+00:00</time>
        <ele>2563.0</ele>
      </trkpt>
      <trkpt lat="42.781107" lon="-0.11988">
        <time>2023-03-21T11:41:20+00:00</time>
        <ele>2564.0</ele>
      </trkpt>
      <trkpt lat="42.781133" lon="-0.12">
        <time>2023-03-21T11:41:35+00:00</time>
        <ele>2566.0</ele>
      </trkpt>
      <trkpt lat="42.781129" lon="-0.12014">
        <time>2023-03-21T11:41:50+00:00</time>
        <ele>2568.0</ele>
      </trkpt>
      <trkpt lat="42.781141" lon="-0.120279">
        <time>2023-03-21T11:42:06+00:00</time>
        <ele>2570.0</ele>
      </trkpt>
      <trkpt lat="42.781123" lon="-0.120435">
        <time>2023-03-21T11:42:21+00:00</time>
        <ele>2572.0</ele>
      </trkpt>
      <trkpt lat="42.781126" lon="-0.12054">
        <time>2023-03-21T11:42:32+00:00</time>
        <ele>2574.0</ele>
      </trkpt>
      <trkpt lat="42.781147" lon="-0.120626">
        <time>2023-03-21T11:42:47+00:00</time>
        <ele>2575.0</ele>
      </trkpt>
      <trkpt lat="42.781158" lon="-0.12068">
        <time>2023-03-21T11:42:55+00:00</time>
        <ele>2576.0</ele>
      </trkpt>
      <trkpt lat="42.781173" lon="-0.120831">
        <time>2023-03-21T11:43:08+00:00</time>
        <ele>2579.0</ele>
      </trkpt>
      <trkpt lat="42.781206" lon="-0.12099">
        <time>2023-03-21T11:43:23+00:00</time>
        <ele>2582.0</ele>
      </trkpt>
      <trkpt lat="42.781257" lon="-0.121112">
        <time>2023-03-21T11:43:38+00:00</time>
        <ele>2582.0</ele>
      </trkpt>
      <trkpt lat="42.781319" lon="-0.121237">
        <time>2023-03-21T11:43:53+00:00</time>
        <ele>2582.0</ele>
      </trkpt>
      <trkpt lat="42.781367" lon="-0.121348">
        <time>2023-03-21T11:44:06+00:00</time>
        <ele>2584.0</ele>
      </trkpt>
      <trkpt lat="42.7814" lon="-0.121472">
        <time>2023-03-21T11:44:21+00:00</time>
        <ele>2586.0</ele>
      </trkpt>
      <trkpt lat="42.781425" lon="-0.121557">
        <time>2023-03-21T11:44:33+00:00</time>
        <ele>2587.0</ele>
      </trkpt>
      <trkpt lat="42.78146" lon="-0.121659">
        <time>2023-03-21T11:44:49+00:00</time>
        <ele>2589.0</ele>
      </trkpt>
      <trkpt lat="42.781488" lon="-0.121738">
        <time>2023-03-21T11:45:04+00:00</time>
        <ele>2591.0</ele>
      </trkpt>
      <trkpt lat="42.781516" lon="-0.121866">
        <time>2023-03-21T11:45:19+00:00</time>
        <ele>2594.0</ele>
      </trkpt>
      <trkpt lat="42.781528" lon="-0.121892">
        <time>2023-03-21T11:45:27+00:00</time>
        <ele>2595.0</ele>
      </trkpt>
      <trkpt lat="42.781524" lon="-0.121992">
        <time>2023-03-21T11:45:40+00:00</time>
        <ele>2597.0</ele>
      </trkpt>
      <trkpt lat="42.78148" lon="-0.122123">
        <time>2023-03-21T11:45:57+00:00</time>
        <ele>2599.0</ele>
      </trkpt>
      <trkpt lat="42.781409" lon="-0.122158">
        <time>2023-03-21T11:46:10+00:00</time>
        <ele>2602.0</ele>
      </trkpt>
      <trkpt lat="42.78133" lon="-0.122154">
        <time>2023-03-21T11:46:28+00:00</time>
        <ele>2603.0</ele>
      </trkpt>
      <trkpt lat="42.781256" lon="-0.122135">
        <time>2023-03-21T11:46:39+00:00</time>
        <ele>2605.0</ele>
      </trkpt>
      <trkpt lat="42.781212" lon="-0.122129">
        <time>2023-03-21T11:46:45+00:00</time>
        <ele>2606.0</ele>
      </trkpt>
      <trkpt lat="42.781217" lon="-0.122252">
        <time>2023-03-21T11:47:01+00:00</time>
        <ele>2608.0</ele>
      </trkpt>
      <trkpt lat="42.781223" lon="-0.122343">
        <time>2023-03-21T11:47:16+00:00</time>
        <ele>2610.0</ele>
      </trkpt>
      <trkpt lat="42.781261" lon="-0.122458">
        <time>2023-03-21T11:47:28+00:00</time>
        <ele>2611.0</ele>
      </trkpt>
      <trkpt lat="42.781281" lon="-0.122535">
        <time>2023-03-21T11:47:44+00:00</time>
        <ele>2613.0</ele>
      </trkpt>
      <trkpt lat="42.781208" lon="-0.122588">
        <time>2023-03-21T11:47:56+00:00</time>
        <ele>2615.0</ele>
      </trkpt>
      <trkpt lat="42.781117" lon="-0.1226">
        <time>2023-03-21T11:48:11+00:00</time>
        <ele>2617.0</ele>
      </trkpt>
      <trkpt lat="42.781057" lon="-0.122621">
        <time>2023-03-21T11:48:25+00:00</time>
        <ele>2619.0</ele>
      </trkpt>
      <trkpt lat="42.780988" lon="-0.122698">
        <time>2023-03-21T11:48:43+00:00</time>
        <ele>2623.0</ele>
      </trkpt>
      <trkpt lat="42.780987" lon="-0.122802">
        <time>2023-03-21T11:48:56+00:00</time>
        <ele>2625.0</ele>
      </trkpt>
      <trkpt lat="42.781004" lon="-0.122872">
        <time>2023-03-21T11:49:11+00:00</time>
        <ele>2626.0</ele>
      </trkpt>
      <trkpt lat="42.780979" lon="-0.122957">
        <time>2023-03-21T11:49:34+00:00</time>
        <ele>2627.0</ele>
      </trkpt>
      <trkpt lat="42.781027" lon="-0.123101">
        <time>2023-03-21T11:49:49+00:00</time>
        <ele>2628.0</ele>
      </trkpt>
      <trkpt lat="42.78104" lon="-0.123116">
        <time>2023-03-21T11:49:53+00:00</time>
        <ele>2629.0</ele>
      </trkpt>
      <trkpt lat="42.78108" lon="-0.12326">
        <time>2023-03-21T11:50:08+00:00</time>
        <ele>2631.0</ele>
      </trkpt>
      <trkpt lat="42.781091" lon="-0.123321">
        <time>2023-03-21T11:50:14+00:00</time>
        <ele>2632.0</ele>
      </trkpt>
      <trkpt lat="42.781114" lon="-0.123393">
        <time>2023-03-21T11:50:24+00:00</time>
        <ele>2633.0</ele>
      </trkpt>
      <trkpt lat="42.78115" lon="-0.123573">
        <time>2023-03-21T11:50:39+00:00</time>
        <ele>2636.0</ele>
      </trkpt>
      <trkpt lat="42.781145" lon="-0.123768">
        <time>2023-03-21T11:50:52+00:00</time>
        <ele>2637.0</ele>
      </trkpt>
      <trkpt lat="42.781163" lon="-0.124054">
        <time>2023-03-21T11:51:07+00:00</time>
        <ele>2637.0</ele>
      </trkpt>
      <trkpt lat="42.781173" lon="-0.124156">
        <time>2023-03-21T11:51:12+00:00</time>
        <ele>2637.0</ele>
      </trkpt>
      <trkpt lat="42.781157" lon="-0.124367">
        <time>2023-03-21T11:51:25+00:00</time>
        <ele>2637.0</ele>
      </trkpt>
      <trkpt lat="42.781132" lon="-0.124467">
        <time>2023-03-21T11:51:33+00:00</time>
        <ele>2637.0</ele>
      </trkpt>
      <trkpt lat="42.781115" lon="-0.124522">
        <time>2023-03-21T11:51:38+00:00</time>
        <ele>2638.0</ele>
      </trkpt>
      <trkpt lat="42.781075" lon="-0.124667">
        <time>2023-03-21T11:51:51+00:00</time>
        <ele>2638.0</ele>
      </trkpt>
      <trkpt lat="42.781067" lon="-0.124701">
        <time>2023-03-21T11:52:06+00:00</time>
        <ele>2638.0</ele>
      </trkpt>
      <trkpt lat="42.78103" lon="-0.124805">
        <time>2023-03-21T11:52:29+00:00</time>
        <ele>2639.0</ele>
      </trkpt>
      <trkpt lat="42.78099" lon="-0.124924">
        <time>2023-03-21T11:52:42+00:00</time>
        <ele>2640.0</ele>
      </trkpt>
      <trkpt lat="42.780977" lon="-0.124984">
        <time>2023-03-21T11:52:48+00:00</time>
        <ele>2641.0</ele>
      </trkpt>
      <trkpt lat="42.78091" lon="-0.125125">
        <time>2023-03-21T11:53:04+00:00</time>
        <ele>2642.0</ele>
      </trkpt>
      <trkpt lat="42.780858" lon="-0.125245">
        <time>2023-03-21T11:53:17+00:00</time>
        <ele>2643.0</ele>
      </trkpt>
      <trkpt lat="42.780795" lon="-0.125367">
        <time>2023-03-21T11:53:31+00:00</time>
        <ele>2644.0</ele>
      </trkpt>
      <trkpt lat="42.780744" lon="-0.125488">
        <time>2023-03-21T11:53:45+00:00</time>
        <ele>2645.0</ele>
      </trkpt>
      <trkpt lat="42.78068" lon="-0.12561">
        <time>2023-03-21T11:54:00+00:00</time>
        <ele>2645.0</ele>
      </trkpt>
      <trkpt lat="42.780628" lon="-0.125744">
        <time>2023-03-21T11:54:13+00:00</time>
        <ele>2647.0</ele>
      </trkpt>
      <trkpt lat="42.780582" lon="-0.125824">
        <time>2023-03-21T11:54:26+00:00</time>
        <ele>2647.0</ele>
      </trkpt>
      <trkpt lat="42.78053" lon="-0.125947">
        <time>2023-03-21T11:54:39+00:00</time>
        <ele>2649.0</ele>
      </trkpt>
      <trkpt lat="42.78048" lon="-0.126055">
        <time>2023-03-21T11:54:52+00:00</time>
        <ele>2650.0</ele>
      </trkpt>
      <trkpt lat="42.780422" lon="-0.126189">
        <time>2023-03-21T11:55:08+00:00</time>
        <ele>2652.0</ele>
      </trkpt>
      <trkpt lat="42.780361" lon="-0.126327">
        <time>2023-03-21T11:55:23+00:00</time>
        <ele>2653.0</ele>
      </trkpt>
      <trkpt lat="42.780309" lon="-0.126492">
        <time>2023-03-21T11:55:38+00:00</time>
        <ele>2655.0</ele>
      </trkpt>
      <trkpt lat="42.780238" lon="-0.126599">
        <time>2023-03-21T11:55:53+00:00</time>
        <ele>2655.0</ele>
      </trkpt>
      <trkpt lat="42.780202" lon="-0.126703">
        <time>2023-03-21T11:56:07+00:00</time>
        <ele>2657.0</ele>
      </trkpt>
      <trkpt lat="42.780193" lon="-0.126725">
        <time>2023-03-21T11:56:09+00:00</time>
        <ele>2657.0</ele>
      </trkpt>
      <trkpt lat="42.780135" lon="-0.126855">
        <time>2023-03-21T11:56:24+00:00</time>
        <ele>2659.0</ele>
      </trkpt>
      <trkpt lat="42.780063" lon="-0.126981">
        <time>2023-03-21T11:56:38+00:00</time>
        <ele>2660.0</ele>
      </trkpt>
      <trkpt lat="42.780009" lon="-0.127089">
        <time>2023-03-21T11:56:52+00:00</time>
        <ele>2661.0</ele>
      </trkpt>
      <trkpt lat="42.779933" lon="-0.12721">
        <time>2023-03-21T11:57:07+00:00</time>
        <ele>2662.0</ele>
      </trkpt>
      <trkpt lat="42.77989" lon="-0.127327">
        <time>2023-03-21T11:57:22+00:00</time>
        <ele>2664.0</ele>
      </trkpt>
      <trkpt lat="42.779836" lon="-0.127412">
        <time>2023-03-21T11:57:35+00:00</time>
        <ele>2665.0</ele>
      </trkpt>
      <trkpt lat="42.779797" lon="-0.127491">
        <time>2023-03-21T11:57:48+00:00</time>
        <ele>2665.0</ele>
      </trkpt>
      <trkpt lat="42.779795" lon="-0.127572">
        <time>2023-03-21T11:58:05+00:00</time>
        <ele>2667.0</ele>
      </trkpt>
      <trkpt lat="42.779781" lon="-0.127658">
        <time>2023-03-21T11:58:17+00:00</time>
        <ele>2669.0</ele>
      </trkpt>
      <trkpt lat="42.779796" lon="-0.127629">
        <time>2023-03-21T11:58:31+00:00</time>
        <ele>2669.0</ele>
      </trkpt>
      <trkpt lat="42.779779" lon="-0.127706">
        <time>2023-03-21T11:58:46+00:00</time>
        <ele>2670.0</ele>
      </trkpt>
      <trkpt lat="42.779764" lon="-0.127815">
        <time>2023-03-21T11:59:01+00:00</time>
        <ele>2672.0</ele>
      </trkpt>
      <trkpt lat="42.77976" lon="-0.127961">
        <time>2023-03-21T11:59:18+00:00</time>
        <ele>2675.0</ele>
      </trkpt>
      <trkpt lat="42.779777" lon="-0.128094">
        <time>2023-03-21T11:59:32+00:00</time>
        <ele>2678.0</ele>
      </trkpt>
      <trkpt lat="42.779793" lon="-0.128214">
        <time>2023-03-21T11:59:47+00:00</time>
        <ele>2680.0</ele>
      </trkpt>
      <trkpt lat="42.779798" lon="-0.128328">
        <time>2023-03-21T12:00:00+00:00</time>
        <ele>2682.0</ele>
      </trkpt>
      <trkpt lat="42.779787" lon="-0.128385">
        <time>2023-03-21T12:00:07+00:00</time>
        <ele>2682.0</ele>
      </trkpt>
      <trkpt lat="42.779761" lon="-0.128473">
        <time>2023-03-21T12:00:13+00:00</time>
        <ele>2682.0</ele>
      </trkpt>
      <trkpt lat="42.779764" lon="-0.128595">
        <time>2023-03-21T12:00:26+00:00</time>
        <ele>2684.0</ele>
      </trkpt>
      <trkpt lat="42.779756" lon="-0.128746">
        <time>2023-03-21T12:00:43+00:00</time>
        <ele>2685.0</ele>
      </trkpt>
      <trkpt lat="42.779742" lon="-0.128883">
        <time>2023-03-21T12:00:57+00:00</time>
        <ele>2686.0</ele>
      </trkpt>
      <trkpt lat="42.779734" lon="-0.128989">
        <time>2023-03-21T12:01:10+00:00</time>
        <ele>2687.0</ele>
      </trkpt>
      <trkpt lat="42.779711" lon="-0.129076">
        <time>2023-03-21T12:01:23+00:00</time>
        <ele>2688.0</ele>
      </trkpt>
      <trkpt lat="42.779688" lon="-0.129244">
        <time>2023-03-21T12:01:42+00:00</time>
        <ele>2690.0</ele>
      </trkpt>
      <trkpt lat="42.779659" lon="-0.129347">
        <time>2023-03-21T12:01:55+00:00</time>
        <ele>2691.0</ele>
      </trkpt>
      <trkpt lat="42.779638" lon="-0.12945">
        <time>2023-03-21T12:02:08+00:00</time>
        <ele>2693.0</ele>
      </trkpt>
      <trkpt lat="42.779605" lon="-0.129606">
        <time>2023-03-21T12:02:23+00:00</time>
        <ele>2695.0</ele>
      </trkpt>
      <trkpt lat="42.779575" lon="-0.129691">
        <time>2023-03-21T12:02:36+00:00</time>
        <ele>2696.0</ele>
      </trkpt>
      <trkpt lat="42.77957" lon="-0.129729">
        <time>2023-03-21T12:02:40+00:00</time>
        <ele>2696.0</ele>
      </trkpt>
      <trkpt lat="42.779536" lon="-0.129855">
        <time>2023-03-21T12:02:54+00:00</time>
        <ele>2698.0</ele>
      </trkpt>
      <trkpt lat="42.779499" lon="-0.130007">
        <time>2023-03-21T12:03:09+00:00</time>
        <ele>2700.0</ele>
      </trkpt>
      <trkpt lat="42.779469" lon="-0.13009">
        <time>2023-03-21T12:03:19+00:00</time>
        <ele>2702.0</ele>
      </trkpt>
      <trkpt lat="42.779426" lon="-0.130214">
        <time>2023-03-21T12:03:34+00:00</time>
        <ele>2704.0</ele>
      </trkpt>
      <trkpt lat="42.779368" lon="-0.130323">
        <time>2023-03-21T12:03:49+00:00</time>
        <ele>2705.0</ele>
      </trkpt>
      <trkpt lat="42.779319" lon="-0.130412">
        <time>2023-03-21T12:04:01+00:00</time>
        <ele>2706.0</ele>
      </trkpt>
      <trkpt lat="42.779269" lon="-0.130495">
        <time>2023-03-21T12:04:14+00:00</time>
        <ele>2708.0</ele>
      </trkpt>
      <trkpt lat="42.779224" lon="-0.130575">
        <time>2023-03-21T12:04:29+00:00</time>
        <ele>2710.0</ele>
      </trkpt>
      <trkpt lat="42.779175" lon="-0.130666">
        <time>2023-03-21T12:04:43+00:00</time>
        <ele>2712.0</ele>
      </trkpt>
      <trkpt lat="42.779131" lon="-0.130779">
        <time>2023-03-21T12:04:59+00:00</time>
        <ele>2714.0</ele>
      </trkpt>
      <trkpt lat="42.779075" lon="-0.130902">
        <time>2023-03-21T12:05:14+00:00</time>
        <ele>2717.0</ele>
      </trkpt>
      <trkpt lat="42.779134" lon="-0.130924">
        <time>2023-03-21T12:05:26+00:00</time>
        <ele>2718.0</ele>
      </trkpt>
      <trkpt lat="42.779205" lon="-0.130959">
        <time>2023-03-21T12:05:37+00:00</time>
        <ele>2720.0</ele>
      </trkpt>
      <trkpt lat="42.779277" lon="-0.130953">
        <time>2023-03-21T12:05:49+00:00</time>
        <ele>2720.0</ele>
      </trkpt>
      <trkpt lat="42.779298" lon="-0.13102">
        <time>2023-03-21T12:06:03+00:00</time>
        <ele>2722.0</ele>
      </trkpt>
      <trkpt lat="42.779335" lon="-0.131115">
        <time>2023-03-21T12:06:16+00:00</time>
        <ele>2725.0</ele>
      </trkpt>
      <trkpt lat="42.779371" lon="-0.131209">
        <time>2023-03-21T12:06:31+00:00</time>
        <ele>2728.0</ele>
      </trkpt>
      <trkpt lat="42.779386" lon="-0.131243">
        <time>2023-03-21T12:06:43+00:00</time>
        <ele>2729.0</ele>
      </trkpt>
      <trkpt lat="42.779383" lon="-0.131242">
        <time>2023-03-21T12:06:45+00:00</time>
        <ele>2729.0</ele>
      </trkpt>
      <trkpt lat="42.779401" lon="-0.131257">
        <time>2023-03-21T12:07:00+00:00</time>
        <ele>2729.0</ele>
      </trkpt>
      <trkpt lat="42.779397" lon="-0.131257">
        <time>2023-03-21T12:07:05+00:00</time>
        <ele>2729.0</ele>
      </trkpt>
      <trkpt lat="42.779388" lon="-0.131251">
        <time>2023-03-21T12:07:15+00:00</time>
        <ele>2729.0</ele>
      </trkpt>
      <trkpt lat="42.779397" lon="-0.131256">
        <time>2023-03-21T12:07:19+00:00</time>
        <ele>2729.0</ele>
      </trkpt>
      <trkpt lat="42.779381" lon="-0.131241">
        <time>2023-03-21T12:07:57+00:00</time>
        <ele>2729.0</ele>
      </trkpt>
      <trkpt lat="42.779391" lon="-0.131249">
        <time>2023-03-21T12:08:05+00:00</time>
        <ele>2729.0</ele>
      </trkpt>
      <trkpt lat="42.779392" lon="-0.131249">
        <time>2023-03-21T12:08:06+00:00</time>
        <ele>2729.0</ele>
      </trkpt>
      <trkpt lat="42.77939" lon="-0.131247">
        <time>2023-03-21T12:08:07+00:00</time>
        <ele>2729.0</ele>
      </trkpt>
      <trkpt lat="42.779385" lon="-0.131251">
        <time>2023-03-21T12:08:10+00:00</time>
        <ele>2729.0</ele>
      </trkpt>
      <trkpt lat="42.779394" lon="-0.131267">
        <time>2023-03-21T12:08:45+00:00</time>
        <ele>2729.0</ele>
      </trkpt>
      <trkpt lat="42.779404" lon="-0.131254">
        <time>2023-03-21T12:09:28+00:00</time>
        <ele>2729.0</ele>
      </trkpt>
      <trkpt lat="42.7794" lon="-0.13125">
        <time>2023-03-21T12:10:18+00:00</time>
        <ele>2729.0</ele>
      </trkpt>
      <trkpt lat="42.779419" lon="-0.131257">
        <time>2023-03-21T12:10:55+00:00</time>
        <ele>2730.0</ele>
      </trkpt>
      <trkpt lat="42.779414" lon="-0.131247">
        <time>2023-03-21T12:11:42+00:00</time>
        <ele>2730.0</ele>
      </trkpt>
      <trkpt lat="42.779405" lon="-0.131239">
        <time>2023-03-21T12:12:21+00:00</time>
        <ele>2729.0</ele>
      </trkpt>
      <trkpt lat="42.779418" lon="-0.131244">
        <time>2023-03-21T12:13:01+00:00</time>
        <ele>2730.0</ele>
      </trkpt>
      <trkpt lat="42.779404" lon="-0.131244">
        <time>2023-03-21T12:13:44+00:00</time>
        <ele>2729.0</ele>
      </trkpt>
      <trkpt lat="42.779402" lon="-0.131257">
        <time>2023-03-21T12:14:00+00:00</time>
        <ele>2729.0</ele>
      </trkpt>
      <trkpt lat="42.779399" lon="-0.131258">
        <time>2023-03-21T12:14:02+00:00</time>
        <ele>2729.0</ele>
      </trkpt>
      <trkpt lat="42.779401" lon="-0.131252">
        <time>2023-03-21T12:14:33+00:00</time>
        <ele>2729.0</ele>
      </trkpt>
      <trkpt lat="42.779416" lon="-0.131245">
        <time>2023-03-21T12:15:08+00:00</time>
        <ele>2730.0</ele>
      </trkpt>
      <trkpt lat="42.779426" lon="-0.131247">
        <time>2023-03-21T12:15:50+00:00</time>
        <ele>2730.0</ele>
      </trkpt>
      <trkpt lat="42.779419" lon="-0.131224">
        <time>2023-03-21T12:16:30+00:00</time>
        <ele>2730.0</ele>
      </trkpt>
      <trkpt lat="42.779424" lon="-0.131258">
        <time>2023-03-21T12:17:09+00:00</time>
        <ele>2730.0</ele>
      </trkpt>
      <trkpt lat="42.779433" lon="-0.131248">
        <time>2023-03-21T12:17:44+00:00</time>
        <ele>2730.0</ele>
      </trkpt>
      <trkpt lat="42.779431" lon="-0.131242">
        <time>2023-03-21T12:18:27+00:00</time>
        <ele>2730.0</ele>
      </trkpt>
      <trkpt lat="42.779422" lon="-0.131252">
        <time>2023-03-21T12:19:11+00:00</time>
        <ele>2730.0</ele>
      </trkpt>
      <trkpt lat="42.779428" lon="-0.131241">
        <time>2023-03-21T12:19:24+00:00</time>
        <ele>2730.0</ele>
      </trkpt>
      <trkpt lat="42.779412" lon="-0.131244">
        <time>2023-03-21T12:19:41+00:00</time>
        <ele>2730.0</ele>
      </trkpt>
      <trkpt lat="42.779399" lon="-0.13124">
        <time>2023-03-21T12:20:19+00:00</time>
        <ele>2729.0</ele>
      </trkpt>
      <trkpt lat="42.779398" lon="-0.131242">
        <time>2023-03-21T12:20:49+00:00</time>
        <ele>2729.0</ele>
      </trkpt>
      <trkpt lat="42.779399" lon="-0.131241">
        <time>2023-03-21T12:20:51+00:00</time>
        <ele>2729.0</ele>
      </trkpt>
      <trkpt lat="42.779401" lon="-0.131242">
        <time>2023-03-21T12:20:52+00:00</time>
        <ele>2729.0</ele>
      </trkpt>
      <trkpt lat="42.779409" lon="-0.131256">
        <time>2023-03-21T12:21:23+00:00</time>
        <ele>2730.0</ele>
      </trkpt>
      <trkpt lat="42.779412" lon="-0.131248">
        <time>2023-03-21T12:22:01+00:00</time>
        <ele>2730.0</ele>
      </trkpt>
      <trkpt lat="42.779409" lon="-0.131258">
        <time>2023-03-21T12:22:41+00:00</time>
        <ele>2730.0</ele>
      </trkpt>
      <trkpt lat="42.779432" lon="-0.131241">
        <time>2023-03-21T12:23:07+00:00</time>
        <ele>2730.0</ele>
      </trkpt>
      <trkpt lat="42.779423" lon="-0.131247">
        <time>2023-03-21T12:23:25+00:00</time>
        <ele>2730.0</ele>
      </trkpt>
      <trkpt lat="42.779409" lon="-0.131242">
        <time>2023-03-21T12:23:49+00:00</time>
        <ele>2729.0</ele>
      </trkpt>
      <trkpt lat="42.779408" lon="-0.131247">
        <time>2023-03-21T12:23:51+00:00</time>
        <ele>2729.0</ele>
      </trkpt>
      <trkpt lat="42.779407" lon="-0.131248">
        <time>2023-03-21T12:23:52+00:00</time>
        <ele>2729.0</ele>
      </trkpt>
      <trkpt lat="42.779416" lon="-0.131232">
        <time>2023-03-21T12:24:06+00:00</time>
        <ele>2730.0</ele>
      </trkpt>
      <trkpt lat="42.779415" lon="-0.131239">
        <time>2023-03-21T12:24:09+00:00</time>
        <ele>2730.0</ele>
      </trkpt>
      <trkpt lat="42.779394" lon="-0.131263">
        <time>2023-03-21T12:24:42+00:00</time>
        <ele>2729.0</ele>
      </trkpt>
      <trkpt lat="42.779398" lon="-0.131259">
        <time>2023-03-21T12:25:10+00:00</time>
        <ele>2729.0</ele>
      </trkpt>
      <trkpt lat="42.779403" lon="-0.131253">
        <time>2023-03-21T12:25:36+00:00</time>
        <ele>2729.0</ele>
      </trkpt>
      <trkpt lat="42.779402" lon="-0.131252">
        <time>2023-03-21T12:25:38+00:00</time>
        <ele>2729.0</ele>
      </trkpt>
      <trkpt lat="42.779402" lon="-0.131253">
        <time>2023-03-21T12:25:41+00:00</time>
        <ele>2729.0</ele>
      </trkpt>
      <trkpt lat="42.779403" lon="-0.131249">
        <time>2023-03-21T12:25:43+00:00</time>
        <ele>2729.0</ele>
      </trkpt>
      <trkpt lat="42.779435" lon="-0.131223">
        <time>2023-03-21T12:26:19+00:00</time>
        <ele>2730.0</ele>
      </trkpt>
      <trkpt lat="42.779439" lon="-0.131219">
        <time>2023-03-21T12:26:55+00:00</time>
        <ele>2730.0</ele>
      </trkpt>
      <trkpt lat="42.779418" lon="-0.131231">
        <time>2023-03-21T12:27:24+00:00</time>
        <ele>2730.0</ele>
      </trkpt>
      <trkpt lat="42.779419" lon="-0.131232">
        <time>2023-03-21T12:27:25+00:00</time>
        <ele>2730.0</ele>
      </trkpt>
      <trkpt lat="42.779419" lon="-0.131236">
        <time>2023-03-21T12:27:27+00:00</time>
        <ele>2730.0</ele>
      </trkpt>
      <trkpt lat="42.77942" lon="-0.131238">
        <time>2023-03-21T12:27:28+00:00</time>
        <ele>2730.0</ele>
      </trkpt>
      <trkpt lat="42.779423" lon="-0.131229">
        <time>2023-03-21T12:27:45+00:00</time>
        <ele>2730.0</ele>
      </trkpt>
      <trkpt lat="42.779417" lon="-0.131233">
        <time>2023-03-21T12:27:52+00:00</time>
        <ele>2730.0</ele>
      </trkpt>
      <trkpt lat="42.779419" lon="-0.131237">
        <time>2023-03-21T12:27:54+00:00</time>
        <ele>2730.0</ele>
      </trkpt>
      <trkpt lat="42.779398" lon="-0.131249">
        <time>2023-03-21T12:28:08+00:00</time>
        <ele>2729.0</ele>
      </trkpt>
      <trkpt lat="42.779395" lon="-0.131265">
        <time>2023-03-21T12:28:27+00:00</time>
        <ele>2729.0</ele>
      </trkpt>
      <trkpt lat="42.779383" lon="-0.131337">
        <time>2023-03-21T12:28:31+00:00</time>
        <ele>2729.0</ele>
      </trkpt>
      <trkpt lat="42.779404" lon="-0.131419">
        <time>2023-03-21T12:28:36+00:00</time>
        <ele>2730.0</ele>
      </trkpt>
      <trkpt lat="42.779434" lon="-0.13145">
        <time>2023-03-21T12:28:37+00:00</time>
        <ele>2731.0</ele>
      </trkpt>
      <trkpt lat="42.779453" lon="-0.131456">
        <time>2023-03-21T12:28:38+00:00</time>
        <ele>2731.0</ele>
      </trkpt>
      <trkpt lat="42.779468" lon="-0.131478">
        <time>2023-03-21T12:28:42+00:00</time>
        <ele>2732.0</ele>
      </trkpt>
      <trkpt lat="42.779506" lon="-0.131515">
        <time>2023-03-21T12:28:45+00:00</time>
        <ele>2731.0</ele>
      </trkpt>
      <trkpt lat="42.779524" lon="-0.131533">
        <time>2023-03-21T12:28:46+00:00</time>
        <ele>2731.0</ele>
      </trkpt>
      <trkpt lat="42.779549" lon="-0.13155">
        <time>2023-03-21T12:28:47+00:00</time>
        <ele>2731.0</ele>
      </trkpt>
      <trkpt lat="42.779569" lon="-0.131554">
        <time>2023-03-21T12:28:48+00:00</time>
        <ele>2732.0</ele>
      </trkpt>
      <trkpt lat="42.779583" lon="-0.131566">
        <time>2023-03-21T12:28:49+00:00</time>
        <ele>2732.0</ele>
      </trkpt>
      <trkpt lat="42.779603" lon="-0.131594">
        <time>2023-03-21T12:28:50+00:00</time>
        <ele>2731.0</ele>
      </trkpt>
      <trkpt lat="42.779635" lon="-0.131632">
        <time>2023-03-21T12:28:51+00:00</time>
        <ele>2731.0</ele>
      </trkpt>
      <trkpt lat="42.779674" lon="-0.131667">
        <time>2023-03-21T12:28:52+00:00</time>
        <ele>2730.0</ele>
      </trkpt>
      <trkpt lat="42.779818" lon="-0.131799">
        <time>2023-03-21T12:28:56+00:00</time>
        <ele>2730.0</ele>
      </trkpt>
      <trkpt lat="42.779838" lon="-0.131826">
        <time>2023-03-21T12:28:57+00:00</time>
        <ele>2729.0</ele>
      </trkpt>
      <trkpt lat="42.779843" lon="-0.131868">
        <time>2023-03-21T12:28:58+00:00</time>
        <ele>2726.0</ele>
      </trkpt>
      <trkpt lat="42.779799" lon="-0.131933">
        <time>2023-03-21T12:29:00+00:00</time>
        <ele>2719.0</ele>
      </trkpt>
      <trkpt lat="42.779769" lon="-0.131979">
        <time>2023-03-21T12:29:01+00:00</time>
        <ele>2715.0</ele>
      </trkpt>
      <trkpt lat="42.779756" lon="-0.132034">
        <time>2023-03-21T12:29:02+00:00</time>
        <ele>2711.0</ele>
      </trkpt>
      <trkpt lat="42.77969" lon="-0.13208">
        <time>2023-03-21T12:29:03+00:00</time>
        <ele>2708.0</ele>
      </trkpt>
      <trkpt lat="42.779642" lon="-0.132128">
        <time>2023-03-21T12:29:04+00:00</time>
        <ele>2705.0</ele>
      </trkpt>
      <trkpt lat="42.779624" lon="-0.132199">
        <time>2023-03-21T12:29:05+00:00</time>
        <ele>2702.0</ele>
      </trkpt>
      <trkpt lat="42.779589" lon="-0.132339">
        <time>2023-03-21T12:29:07+00:00</time>
        <ele>2697.0</ele>
      </trkpt>
      <trkpt lat="42.779573" lon="-0.132417">
        <time>2023-03-21T12:29:08+00:00</time>
        <ele>2693.0</ele>
      </trkpt>
      <trkpt lat="42.779587" lon="-0.132506">
        <time>2023-03-21T12:29:09+00:00</time>
        <ele>2689.0</ele>
      </trkpt>
      <trkpt lat="42.779577" lon="-0.132678">
        <time>2023-03-21T12:29:11+00:00</time>
        <ele>2681.0</ele>
      </trkpt>
      <trkpt lat="42.779511" lon="-0.132744">
        <time>2023-03-21T12:29:12+00:00</time>
        <ele>2678.0</ele>
      </trkpt>
      <trkpt lat="42.779448" lon="-0.132838">
        <time>2023-03-21T12:29:13+00:00</time>
        <ele>2674.0</ele>
      </trkpt>
      <trkpt lat="42.779406" lon="-0.13304">
        <time>2023-03-21T12:29:15+00:00</time>
        <ele>2665.0</ele>
      </trkpt>
      <trkpt lat="42.779363" lon="-0.133157">
        <time>2023-03-21T12:29:16+00:00</time>
        <ele>2660.0</ele>
      </trkpt>
      <trkpt lat="42.779358" lon="-0.133252">
        <time>2023-03-21T12:29:17+00:00</time>
        <ele>2656.0</ele>
      </trkpt>
      <trkpt lat="42.779397" lon="-0.133488">
        <time>2023-03-21T12:29:19+00:00</time>
        <ele>2647.0</ele>
      </trkpt>
      <trkpt lat="42.779353" lon="-0.133676">
        <time>2023-03-21T12:29:21+00:00</time>
        <ele>2641.0</ele>
      </trkpt>
      <trkpt lat="42.779361" lon="-0.133799">
        <time>2023-03-21T12:29:22+00:00</time>
        <ele>2638.0</ele>
      </trkpt>
      <trkpt lat="42.779361" lon="-0.133977">
        <time>2023-03-21T12:29:24+00:00</time>
        <ele>2634.0</ele>
      </trkpt>
      <trkpt lat="42.77918" lon="-0.134286">
        <time>2023-03-21T12:29:28+00:00</time>
        <ele>2632.0</ele>
      </trkpt>
      <trkpt lat="42.779211" lon="-0.134429">
        <time>2023-03-21T12:29:30+00:00</time>
        <ele>2627.0</ele>
      </trkpt>
      <trkpt lat="42.779226" lon="-0.134514">
        <time>2023-03-21T12:29:31+00:00</time>
        <ele>2624.0</ele>
      </trkpt>
      <trkpt lat="42.779277" lon="-0.134629">
        <time>2023-03-21T12:29:33+00:00</time>
        <ele>2618.0</ele>
      </trkpt>
      <trkpt lat="42.77932" lon="-0.13476">
        <time>2023-03-21T12:29:35+00:00</time>
        <ele>2613.0</ele>
      </trkpt>
      <trkpt lat="42.779288" lon="-0.134882">
        <time>2023-03-21T12:29:37+00:00</time>
        <ele>2610.0</ele>
      </trkpt>
      <trkpt lat="42.779267" lon="-0.134898">
        <time>2023-03-21T12:29:41+00:00</time>
        <ele>2609.0</ele>
      </trkpt>
      <trkpt lat="42.77929" lon="-0.134862">
        <time>2023-03-21T12:29:58+00:00</time>
        <ele>2610.0</ele>
      </trkpt>
      <trkpt lat="42.779301" lon="-0.134878">
        <time>2023-03-21T12:30:11+00:00</time>
        <ele>2609.0</ele>
      </trkpt>
      <trkpt lat="42.779366" lon="-0.134952">
        <time>2023-03-21T12:30:14+00:00</time>
        <ele>2605.0</ele>
      </trkpt>
      <trkpt lat="42.779437" lon="-0.135034">
        <time>2023-03-21T12:30:16+00:00</time>
        <ele>2600.0</ele>
      </trkpt>
      <trkpt lat="42.779521" lon="-0.135157">
        <time>2023-03-21T12:30:18+00:00</time>
        <ele>2593.0</ele>
      </trkpt>
      <trkpt lat="42.779533" lon="-0.135248">
        <time>2023-03-21T12:30:19+00:00</time>
        <ele>2589.0</ele>
      </trkpt>
      <trkpt lat="42.77951" lon="-0.13534">
        <time>2023-03-21T12:30:20+00:00</time>
        <ele>2586.0</ele>
      </trkpt>
      <trkpt lat="42.779466" lon="-0.135422">
        <time>2023-03-21T12:30:21+00:00</time>
        <ele>2584.0</ele>
      </trkpt>
      <trkpt lat="42.779438" lon="-0.135575">
        <time>2023-03-21T12:30:23+00:00</time>
        <ele>2579.0</ele>
      </trkpt>
      <trkpt lat="42.779472" lon="-0.135768">
        <time>2023-03-21T12:30:25+00:00</time>
        <ele>2570.0</ele>
      </trkpt>
      <trkpt lat="42.779531" lon="-0.135996">
        <time>2023-03-21T12:30:27+00:00</time>
        <ele>2559.0</ele>
      </trkpt>
      <trkpt lat="42.779552" lon="-0.136128">
        <time>2023-03-21T12:30:28+00:00</time>
        <ele>2555.0</ele>
      </trkpt>
      <trkpt lat="42.779635" lon="-0.136342">
        <time>2023-03-21T12:30:30+00:00</time>
        <ele>2548.0</ele>
      </trkpt>
      <trkpt lat="42.779727" lon="-0.136525">
        <time>2023-03-21T12:30:32+00:00</time>
        <ele>2544.0</ele>
      </trkpt>
      <trkpt lat="42.779852" lon="-0.136714">
        <time>2023-03-21T12:30:35+00:00</time>
        <ele>2541.0</ele>
      </trkpt>
      <trkpt lat="42.780009" lon="-0.136818">
        <time>2023-03-21T12:30:45+00:00</time>
        <ele>2540.0</ele>
      </trkpt>
      <trkpt lat="42.780016" lon="-0.136807">
        <time>2023-03-21T12:31:08+00:00</time>
        <ele>2540.0</ele>
      </trkpt>
      <trkpt lat="42.780018" lon="-0.136793">
        <time>2023-03-21T12:31:32+00:00</time>
        <ele>2540.0</ele>
      </trkpt>
      <trkpt lat="42.780033" lon="-0.136807">
        <time>2023-03-21T12:31:50+00:00</time>
        <ele>2540.0</ele>
      </trkpt>
      <trkpt lat="42.780192" lon="-0.136778">
        <time>2023-03-21T12:31:53+00:00</time>
        <ele>2538.0</ele>
      </trkpt>
      <trkpt lat="42.780273" lon="-0.136782">
        <time>2023-03-21T12:31:54+00:00</time>
        <ele>2536.0</ele>
      </trkpt>
      <trkpt lat="42.78058" lon="-0.136895">
        <time>2023-03-21T12:31:58+00:00</time>
        <ele>2523.0</ele>
      </trkpt>
      <trkpt lat="42.780654" lon="-0.136894">
        <time>2023-03-21T12:31:59+00:00</time>
        <ele>2519.0</ele>
      </trkpt>
      <trkpt lat="42.780688" lon="-0.136935">
        <time>2023-03-21T12:32:00+00:00</time>
        <ele>2517.0</ele>
      </trkpt>
      <trkpt lat="42.780658" lon="-0.137001">
        <time>2023-03-21T12:32:02+00:00</time>
        <ele>2516.0</ele>
      </trkpt>
      <trkpt lat="42.780605" lon="-0.137022">
        <time>2023-03-21T12:32:18+00:00</time>
        <ele>2518.0</ele>
      </trkpt>
      <trkpt lat="42.780601" lon="-0.137029">
        <time>2023-03-21T12:32:36+00:00</time>
        <ele>2518.0</ele>
      </trkpt>
      <trkpt lat="42.780599" lon="-0.137015">
        <time>2023-03-21T12:32:57+00:00</time>
        <ele>2519.0</ele>
      </trkpt>
      <trkpt lat="42.78059" lon="-0.137013">
        <time>2023-03-21T12:33:05+00:00</time>
        <ele>2519.0</ele>
      </trkpt>
      <trkpt lat="42.780674" lon="-0.137145">
        <time>2023-03-21T12:33:08+00:00</time>
        <ele>2512.0</ele>
      </trkpt>
      <trkpt lat="42.780704" lon="-0.137206">
        <time>2023-03-21T12:33:09+00:00</time>
        <ele>2509.0</ele>
      </trkpt>
      <trkpt lat="42.780868" lon="-0.137453">
        <time>2023-03-21T12:33:13+00:00</time>
        <ele>2499.0</ele>
      </trkpt>
      <trkpt lat="42.7809" lon="-0.137522">
        <time>2023-03-21T12:33:14+00:00</time>
        <ele>2496.0</ele>
      </trkpt>
      <trkpt lat="42.780958" lon="-0.137691">
        <time>2023-03-21T12:33:16+00:00</time>
        <ele>2491.0</ele>
      </trkpt>
      <trkpt lat="42.780978" lon="-0.137787">
        <time>2023-03-21T12:33:17+00:00</time>
        <ele>2487.0</ele>
      </trkpt>
      <trkpt lat="42.781031" lon="-0.137988">
        <time>2023-03-21T12:33:19+00:00</time>
        <ele>2478.0</ele>
      </trkpt>
      <trkpt lat="42.781049" lon="-0.138101">
        <time>2023-03-21T12:33:20+00:00</time>
        <ele>2473.0</ele>
      </trkpt>
      <trkpt lat="42.781135" lon="-0.138287">
        <time>2023-03-21T12:33:22+00:00</time>
        <ele>2464.0</ele>
      </trkpt>
      <trkpt lat="42.781156" lon="-0.138392">
        <time>2023-03-21T12:33:23+00:00</time>
        <ele>2461.0</ele>
      </trkpt>
      <trkpt lat="42.781203" lon="-0.138485">
        <time>2023-03-21T12:33:24+00:00</time>
        <ele>2457.0</ele>
      </trkpt>
      <trkpt lat="42.781229" lon="-0.138587">
        <time>2023-03-21T12:33:25+00:00</time>
        <ele>2453.0</ele>
      </trkpt>
      <trkpt lat="42.78124" lon="-0.138836">
        <time>2023-03-21T12:33:27+00:00</time>
        <ele>2446.0</ele>
      </trkpt>
      <trkpt lat="42.781204" lon="-0.138948">
        <time>2023-03-21T12:33:28+00:00</time>
        <ele>2443.0</ele>
      </trkpt>
      <trkpt lat="42.781143" lon="-0.139069">
        <time>2023-03-21T12:33:30+00:00</time>
        <ele>2441.0</ele>
      </trkpt>
      <trkpt lat="42.781108" lon="-0.139085">
        <time>2023-03-21T12:33:39+00:00</time>
        <ele>2442.0</ele>
      </trkpt>
      <trkpt lat="42.78087" lon="-0.139362">
        <time>2023-03-21T12:33:50+00:00</time>
        <ele>2442.0</ele>
      </trkpt>
      <trkpt lat="42.780645" lon="-0.139428">
        <time>2023-03-21T12:33:59+00:00</time>
        <ele>2440.0</ele>
      </trkpt>
      <trkpt lat="42.780628" lon="-0.139432">
        <time>2023-03-21T12:34:00+00:00</time>
        <ele>2440.0</ele>
      </trkpt>
      <trkpt lat="42.780626" lon="-0.139539">
        <time>2023-03-21T12:34:03+00:00</time>
        <ele>2435.0</ele>
      </trkpt>
      <trkpt lat="42.780642" lon="-0.139651">
        <time>2023-03-21T12:34:05+00:00</time>
        <ele>2429.0</ele>
      </trkpt>
      <trkpt lat="42.780665" lon="-0.139703">
        <time>2023-03-21T12:34:06+00:00</time>
        <ele>2427.0</ele>
      </trkpt>
      <trkpt lat="42.780716" lon="-0.139797">
        <time>2023-03-21T12:34:08+00:00</time>
        <ele>2421.0</ele>
      </trkpt>
      <trkpt lat="42.78074" lon="-0.13992">
        <time>2023-03-21T12:34:10+00:00</time>
        <ele>2415.0</ele>
      </trkpt>
      <trkpt lat="42.780729" lon="-0.140019">
        <time>2023-03-21T12:34:12+00:00</time>
        <ele>2411.0</ele>
      </trkpt>
      <trkpt lat="42.780642" lon="-0.140077">
        <time>2023-03-21T12:34:14+00:00</time>
        <ele>2408.0</ele>
      </trkpt>
      <trkpt lat="42.78065" lon="-0.140127">
        <time>2023-03-21T12:34:16+00:00</time>
        <ele>2406.0</ele>
      </trkpt>
      <trkpt lat="42.780657" lon="-0.140131">
        <time>2023-03-21T12:34:17+00:00</time>
        <ele>2405.0</ele>
      </trkpt>
      <trkpt lat="42.780633" lon="-0.140132">
        <time>2023-03-21T12:34:30+00:00</time>
        <ele>2405.0</ele>
      </trkpt>
      <trkpt lat="42.780629" lon="-0.140138">
        <time>2023-03-21T12:34:44+00:00</time>
        <ele>2405.0</ele>
      </trkpt>
      <trkpt lat="42.780583" lon="-0.140148">
        <time>2023-03-21T12:35:18+00:00</time>
        <ele>2405.0</ele>
      </trkpt>
      <trkpt lat="42.780606" lon="-0.140132">
        <time>2023-03-21T12:35:47+00:00</time>
        <ele>2406.0</ele>
      </trkpt>
      <trkpt lat="42.780597" lon="-0.14011">
        <time>2023-03-21T12:35:54+00:00</time>
        <ele>2407.0</ele>
      </trkpt>
      <trkpt lat="42.780599" lon="-0.14011">
        <time>2023-03-21T12:35:55+00:00</time>
        <ele>2407.0</ele>
      </trkpt>
      <trkpt lat="42.780655" lon="-0.14011">
        <time>2023-03-21T12:35:58+00:00</time>
        <ele>2407.0</ele>
      </trkpt>
      <trkpt lat="42.780653" lon="-0.1401">
        <time>2023-03-21T12:35:59+00:00</time>
        <ele>2407.0</ele>
      </trkpt>
      <trkpt lat="42.780611" lon="-0.140139">
        <time>2023-03-21T12:36:23+00:00</time>
        <ele>2405.0</ele>
      </trkpt>
      <trkpt lat="42.780614" lon="-0.140137">
        <time>2023-03-21T12:36:33+00:00</time>
        <ele>2405.0</ele>
      </trkpt>
      <trkpt lat="42.780606" lon="-0.140131">
        <time>2023-03-21T12:36:50+00:00</time>
        <ele>2406.0</ele>
      </trkpt>
      <trkpt lat="42.780605" lon="-0.140131">
        <time>2023-03-21T12:37:05+00:00</time>
        <ele>2406.0</ele>
      </trkpt>
      <trkpt lat="42.780613" lon="-0.140151">
        <time>2023-03-21T12:37:17+00:00</time>
        <ele>2405.0</ele>
      </trkpt>
      <trkpt lat="42.780576" lon="-0.140244">
        <time>2023-03-21T12:37:19+00:00</time>
        <ele>2400.0</ele>
      </trkpt>
      <trkpt lat="42.780491" lon="-0.140332">
        <time>2023-03-21T12:37:21+00:00</time>
        <ele>2397.0</ele>
      </trkpt>
      <trkpt lat="42.780505" lon="-0.140429">
        <time>2023-03-21T12:37:23+00:00</time>
        <ele>2392.0</ele>
      </trkpt>
      <trkpt lat="42.780552" lon="-0.140449">
        <time>2023-03-21T12:37:24+00:00</time>
        <ele>2391.0</ele>
      </trkpt>
      <trkpt lat="42.780684" lon="-0.140627">
        <time>2023-03-21T12:37:28+00:00</time>
        <ele>2381.0</ele>
      </trkpt>
      <trkpt lat="42.780685" lon="-0.140694">
        <time>2023-03-21T12:37:29+00:00</time>
        <ele>2378.0</ele>
      </trkpt>
      <trkpt lat="42.780727" lon="-0.14073">
        <time>2023-03-21T12:37:30+00:00</time>
        <ele>2375.0</ele>
      </trkpt>
      <trkpt lat="42.780778" lon="-0.140766">
        <time>2023-03-21T12:37:31+00:00</time>
        <ele>2372.0</ele>
      </trkpt>
      <trkpt lat="42.780806" lon="-0.140834">
        <time>2023-03-21T12:37:32+00:00</time>
        <ele>2369.0</ele>
      </trkpt>
      <trkpt lat="42.78089" lon="-0.14094">
        <time>2023-03-21T12:37:34+00:00</time>
        <ele>2362.0</ele>
      </trkpt>
      <trkpt lat="42.780926" lon="-0.14099">
        <time>2023-03-21T12:37:35+00:00</time>
        <ele>2358.0</ele>
      </trkpt>
      <trkpt lat="42.781069" lon="-0.141179">
        <time>2023-03-21T12:37:39+00:00</time>
        <ele>2345.0</ele>
      </trkpt>
      <trkpt lat="42.781108" lon="-0.141238">
        <time>2023-03-21T12:37:40+00:00</time>
        <ele>2341.0</ele>
      </trkpt>
      <trkpt lat="42.781164" lon="-0.141294">
        <time>2023-03-21T12:37:41+00:00</time>
        <ele>2337.0</ele>
      </trkpt>
      <trkpt lat="42.781233" lon="-0.141315">
        <time>2023-03-21T12:37:42+00:00</time>
        <ele>2334.0</ele>
      </trkpt>
      <trkpt lat="42.781496" lon="-0.141455">
        <time>2023-03-21T12:37:46+00:00</time>
        <ele>2321.0</ele>
      </trkpt>
      <trkpt lat="42.781567" lon="-0.141495">
        <time>2023-03-21T12:37:47+00:00</time>
        <ele>2318.0</ele>
      </trkpt>
      <trkpt lat="42.78163" lon="-0.141561">
        <time>2023-03-21T12:37:48+00:00</time>
        <ele>2314.0</ele>
      </trkpt>
      <trkpt lat="42.781693" lon="-0.141626">
        <time>2023-03-21T12:37:49+00:00</time>
        <ele>2309.0</ele>
      </trkpt>
      <trkpt lat="42.781765" lon="-0.141647">
        <time>2023-03-21T12:37:50+00:00</time>
        <ele>2307.0</ele>
      </trkpt>
      <trkpt lat="42.781896" lon="-0.141577">
        <time>2023-03-21T12:37:52+00:00</time>
        <ele>2307.0</ele>
      </trkpt>
      <trkpt lat="42.782086" lon="-0.141655">
        <time>2023-03-21T12:37:55+00:00</time>
        <ele>2298.0</ele>
      </trkpt>
      <trkpt lat="42.782238" lon="-0.141674">
        <time>2023-03-21T12:37:57+00:00</time>
        <ele>2293.0</ele>
      </trkpt>
      <trkpt lat="42.782483" lon="-0.141811">
        <time>2023-03-21T12:38:00+00:00</time>
        <ele>2285.0</ele>
      </trkpt>
      <trkpt lat="42.782579" lon="-0.141824">
        <time>2023-03-21T12:38:01+00:00</time>
        <ele>2284.0</ele>
      </trkpt>
      <trkpt lat="42.782746" lon="-0.141826">
        <time>2023-03-21T12:38:03+00:00</time>
        <ele>2283.0</ele>
      </trkpt>
      <trkpt lat="42.78309" lon="-0.141898">
        <time>2023-03-21T12:38:13+00:00</time>
        <ele>2282.0</ele>
      </trkpt>
      <trkpt lat="42.783087" lon="-0.141882">
        <time>2023-03-21T12:38:24+00:00</time>
        <ele>2283.0</ele>
      </trkpt>
      <trkpt lat="42.78309" lon="-0.141896">
        <time>2023-03-21T12:38:31+00:00</time>
        <ele>2282.0</ele>
      </trkpt>
      <trkpt lat="42.783117" lon="-0.141928">
        <time>2023-03-21T12:38:41+00:00</time>
        <ele>2282.0</ele>
      </trkpt>
      <trkpt lat="42.783164" lon="-0.141951">
        <time>2023-03-21T12:38:43+00:00</time>
        <ele>2281.0</ele>
      </trkpt>
      <trkpt lat="42.783308" lon="-0.142178">
        <time>2023-03-21T12:38:47+00:00</time>
        <ele>2273.0</ele>
      </trkpt>
      <trkpt lat="42.783427" lon="-0.142294">
        <time>2023-03-21T12:38:49+00:00</time>
        <ele>2268.0</ele>
      </trkpt>
      <trkpt lat="42.783465" lon="-0.142387">
        <time>2023-03-21T12:38:50+00:00</time>
        <ele>2264.0</ele>
      </trkpt>
      <trkpt lat="42.783526" lon="-0.14245">
        <time>2023-03-21T12:38:51+00:00</time>
        <ele>2261.0</ele>
      </trkpt>
      <trkpt lat="42.783675" lon="-0.142565">
        <time>2023-03-21T12:38:53+00:00</time>
        <ele>2255.0</ele>
      </trkpt>
      <trkpt lat="42.783827" lon="-0.142619">
        <time>2023-03-21T12:38:55+00:00</time>
        <ele>2251.0</ele>
      </trkpt>
      <trkpt lat="42.78409" lon="-0.14254">
        <time>2023-03-21T12:38:58+00:00</time>
        <ele>2247.0</ele>
      </trkpt>
      <trkpt lat="42.784253" lon="-0.142484">
        <time>2023-03-21T12:39:00+00:00</time>
        <ele>2244.0</ele>
      </trkpt>
      <trkpt lat="42.784422" lon="-0.142516">
        <time>2023-03-21T12:39:02+00:00</time>
        <ele>2239.0</ele>
      </trkpt>
      <trkpt lat="42.784604" lon="-0.142524">
        <time>2023-03-21T12:39:04+00:00</time>
        <ele>2234.0</ele>
      </trkpt>
      <trkpt lat="42.784789" lon="-0.142567">
        <time>2023-03-21T12:39:06+00:00</time>
        <ele>2228.0</ele>
      </trkpt>
      <trkpt lat="42.784971" lon="-0.142543">
        <time>2023-03-21T12:39:08+00:00</time>
        <ele>2223.0</ele>
      </trkpt>
      <trkpt lat="42.785162" lon="-0.142581">
        <time>2023-03-21T12:39:10+00:00</time>
        <ele>2216.0</ele>
      </trkpt>
      <trkpt lat="42.785347" lon="-0.142715">
        <time>2023-03-21T12:39:12+00:00</time>
        <ele>2209.0</ele>
      </trkpt>
      <trkpt lat="42.785492" lon="-0.142685">
        <time>2023-03-21T12:39:14+00:00</time>
        <ele>2205.0</ele>
      </trkpt>
      <trkpt lat="42.785847" lon="-0.142526">
        <time>2023-03-21T12:39:18+00:00</time>
        <ele>2194.0</ele>
      </trkpt>
      <trkpt lat="42.786089" lon="-0.142519">
        <time>2023-03-21T12:39:20+00:00</time>
        <ele>2189.0</ele>
      </trkpt>
      <trkpt lat="42.7866" lon="-0.1425">
        <time>2023-03-21T12:39:24+00:00</time>
        <ele>2179.0</ele>
      </trkpt>
      <trkpt lat="42.786991" lon="-0.142532">
        <time>2023-03-21T12:39:27+00:00</time>
        <ele>2174.0</ele>
      </trkpt>
      <trkpt lat="42.787231" lon="-0.142563">
        <time>2023-03-21T12:39:29+00:00</time>
        <ele>2172.0</ele>
      </trkpt>
      <trkpt lat="42.787573" lon="-0.142614">
        <time>2023-03-21T12:39:32+00:00</time>
        <ele>2170.0</ele>
      </trkpt>
      <trkpt lat="42.787789" lon="-0.142656">
        <time>2023-03-21T12:39:34+00:00</time>
        <ele>2167.0</ele>
      </trkpt>
      <trkpt lat="42.788202" lon="-0.142713">
        <time>2023-03-21T12:39:38+00:00</time>
        <ele>2163.0</ele>
      </trkpt>
      <trkpt lat="42.78856" lon="-0.142734">
        <time>2023-03-21T12:39:42+00:00</time>
        <ele>2161.0</ele>
      </trkpt>
      <trkpt lat="42.788731" lon="-0.142748">
        <time>2023-03-21T12:39:44+00:00</time>
        <ele>2159.0</ele>
      </trkpt>
      <trkpt lat="42.789195" lon="-0.142612">
        <time>2023-03-21T12:39:50+00:00</time>
        <ele>2156.0</ele>
      </trkpt>
      <trkpt lat="42.789589" lon="-0.142428">
        <time>2023-03-21T12:39:56+00:00</time>
        <ele>2151.0</ele>
      </trkpt>
      <trkpt lat="42.789821" lon="-0.142306">
        <time>2023-03-21T12:40:00+00:00</time>
        <ele>2150.0</ele>
      </trkpt>
      <trkpt lat="42.790322" lon="-0.142095">
        <time>2023-03-21T12:40:09+00:00</time>
        <ele>2148.0</ele>
      </trkpt>
      <trkpt lat="42.790969" lon="-0.141918">
        <time>2023-03-21T12:40:22+00:00</time>
        <ele>2145.0</ele>
      </trkpt>
      <trkpt lat="42.791015" lon="-0.141907">
        <time>2023-03-21T12:40:23+00:00</time>
        <ele>2145.0</ele>
      </trkpt>
      <trkpt lat="42.791189" lon="-0.141881">
        <time>2023-03-21T12:40:27+00:00</time>
        <ele>2145.0</ele>
      </trkpt>
      <trkpt lat="42.791323" lon="-0.141867">
        <time>2023-03-21T12:40:30+00:00</time>
        <ele>2145.0</ele>
      </trkpt>
      <trkpt lat="42.791743" lon="-0.141754">
        <time>2023-03-21T12:40:41+00:00</time>
        <ele>2145.0</ele>
      </trkpt>
      <trkpt lat="42.791895" lon="-0.141554">
        <time>2023-03-21T12:40:47+00:00</time>
        <ele>2145.0</ele>
      </trkpt>
      <trkpt lat="42.792053" lon="-0.141532">
        <time>2023-03-21T12:40:52+00:00</time>
        <ele>2144.0</ele>
      </trkpt>
      <trkpt lat="42.792272" lon="-0.141606">
        <time>2023-03-21T12:40:59+00:00</time>
        <ele>2144.0</ele>
      </trkpt>
      <trkpt lat="42.792561" lon="-0.141669">
        <time>2023-03-21T12:41:07+00:00</time>
        <ele>2143.0</ele>
      </trkpt>
      <trkpt lat="42.792568" lon="-0.141677">
        <time>2023-03-21T12:41:18+00:00</time>
        <ele>2143.0</ele>
      </trkpt>
      <trkpt lat="42.792545" lon="-0.141696">
        <time>2023-03-21T12:41:32+00:00</time>
        <ele>2143.0</ele>
      </trkpt>
      <trkpt lat="42.792554" lon="-0.141697">
        <time>2023-03-21T12:41:45+00:00</time>
        <ele>2143.0</ele>
      </trkpt>
      <trkpt lat="42.792561" lon="-0.14169">
        <time>2023-03-21T12:41:53+00:00</time>
        <ele>2143.0</ele>
      </trkpt>
      <trkpt lat="42.792563" lon="-0.141682">
        <time>2023-03-21T12:42:08+00:00</time>
        <ele>2143.0</ele>
      </trkpt>
      <trkpt lat="42.792599" lon="-0.141686">
        <time>2023-03-21T12:42:24+00:00</time>
        <ele>2143.0</ele>
      </trkpt>
      <trkpt lat="42.792638" lon="-0.141728">
        <time>2023-03-21T12:42:34+00:00</time>
        <ele>2143.0</ele>
      </trkpt>
      <trkpt lat="42.792674" lon="-0.141702">
        <time>2023-03-21T12:42:37+00:00</time>
        <ele>2143.0</ele>
      </trkpt>
      <trkpt lat="42.79275" lon="-0.141569">
        <time>2023-03-21T12:42:51+00:00</time>
        <ele>2144.0</ele>
      </trkpt>
      <trkpt lat="42.792757" lon="-0.141477">
        <time>2023-03-21T12:43:05+00:00</time>
        <ele>2145.0</ele>
      </trkpt>
      <trkpt lat="42.792756" lon="-0.141471">
        <time>2023-03-21T12:43:06+00:00</time>
        <ele>2145.0</ele>
      </trkpt>
      <trkpt lat="42.79275" lon="-0.141365">
        <time>2023-03-21T12:43:21+00:00</time>
        <ele>2146.0</ele>
      </trkpt>
      <trkpt lat="42.792805" lon="-0.141393">
        <time>2023-03-21T12:43:31+00:00</time>
        <ele>2147.0</ele>
      </trkpt>
      <trkpt lat="42.79285" lon="-0.141391">
        <time>2023-03-21T12:43:43+00:00</time>
        <ele>2148.0</ele>
      </trkpt>
      <trkpt lat="42.792837" lon="-0.141427">
        <time>2023-03-21T12:43:57+00:00</time>
        <ele>2147.0</ele>
      </trkpt>
      <trkpt lat="42.792844" lon="-0.141413">
        <time>2023-03-21T12:44:18+00:00</time>
        <ele>2147.0</ele>
      </trkpt>
      <trkpt lat="42.79285" lon="-0.141439">
        <time>2023-03-21T12:44:22+00:00</time>
        <ele>2147.0</ele>
      </trkpt>
      <trkpt lat="42.792861" lon="-0.141506">
        <time>2023-03-21T12:44:38+00:00</time>
        <ele>2147.0</ele>
      </trkpt>
      <trkpt lat="42.792842" lon="-0.141504">
        <time>2023-03-21T12:44:55+00:00</time>
        <ele>2147.0</ele>
      </trkpt>
      <trkpt lat="42.792842" lon="-0.141473">
        <time>2023-03-21T12:45:13+00:00</time>
        <ele>2147.0</ele>
      </trkpt>
      <trkpt lat="42.792852" lon="-0.14139">
        <time>2023-03-21T12:45:26+00:00</time>
        <ele>2148.0</ele>
      </trkpt>
      <trkpt lat="42.792847" lon="-0.141374">
        <time>2023-03-21T12:45:38+00:00</time>
        <ele>2148.0</ele>
      </trkpt>
      <trkpt lat="42.792836" lon="-0.141388">
        <time>2023-03-21T12:46:10+00:00</time>
        <ele>2147.0</ele>
      </trkpt>
      <trkpt lat="42.792828" lon="-0.141387">
        <time>2023-03-21T12:46:14+00:00</time>
        <ele>2147.0</ele>
      </trkpt>
      <trkpt lat="42.792833" lon="-0.141393">
        <time>2023-03-21T12:46:27+00:00</time>
        <ele>2147.0</ele>
      </trkpt>
      <trkpt lat="42.792837" lon="-0.141386">
        <time>2023-03-21T12:46:28+00:00</time>
        <ele>2147.0</ele>
      </trkpt>
      <trkpt lat="42.792836" lon="-0.141383">
        <time>2023-03-21T12:46:29+00:00</time>
        <ele>2147.0</ele>
      </trkpt>
      <trkpt lat="42.792818" lon="-0.141374">
        <time>2023-03-21T12:46:42+00:00</time>
        <ele>2147.0</ele>
      </trkpt>
      <trkpt lat="42.792817" lon="-0.141378">
        <time>2023-03-21T12:46:43+00:00</time>
        <ele>2147.0</ele>
      </trkpt>
      <trkpt lat="42.792815" lon="-0.141377">
        <time>2023-03-21T12:46:44+00:00</time>
        <ele>2147.0</ele>
      </trkpt>
      <trkpt lat="42.792814" lon="-0.141376">
        <time>2023-03-21T12:46:45+00:00</time>
        <ele>2147.0</ele>
      </trkpt>
      <trkpt lat="42.792813" lon="-0.141376">
        <time>2023-03-21T12:46:47+00:00</time>
        <ele>2147.0</ele>
      </trkpt>
      <trkpt lat="42.792808" lon="-0.141376">
        <time>2023-03-21T12:46:48+00:00</time>
        <ele>2147.0</ele>
      </trkpt>
      <trkpt lat="42.792809" lon="-0.141352">
        <time>2023-03-21T12:47:16+00:00</time>
        <ele>2147.0</ele>
      </trkpt>
      <trkpt lat="42.792865" lon="-0.141371">
        <time>2023-03-21T12:47:45+00:00</time>
        <ele>2148.0</ele>
      </trkpt>
      <trkpt lat="42.79286" lon="-0.141375">
        <time>2023-03-21T12:48:06+00:00</time>
        <ele>2148.0</ele>
      </trkpt>
      <trkpt lat="42.792599" lon="-0.141784">
        <time>2023-03-22T06:19:50+00:00</time>
        <ele>2143.0</ele>
      </trkpt>
      <trkpt lat="42.792596" lon="-0.141797">
        <time>2023-03-22T06:20:03+00:00</time>
        <ele>2143.0</ele>
      </trkpt>
      <trkpt lat="42.792566" lon="-0.141835">
        <time>2023-03-22T06:20:10+00:00</time>
        <ele>2143.0</ele>
      </trkpt>
      <trkpt lat="42.792535" lon="-0.141887">
        <time>2023-03-22T06:20:15+00:00</time>
        <ele>2143.0</ele>
      </trkpt>
      <trkpt lat="42.792525" lon="-0.141909">
        <time>2023-03-22T06:20:17+00:00</time>
        <ele>2143.0</ele>
      </trkpt>
      <trkpt lat="42.792462" lon="-0.142021">
        <time>2023-03-22T06:20:27+00:00</time>
        <ele>2143.0</ele>
      </trkpt>
      <trkpt lat="42.792424" lon="-0.1421">
        <time>2023-03-22T06:20:33+00:00</time>
        <ele>2143.0</ele>
      </trkpt>
      <trkpt lat="42.792347" lon="-0.142273">
        <time>2023-03-22T06:20:46+00:00</time>
        <ele>2144.0</ele>
      </trkpt>
      <trkpt lat="42.792279" lon="-0.142449">
        <time>2023-03-22T06:20:58+00:00</time>
        <ele>2144.0</ele>
      </trkpt>
      <trkpt lat="42.792228" lon="-0.142566">
        <time>2023-03-22T06:21:06+00:00</time>
        <ele>2144.0</ele>
      </trkpt>
      <trkpt lat="42.792101" lon="-0.142734">
        <time>2023-03-22T06:21:21+00:00</time>
        <ele>2144.0</ele>
      </trkpt>
      <trkpt lat="42.792067" lon="-0.142785">
        <time>2023-03-22T06:21:25+00:00</time>
        <ele>2144.0</ele>
      </trkpt>
      <trkpt lat="42.792047" lon="-0.14282">
        <time>2023-03-22T06:21:28+00:00</time>
        <ele>2144.0</ele>
      </trkpt>
      <trkpt lat="42.792032" lon="-0.142855">
        <time>2023-03-22T06:21:31+00:00</time>
        <ele>2144.0</ele>
      </trkpt>
      <trkpt lat="42.791985" lon="-0.142968">
        <time>2023-03-22T06:21:44+00:00</time>
        <ele>2144.0</ele>
      </trkpt>
      <trkpt lat="42.791971" lon="-0.142946">
        <time>2023-03-22T06:21:49+00:00</time>
        <ele>2145.0</ele>
      </trkpt>
      <trkpt lat="42.791934" lon="-0.143009">
        <time>2023-03-22T06:21:53+00:00</time>
        <ele>2145.0</ele>
      </trkpt>
      <trkpt lat="42.791914" lon="-0.143037">
        <time>2023-03-22T06:21:55+00:00</time>
        <ele>2145.0</ele>
      </trkpt>
      <trkpt lat="42.791878" lon="-0.143099">
        <time>2023-03-22T06:22:00+00:00</time>
        <ele>2145.0</ele>
      </trkpt>
      <trkpt lat="42.791759" lon="-0.143302">
        <time>2023-03-22T06:22:15+00:00</time>
        <ele>2145.0</ele>
      </trkpt>
      <trkpt lat="42.791643" lon="-0.143466">
        <time>2023-03-22T06:22:29+00:00</time>
        <ele>2146.0</ele>
      </trkpt>
      <trkpt lat="42.791528" lon="-0.143597">
        <time>2023-03-22T06:22:42+00:00</time>
        <ele>2146.0</ele>
      </trkpt>
      <trkpt lat="42.791413" lon="-0.143721">
        <time>2023-03-22T06:22:55+00:00</time>
        <ele>2147.0</ele>
      </trkpt>
      <trkpt lat="42.791333" lon="-0.143806">
        <time>2023-03-22T06:23:05+00:00</time>
        <ele>2147.0</ele>
      </trkpt>
      <trkpt lat="42.791195" lon="-0.143932">
        <time>2023-03-22T06:23:21+00:00</time>
        <ele>2147.0</ele>
      </trkpt>
      <trkpt lat="42.791123" lon="-0.143979">
        <time>2023-03-22T06:23:35+00:00</time>
        <ele>2148.0</ele>
      </trkpt>
      <trkpt lat="42.79102" lon="-0.144103">
        <time>2023-03-22T06:23:50+00:00</time>
        <ele>2150.0</ele>
      </trkpt>
      <trkpt lat="42.790952" lon="-0.144189">
        <time>2023-03-22T06:24:03+00:00</time>
        <ele>2152.0</ele>
      </trkpt>
      <trkpt lat="42.790883" lon="-0.144242">
        <time>2023-03-22T06:24:15+00:00</time>
        <ele>2153.0</ele>
      </trkpt>
      <trkpt lat="42.790802" lon="-0.144286">
        <time>2023-03-22T06:24:29+00:00</time>
        <ele>2155.0</ele>
      </trkpt>
      <trkpt lat="42.790724" lon="-0.144348">
        <time>2023-03-22T06:24:43+00:00</time>
        <ele>2157.0</ele>
      </trkpt>
      <trkpt lat="42.790693" lon="-0.144428">
        <time>2023-03-22T06:24:56+00:00</time>
        <ele>2159.0</ele>
      </trkpt>
      <trkpt lat="42.790614" lon="-0.144521">
        <time>2023-03-22T06:25:11+00:00</time>
        <ele>2162.0</ele>
      </trkpt>
      <trkpt lat="42.790532" lon="-0.144572">
        <time>2023-03-22T06:25:26+00:00</time>
        <ele>2164.0</ele>
      </trkpt>
      <trkpt lat="42.790462" lon="-0.1446">
        <time>2023-03-22T06:25:40+00:00</time>
        <ele>2165.0</ele>
      </trkpt>
      <trkpt lat="42.790369" lon="-0.144655">
        <time>2023-03-22T06:25:54+00:00</time>
        <ele>2167.0</ele>
      </trkpt>
      <trkpt lat="42.790292" lon="-0.144722">
        <time>2023-03-22T06:26:08+00:00</time>
        <ele>2169.0</ele>
      </trkpt>
      <trkpt lat="42.790215" lon="-0.144781">
        <time>2023-03-22T06:26:22+00:00</time>
        <ele>2171.0</ele>
      </trkpt>
      <trkpt lat="42.790258" lon="-0.144823">
        <time>2023-03-22T06:26:35+00:00</time>
        <ele>2173.0</ele>
      </trkpt>
      <trkpt lat="42.790347" lon="-0.144909">
        <time>2023-03-22T06:26:49+00:00</time>
        <ele>2175.0</ele>
      </trkpt>
      <trkpt lat="42.790426" lon="-0.144999">
        <time>2023-03-22T06:27:03+00:00</time>
        <ele>2177.0</ele>
      </trkpt>
      <trkpt lat="42.790471" lon="-0.145038">
        <time>2023-03-22T06:27:12+00:00</time>
        <ele>2179.0</ele>
      </trkpt>
      <trkpt lat="42.790393" lon="-0.145092">
        <time>2023-03-22T06:27:24+00:00</time>
        <ele>2182.0</ele>
      </trkpt>
      <trkpt lat="42.790299" lon="-0.145148">
        <time>2023-03-22T06:27:39+00:00</time>
        <ele>2185.0</ele>
      </trkpt>
      <trkpt lat="42.790209" lon="-0.145187">
        <time>2023-03-22T06:27:54+00:00</time>
        <ele>2189.0</ele>
      </trkpt>
      <trkpt lat="42.790141" lon="-0.145198">
        <time>2023-03-22T06:28:07+00:00</time>
        <ele>2191.0</ele>
      </trkpt>
      <trkpt lat="42.790053" lon="-0.145204">
        <time>2023-03-22T06:28:22+00:00</time>
        <ele>2194.0</ele>
      </trkpt>
      <trkpt lat="42.790034" lon="-0.145268">
        <time>2023-03-22T06:28:33+00:00</time>
        <ele>2196.0</ele>
      </trkpt>
      <trkpt lat="42.790052" lon="-0.145373">
        <time>2023-03-22T06:28:46+00:00</time>
        <ele>2198.0</ele>
      </trkpt>
      <trkpt lat="42.790085" lon="-0.14548">
        <time>2023-03-22T06:29:01+00:00</time>
        <ele>2199.0</ele>
      </trkpt>
      <trkpt lat="42.790135" lon="-0.145584">
        <time>2023-03-22T06:29:15+00:00</time>
        <ele>2201.0</ele>
      </trkpt>
      <trkpt lat="42.790213" lon="-0.145664">
        <time>2023-03-22T06:29:30+00:00</time>
        <ele>2202.0</ele>
      </trkpt>
      <trkpt lat="42.79025" lon="-0.145705">
        <time>2023-03-22T06:29:41+00:00</time>
        <ele>2204.0</ele>
      </trkpt>
      <trkpt lat="42.790156" lon="-0.145779">
        <time>2023-03-22T06:29:54+00:00</time>
        <ele>2206.0</ele>
      </trkpt>
      <trkpt lat="42.790069" lon="-0.145839">
        <time>2023-03-22T06:30:07+00:00</time>
        <ele>2208.0</ele>
      </trkpt>
      <trkpt lat="42.789993" lon="-0.145904">
        <time>2023-03-22T06:30:20+00:00</time>
        <ele>2210.0</ele>
      </trkpt>
      <trkpt lat="42.789918" lon="-0.145969">
        <time>2023-03-22T06:30:34+00:00</time>
        <ele>2212.0</ele>
      </trkpt>
      <trkpt lat="42.789837" lon="-0.146034">
        <time>2023-03-22T06:30:49+00:00</time>
        <ele>2214.0</ele>
      </trkpt>
      <trkpt lat="42.789753" lon="-0.146099">
        <time>2023-03-22T06:31:04+00:00</time>
        <ele>2218.0</ele>
      </trkpt>
      <trkpt lat="42.789691" lon="-0.146139">
        <time>2023-03-22T06:31:16+00:00</time>
        <ele>2220.0</ele>
      </trkpt>
      <trkpt lat="42.789754" lon="-0.146178">
        <time>2023-03-22T06:31:26+00:00</time>
        <ele>2220.0</ele>
      </trkpt>
      <trkpt lat="42.789825" lon="-0.146236">
        <time>2023-03-22T06:31:39+00:00</time>
        <ele>2221.0</ele>
      </trkpt>
      <trkpt lat="42.789941" lon="-0.146298">
        <time>2023-03-22T06:31:57+00:00</time>
        <ele>2223.0</ele>
      </trkpt>
      <trkpt lat="42.790004" lon="-0.146323">
        <time>2023-03-22T06:32:08+00:00</time>
        <ele>2223.0</ele>
      </trkpt>
      <trkpt lat="42.790061" lon="-0.146339">
        <time>2023-03-22T06:32:20+00:00</time>
        <ele>2225.0</ele>
      </trkpt>
      <trkpt lat="42.789978" lon="-0.146445">
        <time>2023-03-22T06:32:34+00:00</time>
        <ele>2229.0</ele>
      </trkpt>
      <trkpt lat="42.789919" lon="-0.146502">
        <time>2023-03-22T06:32:46+00:00</time>
        <ele>2232.0</ele>
      </trkpt>
      <trkpt lat="42.789845" lon="-0.146572">
        <time>2023-03-22T06:32:59+00:00</time>
        <ele>2235.0</ele>
      </trkpt>
      <trkpt lat="42.789846" lon="-0.146594">
        <time>2023-03-22T06:33:10+00:00</time>
        <ele>2236.0</ele>
      </trkpt>
      <trkpt lat="42.789951" lon="-0.146627">
        <time>2023-03-22T06:33:25+00:00</time>
        <ele>2237.0</ele>
      </trkpt>
      <trkpt lat="42.79003" lon="-0.146632">
        <time>2023-03-22T06:33:40+00:00</time>
        <ele>2238.0</ele>
      </trkpt>
      <trkpt lat="42.790043" lon="-0.146637">
        <time>2023-03-22T06:33:43+00:00</time>
        <ele>2238.0</ele>
      </trkpt>
      <trkpt lat="42.789987" lon="-0.146724">
        <time>2023-03-22T06:33:55+00:00</time>
        <ele>2242.0</ele>
      </trkpt>
      <trkpt lat="42.789924" lon="-0.1468">
        <time>2023-03-22T06:34:07+00:00</time>
        <ele>2246.0</ele>
      </trkpt>
      <trkpt lat="42.78986" lon="-0.146842">
        <time>2023-03-22T06:34:19+00:00</time>
        <ele>2249.0</ele>
      </trkpt>
      <trkpt lat="42.789855" lon="-0.146851">
        <time>2023-03-22T06:34:30+00:00</time>
        <ele>2249.0</ele>
      </trkpt>
      <trkpt lat="42.789938" lon="-0.146875">
        <time>2023-03-22T06:34:41+00:00</time>
        <ele>2249.0</ele>
      </trkpt>
      <trkpt lat="42.789991" lon="-0.146885">
        <time>2023-03-22T06:34:53+00:00</time>
        <ele>2249.0</ele>
      </trkpt>
      <trkpt lat="42.790054" lon="-0.146891">
        <time>2023-03-22T06:35:05+00:00</time>
        <ele>2251.0</ele>
      </trkpt>
      <trkpt lat="42.790059" lon="-0.146942">
        <time>2023-03-22T06:35:16+00:00</time>
        <ele>2253.0</ele>
      </trkpt>
      <trkpt lat="42.790008" lon="-0.147013">
        <time>2023-03-22T06:35:29+00:00</time>
        <ele>2255.0</ele>
      </trkpt>
      <trkpt lat="42.789927" lon="-0.147111">
        <time>2023-03-22T06:35:45+00:00</time>
        <ele>2260.0</ele>
      </trkpt>
      <trkpt lat="42.789894" lon="-0.147131">
        <time>2023-03-22T06:35:51+00:00</time>
        <ele>2261.0</ele>
      </trkpt>
      <trkpt lat="42.789982" lon="-0.147151">
        <time>2023-03-22T06:36:02+00:00</time>
        <ele>2261.0</ele>
      </trkpt>
      <trkpt lat="42.790053" lon="-0.147176">
        <time>2023-03-22T06:36:14+00:00</time>
        <ele>2263.0</ele>
      </trkpt>
      <trkpt lat="42.790116" lon="-0.14715">
        <time>2023-03-22T06:36:25+00:00</time>
        <ele>2263.0</ele>
      </trkpt>
      <trkpt lat="42.790129" lon="-0.147133">
        <time>2023-03-22T06:36:28+00:00</time>
        <ele>2263.0</ele>
      </trkpt>
      <trkpt lat="42.790077" lon="-0.147254">
        <time>2023-03-22T06:36:40+00:00</time>
        <ele>2268.0</ele>
      </trkpt>
      <trkpt lat="42.790045" lon="-0.147324">
        <time>2023-03-22T06:36:52+00:00</time>
        <ele>2271.0</ele>
      </trkpt>
      <trkpt lat="42.789975" lon="-0.147392">
        <time>2023-03-22T06:37:07+00:00</time>
        <ele>2274.0</ele>
      </trkpt>
      <trkpt lat="42.789936" lon="-0.147421">
        <time>2023-03-22T06:37:15+00:00</time>
        <ele>2277.0</ele>
      </trkpt>
      <trkpt lat="42.789987" lon="-0.147461">
        <time>2023-03-22T06:37:27+00:00</time>
        <ele>2278.0</ele>
      </trkpt>
      <trkpt lat="42.790052" lon="-0.147497">
        <time>2023-03-22T06:37:39+00:00</time>
        <ele>2280.0</ele>
      </trkpt>
      <trkpt lat="42.790051" lon="-0.14753">
        <time>2023-03-22T06:37:50+00:00</time>
        <ele>2281.0</ele>
      </trkpt>
      <trkpt lat="42.789965" lon="-0.147597">
        <time>2023-03-22T06:38:04+00:00</time>
        <ele>2285.0</ele>
      </trkpt>
      <trkpt lat="42.789971" lon="-0.147623">
        <time>2023-03-22T06:38:15+00:00</time>
        <ele>2286.0</ele>
      </trkpt>
      <trkpt lat="42.790039" lon="-0.147649">
        <time>2023-03-22T06:38:28+00:00</time>
        <ele>2287.0</ele>
      </trkpt>
      <trkpt lat="42.790005" lon="-0.147699">
        <time>2023-03-22T06:38:37+00:00</time>
        <ele>2288.0</ele>
      </trkpt>
      <trkpt lat="42.789958" lon="-0.147744">
        <time>2023-03-22T06:38:48+00:00</time>
        <ele>2291.0</ele>
      </trkpt>
      <trkpt lat="42.789908" lon="-0.147754">
        <time>2023-03-22T06:39:00+00:00</time>
        <ele>2293.0</ele>
      </trkpt>
      <trkpt lat="42.789961" lon="-0.147815">
        <time>2023-03-22T06:39:11+00:00</time>
        <ele>2294.0</ele>
      </trkpt>
      <trkpt lat="42.79003" lon="-0.147833">
        <time>2023-03-22T06:39:23+00:00</time>
        <ele>2294.0</ele>
      </trkpt>
      <trkpt lat="42.789994" lon="-0.147876">
        <time>2023-03-22T06:39:34+00:00</time>
        <ele>2296.0</ele>
      </trkpt>
      <trkpt lat="42.7899" lon="-0.147942">
        <time>2023-03-22T06:39:50+00:00</time>
        <ele>2301.0</ele>
      </trkpt>
      <trkpt lat="42.789843" lon="-0.147948">
        <time>2023-03-22T06:40:01+00:00</time>
        <ele>2303.0</ele>
      </trkpt>
      <trkpt lat="42.789882" lon="-0.148002">
        <time>2023-03-22T06:40:11+00:00</time>
        <ele>2304.0</ele>
      </trkpt>
      <trkpt lat="42.789914" lon="-0.148006">
        <time>2023-03-22T06:40:34+00:00</time>
        <ele>2304.0</ele>
      </trkpt>
      <trkpt lat="42.789942" lon="-0.148056">
        <time>2023-03-22T06:40:47+00:00</time>
        <ele>2305.0</ele>
      </trkpt>
      <trkpt lat="42.789853" lon="-0.148111">
        <time>2023-03-22T06:41:00+00:00</time>
        <ele>2310.0</ele>
      </trkpt>
      <trkpt lat="42.789814" lon="-0.148136">
        <time>2023-03-22T06:41:14+00:00</time>
        <ele>2312.0</ele>
      </trkpt>
      <trkpt lat="42.789865" lon="-0.1482">
        <time>2023-03-22T06:41:26+00:00</time>
        <ele>2313.0</ele>
      </trkpt>
      <trkpt lat="42.789917" lon="-0.148246">
        <time>2023-03-22T06:41:41+00:00</time>
        <ele>2313.0</ele>
      </trkpt>
      <trkpt lat="42.789838" lon="-0.148311">
        <time>2023-03-22T06:41:54+00:00</time>
        <ele>2317.0</ele>
      </trkpt>
      <trkpt lat="42.78977" lon="-0.148328">
        <time>2023-03-22T06:42:08+00:00</time>
        <ele>2319.0</ele>
      </trkpt>
      <trkpt lat="42.789778" lon="-0.148379">
        <time>2023-03-22T06:42:17+00:00</time>
        <ele>2320.0</ele>
      </trkpt>
      <trkpt lat="42.789849" lon="-0.148408">
        <time>2023-03-22T06:42:29+00:00</time>
        <ele>2319.0</ele>
      </trkpt>
      <trkpt lat="42.789945" lon="-0.148447">
        <time>2023-03-22T06:42:44+00:00</time>
        <ele>2318.0</ele>
      </trkpt>
      <trkpt lat="42.789932" lon="-0.148475">
        <time>2023-03-22T06:42:53+00:00</time>
        <ele>2319.0</ele>
      </trkpt>
      <trkpt lat="42.789854" lon="-0.148547">
        <time>2023-03-22T06:43:06+00:00</time>
        <ele>2323.0</ele>
      </trkpt>
      <trkpt lat="42.789837" lon="-0.148562">
        <time>2023-03-22T06:43:10+00:00</time>
        <ele>2323.0</ele>
      </trkpt>
      <trkpt lat="42.78992" lon="-0.148601">
        <time>2023-03-22T06:43:21+00:00</time>
        <ele>2323.0</ele>
      </trkpt>
      <trkpt lat="42.789969" lon="-0.148606">
        <time>2023-03-22T06:43:36+00:00</time>
        <ele>2322.0</ele>
      </trkpt>
      <trkpt lat="42.78997" lon="-0.14862">
        <time>2023-03-22T06:44:02+00:00</time>
        <ele>2323.0</ele>
      </trkpt>
      <trkpt lat="42.789971" lon="-0.148612">
        <time>2023-03-22T06:44:29+00:00</time>
        <ele>2322.0</ele>
      </trkpt>
      <trkpt lat="42.790008" lon="-0.148633">
        <time>2023-03-22T06:44:37+00:00</time>
        <ele>2323.0</ele>
      </trkpt>
      <trkpt lat="42.789981" lon="-0.148727">
        <time>2023-03-22T06:44:50+00:00</time>
        <ele>2326.0</ele>
      </trkpt>
      <trkpt lat="42.789932" lon="-0.148813">
        <time>2023-03-22T06:45:02+00:00</time>
        <ele>2329.0</ele>
      </trkpt>
      <trkpt lat="42.789894" lon="-0.14892">
        <time>2023-03-22T06:45:16+00:00</time>
        <ele>2333.0</ele>
      </trkpt>
      <trkpt lat="42.789875" lon="-0.14903">
        <time>2023-03-22T06:45:29+00:00</time>
        <ele>2336.0</ele>
      </trkpt>
      <trkpt lat="42.789885" lon="-0.149104">
        <time>2023-03-22T06:45:42+00:00</time>
        <ele>2339.0</ele>
      </trkpt>
      <trkpt lat="42.789968" lon="-0.149111">
        <time>2023-03-22T06:45:54+00:00</time>
        <ele>2338.0</ele>
      </trkpt>
      <trkpt lat="42.790049" lon="-0.149106">
        <time>2023-03-22T06:46:07+00:00</time>
        <ele>2339.0</ele>
      </trkpt>
      <trkpt lat="42.790127" lon="-0.149106">
        <time>2023-03-22T06:46:20+00:00</time>
        <ele>2340.0</ele>
      </trkpt>
      <trkpt lat="42.790197" lon="-0.149134">
        <time>2023-03-22T06:46:34+00:00</time>
        <ele>2343.0</ele>
      </trkpt>
      <trkpt lat="42.790238" lon="-0.149186">
        <time>2023-03-22T06:46:50+00:00</time>
        <ele>2346.0</ele>
      </trkpt>
      <trkpt lat="42.790193" lon="-0.149286">
        <time>2023-03-22T06:47:03+00:00</time>
        <ele>2348.0</ele>
      </trkpt>
      <trkpt lat="42.790158" lon="-0.149365">
        <time>2023-03-22T06:47:15+00:00</time>
        <ele>2350.0</ele>
      </trkpt>
      <trkpt lat="42.790118" lon="-0.149431">
        <time>2023-03-22T06:47:26+00:00</time>
        <ele>2352.0</ele>
      </trkpt>
      <trkpt lat="42.790183" lon="-0.149423">
        <time>2023-03-22T06:47:37+00:00</time>
        <ele>2353.0</ele>
      </trkpt>
      <trkpt lat="42.790296" lon="-0.149419">
        <time>2023-03-22T06:47:57+00:00</time>
        <ele>2356.0</ele>
      </trkpt>
      <trkpt lat="42.7904" lon="-0.149415">
        <time>2023-03-22T06:48:12+00:00</time>
        <ele>2360.0</ele>
      </trkpt>
      <trkpt lat="42.790442" lon="-0.149392">
        <time>2023-03-22T06:48:27+00:00</time>
        <ele>2361.0</ele>
      </trkpt>
      <trkpt lat="42.79041" lon="-0.149485">
        <time>2023-03-22T06:48:40+00:00</time>
        <ele>2362.0</ele>
      </trkpt>
      <trkpt lat="42.790352" lon="-0.149626">
        <time>2023-03-22T06:48:59+00:00</time>
        <ele>2366.0</ele>
      </trkpt>
      <trkpt lat="42.790301" lon="-0.149706">
        <time>2023-03-22T06:49:11+00:00</time>
        <ele>2368.0</ele>
      </trkpt>
      <trkpt lat="42.790249" lon="-0.149763">
        <time>2023-03-22T06:49:24+00:00</time>
        <ele>2370.0</ele>
      </trkpt>
      <trkpt lat="42.790284" lon="-0.149772">
        <time>2023-03-22T06:49:35+00:00</time>
        <ele>2371.0</ele>
      </trkpt>
      <trkpt lat="42.790379" lon="-0.14976">
        <time>2023-03-22T06:49:51+00:00</time>
        <ele>2372.0</ele>
      </trkpt>
      <trkpt lat="42.790471" lon="-0.149751">
        <time>2023-03-22T06:50:04+00:00</time>
        <ele>2375.0</ele>
      </trkpt>
      <trkpt lat="42.790526" lon="-0.149739">
        <time>2023-03-22T06:50:17+00:00</time>
        <ele>2377.0</ele>
      </trkpt>
      <trkpt lat="42.790468" lon="-0.149811">
        <time>2023-03-22T06:50:28+00:00</time>
        <ele>2377.0</ele>
      </trkpt>
      <trkpt lat="42.790427" lon="-0.14989">
        <time>2023-03-22T06:50:40+00:00</time>
        <ele>2379.0</ele>
      </trkpt>
      <trkpt lat="42.790381" lon="-0.14995">
        <time>2023-03-22T06:50:53+00:00</time>
        <ele>2381.0</ele>
      </trkpt>
      <trkpt lat="42.790335" lon="-0.150019">
        <time>2023-03-22T06:51:06+00:00</time>
        <ele>2384.0</ele>
      </trkpt>
      <trkpt lat="42.790306" lon="-0.150043">
        <time>2023-03-22T06:51:16+00:00</time>
        <ele>2385.0</ele>
      </trkpt>
      <trkpt lat="42.79041" lon="-0.150052">
        <time>2023-03-22T06:51:30+00:00</time>
        <ele>2386.0</ele>
      </trkpt>
      <trkpt lat="42.79049" lon="-0.150043">
        <time>2023-03-22T06:51:42+00:00</time>
        <ele>2387.0</ele>
      </trkpt>
      <trkpt lat="42.790514" lon="-0.150031">
        <time>2023-03-22T06:51:55+00:00</time>
        <ele>2387.0</ele>
      </trkpt>
      <trkpt lat="42.790593" lon="-0.150007">
        <time>2023-03-22T06:52:09+00:00</time>
        <ele>2388.0</ele>
      </trkpt>
      <trkpt lat="42.790548" lon="-0.150089">
        <time>2023-03-22T06:52:23+00:00</time>
        <ele>2390.0</ele>
      </trkpt>
      <trkpt lat="42.790505" lon="-0.150163">
        <time>2023-03-22T06:52:34+00:00</time>
        <ele>2392.0</ele>
      </trkpt>
      <trkpt lat="42.79045" lon="-0.150253">
        <time>2023-03-22T06:52:49+00:00</time>
        <ele>2395.0</ele>
      </trkpt>
      <trkpt lat="42.790407" lon="-0.15031">
        <time>2023-03-22T06:53:00+00:00</time>
        <ele>2396.0</ele>
      </trkpt>
      <trkpt lat="42.790445" lon="-0.150323">
        <time>2023-03-22T06:53:10+00:00</time>
        <ele>2397.0</ele>
      </trkpt>
      <trkpt lat="42.790527" lon="-0.150312">
        <time>2023-03-22T06:53:23+00:00</time>
        <ele>2398.0</ele>
      </trkpt>
      <trkpt lat="42.790598" lon="-0.150304">
        <time>2023-03-22T06:53:36+00:00</time>
        <ele>2399.0</ele>
      </trkpt>
      <trkpt lat="42.790648" lon="-0.150277">
        <time>2023-03-22T06:53:47+00:00</time>
        <ele>2401.0</ele>
      </trkpt>
      <trkpt lat="42.790638" lon="-0.150325">
        <time>2023-03-22T06:53:57+00:00</time>
        <ele>2402.0</ele>
      </trkpt>
      <trkpt lat="42.790593" lon="-0.150393">
        <time>2023-03-22T06:54:10+00:00</time>
        <ele>2403.0</ele>
      </trkpt>
      <trkpt lat="42.790561" lon="-0.150463">
        <time>2023-03-22T06:54:20+00:00</time>
        <ele>2406.0</ele>
      </trkpt>
      <trkpt lat="42.790529" lon="-0.15052">
        <time>2023-03-22T06:54:31+00:00</time>
        <ele>2408.0</ele>
      </trkpt>
      <trkpt lat="42.790594" lon="-0.150503">
        <time>2023-03-22T06:54:45+00:00</time>
        <ele>2408.0</ele>
      </trkpt>
      <trkpt lat="42.790669" lon="-0.150489">
        <time>2023-03-22T06:54:57+00:00</time>
        <ele>2411.0</ele>
      </trkpt>
      <trkpt lat="42.790692" lon="-0.150492">
        <time>2023-03-22T06:55:09+00:00</time>
        <ele>2412.0</ele>
      </trkpt>
      <trkpt lat="42.790656" lon="-0.150555">
        <time>2023-03-22T06:55:20+00:00</time>
        <ele>2413.0</ele>
      </trkpt>
      <trkpt lat="42.790608" lon="-0.150651">
        <time>2023-03-22T06:55:37+00:00</time>
        <ele>2416.0</ele>
      </trkpt>
      <trkpt lat="42.790552" lon="-0.15071">
        <time>2023-03-22T06:55:55+00:00</time>
        <ele>2418.0</ele>
      </trkpt>
      <trkpt lat="42.790641" lon="-0.150702">
        <time>2023-03-22T06:56:06+00:00</time>
        <ele>2419.0</ele>
      </trkpt>
      <trkpt lat="42.790723" lon="-0.150681">
        <time>2023-03-22T06:56:22+00:00</time>
        <ele>2421.0</ele>
      </trkpt>
      <trkpt lat="42.790714" lon="-0.150747">
        <time>2023-03-22T06:56:37+00:00</time>
        <ele>2423.0</ele>
      </trkpt>
      <trkpt lat="42.790675" lon="-0.150821">
        <time>2023-03-22T06:56:51+00:00</time>
        <ele>2426.0</ele>
      </trkpt>
      <trkpt lat="42.790605" lon="-0.150905">
        <time>2023-03-22T06:57:07+00:00</time>
        <ele>2429.0</ele>
      </trkpt>
      <trkpt lat="42.790576" lon="-0.150951">
        <time>2023-03-22T06:57:19+00:00</time>
        <ele>2431.0</ele>
      </trkpt>
      <trkpt lat="42.790702" lon="-0.150966">
        <time>2023-03-22T06:57:40+00:00</time>
        <ele>2433.0</ele>
      </trkpt>
      <trkpt lat="42.790713" lon="-0.15101">
        <time>2023-03-22T06:57:54+00:00</time>
        <ele>2435.0</ele>
      </trkpt>
      <trkpt lat="42.790652" lon="-0.151079">
        <time>2023-03-22T06:58:09+00:00</time>
        <ele>2437.0</ele>
      </trkpt>
      <trkpt lat="42.790571" lon="-0.151174">
        <time>2023-03-22T06:58:27+00:00</time>
        <ele>2442.0</ele>
      </trkpt>
      <trkpt lat="42.790549" lon="-0.151243">
        <time>2023-03-22T06:58:42+00:00</time>
        <ele>2444.0</ele>
      </trkpt>
      <trkpt lat="42.790629" lon="-0.151284">
        <time>2023-03-22T06:59:00+00:00</time>
        <ele>2446.0</ele>
      </trkpt>
      <trkpt lat="42.790549" lon="-0.151386">
        <time>2023-03-22T06:59:14+00:00</time>
        <ele>2450.0</ele>
      </trkpt>
      <trkpt lat="42.790497" lon="-0.151476">
        <time>2023-03-22T06:59:29+00:00</time>
        <ele>2453.0</ele>
      </trkpt>
      <trkpt lat="42.790437" lon="-0.151585">
        <time>2023-03-22T06:59:46+00:00</time>
        <ele>2456.0</ele>
      </trkpt>
      <trkpt lat="42.790418" lon="-0.15164">
        <time>2023-03-22T06:59:56+00:00</time>
        <ele>2457.0</ele>
      </trkpt>
      <trkpt lat="42.790365" lon="-0.15166">
        <time>2023-03-22T07:00:07+00:00</time>
        <ele>2458.0</ele>
      </trkpt>
      <trkpt lat="42.790324" lon="-0.151722">
        <time>2023-03-22T07:00:18+00:00</time>
        <ele>2461.0</ele>
      </trkpt>
      <trkpt lat="42.790277" lon="-0.1518">
        <time>2023-03-22T07:00:34+00:00</time>
        <ele>2464.0</ele>
      </trkpt>
      <trkpt lat="42.79022" lon="-0.151938">
        <time>2023-03-22T07:00:56+00:00</time>
        <ele>2469.0</ele>
      </trkpt>
      <trkpt lat="42.790264" lon="-0.152032">
        <time>2023-03-22T07:01:12+00:00</time>
        <ele>2472.0</ele>
      </trkpt>
      <trkpt lat="42.79029" lon="-0.15211">
        <time>2023-03-22T07:01:22+00:00</time>
        <ele>2474.0</ele>
      </trkpt>
      <trkpt lat="42.790293" lon="-0.152192">
        <time>2023-03-22T07:01:41+00:00</time>
        <ele>2477.0</ele>
      </trkpt>
      <trkpt lat="42.790275" lon="-0.152255">
        <time>2023-03-22T07:01:49+00:00</time>
        <ele>2479.0</ele>
      </trkpt>
      <trkpt lat="42.790225" lon="-0.152275">
        <time>2023-03-22T07:02:01+00:00</time>
        <ele>2480.0</ele>
      </trkpt>
      <trkpt lat="42.79015" lon="-0.152264">
        <time>2023-03-22T07:02:13+00:00</time>
        <ele>2481.0</ele>
      </trkpt>
      <trkpt lat="42.790137" lon="-0.152294">
        <time>2023-03-22T07:02:24+00:00</time>
        <ele>2482.0</ele>
      </trkpt>
      <trkpt lat="42.790135" lon="-0.152387">
        <time>2023-03-22T07:02:36+00:00</time>
        <ele>2484.0</ele>
      </trkpt>
      <trkpt lat="42.790135" lon="-0.152475">
        <time>2023-03-22T07:02:48+00:00</time>
        <ele>2487.0</ele>
      </trkpt>
      <trkpt lat="42.790123" lon="-0.15255">
        <time>2023-03-22T07:02:58+00:00</time>
        <ele>2490.0</ele>
      </trkpt>
      <trkpt lat="42.790055" lon="-0.152612">
        <time>2023-03-22T07:03:11+00:00</time>
        <ele>2494.0</ele>
      </trkpt>
      <trkpt lat="42.790086" lon="-0.152679">
        <time>2023-03-22T07:03:26+00:00</time>
        <ele>2496.0</ele>
      </trkpt>
      <trkpt lat="42.790099" lon="-0.152725">
        <time>2023-03-22T07:03:36+00:00</time>
        <ele>2497.0</ele>
      </trkpt>
      <trkpt lat="42.790036" lon="-0.15279">
        <time>2023-03-22T07:03:50+00:00</time>
        <ele>2500.0</ele>
      </trkpt>
      <trkpt lat="42.789967" lon="-0.152809">
        <time>2023-03-22T07:04:04+00:00</time>
        <ele>2503.0</ele>
      </trkpt>
      <trkpt lat="42.789932" lon="-0.152807">
        <time>2023-03-22T07:04:11+00:00</time>
        <ele>2504.0</ele>
      </trkpt>
      <trkpt lat="42.789948" lon="-0.152879">
        <time>2023-03-22T07:04:23+00:00</time>
        <ele>2505.0</ele>
      </trkpt>
      <trkpt lat="42.789956" lon="-0.152941">
        <time>2023-03-22T07:04:33+00:00</time>
        <ele>2507.0</ele>
      </trkpt>
      <trkpt lat="42.789873" lon="-0.152978">
        <time>2023-03-22T07:04:51+00:00</time>
        <ele>2510.0</ele>
      </trkpt>
      <trkpt lat="42.789859" lon="-0.153027">
        <time>2023-03-22T07:05:01+00:00</time>
        <ele>2512.0</ele>
      </trkpt>
      <trkpt lat="42.789901" lon="-0.153111">
        <time>2023-03-22T07:05:19+00:00</time>
        <ele>2513.0</ele>
      </trkpt>
      <trkpt lat="42.789883" lon="-0.153191">
        <time>2023-03-22T07:05:30+00:00</time>
        <ele>2515.0</ele>
      </trkpt>
      <trkpt lat="42.789842" lon="-0.153294">
        <time>2023-03-22T07:05:44+00:00</time>
        <ele>2517.0</ele>
      </trkpt>
      <trkpt lat="42.789829" lon="-0.153397">
        <time>2023-03-22T07:05:56+00:00</time>
        <ele>2519.0</ele>
      </trkpt>
      <trkpt lat="42.789811" lon="-0.153484">
        <time>2023-03-22T07:06:08+00:00</time>
        <ele>2521.0</ele>
      </trkpt>
      <trkpt lat="42.789772" lon="-0.153598">
        <time>2023-03-22T07:06:25+00:00</time>
        <ele>2524.0</ele>
      </trkpt>
      <trkpt lat="42.789698" lon="-0.153725">
        <time>2023-03-22T07:06:47+00:00</time>
        <ele>2530.0</ele>
      </trkpt>
      <trkpt lat="42.789705" lon="-0.153821">
        <time>2023-03-22T07:07:01+00:00</time>
        <ele>2532.0</ele>
      </trkpt>
      <trkpt lat="42.789754" lon="-0.15386">
        <time>2023-03-22T07:07:13+00:00</time>
        <ele>2531.0</ele>
      </trkpt>
      <trkpt lat="42.789723" lon="-0.153935">
        <time>2023-03-22T07:07:24+00:00</time>
        <ele>2533.0</ele>
      </trkpt>
      <trkpt lat="42.789653" lon="-0.154009">
        <time>2023-03-22T07:07:40+00:00</time>
        <ele>2538.0</ele>
      </trkpt>
      <trkpt lat="42.789645" lon="-0.154058">
        <time>2023-03-22T07:07:51+00:00</time>
        <ele>2539.0</ele>
      </trkpt>
      <trkpt lat="42.789673" lon="-0.15415">
        <time>2023-03-22T07:08:04+00:00</time>
        <ele>2540.0</ele>
      </trkpt>
      <trkpt lat="42.789661" lon="-0.154206">
        <time>2023-03-22T07:08:16+00:00</time>
        <ele>2542.0</ele>
      </trkpt>
      <trkpt lat="42.789607" lon="-0.154262">
        <time>2023-03-22T07:08:29+00:00</time>
        <ele>2545.0</ele>
      </trkpt>
      <trkpt lat="42.78954" lon="-0.154248">
        <time>2023-03-22T07:08:43+00:00</time>
        <ele>2549.0</ele>
      </trkpt>
      <trkpt lat="42.789537" lon="-0.154312">
        <time>2023-03-22T07:08:53+00:00</time>
        <ele>2550.0</ele>
      </trkpt>
      <trkpt lat="42.789559" lon="-0.154411">
        <time>2023-03-22T07:09:10+00:00</time>
        <ele>2551.0</ele>
      </trkpt>
      <trkpt lat="42.789586" lon="-0.154482">
        <time>2023-03-22T07:09:21+00:00</time>
        <ele>2551.0</ele>
      </trkpt>
      <trkpt lat="42.789615" lon="-0.154556">
        <time>2023-03-22T07:09:32+00:00</time>
        <ele>2552.0</ele>
      </trkpt>
      <trkpt lat="42.789602" lon="-0.154582">
        <time>2023-03-22T07:09:41+00:00</time>
        <ele>2553.0</ele>
      </trkpt>
      <trkpt lat="42.789518" lon="-0.154587">
        <time>2023-03-22T07:09:54+00:00</time>
        <ele>2557.0</ele>
      </trkpt>
      <trkpt lat="42.78944" lon="-0.154577">
        <time>2023-03-22T07:10:09+00:00</time>
        <ele>2561.0</ele>
      </trkpt>
      <trkpt lat="42.78937" lon="-0.154543">
        <time>2023-03-22T07:10:24+00:00</time>
        <ele>2564.0</ele>
      </trkpt>
      <trkpt lat="42.789333" lon="-0.154544">
        <time>2023-03-22T07:10:38+00:00</time>
        <ele>2566.0</ele>
      </trkpt>
      <trkpt lat="42.789354" lon="-0.15466">
        <time>2023-03-22T07:10:54+00:00</time>
        <ele>2566.0</ele>
      </trkpt>
      <trkpt lat="42.789385" lon="-0.154747">
        <time>2023-03-22T07:11:10+00:00</time>
        <ele>2566.0</ele>
      </trkpt>
      <trkpt lat="42.789317" lon="-0.154736">
        <time>2023-03-22T07:11:21+00:00</time>
        <ele>2569.0</ele>
      </trkpt>
      <trkpt lat="42.789254" lon="-0.154713">
        <time>2023-03-22T07:11:32+00:00</time>
        <ele>2572.0</ele>
      </trkpt>
      <trkpt lat="42.789222" lon="-0.154723">
        <time>2023-03-22T07:11:46+00:00</time>
        <ele>2574.0</ele>
      </trkpt>
      <trkpt lat="42.789253" lon="-0.154809">
        <time>2023-03-22T07:11:59+00:00</time>
        <ele>2574.0</ele>
      </trkpt>
      <trkpt lat="42.789275" lon="-0.154889">
        <time>2023-03-22T07:12:11+00:00</time>
        <ele>2574.0</ele>
      </trkpt>
      <trkpt lat="42.789297" lon="-0.154971">
        <time>2023-03-22T07:12:24+00:00</time>
        <ele>2575.0</ele>
      </trkpt>
      <trkpt lat="42.789285" lon="-0.155035">
        <time>2023-03-22T07:12:35+00:00</time>
        <ele>2577.0</ele>
      </trkpt>
      <trkpt lat="42.789205" lon="-0.155057">
        <time>2023-03-22T07:12:50+00:00</time>
        <ele>2581.0</ele>
      </trkpt>
      <trkpt lat="42.789158" lon="-0.155141">
        <time>2023-03-22T07:13:06+00:00</time>
        <ele>2585.0</ele>
      </trkpt>
      <trkpt lat="42.789182" lon="-0.155218">
        <time>2023-03-22T07:13:18+00:00</time>
        <ele>2585.0</ele>
      </trkpt>
      <trkpt lat="42.789183" lon="-0.155314">
        <time>2023-03-22T07:13:30+00:00</time>
        <ele>2587.0</ele>
      </trkpt>
      <trkpt lat="42.789156" lon="-0.155383">
        <time>2023-03-22T07:13:40+00:00</time>
        <ele>2590.0</ele>
      </trkpt>
      <trkpt lat="42.789143" lon="-0.155494">
        <time>2023-03-22T07:13:54+00:00</time>
        <ele>2592.0</ele>
      </trkpt>
      <trkpt lat="42.78918" lon="-0.155583">
        <time>2023-03-22T07:14:07+00:00</time>
        <ele>2592.0</ele>
      </trkpt>
      <trkpt lat="42.789231" lon="-0.155635">
        <time>2023-03-22T07:14:21+00:00</time>
        <ele>2592.0</ele>
      </trkpt>
      <trkpt lat="42.789236" lon="-0.155647">
        <time>2023-03-22T07:14:26+00:00</time>
        <ele>2592.0</ele>
      </trkpt>
      <trkpt lat="42.789233" lon="-0.155645">
        <time>2023-03-22T07:14:27+00:00</time>
        <ele>2592.0</ele>
      </trkpt>
      <trkpt lat="42.789234" lon="-0.155647">
        <time>2023-03-22T07:14:31+00:00</time>
        <ele>2592.0</ele>
      </trkpt>
      <trkpt lat="42.789237" lon="-0.155651">
        <time>2023-03-22T07:14:36+00:00</time>
        <ele>2592.0</ele>
      </trkpt>
      <trkpt lat="42.789235" lon="-0.155644">
        <time>2023-03-22T07:14:38+00:00</time>
        <ele>2592.0</ele>
      </trkpt>
      <trkpt lat="42.78924" lon="-0.155637">
        <time>2023-03-22T07:14:44+00:00</time>
        <ele>2592.0</ele>
      </trkpt>
      <trkpt lat="42.789238" lon="-0.155637">
        <time>2023-03-22T07:14:45+00:00</time>
        <ele>2592.0</ele>
      </trkpt>
      <trkpt lat="42.789235" lon="-0.155636">
        <time>2023-03-22T07:14:46+00:00</time>
        <ele>2592.0</ele>
      </trkpt>
      <trkpt lat="42.789233" lon="-0.155638">
        <time>2023-03-22T07:14:49+00:00</time>
        <ele>2592.0</ele>
      </trkpt>
      <trkpt lat="42.789234" lon="-0.155638">
        <time>2023-03-22T07:14:53+00:00</time>
        <ele>2592.0</ele>
      </trkpt>
      <trkpt lat="42.789234" lon="-0.155639">
        <time>2023-03-22T07:14:56+00:00</time>
        <ele>2592.0</ele>
      </trkpt>
      <trkpt lat="42.789235" lon="-0.155641">
        <time>2023-03-22T07:14:58+00:00</time>
        <ele>2592.0</ele>
      </trkpt>
      <trkpt lat="42.789239" lon="-0.155648">
        <time>2023-03-22T07:15:03+00:00</time>
        <ele>2592.0</ele>
      </trkpt>
      <trkpt lat="42.78923" lon="-0.155652">
        <time>2023-03-22T07:15:23+00:00</time>
        <ele>2592.0</ele>
      </trkpt>
      <trkpt lat="42.789226" lon="-0.155636">
        <time>2023-03-22T07:16:00+00:00</time>
        <ele>2592.0</ele>
      </trkpt>
      <trkpt lat="42.78923" lon="-0.155633">
        <time>2023-03-22T07:16:13+00:00</time>
        <ele>2592.0</ele>
      </trkpt>
      <trkpt lat="42.789229" lon="-0.155637">
        <time>2023-03-22T07:16:15+00:00</time>
        <ele>2592.0</ele>
      </trkpt>
      <trkpt lat="42.789232" lon="-0.155637">
        <time>2023-03-22T07:16:18+00:00</time>
        <ele>2592.0</ele>
      </trkpt>
      <trkpt lat="42.789235" lon="-0.155645">
        <time>2023-03-22T07:16:28+00:00</time>
        <ele>2592.0</ele>
      </trkpt>
      <trkpt lat="42.789234" lon="-0.155646">
        <time>2023-03-22T07:16:31+00:00</time>
        <ele>2592.0</ele>
      </trkpt>
      <trkpt lat="42.789239" lon="-0.155651">
        <time>2023-03-22T07:17:13+00:00</time>
        <ele>2592.0</ele>
      </trkpt>
      <trkpt lat="42.789234" lon="-0.155653">
        <time>2023-03-22T07:17:47+00:00</time>
        <ele>2592.0</ele>
      </trkpt>
      <trkpt lat="42.789226" lon="-0.155652">
        <time>2023-03-22T07:18:28+00:00</time>
        <ele>2592.0</ele>
      </trkpt>
      <trkpt lat="42.789225" lon="-0.155647">
        <time>2023-03-22T07:19:06+00:00</time>
        <ele>2592.0</ele>
      </trkpt>
      <trkpt lat="42.789227" lon="-0.155659">
        <time>2023-03-22T07:19:54+00:00</time>
        <ele>2592.0</ele>
      </trkpt>
      <trkpt lat="42.78923" lon="-0.155659">
        <time>2023-03-22T07:20:39+00:00</time>
        <ele>2593.0</ele>
      </trkpt>
      <trkpt lat="42.789227" lon="-0.155646">
        <time>2023-03-22T07:20:43+00:00</time>
        <ele>2592.0</ele>
      </trkpt>
      <trkpt lat="42.789227" lon="-0.155636">
        <time>2023-03-22T07:20:58+00:00</time>
        <ele>2592.0</ele>
      </trkpt>
      <trkpt lat="42.789225" lon="-0.155636">
        <time>2023-03-22T07:21:00+00:00</time>
        <ele>2592.0</ele>
      </trkpt>
      <trkpt lat="42.789229" lon="-0.155631">
        <time>2023-03-22T07:21:38+00:00</time>
        <ele>2592.0</ele>
      </trkpt>
      <trkpt lat="42.789218" lon="-0.155635">
        <time>2023-03-22T07:22:28+00:00</time>
        <ele>2592.0</ele>
      </trkpt>
      <trkpt lat="42.789219" lon="-0.155624">
        <time>2023-03-22T07:22:55+00:00</time>
        <ele>2592.0</ele>
      </trkpt>
      <trkpt lat="42.789242" lon="-0.155623">
        <time>2023-03-22T07:23:15+00:00</time>
        <ele>2592.0</ele>
      </trkpt>
      <trkpt lat="42.789241" lon="-0.155624">
        <time>2023-03-22T07:23:16+00:00</time>
        <ele>2592.0</ele>
      </trkpt>
      <trkpt lat="42.789241" lon="-0.155623">
        <time>2023-03-22T07:23:17+00:00</time>
        <ele>2592.0</ele>
      </trkpt>
      <trkpt lat="42.78924" lon="-0.155622">
        <time>2023-03-22T07:23:18+00:00</time>
        <ele>2592.0</ele>
      </trkpt>
      <trkpt lat="42.789227" lon="-0.155636">
        <time>2023-03-22T07:23:34+00:00</time>
        <ele>2592.0</ele>
      </trkpt>
      <trkpt lat="42.789235" lon="-0.155636">
        <time>2023-03-22T07:23:53+00:00</time>
        <ele>2592.0</ele>
      </trkpt>
      <trkpt lat="42.789249" lon="-0.155625">
        <time>2023-03-22T07:24:12+00:00</time>
        <ele>2592.0</ele>
      </trkpt>
      <trkpt lat="42.78925" lon="-0.15561">
        <time>2023-03-22T07:24:48+00:00</time>
        <ele>2592.0</ele>
      </trkpt>
      <trkpt lat="42.789258" lon="-0.155614">
        <time>2023-03-22T07:25:26+00:00</time>
        <ele>2592.0</ele>
      </trkpt>
      <trkpt lat="42.789237" lon="-0.155616">
        <time>2023-03-22T07:26:02+00:00</time>
        <ele>2592.0</ele>
      </trkpt>
      <trkpt lat="42.789219" lon="-0.155606">
        <time>2023-03-22T07:26:23+00:00</time>
        <ele>2592.0</ele>
      </trkpt>
      <trkpt lat="42.789216" lon="-0.155621">
        <time>2023-03-22T07:26:36+00:00</time>
        <ele>2592.0</ele>
      </trkpt>
      <trkpt lat="42.789224" lon="-0.155631">
        <time>2023-03-22T07:26:52+00:00</time>
        <ele>2592.0</ele>
      </trkpt>
      <trkpt lat="42.789218" lon="-0.155627">
        <time>2023-03-22T07:27:11+00:00</time>
        <ele>2592.0</ele>
      </trkpt>
      <trkpt lat="42.789219" lon="-0.155642">
        <time>2023-03-22T07:27:14+00:00</time>
        <ele>2592.0</ele>
      </trkpt>
      <trkpt lat="42.789214" lon="-0.155668">
        <time>2023-03-22T07:27:25+00:00</time>
        <ele>2593.0</ele>
      </trkpt>
      <trkpt lat="42.789222" lon="-0.155654">
        <time>2023-03-22T07:27:48+00:00</time>
        <ele>2592.0</ele>
      </trkpt>
      <trkpt lat="42.789218" lon="-0.155653">
        <time>2023-03-22T07:28:05+00:00</time>
        <ele>2592.0</ele>
      </trkpt>
      <trkpt lat="42.78922" lon="-0.155624">
        <time>2023-03-22T07:28:16+00:00</time>
        <ele>2592.0</ele>
      </trkpt>
      <trkpt lat="42.789203" lon="-0.155601">
        <time>2023-03-22T07:28:26+00:00</time>
        <ele>2592.0</ele>
      </trkpt>
      <trkpt lat="42.789202" lon="-0.155607">
        <time>2023-03-22T07:28:35+00:00</time>
        <ele>2592.0</ele>
      </trkpt>
      <trkpt lat="42.789202" lon="-0.15562">
        <time>2023-03-22T07:28:54+00:00</time>
        <ele>2592.0</ele>
      </trkpt>
      <trkpt lat="42.789205" lon="-0.155627">
        <time>2023-03-22T07:28:59+00:00</time>
        <ele>2592.0</ele>
      </trkpt>
      <trkpt lat="42.789196" lon="-0.155634">
        <time>2023-03-22T07:29:25+00:00</time>
        <ele>2592.0</ele>
      </trkpt>
      <trkpt lat="42.789201" lon="-0.155629">
        <time>2023-03-22T07:29:35+00:00</time>
        <ele>2592.0</ele>
      </trkpt>
      <trkpt lat="42.789211" lon="-0.155633">
        <time>2023-03-22T07:29:59+00:00</time>
        <ele>2592.0</ele>
      </trkpt>
      <trkpt lat="42.789209" lon="-0.15566">
        <time>2023-03-22T07:30:09+00:00</time>
        <ele>2592.0</ele>
      </trkpt>
      <trkpt lat="42.789166" lon="-0.155824">
        <time>2023-03-22T07:30:13+00:00</time>
        <ele>2593.0</ele>
      </trkpt>
      <trkpt lat="42.789202" lon="-0.15591">
        <time>2023-03-22T07:30:14+00:00</time>
        <ele>2592.0</ele>
      </trkpt>
      <trkpt lat="42.789217" lon="-0.15598">
        <time>2023-03-22T07:30:15+00:00</time>
        <ele>2591.0</ele>
      </trkpt>
      <trkpt lat="42.789208" lon="-0.156073">
        <time>2023-03-22T07:30:16+00:00</time>
        <ele>2588.0</ele>
      </trkpt>
      <trkpt lat="42.78922" lon="-0.156154">
        <time>2023-03-22T07:30:17+00:00</time>
        <ele>2586.0</ele>
      </trkpt>
      <trkpt lat="42.789271" lon="-0.156216">
        <time>2023-03-22T07:30:18+00:00</time>
        <ele>2583.0</ele>
      </trkpt>
      <trkpt lat="42.789303" lon="-0.156291">
        <time>2023-03-22T07:30:19+00:00</time>
        <ele>2580.0</ele>
      </trkpt>
      <trkpt lat="42.789288" lon="-0.156368">
        <time>2023-03-22T07:30:20+00:00</time>
        <ele>2577.0</ele>
      </trkpt>
      <trkpt lat="42.789275" lon="-0.156456">
        <time>2023-03-22T07:30:21+00:00</time>
        <ele>2574.0</ele>
      </trkpt>
      <trkpt lat="42.789328" lon="-0.156565">
        <time>2023-03-22T07:30:23+00:00</time>
        <ele>2570.0</ele>
      </trkpt>
      <trkpt lat="42.789315" lon="-0.156681">
        <time>2023-03-22T07:30:25+00:00</time>
        <ele>2565.0</ele>
      </trkpt>
      <trkpt lat="42.789323" lon="-0.156805">
        <time>2023-03-22T07:30:27+00:00</time>
        <ele>2559.0</ele>
      </trkpt>
      <trkpt lat="42.789345" lon="-0.156867">
        <time>2023-03-22T07:30:28+00:00</time>
        <ele>2557.0</ele>
      </trkpt>
      <trkpt lat="42.789334" lon="-0.156941">
        <time>2023-03-22T07:30:29+00:00</time>
        <ele>2555.0</ele>
      </trkpt>
      <trkpt lat="42.789361" lon="-0.157058">
        <time>2023-03-22T07:30:31+00:00</time>
        <ele>2551.0</ele>
      </trkpt>
      <trkpt lat="42.789407" lon="-0.157135">
        <time>2023-03-22T07:30:32+00:00</time>
        <ele>2549.0</ele>
      </trkpt>
      <trkpt lat="42.789425" lon="-0.157245">
        <time>2023-03-22T07:30:34+00:00</time>
        <ele>2546.0</ele>
      </trkpt>
      <trkpt lat="42.789519" lon="-0.157284">
        <time>2023-03-22T07:30:36+00:00</time>
        <ele>2544.0</ele>
      </trkpt>
      <trkpt lat="42.789541" lon="-0.1574">
        <time>2023-03-22T07:30:38+00:00</time>
        <ele>2539.0</ele>
      </trkpt>
      <trkpt lat="42.789521" lon="-0.157459">
        <time>2023-03-22T07:30:40+00:00</time>
        <ele>2537.0</ele>
      </trkpt>
      <trkpt lat="42.789521" lon="-0.157465">
        <time>2023-03-22T07:30:41+00:00</time>
        <ele>2537.0</ele>
      </trkpt>
      <trkpt lat="42.789674" lon="-0.157527">
        <time>2023-03-22T07:30:46+00:00</time>
        <ele>2529.0</ele>
      </trkpt>
      <trkpt lat="42.789717" lon="-0.157665">
        <time>2023-03-22T07:30:48+00:00</time>
        <ele>2522.0</ele>
      </trkpt>
      <trkpt lat="42.7898" lon="-0.157682">
        <time>2023-03-22T07:30:50+00:00</time>
        <ele>2518.0</ele>
      </trkpt>
      <trkpt lat="42.78983" lon="-0.157744">
        <time>2023-03-22T07:30:51+00:00</time>
        <ele>2515.0</ele>
      </trkpt>
      <trkpt lat="42.789871" lon="-0.15792">
        <time>2023-03-22T07:30:54+00:00</time>
        <ele>2507.0</ele>
      </trkpt>
      <trkpt lat="42.789978" lon="-0.15787">
        <time>2023-03-22T07:30:57+00:00</time>
        <ele>2504.0</ele>
      </trkpt>
      <trkpt lat="42.790029" lon="-0.157938">
        <time>2023-03-22T07:30:59+00:00</time>
        <ele>2500.0</ele>
      </trkpt>
      <trkpt lat="42.790026" lon="-0.158045">
        <time>2023-03-22T07:31:01+00:00</time>
        <ele>2496.0</ele>
      </trkpt>
      <trkpt lat="42.790102" lon="-0.15811">
        <time>2023-03-22T07:31:03+00:00</time>
        <ele>2491.0</ele>
      </trkpt>
      <trkpt lat="42.790119" lon="-0.158174">
        <time>2023-03-22T07:31:04+00:00</time>
        <ele>2488.0</ele>
      </trkpt>
      <trkpt lat="42.790163" lon="-0.158327">
        <time>2023-03-22T07:31:06+00:00</time>
        <ele>2479.0</ele>
      </trkpt>
      <trkpt lat="42.790223" lon="-0.158352">
        <time>2023-03-22T07:31:07+00:00</time>
        <ele>2476.0</ele>
      </trkpt>
      <trkpt lat="42.79028" lon="-0.158352">
        <time>2023-03-22T07:31:08+00:00</time>
        <ele>2475.0</ele>
      </trkpt>
      <trkpt lat="42.790338" lon="-0.158361">
        <time>2023-03-22T07:31:09+00:00</time>
        <ele>2473.0</ele>
      </trkpt>
      <trkpt lat="42.790373" lon="-0.158414">
        <time>2023-03-22T07:31:10+00:00</time>
        <ele>2470.0</ele>
      </trkpt>
      <trkpt lat="42.790369" lon="-0.158468">
        <time>2023-03-22T07:31:11+00:00</time>
        <ele>2468.0</ele>
      </trkpt>
      <trkpt lat="42.790341" lon="-0.158519">
        <time>2023-03-22T07:31:12+00:00</time>
        <ele>2467.0</ele>
      </trkpt>
      <trkpt lat="42.79031" lon="-0.15858">
        <time>2023-03-22T07:31:13+00:00</time>
        <ele>2466.0</ele>
      </trkpt>
      <trkpt lat="42.790312" lon="-0.15865">
        <time>2023-03-22T07:31:14+00:00</time>
        <ele>2464.0</ele>
      </trkpt>
      <trkpt lat="42.790348" lon="-0.158702">
        <time>2023-03-22T07:31:15+00:00</time>
        <ele>2461.0</ele>
      </trkpt>
      <trkpt lat="42.790394" lon="-0.158737">
        <time>2023-03-22T07:31:16+00:00</time>
        <ele>2459.0</ele>
      </trkpt>
      <trkpt lat="42.790426" lon="-0.158793">
        <time>2023-03-22T07:31:17+00:00</time>
        <ele>2457.0</ele>
      </trkpt>
      <trkpt lat="42.790423" lon="-0.15887">
        <time>2023-03-22T07:31:18+00:00</time>
        <ele>2453.0</ele>
      </trkpt>
      <trkpt lat="42.790329" lon="-0.158993">
        <time>2023-03-22T07:31:20+00:00</time>
        <ele>2449.0</ele>
      </trkpt>
      <trkpt lat="42.790337" lon="-0.159143">
        <time>2023-03-22T07:31:22+00:00</time>
        <ele>2442.0</ele>
      </trkpt>
      <trkpt lat="42.790381" lon="-0.159212">
        <time>2023-03-22T07:31:23+00:00</time>
        <ele>2439.0</ele>
      </trkpt>
      <trkpt lat="42.790574" lon="-0.159481">
        <time>2023-03-22T07:31:27+00:00</time>
        <ele>2434.0</ele>
      </trkpt>
      <trkpt lat="42.790609" lon="-0.159567">
        <time>2023-03-22T07:31:28+00:00</time>
        <ele>2433.0</ele>
      </trkpt>
      <trkpt lat="42.790624" lon="-0.159655">
        <time>2023-03-22T07:31:29+00:00</time>
        <ele>2432.0</ele>
      </trkpt>
      <trkpt lat="42.790621" lon="-0.159744">
        <time>2023-03-22T07:31:30+00:00</time>
        <ele>2430.0</ele>
      </trkpt>
      <trkpt lat="42.790601" lon="-0.159826">
        <time>2023-03-22T07:31:31+00:00</time>
        <ele>2428.0</ele>
      </trkpt>
      <trkpt lat="42.790571" lon="-0.159887">
        <time>2023-03-22T07:31:32+00:00</time>
        <ele>2427.0</ele>
      </trkpt>
      <trkpt lat="42.790539" lon="-0.159938">
        <time>2023-03-22T07:31:33+00:00</time>
        <ele>2426.0</ele>
      </trkpt>
      <trkpt lat="42.790513" lon="-0.159994">
        <time>2023-03-22T07:31:34+00:00</time>
        <ele>2424.0</ele>
      </trkpt>
      <trkpt lat="42.790491" lon="-0.160067">
        <time>2023-03-22T07:31:35+00:00</time>
        <ele>2423.0</ele>
      </trkpt>
      <trkpt lat="42.790319" lon="-0.16064">
        <time>2023-03-22T07:31:43+00:00</time>
        <ele>2422.0</ele>
      </trkpt>
      <trkpt lat="42.790287" lon="-0.160911">
        <time>2023-03-22T07:31:48+00:00</time>
        <ele>2422.0</ele>
      </trkpt>
      <trkpt lat="42.790245" lon="-0.161012">
        <time>2023-03-22T07:31:50+00:00</time>
        <ele>2422.0</ele>
      </trkpt>
      <trkpt lat="42.790218" lon="-0.161213">
        <time>2023-03-22T07:31:54+00:00</time>
        <ele>2422.0</ele>
      </trkpt>
      <trkpt lat="42.790237" lon="-0.16141">
        <time>2023-03-22T07:32:06+00:00</time>
        <ele>2421.0</ele>
      </trkpt>
      <trkpt lat="42.790217" lon="-0.161416">
        <time>2023-03-22T07:32:24+00:00</time>
        <ele>2421.0</ele>
      </trkpt>
      <trkpt lat="42.790216" lon="-0.161413">
        <time>2023-03-22T07:32:43+00:00</time>
        <ele>2421.0</ele>
      </trkpt>
      <trkpt lat="42.790223" lon="-0.161412">
        <time>2023-03-22T07:33:02+00:00</time>
        <ele>2421.0</ele>
      </trkpt>
      <trkpt lat="42.790221" lon="-0.161408">
        <time>2023-03-22T07:33:10+00:00</time>
        <ele>2421.0</ele>
      </trkpt>
      <trkpt lat="42.790222" lon="-0.161682">
        <time>2023-03-22T07:33:16+00:00</time>
        <ele>2417.0</ele>
      </trkpt>
      <trkpt lat="42.790171" lon="-0.161834">
        <time>2023-03-22T07:33:18+00:00</time>
        <ele>2412.0</ele>
      </trkpt>
      <trkpt lat="42.790105" lon="-0.162024">
        <time>2023-03-22T07:33:20+00:00</time>
        <ele>2404.0</ele>
      </trkpt>
      <trkpt lat="42.790075" lon="-0.162093">
        <time>2023-03-22T07:33:21+00:00</time>
        <ele>2401.0</ele>
      </trkpt>
      <trkpt lat="42.790075" lon="-0.162189">
        <time>2023-03-22T07:33:22+00:00</time>
        <ele>2398.0</ele>
      </trkpt>
      <trkpt lat="42.790096" lon="-0.162366">
        <time>2023-03-22T07:33:24+00:00</time>
        <ele>2394.0</ele>
      </trkpt>
      <trkpt lat="42.790053" lon="-0.162415">
        <time>2023-03-22T07:33:25+00:00</time>
        <ele>2391.0</ele>
      </trkpt>
      <trkpt lat="42.789994" lon="-0.16245">
        <time>2023-03-22T07:33:26+00:00</time>
        <ele>2387.0</ele>
      </trkpt>
      <trkpt lat="42.7899" lon="-0.162668">
        <time>2023-03-22T07:33:28+00:00</time>
        <ele>2379.0</ele>
      </trkpt>
      <trkpt lat="42.789805" lon="-0.162877">
        <time>2023-03-22T07:33:30+00:00</time>
        <ele>2374.0</ele>
      </trkpt>
      <trkpt lat="42.789679" lon="-0.16294">
        <time>2023-03-22T07:33:31+00:00</time>
        <ele>2371.0</ele>
      </trkpt>
      <trkpt lat="42.789517" lon="-0.16308">
        <time>2023-03-22T07:33:33+00:00</time>
        <ele>2367.0</ele>
      </trkpt>
      <trkpt lat="42.789404" lon="-0.163182">
        <time>2023-03-22T07:33:34+00:00</time>
        <ele>2365.0</ele>
      </trkpt>
      <trkpt lat="42.789243" lon="-0.16329">
        <time>2023-03-22T07:33:36+00:00</time>
        <ele>2361.0</ele>
      </trkpt>
      <trkpt lat="42.789145" lon="-0.163373">
        <time>2023-03-22T07:33:37+00:00</time>
        <ele>2358.0</ele>
      </trkpt>
      <trkpt lat="42.788727" lon="-0.163769">
        <time>2023-03-22T07:33:42+00:00</time>
        <ele>2349.0</ele>
      </trkpt>
      <trkpt lat="42.788539" lon="-0.163991">
        <time>2023-03-22T07:33:45+00:00</time>
        <ele>2350.0</ele>
      </trkpt>
      <trkpt lat="42.788261" lon="-0.164253">
        <time>2023-03-22T07:33:51+00:00</time>
        <ele>2349.0</ele>
      </trkpt>
      <trkpt lat="42.788183" lon="-0.164339">
        <time>2023-03-22T07:33:53+00:00</time>
        <ele>2349.0</ele>
      </trkpt>
      <trkpt lat="42.787844" lon="-0.164616">
        <time>2023-03-22T07:34:04+00:00</time>
        <ele>2349.0</ele>
      </trkpt>
      <trkpt lat="42.787683" lon="-0.164752">
        <time>2023-03-22T07:34:10+00:00</time>
        <ele>2347.0</ele>
      </trkpt>
      <trkpt lat="42.787529" lon="-0.164891">
        <time>2023-03-22T07:34:15+00:00</time>
        <ele>2345.0</ele>
      </trkpt>
      <trkpt lat="42.787367" lon="-0.165034">
        <time>2023-03-22T07:34:19+00:00</time>
        <ele>2345.0</ele>
      </trkpt>
      <trkpt lat="42.78733" lon="-0.165075">
        <time>2023-03-22T07:34:20+00:00</time>
        <ele>2345.0</ele>
      </trkpt>
      <trkpt lat="42.787303" lon="-0.165114">
        <time>2023-03-22T07:34:21+00:00</time>
        <ele>2345.0</ele>
      </trkpt>
      <trkpt lat="42.787085" lon="-0.165375">
        <time>2023-03-22T07:34:32+00:00</time>
        <ele>2345.0</ele>
      </trkpt>
      <trkpt lat="42.787069" lon="-0.165407">
        <time>2023-03-22T07:34:33+00:00</time>
        <ele>2345.0</ele>
      </trkpt>
      <trkpt lat="42.787067" lon="-0.165429">
        <time>2023-03-22T07:34:44+00:00</time>
        <ele>2345.0</ele>
      </trkpt>
      <trkpt lat="42.787067" lon="-0.165425">
        <time>2023-03-22T07:35:11+00:00</time>
        <ele>2345.0</ele>
      </trkpt>
      <trkpt lat="42.787065" lon="-0.165435">
        <time>2023-03-22T07:35:22+00:00</time>
        <ele>2345.0</ele>
      </trkpt>
      <trkpt lat="42.786872" lon="-0.165665">
        <time>2023-03-22T07:35:30+00:00</time>
        <ele>2341.0</ele>
      </trkpt>
      <trkpt lat="42.786841" lon="-0.165728">
        <time>2023-03-22T07:35:31+00:00</time>
        <ele>2341.0</ele>
      </trkpt>
      <trkpt lat="42.786805" lon="-0.165781">
        <time>2023-03-22T07:35:32+00:00</time>
        <ele>2340.0</ele>
      </trkpt>
      <trkpt lat="42.786752" lon="-0.165806">
        <time>2023-03-22T07:35:33+00:00</time>
        <ele>2338.0</ele>
      </trkpt>
      <trkpt lat="42.786697" lon="-0.165845">
        <time>2023-03-22T07:35:34+00:00</time>
        <ele>2337.0</ele>
      </trkpt>
      <trkpt lat="42.786648" lon="-0.165923">
        <time>2023-03-22T07:35:35+00:00</time>
        <ele>2335.0</ele>
      </trkpt>
      <trkpt lat="42.786612" lon="-0.166014">
        <time>2023-03-22T07:35:36+00:00</time>
        <ele>2334.0</ele>
      </trkpt>
      <trkpt lat="42.786546" lon="-0.166197">
        <time>2023-03-22T07:35:38+00:00</time>
        <ele>2332.0</ele>
      </trkpt>
      <trkpt lat="42.786299" lon="-0.166444">
        <time>2023-03-22T07:35:42+00:00</time>
        <ele>2327.0</ele>
      </trkpt>
      <trkpt lat="42.786223" lon="-0.166498">
        <time>2023-03-22T07:35:43+00:00</time>
        <ele>2325.0</ele>
      </trkpt>
      <trkpt lat="42.786161" lon="-0.166589">
        <time>2023-03-22T07:35:44+00:00</time>
        <ele>2324.0</ele>
      </trkpt>
      <trkpt lat="42.786104" lon="-0.166691">
        <time>2023-03-22T07:35:45+00:00</time>
        <ele>2323.0</ele>
      </trkpt>
      <trkpt lat="42.785993" lon="-0.166889">
        <time>2023-03-22T07:35:47+00:00</time>
        <ele>2321.0</ele>
      </trkpt>
      <trkpt lat="42.785879" lon="-0.16709">
        <time>2023-03-22T07:35:49+00:00</time>
        <ele>2321.0</ele>
      </trkpt>
      <trkpt lat="42.785804" lon="-0.167282">
        <time>2023-03-22T07:35:51+00:00</time>
        <ele>2321.0</ele>
      </trkpt>
      <trkpt lat="42.785626" lon="-0.167425">
        <time>2023-03-22T07:35:57+00:00</time>
        <ele>2322.0</ele>
      </trkpt>
      <trkpt lat="42.78554" lon="-0.16736">
        <time>2023-03-22T07:36:06+00:00</time>
        <ele>2321.0</ele>
      </trkpt>
      <trkpt lat="42.785524" lon="-0.167397">
        <time>2023-03-22T07:36:24+00:00</time>
        <ele>2322.0</ele>
      </trkpt>
      <trkpt lat="42.785515" lon="-0.167412">
        <time>2023-03-22T07:36:29+00:00</time>
        <ele>2322.0</ele>
      </trkpt>
      <trkpt lat="42.785501" lon="-0.167476">
        <time>2023-03-22T07:36:34+00:00</time>
        <ele>2322.0</ele>
      </trkpt>
      <trkpt lat="42.785475" lon="-0.167492">
        <time>2023-03-22T07:36:37+00:00</time>
        <ele>2322.0</ele>
      </trkpt>
      <trkpt lat="42.785461" lon="-0.16752">
        <time>2023-03-22T07:36:40+00:00</time>
        <ele>2323.0</ele>
      </trkpt>
      <trkpt lat="42.78547" lon="-0.167514">
        <time>2023-03-22T07:36:52+00:00</time>
        <ele>2323.0</ele>
      </trkpt>
      <trkpt lat="42.785446" lon="-0.167516">
        <time>2023-03-22T07:37:06+00:00</time>
        <ele>2323.0</ele>
      </trkpt>
      <trkpt lat="42.785448" lon="-0.167531">
        <time>2023-03-22T07:37:19+00:00</time>
        <ele>2323.0</ele>
      </trkpt>
      <trkpt lat="42.78544" lon="-0.167528">
        <time>2023-03-22T07:37:21+00:00</time>
        <ele>2323.0</ele>
      </trkpt>
      <trkpt lat="42.785342" lon="-0.167669">
        <time>2023-03-22T07:37:31+00:00</time>
        <ele>2321.0</ele>
      </trkpt>
      <trkpt lat="42.785257" lon="-0.167733">
        <time>2023-03-22T07:37:34+00:00</time>
        <ele>2320.0</ele>
      </trkpt>
      <trkpt lat="42.785043" lon="-0.167903">
        <time>2023-03-22T07:37:39+00:00</time>
        <ele>2316.0</ele>
      </trkpt>
      <trkpt lat="42.784996" lon="-0.168027">
        <time>2023-03-22T07:37:41+00:00</time>
        <ele>2316.0</ele>
      </trkpt>
      <trkpt lat="42.7849" lon="-0.168347">
        <time>2023-03-22T07:37:47+00:00</time>
        <ele>2319.0</ele>
      </trkpt>
      <trkpt lat="42.784801" lon="-0.168365">
        <time>2023-03-22T07:37:57+00:00</time>
        <ele>2319.0</ele>
      </trkpt>
      <trkpt lat="42.784801" lon="-0.168356">
        <time>2023-03-22T07:38:13+00:00</time>
        <ele>2319.0</ele>
      </trkpt>
      <trkpt lat="42.784813" lon="-0.168395">
        <time>2023-03-22T07:38:48+00:00</time>
        <ele>2319.0</ele>
      </trkpt>
      <trkpt lat="42.784821" lon="-0.168406">
        <time>2023-03-22T07:39:30+00:00</time>
        <ele>2320.0</ele>
      </trkpt>
      <trkpt lat="42.784821" lon="-0.168434">
        <time>2023-03-22T07:40:09+00:00</time>
        <ele>2320.0</ele>
      </trkpt>
      <trkpt lat="42.784803" lon="-0.168431">
        <time>2023-03-22T07:40:16+00:00</time>
        <ele>2320.0</ele>
      </trkpt>
      <trkpt lat="42.784793" lon="-0.168419">
        <time>2023-03-22T07:40:24+00:00</time>
        <ele>2320.0</ele>
      </trkpt>
      <trkpt lat="42.784776" lon="-0.16841">
        <time>2023-03-22T07:40:41+00:00</time>
        <ele>2320.0</ele>
      </trkpt>
      <trkpt lat="42.784772" lon="-0.168408">
        <time>2023-03-22T07:40:43+00:00</time>
        <ele>2320.0</ele>
      </trkpt>
      <trkpt lat="42.78477" lon="-0.168407">
        <time>2023-03-22T07:40:44+00:00</time>
        <ele>2320.0</ele>
      </trkpt>
      <trkpt lat="42.784769" lon="-0.168411">
        <time>2023-03-22T07:40:46+00:00</time>
        <ele>2320.0</ele>
      </trkpt>
      <trkpt lat="42.784764" lon="-0.168413">
        <time>2023-03-22T07:40:47+00:00</time>
        <ele>2320.0</ele>
      </trkpt>
      <trkpt lat="42.784782" lon="-0.168392">
        <time>2023-03-22T07:41:23+00:00</time>
        <ele>2319.0</ele>
      </trkpt>
      <trkpt lat="42.784783" lon="-0.168378">
        <time>2023-03-22T07:42:04+00:00</time>
        <ele>2319.0</ele>
      </trkpt>
      <trkpt lat="42.784777" lon="-0.168349">
        <time>2023-03-22T07:42:40+00:00</time>
        <ele>2318.0</ele>
      </trkpt>
      <trkpt lat="42.784766" lon="-0.168357">
        <time>2023-03-22T07:43:21+00:00</time>
        <ele>2319.0</ele>
      </trkpt>
      <trkpt lat="42.78477" lon="-0.168358">
        <time>2023-03-22T07:43:46+00:00</time>
        <ele>2319.0</ele>
      </trkpt>
      <trkpt lat="42.784769" lon="-0.168363">
        <time>2023-03-22T07:43:47+00:00</time>
        <ele>2319.0</ele>
      </trkpt>
      <trkpt lat="42.784764" lon="-0.168369">
        <time>2023-03-22T07:43:48+00:00</time>
        <ele>2319.0</ele>
      </trkpt>
      <trkpt lat="42.784766" lon="-0.168382">
        <time>2023-03-22T07:43:53+00:00</time>
        <ele>2319.0</ele>
      </trkpt>
      <trkpt lat="42.784768" lon="-0.168383">
        <time>2023-03-22T07:43:57+00:00</time>
        <ele>2319.0</ele>
      </trkpt>
      <trkpt lat="42.784769" lon="-0.168382">
        <time>2023-03-22T07:43:58+00:00</time>
        <ele>2319.0</ele>
      </trkpt>
      <trkpt lat="42.784771" lon="-0.168382">
        <time>2023-03-22T07:43:59+00:00</time>
        <ele>2319.0</ele>
      </trkpt>
      <trkpt lat="42.784773" lon="-0.168382">
        <time>2023-03-22T07:44:00+00:00</time>
        <ele>2319.0</ele>
      </trkpt>
      <trkpt lat="42.784779" lon="-0.168382">
        <time>2023-03-22T07:44:01+00:00</time>
        <ele>2319.0</ele>
      </trkpt>
      <trkpt lat="42.784786" lon="-0.168375">
        <time>2023-03-22T07:44:04+00:00</time>
        <ele>2319.0</ele>
      </trkpt>
      <trkpt lat="42.784792" lon="-0.168366">
        <time>2023-03-22T07:44:17+00:00</time>
        <ele>2319.0</ele>
      </trkpt>
      <trkpt lat="42.784791" lon="-0.168371">
        <time>2023-03-22T07:44:29+00:00</time>
        <ele>2319.0</ele>
      </trkpt>
      <trkpt lat="42.784804" lon="-0.168411">
        <time>2023-03-22T07:44:51+00:00</time>
        <ele>2320.0</ele>
      </trkpt>
      <trkpt lat="42.784806" lon="-0.168394">
        <time>2023-03-22T07:45:12+00:00</time>
        <ele>2319.0</ele>
      </trkpt>
      <trkpt lat="42.784806" lon="-0.168385">
        <time>2023-03-22T07:45:38+00:00</time>
        <ele>2319.0</ele>
      </trkpt>
      <trkpt lat="42.784817" lon="-0.168405">
        <time>2023-03-22T07:45:46+00:00</time>
        <ele>2320.0</ele>
      </trkpt>
      <trkpt lat="42.784823" lon="-0.168463">
        <time>2023-03-22T07:45:50+00:00</time>
        <ele>2321.0</ele>
      </trkpt>
      <trkpt lat="42.78476" lon="-0.168596">
        <time>2023-03-22T07:46:04+00:00</time>
        <ele>2324.0</ele>
      </trkpt>
      <trkpt lat="42.784721" lon="-0.168703">
        <time>2023-03-22T07:46:16+00:00</time>
        <ele>2326.0</ele>
      </trkpt>
      <trkpt lat="42.78474" lon="-0.168726">
        <time>2023-03-22T07:46:27+00:00</time>
        <ele>2326.0</ele>
      </trkpt>
      <trkpt lat="42.78474" lon="-0.168727">
        <time>2023-03-22T07:46:38+00:00</time>
        <ele>2326.0</ele>
      </trkpt>
      <trkpt lat="42.784791" lon="-0.168867">
        <time>2023-03-22T07:46:53+00:00</time>
        <ele>2328.0</ele>
      </trkpt>
      <trkpt lat="42.78483" lon="-0.168971">
        <time>2023-03-22T07:47:05+00:00</time>
        <ele>2330.0</ele>
      </trkpt>
      <trkpt lat="42.78489" lon="-0.169046">
        <time>2023-03-22T07:47:18+00:00</time>
        <ele>2332.0</ele>
      </trkpt>
      <trkpt lat="42.784939" lon="-0.169157">
        <time>2023-03-22T07:47:31+00:00</time>
        <ele>2334.0</ele>
      </trkpt>
      <trkpt lat="42.784884" lon="-0.169251">
        <time>2023-03-22T07:47:44+00:00</time>
        <ele>2336.0</ele>
      </trkpt>
      <trkpt lat="42.784844" lon="-0.169341">
        <time>2023-03-22T07:47:57+00:00</time>
        <ele>2338.0</ele>
      </trkpt>
      <trkpt lat="42.784778" lon="-0.169444">
        <time>2023-03-22T07:48:11+00:00</time>
        <ele>2341.0</ele>
      </trkpt>
      <trkpt lat="42.784719" lon="-0.169528">
        <time>2023-03-22T07:48:26+00:00</time>
        <ele>2342.0</ele>
      </trkpt>
      <trkpt lat="42.784664" lon="-0.169614">
        <time>2023-03-22T07:48:39+00:00</time>
        <ele>2345.0</ele>
      </trkpt>
      <trkpt lat="42.784701" lon="-0.169704">
        <time>2023-03-22T07:48:51+00:00</time>
        <ele>2346.0</ele>
      </trkpt>
      <trkpt lat="42.784763" lon="-0.169767">
        <time>2023-03-22T07:49:04+00:00</time>
        <ele>2346.0</ele>
      </trkpt>
      <trkpt lat="42.784838" lon="-0.16982">
        <time>2023-03-22T07:49:18+00:00</time>
        <ele>2345.0</ele>
      </trkpt>
      <trkpt lat="42.784933" lon="-0.169851">
        <time>2023-03-22T07:49:32+00:00</time>
        <ele>2346.0</ele>
      </trkpt>
      <trkpt lat="42.785014" lon="-0.169865">
        <time>2023-03-22T07:49:46+00:00</time>
        <ele>2347.0</ele>
      </trkpt>
      <trkpt lat="42.785103" lon="-0.169876">
        <time>2023-03-22T07:50:00+00:00</time>
        <ele>2348.0</ele>
      </trkpt>
      <trkpt lat="42.785107" lon="-0.169945">
        <time>2023-03-22T07:50:13+00:00</time>
        <ele>2350.0</ele>
      </trkpt>
      <trkpt lat="42.785081" lon="-0.170037">
        <time>2023-03-22T07:50:26+00:00</time>
        <ele>2352.0</ele>
      </trkpt>
      <trkpt lat="42.785043" lon="-0.17016">
        <time>2023-03-22T07:50:41+00:00</time>
        <ele>2356.0</ele>
      </trkpt>
      <trkpt lat="42.785009" lon="-0.170239">
        <time>2023-03-22T07:50:54+00:00</time>
        <ele>2358.0</ele>
      </trkpt>
      <trkpt lat="42.785066" lon="-0.170257">
        <time>2023-03-22T07:51:05+00:00</time>
        <ele>2359.0</ele>
      </trkpt>
      <trkpt lat="42.78506" lon="-0.170242">
        <time>2023-03-22T07:51:21+00:00</time>
        <ele>2358.0</ele>
      </trkpt>
      <trkpt lat="42.78512" lon="-0.170249">
        <time>2023-03-22T07:51:37+00:00</time>
        <ele>2359.0</ele>
      </trkpt>
      <trkpt lat="42.785191" lon="-0.170287">
        <time>2023-03-22T07:51:48+00:00</time>
        <ele>2361.0</ele>
      </trkpt>
      <trkpt lat="42.785292" lon="-0.170297">
        <time>2023-03-22T07:52:02+00:00</time>
        <ele>2362.0</ele>
      </trkpt>
      <trkpt lat="42.785373" lon="-0.170327">
        <time>2023-03-22T07:52:16+00:00</time>
        <ele>2365.0</ele>
      </trkpt>
      <trkpt lat="42.785444" lon="-0.170362">
        <time>2023-03-22T07:52:29+00:00</time>
        <ele>2367.0</ele>
      </trkpt>
      <trkpt lat="42.78552" lon="-0.170415">
        <time>2023-03-22T07:52:43+00:00</time>
        <ele>2370.0</ele>
      </trkpt>
      <trkpt lat="42.785588" lon="-0.170418">
        <time>2023-03-22T07:52:57+00:00</time>
        <ele>2371.0</ele>
      </trkpt>
      <trkpt lat="42.785662" lon="-0.170451">
        <time>2023-03-22T07:53:09+00:00</time>
        <ele>2374.0</ele>
      </trkpt>
      <trkpt lat="42.785733" lon="-0.170456">
        <time>2023-03-22T07:53:22+00:00</time>
        <ele>2377.0</ele>
      </trkpt>
      <trkpt lat="42.785772" lon="-0.170468">
        <time>2023-03-22T07:53:28+00:00</time>
        <ele>2378.0</ele>
      </trkpt>
      <trkpt lat="42.785748" lon="-0.170558">
        <time>2023-03-22T07:53:39+00:00</time>
        <ele>2380.0</ele>
      </trkpt>
      <trkpt lat="42.785707" lon="-0.170645">
        <time>2023-03-22T07:53:52+00:00</time>
        <ele>2381.0</ele>
      </trkpt>
      <trkpt lat="42.785664" lon="-0.170738">
        <time>2023-03-22T07:54:06+00:00</time>
        <ele>2383.0</ele>
      </trkpt>
      <trkpt lat="42.785619" lon="-0.170828">
        <time>2023-03-22T07:54:19+00:00</time>
        <ele>2385.0</ele>
      </trkpt>
      <trkpt lat="42.78556" lon="-0.170943">
        <time>2023-03-22T07:54:34+00:00</time>
        <ele>2387.0</ele>
      </trkpt>
      <trkpt lat="42.785552" lon="-0.170962">
        <time>2023-03-22T07:54:38+00:00</time>
        <ele>2387.0</ele>
      </trkpt>
      <trkpt lat="42.785623" lon="-0.170975">
        <time>2023-03-22T07:54:50+00:00</time>
        <ele>2389.0</ele>
      </trkpt>
      <trkpt lat="42.785746" lon="-0.170977">
        <time>2023-03-22T07:55:09+00:00</time>
        <ele>2392.0</ele>
      </trkpt>
      <trkpt lat="42.785819" lon="-0.170974">
        <time>2023-03-22T07:55:23+00:00</time>
        <ele>2394.0</ele>
      </trkpt>
      <trkpt lat="42.78586" lon="-0.170975">
        <time>2023-03-22T07:55:34+00:00</time>
        <ele>2395.0</ele>
      </trkpt>
      <trkpt lat="42.78586" lon="-0.170983">
        <time>2023-03-22T07:55:37+00:00</time>
        <ele>2395.0</ele>
      </trkpt>
      <trkpt lat="42.785859" lon="-0.170986">
        <time>2023-03-22T07:55:38+00:00</time>
        <ele>2395.0</ele>
      </trkpt>
      <trkpt lat="42.785853" lon="-0.170968">
        <time>2023-03-22T07:55:41+00:00</time>
        <ele>2394.0</ele>
      </trkpt>
      <trkpt lat="42.785853" lon="-0.170966">
        <time>2023-03-22T07:55:42+00:00</time>
        <ele>2394.0</ele>
      </trkpt>
      <trkpt lat="42.785854" lon="-0.170967">
        <time>2023-03-22T07:55:43+00:00</time>
        <ele>2394.0</ele>
      </trkpt>
      <trkpt lat="42.785881" lon="-0.170959">
        <time>2023-03-22T07:56:11+00:00</time>
        <ele>2395.0</ele>
      </trkpt>
      <trkpt lat="42.785871" lon="-0.170961">
        <time>2023-03-22T07:56:13+00:00</time>
        <ele>2395.0</ele>
      </trkpt>
      <trkpt lat="42.785868" lon="-0.17096">
        <time>2023-03-22T07:56:14+00:00</time>
        <ele>2395.0</ele>
      </trkpt>
      <trkpt lat="42.785857" lon="-0.17096">
        <time>2023-03-22T07:56:25+00:00</time>
        <ele>2394.0</ele>
      </trkpt>
      <trkpt lat="42.785854" lon="-0.170944">
        <time>2023-03-22T07:56:36+00:00</time>
        <ele>2394.0</ele>
      </trkpt>
      <trkpt lat="42.785885" lon="-0.170962">
        <time>2023-03-22T07:56:56+00:00</time>
        <ele>2395.0</ele>
      </trkpt>
      <trkpt lat="42.785959" lon="-0.170959">
        <time>2023-03-22T07:57:09+00:00</time>
        <ele>2398.0</ele>
      </trkpt>
      <trkpt lat="42.78603" lon="-0.170957">
        <time>2023-03-22T07:57:22+00:00</time>
        <ele>2400.0</ele>
      </trkpt>
      <trkpt lat="42.786125" lon="-0.170962">
        <time>2023-03-22T07:57:36+00:00</time>
        <ele>2405.0</ele>
      </trkpt>
      <trkpt lat="42.786201" lon="-0.170939">
        <time>2023-03-22T07:57:49+00:00</time>
        <ele>2408.0</ele>
      </trkpt>
      <trkpt lat="42.786209" lon="-0.171005">
        <time>2023-03-22T07:58:02+00:00</time>
        <ele>2409.0</ele>
      </trkpt>
      <trkpt lat="42.786186" lon="-0.17109">
        <time>2023-03-22T07:58:14+00:00</time>
        <ele>2409.0</ele>
      </trkpt>
      <trkpt lat="42.786129" lon="-0.171199">
        <time>2023-03-22T07:58:28+00:00</time>
        <ele>2410.0</ele>
      </trkpt>
      <trkpt lat="42.786089" lon="-0.171295">
        <time>2023-03-22T07:58:43+00:00</time>
        <ele>2412.0</ele>
      </trkpt>
      <trkpt lat="42.786054" lon="-0.171365">
        <time>2023-03-22T07:58:55+00:00</time>
        <ele>2413.0</ele>
      </trkpt>
      <trkpt lat="42.78603" lon="-0.171412">
        <time>2023-03-22T07:59:03+00:00</time>
        <ele>2414.0</ele>
      </trkpt>
      <trkpt lat="42.786109" lon="-0.171396">
        <time>2023-03-22T07:59:15+00:00</time>
        <ele>2416.0</ele>
      </trkpt>
      <trkpt lat="42.78618" lon="-0.17139">
        <time>2023-03-22T07:59:28+00:00</time>
        <ele>2418.0</ele>
      </trkpt>
      <trkpt lat="42.786261" lon="-0.171398">
        <time>2023-03-22T07:59:42+00:00</time>
        <ele>2420.0</ele>
      </trkpt>
      <trkpt lat="42.786384" lon="-0.171399">
        <time>2023-03-22T07:59:59+00:00</time>
        <ele>2423.0</ele>
      </trkpt>
      <trkpt lat="42.786438" lon="-0.171389">
        <time>2023-03-22T08:00:11+00:00</time>
        <ele>2424.0</ele>
      </trkpt>
      <trkpt lat="42.786534" lon="-0.171359">
        <time>2023-03-22T08:00:26+00:00</time>
        <ele>2426.0</ele>
      </trkpt>
      <trkpt lat="42.7866" lon="-0.171375">
        <time>2023-03-22T08:00:39+00:00</time>
        <ele>2429.0</ele>
      </trkpt>
      <trkpt lat="42.786681" lon="-0.171403">
        <time>2023-03-22T08:00:53+00:00</time>
        <ele>2432.0</ele>
      </trkpt>
      <trkpt lat="42.786727" lon="-0.171437">
        <time>2023-03-22T08:01:03+00:00</time>
        <ele>2435.0</ele>
      </trkpt>
      <trkpt lat="42.786796" lon="-0.171504">
        <time>2023-03-22T08:01:18+00:00</time>
        <ele>2439.0</ele>
      </trkpt>
      <trkpt lat="42.78677" lon="-0.171592">
        <time>2023-03-22T08:01:29+00:00</time>
        <ele>2441.0</ele>
      </trkpt>
      <trkpt lat="42.786801" lon="-0.17164">
        <time>2023-03-22T08:01:41+00:00</time>
        <ele>2443.0</ele>
      </trkpt>
      <trkpt lat="42.78687" lon="-0.171688">
        <time>2023-03-22T08:01:55+00:00</time>
        <ele>2446.0</ele>
      </trkpt>
      <trkpt lat="42.786937" lon="-0.171767">
        <time>2023-03-22T08:02:08+00:00</time>
        <ele>2449.0</ele>
      </trkpt>
      <trkpt lat="42.786989" lon="-0.171868">
        <time>2023-03-22T08:02:21+00:00</time>
        <ele>2452.0</ele>
      </trkpt>
      <trkpt lat="42.787032" lon="-0.171935">
        <time>2023-03-22T08:02:33+00:00</time>
        <ele>2453.0</ele>
      </trkpt>
      <trkpt lat="42.787111" lon="-0.172014">
        <time>2023-03-22T08:02:46+00:00</time>
        <ele>2457.0</ele>
      </trkpt>
      <trkpt lat="42.787159" lon="-0.172038">
        <time>2023-03-22T08:02:58+00:00</time>
        <ele>2459.0</ele>
      </trkpt>
      <trkpt lat="42.787251" lon="-0.171998">
        <time>2023-03-22T08:03:14+00:00</time>
        <ele>2461.0</ele>
      </trkpt>
      <trkpt lat="42.78728" lon="-0.171945">
        <time>2023-03-22T08:03:27+00:00</time>
        <ele>2462.0</ele>
      </trkpt>
      <trkpt lat="42.787317" lon="-0.171811">
        <time>2023-03-22T08:03:42+00:00</time>
        <ele>2463.0</ele>
      </trkpt>
      <trkpt lat="42.787343" lon="-0.171683">
        <time>2023-03-22T08:03:57+00:00</time>
        <ele>2465.0</ele>
      </trkpt>
      <trkpt lat="42.787344" lon="-0.171666">
        <time>2023-03-22T08:03:59+00:00</time>
        <ele>2466.0</ele>
      </trkpt>
      <trkpt lat="42.7874" lon="-0.171758">
        <time>2023-03-22T08:04:10+00:00</time>
        <ele>2468.0</ele>
      </trkpt>
      <trkpt lat="42.787449" lon="-0.171838">
        <time>2023-03-22T08:04:22+00:00</time>
        <ele>2469.0</ele>
      </trkpt>
      <trkpt lat="42.787474" lon="-0.171893">
        <time>2023-03-22T08:04:34+00:00</time>
        <ele>2470.0</ele>
      </trkpt>
      <trkpt lat="42.787506" lon="-0.171947">
        <time>2023-03-22T08:04:46+00:00</time>
        <ele>2472.0</ele>
      </trkpt>
      <trkpt lat="42.787535" lon="-0.172049">
        <time>2023-03-22T08:04:58+00:00</time>
        <ele>2473.0</ele>
      </trkpt>
      <trkpt lat="42.787541" lon="-0.172092">
        <time>2023-03-22T08:05:05+00:00</time>
        <ele>2473.0</ele>
      </trkpt>
      <trkpt lat="42.787601" lon="-0.172003">
        <time>2023-03-22T08:05:17+00:00</time>
        <ele>2476.0</ele>
      </trkpt>
      <trkpt lat="42.787633" lon="-0.171927">
        <time>2023-03-22T08:05:28+00:00</time>
        <ele>2479.0</ele>
      </trkpt>
      <trkpt lat="42.787646" lon="-0.171847">
        <time>2023-03-22T08:05:39+00:00</time>
        <ele>2481.0</ele>
      </trkpt>
      <trkpt lat="42.787663" lon="-0.171834">
        <time>2023-03-22T08:05:51+00:00</time>
        <ele>2482.0</ele>
      </trkpt>
      <trkpt lat="42.787715" lon="-0.171954">
        <time>2023-03-22T08:06:03+00:00</time>
        <ele>2484.0</ele>
      </trkpt>
      <trkpt lat="42.78776" lon="-0.172046">
        <time>2023-03-22T08:06:14+00:00</time>
        <ele>2486.0</ele>
      </trkpt>
      <trkpt lat="42.787776" lon="-0.172115">
        <time>2023-03-22T08:06:26+00:00</time>
        <ele>2486.0</ele>
      </trkpt>
      <trkpt lat="42.787775" lon="-0.172184">
        <time>2023-03-22T08:06:38+00:00</time>
        <ele>2486.0</ele>
      </trkpt>
      <trkpt lat="42.787768" lon="-0.172201">
        <time>2023-03-22T08:06:41+00:00</time>
        <ele>2485.0</ele>
      </trkpt>
      <trkpt lat="42.787834" lon="-0.172189">
        <time>2023-03-22T08:06:54+00:00</time>
        <ele>2489.0</ele>
      </trkpt>
      <trkpt lat="42.787939" lon="-0.172197">
        <time>2023-03-22T08:07:11+00:00</time>
        <ele>2494.0</ele>
      </trkpt>
      <trkpt lat="42.787991" lon="-0.172251">
        <time>2023-03-22T08:07:21+00:00</time>
        <ele>2497.0</ele>
      </trkpt>
      <trkpt lat="42.788008" lon="-0.172332">
        <time>2023-03-22T08:07:33+00:00</time>
        <ele>2498.0</ele>
      </trkpt>
      <trkpt lat="42.787994" lon="-0.172407">
        <time>2023-03-22T08:07:46+00:00</time>
        <ele>2498.0</ele>
      </trkpt>
      <trkpt lat="42.787965" lon="-0.172473">
        <time>2023-03-22T08:07:57+00:00</time>
        <ele>2498.0</ele>
      </trkpt>
      <trkpt lat="42.788005" lon="-0.172508">
        <time>2023-03-22T08:08:07+00:00</time>
        <ele>2500.0</ele>
      </trkpt>
      <trkpt lat="42.788055" lon="-0.172557">
        <time>2023-03-22T08:08:19+00:00</time>
        <ele>2503.0</ele>
      </trkpt>
      <trkpt lat="42.788115" lon="-0.172605">
        <time>2023-03-22T08:08:31+00:00</time>
        <ele>2505.0</ele>
      </trkpt>
      <trkpt lat="42.788183" lon="-0.172651">
        <time>2023-03-22T08:08:44+00:00</time>
        <ele>2508.0</ele>
      </trkpt>
      <trkpt lat="42.788266" lon="-0.172689">
        <time>2023-03-22T08:08:56+00:00</time>
        <ele>2510.0</ele>
      </trkpt>
      <trkpt lat="42.788274" lon="-0.172692">
        <time>2023-03-22T08:08:57+00:00</time>
        <ele>2511.0</ele>
      </trkpt>
      <trkpt lat="42.788347" lon="-0.172707">
        <time>2023-03-22T08:09:09+00:00</time>
        <ele>2513.0</ele>
      </trkpt>
      <trkpt lat="42.788396" lon="-0.172724">
        <time>2023-03-22T08:09:21+00:00</time>
        <ele>2514.0</ele>
      </trkpt>
      <trkpt lat="42.788451" lon="-0.172749">
        <time>2023-03-22T08:09:34+00:00</time>
        <ele>2516.0</ele>
      </trkpt>
      <trkpt lat="42.788549" lon="-0.172804">
        <time>2023-03-22T08:09:50+00:00</time>
        <ele>2521.0</ele>
      </trkpt>
      <trkpt lat="42.788606" lon="-0.172826">
        <time>2023-03-22T08:10:01+00:00</time>
        <ele>2523.0</ele>
      </trkpt>
      <trkpt lat="42.78862" lon="-0.172826">
        <time>2023-03-22T08:10:13+00:00</time>
        <ele>2523.0</ele>
      </trkpt>
      <trkpt lat="42.788619" lon="-0.172823">
        <time>2023-03-22T08:10:20+00:00</time>
        <ele>2523.0</ele>
      </trkpt>
      <trkpt lat="42.78863" lon="-0.172858">
        <time>2023-03-22T08:10:23+00:00</time>
        <ele>2523.0</ele>
      </trkpt>
      <trkpt lat="42.788662" lon="-0.172953">
        <time>2023-03-22T08:10:34+00:00</time>
        <ele>2524.0</ele>
      </trkpt>
      <trkpt lat="42.788678" lon="-0.172989">
        <time>2023-03-22T08:10:44+00:00</time>
        <ele>2524.0</ele>
      </trkpt>
      <trkpt lat="42.788663" lon="-0.17301">
        <time>2023-03-22T08:10:53+00:00</time>
        <ele>2524.0</ele>
      </trkpt>
      <trkpt lat="42.78866" lon="-0.173005">
        <time>2023-03-22T08:10:55+00:00</time>
        <ele>2524.0</ele>
      </trkpt>
      <trkpt lat="42.78866" lon="-0.173002">
        <time>2023-03-22T08:10:56+00:00</time>
        <ele>2524.0</ele>
      </trkpt>
      <trkpt lat="42.788658" lon="-0.173003">
        <time>2023-03-22T08:10:57+00:00</time>
        <ele>2524.0</ele>
      </trkpt>
      <trkpt lat="42.788656" lon="-0.172997">
        <time>2023-03-22T08:10:58+00:00</time>
        <ele>2524.0</ele>
      </trkpt>
      <trkpt lat="42.788654" lon="-0.172996">
        <time>2023-03-22T08:11:00+00:00</time>
        <ele>2524.0</ele>
      </trkpt>
      <trkpt lat="42.788654" lon="-0.172981">
        <time>2023-03-22T08:11:24+00:00</time>
        <ele>2524.0</ele>
      </trkpt>
      <trkpt lat="42.788661" lon="-0.172969">
        <time>2023-03-22T08:11:54+00:00</time>
        <ele>2524.0</ele>
      </trkpt>
      <trkpt lat="42.788656" lon="-0.172987">
        <time>2023-03-22T08:12:37+00:00</time>
        <ele>2524.0</ele>
      </trkpt>
      <trkpt lat="42.788664" lon="-0.173003">
        <time>2023-03-22T08:13:22+00:00</time>
        <ele>2524.0</ele>
      </trkpt>
      <trkpt lat="42.788658" lon="-0.172997">
        <time>2023-03-22T08:14:03+00:00</time>
        <ele>2524.0</ele>
      </trkpt>
      <trkpt lat="42.78867" lon="-0.172994">
        <time>2023-03-22T08:14:40+00:00</time>
        <ele>2524.0</ele>
      </trkpt>
      <trkpt lat="42.788666" lon="-0.172988">
        <time>2023-03-22T08:15:22+00:00</time>
        <ele>2524.0</ele>
      </trkpt>
      <trkpt lat="42.788682" lon="-0.172961">
        <time>2023-03-22T08:16:05+00:00</time>
        <ele>2524.0</ele>
      </trkpt>
      <trkpt lat="42.788677" lon="-0.172974">
        <time>2023-03-22T08:16:48+00:00</time>
        <ele>2524.0</ele>
      </trkpt>
      <trkpt lat="42.788677" lon="-0.172994">
        <time>2023-03-22T08:17:33+00:00</time>
        <ele>2524.0</ele>
      </trkpt>
      <trkpt lat="42.788664" lon="-0.172978">
        <time>2023-03-22T08:18:17+00:00</time>
        <ele>2524.0</ele>
      </trkpt>
      <trkpt lat="42.788663" lon="-0.172975">
        <time>2023-03-22T08:18:55+00:00</time>
        <ele>2524.0</ele>
      </trkpt>
      <trkpt lat="42.788688" lon="-0.172969">
        <time>2023-03-22T08:19:33+00:00</time>
        <ele>2524.0</ele>
      </trkpt>
      <trkpt lat="42.788663" lon="-0.172989">
        <time>2023-03-22T08:20:25+00:00</time>
        <ele>2524.0</ele>
      </trkpt>
      <trkpt lat="42.788671" lon="-0.17295">
        <time>2023-03-22T08:21:03+00:00</time>
        <ele>2524.0</ele>
      </trkpt>
      <trkpt lat="42.788676" lon="-0.172939">
        <time>2023-03-22T08:21:51+00:00</time>
        <ele>2524.0</ele>
      </trkpt>
      <trkpt lat="42.78869" lon="-0.172946">
        <time>2023-03-22T08:22:05+00:00</time>
        <ele>2524.0</ele>
      </trkpt>
      <trkpt lat="42.788691" lon="-0.17295">
        <time>2023-03-22T08:22:06+00:00</time>
        <ele>2524.0</ele>
      </trkpt>
      <trkpt lat="42.788688" lon="-0.172953">
        <time>2023-03-22T08:22:10+00:00</time>
        <ele>2524.0</ele>
      </trkpt>
      <trkpt lat="42.788687" lon="-0.172956">
        <time>2023-03-22T08:22:12+00:00</time>
        <ele>2524.0</ele>
      </trkpt>
      <trkpt lat="42.788665" lon="-0.172953">
        <time>2023-03-22T08:22:29+00:00</time>
        <ele>2524.0</ele>
      </trkpt>
      <trkpt lat="42.788671" lon="-0.172936">
        <time>2023-03-22T08:23:11+00:00</time>
        <ele>2524.0</ele>
      </trkpt>
      <trkpt lat="42.788696" lon="-0.172957">
        <time>2023-03-22T08:23:56+00:00</time>
        <ele>2525.0</ele>
      </trkpt>
      <trkpt lat="42.788685" lon="-0.172973">
        <time>2023-03-22T08:24:32+00:00</time>
        <ele>2524.0</ele>
      </trkpt>
      <trkpt lat="42.78868" lon="-0.172956">
        <time>2023-03-22T08:25:12+00:00</time>
        <ele>2524.0</ele>
      </trkpt>
      <trkpt lat="42.788681" lon="-0.172944">
        <time>2023-03-22T08:25:55+00:00</time>
        <ele>2524.0</ele>
      </trkpt>
      <trkpt lat="42.788674" lon="-0.172949">
        <time>2023-03-22T08:26:05+00:00</time>
        <ele>2524.0</ele>
      </trkpt>
      <trkpt lat="42.788673" lon="-0.172949">
        <time>2023-03-22T08:26:06+00:00</time>
        <ele>2524.0</ele>
      </trkpt>
      <trkpt lat="42.788676" lon="-0.172947">
        <time>2023-03-22T08:26:07+00:00</time>
        <ele>2524.0</ele>
      </trkpt>
      <trkpt lat="42.788675" lon="-0.172955">
        <time>2023-03-22T08:26:13+00:00</time>
        <ele>2524.0</ele>
      </trkpt>
      <trkpt lat="42.788679" lon="-0.172957">
        <time>2023-03-22T08:26:14+00:00</time>
        <ele>2524.0</ele>
      </trkpt>
      <trkpt lat="42.788681" lon="-0.172963">
        <time>2023-03-22T08:26:16+00:00</time>
        <ele>2524.0</ele>
      </trkpt>
      <trkpt lat="42.788668" lon="-0.172983">
        <time>2023-03-22T08:26:30+00:00</time>
        <ele>2524.0</ele>
      </trkpt>
      <trkpt lat="42.788676" lon="-0.172973">
        <time>2023-03-22T08:26:35+00:00</time>
        <ele>2524.0</ele>
      </trkpt>
      <trkpt lat="42.788687" lon="-0.172979">
        <time>2023-03-22T08:26:42+00:00</time>
        <ele>2524.0</ele>
      </trkpt>
      <trkpt lat="42.788678" lon="-0.172981">
        <time>2023-03-22T08:26:45+00:00</time>
        <ele>2524.0</ele>
      </trkpt>
      <trkpt lat="42.788686" lon="-0.172977">
        <time>2023-03-22T08:27:06+00:00</time>
        <ele>2524.0</ele>
      </trkpt>
      <trkpt lat="42.788688" lon="-0.172976">
        <time>2023-03-22T08:27:07+00:00</time>
        <ele>2524.0</ele>
      </trkpt>
      <trkpt lat="42.78869" lon="-0.17299">
        <time>2023-03-22T08:27:17+00:00</time>
        <ele>2524.0</ele>
      </trkpt>
      <trkpt lat="42.788695" lon="-0.172996">
        <time>2023-03-22T08:27:28+00:00</time>
        <ele>2524.0</ele>
      </trkpt>
      <trkpt lat="42.78872" lon="-0.172967">
        <time>2023-03-22T08:27:37+00:00</time>
        <ele>2525.0</ele>
      </trkpt>
      <trkpt lat="42.78883" lon="-0.172889">
        <time>2023-03-22T08:27:48+00:00</time>
        <ele>2528.0</ele>
      </trkpt>
      <trkpt lat="42.788909" lon="-0.172838">
        <time>2023-03-22T08:27:50+00:00</time>
        <ele>2529.0</ele>
      </trkpt>
      <trkpt lat="42.78896" lon="-0.172814">
        <time>2023-03-22T08:27:51+00:00</time>
        <ele>2531.0</ele>
      </trkpt>
      <trkpt lat="42.789017" lon="-0.172792">
        <time>2023-03-22T08:27:52+00:00</time>
        <ele>2532.0</ele>
      </trkpt>
      <trkpt lat="42.789074" lon="-0.172772">
        <time>2023-03-22T08:27:53+00:00</time>
        <ele>2532.0</ele>
      </trkpt>
      <trkpt lat="42.789352" lon="-0.172709">
        <time>2023-03-22T08:27:58+00:00</time>
        <ele>2533.0</ele>
      </trkpt>
      <trkpt lat="42.7894" lon="-0.172708">
        <time>2023-03-22T08:27:59+00:00</time>
        <ele>2532.0</ele>
      </trkpt>
      <trkpt lat="42.789751" lon="-0.172706">
        <time>2023-03-22T08:28:10+00:00</time>
        <ele>2525.0</ele>
      </trkpt>
      <trkpt lat="42.789957" lon="-0.172556">
        <time>2023-03-22T08:28:22+00:00</time>
        <ele>2528.0</ele>
      </trkpt>
      <trkpt lat="42.789999" lon="-0.172556">
        <time>2023-03-22T08:28:31+00:00</time>
        <ele>2527.0</ele>
      </trkpt>
      <trkpt lat="42.790012" lon="-0.172556">
        <time>2023-03-22T08:28:32+00:00</time>
        <ele>2527.0</ele>
      </trkpt>
      <trkpt lat="42.790091" lon="-0.172568">
        <time>2023-03-22T08:28:46+00:00</time>
        <ele>2526.0</ele>
      </trkpt>
      <trkpt lat="42.790098" lon="-0.172565">
        <time>2023-03-22T08:28:47+00:00</time>
        <ele>2526.0</ele>
      </trkpt>
      <trkpt lat="42.79015" lon="-0.1725">
        <time>2023-03-22T08:28:59+00:00</time>
        <ele>2527.0</ele>
      </trkpt>
      <trkpt lat="42.79022" lon="-0.172423">
        <time>2023-03-22T08:29:12+00:00</time>
        <ele>2528.0</ele>
      </trkpt>
      <trkpt lat="42.790261" lon="-0.172367">
        <time>2023-03-22T08:29:20+00:00</time>
        <ele>2529.0</ele>
      </trkpt>
      <trkpt lat="42.790382" lon="-0.172263">
        <time>2023-03-22T08:29:27+00:00</time>
        <ele>2529.0</ele>
      </trkpt>
      <trkpt lat="42.790426" lon="-0.172258">
        <time>2023-03-22T08:29:28+00:00</time>
        <ele>2527.0</ele>
      </trkpt>
      <trkpt lat="42.790521" lon="-0.172255">
        <time>2023-03-22T08:29:30+00:00</time>
        <ele>2524.0</ele>
      </trkpt>
      <trkpt lat="42.790541" lon="-0.172202">
        <time>2023-03-22T08:29:31+00:00</time>
        <ele>2524.0</ele>
      </trkpt>
      <trkpt lat="42.790562" lon="-0.17208">
        <time>2023-03-22T08:29:33+00:00</time>
        <ele>2527.0</ele>
      </trkpt>
      <trkpt lat="42.79071" lon="-0.171813">
        <time>2023-03-22T08:29:38+00:00</time>
        <ele>2529.0</ele>
      </trkpt>
      <trkpt lat="42.790909" lon="-0.17173">
        <time>2023-03-22T08:29:42+00:00</time>
        <ele>2524.0</ele>
      </trkpt>
      <trkpt lat="42.790996" lon="-0.171727">
        <time>2023-03-22T08:29:44+00:00</time>
        <ele>2521.0</ele>
      </trkpt>
      <trkpt lat="42.791105" lon="-0.171684">
        <time>2023-03-22T08:29:47+00:00</time>
        <ele>2519.0</ele>
      </trkpt>
      <trkpt lat="42.791182" lon="-0.171618">
        <time>2023-03-22T08:29:59+00:00</time>
        <ele>2519.0</ele>
      </trkpt>
      <trkpt lat="42.791188" lon="-0.171612">
        <time>2023-03-22T08:30:27+00:00</time>
        <ele>2519.0</ele>
      </trkpt>
      <trkpt lat="42.79118" lon="-0.171603">
        <time>2023-03-22T08:30:54+00:00</time>
        <ele>2520.0</ele>
      </trkpt>
      <trkpt lat="42.791201" lon="-0.171605">
        <time>2023-03-22T08:31:09+00:00</time>
        <ele>2519.0</ele>
      </trkpt>
      <trkpt lat="42.791263" lon="-0.171684">
        <time>2023-03-22T08:31:12+00:00</time>
        <ele>2512.0</ele>
      </trkpt>
      <trkpt lat="42.791269" lon="-0.171746">
        <time>2023-03-22T08:31:13+00:00</time>
        <ele>2509.0</ele>
      </trkpt>
      <trkpt lat="42.791329" lon="-0.171822">
        <time>2023-03-22T08:31:15+00:00</time>
        <ele>2504.0</ele>
      </trkpt>
      <trkpt lat="42.791376" lon="-0.171797">
        <time>2023-03-22T08:31:16+00:00</time>
        <ele>2503.0</ele>
      </trkpt>
      <trkpt lat="42.791421" lon="-0.171794">
        <time>2023-03-22T08:31:17+00:00</time>
        <ele>2501.0</ele>
      </trkpt>
      <trkpt lat="42.791458" lon="-0.171833">
        <time>2023-03-22T08:31:18+00:00</time>
        <ele>2498.0</ele>
      </trkpt>
      <trkpt lat="42.791493" lon="-0.171864">
        <time>2023-03-22T08:31:19+00:00</time>
        <ele>2496.0</ele>
      </trkpt>
      <trkpt lat="42.791534" lon="-0.171855">
        <time>2023-03-22T08:31:20+00:00</time>
        <ele>2494.0</ele>
      </trkpt>
      <trkpt lat="42.791574" lon="-0.171859">
        <time>2023-03-22T08:31:21+00:00</time>
        <ele>2492.0</ele>
      </trkpt>
      <trkpt lat="42.791639" lon="-0.171958">
        <time>2023-03-22T08:31:23+00:00</time>
        <ele>2486.0</ele>
      </trkpt>
      <trkpt lat="42.791689" lon="-0.171964">
        <time>2023-03-22T08:31:24+00:00</time>
        <ele>2483.0</ele>
      </trkpt>
      <trkpt lat="42.791725" lon="-0.171938">
        <time>2023-03-22T08:31:25+00:00</time>
        <ele>2482.0</ele>
      </trkpt>
      <trkpt lat="42.791772" lon="-0.171936">
        <time>2023-03-22T08:31:26+00:00</time>
        <ele>2479.0</ele>
      </trkpt>
      <trkpt lat="42.791808" lon="-0.171982">
        <time>2023-03-22T08:31:27+00:00</time>
        <ele>2476.0</ele>
      </trkpt>
      <trkpt lat="42.791836" lon="-0.172047">
        <time>2023-03-22T08:31:28+00:00</time>
        <ele>2473.0</ele>
      </trkpt>
      <trkpt lat="42.791875" lon="-0.172077">
        <time>2023-03-22T08:31:29+00:00</time>
        <ele>2471.0</ele>
      </trkpt>
      <trkpt lat="42.791912" lon="-0.172054">
        <time>2023-03-22T08:31:30+00:00</time>
        <ele>2469.0</ele>
      </trkpt>
      <trkpt lat="42.791942" lon="-0.172013">
        <time>2023-03-22T08:31:31+00:00</time>
        <ele>2468.0</ele>
      </trkpt>
      <trkpt lat="42.791983" lon="-0.171996">
        <time>2023-03-22T08:31:32+00:00</time>
        <ele>2467.0</ele>
      </trkpt>
      <trkpt lat="42.792021" lon="-0.172021">
        <time>2023-03-22T08:31:33+00:00</time>
        <ele>2464.0</ele>
      </trkpt>
      <trkpt lat="42.792038" lon="-0.17213">
        <time>2023-03-22T08:31:35+00:00</time>
        <ele>2462.0</ele>
      </trkpt>
      <trkpt lat="42.792036" lon="-0.172186">
        <time>2023-03-22T08:31:36+00:00</time>
        <ele>2461.0</ele>
      </trkpt>
      <trkpt lat="42.79205" lon="-0.17224">
        <time>2023-03-22T08:31:37+00:00</time>
        <ele>2460.0</ele>
      </trkpt>
      <trkpt lat="42.792084" lon="-0.172259">
        <time>2023-03-22T08:31:38+00:00</time>
        <ele>2459.0</ele>
      </trkpt>
      <trkpt lat="42.792121" lon="-0.172231">
        <time>2023-03-22T08:31:39+00:00</time>
        <ele>2457.0</ele>
      </trkpt>
      <trkpt lat="42.792147" lon="-0.172185">
        <time>2023-03-22T08:31:40+00:00</time>
        <ele>2457.0</ele>
      </trkpt>
      <trkpt lat="42.792267" lon="-0.1721">
        <time>2023-03-22T08:31:44+00:00</time>
        <ele>2451.0</ele>
      </trkpt>
      <trkpt lat="42.7923" lon="-0.172141">
        <time>2023-03-22T08:31:45+00:00</time>
        <ele>2448.0</ele>
      </trkpt>
      <trkpt lat="42.792347" lon="-0.172145">
        <time>2023-03-22T08:31:46+00:00</time>
        <ele>2445.0</ele>
      </trkpt>
      <trkpt lat="42.792382" lon="-0.172115">
        <time>2023-03-22T08:31:47+00:00</time>
        <ele>2444.0</ele>
      </trkpt>
      <trkpt lat="42.792419" lon="-0.1721">
        <time>2023-03-22T08:31:48+00:00</time>
        <ele>2442.0</ele>
      </trkpt>
      <trkpt lat="42.792452" lon="-0.172126">
        <time>2023-03-22T08:31:49+00:00</time>
        <ele>2440.0</ele>
      </trkpt>
      <trkpt lat="42.792485" lon="-0.172146">
        <time>2023-03-22T08:31:50+00:00</time>
        <ele>2438.0</ele>
      </trkpt>
      <trkpt lat="42.792514" lon="-0.172124">
        <time>2023-03-22T08:31:51+00:00</time>
        <ele>2437.0</ele>
      </trkpt>
      <trkpt lat="42.792527" lon="-0.172089">
        <time>2023-03-22T08:31:52+00:00</time>
        <ele>2437.0</ele>
      </trkpt>
      <trkpt lat="42.79253" lon="-0.172052">
        <time>2023-03-22T08:31:53+00:00</time>
        <ele>2437.0</ele>
      </trkpt>
      <trkpt lat="42.792546" lon="-0.17201">
        <time>2023-03-22T08:31:54+00:00</time>
        <ele>2437.0</ele>
      </trkpt>
      <trkpt lat="42.792576" lon="-0.171996">
        <time>2023-03-22T08:31:55+00:00</time>
        <ele>2435.0</ele>
      </trkpt>
      <trkpt lat="42.792649" lon="-0.172018">
        <time>2023-03-22T08:31:57+00:00</time>
        <ele>2431.0</ele>
      </trkpt>
      <trkpt lat="42.792682" lon="-0.171964">
        <time>2023-03-22T08:31:58+00:00</time>
        <ele>2430.0</ele>
      </trkpt>
      <trkpt lat="42.7927" lon="-0.171906">
        <time>2023-03-22T08:31:59+00:00</time>
        <ele>2429.0</ele>
      </trkpt>
      <trkpt lat="42.792729" lon="-0.171849">
        <time>2023-03-22T08:32:00+00:00</time>
        <ele>2429.0</ele>
      </trkpt>
      <trkpt lat="42.792772" lon="-0.171838">
        <time>2023-03-22T08:32:01+00:00</time>
        <ele>2427.0</ele>
      </trkpt>
      <trkpt lat="42.792813" lon="-0.171883">
        <time>2023-03-22T08:32:02+00:00</time>
        <ele>2424.0</ele>
      </trkpt>
      <trkpt lat="42.792857" lon="-0.17191">
        <time>2023-03-22T08:32:03+00:00</time>
        <ele>2420.0</ele>
      </trkpt>
      <trkpt lat="42.792903" lon="-0.171888">
        <time>2023-03-22T08:32:04+00:00</time>
        <ele>2418.0</ele>
      </trkpt>
      <trkpt lat="42.792988" lon="-0.171828">
        <time>2023-03-22T08:32:06+00:00</time>
        <ele>2415.0</ele>
      </trkpt>
      <trkpt lat="42.793028" lon="-0.171863">
        <time>2023-03-22T08:32:07+00:00</time>
        <ele>2413.0</ele>
      </trkpt>
      <trkpt lat="42.793061" lon="-0.171897">
        <time>2023-03-22T08:32:08+00:00</time>
        <ele>2410.0</ele>
      </trkpt>
      <trkpt lat="42.793106" lon="-0.171908">
        <time>2023-03-22T08:32:09+00:00</time>
        <ele>2408.0</ele>
      </trkpt>
      <trkpt lat="42.793148" lon="-0.171923">
        <time>2023-03-22T08:32:10+00:00</time>
        <ele>2406.0</ele>
      </trkpt>
      <trkpt lat="42.793173" lon="-0.17197">
        <time>2023-03-22T08:32:11+00:00</time>
        <ele>2404.0</ele>
      </trkpt>
      <trkpt lat="42.793182" lon="-0.172036">
        <time>2023-03-22T08:32:12+00:00</time>
        <ele>2402.0</ele>
      </trkpt>
      <trkpt lat="42.793211" lon="-0.172088">
        <time>2023-03-22T08:32:13+00:00</time>
        <ele>2400.0</ele>
      </trkpt>
      <trkpt lat="42.793253" lon="-0.172099">
        <time>2023-03-22T08:32:14+00:00</time>
        <ele>2398.0</ele>
      </trkpt>
      <trkpt lat="42.793297" lon="-0.172095">
        <time>2023-03-22T08:32:15+00:00</time>
        <ele>2397.0</ele>
      </trkpt>
      <trkpt lat="42.793331" lon="-0.172134">
        <time>2023-03-22T08:32:16+00:00</time>
        <ele>2395.0</ele>
      </trkpt>
      <trkpt lat="42.793335" lon="-0.172205">
        <time>2023-03-22T08:32:17+00:00</time>
        <ele>2393.0</ele>
      </trkpt>
      <trkpt lat="42.793345" lon="-0.172276">
        <time>2023-03-22T08:32:18+00:00</time>
        <ele>2391.0</ele>
      </trkpt>
      <trkpt lat="42.793387" lon="-0.172307">
        <time>2023-03-22T08:32:19+00:00</time>
        <ele>2389.0</ele>
      </trkpt>
      <trkpt lat="42.793436" lon="-0.17229">
        <time>2023-03-22T08:32:20+00:00</time>
        <ele>2388.0</ele>
      </trkpt>
      <trkpt lat="42.793482" lon="-0.172265">
        <time>2023-03-22T08:32:21+00:00</time>
        <ele>2387.0</ele>
      </trkpt>
      <trkpt lat="42.793527" lon="-0.172283">
        <time>2023-03-22T08:32:22+00:00</time>
        <ele>2385.0</ele>
      </trkpt>
      <trkpt lat="42.793556" lon="-0.172351">
        <time>2023-03-22T08:32:23+00:00</time>
        <ele>2382.0</ele>
      </trkpt>
      <trkpt lat="42.793594" lon="-0.172414">
        <time>2023-03-22T08:32:24+00:00</time>
        <ele>2379.0</ele>
      </trkpt>
      <trkpt lat="42.793651" lon="-0.172415">
        <time>2023-03-22T08:32:25+00:00</time>
        <ele>2377.0</ele>
      </trkpt>
      <trkpt lat="42.793706" lon="-0.172381">
        <time>2023-03-22T08:32:26+00:00</time>
        <ele>2376.0</ele>
      </trkpt>
      <trkpt lat="42.793983" lon="-0.17225">
        <time>2023-03-22T08:32:30+00:00</time>
        <ele>2370.0</ele>
      </trkpt>
      <trkpt lat="42.794319" lon="-0.172151">
        <time>2023-03-22T08:32:34+00:00</time>
        <ele>2364.0</ele>
      </trkpt>
      <trkpt lat="42.794616" lon="-0.172034">
        <time>2023-03-22T08:32:38+00:00</time>
        <ele>2363.0</ele>
      </trkpt>
      <trkpt lat="42.794969" lon="-0.171952">
        <time>2023-03-22T08:32:44+00:00</time>
        <ele>2363.0</ele>
      </trkpt>
      <trkpt lat="42.795327" lon="-0.172055">
        <time>2023-03-22T08:32:51+00:00</time>
        <ele>2358.0</ele>
      </trkpt>
      <trkpt lat="42.795773" lon="-0.172143">
        <time>2023-03-22T08:33:02+00:00</time>
        <ele>2355.0</ele>
      </trkpt>
      <trkpt lat="42.795828" lon="-0.172139">
        <time>2023-03-22T08:33:04+00:00</time>
        <ele>2355.0</ele>
      </trkpt>
      <trkpt lat="42.795827" lon="-0.172128">
        <time>2023-03-22T08:33:17+00:00</time>
        <ele>2355.0</ele>
      </trkpt>
      <trkpt lat="42.795828" lon="-0.172126">
        <time>2023-03-22T08:33:42+00:00</time>
        <ele>2356.0</ele>
      </trkpt>
      <trkpt lat="42.795821" lon="-0.172117">
        <time>2023-03-22T08:34:06+00:00</time>
        <ele>2356.0</ele>
      </trkpt>
      <trkpt lat="42.795875" lon="-0.172115">
        <time>2023-03-22T08:34:24+00:00</time>
        <ele>2356.0</ele>
      </trkpt>
      <trkpt lat="42.796259" lon="-0.172143">
        <time>2023-03-22T08:34:36+00:00</time>
        <ele>2352.0</ele>
      </trkpt>
      <trkpt lat="42.796294" lon="-0.172141">
        <time>2023-03-22T08:34:38+00:00</time>
        <ele>2352.0</ele>
      </trkpt>
      <trkpt lat="42.796301" lon="-0.172173">
        <time>2023-03-22T08:34:51+00:00</time>
        <ele>2351.0</ele>
      </trkpt>
      <trkpt lat="42.796306" lon="-0.17218">
        <time>2023-03-22T08:35:07+00:00</time>
        <ele>2351.0</ele>
      </trkpt>
      <trkpt lat="42.796288" lon="-0.172175">
        <time>2023-03-22T08:35:47+00:00</time>
        <ele>2351.0</ele>
      </trkpt>
      <trkpt lat="42.796285" lon="-0.172171">
        <time>2023-03-22T08:35:50+00:00</time>
        <ele>2351.0</ele>
      </trkpt>
      <trkpt lat="42.796305" lon="-0.172176">
        <time>2023-03-22T08:36:22+00:00</time>
        <ele>2351.0</ele>
      </trkpt>
      <trkpt lat="42.796321" lon="-0.172176">
        <time>2023-03-22T08:36:51+00:00</time>
        <ele>2351.0</ele>
      </trkpt>
      <trkpt lat="42.796323" lon="-0.17217">
        <time>2023-03-22T08:37:18+00:00</time>
        <ele>2351.0</ele>
      </trkpt>
      <trkpt lat="42.79631" lon="-0.17217">
        <time>2023-03-22T08:37:50+00:00</time>
        <ele>2351.0</ele>
      </trkpt>
      <trkpt lat="42.796313" lon="-0.172181">
        <time>2023-03-22T08:38:17+00:00</time>
        <ele>2350.0</ele>
      </trkpt>
      <trkpt lat="42.796319" lon="-0.172184">
        <time>2023-03-22T08:38:44+00:00</time>
        <ele>2350.0</ele>
      </trkpt>
      <trkpt lat="42.796317" lon="-0.172191">
        <time>2023-03-22T08:39:11+00:00</time>
        <ele>2350.0</ele>
      </trkpt>
      <trkpt lat="42.796305" lon="-0.172193">
        <time>2023-03-22T08:39:49+00:00</time>
        <ele>2350.0</ele>
      </trkpt>
      <trkpt lat="42.796312" lon="-0.172187">
        <time>2023-03-22T08:40:18+00:00</time>
        <ele>2350.0</ele>
      </trkpt>
      <trkpt lat="42.796316" lon="-0.172179">
        <time>2023-03-22T08:40:56+00:00</time>
        <ele>2350.0</ele>
      </trkpt>
      <trkpt lat="42.796318" lon="-0.172166">
        <time>2023-03-22T08:41:25+00:00</time>
        <ele>2351.0</ele>
      </trkpt>
      <trkpt lat="42.796291" lon="-0.17217">
        <time>2023-03-22T08:41:52+00:00</time>
        <ele>2351.0</ele>
      </trkpt>
      <trkpt lat="42.796269" lon="-0.172159">
        <time>2023-03-22T08:42:22+00:00</time>
        <ele>2351.0</ele>
      </trkpt>
      <trkpt lat="42.796265" lon="-0.17216">
        <time>2023-03-22T08:42:55+00:00</time>
        <ele>2351.0</ele>
      </trkpt>
      <trkpt lat="42.796277" lon="-0.172164">
        <time>2023-03-22T08:43:31+00:00</time>
        <ele>2351.0</ele>
      </trkpt>
      <trkpt lat="42.796249" lon="-0.172153">
        <time>2023-03-22T08:44:05+00:00</time>
        <ele>2352.0</ele>
      </trkpt>
      <trkpt lat="42.796262" lon="-0.172141">
        <time>2023-03-22T08:44:42+00:00</time>
        <ele>2352.0</ele>
      </trkpt>
      <trkpt lat="42.796282" lon="-0.172137">
        <time>2023-03-22T08:45:24+00:00</time>
        <ele>2352.0</ele>
      </trkpt>
      <trkpt lat="42.796262" lon="-0.17216">
        <time>2023-03-22T08:46:02+00:00</time>
        <ele>2351.0</ele>
      </trkpt>
      <trkpt lat="42.796274" lon="-0.172177">
        <time>2023-03-22T08:46:25+00:00</time>
        <ele>2351.0</ele>
      </trkpt>
      <trkpt lat="42.79628" lon="-0.172187">
        <time>2023-03-22T08:46:48+00:00</time>
        <ele>2350.0</ele>
      </trkpt>
      <trkpt lat="42.796281" lon="-0.172179">
        <time>2023-03-22T08:47:07+00:00</time>
        <ele>2351.0</ele>
      </trkpt>
      <trkpt lat="42.79628" lon="-0.172183">
        <time>2023-03-22T08:47:12+00:00</time>
        <ele>2351.0</ele>
      </trkpt>
      <trkpt lat="42.796282" lon="-0.172185">
        <time>2023-03-22T08:47:13+00:00</time>
        <ele>2351.0</ele>
      </trkpt>
      <trkpt lat="42.79629" lon="-0.172188">
        <time>2023-03-22T08:47:15+00:00</time>
        <ele>2350.0</ele>
      </trkpt>
      <trkpt lat="42.796317" lon="-0.172207">
        <time>2023-03-22T08:47:38+00:00</time>
        <ele>2350.0</ele>
      </trkpt>
      <trkpt lat="42.796276" lon="-0.17218">
        <time>2023-03-22T08:48:06+00:00</time>
        <ele>2351.0</ele>
      </trkpt>
      <trkpt lat="42.796275" lon="-0.17219">
        <time>2023-03-22T08:48:10+00:00</time>
        <ele>2350.0</ele>
      </trkpt>
      <trkpt lat="42.796274" lon="-0.172188">
        <time>2023-03-22T08:48:11+00:00</time>
        <ele>2350.0</ele>
      </trkpt>
      <trkpt lat="42.796277" lon="-0.172183">
        <time>2023-03-22T08:48:16+00:00</time>
        <ele>2351.0</ele>
      </trkpt>
      <trkpt lat="42.796282" lon="-0.172169">
        <time>2023-03-22T08:48:26+00:00</time>
        <ele>2351.0</ele>
      </trkpt>
      <trkpt lat="42.796277" lon="-0.172159">
        <time>2023-03-22T08:48:40+00:00</time>
        <ele>2351.0</ele>
      </trkpt>
      <trkpt lat="42.796273" lon="-0.172158">
        <time>2023-03-22T08:48:55+00:00</time>
        <ele>2352.0</ele>
      </trkpt>
      <trkpt lat="42.796271" lon="-0.17216">
        <time>2023-03-22T08:48:57+00:00</time>
        <ele>2351.0</ele>
      </trkpt>
      <trkpt lat="42.796283" lon="-0.172149">
        <time>2023-03-22T08:49:14+00:00</time>
        <ele>2352.0</ele>
      </trkpt>
      <trkpt lat="42.796285" lon="-0.172159">
        <time>2023-03-22T08:49:37+00:00</time>
        <ele>2351.0</ele>
      </trkpt>
      <trkpt lat="42.796286" lon="-0.172137">
        <time>2023-03-22T08:49:47+00:00</time>
        <ele>2352.0</ele>
      </trkpt>
      <trkpt lat="42.796426" lon="-0.172013">
        <time>2023-03-22T08:50:03+00:00</time>
        <ele>2357.0</ele>
      </trkpt>
      <trkpt lat="42.796525" lon="-0.171971">
        <time>2023-03-22T08:50:15+00:00</time>
        <ele>2358.0</ele>
      </trkpt>
      <trkpt lat="42.796634" lon="-0.17195">
        <time>2023-03-22T08:50:30+00:00</time>
        <ele>2359.0</ele>
      </trkpt>
      <trkpt lat="42.796737" lon="-0.171932">
        <time>2023-03-22T08:50:44+00:00</time>
        <ele>2360.0</ele>
      </trkpt>
      <trkpt lat="42.796816" lon="-0.171854">
        <time>2023-03-22T08:50:58+00:00</time>
        <ele>2364.0</ele>
      </trkpt>
      <trkpt lat="42.796823" lon="-0.171841">
        <time>2023-03-22T08:51:00+00:00</time>
        <ele>2364.0</ele>
      </trkpt>
      <trkpt lat="42.796877" lon="-0.171717">
        <time>2023-03-22T08:51:14+00:00</time>
        <ele>2369.0</ele>
      </trkpt>
      <trkpt lat="42.796916" lon="-0.171614">
        <time>2023-03-22T08:51:25+00:00</time>
        <ele>2373.0</ele>
      </trkpt>
      <trkpt lat="42.796969" lon="-0.171528">
        <time>2023-03-22T08:51:37+00:00</time>
        <ele>2377.0</ele>
      </trkpt>
      <trkpt lat="42.797038" lon="-0.171444">
        <time>2023-03-22T08:51:50+00:00</time>
        <ele>2380.0</ele>
      </trkpt>
      <trkpt lat="42.797103" lon="-0.171369">
        <time>2023-03-22T08:52:04+00:00</time>
        <ele>2382.0</ele>
      </trkpt>
      <trkpt lat="42.797085" lon="-0.171259">
        <time>2023-03-22T08:52:18+00:00</time>
        <ele>2388.0</ele>
      </trkpt>
      <trkpt lat="42.79707" lon="-0.171179">
        <time>2023-03-22T08:52:29+00:00</time>
        <ele>2393.0</ele>
      </trkpt>
      <trkpt lat="42.797083" lon="-0.171092">
        <time>2023-03-22T08:52:42+00:00</time>
        <ele>2397.0</ele>
      </trkpt>
      <trkpt lat="42.797056" lon="-0.17104">
        <time>2023-03-22T08:52:54+00:00</time>
        <ele>2401.0</ele>
      </trkpt>
      <trkpt lat="42.797123" lon="-0.17099">
        <time>2023-03-22T08:53:11+00:00</time>
        <ele>2400.0</ele>
      </trkpt>
      <trkpt lat="42.797096" lon="-0.170907">
        <time>2023-03-22T08:53:25+00:00</time>
        <ele>2405.0</ele>
      </trkpt>
      <trkpt lat="42.797102" lon="-0.170847">
        <time>2023-03-22T08:53:37+00:00</time>
        <ele>2407.0</ele>
      </trkpt>
      <trkpt lat="42.797086" lon="-0.170786">
        <time>2023-03-22T08:53:48+00:00</time>
        <ele>2410.0</ele>
      </trkpt>
      <trkpt lat="42.797036" lon="-0.170779">
        <time>2023-03-22T08:53:58+00:00</time>
        <ele>2413.0</ele>
      </trkpt>
      <trkpt lat="42.797043" lon="-0.170757">
        <time>2023-03-22T08:54:07+00:00</time>
        <ele>2414.0</ele>
      </trkpt>
      <trkpt lat="42.797067" lon="-0.170695">
        <time>2023-03-22T08:54:19+00:00</time>
        <ele>2414.0</ele>
      </trkpt>
      <trkpt lat="42.797045" lon="-0.170669">
        <time>2023-03-22T08:54:31+00:00</time>
        <ele>2416.0</ele>
      </trkpt>
      <trkpt lat="42.79707" lon="-0.170626">
        <time>2023-03-22T08:54:44+00:00</time>
        <ele>2416.0</ele>
      </trkpt>
      <trkpt lat="42.797083" lon="-0.170592">
        <time>2023-03-22T08:54:55+00:00</time>
        <ele>2417.0</ele>
      </trkpt>
      <trkpt lat="42.797049" lon="-0.17058">
        <time>2023-03-22T08:55:08+00:00</time>
        <ele>2419.0</ele>
      </trkpt>
      <trkpt lat="42.797077" lon="-0.170511">
        <time>2023-03-22T08:55:20+00:00</time>
        <ele>2420.0</ele>
      </trkpt>
      <trkpt lat="42.797095" lon="-0.170435">
        <time>2023-03-22T08:55:31+00:00</time>
        <ele>2421.0</ele>
      </trkpt>
      <trkpt lat="42.797093" lon="-0.170383">
        <time>2023-03-22T08:55:44+00:00</time>
        <ele>2422.0</ele>
      </trkpt>
      <trkpt lat="42.797106" lon="-0.17033">
        <time>2023-03-22T08:55:55+00:00</time>
        <ele>2423.0</ele>
      </trkpt>
      <trkpt lat="42.797085" lon="-0.170288">
        <time>2023-03-22T08:56:08+00:00</time>
        <ele>2425.0</ele>
      </trkpt>
      <trkpt lat="42.797046" lon="-0.17022">
        <time>2023-03-22T08:56:23+00:00</time>
        <ele>2429.0</ele>
      </trkpt>
      <trkpt lat="42.79704" lon="-0.170193">
        <time>2023-03-22T08:56:36+00:00</time>
        <ele>2430.0</ele>
      </trkpt>
      <trkpt lat="42.797046" lon="-0.170144">
        <time>2023-03-22T08:56:48+00:00</time>
        <ele>2432.0</ele>
      </trkpt>
      <trkpt lat="42.796977" lon="-0.170128">
        <time>2023-03-22T08:56:59+00:00</time>
        <ele>2434.0</ele>
      </trkpt>
      <trkpt lat="42.796984" lon="-0.170085">
        <time>2023-03-22T08:57:10+00:00</time>
        <ele>2436.0</ele>
      </trkpt>
      <trkpt lat="42.797008" lon="-0.170057">
        <time>2023-03-22T08:57:20+00:00</time>
        <ele>2436.0</ele>
      </trkpt>
      <trkpt lat="42.796948" lon="-0.170001">
        <time>2023-03-22T08:57:32+00:00</time>
        <ele>2439.0</ele>
      </trkpt>
      <trkpt lat="42.796902" lon="-0.169983">
        <time>2023-03-22T08:57:44+00:00</time>
        <ele>2441.0</ele>
      </trkpt>
      <trkpt lat="42.796945" lon="-0.169943">
        <time>2023-03-22T08:57:56+00:00</time>
        <ele>2441.0</ele>
      </trkpt>
      <trkpt lat="42.797011" lon="-0.169918">
        <time>2023-03-22T08:58:09+00:00</time>
        <ele>2440.0</ele>
      </trkpt>
      <trkpt lat="42.796992" lon="-0.169866">
        <time>2023-03-22T08:58:17+00:00</time>
        <ele>2442.0</ele>
      </trkpt>
      <trkpt lat="42.796977" lon="-0.169786">
        <time>2023-03-22T08:58:32+00:00</time>
        <ele>2445.0</ele>
      </trkpt>
      <trkpt lat="42.797028" lon="-0.169726">
        <time>2023-03-22T08:58:45+00:00</time>
        <ele>2445.0</ele>
      </trkpt>
      <trkpt lat="42.797044" lon="-0.16961">
        <time>2023-03-22T08:59:01+00:00</time>
        <ele>2447.0</ele>
      </trkpt>
      <trkpt lat="42.797079" lon="-0.169557">
        <time>2023-03-22T08:59:14+00:00</time>
        <ele>2447.0</ele>
      </trkpt>
      <trkpt lat="42.797093" lon="-0.169504">
        <time>2023-03-22T08:59:29+00:00</time>
        <ele>2447.0</ele>
      </trkpt>
      <trkpt lat="42.797117" lon="-0.169467">
        <time>2023-03-22T08:59:49+00:00</time>
        <ele>2447.0</ele>
      </trkpt>
      <trkpt lat="42.797172" lon="-0.169405">
        <time>2023-03-22T09:00:02+00:00</time>
        <ele>2448.0</ele>
      </trkpt>
      <trkpt lat="42.79713" lon="-0.169276">
        <time>2023-03-22T09:00:17+00:00</time>
        <ele>2451.0</ele>
      </trkpt>
      <trkpt lat="42.797065" lon="-0.169139">
        <time>2023-03-22T09:00:34+00:00</time>
        <ele>2457.0</ele>
      </trkpt>
      <trkpt lat="42.796979" lon="-0.169052">
        <time>2023-03-22T09:00:51+00:00</time>
        <ele>2464.0</ele>
      </trkpt>
      <trkpt lat="42.796976" lon="-0.16901">
        <time>2023-03-22T09:01:04+00:00</time>
        <ele>2465.0</ele>
      </trkpt>
      <trkpt lat="42.797034" lon="-0.168962">
        <time>2023-03-22T09:01:17+00:00</time>
        <ele>2463.0</ele>
      </trkpt>
      <trkpt lat="42.797124" lon="-0.168863">
        <time>2023-03-22T09:01:35+00:00</time>
        <ele>2463.0</ele>
      </trkpt>
      <trkpt lat="42.797058" lon="-0.168794">
        <time>2023-03-22T09:01:47+00:00</time>
        <ele>2468.0</ele>
      </trkpt>
      <trkpt lat="42.796938" lon="-0.168706">
        <time>2023-03-22T09:02:05+00:00</time>
        <ele>2474.0</ele>
      </trkpt>
      <trkpt lat="42.796855" lon="-0.168664">
        <time>2023-03-22T09:02:20+00:00</time>
        <ele>2481.0</ele>
      </trkpt>
      <trkpt lat="42.796782" lon="-0.168611">
        <time>2023-03-22T09:02:34+00:00</time>
        <ele>2489.0</ele>
      </trkpt>
      <trkpt lat="42.796717" lon="-0.16857">
        <time>2023-03-22T09:02:46+00:00</time>
        <ele>2497.0</ele>
      </trkpt>
      <trkpt lat="42.796726" lon="-0.168548">
        <time>2023-03-22T09:02:59+00:00</time>
        <ele>2498.0</ele>
      </trkpt>
      <trkpt lat="42.796775" lon="-0.168466">
        <time>2023-03-22T09:03:15+00:00</time>
        <ele>2498.0</ele>
      </trkpt>
      <trkpt lat="42.796821" lon="-0.168418">
        <time>2023-03-22T09:03:28+00:00</time>
        <ele>2496.0</ele>
      </trkpt>
      <trkpt lat="42.796867" lon="-0.168355">
        <time>2023-03-22T09:03:42+00:00</time>
        <ele>2493.0</ele>
      </trkpt>
      <trkpt lat="42.796914" lon="-0.168269">
        <time>2023-03-22T09:03:56+00:00</time>
        <ele>2490.0</ele>
      </trkpt>
      <trkpt lat="42.796963" lon="-0.168187">
        <time>2023-03-22T09:04:07+00:00</time>
        <ele>2491.0</ele>
      </trkpt>
      <trkpt lat="42.797014" lon="-0.168138">
        <time>2023-03-22T09:04:18+00:00</time>
        <ele>2491.0</ele>
      </trkpt>
      <trkpt lat="42.797036" lon="-0.168069">
        <time>2023-03-22T09:04:29+00:00</time>
        <ele>2494.0</ele>
      </trkpt>
      <trkpt lat="42.79697" lon="-0.168015">
        <time>2023-03-22T09:04:45+00:00</time>
        <ele>2497.0</ele>
      </trkpt>
      <trkpt lat="42.7969" lon="-0.16798">
        <time>2023-03-22T09:04:59+00:00</time>
        <ele>2500.0</ele>
      </trkpt>
      <trkpt lat="42.796831" lon="-0.167954">
        <time>2023-03-22T09:05:14+00:00</time>
        <ele>2506.0</ele>
      </trkpt>
      <trkpt lat="42.796838" lon="-0.167904">
        <time>2023-03-22T09:05:25+00:00</time>
        <ele>2506.0</ele>
      </trkpt>
      <trkpt lat="42.796856" lon="-0.16789">
        <time>2023-03-22T09:05:51+00:00</time>
        <ele>2505.0</ele>
      </trkpt>
      <trkpt lat="42.796889" lon="-0.167788">
        <time>2023-03-22T09:06:09+00:00</time>
        <ele>2508.0</ele>
      </trkpt>
      <trkpt lat="42.796864" lon="-0.167743">
        <time>2023-03-22T09:06:22+00:00</time>
        <ele>2511.0</ele>
      </trkpt>
      <trkpt lat="42.796795" lon="-0.16774">
        <time>2023-03-22T09:06:33+00:00</time>
        <ele>2514.0</ele>
      </trkpt>
      <trkpt lat="42.796727" lon="-0.167719">
        <time>2023-03-22T09:06:48+00:00</time>
        <ele>2518.0</ele>
      </trkpt>
      <trkpt lat="42.796728" lon="-0.167649">
        <time>2023-03-22T09:07:01+00:00</time>
        <ele>2520.0</ele>
      </trkpt>
      <trkpt lat="42.796767" lon="-0.167589">
        <time>2023-03-22T09:07:14+00:00</time>
        <ele>2521.0</ele>
      </trkpt>
      <trkpt lat="42.796793" lon="-0.167533">
        <time>2023-03-22T09:07:25+00:00</time>
        <ele>2523.0</ele>
      </trkpt>
      <trkpt lat="42.796788" lon="-0.167513">
        <time>2023-03-22T09:07:36+00:00</time>
        <ele>2524.0</ele>
      </trkpt>
      <trkpt lat="42.796725" lon="-0.167492">
        <time>2023-03-22T09:07:50+00:00</time>
        <ele>2526.0</ele>
      </trkpt>
      <trkpt lat="42.796698" lon="-0.167467">
        <time>2023-03-22T09:07:57+00:00</time>
        <ele>2528.0</ele>
      </trkpt>
      <trkpt lat="42.79672" lon="-0.167441">
        <time>2023-03-22T09:08:08+00:00</time>
        <ele>2528.0</ele>
      </trkpt>
      <trkpt lat="42.796745" lon="-0.167405">
        <time>2023-03-22T09:08:20+00:00</time>
        <ele>2529.0</ele>
      </trkpt>
      <trkpt lat="42.796685" lon="-0.167355">
        <time>2023-03-22T09:08:36+00:00</time>
        <ele>2532.0</ele>
      </trkpt>
      <trkpt lat="42.796657" lon="-0.167348">
        <time>2023-03-22T09:08:51+00:00</time>
        <ele>2533.0</ele>
      </trkpt>
      <trkpt lat="42.796683" lon="-0.167272">
        <time>2023-03-22T09:09:05+00:00</time>
        <ele>2535.0</ele>
      </trkpt>
      <trkpt lat="42.796706" lon="-0.167197">
        <time>2023-03-22T09:09:26+00:00</time>
        <ele>2537.0</ele>
      </trkpt>
      <trkpt lat="42.796608" lon="-0.16715">
        <time>2023-03-22T09:09:43+00:00</time>
        <ele>2541.0</ele>
      </trkpt>
      <trkpt lat="42.796536" lon="-0.167138">
        <time>2023-03-22T09:09:55+00:00</time>
        <ele>2543.0</ele>
      </trkpt>
      <trkpt lat="42.796471" lon="-0.167151">
        <time>2023-03-22T09:10:06+00:00</time>
        <ele>2546.0</ele>
      </trkpt>
      <trkpt lat="42.796486" lon="-0.167097">
        <time>2023-03-22T09:10:18+00:00</time>
        <ele>2546.0</ele>
      </trkpt>
      <trkpt lat="42.796526" lon="-0.167058">
        <time>2023-03-22T09:10:32+00:00</time>
        <ele>2545.0</ele>
      </trkpt>
      <trkpt lat="42.796577" lon="-0.166977">
        <time>2023-03-22T09:10:48+00:00</time>
        <ele>2548.0</ele>
      </trkpt>
      <trkpt lat="42.796625" lon="-0.16692">
        <time>2023-03-22T09:11:01+00:00</time>
        <ele>2550.0</ele>
      </trkpt>
      <trkpt lat="42.796633" lon="-0.166907">
        <time>2023-03-22T09:11:15+00:00</time>
        <ele>2550.0</ele>
      </trkpt>
      <trkpt lat="42.79662" lon="-0.166893">
        <time>2023-03-22T09:11:36+00:00</time>
        <ele>2551.0</ele>
      </trkpt>
      <trkpt lat="42.79663" lon="-0.166912">
        <time>2023-03-22T09:11:42+00:00</time>
        <ele>2550.0</ele>
      </trkpt>
      <trkpt lat="42.796633" lon="-0.166913">
        <time>2023-03-22T09:11:43+00:00</time>
        <ele>2550.0</ele>
      </trkpt>
      <trkpt lat="42.796634" lon="-0.166911">
        <time>2023-03-22T09:11:44+00:00</time>
        <ele>2550.0</ele>
      </trkpt>
      <trkpt lat="42.796636" lon="-0.166906">
        <time>2023-03-22T09:11:45+00:00</time>
        <ele>2550.0</ele>
      </trkpt>
      <trkpt lat="42.796653" lon="-0.166858">
        <time>2023-03-22T09:12:11+00:00</time>
        <ele>2552.0</ele>
      </trkpt>
      <trkpt lat="42.796647" lon="-0.166849">
        <time>2023-03-22T09:12:14+00:00</time>
        <ele>2553.0</ele>
      </trkpt>
      <trkpt lat="42.796646" lon="-0.166846">
        <time>2023-03-22T09:12:15+00:00</time>
        <ele>2553.0</ele>
      </trkpt>
      <trkpt lat="42.796646" lon="-0.166845">
        <time>2023-03-22T09:12:16+00:00</time>
        <ele>2553.0</ele>
      </trkpt>
      <trkpt lat="42.796646" lon="-0.166845">
        <time>2023-03-22T09:12:17+00:00</time>
        <ele>2553.0</ele>
      </trkpt>
      <trkpt lat="42.796649" lon="-0.166845">
        <time>2023-03-22T09:12:19+00:00</time>
        <ele>2553.0</ele>
      </trkpt>
      <trkpt lat="42.796653" lon="-0.166845">
        <time>2023-03-22T09:12:21+00:00</time>
        <ele>2553.0</ele>
      </trkpt>
      <trkpt lat="42.796654" lon="-0.166845">
        <time>2023-03-22T09:12:22+00:00</time>
        <ele>2553.0</ele>
      </trkpt>
      <trkpt lat="42.796653" lon="-0.166845">
        <time>2023-03-22T09:12:23+00:00</time>
        <ele>2553.0</ele>
      </trkpt>
      <trkpt lat="42.796652" lon="-0.166842">
        <time>2023-03-22T09:12:24+00:00</time>
        <ele>2553.0</ele>
      </trkpt>
      <trkpt lat="42.796649" lon="-0.166846">
        <time>2023-03-22T09:12:25+00:00</time>
        <ele>2553.0</ele>
      </trkpt>
      <trkpt lat="42.796613" lon="-0.166849">
        <time>2023-03-22T09:12:43+00:00</time>
        <ele>2553.0</ele>
      </trkpt>
      <trkpt lat="42.79664" lon="-0.166913">
        <time>2023-03-22T09:13:00+00:00</time>
        <ele>2550.0</ele>
      </trkpt>
      <trkpt lat="42.796673" lon="-0.166911">
        <time>2023-03-22T09:13:17+00:00</time>
        <ele>2550.0</ele>
      </trkpt>
      <trkpt lat="42.796681" lon="-0.166902">
        <time>2023-03-22T09:13:41+00:00</time>
        <ele>2550.0</ele>
      </trkpt>
      <trkpt lat="42.796677" lon="-0.166905">
        <time>2023-03-22T09:13:48+00:00</time>
        <ele>2550.0</ele>
      </trkpt>
      <trkpt lat="42.796683" lon="-0.166912">
        <time>2023-03-22T09:14:03+00:00</time>
        <ele>2550.0</ele>
      </trkpt>
      <trkpt lat="42.796713" lon="-0.166852">
        <time>2023-03-22T09:14:15+00:00</time>
        <ele>2552.0</ele>
      </trkpt>
      <trkpt lat="42.796691" lon="-0.166816">
        <time>2023-03-22T09:14:27+00:00</time>
        <ele>2554.0</ele>
      </trkpt>
      <trkpt lat="42.796591" lon="-0.166785">
        <time>2023-03-22T09:14:46+00:00</time>
        <ele>2556.0</ele>
      </trkpt>
      <trkpt lat="42.796524" lon="-0.166768">
        <time>2023-03-22T09:14:59+00:00</time>
        <ele>2557.0</ele>
      </trkpt>
      <trkpt lat="42.796465" lon="-0.166754">
        <time>2023-03-22T09:15:11+00:00</time>
        <ele>2560.0</ele>
      </trkpt>
      <trkpt lat="42.796478" lon="-0.166708">
        <time>2023-03-22T09:15:22+00:00</time>
        <ele>2562.0</ele>
      </trkpt>
      <trkpt lat="42.796529" lon="-0.166667">
        <time>2023-03-22T09:15:36+00:00</time>
        <ele>2563.0</ele>
      </trkpt>
      <trkpt lat="42.796552" lon="-0.166637">
        <time>2023-03-22T09:15:49+00:00</time>
        <ele>2565.0</ele>
      </trkpt>
      <trkpt lat="42.796492" lon="-0.166626">
        <time>2023-03-22T09:16:01+00:00</time>
        <ele>2566.0</ele>
      </trkpt>
      <trkpt lat="42.796529" lon="-0.166605">
        <time>2023-03-22T09:16:16+00:00</time>
        <ele>2567.0</ele>
      </trkpt>
      <trkpt lat="42.796517" lon="-0.166602">
        <time>2023-03-22T09:16:36+00:00</time>
        <ele>2567.0</ele>
      </trkpt>
      <trkpt lat="42.796512" lon="-0.16662">
        <time>2023-03-22T09:16:51+00:00</time>
        <ele>2566.0</ele>
      </trkpt>
      <trkpt lat="42.796502" lon="-0.166619">
        <time>2023-03-22T09:17:02+00:00</time>
        <ele>2567.0</ele>
      </trkpt>
      <trkpt lat="42.796507" lon="-0.166628">
        <time>2023-03-22T09:17:05+00:00</time>
        <ele>2566.0</ele>
      </trkpt>
      <trkpt lat="42.796505" lon="-0.166616">
        <time>2023-03-22T09:17:12+00:00</time>
        <ele>2567.0</ele>
      </trkpt>
      <trkpt lat="42.796504" lon="-0.166616">
        <time>2023-03-22T09:17:13+00:00</time>
        <ele>2567.0</ele>
      </trkpt>
      <trkpt lat="42.796496" lon="-0.166615">
        <time>2023-03-22T09:17:15+00:00</time>
        <ele>2567.0</ele>
      </trkpt>
      <trkpt lat="42.796488" lon="-0.166614">
        <time>2023-03-22T09:17:20+00:00</time>
        <ele>2567.0</ele>
      </trkpt>
      <trkpt lat="42.796488" lon="-0.166614">
        <time>2023-03-22T09:17:21+00:00</time>
        <ele>2567.0</ele>
      </trkpt>
      <trkpt lat="42.796489" lon="-0.166614">
        <time>2023-03-22T09:17:22+00:00</time>
        <ele>2567.0</ele>
      </trkpt>
      <trkpt lat="42.796491" lon="-0.166614">
        <time>2023-03-22T09:17:23+00:00</time>
        <ele>2567.0</ele>
      </trkpt>
      <trkpt lat="42.79649" lon="-0.166613">
        <time>2023-03-22T09:17:24+00:00</time>
        <ele>2567.0</ele>
      </trkpt>
      <trkpt lat="42.796485" lon="-0.166613">
        <time>2023-03-22T09:17:25+00:00</time>
        <ele>2567.0</ele>
      </trkpt>
      <trkpt lat="42.796474" lon="-0.166613">
        <time>2023-03-22T09:17:27+00:00</time>
        <ele>2568.0</ele>
      </trkpt>
      <trkpt lat="42.796446" lon="-0.166619">
        <time>2023-03-22T09:17:55+00:00</time>
        <ele>2568.0</ele>
      </trkpt>
      <trkpt lat="42.79646" lon="-0.166617">
        <time>2023-03-22T09:18:00+00:00</time>
        <ele>2568.0</ele>
      </trkpt>
      <trkpt lat="42.796462" lon="-0.166613">
        <time>2023-03-22T09:18:01+00:00</time>
        <ele>2568.0</ele>
      </trkpt>
      <trkpt lat="42.796466" lon="-0.166602">
        <time>2023-03-22T09:18:04+00:00</time>
        <ele>2568.0</ele>
      </trkpt>
      <trkpt lat="42.79648" lon="-0.166589">
        <time>2023-03-22T09:18:09+00:00</time>
        <ele>2569.0</ele>
      </trkpt>
      <trkpt lat="42.796465" lon="-0.166553">
        <time>2023-03-22T09:18:29+00:00</time>
        <ele>2571.0</ele>
      </trkpt>
      <trkpt lat="42.79646" lon="-0.166555">
        <time>2023-03-22T09:18:31+00:00</time>
        <ele>2571.0</ele>
      </trkpt>
      <trkpt lat="42.796461" lon="-0.166558">
        <time>2023-03-22T09:18:32+00:00</time>
        <ele>2571.0</ele>
      </trkpt>
      <trkpt lat="42.796463" lon="-0.16656">
        <time>2023-03-22T09:18:33+00:00</time>
        <ele>2571.0</ele>
      </trkpt>
      <trkpt lat="42.796468" lon="-0.166563">
        <time>2023-03-22T09:18:34+00:00</time>
        <ele>2571.0</ele>
      </trkpt>
      <trkpt lat="42.796473" lon="-0.166561">
        <time>2023-03-22T09:18:36+00:00</time>
        <ele>2571.0</ele>
      </trkpt>
      <trkpt lat="42.796472" lon="-0.166563">
        <time>2023-03-22T09:18:37+00:00</time>
        <ele>2571.0</ele>
      </trkpt>
      <trkpt lat="42.796474" lon="-0.166567">
        <time>2023-03-22T09:18:38+00:00</time>
        <ele>2570.0</ele>
      </trkpt>
      <trkpt lat="42.796474" lon="-0.166569">
        <time>2023-03-22T09:18:39+00:00</time>
        <ele>2570.0</ele>
      </trkpt>
      <trkpt lat="42.796474" lon="-0.166572">
        <time>2023-03-22T09:18:41+00:00</time>
        <ele>2570.0</ele>
      </trkpt>
      <trkpt lat="42.796484" lon="-0.166578">
        <time>2023-03-22T09:18:44+00:00</time>
        <ele>2569.0</ele>
      </trkpt>
      <trkpt lat="42.796488" lon="-0.166583">
        <time>2023-03-22T09:18:47+00:00</time>
        <ele>2569.0</ele>
      </trkpt>
      <trkpt lat="42.796482" lon="-0.166585">
        <time>2023-03-22T09:18:49+00:00</time>
        <ele>2569.0</ele>
      </trkpt>
      <trkpt lat="42.796487" lon="-0.1666">
        <time>2023-03-22T09:18:56+00:00</time>
        <ele>2568.0</ele>
      </trkpt>
      <trkpt lat="42.796491" lon="-0.166603">
        <time>2023-03-22T09:18:57+00:00</time>
        <ele>2568.0</ele>
      </trkpt>
      <trkpt lat="42.796497" lon="-0.166611">
        <time>2023-03-22T09:18:59+00:00</time>
        <ele>2567.0</ele>
      </trkpt>
      <trkpt lat="42.796498" lon="-0.166618">
        <time>2023-03-22T09:19:01+00:00</time>
        <ele>2567.0</ele>
      </trkpt>
      <trkpt lat="42.796499" lon="-0.166619">
        <time>2023-03-22T09:19:02+00:00</time>
        <ele>2567.0</ele>
      </trkpt>
      <trkpt lat="42.796493" lon="-0.166609">
        <time>2023-03-22T09:19:07+00:00</time>
        <ele>2567.0</ele>
      </trkpt>
      <trkpt lat="42.796494" lon="-0.166609">
        <time>2023-03-22T09:19:08+00:00</time>
        <ele>2567.0</ele>
      </trkpt>
      <trkpt lat="42.796494" lon="-0.166603">
        <time>2023-03-22T09:19:38+00:00</time>
        <ele>2568.0</ele>
      </trkpt>
      <trkpt lat="42.796512" lon="-0.166587">
        <time>2023-03-22T09:20:12+00:00</time>
        <ele>2568.0</ele>
      </trkpt>
      <trkpt lat="42.796528" lon="-0.166579">
        <time>2023-03-22T09:20:31+00:00</time>
        <ele>2569.0</ele>
      </trkpt>
      <trkpt lat="42.796528" lon="-0.166578">
        <time>2023-03-22T09:20:32+00:00</time>
        <ele>2569.0</ele>
      </trkpt>
      <trkpt lat="42.796527" lon="-0.166578">
        <time>2023-03-22T09:20:33+00:00</time>
        <ele>2569.0</ele>
      </trkpt>
      <trkpt lat="42.796527" lon="-0.166577">
        <time>2023-03-22T09:20:34+00:00</time>
        <ele>2569.0</ele>
      </trkpt>
      <trkpt lat="42.796528" lon="-0.166578">
        <time>2023-03-22T09:20:40+00:00</time>
        <ele>2569.0</ele>
      </trkpt>
      <trkpt lat="42.796528" lon="-0.166579">
        <time>2023-03-22T09:20:41+00:00</time>
        <ele>2569.0</ele>
      </trkpt>
      <trkpt lat="42.796528" lon="-0.166582">
        <time>2023-03-22T09:20:42+00:00</time>
        <ele>2568.0</ele>
      </trkpt>
      <trkpt lat="42.796527" lon="-0.166587">
        <time>2023-03-22T09:20:43+00:00</time>
        <ele>2568.0</ele>
      </trkpt>
      <trkpt lat="42.796527" lon="-0.166591">
        <time>2023-03-22T09:20:44+00:00</time>
        <ele>2568.0</ele>
      </trkpt>
      <trkpt lat="42.796523" lon="-0.166589">
        <time>2023-03-22T09:20:45+00:00</time>
        <ele>2568.0</ele>
      </trkpt>
      <trkpt lat="42.796522" lon="-0.166564">
        <time>2023-03-22T09:21:26+00:00</time>
        <ele>2570.0</ele>
      </trkpt>
      <trkpt lat="42.796468" lon="-0.166576">
        <time>2023-03-22T09:22:01+00:00</time>
        <ele>2570.0</ele>
      </trkpt>
      <trkpt lat="42.796472" lon="-0.166576">
        <time>2023-03-22T09:22:03+00:00</time>
        <ele>2570.0</ele>
      </trkpt>
      <trkpt lat="42.796478" lon="-0.16658">
        <time>2023-03-22T09:22:05+00:00</time>
        <ele>2569.0</ele>
      </trkpt>
      <trkpt lat="42.796483" lon="-0.16662">
        <time>2023-03-22T09:22:35+00:00</time>
        <ele>2567.0</ele>
      </trkpt>
      <trkpt lat="42.796483" lon="-0.166622">
        <time>2023-03-22T09:22:36+00:00</time>
        <ele>2567.0</ele>
      </trkpt>
      <trkpt lat="42.796493" lon="-0.166638">
        <time>2023-03-22T09:22:51+00:00</time>
        <ele>2566.0</ele>
      </trkpt>
      <trkpt lat="42.796547" lon="-0.166587">
        <time>2023-03-22T09:23:20+00:00</time>
        <ele>2569.0</ele>
      </trkpt>
      <trkpt lat="42.796553" lon="-0.166581">
        <time>2023-03-22T09:23:22+00:00</time>
        <ele>2569.0</ele>
      </trkpt>
      <trkpt lat="42.796554" lon="-0.166579">
        <time>2023-03-22T09:23:23+00:00</time>
        <ele>2569.0</ele>
      </trkpt>
      <trkpt lat="42.796553" lon="-0.166576">
        <time>2023-03-22T09:23:24+00:00</time>
        <ele>2569.0</ele>
      </trkpt>
      <trkpt lat="42.796553" lon="-0.166572">
        <time>2023-03-22T09:23:25+00:00</time>
        <ele>2570.0</ele>
      </trkpt>
      <trkpt lat="42.796551" lon="-0.166566">
        <time>2023-03-22T09:23:27+00:00</time>
        <ele>2570.0</ele>
      </trkpt>
      <trkpt lat="42.796566" lon="-0.166567">
        <time>2023-03-22T09:23:35+00:00</time>
        <ele>2570.0</ele>
      </trkpt>
      <trkpt lat="42.796565" lon="-0.166567">
        <time>2023-03-22T09:23:36+00:00</time>
        <ele>2570.0</ele>
      </trkpt>
      <trkpt lat="42.796563" lon="-0.166568">
        <time>2023-03-22T09:23:37+00:00</time>
        <ele>2570.0</ele>
      </trkpt>
      <trkpt lat="42.796561" lon="-0.166568">
        <time>2023-03-22T09:23:40+00:00</time>
        <ele>2570.0</ele>
      </trkpt>
      <trkpt lat="42.796531" lon="-0.166588">
        <time>2023-03-22T09:23:54+00:00</time>
        <ele>2568.0</ele>
      </trkpt>
      <trkpt lat="42.796522" lon="-0.166595">
        <time>2023-03-22T09:23:58+00:00</time>
        <ele>2568.0</ele>
      </trkpt>
      <trkpt lat="42.796508" lon="-0.166591">
        <time>2023-03-22T09:24:13+00:00</time>
        <ele>2568.0</ele>
      </trkpt>
      <trkpt lat="42.796507" lon="-0.166591">
        <time>2023-03-22T09:24:17+00:00</time>
        <ele>2568.0</ele>
      </trkpt>
      <trkpt lat="42.796504" lon="-0.166594">
        <time>2023-03-22T09:24:19+00:00</time>
        <ele>2568.0</ele>
      </trkpt>
      <trkpt lat="42.796516" lon="-0.166611">
        <time>2023-03-22T09:24:30+00:00</time>
        <ele>2567.0</ele>
      </trkpt>
      <trkpt lat="42.796517" lon="-0.166608">
        <time>2023-03-22T09:24:31+00:00</time>
        <ele>2567.0</ele>
      </trkpt>
      <trkpt lat="42.796482" lon="-0.16663">
        <time>2023-03-22T09:25:02+00:00</time>
        <ele>2566.0</ele>
      </trkpt>
      <trkpt lat="42.796489" lon="-0.166631">
        <time>2023-03-22T09:25:11+00:00</time>
        <ele>2566.0</ele>
      </trkpt>
      <trkpt lat="42.79649" lon="-0.166632">
        <time>2023-03-22T09:25:12+00:00</time>
        <ele>2566.0</ele>
      </trkpt>
      <trkpt lat="42.79649" lon="-0.166618">
        <time>2023-03-22T09:25:21+00:00</time>
        <ele>2567.0</ele>
      </trkpt>
      <trkpt lat="42.79649" lon="-0.16662">
        <time>2023-03-22T09:25:22+00:00</time>
        <ele>2567.0</ele>
      </trkpt>
      <trkpt lat="42.796489" lon="-0.166621">
        <time>2023-03-22T09:25:38+00:00</time>
        <ele>2567.0</ele>
      </trkpt>
      <trkpt lat="42.796503" lon="-0.166559">
        <time>2023-03-22T09:25:53+00:00</time>
        <ele>2570.0</ele>
      </trkpt>
      <trkpt lat="42.796477" lon="-0.166533">
        <time>2023-03-22T09:26:07+00:00</time>
        <ele>2572.0</ele>
      </trkpt>
      <trkpt lat="42.796491" lon="-0.166456">
        <time>2023-03-22T09:26:21+00:00</time>
        <ele>2577.0</ele>
      </trkpt>
      <trkpt lat="42.796503" lon="-0.166384">
        <time>2023-03-22T09:26:37+00:00</time>
        <ele>2581.0</ele>
      </trkpt>
      <trkpt lat="42.79649" lon="-0.166348">
        <time>2023-03-22T09:26:51+00:00</time>
        <ele>2583.0</ele>
      </trkpt>
      <trkpt lat="42.796448" lon="-0.166298">
        <time>2023-03-22T09:27:08+00:00</time>
        <ele>2586.0</ele>
      </trkpt>
      <trkpt lat="42.796387" lon="-0.166261">
        <time>2023-03-22T09:27:24+00:00</time>
        <ele>2589.0</ele>
      </trkpt>
      <trkpt lat="42.796358" lon="-0.166239">
        <time>2023-03-22T09:27:40+00:00</time>
        <ele>2591.0</ele>
      </trkpt>
      <trkpt lat="42.796358" lon="-0.16621">
        <time>2023-03-22T09:27:54+00:00</time>
        <ele>2593.0</ele>
      </trkpt>
      <trkpt lat="42.796367" lon="-0.166149">
        <time>2023-03-22T09:28:08+00:00</time>
        <ele>2597.0</ele>
      </trkpt>
      <trkpt lat="42.796408" lon="-0.166035">
        <time>2023-03-22T09:28:25+00:00</time>
        <ele>2604.0</ele>
      </trkpt>
      <trkpt lat="42.796443" lon="-0.165966">
        <time>2023-03-22T09:28:40+00:00</time>
        <ele>2607.0</ele>
      </trkpt>
      <trkpt lat="42.796468" lon="-0.165942">
        <time>2023-03-22T09:28:54+00:00</time>
        <ele>2608.0</ele>
      </trkpt>
      <trkpt lat="42.796476" lon="-0.165945">
        <time>2023-03-22T09:29:06+00:00</time>
        <ele>2608.0</ele>
      </trkpt>
      <trkpt lat="42.796518" lon="-0.165904">
        <time>2023-03-22T09:29:20+00:00</time>
        <ele>2609.0</ele>
      </trkpt>
      <trkpt lat="42.796582" lon="-0.16587">
        <time>2023-03-22T09:29:32+00:00</time>
        <ele>2611.0</ele>
      </trkpt>
      <trkpt lat="42.796583" lon="-0.16586">
        <time>2023-03-22T09:29:48+00:00</time>
        <ele>2612.0</ele>
      </trkpt>
      <trkpt lat="42.796587" lon="-0.16582">
        <time>2023-03-22T09:30:01+00:00</time>
        <ele>2614.0</ele>
      </trkpt>
      <trkpt lat="42.796568" lon="-0.165821">
        <time>2023-03-22T09:30:23+00:00</time>
        <ele>2614.0</ele>
      </trkpt>
      <trkpt lat="42.796561" lon="-0.165798">
        <time>2023-03-22T09:30:41+00:00</time>
        <ele>2615.0</ele>
      </trkpt>
      <trkpt lat="42.79651" lon="-0.165756">
        <time>2023-03-22T09:30:55+00:00</time>
        <ele>2618.0</ele>
      </trkpt>
      <trkpt lat="42.796574" lon="-0.165688">
        <time>2023-03-22T09:31:08+00:00</time>
        <ele>2622.0</ele>
      </trkpt>
      <trkpt lat="42.796642" lon="-0.165671">
        <time>2023-03-22T09:31:21+00:00</time>
        <ele>2623.0</ele>
      </trkpt>
      <trkpt lat="42.796644" lon="-0.165661">
        <time>2023-03-22T09:31:33+00:00</time>
        <ele>2623.0</ele>
      </trkpt>
      <trkpt lat="42.796618" lon="-0.165571">
        <time>2023-03-22T09:31:48+00:00</time>
        <ele>2627.0</ele>
      </trkpt>
      <trkpt lat="42.79657" lon="-0.165471">
        <time>2023-03-22T09:32:05+00:00</time>
        <ele>2631.0</ele>
      </trkpt>
      <trkpt lat="42.796619" lon="-0.165451">
        <time>2023-03-22T09:32:18+00:00</time>
        <ele>2632.0</ele>
      </trkpt>
      <trkpt lat="42.796684" lon="-0.165457">
        <time>2023-03-22T09:32:32+00:00</time>
        <ele>2632.0</ele>
      </trkpt>
      <trkpt lat="42.796687" lon="-0.165375">
        <time>2023-03-22T09:32:45+00:00</time>
        <ele>2636.0</ele>
      </trkpt>
      <trkpt lat="42.79666" lon="-0.165321">
        <time>2023-03-22T09:32:57+00:00</time>
        <ele>2638.0</ele>
      </trkpt>
      <trkpt lat="42.796633" lon="-0.165273">
        <time>2023-03-22T09:33:09+00:00</time>
        <ele>2640.0</ele>
      </trkpt>
      <trkpt lat="42.796582" lon="-0.165186">
        <time>2023-03-22T09:33:23+00:00</time>
        <ele>2643.0</ele>
      </trkpt>
      <trkpt lat="42.79653" lon="-0.165145">
        <time>2023-03-22T09:33:35+00:00</time>
        <ele>2644.0</ele>
      </trkpt>
      <trkpt lat="42.796521" lon="-0.165089">
        <time>2023-03-22T09:33:50+00:00</time>
        <ele>2646.0</ele>
      </trkpt>
      <trkpt lat="42.796544" lon="-0.165023">
        <time>2023-03-22T09:34:03+00:00</time>
        <ele>2649.0</ele>
      </trkpt>
      <trkpt lat="42.796613" lon="-0.164961">
        <time>2023-03-22T09:34:16+00:00</time>
        <ele>2652.0</ele>
      </trkpt>
      <trkpt lat="42.796661" lon="-0.164942">
        <time>2023-03-22T09:34:27+00:00</time>
        <ele>2653.0</ele>
      </trkpt>
      <trkpt lat="42.796607" lon="-0.164906">
        <time>2023-03-22T09:34:41+00:00</time>
        <ele>2654.0</ele>
      </trkpt>
      <trkpt lat="42.796606" lon="-0.164891">
        <time>2023-03-22T09:34:44+00:00</time>
        <ele>2655.0</ele>
      </trkpt>
      <trkpt lat="42.796552" lon="-0.164865">
        <time>2023-03-22T09:34:57+00:00</time>
        <ele>2655.0</ele>
      </trkpt>
      <trkpt lat="42.796523" lon="-0.164847">
        <time>2023-03-22T09:35:08+00:00</time>
        <ele>2656.0</ele>
      </trkpt>
      <trkpt lat="42.796558" lon="-0.164748">
        <time>2023-03-22T09:35:22+00:00</time>
        <ele>2660.0</ele>
      </trkpt>
      <trkpt lat="42.796606" lon="-0.164671">
        <time>2023-03-22T09:35:35+00:00</time>
        <ele>2663.0</ele>
      </trkpt>
      <trkpt lat="42.79669" lon="-0.164645">
        <time>2023-03-22T09:35:49+00:00</time>
        <ele>2665.0</ele>
      </trkpt>
      <trkpt lat="42.796706" lon="-0.164656">
        <time>2023-03-22T09:36:02+00:00</time>
        <ele>2664.0</ele>
      </trkpt>
      <trkpt lat="42.796657" lon="-0.164612">
        <time>2023-03-22T09:36:16+00:00</time>
        <ele>2666.0</ele>
      </trkpt>
      <trkpt lat="42.796605" lon="-0.164565">
        <time>2023-03-22T09:36:30+00:00</time>
        <ele>2667.0</ele>
      </trkpt>
      <trkpt lat="42.796568" lon="-0.164501">
        <time>2023-03-22T09:36:46+00:00</time>
        <ele>2670.0</ele>
      </trkpt>
      <trkpt lat="42.796519" lon="-0.164476">
        <time>2023-03-22T09:36:59+00:00</time>
        <ele>2671.0</ele>
      </trkpt>
      <trkpt lat="42.796522" lon="-0.164422">
        <time>2023-03-22T09:37:14+00:00</time>
        <ele>2673.0</ele>
      </trkpt>
      <trkpt lat="42.796573" lon="-0.164343">
        <time>2023-03-22T09:37:31+00:00</time>
        <ele>2676.0</ele>
      </trkpt>
      <trkpt lat="42.796512" lon="-0.164329">
        <time>2023-03-22T09:37:42+00:00</time>
        <ele>2677.0</ele>
      </trkpt>
      <trkpt lat="42.796472" lon="-0.164328">
        <time>2023-03-22T09:37:54+00:00</time>
        <ele>2678.0</ele>
      </trkpt>
      <trkpt lat="42.796417" lon="-0.164326">
        <time>2023-03-22T09:38:10+00:00</time>
        <ele>2680.0</ele>
      </trkpt>
      <trkpt lat="42.796394" lon="-0.164301">
        <time>2023-03-22T09:38:23+00:00</time>
        <ele>2682.0</ele>
      </trkpt>
      <trkpt lat="42.796394" lon="-0.16426">
        <time>2023-03-22T09:38:35+00:00</time>
        <ele>2683.0</ele>
      </trkpt>
      <trkpt lat="42.796437" lon="-0.164188">
        <time>2023-03-22T09:38:48+00:00</time>
        <ele>2684.0</ele>
      </trkpt>
      <trkpt lat="42.796426" lon="-0.164168">
        <time>2023-03-22T09:39:01+00:00</time>
        <ele>2685.0</ele>
      </trkpt>
      <trkpt lat="42.796367" lon="-0.164125">
        <time>2023-03-22T09:39:17+00:00</time>
        <ele>2689.0</ele>
      </trkpt>
      <trkpt lat="42.796332" lon="-0.164099">
        <time>2023-03-22T09:39:30+00:00</time>
        <ele>2691.0</ele>
      </trkpt>
      <trkpt lat="42.796372" lon="-0.164033">
        <time>2023-03-22T09:39:44+00:00</time>
        <ele>2691.0</ele>
      </trkpt>
      <trkpt lat="42.796415" lon="-0.163966">
        <time>2023-03-22T09:39:57+00:00</time>
        <ele>2692.0</ele>
      </trkpt>
      <trkpt lat="42.796438" lon="-0.163909">
        <time>2023-03-22T09:40:12+00:00</time>
        <ele>2692.0</ele>
      </trkpt>
      <trkpt lat="42.79644" lon="-0.163872">
        <time>2023-03-22T09:40:27+00:00</time>
        <ele>2693.0</ele>
      </trkpt>
      <trkpt lat="42.796433" lon="-0.163838">
        <time>2023-03-22T09:40:40+00:00</time>
        <ele>2694.0</ele>
      </trkpt>
      <trkpt lat="42.796448" lon="-0.16377">
        <time>2023-03-22T09:40:55+00:00</time>
        <ele>2696.0</ele>
      </trkpt>
      <trkpt lat="42.796429" lon="-0.16372">
        <time>2023-03-22T09:41:10+00:00</time>
        <ele>2699.0</ele>
      </trkpt>
      <trkpt lat="42.79647" lon="-0.163651">
        <time>2023-03-22T09:41:23+00:00</time>
        <ele>2701.0</ele>
      </trkpt>
      <trkpt lat="42.796473" lon="-0.163571">
        <time>2023-03-22T09:41:39+00:00</time>
        <ele>2704.0</ele>
      </trkpt>
      <trkpt lat="42.796489" lon="-0.163522">
        <time>2023-03-22T09:41:53+00:00</time>
        <ele>2706.0</ele>
      </trkpt>
      <trkpt lat="42.796537" lon="-0.163425">
        <time>2023-03-22T09:42:08+00:00</time>
        <ele>2710.0</ele>
      </trkpt>
      <trkpt lat="42.796595" lon="-0.163361">
        <time>2023-03-22T09:42:21+00:00</time>
        <ele>2714.0</ele>
      </trkpt>
      <trkpt lat="42.79665" lon="-0.163354">
        <time>2023-03-22T09:42:33+00:00</time>
        <ele>2715.0</ele>
      </trkpt>
      <trkpt lat="42.796648" lon="-0.16332">
        <time>2023-03-22T09:42:45+00:00</time>
        <ele>2717.0</ele>
      </trkpt>
      <trkpt lat="42.796611" lon="-0.163264">
        <time>2023-03-22T09:43:01+00:00</time>
        <ele>2719.0</ele>
      </trkpt>
      <trkpt lat="42.796689" lon="-0.163208">
        <time>2023-03-22T09:43:15+00:00</time>
        <ele>2723.0</ele>
      </trkpt>
      <trkpt lat="42.796748" lon="-0.163198">
        <time>2023-03-22T09:43:31+00:00</time>
        <ele>2724.0</ele>
      </trkpt>
      <trkpt lat="42.79683" lon="-0.163201">
        <time>2023-03-22T09:43:44+00:00</time>
        <ele>2726.0</ele>
      </trkpt>
      <trkpt lat="42.796882" lon="-0.163195">
        <time>2023-03-22T09:44:01+00:00</time>
        <ele>2728.0</ele>
      </trkpt>
      <trkpt lat="42.796851" lon="-0.163107">
        <time>2023-03-22T09:44:18+00:00</time>
        <ele>2731.0</ele>
      </trkpt>
      <trkpt lat="42.796824" lon="-0.163032">
        <time>2023-03-22T09:44:35+00:00</time>
        <ele>2734.0</ele>
      </trkpt>
      <trkpt lat="42.796888" lon="-0.16302">
        <time>2023-03-22T09:44:49+00:00</time>
        <ele>2736.0</ele>
      </trkpt>
      <trkpt lat="42.796961" lon="-0.163026">
        <time>2023-03-22T09:45:04+00:00</time>
        <ele>2738.0</ele>
      </trkpt>
      <trkpt lat="42.797018" lon="-0.163038">
        <time>2023-03-22T09:45:20+00:00</time>
        <ele>2740.0</ele>
      </trkpt>
      <trkpt lat="42.796979" lon="-0.162972">
        <time>2023-03-22T09:45:35+00:00</time>
        <ele>2742.0</ele>
      </trkpt>
      <trkpt lat="42.796991" lon="-0.16293">
        <time>2023-03-22T09:45:48+00:00</time>
        <ele>2745.0</ele>
      </trkpt>
      <trkpt lat="42.797083" lon="-0.162936">
        <time>2023-03-22T09:46:04+00:00</time>
        <ele>2748.0</ele>
      </trkpt>
      <trkpt lat="42.797105" lon="-0.162946">
        <time>2023-03-22T09:46:16+00:00</time>
        <ele>2748.0</ele>
      </trkpt>
      <trkpt lat="42.797107" lon="-0.162942">
        <time>2023-03-22T09:46:27+00:00</time>
        <ele>2748.0</ele>
      </trkpt>
      <trkpt lat="42.797106" lon="-0.162944">
        <time>2023-03-22T09:46:28+00:00</time>
        <ele>2748.0</ele>
      </trkpt>
      <trkpt lat="42.797105" lon="-0.162947">
        <time>2023-03-22T09:46:30+00:00</time>
        <ele>2748.0</ele>
      </trkpt>
      <trkpt lat="42.797097" lon="-0.162956">
        <time>2023-03-22T09:46:35+00:00</time>
        <ele>2747.0</ele>
      </trkpt>
      <trkpt lat="42.797093" lon="-0.162957">
        <time>2023-03-22T09:46:36+00:00</time>
        <ele>2747.0</ele>
      </trkpt>
      <trkpt lat="42.797058" lon="-0.162967">
        <time>2023-03-22T09:47:03+00:00</time>
        <ele>2745.0</ele>
      </trkpt>
      <trkpt lat="42.797096" lon="-0.162952">
        <time>2023-03-22T09:47:18+00:00</time>
        <ele>2747.0</ele>
      </trkpt>
      <trkpt lat="42.797096" lon="-0.162953">
        <time>2023-03-22T09:47:19+00:00</time>
        <ele>2747.0</ele>
      </trkpt>
      <trkpt lat="42.797095" lon="-0.162953">
        <time>2023-03-22T09:47:20+00:00</time>
        <ele>2747.0</ele>
      </trkpt>
      <trkpt lat="42.797094" lon="-0.162951">
        <time>2023-03-22T09:47:21+00:00</time>
        <ele>2747.0</ele>
      </trkpt>
      <trkpt lat="42.797096" lon="-0.162947">
        <time>2023-03-22T09:47:26+00:00</time>
        <ele>2748.0</ele>
      </trkpt>
      <trkpt lat="42.797098" lon="-0.162948">
        <time>2023-03-22T09:47:27+00:00</time>
        <ele>2748.0</ele>
      </trkpt>
      <trkpt lat="42.797099" lon="-0.162947">
        <time>2023-03-22T09:47:29+00:00</time>
        <ele>2748.0</ele>
      </trkpt>
      <trkpt lat="42.797086" lon="-0.162937">
        <time>2023-03-22T09:47:49+00:00</time>
        <ele>2748.0</ele>
      </trkpt>
      <trkpt lat="42.797095" lon="-0.162946">
        <time>2023-03-22T09:48:06+00:00</time>
        <ele>2748.0</ele>
      </trkpt>
      <trkpt lat="42.797093" lon="-0.162949">
        <time>2023-03-22T09:48:32+00:00</time>
        <ele>2747.0</ele>
      </trkpt>
      <trkpt lat="42.797109" lon="-0.162938">
        <time>2023-03-22T09:48:52+00:00</time>
        <ele>2749.0</ele>
      </trkpt>
      <trkpt lat="42.79711" lon="-0.162923">
        <time>2023-03-22T09:49:21+00:00</time>
        <ele>2750.0</ele>
      </trkpt>
      <trkpt lat="42.79711" lon="-0.162926">
        <time>2023-03-22T09:49:39+00:00</time>
        <ele>2749.0</ele>
      </trkpt>
      <trkpt lat="42.797145" lon="-0.162906">
        <time>2023-03-22T09:49:57+00:00</time>
        <ele>2752.0</ele>
      </trkpt>
      <trkpt lat="42.797197" lon="-0.162926">
        <time>2023-03-22T09:50:12+00:00</time>
        <ele>2753.0</ele>
      </trkpt>
      <trkpt lat="42.797257" lon="-0.162937">
        <time>2023-03-22T09:50:29+00:00</time>
        <ele>2754.0</ele>
      </trkpt>
      <trkpt lat="42.797333" lon="-0.162943">
        <time>2023-03-22T09:50:44+00:00</time>
        <ele>2757.0</ele>
      </trkpt>
      <trkpt lat="42.797375" lon="-0.162957">
        <time>2023-03-22T09:50:57+00:00</time>
        <ele>2758.0</ele>
      </trkpt>
      <trkpt lat="42.797423" lon="-0.162981">
        <time>2023-03-22T09:51:11+00:00</time>
        <ele>2759.0</ele>
      </trkpt>
      <trkpt lat="42.797489" lon="-0.162999">
        <time>2023-03-22T09:51:25+00:00</time>
        <ele>2761.0</ele>
      </trkpt>
      <trkpt lat="42.797533" lon="-0.163004">
        <time>2023-03-22T09:51:40+00:00</time>
        <ele>2763.0</ele>
      </trkpt>
      <trkpt lat="42.797528" lon="-0.162945">
        <time>2023-03-22T09:51:53+00:00</time>
        <ele>2766.0</ele>
      </trkpt>
      <trkpt lat="42.797516" lon="-0.162846">
        <time>2023-03-22T09:52:11+00:00</time>
        <ele>2770.0</ele>
      </trkpt>
      <trkpt lat="42.797499" lon="-0.162812">
        <time>2023-03-22T09:52:23+00:00</time>
        <ele>2771.0</ele>
      </trkpt>
      <trkpt lat="42.79748" lon="-0.162742">
        <time>2023-03-22T09:52:36+00:00</time>
        <ele>2774.0</ele>
      </trkpt>
      <trkpt lat="42.797477" lon="-0.162671">
        <time>2023-03-22T09:52:51+00:00</time>
        <ele>2778.0</ele>
      </trkpt>
      <trkpt lat="42.797461" lon="-0.162601">
        <time>2023-03-22T09:53:06+00:00</time>
        <ele>2781.0</ele>
      </trkpt>
      <trkpt lat="42.797463" lon="-0.16258">
        <time>2023-03-22T09:53:17+00:00</time>
        <ele>2782.0</ele>
      </trkpt>
      <trkpt lat="42.79751" lon="-0.162592">
        <time>2023-03-22T09:53:31+00:00</time>
        <ele>2783.0</ele>
      </trkpt>
      <trkpt lat="42.797558" lon="-0.162601">
        <time>2023-03-22T09:53:45+00:00</time>
        <ele>2785.0</ele>
      </trkpt>
      <trkpt lat="42.797617" lon="-0.16261">
        <time>2023-03-22T09:54:00+00:00</time>
        <ele>2787.0</ele>
      </trkpt>
      <trkpt lat="42.79764" lon="-0.162617">
        <time>2023-03-22T09:54:14+00:00</time>
        <ele>2788.0</ele>
      </trkpt>
      <trkpt lat="42.797639" lon="-0.16261">
        <time>2023-03-22T09:54:30+00:00</time>
        <ele>2788.0</ele>
      </trkpt>
      <trkpt lat="42.797633" lon="-0.162606">
        <time>2023-03-22T09:54:53+00:00</time>
        <ele>2788.0</ele>
      </trkpt>
      <trkpt lat="42.797619" lon="-0.162531">
        <time>2023-03-22T09:55:06+00:00</time>
        <ele>2791.0</ele>
      </trkpt>
      <trkpt lat="42.797592" lon="-0.162463">
        <time>2023-03-22T09:55:23+00:00</time>
        <ele>2794.0</ele>
      </trkpt>
      <trkpt lat="42.797615" lon="-0.162408">
        <time>2023-03-22T09:55:35+00:00</time>
        <ele>2798.0</ele>
      </trkpt>
      <trkpt lat="42.797648" lon="-0.162377">
        <time>2023-03-22T09:55:49+00:00</time>
        <ele>2801.0</ele>
      </trkpt>
      <trkpt lat="42.797658" lon="-0.162333">
        <time>2023-03-22T09:56:04+00:00</time>
        <ele>2804.0</ele>
      </trkpt>
      <trkpt lat="42.797666" lon="-0.162321">
        <time>2023-03-22T09:56:19+00:00</time>
        <ele>2804.0</ele>
      </trkpt>
      <trkpt lat="42.797677" lon="-0.162284">
        <time>2023-03-22T09:56:31+00:00</time>
        <ele>2807.0</ele>
      </trkpt>
      <trkpt lat="42.797695" lon="-0.162268">
        <time>2023-03-22T09:56:44+00:00</time>
        <ele>2808.0</ele>
      </trkpt>
      <trkpt lat="42.797706" lon="-0.16224">
        <time>2023-03-22T09:56:57+00:00</time>
        <ele>2810.0</ele>
      </trkpt>
      <trkpt lat="42.797707" lon="-0.162213">
        <time>2023-03-22T09:57:13+00:00</time>
        <ele>2812.0</ele>
      </trkpt>
      <trkpt lat="42.797704" lon="-0.16217">
        <time>2023-03-22T09:57:24+00:00</time>
        <ele>2814.0</ele>
      </trkpt>
      <trkpt lat="42.797691" lon="-0.162133">
        <time>2023-03-22T09:57:36+00:00</time>
        <ele>2816.0</ele>
      </trkpt>
      <trkpt lat="42.797669" lon="-0.162075">
        <time>2023-03-22T09:57:50+00:00</time>
        <ele>2819.0</ele>
      </trkpt>
      <trkpt lat="42.79765" lon="-0.16202">
        <time>2023-03-22T09:58:05+00:00</time>
        <ele>2822.0</ele>
      </trkpt>
      <trkpt lat="42.797639" lon="-0.161969">
        <time>2023-03-22T09:58:19+00:00</time>
        <ele>2824.0</ele>
      </trkpt>
      <trkpt lat="42.797627" lon="-0.161918">
        <time>2023-03-22T09:58:33+00:00</time>
        <ele>2827.0</ele>
      </trkpt>
      <trkpt lat="42.79761" lon="-0.161852">
        <time>2023-03-22T09:58:48+00:00</time>
        <ele>2830.0</ele>
      </trkpt>
      <trkpt lat="42.797599" lon="-0.161809">
        <time>2023-03-22T09:59:03+00:00</time>
        <ele>2832.0</ele>
      </trkpt>
      <trkpt lat="42.797585" lon="-0.161765">
        <time>2023-03-22T09:59:16+00:00</time>
        <ele>2834.0</ele>
      </trkpt>
      <trkpt lat="42.797572" lon="-0.161729">
        <time>2023-03-22T09:59:30+00:00</time>
        <ele>2835.0</ele>
      </trkpt>
      <trkpt lat="42.797564" lon="-0.161707">
        <time>2023-03-22T09:59:42+00:00</time>
        <ele>2836.0</ele>
      </trkpt>
      <trkpt lat="42.797544" lon="-0.161674">
        <time>2023-03-22T09:59:58+00:00</time>
        <ele>2837.0</ele>
      </trkpt>
      <trkpt lat="42.797536" lon="-0.161625">
        <time>2023-03-22T10:00:12+00:00</time>
        <ele>2838.0</ele>
      </trkpt>
      <trkpt lat="42.797534" lon="-0.161561">
        <time>2023-03-22T10:00:28+00:00</time>
        <ele>2840.0</ele>
      </trkpt>
      <trkpt lat="42.797523" lon="-0.161506">
        <time>2023-03-22T10:00:43+00:00</time>
        <ele>2841.0</ele>
      </trkpt>
      <trkpt lat="42.797531" lon="-0.161455">
        <time>2023-03-22T10:00:57+00:00</time>
        <ele>2843.0</ele>
      </trkpt>
      <trkpt lat="42.797519" lon="-0.161416">
        <time>2023-03-22T10:01:10+00:00</time>
        <ele>2843.0</ele>
      </trkpt>
      <trkpt lat="42.797503" lon="-0.161362">
        <time>2023-03-22T10:01:22+00:00</time>
        <ele>2842.0</ele>
      </trkpt>
      <trkpt lat="42.797496" lon="-0.161335">
        <time>2023-03-22T10:01:33+00:00</time>
        <ele>2841.0</ele>
      </trkpt>
      <trkpt lat="42.797489" lon="-0.161316">
        <time>2023-03-22T10:01:54+00:00</time>
        <ele>2840.0</ele>
      </trkpt>
      <trkpt lat="42.797494" lon="-0.161345">
        <time>2023-03-22T10:02:13+00:00</time>
        <ele>2841.0</ele>
      </trkpt>
      <trkpt lat="42.797493" lon="-0.161332">
        <time>2023-03-22T10:02:35+00:00</time>
        <ele>2841.0</ele>
      </trkpt>
      <trkpt lat="42.797494" lon="-0.16133">
        <time>2023-03-22T10:02:58+00:00</time>
        <ele>2841.0</ele>
      </trkpt>
      <trkpt lat="42.797501" lon="-0.161273">
        <time>2023-03-22T10:03:11+00:00</time>
        <ele>2840.0</ele>
      </trkpt>
      <trkpt lat="42.797516" lon="-0.161228">
        <time>2023-03-22T10:03:26+00:00</time>
        <ele>2841.0</ele>
      </trkpt>
      <trkpt lat="42.797545" lon="-0.161228">
        <time>2023-03-22T10:03:45+00:00</time>
        <ele>2843.0</ele>
      </trkpt>
      <trkpt lat="42.797598" lon="-0.161244">
        <time>2023-03-22T10:03:58+00:00</time>
        <ele>2847.0</ele>
      </trkpt>
      <trkpt lat="42.797608" lon="-0.161259">
        <time>2023-03-22T10:04:23+00:00</time>
        <ele>2848.0</ele>
      </trkpt>
      <trkpt lat="42.797598" lon="-0.161168">
        <time>2023-03-22T10:04:38+00:00</time>
        <ele>2846.0</ele>
      </trkpt>
      <trkpt lat="42.797623" lon="-0.161133">
        <time>2023-03-22T10:04:54+00:00</time>
        <ele>2847.0</ele>
      </trkpt>
      <trkpt lat="42.797659" lon="-0.161173">
        <time>2023-03-22T10:05:10+00:00</time>
        <ele>2851.0</ele>
      </trkpt>
      <trkpt lat="42.797662" lon="-0.161172">
        <time>2023-03-22T10:05:25+00:00</time>
        <ele>2851.0</ele>
      </trkpt>
      <trkpt lat="42.79766" lon="-0.161168">
        <time>2023-03-22T10:05:50+00:00</time>
        <ele>2851.0</ele>
      </trkpt>
      <trkpt lat="42.797661" lon="-0.161182">
        <time>2023-03-22T10:06:26+00:00</time>
        <ele>2851.0</ele>
      </trkpt>
      <trkpt lat="42.797664" lon="-0.161181">
        <time>2023-03-22T10:07:00+00:00</time>
        <ele>2851.0</ele>
      </trkpt>
      <trkpt lat="42.797661" lon="-0.161183">
        <time>2023-03-22T10:07:31+00:00</time>
        <ele>2851.0</ele>
      </trkpt>
      <trkpt lat="42.797662" lon="-0.161183">
        <time>2023-03-22T10:08:02+00:00</time>
        <ele>2851.0</ele>
      </trkpt>
      <trkpt lat="42.797653" lon="-0.161148">
        <time>2023-03-22T10:08:15+00:00</time>
        <ele>2850.0</ele>
      </trkpt>
      <trkpt lat="42.797662" lon="-0.161084">
        <time>2023-03-22T10:08:30+00:00</time>
        <ele>2850.0</ele>
      </trkpt>
      <trkpt lat="42.797697" lon="-0.161">
        <time>2023-03-22T10:08:47+00:00</time>
        <ele>2852.0</ele>
      </trkpt>
      <trkpt lat="42.797704" lon="-0.160989">
        <time>2023-03-22T10:09:02+00:00</time>
        <ele>2853.0</ele>
      </trkpt>
      <trkpt lat="42.797749" lon="-0.161054">
        <time>2023-03-22T10:09:18+00:00</time>
        <ele>2857.0</ele>
      </trkpt>
      <trkpt lat="42.797781" lon="-0.160978">
        <time>2023-03-22T10:09:31+00:00</time>
        <ele>2859.0</ele>
      </trkpt>
      <trkpt lat="42.797798" lon="-0.160939">
        <time>2023-03-22T10:09:42+00:00</time>
        <ele>2860.0</ele>
      </trkpt>
      <trkpt lat="42.797812" lon="-0.160925">
        <time>2023-03-22T10:09:54+00:00</time>
        <ele>2861.0</ele>
      </trkpt>
      <trkpt lat="42.797819" lon="-0.160897">
        <time>2023-03-22T10:10:12+00:00</time>
        <ele>2861.0</ele>
      </trkpt>
      <trkpt lat="42.797823" lon="-0.160897">
        <time>2023-03-22T10:10:25+00:00</time>
        <ele>2862.0</ele>
      </trkpt>
      <trkpt lat="42.797858" lon="-0.160886">
        <time>2023-03-22T10:10:39+00:00</time>
        <ele>2864.0</ele>
      </trkpt>
      <trkpt lat="42.797873" lon="-0.160889">
        <time>2023-03-22T10:10:50+00:00</time>
        <ele>2866.0</ele>
      </trkpt>
      <trkpt lat="42.797878" lon="-0.160867">
        <time>2023-03-22T10:11:04+00:00</time>
        <ele>2866.0</ele>
      </trkpt>
      <trkpt lat="42.797895" lon="-0.160854">
        <time>2023-03-22T10:11:19+00:00</time>
        <ele>2867.0</ele>
      </trkpt>
      <trkpt lat="42.797918" lon="-0.160841">
        <time>2023-03-22T10:11:37+00:00</time>
        <ele>2869.0</ele>
      </trkpt>
      <trkpt lat="42.797929" lon="-0.160836">
        <time>2023-03-22T10:11:52+00:00</time>
        <ele>2871.0</ele>
      </trkpt>
      <trkpt lat="42.797947" lon="-0.160823">
        <time>2023-03-22T10:12:10+00:00</time>
        <ele>2872.0</ele>
      </trkpt>
      <trkpt lat="42.797988" lon="-0.160813">
        <time>2023-03-22T10:12:24+00:00</time>
        <ele>2876.0</ele>
      </trkpt>
      <trkpt lat="42.798015" lon="-0.1608">
        <time>2023-03-22T10:12:36+00:00</time>
        <ele>2879.0</ele>
      </trkpt>
      <trkpt lat="42.798049" lon="-0.160792">
        <time>2023-03-22T10:12:48+00:00</time>
        <ele>2882.0</ele>
      </trkpt>
      <trkpt lat="42.79804" lon="-0.160759">
        <time>2023-03-22T10:13:02+00:00</time>
        <ele>2881.0</ele>
      </trkpt>
      <trkpt lat="42.798074" lon="-0.160751">
        <time>2023-03-22T10:13:21+00:00</time>
        <ele>2884.0</ele>
      </trkpt>
      <trkpt lat="42.798097" lon="-0.160712">
        <time>2023-03-22T10:13:36+00:00</time>
        <ele>2887.0</ele>
      </trkpt>
      <trkpt lat="42.79811" lon="-0.160685">
        <time>2023-03-22T10:13:48+00:00</time>
        <ele>2888.0</ele>
      </trkpt>
      <trkpt lat="42.798132" lon="-0.160655">
        <time>2023-03-22T10:14:00+00:00</time>
        <ele>2889.0</ele>
      </trkpt>
      <trkpt lat="42.798156" lon="-0.160632">
        <time>2023-03-22T10:14:12+00:00</time>
        <ele>2889.0</ele>
      </trkpt>
      <trkpt lat="42.798165" lon="-0.160611">
        <time>2023-03-22T10:14:23+00:00</time>
        <ele>2889.0</ele>
      </trkpt>
      <trkpt lat="42.798174" lon="-0.160574">
        <time>2023-03-22T10:14:35+00:00</time>
        <ele>2889.0</ele>
      </trkpt>
      <trkpt lat="42.798192" lon="-0.160529">
        <time>2023-03-22T10:14:48+00:00</time>
        <ele>2887.0</ele>
      </trkpt>
      <trkpt lat="42.798196" lon="-0.160525">
        <time>2023-03-22T10:15:04+00:00</time>
        <ele>2887.0</ele>
      </trkpt>
      <trkpt lat="42.798182" lon="-0.160478">
        <time>2023-03-22T10:15:18+00:00</time>
        <ele>2885.0</ele>
      </trkpt>
      <trkpt lat="42.798191" lon="-0.1605">
        <time>2023-03-22T10:15:30+00:00</time>
        <ele>2886.0</ele>
      </trkpt>
      <trkpt lat="42.798168" lon="-0.160498">
        <time>2023-03-22T10:15:40+00:00</time>
        <ele>2886.0</ele>
      </trkpt>
      <trkpt lat="42.798165" lon="-0.160491">
        <time>2023-03-22T10:15:59+00:00</time>
        <ele>2886.0</ele>
      </trkpt>
      <trkpt lat="42.798164" lon="-0.16049">
        <time>2023-03-22T10:16:03+00:00</time>
        <ele>2886.0</ele>
      </trkpt>
      <trkpt lat="42.798166" lon="-0.16049">
        <time>2023-03-22T10:16:04+00:00</time>
        <ele>2886.0</ele>
      </trkpt>
      <trkpt lat="42.798169" lon="-0.16049">
        <time>2023-03-22T10:16:08+00:00</time>
        <ele>2886.0</ele>
      </trkpt>
      <trkpt lat="42.798169" lon="-0.160493">
        <time>2023-03-22T10:16:09+00:00</time>
        <ele>2886.0</ele>
      </trkpt>
      <trkpt lat="42.798167" lon="-0.160494">
        <time>2023-03-22T10:16:10+00:00</time>
        <ele>2886.0</ele>
      </trkpt>
      <trkpt lat="42.798168" lon="-0.160496">
        <time>2023-03-22T10:16:12+00:00</time>
        <ele>2886.0</ele>
      </trkpt>
      <trkpt lat="42.798164" lon="-0.160497">
        <time>2023-03-22T10:16:13+00:00</time>
        <ele>2886.0</ele>
      </trkpt>
      <trkpt lat="42.798165" lon="-0.160491">
        <time>2023-03-22T10:16:15+00:00</time>
        <ele>2886.0</ele>
      </trkpt>
      <trkpt lat="42.798169" lon="-0.160497">
        <time>2023-03-22T10:16:47+00:00</time>
        <ele>2886.0</ele>
      </trkpt>
      <trkpt lat="42.79817" lon="-0.160501">
        <time>2023-03-22T10:16:48+00:00</time>
        <ele>2886.0</ele>
      </trkpt>
      <trkpt lat="42.798164" lon="-0.160519">
        <time>2023-03-22T10:17:21+00:00</time>
        <ele>2887.0</ele>
      </trkpt>
      <trkpt lat="42.79817" lon="-0.160534">
        <time>2023-03-22T10:17:57+00:00</time>
        <ele>2887.0</ele>
      </trkpt>
      <trkpt lat="42.79818" lon="-0.160534">
        <time>2023-03-22T10:18:28+00:00</time>
        <ele>2887.0</ele>
      </trkpt>
      <trkpt lat="42.798188" lon="-0.160526">
        <time>2023-03-22T10:18:58+00:00</time>
        <ele>2887.0</ele>
      </trkpt>
      <trkpt lat="42.798186" lon="-0.160524">
        <time>2023-03-22T10:19:39+00:00</time>
        <ele>2887.0</ele>
      </trkpt>
      <trkpt lat="42.798185" lon="-0.160513">
        <time>2023-03-22T10:20:06+00:00</time>
        <ele>2887.0</ele>
      </trkpt>
      <trkpt lat="42.798188" lon="-0.160515">
        <time>2023-03-22T10:20:35+00:00</time>
        <ele>2887.0</ele>
      </trkpt>
      <trkpt lat="42.798173" lon="-0.160494">
        <time>2023-03-22T10:21:05+00:00</time>
        <ele>2886.0</ele>
      </trkpt>
      <trkpt lat="42.798194" lon="-0.160508">
        <time>2023-03-22T10:21:31+00:00</time>
        <ele>2886.0</ele>
      </trkpt>
      <trkpt lat="42.798197" lon="-0.160518">
        <time>2023-03-22T10:21:49+00:00</time>
        <ele>2887.0</ele>
      </trkpt>
      <trkpt lat="42.798193" lon="-0.160513">
        <time>2023-03-22T10:21:51+00:00</time>
        <ele>2887.0</ele>
      </trkpt>
      <trkpt lat="42.79819" lon="-0.16051">
        <time>2023-03-22T10:21:52+00:00</time>
        <ele>2886.0</ele>
      </trkpt>
      <trkpt lat="42.79816" lon="-0.160489">
        <time>2023-03-22T10:22:23+00:00</time>
        <ele>2886.0</ele>
      </trkpt>
      <trkpt lat="42.798163" lon="-0.160493">
        <time>2023-03-22T10:22:56+00:00</time>
        <ele>2886.0</ele>
      </trkpt>
      <trkpt lat="42.798154" lon="-0.1605">
        <time>2023-03-22T10:23:27+00:00</time>
        <ele>2886.0</ele>
      </trkpt>
      <trkpt lat="42.798167" lon="-0.160504">
        <time>2023-03-22T10:23:55+00:00</time>
        <ele>2886.0</ele>
      </trkpt>
      <trkpt lat="42.798169" lon="-0.160504">
        <time>2023-03-22T10:23:56+00:00</time>
        <ele>2886.0</ele>
      </trkpt>
      <trkpt lat="42.798172" lon="-0.160501">
        <time>2023-03-22T10:24:32+00:00</time>
        <ele>2886.0</ele>
      </trkpt>
      <trkpt lat="42.798176" lon="-0.160514">
        <time>2023-03-22T10:25:11+00:00</time>
        <ele>2887.0</ele>
      </trkpt>
      <trkpt lat="42.798169" lon="-0.160506">
        <time>2023-03-22T10:25:45+00:00</time>
        <ele>2886.0</ele>
      </trkpt>
      <trkpt lat="42.798174" lon="-0.160512">
        <time>2023-03-22T10:25:49+00:00</time>
        <ele>2887.0</ele>
      </trkpt>
      <trkpt lat="42.798183" lon="-0.160517">
        <time>2023-03-22T10:25:59+00:00</time>
        <ele>2887.0</ele>
      </trkpt>
      <trkpt lat="42.798177" lon="-0.160502">
        <time>2023-03-22T10:26:35+00:00</time>
        <ele>2886.0</ele>
      </trkpt>
      <trkpt lat="42.798184" lon="-0.160498">
        <time>2023-03-22T10:27:07+00:00</time>
        <ele>2886.0</ele>
      </trkpt>
      <trkpt lat="42.798175" lon="-0.160494">
        <time>2023-03-22T10:27:51+00:00</time>
        <ele>2886.0</ele>
      </trkpt>
      <trkpt lat="42.798162" lon="-0.160482">
        <time>2023-03-22T10:28:25+00:00</time>
        <ele>2885.0</ele>
      </trkpt>
      <trkpt lat="42.798164" lon="-0.160492">
        <time>2023-03-22T10:29:01+00:00</time>
        <ele>2886.0</ele>
      </trkpt>
      <trkpt lat="42.798178" lon="-0.160496">
        <time>2023-03-22T10:29:33+00:00</time>
        <ele>2886.0</ele>
      </trkpt>
      <trkpt lat="42.79818" lon="-0.160502">
        <time>2023-03-22T10:29:42+00:00</time>
        <ele>2886.0</ele>
      </trkpt>
      <trkpt lat="42.79818" lon="-0.160505">
        <time>2023-03-22T10:29:43+00:00</time>
        <ele>2886.0</ele>
      </trkpt>
      <trkpt lat="42.798182" lon="-0.160504">
        <time>2023-03-22T10:29:44+00:00</time>
        <ele>2886.0</ele>
      </trkpt>
      <trkpt lat="42.798185" lon="-0.160508">
        <time>2023-03-22T10:29:59+00:00</time>
        <ele>2886.0</ele>
      </trkpt>
      <trkpt lat="42.798185" lon="-0.160508">
        <time>2023-03-22T10:30:00+00:00</time>
        <ele>2886.0</ele>
      </trkpt>
      <trkpt lat="42.798187" lon="-0.160506">
        <time>2023-03-22T10:30:02+00:00</time>
        <ele>2886.0</ele>
      </trkpt>
      <trkpt lat="42.798187" lon="-0.16051">
        <time>2023-03-22T10:30:06+00:00</time>
        <ele>2886.0</ele>
      </trkpt>
      <trkpt lat="42.798186" lon="-0.160514">
        <time>2023-03-22T10:30:08+00:00</time>
        <ele>2887.0</ele>
      </trkpt>
      <trkpt lat="42.798181" lon="-0.16051">
        <time>2023-03-22T10:30:15+00:00</time>
        <ele>2886.0</ele>
      </trkpt>
      <trkpt lat="42.798184" lon="-0.160508">
        <time>2023-03-22T10:30:18+00:00</time>
        <ele>2886.0</ele>
      </trkpt>
      <trkpt lat="42.798201" lon="-0.160508">
        <time>2023-03-22T10:30:50+00:00</time>
        <ele>2886.0</ele>
      </trkpt>
      <trkpt lat="42.798202" lon="-0.16049">
        <time>2023-03-22T10:31:18+00:00</time>
        <ele>2886.0</ele>
      </trkpt>
      <trkpt lat="42.798204" lon="-0.160504">
        <time>2023-03-22T10:31:48+00:00</time>
        <ele>2886.0</ele>
      </trkpt>
      <trkpt lat="42.798205" lon="-0.16051">
        <time>2023-03-22T10:32:26+00:00</time>
        <ele>2887.0</ele>
      </trkpt>
      <trkpt lat="42.798199" lon="-0.160508">
        <time>2023-03-22T10:32:58+00:00</time>
        <ele>2886.0</ele>
      </trkpt>
      <trkpt lat="42.798181" lon="-0.160515">
        <time>2023-03-22T10:33:30+00:00</time>
        <ele>2887.0</ele>
      </trkpt>
      <trkpt lat="42.798174" lon="-0.160514">
        <time>2023-03-22T10:34:03+00:00</time>
        <ele>2887.0</ele>
      </trkpt>
      <trkpt lat="42.79818" lon="-0.160519">
        <time>2023-03-22T10:34:51+00:00</time>
        <ele>2887.0</ele>
      </trkpt>
      <trkpt lat="42.798191" lon="-0.160514">
        <time>2023-03-22T10:35:27+00:00</time>
        <ele>2887.0</ele>
      </trkpt>
      <trkpt lat="42.79819" lon="-0.160517">
        <time>2023-03-22T10:36:08+00:00</time>
        <ele>2887.0</ele>
      </trkpt>
      <trkpt lat="42.798191" lon="-0.160517">
        <time>2023-03-22T10:36:11+00:00</time>
        <ele>2887.0</ele>
      </trkpt>
      <trkpt lat="42.798178" lon="-0.16052">
        <time>2023-03-22T10:37:00+00:00</time>
        <ele>2887.0</ele>
      </trkpt>
      <trkpt lat="42.798176" lon="-0.160522">
        <time>2023-03-22T10:37:38+00:00</time>
        <ele>2887.0</ele>
      </trkpt>
      <trkpt lat="42.798186" lon="-0.160502">
        <time>2023-03-22T10:37:52+00:00</time>
        <ele>2886.0</ele>
      </trkpt>
      <trkpt lat="42.798177" lon="-0.160491">
        <time>2023-03-22T10:38:17+00:00</time>
        <ele>2886.0</ele>
      </trkpt>
      <trkpt lat="42.798194" lon="-0.160502">
        <time>2023-03-22T10:38:28+00:00</time>
        <ele>2886.0</ele>
      </trkpt>
      <trkpt lat="42.79821" lon="-0.160513">
        <time>2023-03-22T10:38:40+00:00</time>
        <ele>2887.0</ele>
      </trkpt>
      <trkpt lat="42.798212" lon="-0.160517">
        <time>2023-03-22T10:38:52+00:00</time>
        <ele>2887.0</ele>
      </trkpt>
      <trkpt lat="42.798211" lon="-0.160515">
        <time>2023-03-22T10:38:57+00:00</time>
        <ele>2887.0</ele>
      </trkpt>
      <trkpt lat="42.798216" lon="-0.160512">
        <time>2023-03-22T10:39:04+00:00</time>
        <ele>2887.0</ele>
      </trkpt>
      <trkpt lat="42.798209" lon="-0.160511">
        <time>2023-03-22T10:39:18+00:00</time>
        <ele>2887.0</ele>
      </trkpt>
      <trkpt lat="42.79821" lon="-0.160512">
        <time>2023-03-22T10:39:20+00:00</time>
        <ele>2887.0</ele>
      </trkpt>
      <trkpt lat="42.798209" lon="-0.160523">
        <time>2023-03-22T10:39:37+00:00</time>
        <ele>2887.0</ele>
      </trkpt>
      <trkpt lat="42.798225" lon="-0.160507">
        <time>2023-03-22T10:39:48+00:00</time>
        <ele>2886.0</ele>
      </trkpt>
      <trkpt lat="42.798233" lon="-0.160481">
        <time>2023-03-22T10:39:57+00:00</time>
        <ele>2885.0</ele>
      </trkpt>
      <trkpt lat="42.798237" lon="-0.160464">
        <time>2023-03-22T10:40:08+00:00</time>
        <ele>2884.0</ele>
      </trkpt>
      <trkpt lat="42.798261" lon="-0.160451">
        <time>2023-03-22T10:40:12+00:00</time>
        <ele>2884.0</ele>
      </trkpt>
      <trkpt lat="42.798272" lon="-0.160445">
        <time>2023-03-22T10:40:19+00:00</time>
        <ele>2883.0</ele>
      </trkpt>
      <trkpt lat="42.798278" lon="-0.160422">
        <time>2023-03-22T10:40:23+00:00</time>
        <ele>2882.0</ele>
      </trkpt>
      <trkpt lat="42.798314" lon="-0.160379">
        <time>2023-03-22T10:40:26+00:00</time>
        <ele>2879.0</ele>
      </trkpt>
      <trkpt lat="42.798344" lon="-0.160394">
        <time>2023-03-22T10:40:28+00:00</time>
        <ele>2879.0</ele>
      </trkpt>
      <trkpt lat="42.798351" lon="-0.160395">
        <time>2023-03-22T10:40:31+00:00</time>
        <ele>2879.0</ele>
      </trkpt>
      <trkpt lat="42.798389" lon="-0.160373">
        <time>2023-03-22T10:40:43+00:00</time>
        <ele>2877.0</ele>
      </trkpt>
      <trkpt lat="42.79839" lon="-0.160365">
        <time>2023-03-22T10:40:45+00:00</time>
        <ele>2877.0</ele>
      </trkpt>
      <trkpt lat="42.798311" lon="-0.160305">
        <time>2023-03-22T10:40:49+00:00</time>
        <ele>2875.0</ele>
      </trkpt>
      <trkpt lat="42.798301" lon="-0.160308">
        <time>2023-03-22T10:40:54+00:00</time>
        <ele>2875.0</ele>
      </trkpt>
      <trkpt lat="42.798405" lon="-0.160272">
        <time>2023-03-22T10:40:58+00:00</time>
        <ele>2871.0</ele>
      </trkpt>
      <trkpt lat="42.798458" lon="-0.160275">
        <time>2023-03-22T10:41:06+00:00</time>
        <ele>2870.0</ele>
      </trkpt>
      <trkpt lat="42.798456" lon="-0.160266">
        <time>2023-03-22T10:41:19+00:00</time>
        <ele>2869.0</ele>
      </trkpt>
      <trkpt lat="42.798459" lon="-0.160228">
        <time>2023-03-22T10:41:30+00:00</time>
        <ele>2867.0</ele>
      </trkpt>
      <trkpt lat="42.798445" lon="-0.160246">
        <time>2023-03-22T10:41:54+00:00</time>
        <ele>2868.0</ele>
      </trkpt>
      <trkpt lat="42.798449" lon="-0.160252">
        <time>2023-03-22T10:42:16+00:00</time>
        <ele>2869.0</ele>
      </trkpt>
      <trkpt lat="42.79843" lon="-0.160244">
        <time>2023-03-22T10:42:30+00:00</time>
        <ele>2869.0</ele>
      </trkpt>
      <trkpt lat="42.798473" lon="-0.16019">
        <time>2023-03-22T10:42:33+00:00</time>
        <ele>2864.0</ele>
      </trkpt>
      <trkpt lat="42.798477" lon="-0.160132">
        <time>2023-03-22T10:42:36+00:00</time>
        <ele>2861.0</ele>
      </trkpt>
      <trkpt lat="42.798454" lon="-0.160126">
        <time>2023-03-22T10:42:38+00:00</time>
        <ele>2861.0</ele>
      </trkpt>
      <trkpt lat="42.798465" lon="-0.16007">
        <time>2023-03-22T10:42:42+00:00</time>
        <ele>2857.0</ele>
      </trkpt>
      <trkpt lat="42.798443" lon="-0.160008">
        <time>2023-03-22T10:42:46+00:00</time>
        <ele>2854.0</ele>
      </trkpt>
      <trkpt lat="42.798468" lon="-0.15996">
        <time>2023-03-22T10:42:48+00:00</time>
        <ele>2850.0</ele>
      </trkpt>
      <trkpt lat="42.798482" lon="-0.159955">
        <time>2023-03-22T10:42:49+00:00</time>
        <ele>2850.0</ele>
      </trkpt>
      <trkpt lat="42.798493" lon="-0.15995">
        <time>2023-03-22T10:42:50+00:00</time>
        <ele>2849.0</ele>
      </trkpt>
      <trkpt lat="42.798464" lon="-0.159925">
        <time>2023-03-22T10:42:54+00:00</time>
        <ele>2849.0</ele>
      </trkpt>
      <trkpt lat="42.798503" lon="-0.159865">
        <time>2023-03-22T10:42:58+00:00</time>
        <ele>2844.0</ele>
      </trkpt>
      <trkpt lat="42.798516" lon="-0.159866">
        <time>2023-03-22T10:43:00+00:00</time>
        <ele>2843.0</ele>
      </trkpt>
      <trkpt lat="42.798481" lon="-0.15983">
        <time>2023-03-22T10:43:04+00:00</time>
        <ele>2842.0</ele>
      </trkpt>
      <trkpt lat="42.798477" lon="-0.159833">
        <time>2023-03-22T10:43:05+00:00</time>
        <ele>2843.0</ele>
      </trkpt>
      <trkpt lat="42.798477" lon="-0.159828">
        <time>2023-03-22T10:43:06+00:00</time>
        <ele>2842.0</ele>
      </trkpt>
      <trkpt lat="42.798517" lon="-0.159777">
        <time>2023-03-22T10:43:10+00:00</time>
        <ele>2838.0</ele>
      </trkpt>
      <trkpt lat="42.798518" lon="-0.159779">
        <time>2023-03-22T10:43:11+00:00</time>
        <ele>2838.0</ele>
      </trkpt>
      <trkpt lat="42.798516" lon="-0.159782">
        <time>2023-03-22T10:43:13+00:00</time>
        <ele>2838.0</ele>
      </trkpt>
      <trkpt lat="42.798488" lon="-0.159706">
        <time>2023-03-22T10:43:18+00:00</time>
        <ele>2834.0</ele>
      </trkpt>
      <trkpt lat="42.79849" lon="-0.159618">
        <time>2023-03-22T10:43:21+00:00</time>
        <ele>2827.0</ele>
      </trkpt>
      <trkpt lat="42.798483" lon="-0.159627">
        <time>2023-03-22T10:43:27+00:00</time>
        <ele>2828.0</ele>
      </trkpt>
      <trkpt lat="42.798488" lon="-0.159637">
        <time>2023-03-22T10:43:47+00:00</time>
        <ele>2828.0</ele>
      </trkpt>
      <trkpt lat="42.798489" lon="-0.159631">
        <time>2023-03-22T10:44:06+00:00</time>
        <ele>2828.0</ele>
      </trkpt>
      <trkpt lat="42.798482" lon="-0.159639">
        <time>2023-03-22T10:44:26+00:00</time>
        <ele>2829.0</ele>
      </trkpt>
      <trkpt lat="42.798485" lon="-0.159639">
        <time>2023-03-22T10:44:45+00:00</time>
        <ele>2829.0</ele>
      </trkpt>
      <trkpt lat="42.798506" lon="-0.159557">
        <time>2023-03-22T10:44:48+00:00</time>
        <ele>2822.0</ele>
      </trkpt>
      <trkpt lat="42.798461" lon="-0.159504">
        <time>2023-03-22T10:44:51+00:00</time>
        <ele>2819.0</ele>
      </trkpt>
      <trkpt lat="42.798459" lon="-0.159508">
        <time>2023-03-22T10:44:52+00:00</time>
        <ele>2819.0</ele>
      </trkpt>
      <trkpt lat="42.798459" lon="-0.15949">
        <time>2023-03-22T10:45:10+00:00</time>
        <ele>2818.0</ele>
      </trkpt>
      <trkpt lat="42.798448" lon="-0.159485">
        <time>2023-03-22T10:45:36+00:00</time>
        <ele>2818.0</ele>
      </trkpt>
      <trkpt lat="42.798443" lon="-0.159486">
        <time>2023-03-22T10:45:56+00:00</time>
        <ele>2818.0</ele>
      </trkpt>
      <trkpt lat="42.798202" lon="-0.159362">
        <time>2023-03-22T10:46:02+00:00</time>
        <ele>2814.0</ele>
      </trkpt>
      <trkpt lat="42.798057" lon="-0.159266">
        <time>2023-03-22T10:46:05+00:00</time>
        <ele>2811.0</ele>
      </trkpt>
      <trkpt lat="42.797805" lon="-0.159272">
        <time>2023-03-22T10:46:15+00:00</time>
        <ele>2811.0</ele>
      </trkpt>
      <trkpt lat="42.797663" lon="-0.159301">
        <time>2023-03-22T10:46:24+00:00</time>
        <ele>2811.0</ele>
      </trkpt>
      <trkpt lat="42.797665" lon="-0.159324">
        <time>2023-03-22T10:46:39+00:00</time>
        <ele>2812.0</ele>
      </trkpt>
      <trkpt lat="42.797661" lon="-0.159295">
        <time>2023-03-22T10:47:05+00:00</time>
        <ele>2810.0</ele>
      </trkpt>
      <trkpt lat="42.797653" lon="-0.159292">
        <time>2023-03-22T10:47:09+00:00</time>
        <ele>2810.0</ele>
      </trkpt>
      <trkpt lat="42.797613" lon="-0.159277">
        <time>2023-03-22T10:47:11+00:00</time>
        <ele>2809.0</ele>
      </trkpt>
      <trkpt lat="42.797559" lon="-0.159109">
        <time>2023-03-22T10:47:14+00:00</time>
        <ele>2798.0</ele>
      </trkpt>
      <trkpt lat="42.797513" lon="-0.159052">
        <time>2023-03-22T10:47:15+00:00</time>
        <ele>2794.0</ele>
      </trkpt>
      <trkpt lat="42.797424" lon="-0.158967">
        <time>2023-03-22T10:47:17+00:00</time>
        <ele>2791.0</ele>
      </trkpt>
      <trkpt lat="42.797408" lon="-0.158824">
        <time>2023-03-22T10:47:19+00:00</time>
        <ele>2783.0</ele>
      </trkpt>
      <trkpt lat="42.797353" lon="-0.158771">
        <time>2023-03-22T10:47:20+00:00</time>
        <ele>2781.0</ele>
      </trkpt>
      <trkpt lat="42.79723" lon="-0.158679">
        <time>2023-03-22T10:47:22+00:00</time>
        <ele>2782.0</ele>
      </trkpt>
      <trkpt lat="42.797153" lon="-0.158577">
        <time>2023-03-22T10:47:24+00:00</time>
        <ele>2783.0</ele>
      </trkpt>
      <trkpt lat="42.797206" lon="-0.158494">
        <time>2023-03-22T10:47:26+00:00</time>
        <ele>2777.0</ele>
      </trkpt>
      <trkpt lat="42.797268" lon="-0.158412">
        <time>2023-03-22T10:47:28+00:00</time>
        <ele>2771.0</ele>
      </trkpt>
      <trkpt lat="42.797246" lon="-0.158336">
        <time>2023-03-22T10:47:29+00:00</time>
        <ele>2770.0</ele>
      </trkpt>
      <trkpt lat="42.797163" lon="-0.158148">
        <time>2023-03-22T10:47:31+00:00</time>
        <ele>2770.0</ele>
      </trkpt>
      <trkpt lat="42.797046" lon="-0.157717">
        <time>2023-03-22T10:47:36+00:00</time>
        <ele>2761.0</ele>
      </trkpt>
      <trkpt lat="42.79683" lon="-0.15742">
        <time>2023-03-22T10:47:42+00:00</time>
        <ele>2756.0</ele>
      </trkpt>
      <trkpt lat="42.796713" lon="-0.157343">
        <time>2023-03-22T10:47:51+00:00</time>
        <ele>2754.0</ele>
      </trkpt>
      <trkpt lat="42.796721" lon="-0.157356">
        <time>2023-03-22T10:48:00+00:00</time>
        <ele>2755.0</ele>
      </trkpt>
      <trkpt lat="42.796727" lon="-0.157345">
        <time>2023-03-22T10:48:05+00:00</time>
        <ele>2754.0</ele>
      </trkpt>
      <trkpt lat="42.796725" lon="-0.157345">
        <time>2023-03-22T10:48:07+00:00</time>
        <ele>2754.0</ele>
      </trkpt>
      <trkpt lat="42.79672" lon="-0.157335">
        <time>2023-03-22T10:48:45+00:00</time>
        <ele>2754.0</ele>
      </trkpt>
      <trkpt lat="42.79672" lon="-0.157334">
        <time>2023-03-22T10:48:50+00:00</time>
        <ele>2754.0</ele>
      </trkpt>
      <trkpt lat="42.79672" lon="-0.157332">
        <time>2023-03-22T10:48:52+00:00</time>
        <ele>2754.0</ele>
      </trkpt>
      <trkpt lat="42.796724" lon="-0.157327">
        <time>2023-03-22T10:49:00+00:00</time>
        <ele>2754.0</ele>
      </trkpt>
      <trkpt lat="42.796733" lon="-0.157312">
        <time>2023-03-22T10:49:20+00:00</time>
        <ele>2753.0</ele>
      </trkpt>
      <trkpt lat="42.796735" lon="-0.157311">
        <time>2023-03-22T10:49:22+00:00</time>
        <ele>2753.0</ele>
      </trkpt>
      <trkpt lat="42.796735" lon="-0.157329">
        <time>2023-03-22T10:49:35+00:00</time>
        <ele>2754.0</ele>
      </trkpt>
      <trkpt lat="42.796736" lon="-0.157334">
        <time>2023-03-22T10:49:40+00:00</time>
        <ele>2754.0</ele>
      </trkpt>
      <trkpt lat="42.796727" lon="-0.157344">
        <time>2023-03-22T10:49:53+00:00</time>
        <ele>2754.0</ele>
      </trkpt>
      <trkpt lat="42.796719" lon="-0.157341">
        <time>2023-03-22T10:50:15+00:00</time>
        <ele>2754.0</ele>
      </trkpt>
      <trkpt lat="42.796723" lon="-0.157348">
        <time>2023-03-22T10:50:40+00:00</time>
        <ele>2754.0</ele>
      </trkpt>
      <trkpt lat="42.796715" lon="-0.157348">
        <time>2023-03-22T10:50:47+00:00</time>
        <ele>2754.0</ele>
      </trkpt>
      <trkpt lat="42.796556" lon="-0.157271">
        <time>2023-03-22T10:50:51+00:00</time>
        <ele>2752.0</ele>
      </trkpt>
      <trkpt lat="42.796487" lon="-0.157105">
        <time>2023-03-22T10:50:54+00:00</time>
        <ele>2747.0</ele>
      </trkpt>
      <trkpt lat="42.796496" lon="-0.156946">
        <time>2023-03-22T10:50:56+00:00</time>
        <ele>2744.0</ele>
      </trkpt>
      <trkpt lat="42.796482" lon="-0.156849">
        <time>2023-03-22T10:50:57+00:00</time>
        <ele>2742.0</ele>
      </trkpt>
      <trkpt lat="42.796395" lon="-0.156529">
        <time>2023-03-22T10:51:02+00:00</time>
        <ele>2733.0</ele>
      </trkpt>
      <trkpt lat="42.796148" lon="-0.15621">
        <time>2023-03-22T10:51:10+00:00</time>
        <ele>2732.0</ele>
      </trkpt>
      <trkpt lat="42.796175" lon="-0.156049">
        <time>2023-03-22T10:51:12+00:00</time>
        <ele>2728.0</ele>
      </trkpt>
      <trkpt lat="42.795994" lon="-0.155824">
        <time>2023-03-22T10:51:18+00:00</time>
        <ele>2722.0</ele>
      </trkpt>
      <trkpt lat="42.795812" lon="-0.155843">
        <time>2023-03-22T10:51:27+00:00</time>
        <ele>2717.0</ele>
      </trkpt>
      <trkpt lat="42.795802" lon="-0.155855">
        <time>2023-03-22T10:51:41+00:00</time>
        <ele>2717.0</ele>
      </trkpt>
      <trkpt lat="42.795792" lon="-0.155865">
        <time>2023-03-22T10:51:42+00:00</time>
        <ele>2717.0</ele>
      </trkpt>
      <trkpt lat="42.795693" lon="-0.155769">
        <time>2023-03-22T10:51:46+00:00</time>
        <ele>2711.0</ele>
      </trkpt>
      <trkpt lat="42.795684" lon="-0.155546">
        <time>2023-03-22T10:51:49+00:00</time>
        <ele>2704.0</ele>
      </trkpt>
      <trkpt lat="42.795654" lon="-0.155401">
        <time>2023-03-22T10:51:51+00:00</time>
        <ele>2699.0</ele>
      </trkpt>
      <trkpt lat="42.795643" lon="-0.155311">
        <time>2023-03-22T10:51:52+00:00</time>
        <ele>2696.0</ele>
      </trkpt>
      <trkpt lat="42.795619" lon="-0.15525">
        <time>2023-03-22T10:51:53+00:00</time>
        <ele>2693.0</ele>
      </trkpt>
      <trkpt lat="42.795492" lon="-0.155086">
        <time>2023-03-22T10:51:56+00:00</time>
        <ele>2686.0</ele>
      </trkpt>
      <trkpt lat="42.795397" lon="-0.154933">
        <time>2023-03-22T10:51:58+00:00</time>
        <ele>2681.0</ele>
      </trkpt>
      <trkpt lat="42.795288" lon="-0.154818">
        <time>2023-03-22T10:52:00+00:00</time>
        <ele>2678.0</ele>
      </trkpt>
      <trkpt lat="42.795215" lon="-0.154659">
        <time>2023-03-22T10:52:02+00:00</time>
        <ele>2676.0</ele>
      </trkpt>
      <trkpt lat="42.795195" lon="-0.154568">
        <time>2023-03-22T10:52:03+00:00</time>
        <ele>2674.0</ele>
      </trkpt>
      <trkpt lat="42.795179" lon="-0.154357">
        <time>2023-03-22T10:52:05+00:00</time>
        <ele>2670.0</ele>
      </trkpt>
      <trkpt lat="42.795107" lon="-0.154224">
        <time>2023-03-22T10:52:07+00:00</time>
        <ele>2668.0</ele>
      </trkpt>
      <trkpt lat="42.795083" lon="-0.154168">
        <time>2023-03-22T10:52:08+00:00</time>
        <ele>2668.0</ele>
      </trkpt>
      <trkpt lat="42.794994" lon="-0.153904">
        <time>2023-03-22T10:52:13+00:00</time>
        <ele>2663.0</ele>
      </trkpt>
      <trkpt lat="42.795015" lon="-0.153797">
        <time>2023-03-22T10:52:15+00:00</time>
        <ele>2659.0</ele>
      </trkpt>
      <trkpt lat="42.794928" lon="-0.153682">
        <time>2023-03-22T10:52:17+00:00</time>
        <ele>2657.0</ele>
      </trkpt>
      <trkpt lat="42.79483" lon="-0.153555">
        <time>2023-03-22T10:52:19+00:00</time>
        <ele>2654.0</ele>
      </trkpt>
      <trkpt lat="42.794745" lon="-0.153479">
        <time>2023-03-22T10:52:21+00:00</time>
        <ele>2653.0</ele>
      </trkpt>
      <trkpt lat="42.794689" lon="-0.153448">
        <time>2023-03-22T10:52:23+00:00</time>
        <ele>2653.0</ele>
      </trkpt>
      <trkpt lat="42.794548" lon="-0.153363">
        <time>2023-03-22T10:52:26+00:00</time>
        <ele>2651.0</ele>
      </trkpt>
      <trkpt lat="42.794507" lon="-0.153322">
        <time>2023-03-22T10:52:27+00:00</time>
        <ele>2650.0</ele>
      </trkpt>
      <trkpt lat="42.794388" lon="-0.153192">
        <time>2023-03-22T10:52:30+00:00</time>
        <ele>2648.0</ele>
      </trkpt>
      <trkpt lat="42.794308" lon="-0.152919">
        <time>2023-03-22T10:52:34+00:00</time>
        <ele>2640.0</ele>
      </trkpt>
      <trkpt lat="42.794323" lon="-0.152788">
        <time>2023-03-22T10:52:36+00:00</time>
        <ele>2636.0</ele>
      </trkpt>
      <trkpt lat="42.794282" lon="-0.152731">
        <time>2023-03-22T10:52:37+00:00</time>
        <ele>2635.0</ele>
      </trkpt>
      <trkpt lat="42.794162" lon="-0.152565">
        <time>2023-03-22T10:52:40+00:00</time>
        <ele>2631.0</ele>
      </trkpt>
      <trkpt lat="42.794161" lon="-0.152365">
        <time>2023-03-22T10:52:43+00:00</time>
        <ele>2623.0</ele>
      </trkpt>
      <trkpt lat="42.794141" lon="-0.152226">
        <time>2023-03-22T10:52:45+00:00</time>
        <ele>2618.0</ele>
      </trkpt>
      <trkpt lat="42.794141" lon="-0.152044">
        <time>2023-03-22T10:52:47+00:00</time>
        <ele>2611.0</ele>
      </trkpt>
      <trkpt lat="42.794067" lon="-0.151899">
        <time>2023-03-22T10:52:49+00:00</time>
        <ele>2607.0</ele>
      </trkpt>
      <trkpt lat="42.794046" lon="-0.151718">
        <time>2023-03-22T10:52:51+00:00</time>
        <ele>2600.0</ele>
      </trkpt>
      <trkpt lat="42.793965" lon="-0.151612">
        <time>2023-03-22T10:52:53+00:00</time>
        <ele>2598.0</ele>
      </trkpt>
      <trkpt lat="42.793929" lon="-0.151597">
        <time>2023-03-22T10:52:54+00:00</time>
        <ele>2598.0</ele>
      </trkpt>
      <trkpt lat="42.793876" lon="-0.151582">
        <time>2023-03-22T10:53:03+00:00</time>
        <ele>2598.0</ele>
      </trkpt>
      <trkpt lat="42.793887" lon="-0.151578">
        <time>2023-03-22T10:53:23+00:00</time>
        <ele>2598.0</ele>
      </trkpt>
      <trkpt lat="42.793887" lon="-0.151571">
        <time>2023-03-22T10:53:38+00:00</time>
        <ele>2597.0</ele>
      </trkpt>
      <trkpt lat="42.793889" lon="-0.151577">
        <time>2023-03-22T10:53:59+00:00</time>
        <ele>2598.0</ele>
      </trkpt>
      <trkpt lat="42.793889" lon="-0.151575">
        <time>2023-03-22T10:54:25+00:00</time>
        <ele>2597.0</ele>
      </trkpt>
      <trkpt lat="42.793889" lon="-0.151578">
        <time>2023-03-22T10:54:49+00:00</time>
        <ele>2598.0</ele>
      </trkpt>
      <trkpt lat="42.793893" lon="-0.151585">
        <time>2023-03-22T10:55:16+00:00</time>
        <ele>2598.0</ele>
      </trkpt>
      <trkpt lat="42.793886" lon="-0.151574">
        <time>2023-03-22T10:55:38+00:00</time>
        <ele>2597.0</ele>
      </trkpt>
      <trkpt lat="42.793876" lon="-0.151379">
        <time>2023-03-22T10:55:43+00:00</time>
        <ele>2591.0</ele>
      </trkpt>
      <trkpt lat="42.793855" lon="-0.15124">
        <time>2023-03-22T10:55:45+00:00</time>
        <ele>2584.0</ele>
      </trkpt>
      <trkpt lat="42.793853" lon="-0.151178">
        <time>2023-03-22T10:55:46+00:00</time>
        <ele>2582.0</ele>
      </trkpt>
      <trkpt lat="42.793788" lon="-0.151083">
        <time>2023-03-22T10:55:48+00:00</time>
        <ele>2577.0</ele>
      </trkpt>
      <trkpt lat="42.793753" lon="-0.150953">
        <time>2023-03-22T10:55:50+00:00</time>
        <ele>2572.0</ele>
      </trkpt>
      <trkpt lat="42.793733" lon="-0.150887">
        <time>2023-03-22T10:55:51+00:00</time>
        <ele>2569.0</ele>
      </trkpt>
      <trkpt lat="42.793733" lon="-0.150814">
        <time>2023-03-22T10:55:52+00:00</time>
        <ele>2566.0</ele>
      </trkpt>
      <trkpt lat="42.793709" lon="-0.150725">
        <time>2023-03-22T10:55:53+00:00</time>
        <ele>2563.0</ele>
      </trkpt>
      <trkpt lat="42.793688" lon="-0.150634">
        <time>2023-03-22T10:55:54+00:00</time>
        <ele>2560.0</ele>
      </trkpt>
      <trkpt lat="42.793683" lon="-0.150538">
        <time>2023-03-22T10:55:55+00:00</time>
        <ele>2556.0</ele>
      </trkpt>
      <trkpt lat="42.793687" lon="-0.150429">
        <time>2023-03-22T10:55:56+00:00</time>
        <ele>2552.0</ele>
      </trkpt>
      <trkpt lat="42.793729" lon="-0.150336">
        <time>2023-03-22T10:55:57+00:00</time>
        <ele>2548.0</ele>
      </trkpt>
      <trkpt lat="42.793764" lon="-0.150254">
        <time>2023-03-22T10:55:58+00:00</time>
        <ele>2544.0</ele>
      </trkpt>
      <trkpt lat="42.793834" lon="-0.14989">
        <time>2023-03-22T10:56:02+00:00</time>
        <ele>2529.0</ele>
      </trkpt>
      <trkpt lat="42.793856" lon="-0.149699">
        <time>2023-03-22T10:56:04+00:00</time>
        <ele>2520.0</ele>
      </trkpt>
      <trkpt lat="42.793857" lon="-0.149595">
        <time>2023-03-22T10:56:05+00:00</time>
        <ele>2516.0</ele>
      </trkpt>
      <trkpt lat="42.793889" lon="-0.149494">
        <time>2023-03-22T10:56:06+00:00</time>
        <ele>2510.0</ele>
      </trkpt>
      <trkpt lat="42.793899" lon="-0.149278">
        <time>2023-03-22T10:56:08+00:00</time>
        <ele>2502.0</ele>
      </trkpt>
      <trkpt lat="42.793896" lon="-0.149028">
        <time>2023-03-22T10:56:10+00:00</time>
        <ele>2493.0</ele>
      </trkpt>
      <trkpt lat="42.793872" lon="-0.148912">
        <time>2023-03-22T10:56:11+00:00</time>
        <ele>2491.0</ele>
      </trkpt>
      <trkpt lat="42.793808" lon="-0.148833">
        <time>2023-03-22T10:56:12+00:00</time>
        <ele>2491.0</ele>
      </trkpt>
      <trkpt lat="42.793686" lon="-0.14864">
        <time>2023-03-22T10:56:16+00:00</time>
        <ele>2489.0</ele>
      </trkpt>
      <trkpt lat="42.793681" lon="-0.148639">
        <time>2023-03-22T10:56:17+00:00</time>
        <ele>2489.0</ele>
      </trkpt>
      <trkpt lat="42.793683" lon="-0.148655">
        <time>2023-03-22T10:56:33+00:00</time>
        <ele>2489.0</ele>
      </trkpt>
      <trkpt lat="42.793676" lon="-0.14865">
        <time>2023-03-22T10:56:37+00:00</time>
        <ele>2489.0</ele>
      </trkpt>
      <trkpt lat="42.793591" lon="-0.148538">
        <time>2023-03-22T10:56:41+00:00</time>
        <ele>2488.0</ele>
      </trkpt>
      <trkpt lat="42.793553" lon="-0.14831">
        <time>2023-03-22T10:56:44+00:00</time>
        <ele>2485.0</ele>
      </trkpt>
      <trkpt lat="42.793522" lon="-0.148217">
        <time>2023-03-22T10:56:45+00:00</time>
        <ele>2485.0</ele>
      </trkpt>
      <trkpt lat="42.793375" lon="-0.148079">
        <time>2023-03-22T10:56:47+00:00</time>
        <ele>2485.0</ele>
      </trkpt>
      <trkpt lat="42.793294" lon="-0.148031">
        <time>2023-03-22T10:56:48+00:00</time>
        <ele>2485.0</ele>
      </trkpt>
      <trkpt lat="42.793112" lon="-0.147913">
        <time>2023-03-22T10:56:53+00:00</time>
        <ele>2482.0</ele>
      </trkpt>
      <trkpt lat="42.793077" lon="-0.147729">
        <time>2023-03-22T10:56:56+00:00</time>
        <ele>2476.0</ele>
      </trkpt>
      <trkpt lat="42.793004" lon="-0.147689">
        <time>2023-03-22T10:56:58+00:00</time>
        <ele>2474.0</ele>
      </trkpt>
      <trkpt lat="42.792961" lon="-0.147707">
        <time>2023-03-22T10:57:02+00:00</time>
        <ele>2474.0</ele>
      </trkpt>
      <trkpt lat="42.792931" lon="-0.147725">
        <time>2023-03-22T10:57:05+00:00</time>
        <ele>2473.0</ele>
      </trkpt>
      <trkpt lat="42.79287" lon="-0.147725">
        <time>2023-03-22T10:57:09+00:00</time>
        <ele>2471.0</ele>
      </trkpt>
      <trkpt lat="42.792644" lon="-0.147769">
        <time>2023-03-22T10:57:21+00:00</time>
        <ele>2467.0</ele>
      </trkpt>
      <trkpt lat="42.792568" lon="-0.147784">
        <time>2023-03-22T10:57:25+00:00</time>
        <ele>2466.0</ele>
      </trkpt>
      <trkpt lat="42.792292" lon="-0.147856">
        <time>2023-03-22T10:57:36+00:00</time>
        <ele>2463.0</ele>
      </trkpt>
      <trkpt lat="42.792004" lon="-0.147991">
        <time>2023-03-22T10:57:49+00:00</time>
        <ele>2458.0</ele>
      </trkpt>
      <trkpt lat="42.792013" lon="-0.147992">
        <time>2023-03-22T10:58:00+00:00</time>
        <ele>2458.0</ele>
      </trkpt>
      <trkpt lat="42.792046" lon="-0.147946">
        <time>2023-03-22T10:58:03+00:00</time>
        <ele>2459.0</ele>
      </trkpt>
      <trkpt lat="42.792112" lon="-0.147919">
        <time>2023-03-22T10:58:12+00:00</time>
        <ele>2460.0</ele>
      </trkpt>
      <trkpt lat="42.792129" lon="-0.147904">
        <time>2023-03-22T10:58:16+00:00</time>
        <ele>2460.0</ele>
      </trkpt>
      <trkpt lat="42.792157" lon="-0.147902">
        <time>2023-03-22T10:58:21+00:00</time>
        <ele>2461.0</ele>
      </trkpt>
      <trkpt lat="42.792221" lon="-0.147894">
        <time>2023-03-22T10:58:32+00:00</time>
        <ele>2463.0</ele>
      </trkpt>
      <trkpt lat="42.79222" lon="-0.147876">
        <time>2023-03-22T10:58:50+00:00</time>
        <ele>2462.0</ele>
      </trkpt>
      <trkpt lat="42.79222" lon="-0.147893">
        <time>2023-03-22T10:59:23+00:00</time>
        <ele>2462.0</ele>
      </trkpt>
      <trkpt lat="42.79227" lon="-0.147899">
        <time>2023-03-22T10:59:46+00:00</time>
        <ele>2464.0</ele>
      </trkpt>
      <trkpt lat="42.792348" lon="-0.147916">
        <time>2023-03-22T10:59:59+00:00</time>
        <ele>2466.0</ele>
      </trkpt>
      <trkpt lat="42.79242" lon="-0.147938">
        <time>2023-03-22T11:00:11+00:00</time>
        <ele>2468.0</ele>
      </trkpt>
      <trkpt lat="42.792491" lon="-0.147956">
        <time>2023-03-22T11:00:24+00:00</time>
        <ele>2469.0</ele>
      </trkpt>
      <trkpt lat="42.792505" lon="-0.147955">
        <time>2023-03-22T11:00:27+00:00</time>
        <ele>2470.0</ele>
      </trkpt>
      <trkpt lat="42.792506" lon="-0.147974">
        <time>2023-03-22T11:00:37+00:00</time>
        <ele>2470.0</ele>
      </trkpt>
      <trkpt lat="42.792447" lon="-0.14801">
        <time>2023-03-22T11:00:50+00:00</time>
        <ele>2470.0</ele>
      </trkpt>
      <trkpt lat="42.792401" lon="-0.14804">
        <time>2023-03-22T11:01:00+00:00</time>
        <ele>2470.0</ele>
      </trkpt>
      <trkpt lat="42.792349" lon="-0.148084">
        <time>2023-03-22T11:01:12+00:00</time>
        <ele>2471.0</ele>
      </trkpt>
      <trkpt lat="42.792328" lon="-0.14809">
        <time>2023-03-22T11:01:16+00:00</time>
        <ele>2470.0</ele>
      </trkpt>
      <trkpt lat="42.79229" lon="-0.148114">
        <time>2023-03-22T11:01:22+00:00</time>
        <ele>2470.0</ele>
      </trkpt>
      <trkpt lat="42.792208" lon="-0.148155">
        <time>2023-03-22T11:01:29+00:00</time>
        <ele>2469.0</ele>
      </trkpt>
      <trkpt lat="42.792109" lon="-0.14822">
        <time>2023-03-22T11:01:41+00:00</time>
        <ele>2467.0</ele>
      </trkpt>
      <trkpt lat="42.792111" lon="-0.14823">
        <time>2023-03-22T11:01:54+00:00</time>
        <ele>2467.0</ele>
      </trkpt>
      <trkpt lat="42.792149" lon="-0.148235">
        <time>2023-03-22T11:02:03+00:00</time>
        <ele>2469.0</ele>
      </trkpt>
      <trkpt lat="42.792157" lon="-0.148236">
        <time>2023-03-22T11:02:05+00:00</time>
        <ele>2469.0</ele>
      </trkpt>
      <trkpt lat="42.792178" lon="-0.148244">
        <time>2023-03-22T11:02:15+00:00</time>
        <ele>2470.0</ele>
      </trkpt>
      <trkpt lat="42.79222" lon="-0.148264">
        <time>2023-03-22T11:02:26+00:00</time>
        <ele>2472.0</ele>
      </trkpt>
      <trkpt lat="42.792255" lon="-0.148269">
        <time>2023-03-22T11:02:38+00:00</time>
        <ele>2474.0</ele>
      </trkpt>
      <trkpt lat="42.79229" lon="-0.14829">
        <time>2023-03-22T11:02:48+00:00</time>
        <ele>2475.0</ele>
      </trkpt>
      <trkpt lat="42.792318" lon="-0.1483">
        <time>2023-03-22T11:02:58+00:00</time>
        <ele>2477.0</ele>
      </trkpt>
      <trkpt lat="42.792315" lon="-0.148301">
        <time>2023-03-22T11:03:00+00:00</time>
        <ele>2477.0</ele>
      </trkpt>
      <trkpt lat="42.792285" lon="-0.148339">
        <time>2023-03-22T11:03:10+00:00</time>
        <ele>2477.0</ele>
      </trkpt>
      <trkpt lat="42.792239" lon="-0.14839">
        <time>2023-03-22T11:03:21+00:00</time>
        <ele>2477.0</ele>
      </trkpt>
      <trkpt lat="42.792205" lon="-0.148451">
        <time>2023-03-22T11:03:33+00:00</time>
        <ele>2477.0</ele>
      </trkpt>
      <trkpt lat="42.792171" lon="-0.148508">
        <time>2023-03-22T11:03:45+00:00</time>
        <ele>2478.0</ele>
      </trkpt>
      <trkpt lat="42.792156" lon="-0.148567">
        <time>2023-03-22T11:03:58+00:00</time>
        <ele>2479.0</ele>
      </trkpt>
      <trkpt lat="42.792147" lon="-0.148607">
        <time>2023-03-22T11:04:10+00:00</time>
        <ele>2480.0</ele>
      </trkpt>
      <trkpt lat="42.792122" lon="-0.148678">
        <time>2023-03-22T11:04:21+00:00</time>
        <ele>2482.0</ele>
      </trkpt>
      <trkpt lat="42.792116" lon="-0.148706">
        <time>2023-03-22T11:04:33+00:00</time>
        <ele>2482.0</ele>
      </trkpt>
      <trkpt lat="42.792104" lon="-0.148738">
        <time>2023-03-22T11:04:37+00:00</time>
        <ele>2483.0</ele>
      </trkpt>
      <trkpt lat="42.792058" lon="-0.148871">
        <time>2023-03-22T11:04:42+00:00</time>
        <ele>2485.0</ele>
      </trkpt>
      <trkpt lat="42.792045" lon="-0.149016">
        <time>2023-03-22T11:04:47+00:00</time>
        <ele>2488.0</ele>
      </trkpt>
      <trkpt lat="42.792037" lon="-0.149033">
        <time>2023-03-22T11:05:02+00:00</time>
        <ele>2488.0</ele>
      </trkpt>
      <trkpt lat="42.792029" lon="-0.149035">
        <time>2023-03-22T11:05:24+00:00</time>
        <ele>2487.0</ele>
      </trkpt>
      <trkpt lat="42.792038" lon="-0.149033">
        <time>2023-03-22T11:05:43+00:00</time>
        <ele>2488.0</ele>
      </trkpt>
      <trkpt lat="42.792032" lon="-0.14904">
        <time>2023-03-22T11:05:48+00:00</time>
        <ele>2488.0</ele>
      </trkpt>
      <trkpt lat="42.791998" lon="-0.14914">
        <time>2023-03-22T11:05:51+00:00</time>
        <ele>2487.0</ele>
      </trkpt>
      <trkpt lat="42.79191" lon="-0.149462">
        <time>2023-03-22T11:05:55+00:00</time>
        <ele>2486.0</ele>
      </trkpt>
      <trkpt lat="42.791879" lon="-0.14964">
        <time>2023-03-22T11:05:58+00:00</time>
        <ele>2487.0</ele>
      </trkpt>
      <trkpt lat="42.79182" lon="-0.149934">
        <time>2023-03-22T11:06:04+00:00</time>
        <ele>2487.0</ele>
      </trkpt>
      <trkpt lat="42.791769" lon="-0.15034">
        <time>2023-03-22T11:06:10+00:00</time>
        <ele>2486.0</ele>
      </trkpt>
      <trkpt lat="42.791705" lon="-0.150519">
        <time>2023-03-22T11:06:12+00:00</time>
        <ele>2483.0</ele>
      </trkpt>
      <trkpt lat="42.791657" lon="-0.150694">
        <time>2023-03-22T11:06:21+00:00</time>
        <ele>2482.0</ele>
      </trkpt>
      <trkpt lat="42.791673" lon="-0.150696">
        <time>2023-03-22T11:06:41+00:00</time>
        <ele>2483.0</ele>
      </trkpt>
      <trkpt lat="42.791673" lon="-0.150705">
        <time>2023-03-22T11:06:53+00:00</time>
        <ele>2483.0</ele>
      </trkpt>
      <trkpt lat="42.791674" lon="-0.150704">
        <time>2023-03-22T11:06:54+00:00</time>
        <ele>2483.0</ele>
      </trkpt>
      <trkpt lat="42.791673" lon="-0.150704">
        <time>2023-03-22T11:06:55+00:00</time>
        <ele>2483.0</ele>
      </trkpt>
      <trkpt lat="42.791673" lon="-0.150704">
        <time>2023-03-22T11:06:56+00:00</time>
        <ele>2483.0</ele>
      </trkpt>
      <trkpt lat="42.791673" lon="-0.150704">
        <time>2023-03-22T11:06:57+00:00</time>
        <ele>2483.0</ele>
      </trkpt>
      <trkpt lat="42.791688" lon="-0.150734">
        <time>2023-03-22T11:07:25+00:00</time>
        <ele>2484.0</ele>
      </trkpt>
      <trkpt lat="42.791675" lon="-0.150736">
        <time>2023-03-22T11:07:38+00:00</time>
        <ele>2483.0</ele>
      </trkpt>
      <trkpt lat="42.791675" lon="-0.150734">
        <time>2023-03-22T11:07:39+00:00</time>
        <ele>2483.0</ele>
      </trkpt>
      <trkpt lat="42.791676" lon="-0.150733">
        <time>2023-03-22T11:07:40+00:00</time>
        <ele>2484.0</ele>
      </trkpt>
      <trkpt lat="42.791675" lon="-0.150733">
        <time>2023-03-22T11:07:42+00:00</time>
        <ele>2483.0</ele>
      </trkpt>
      <trkpt lat="42.791675" lon="-0.150734">
        <time>2023-03-22T11:07:43+00:00</time>
        <ele>2483.0</ele>
      </trkpt>
      <trkpt lat="42.791675" lon="-0.150734">
        <time>2023-03-22T11:07:44+00:00</time>
        <ele>2483.0</ele>
      </trkpt>
      <trkpt lat="42.791694" lon="-0.150723">
        <time>2023-03-22T11:07:56+00:00</time>
        <ele>2485.0</ele>
      </trkpt>
      <trkpt lat="42.791744" lon="-0.150761">
        <time>2023-03-22T11:08:17+00:00</time>
        <ele>2489.0</ele>
      </trkpt>
      <trkpt lat="42.791724" lon="-0.15074">
        <time>2023-03-22T11:08:21+00:00</time>
        <ele>2487.0</ele>
      </trkpt>
      <trkpt lat="42.791655" lon="-0.150802">
        <time>2023-03-22T11:08:25+00:00</time>
        <ele>2483.0</ele>
      </trkpt>
      <trkpt lat="42.791481" lon="-0.151131">
        <time>2023-03-22T11:08:31+00:00</time>
        <ele>2477.0</ele>
      </trkpt>
      <trkpt lat="42.791451" lon="-0.151197">
        <time>2023-03-22T11:08:32+00:00</time>
        <ele>2477.0</ele>
      </trkpt>
      <trkpt lat="42.79138" lon="-0.151309">
        <time>2023-03-22T11:08:34+00:00</time>
        <ele>2476.0</ele>
      </trkpt>
      <trkpt lat="42.791297" lon="-0.151401">
        <time>2023-03-22T11:08:36+00:00</time>
        <ele>2474.0</ele>
      </trkpt>
      <trkpt lat="42.791162" lon="-0.151523">
        <time>2023-03-22T11:08:39+00:00</time>
        <ele>2470.0</ele>
      </trkpt>
      <trkpt lat="42.790997" lon="-0.151495">
        <time>2023-03-22T11:08:43+00:00</time>
        <ele>2462.0</ele>
      </trkpt>
      <trkpt lat="42.790854" lon="-0.151349">
        <time>2023-03-22T11:08:46+00:00</time>
        <ele>2452.0</ele>
      </trkpt>
      <trkpt lat="42.790836" lon="-0.151268">
        <time>2023-03-22T11:08:47+00:00</time>
        <ele>2448.0</ele>
      </trkpt>
      <trkpt lat="42.790809" lon="-0.1512">
        <time>2023-03-22T11:08:48+00:00</time>
        <ele>2444.0</ele>
      </trkpt>
      <trkpt lat="42.790769" lon="-0.151149">
        <time>2023-03-22T11:08:49+00:00</time>
        <ele>2441.0</ele>
      </trkpt>
      <trkpt lat="42.790735" lon="-0.151075">
        <time>2023-03-22T11:08:50+00:00</time>
        <ele>2438.0</ele>
      </trkpt>
      <trkpt lat="42.790716" lon="-0.150998">
        <time>2023-03-22T11:08:51+00:00</time>
        <ele>2434.0</ele>
      </trkpt>
      <trkpt lat="42.790699" lon="-0.150917">
        <time>2023-03-22T11:08:52+00:00</time>
        <ele>2431.0</ele>
      </trkpt>
      <trkpt lat="42.790661" lon="-0.150853">
        <time>2023-03-22T11:08:53+00:00</time>
        <ele>2427.0</ele>
      </trkpt>
      <trkpt lat="42.79063" lon="-0.150785">
        <time>2023-03-22T11:08:54+00:00</time>
        <ele>2423.0</ele>
      </trkpt>
      <trkpt lat="42.790626" lon="-0.150707">
        <time>2023-03-22T11:08:55+00:00</time>
        <ele>2419.0</ele>
      </trkpt>
      <trkpt lat="42.790608" lon="-0.150613">
        <time>2023-03-22T11:08:56+00:00</time>
        <ele>2414.0</ele>
      </trkpt>
      <trkpt lat="42.79057" lon="-0.150551">
        <time>2023-03-22T11:08:57+00:00</time>
        <ele>2410.0</ele>
      </trkpt>
      <trkpt lat="42.790524" lon="-0.150482">
        <time>2023-03-22T11:08:58+00:00</time>
        <ele>2406.0</ele>
      </trkpt>
      <trkpt lat="42.79049" lon="-0.1504">
        <time>2023-03-22T11:08:59+00:00</time>
        <ele>2402.0</ele>
      </trkpt>
      <trkpt lat="42.790477" lon="-0.150296">
        <time>2023-03-22T11:09:00+00:00</time>
        <ele>2397.0</ele>
      </trkpt>
      <trkpt lat="42.790437" lon="-0.150208">
        <time>2023-03-22T11:09:01+00:00</time>
        <ele>2393.0</ele>
      </trkpt>
      <trkpt lat="42.790341" lon="-0.150129">
        <time>2023-03-22T11:09:02+00:00</time>
        <ele>2389.0</ele>
      </trkpt>
      <trkpt lat="42.79013" lon="-0.150023">
        <time>2023-03-22T11:09:05+00:00</time>
        <ele>2384.0</ele>
      </trkpt>
      <trkpt lat="42.790106" lon="-0.149945">
        <time>2023-03-22T11:09:06+00:00</time>
        <ele>2379.0</ele>
      </trkpt>
      <trkpt lat="42.79012" lon="-0.149879">
        <time>2023-03-22T11:09:07+00:00</time>
        <ele>2375.0</ele>
      </trkpt>
      <trkpt lat="42.790144" lon="-0.149793">
        <time>2023-03-22T11:09:08+00:00</time>
        <ele>2370.0</ele>
      </trkpt>
      <trkpt lat="42.790178" lon="-0.14969">
        <time>2023-03-22T11:09:09+00:00</time>
        <ele>2365.0</ele>
      </trkpt>
      <trkpt lat="42.790206" lon="-0.149567">
        <time>2023-03-22T11:09:10+00:00</time>
        <ele>2359.0</ele>
      </trkpt>
      <trkpt lat="42.790192" lon="-0.149471">
        <time>2023-03-22T11:09:11+00:00</time>
        <ele>2355.0</ele>
      </trkpt>
      <trkpt lat="42.790143" lon="-0.149433">
        <time>2023-03-22T11:09:12+00:00</time>
        <ele>2352.0</ele>
      </trkpt>
      <trkpt lat="42.790068" lon="-0.149424">
        <time>2023-03-22T11:09:13+00:00</time>
        <ele>2350.0</ele>
      </trkpt>
      <trkpt lat="42.790004" lon="-0.149433">
        <time>2023-03-22T11:09:14+00:00</time>
        <ele>2349.0</ele>
      </trkpt>
      <trkpt lat="42.789932" lon="-0.149427">
        <time>2023-03-22T11:09:15+00:00</time>
        <ele>2349.0</ele>
      </trkpt>
      <trkpt lat="42.789858" lon="-0.149419">
        <time>2023-03-22T11:09:16+00:00</time>
        <ele>2349.0</ele>
      </trkpt>
      <trkpt lat="42.789706" lon="-0.149393">
        <time>2023-03-22T11:09:18+00:00</time>
        <ele>2351.0</ele>
      </trkpt>
      <trkpt lat="42.789508" lon="-0.14927">
        <time>2023-03-22T11:09:21+00:00</time>
        <ele>2351.0</ele>
      </trkpt>
      <trkpt lat="42.789385" lon="-0.14919">
        <time>2023-03-22T11:09:27+00:00</time>
        <ele>2352.0</ele>
      </trkpt>
      <trkpt lat="42.78942" lon="-0.149189">
        <time>2023-03-22T11:09:35+00:00</time>
        <ele>2351.0</ele>
      </trkpt>
      <trkpt lat="42.789459" lon="-0.149219">
        <time>2023-03-22T11:09:47+00:00</time>
        <ele>2351.0</ele>
      </trkpt>
      <trkpt lat="42.789468" lon="-0.149245">
        <time>2023-03-22T11:09:58+00:00</time>
        <ele>2351.0</ele>
      </trkpt>
      <trkpt lat="42.789682" lon="-0.149238">
        <time>2023-03-22T11:10:03+00:00</time>
        <ele>2346.0</ele>
      </trkpt>
      <trkpt lat="42.789745" lon="-0.149179">
        <time>2023-03-22T11:10:04+00:00</time>
        <ele>2343.0</ele>
      </trkpt>
      <trkpt lat="42.7898" lon="-0.149071">
        <time>2023-03-22T11:10:05+00:00</time>
        <ele>2338.0</ele>
      </trkpt>
      <trkpt lat="42.789828" lon="-0.148964">
        <time>2023-03-22T11:10:06+00:00</time>
        <ele>2334.0</ele>
      </trkpt>
      <trkpt lat="42.789887" lon="-0.148818">
        <time>2023-03-22T11:10:08+00:00</time>
        <ele>2330.0</ele>
      </trkpt>
      <trkpt lat="42.789935" lon="-0.148705">
        <time>2023-03-22T11:10:10+00:00</time>
        <ele>2326.0</ele>
      </trkpt>
      <trkpt lat="42.789934" lon="-0.148561">
        <time>2023-03-22T11:10:12+00:00</time>
        <ele>2322.0</ele>
      </trkpt>
      <trkpt lat="42.789885" lon="-0.148388">
        <time>2023-03-22T11:10:14+00:00</time>
        <ele>2318.0</ele>
      </trkpt>
      <trkpt lat="42.789918" lon="-0.148203">
        <time>2023-03-22T11:10:16+00:00</time>
        <ele>2311.0</ele>
      </trkpt>
      <trkpt lat="42.789907" lon="-0.148121">
        <time>2023-03-22T11:10:17+00:00</time>
        <ele>2308.0</ele>
      </trkpt>
      <trkpt lat="42.789911" lon="-0.14805">
        <time>2023-03-22T11:10:18+00:00</time>
        <ele>2305.0</ele>
      </trkpt>
      <trkpt lat="42.789932" lon="-0.147891">
        <time>2023-03-22T11:10:20+00:00</time>
        <ele>2298.0</ele>
      </trkpt>
      <trkpt lat="42.789963" lon="-0.147748">
        <time>2023-03-22T11:10:22+00:00</time>
        <ele>2291.0</ele>
      </trkpt>
      <trkpt lat="42.789964" lon="-0.147648">
        <time>2023-03-22T11:10:23+00:00</time>
        <ele>2287.0</ele>
      </trkpt>
      <trkpt lat="42.789971" lon="-0.147541">
        <time>2023-03-22T11:10:24+00:00</time>
        <ele>2282.0</ele>
      </trkpt>
      <trkpt lat="42.789949" lon="-0.147345">
        <time>2023-03-22T11:10:26+00:00</time>
        <ele>2272.0</ele>
      </trkpt>
      <trkpt lat="42.789953" lon="-0.147245">
        <time>2023-03-22T11:10:27+00:00</time>
        <ele>2267.0</ele>
      </trkpt>
      <trkpt lat="42.789937" lon="-0.147154">
        <time>2023-03-22T11:10:28+00:00</time>
        <ele>2262.0</ele>
      </trkpt>
      <trkpt lat="42.789907" lon="-0.147071">
        <time>2023-03-22T11:10:29+00:00</time>
        <ele>2258.0</ele>
      </trkpt>
      <trkpt lat="42.78987" lon="-0.146879">
        <time>2023-03-22T11:10:31+00:00</time>
        <ele>2250.0</ele>
      </trkpt>
      <trkpt lat="42.789887" lon="-0.146652">
        <time>2023-03-22T11:10:33+00:00</time>
        <ele>2239.0</ele>
      </trkpt>
      <trkpt lat="42.789873" lon="-0.146439">
        <time>2023-03-22T11:10:35+00:00</time>
        <ele>2229.0</ele>
      </trkpt>
      <trkpt lat="42.789827" lon="-0.146346">
        <time>2023-03-22T11:10:36+00:00</time>
        <ele>2225.0</ele>
      </trkpt>
      <trkpt lat="42.789819" lon="-0.14626">
        <time>2023-03-22T11:10:37+00:00</time>
        <ele>2222.0</ele>
      </trkpt>
      <trkpt lat="42.789808" lon="-0.146137">
        <time>2023-03-22T11:10:38+00:00</time>
        <ele>2218.0</ele>
      </trkpt>
      <trkpt lat="42.789799" lon="-0.146028">
        <time>2023-03-22T11:10:39+00:00</time>
        <ele>2214.0</ele>
      </trkpt>
      <trkpt lat="42.789801" lon="-0.145642">
        <time>2023-03-22T11:10:42+00:00</time>
        <ele>2205.0</ele>
      </trkpt>
      <trkpt lat="42.789844" lon="-0.145505">
        <time>2023-03-22T11:10:43+00:00</time>
        <ele>2203.0</ele>
      </trkpt>
      <trkpt lat="42.789915" lon="-0.145437">
        <time>2023-03-22T11:10:44+00:00</time>
        <ele>2201.0</ele>
      </trkpt>
      <trkpt lat="42.78999" lon="-0.145371">
        <time>2023-03-22T11:10:45+00:00</time>
        <ele>2199.0</ele>
      </trkpt>
      <trkpt lat="42.790054" lon="-0.145313">
        <time>2023-03-22T11:10:46+00:00</time>
        <ele>2196.0</ele>
      </trkpt>
      <trkpt lat="42.790087" lon="-0.145312">
        <time>2023-03-22T11:10:47+00:00</time>
        <ele>2196.0</ele>
      </trkpt>
      <trkpt lat="42.790098" lon="-0.145338">
        <time>2023-03-22T11:10:48+00:00</time>
        <ele>2196.0</ele>
      </trkpt>
      <trkpt lat="42.790103" lon="-0.145357">
        <time>2023-03-22T11:10:58+00:00</time>
        <ele>2196.0</ele>
      </trkpt>
      <trkpt lat="42.790127" lon="-0.145347">
        <time>2023-03-22T11:11:13+00:00</time>
        <ele>2195.0</ele>
      </trkpt>
      <trkpt lat="42.790201" lon="-0.145279">
        <time>2023-03-22T11:11:15+00:00</time>
        <ele>2192.0</ele>
      </trkpt>
      <trkpt lat="42.79023" lon="-0.145202">
        <time>2023-03-22T11:11:16+00:00</time>
        <ele>2189.0</ele>
      </trkpt>
      <trkpt lat="42.790239" lon="-0.145132">
        <time>2023-03-22T11:11:17+00:00</time>
        <ele>2186.0</ele>
      </trkpt>
      <trkpt lat="42.790253" lon="-0.145039">
        <time>2023-03-22T11:11:18+00:00</time>
        <ele>2181.0</ele>
      </trkpt>
      <trkpt lat="42.790255" lon="-0.14494">
        <time>2023-03-22T11:11:19+00:00</time>
        <ele>2177.0</ele>
      </trkpt>
      <trkpt lat="42.79026" lon="-0.144833">
        <time>2023-03-22T11:11:20+00:00</time>
        <ele>2173.0</ele>
      </trkpt>
      <trkpt lat="42.790277" lon="-0.144714">
        <time>2023-03-22T11:11:21+00:00</time>
        <ele>2168.0</ele>
      </trkpt>
      <trkpt lat="42.790315" lon="-0.144594">
        <time>2023-03-22T11:11:22+00:00</time>
        <ele>2165.0</ele>
      </trkpt>
      <trkpt lat="42.790395" lon="-0.144307">
        <time>2023-03-22T11:11:24+00:00</time>
        <ele>2158.0</ele>
      </trkpt>
      <trkpt lat="42.790437" lon="-0.144132">
        <time>2023-03-22T11:11:25+00:00</time>
        <ele>2153.0</ele>
      </trkpt>
      <trkpt lat="42.790586" lon="-0.143818">
        <time>2023-03-22T11:11:27+00:00</time>
        <ele>2150.0</ele>
      </trkpt>
      <trkpt lat="42.790782" lon="-0.14355">
        <time>2023-03-22T11:11:29+00:00</time>
        <ele>2148.0</ele>
      </trkpt>
      <trkpt lat="42.790999" lon="-0.143369">
        <time>2023-03-22T11:11:31+00:00</time>
        <ele>2147.0</ele>
      </trkpt>
      <trkpt lat="42.791091" lon="-0.143274">
        <time>2023-03-22T11:11:32+00:00</time>
        <ele>2147.0</ele>
      </trkpt>
      <trkpt lat="42.791397" lon="-0.142917">
        <time>2023-03-22T11:11:36+00:00</time>
        <ele>2146.0</ele>
      </trkpt>
      <trkpt lat="42.791458" lon="-0.142849">
        <time>2023-03-22T11:11:37+00:00</time>
        <ele>2146.0</ele>
      </trkpt>
      <trkpt lat="42.79186" lon="-0.142454">
        <time>2023-03-22T11:11:45+00:00</time>
        <ele>2144.0</ele>
      </trkpt>
      <trkpt lat="42.792164" lon="-0.142183">
        <time>2023-03-22T11:11:54+00:00</time>
        <ele>2144.0</ele>
      </trkpt>
      <trkpt lat="42.792227" lon="-0.142133">
        <time>2023-03-22T11:11:56+00:00</time>
        <ele>2144.0</ele>
      </trkpt>
      <trkpt lat="42.792303" lon="-0.142057">
        <time>2023-03-22T11:11:59+00:00</time>
        <ele>2144.0</ele>
      </trkpt>
      <trkpt lat="42.792521" lon="-0.141828">
        <time>2023-03-22T11:12:09+00:00</time>
        <ele>2143.0</ele>
      </trkpt>
      <trkpt lat="42.792556" lon="-0.141785">
        <time>2023-03-22T11:12:11+00:00</time>
        <ele>2143.0</ele>
      </trkpt>
      <trkpt lat="42.792637" lon="-0.141714">
        <time>2023-03-22T11:12:25+00:00</time>
        <ele>2143.0</ele>
      </trkpt>
      <trkpt lat="42.79262" lon="-0.141749">
        <time>2023-03-22T11:12:44+00:00</time>
        <ele>2143.0</ele>
      </trkpt>
      <trkpt lat="42.792624" lon="-0.141754">
        <time>2023-03-22T11:12:58+00:00</time>
        <ele>2143.0</ele>
      </trkpt>
      <trkpt lat="42.792619" lon="-0.141759">
        <time>2023-03-22T11:13:08+00:00</time>
        <ele>2143.0</ele>
      </trkpt>
      <trkpt lat="42.792659" lon="-0.141733">
        <time>2023-03-22T11:13:19+00:00</time>
        <ele>2143.0</ele>
      </trkpt>
      <trkpt lat="42.79268" lon="-0.141687">
        <time>2023-03-22T11:13:22+00:00</time>
        <ele>2143.0</ele>
      </trkpt>
      <trkpt lat="42.79275" lon="-0.141549">
        <time>2023-03-22T11:13:35+00:00</time>
        <ele>2145.0</ele>
      </trkpt>
      <trkpt lat="42.792754" lon="-0.141529">
        <time>2023-03-22T11:13:37+00:00</time>
        <ele>2145.0</ele>
      </trkpt>
      <trkpt lat="42.792764" lon="-0.14145">
        <time>2023-03-22T11:13:49+00:00</time>
        <ele>2145.0</ele>
      </trkpt>
      <trkpt lat="42.792757" lon="-0.141356">
        <time>2023-03-22T11:14:03+00:00</time>
        <ele>2146.0</ele>
      </trkpt>
      <trkpt lat="42.79278" lon="-0.141394">
        <time>2023-03-22T11:14:10+00:00</time>
        <ele>2146.0</ele>
      </trkpt>
      <trkpt lat="42.792881" lon="-0.141404">
        <time>2023-03-22T11:14:23+00:00</time>
        <ele>2148.0</ele>
      </trkpt>
      <trkpt lat="42.792882" lon="-0.141393">
        <time>2023-03-22T11:14:36+00:00</time>
        <ele>2148.0</ele>
      </trkpt>
      <trkpt lat="42.792871" lon="-0.141367">
        <time>2023-03-22T11:14:48+00:00</time>
        <ele>2148.0</ele>
      </trkpt>
      <trkpt lat="42.792868" lon="-0.141357">
        <time>2023-03-22T11:15:02+00:00</time>
        <ele>2148.0</ele>
      </trkpt>
      <trkpt lat="42.792889" lon="-0.141356">
        <time>2023-03-22T11:15:37+00:00</time>
        <ele>2148.0</ele>
      </trkpt>
      <trkpt lat="42.792888" lon="-0.141342">
        <time>2023-03-22T11:15:40+00:00</time>
        <ele>2148.0</ele>
      </trkpt>
      <trkpt lat="42.792892" lon="-0.141335">
        <time>2023-03-22T11:15:41+00:00</time>
        <ele>2149.0</ele>
      </trkpt>
      <trkpt lat="42.792888" lon="-0.141327">
        <time>2023-03-22T11:15:51+00:00</time>
        <ele>2148.0</ele>
      </trkpt>
      <trkpt lat="42.792884" lon="-0.141323">
        <time>2023-03-22T11:15:54+00:00</time>
        <ele>2148.0</ele>
      </trkpt>
      <trkpt lat="42.79288" lon="-0.14133">
        <time>2023-03-22T11:15:56+00:00</time>
        <ele>2148.0</ele>
      </trkpt>
      <trkpt lat="42.792879" lon="-0.141332">
        <time>2023-03-22T11:15:57+00:00</time>
        <ele>2148.0</ele>
      </trkpt>
      <trkpt lat="42.792886" lon="-0.141342">
        <time>2023-03-22T11:16:11+00:00</time>
        <ele>2148.0</ele>
      </trkpt>
      <trkpt lat="42.79289" lon="-0.14134">
        <time>2023-03-22T11:16:17+00:00</time>
        <ele>2148.0</ele>
      </trkpt>
      <trkpt lat="42.792894" lon="-0.141349">
        <time>2023-03-22T11:16:21+00:00</time>
        <ele>2148.0</ele>
      </trkpt>
      <trkpt lat="42.792736" lon="-0.141351">
        <time>2023-03-22T12:21:02+00:00</time>
        <ele>2146.0</ele>
      </trkpt>
      <trkpt lat="42.792742" lon="-0.141351">
        <time>2023-03-22T12:21:04+00:00</time>
        <ele>2146.0</ele>
      </trkpt>
      <trkpt lat="42.792816" lon="-0.141385">
        <time>2023-03-22T12:21:18+00:00</time>
        <ele>2147.0</ele>
      </trkpt>
      <trkpt lat="42.792805" lon="-0.14142">
        <time>2023-03-22T12:21:29+00:00</time>
        <ele>2147.0</ele>
      </trkpt>
      <trkpt lat="42.792804" lon="-0.141427">
        <time>2023-03-22T12:21:35+00:00</time>
        <ele>2146.0</ele>
      </trkpt>
      <trkpt lat="42.79282" lon="-0.141309">
        <time>2023-03-22T12:21:44+00:00</time>
        <ele>2148.0</ele>
      </trkpt>
      <trkpt lat="42.792925" lon="-0.141248">
        <time>2023-03-22T12:21:55+00:00</time>
        <ele>2149.0</ele>
      </trkpt>
      <trkpt lat="42.792972" lon="-0.141241">
        <time>2023-03-22T12:22:20+00:00</time>
        <ele>2149.0</ele>
      </trkpt>
      <trkpt lat="42.792984" lon="-0.141236">
        <time>2023-03-22T12:22:23+00:00</time>
        <ele>2149.0</ele>
      </trkpt>
      <trkpt lat="42.79301" lon="-0.14117">
        <time>2023-03-22T12:22:35+00:00</time>
        <ele>2148.0</ele>
      </trkpt>
      <trkpt lat="42.793047" lon="-0.141155">
        <time>2023-03-22T12:22:47+00:00</time>
        <ele>2147.0</ele>
      </trkpt>
      <trkpt lat="42.793019" lon="-0.141142">
        <time>2023-03-22T12:22:56+00:00</time>
        <ele>2148.0</ele>
      </trkpt>
      <trkpt lat="42.793007" lon="-0.141172">
        <time>2023-03-22T12:23:36+00:00</time>
        <ele>2149.0</ele>
      </trkpt>
      <trkpt lat="42.793022" lon="-0.14117">
        <time>2023-03-22T12:23:56+00:00</time>
        <ele>2148.0</ele>
      </trkpt>
      <trkpt lat="42.793025" lon="-0.141153">
        <time>2023-03-22T12:24:10+00:00</time>
        <ele>2148.0</ele>
      </trkpt>
      <trkpt lat="42.79304" lon="-0.141141">
        <time>2023-03-22T12:24:27+00:00</time>
        <ele>2147.0</ele>
      </trkpt>
      <trkpt lat="42.79304" lon="-0.141159">
        <time>2023-03-22T12:24:42+00:00</time>
        <ele>2148.0</ele>
      </trkpt>
      <trkpt lat="42.793033" lon="-0.141156">
        <time>2023-03-22T12:24:54+00:00</time>
        <ele>2148.0</ele>
      </trkpt>
      <trkpt lat="42.793034" lon="-0.141153">
        <time>2023-03-22T12:24:57+00:00</time>
        <ele>2148.0</ele>
      </trkpt>
      <trkpt lat="42.793036" lon="-0.141026">
        <time>2023-03-22T12:25:02+00:00</time>
        <ele>2146.0</ele>
      </trkpt>
      <trkpt lat="42.793039" lon="-0.1408">
        <time>2023-03-22T12:25:13+00:00</time>
        <ele>2144.0</ele>
      </trkpt>
      <trkpt lat="42.793097" lon="-0.140726">
        <time>2023-03-22T12:25:22+00:00</time>
        <ele>2142.0</ele>
      </trkpt>
      <trkpt lat="42.793073" lon="-0.140714">
        <time>2023-03-22T12:25:40+00:00</time>
        <ele>2143.0</ele>
      </trkpt>
      <trkpt lat="42.793078" lon="-0.140706">
        <time>2023-03-22T12:25:47+00:00</time>
        <ele>2143.0</ele>
      </trkpt>
      <trkpt lat="42.793076" lon="-0.140686">
        <time>2023-03-22T12:25:51+00:00</time>
        <ele>2143.0</ele>
      </trkpt>
      <trkpt lat="42.793098" lon="-0.140549">
        <time>2023-03-22T12:25:57+00:00</time>
        <ele>2144.0</ele>
      </trkpt>
      <trkpt lat="42.793126" lon="-0.140503">
        <time>2023-03-22T12:26:01+00:00</time>
        <ele>2143.0</ele>
      </trkpt>
      <trkpt lat="42.793127" lon="-0.140496">
        <time>2023-03-22T12:26:02+00:00</time>
        <ele>2143.0</ele>
      </trkpt>
      <trkpt lat="42.793195" lon="-0.140185">
        <time>2023-03-22T12:26:13+00:00</time>
        <ele>2149.0</ele>
      </trkpt>
      <trkpt lat="42.793316" lon="-0.140033">
        <time>2023-03-22T12:26:23+00:00</time>
        <ele>2149.0</ele>
      </trkpt>
      <trkpt lat="42.793598" lon="-0.139864">
        <time>2023-03-22T12:26:32+00:00</time>
        <ele>2141.0</ele>
      </trkpt>
      <trkpt lat="42.793859" lon="-0.139708">
        <time>2023-03-22T12:26:42+00:00</time>
        <ele>2138.0</ele>
      </trkpt>
      <trkpt lat="42.794155" lon="-0.139712">
        <time>2023-03-22T12:26:48+00:00</time>
        <ele>2130.0</ele>
      </trkpt>
      <trkpt lat="42.794232" lon="-0.13971">
        <time>2023-03-22T12:26:50+00:00</time>
        <ele>2128.0</ele>
      </trkpt>
      <trkpt lat="42.794402" lon="-0.139645">
        <time>2023-03-22T12:26:59+00:00</time>
        <ele>2128.0</ele>
      </trkpt>
      <trkpt lat="42.794395" lon="-0.139655">
        <time>2023-03-22T12:27:16+00:00</time>
        <ele>2127.0</ele>
      </trkpt>
      <trkpt lat="42.794515" lon="-0.139662">
        <time>2023-03-22T12:27:20+00:00</time>
        <ele>2125.0</ele>
      </trkpt>
      <trkpt lat="42.794683" lon="-0.139588">
        <time>2023-03-22T12:27:24+00:00</time>
        <ele>2124.0</ele>
      </trkpt>
      <trkpt lat="42.794708" lon="-0.139577">
        <time>2023-03-22T12:27:25+00:00</time>
        <ele>2123.0</ele>
      </trkpt>
      <trkpt lat="42.794974" lon="-0.139369">
        <time>2023-03-22T12:27:38+00:00</time>
        <ele>2122.0</ele>
      </trkpt>
      <trkpt lat="42.795107" lon="-0.139247">
        <time>2023-03-22T12:27:48+00:00</time>
        <ele>2120.0</ele>
      </trkpt>
      <trkpt lat="42.795182" lon="-0.139183">
        <time>2023-03-22T12:28:01+00:00</time>
        <ele>2120.0</ele>
      </trkpt>
      <trkpt lat="42.795247" lon="-0.139142">
        <time>2023-03-22T12:28:12+00:00</time>
        <ele>2119.0</ele>
      </trkpt>
      <trkpt lat="42.795298" lon="-0.13911">
        <time>2023-03-22T12:28:23+00:00</time>
        <ele>2118.0</ele>
      </trkpt>
      <trkpt lat="42.795339" lon="-0.139084">
        <time>2023-03-22T12:28:34+00:00</time>
        <ele>2117.0</ele>
      </trkpt>
      <trkpt lat="42.795368" lon="-0.139077">
        <time>2023-03-22T12:28:38+00:00</time>
        <ele>2116.0</ele>
      </trkpt>
      <trkpt lat="42.79552" lon="-0.139039">
        <time>2023-03-22T12:28:51+00:00</time>
        <ele>2115.0</ele>
      </trkpt>
      <trkpt lat="42.795531" lon="-0.13904">
        <time>2023-03-22T12:28:54+00:00</time>
        <ele>2114.0</ele>
      </trkpt>
      <trkpt lat="42.795751" lon="-0.138975">
        <time>2023-03-22T12:29:04+00:00</time>
        <ele>2112.0</ele>
      </trkpt>
      <trkpt lat="42.795908" lon="-0.138904">
        <time>2023-03-22T12:29:13+00:00</time>
        <ele>2113.0</ele>
      </trkpt>
      <trkpt lat="42.795945" lon="-0.138919">
        <time>2023-03-22T12:29:24+00:00</time>
        <ele>2112.0</ele>
      </trkpt>
      <trkpt lat="42.795914" lon="-0.138925">
        <time>2023-03-22T12:29:47+00:00</time>
        <ele>2112.0</ele>
      </trkpt>
      <trkpt lat="42.795983" lon="-0.138981">
        <time>2023-03-22T12:29:50+00:00</time>
        <ele>2108.0</ele>
      </trkpt>
      <trkpt lat="42.796148" lon="-0.139047">
        <time>2023-03-22T12:29:53+00:00</time>
        <ele>2104.0</ele>
      </trkpt>
      <trkpt lat="42.796208" lon="-0.139165">
        <time>2023-03-22T12:29:55+00:00</time>
        <ele>2100.0</ele>
      </trkpt>
      <trkpt lat="42.796262" lon="-0.139436">
        <time>2023-03-22T12:29:58+00:00</time>
        <ele>2090.0</ele>
      </trkpt>
      <trkpt lat="42.796388" lon="-0.139553">
        <time>2023-03-22T12:30:00+00:00</time>
        <ele>2084.0</ele>
      </trkpt>
      <trkpt lat="42.796536" lon="-0.13965">
        <time>2023-03-22T12:30:02+00:00</time>
        <ele>2081.0</ele>
      </trkpt>
      <trkpt lat="42.796658" lon="-0.139774">
        <time>2023-03-22T12:30:04+00:00</time>
        <ele>2078.0</ele>
      </trkpt>
      <trkpt lat="42.796841" lon="-0.139965">
        <time>2023-03-22T12:30:12+00:00</time>
        <ele>2075.0</ele>
      </trkpt>
      <trkpt lat="42.796833" lon="-0.13997">
        <time>2023-03-22T12:30:19+00:00</time>
        <ele>2075.0</ele>
      </trkpt>
      <trkpt lat="42.796801" lon="-0.140153">
        <time>2023-03-22T12:30:27+00:00</time>
        <ele>2073.0</ele>
      </trkpt>
      <trkpt lat="42.796823" lon="-0.140177">
        <time>2023-03-22T12:30:29+00:00</time>
        <ele>2073.0</ele>
      </trkpt>
      <trkpt lat="42.796842" lon="-0.14016">
        <time>2023-03-22T12:30:45+00:00</time>
        <ele>2073.0</ele>
      </trkpt>
      <trkpt lat="42.796846" lon="-0.14016">
        <time>2023-03-22T12:30:47+00:00</time>
        <ele>2073.0</ele>
      </trkpt>
      <trkpt lat="42.796874" lon="-0.140148">
        <time>2023-03-22T12:30:57+00:00</time>
        <ele>2073.0</ele>
      </trkpt>
      <trkpt lat="42.796879" lon="-0.14016">
        <time>2023-03-22T12:31:03+00:00</time>
        <ele>2073.0</ele>
      </trkpt>
      <trkpt lat="42.796894" lon="-0.140155">
        <time>2023-03-22T12:31:06+00:00</time>
        <ele>2073.0</ele>
      </trkpt>
      <trkpt lat="42.797014" lon="-0.140267">
        <time>2023-03-22T12:31:14+00:00</time>
        <ele>2070.0</ele>
      </trkpt>
      <trkpt lat="42.797026" lon="-0.140272">
        <time>2023-03-22T12:31:15+00:00</time>
        <ele>2070.0</ele>
      </trkpt>
      <trkpt lat="42.79702" lon="-0.140279">
        <time>2023-03-22T12:31:26+00:00</time>
        <ele>2070.0</ele>
      </trkpt>
      <trkpt lat="42.797025" lon="-0.140279">
        <time>2023-03-22T12:31:45+00:00</time>
        <ele>2070.0</ele>
      </trkpt>
      <trkpt lat="42.797025" lon="-0.140275">
        <time>2023-03-22T12:31:50+00:00</time>
        <ele>2070.0</ele>
      </trkpt>
      <trkpt lat="42.797068" lon="-0.140224">
        <time>2023-03-22T12:31:54+00:00</time>
        <ele>2070.0</ele>
      </trkpt>
      <trkpt lat="42.797083" lon="-0.140205">
        <time>2023-03-22T12:31:55+00:00</time>
        <ele>2070.0</ele>
      </trkpt>
      <trkpt lat="42.797094" lon="-0.140192">
        <time>2023-03-22T12:31:56+00:00</time>
        <ele>2070.0</ele>
      </trkpt>
      <trkpt lat="42.797103" lon="-0.140172">
        <time>2023-03-22T12:31:57+00:00</time>
        <ele>2071.0</ele>
      </trkpt>
      <trkpt lat="42.797107" lon="-0.140154">
        <time>2023-03-22T12:31:58+00:00</time>
        <ele>2071.0</ele>
      </trkpt>
      <trkpt lat="42.797225" lon="-0.140026">
        <time>2023-03-22T12:32:11+00:00</time>
        <ele>2072.0</ele>
      </trkpt>
      <trkpt lat="42.797236" lon="-0.140013">
        <time>2023-03-22T12:32:20+00:00</time>
        <ele>2072.0</ele>
      </trkpt>
      <trkpt lat="42.797235" lon="-0.140008">
        <time>2023-03-22T12:32:23+00:00</time>
        <ele>2072.0</ele>
      </trkpt>
      <trkpt lat="42.797222" lon="-0.139971">
        <time>2023-03-22T12:32:33+00:00</time>
        <ele>2073.0</ele>
      </trkpt>
      <trkpt lat="42.797257" lon="-0.139988">
        <time>2023-03-22T12:32:48+00:00</time>
        <ele>2073.0</ele>
      </trkpt>
      <trkpt lat="42.797328" lon="-0.140036">
        <time>2023-03-22T12:32:51+00:00</time>
        <ele>2070.0</ele>
      </trkpt>
      <trkpt lat="42.79737" lon="-0.140034">
        <time>2023-03-22T12:32:52+00:00</time>
        <ele>2070.0</ele>
      </trkpt>
      <trkpt lat="42.797391" lon="-0.140014">
        <time>2023-03-22T12:32:53+00:00</time>
        <ele>2070.0</ele>
      </trkpt>
      <trkpt lat="42.797408" lon="-0.139994">
        <time>2023-03-22T12:32:54+00:00</time>
        <ele>2070.0</ele>
      </trkpt>
      <trkpt lat="42.797432" lon="-0.139981">
        <time>2023-03-22T12:32:55+00:00</time>
        <ele>2070.0</ele>
      </trkpt>
      <trkpt lat="42.797656" lon="-0.139814">
        <time>2023-03-22T12:33:06+00:00</time>
        <ele>2066.0</ele>
      </trkpt>
      <trkpt lat="42.797879" lon="-0.139595">
        <time>2023-03-22T12:33:20+00:00</time>
        <ele>2061.0</ele>
      </trkpt>
      <trkpt lat="42.798083" lon="-0.139499">
        <time>2023-03-22T12:33:30+00:00</time>
        <ele>2060.0</ele>
      </trkpt>
      <trkpt lat="42.79814" lon="-0.139588">
        <time>2023-03-22T12:33:35+00:00</time>
        <ele>2059.0</ele>
      </trkpt>
      <trkpt lat="42.798179" lon="-0.139582">
        <time>2023-03-22T12:33:47+00:00</time>
        <ele>2059.0</ele>
      </trkpt>
      <trkpt lat="42.798181" lon="-0.139577">
        <time>2023-03-22T12:33:58+00:00</time>
        <ele>2059.0</ele>
      </trkpt>
      <trkpt lat="42.798189" lon="-0.139573">
        <time>2023-03-22T12:34:00+00:00</time>
        <ele>2059.0</ele>
      </trkpt>
      <trkpt lat="42.798233" lon="-0.139613">
        <time>2023-03-22T12:34:04+00:00</time>
        <ele>2059.0</ele>
      </trkpt>
      <trkpt lat="42.798276" lon="-0.139639">
        <time>2023-03-22T12:34:09+00:00</time>
        <ele>2059.0</ele>
      </trkpt>
      <trkpt lat="42.798317" lon="-0.139599">
        <time>2023-03-22T12:34:13+00:00</time>
        <ele>2059.0</ele>
      </trkpt>
      <trkpt lat="42.798346" lon="-0.139582">
        <time>2023-03-22T12:34:17+00:00</time>
        <ele>2058.0</ele>
      </trkpt>
      <trkpt lat="42.798415" lon="-0.139491">
        <time>2023-03-22T12:34:26+00:00</time>
        <ele>2058.0</ele>
      </trkpt>
      <trkpt lat="42.798454" lon="-0.13945">
        <time>2023-03-22T12:34:31+00:00</time>
        <ele>2057.0</ele>
      </trkpt>
      <trkpt lat="42.798474" lon="-0.139458">
        <time>2023-03-22T12:34:33+00:00</time>
        <ele>2057.0</ele>
      </trkpt>
      <trkpt lat="42.798494" lon="-0.139456">
        <time>2023-03-22T12:34:35+00:00</time>
        <ele>2057.0</ele>
      </trkpt>
      <trkpt lat="42.798514" lon="-0.139462">
        <time>2023-03-22T12:34:37+00:00</time>
        <ele>2057.0</ele>
      </trkpt>
      <trkpt lat="42.798604" lon="-0.139434">
        <time>2023-03-22T12:34:48+00:00</time>
        <ele>2057.0</ele>
      </trkpt>
      <trkpt lat="42.798605" lon="-0.13947">
        <time>2023-03-22T12:34:59+00:00</time>
        <ele>2057.0</ele>
      </trkpt>
      <trkpt lat="42.798603" lon="-0.139492">
        <time>2023-03-22T12:35:13+00:00</time>
        <ele>2057.0</ele>
      </trkpt>
      <trkpt lat="42.798614" lon="-0.139484">
        <time>2023-03-22T12:35:29+00:00</time>
        <ele>2057.0</ele>
      </trkpt>
      <trkpt lat="42.798635" lon="-0.139463">
        <time>2023-03-22T12:35:44+00:00</time>
        <ele>2057.0</ele>
      </trkpt>
      <trkpt lat="42.798779" lon="-0.139331">
        <time>2023-03-22T12:35:50+00:00</time>
        <ele>2056.0</ele>
      </trkpt>
      <trkpt lat="42.79881" lon="-0.139316">
        <time>2023-03-22T12:35:51+00:00</time>
        <ele>2056.0</ele>
      </trkpt>
      <trkpt lat="42.798994" lon="-0.139242">
        <time>2023-03-22T12:35:57+00:00</time>
        <ele>2055.0</ele>
      </trkpt>
      <trkpt lat="42.799022" lon="-0.13922">
        <time>2023-03-22T12:35:58+00:00</time>
        <ele>2055.0</ele>
      </trkpt>
      <trkpt lat="42.799051" lon="-0.139209">
        <time>2023-03-22T12:35:59+00:00</time>
        <ele>2055.0</ele>
      </trkpt>
      <trkpt lat="42.799078" lon="-0.139196">
        <time>2023-03-22T12:36:00+00:00</time>
        <ele>2055.0</ele>
      </trkpt>
      <trkpt lat="42.799101" lon="-0.139187">
        <time>2023-03-22T12:36:01+00:00</time>
        <ele>2055.0</ele>
      </trkpt>
      <trkpt lat="42.799121" lon="-0.139183">
        <time>2023-03-22T12:36:02+00:00</time>
        <ele>2055.0</ele>
      </trkpt>
      <trkpt lat="42.799141" lon="-0.139172">
        <time>2023-03-22T12:36:03+00:00</time>
        <ele>2055.0</ele>
      </trkpt>
      <trkpt lat="42.799162" lon="-0.139163">
        <time>2023-03-22T12:36:04+00:00</time>
        <ele>2055.0</ele>
      </trkpt>
      <trkpt lat="42.799185" lon="-0.139154">
        <time>2023-03-22T12:36:05+00:00</time>
        <ele>2054.0</ele>
      </trkpt>
      <trkpt lat="42.799211" lon="-0.139137">
        <time>2023-03-22T12:36:06+00:00</time>
        <ele>2054.0</ele>
      </trkpt>
      <trkpt lat="42.799237" lon="-0.139127">
        <time>2023-03-22T12:36:07+00:00</time>
        <ele>2054.0</ele>
      </trkpt>
      <trkpt lat="42.799264" lon="-0.139115">
        <time>2023-03-22T12:36:08+00:00</time>
        <ele>2053.0</ele>
      </trkpt>
      <trkpt lat="42.799287" lon="-0.139101">
        <time>2023-03-22T12:36:09+00:00</time>
        <ele>2053.0</ele>
      </trkpt>
      <trkpt lat="42.799315" lon="-0.139096">
        <time>2023-03-22T12:36:10+00:00</time>
        <ele>2053.0</ele>
      </trkpt>
      <trkpt lat="42.799338" lon="-0.139088">
        <time>2023-03-22T12:36:11+00:00</time>
        <ele>2053.0</ele>
      </trkpt>
      <trkpt lat="42.799362" lon="-0.139072">
        <time>2023-03-22T12:36:12+00:00</time>
        <ele>2052.0</ele>
      </trkpt>
      <trkpt lat="42.799387" lon="-0.139056">
        <time>2023-03-22T12:36:13+00:00</time>
        <ele>2052.0</ele>
      </trkpt>
      <trkpt lat="42.79943" lon="-0.139016">
        <time>2023-03-22T12:36:15+00:00</time>
        <ele>2052.0</ele>
      </trkpt>
      <trkpt lat="42.799454" lon="-0.139008">
        <time>2023-03-22T12:36:16+00:00</time>
        <ele>2052.0</ele>
      </trkpt>
      <trkpt lat="42.799478" lon="-0.138994">
        <time>2023-03-22T12:36:17+00:00</time>
        <ele>2052.0</ele>
      </trkpt>
      <trkpt lat="42.799499" lon="-0.138976">
        <time>2023-03-22T12:36:18+00:00</time>
        <ele>2052.0</ele>
      </trkpt>
      <trkpt lat="42.799521" lon="-0.138967">
        <time>2023-03-22T12:36:19+00:00</time>
        <ele>2052.0</ele>
      </trkpt>
      <trkpt lat="42.799542" lon="-0.138955">
        <time>2023-03-22T12:36:20+00:00</time>
        <ele>2052.0</ele>
      </trkpt>
      <trkpt lat="42.799568" lon="-0.138944">
        <time>2023-03-22T12:36:21+00:00</time>
        <ele>2052.0</ele>
      </trkpt>
      <trkpt lat="42.799592" lon="-0.138927">
        <time>2023-03-22T12:36:22+00:00</time>
        <ele>2052.0</ele>
      </trkpt>
      <trkpt lat="42.799615" lon="-0.138914">
        <time>2023-03-22T12:36:23+00:00</time>
        <ele>2052.0</ele>
      </trkpt>
      <trkpt lat="42.799635" lon="-0.138895">
        <time>2023-03-22T12:36:24+00:00</time>
        <ele>2052.0</ele>
      </trkpt>
      <trkpt lat="42.799653" lon="-0.138871">
        <time>2023-03-22T12:36:25+00:00</time>
        <ele>2052.0</ele>
      </trkpt>
      <trkpt lat="42.799672" lon="-0.138853">
        <time>2023-03-22T12:36:26+00:00</time>
        <ele>2052.0</ele>
      </trkpt>
      <trkpt lat="42.799688" lon="-0.138833">
        <time>2023-03-22T12:36:27+00:00</time>
        <ele>2052.0</ele>
      </trkpt>
      <trkpt lat="42.799707" lon="-0.138819">
        <time>2023-03-22T12:36:28+00:00</time>
        <ele>2052.0</ele>
      </trkpt>
      <trkpt lat="42.799724" lon="-0.138821">
        <time>2023-03-22T12:36:29+00:00</time>
        <ele>2052.0</ele>
      </trkpt>
      <trkpt lat="42.79974" lon="-0.138835">
        <time>2023-03-22T12:36:30+00:00</time>
        <ele>2052.0</ele>
      </trkpt>
      <trkpt lat="42.799758" lon="-0.138851">
        <time>2023-03-22T12:36:31+00:00</time>
        <ele>2052.0</ele>
      </trkpt>
      <trkpt lat="42.799775" lon="-0.138858">
        <time>2023-03-22T12:36:32+00:00</time>
        <ele>2052.0</ele>
      </trkpt>
      <trkpt lat="42.799793" lon="-0.13886">
        <time>2023-03-22T12:36:33+00:00</time>
        <ele>2052.0</ele>
      </trkpt>
      <trkpt lat="42.799814" lon="-0.138853">
        <time>2023-03-22T12:36:34+00:00</time>
        <ele>2052.0</ele>
      </trkpt>
      <trkpt lat="42.799837" lon="-0.138852">
        <time>2023-03-22T12:36:35+00:00</time>
        <ele>2052.0</ele>
      </trkpt>
      <trkpt lat="42.799861" lon="-0.138853">
        <time>2023-03-22T12:36:36+00:00</time>
        <ele>2052.0</ele>
      </trkpt>
      <trkpt lat="42.799885" lon="-0.138851">
        <time>2023-03-22T12:36:37+00:00</time>
        <ele>2052.0</ele>
      </trkpt>
      <trkpt lat="42.799908" lon="-0.138853">
        <time>2023-03-22T12:36:38+00:00</time>
        <ele>2052.0</ele>
      </trkpt>
      <trkpt lat="42.799931" lon="-0.138854">
        <time>2023-03-22T12:36:39+00:00</time>
        <ele>2052.0</ele>
      </trkpt>
      <trkpt lat="42.799953" lon="-0.138854">
        <time>2023-03-22T12:36:40+00:00</time>
        <ele>2052.0</ele>
      </trkpt>
      <trkpt lat="42.799976" lon="-0.138854">
        <time>2023-03-22T12:36:41+00:00</time>
        <ele>2052.0</ele>
      </trkpt>
      <trkpt lat="42.800001" lon="-0.138849">
        <time>2023-03-22T12:36:42+00:00</time>
        <ele>2052.0</ele>
      </trkpt>
      <trkpt lat="42.800023" lon="-0.138847">
        <time>2023-03-22T12:36:43+00:00</time>
        <ele>2052.0</ele>
      </trkpt>
      <trkpt lat="42.800046" lon="-0.138839">
        <time>2023-03-22T12:36:44+00:00</time>
        <ele>2052.0</ele>
      </trkpt>
      <trkpt lat="42.800068" lon="-0.13883">
        <time>2023-03-22T12:36:45+00:00</time>
        <ele>2052.0</ele>
      </trkpt>
      <trkpt lat="42.800087" lon="-0.138825">
        <time>2023-03-22T12:36:46+00:00</time>
        <ele>2051.0</ele>
      </trkpt>
      <trkpt lat="42.800107" lon="-0.138814">
        <time>2023-03-22T12:36:47+00:00</time>
        <ele>2051.0</ele>
      </trkpt>
      <trkpt lat="42.800131" lon="-0.138809">
        <time>2023-03-22T12:36:48+00:00</time>
        <ele>2051.0</ele>
      </trkpt>
      <trkpt lat="42.800153" lon="-0.138799">
        <time>2023-03-22T12:36:49+00:00</time>
        <ele>2051.0</ele>
      </trkpt>
      <trkpt lat="42.800177" lon="-0.138785">
        <time>2023-03-22T12:36:50+00:00</time>
        <ele>2051.0</ele>
      </trkpt>
      <trkpt lat="42.800201" lon="-0.138775">
        <time>2023-03-22T12:36:51+00:00</time>
        <ele>2051.0</ele>
      </trkpt>
      <trkpt lat="42.800225" lon="-0.138765">
        <time>2023-03-22T12:36:52+00:00</time>
        <ele>2051.0</ele>
      </trkpt>
      <trkpt lat="42.800246" lon="-0.138761">
        <time>2023-03-22T12:36:53+00:00</time>
        <ele>2051.0</ele>
      </trkpt>
      <trkpt lat="42.800267" lon="-0.138751">
        <time>2023-03-22T12:36:54+00:00</time>
        <ele>2052.0</ele>
      </trkpt>
      <trkpt lat="42.800288" lon="-0.138742">
        <time>2023-03-22T12:36:55+00:00</time>
        <ele>2052.0</ele>
      </trkpt>
      <trkpt lat="42.800311" lon="-0.13873">
        <time>2023-03-22T12:36:56+00:00</time>
        <ele>2052.0</ele>
      </trkpt>
      <trkpt lat="42.800334" lon="-0.138717">
        <time>2023-03-22T12:36:57+00:00</time>
        <ele>2052.0</ele>
      </trkpt>
      <trkpt lat="42.800357" lon="-0.138714">
        <time>2023-03-22T12:36:58+00:00</time>
        <ele>2052.0</ele>
      </trkpt>
      <trkpt lat="42.800381" lon="-0.138715">
        <time>2023-03-22T12:36:59+00:00</time>
        <ele>2052.0</ele>
      </trkpt>
      <trkpt lat="42.800404" lon="-0.138714">
        <time>2023-03-22T12:37:00+00:00</time>
        <ele>2052.0</ele>
      </trkpt>
      <trkpt lat="42.800429" lon="-0.138717">
        <time>2023-03-22T12:37:01+00:00</time>
        <ele>2052.0</ele>
      </trkpt>
      <trkpt lat="42.800457" lon="-0.138714">
        <time>2023-03-22T12:37:02+00:00</time>
        <ele>2052.0</ele>
      </trkpt>
      <trkpt lat="42.800484" lon="-0.138718">
        <time>2023-03-22T12:37:03+00:00</time>
        <ele>2051.0</ele>
      </trkpt>
      <trkpt lat="42.800508" lon="-0.138727">
        <time>2023-03-22T12:37:04+00:00</time>
        <ele>2051.0</ele>
      </trkpt>
      <trkpt lat="42.800533" lon="-0.138732">
        <time>2023-03-22T12:37:05+00:00</time>
        <ele>2051.0</ele>
      </trkpt>
      <trkpt lat="42.800577" lon="-0.138728">
        <time>2023-03-22T12:37:07+00:00</time>
        <ele>2051.0</ele>
      </trkpt>
      <trkpt lat="42.800597" lon="-0.138726">
        <time>2023-03-22T12:37:08+00:00</time>
        <ele>2051.0</ele>
      </trkpt>
      <trkpt lat="42.800619" lon="-0.138725">
        <time>2023-03-22T12:37:09+00:00</time>
        <ele>2051.0</ele>
      </trkpt>
      <trkpt lat="42.800636" lon="-0.138723">
        <time>2023-03-22T12:37:10+00:00</time>
        <ele>2051.0</ele>
      </trkpt>
      <trkpt lat="42.800656" lon="-0.138721">
        <time>2023-03-22T12:37:11+00:00</time>
        <ele>2051.0</ele>
      </trkpt>
      <trkpt lat="42.800679" lon="-0.138718">
        <time>2023-03-22T12:37:12+00:00</time>
        <ele>2051.0</ele>
      </trkpt>
      <trkpt lat="42.800699" lon="-0.138714">
        <time>2023-03-22T12:37:13+00:00</time>
        <ele>2051.0</ele>
      </trkpt>
      <trkpt lat="42.800725" lon="-0.138712">
        <time>2023-03-22T12:37:14+00:00</time>
        <ele>2050.0</ele>
      </trkpt>
      <trkpt lat="42.800752" lon="-0.1387">
        <time>2023-03-22T12:37:15+00:00</time>
        <ele>2050.0</ele>
      </trkpt>
      <trkpt lat="42.800777" lon="-0.138683">
        <time>2023-03-22T12:37:16+00:00</time>
        <ele>2050.0</ele>
      </trkpt>
      <trkpt lat="42.8008" lon="-0.138676">
        <time>2023-03-22T12:37:17+00:00</time>
        <ele>2050.0</ele>
      </trkpt>
      <trkpt lat="42.800899" lon="-0.13864">
        <time>2023-03-22T12:37:28+00:00</time>
        <ele>2050.0</ele>
      </trkpt>
      <trkpt lat="42.800947" lon="-0.138607">
        <time>2023-03-22T12:37:36+00:00</time>
        <ele>2050.0</ele>
      </trkpt>
      <trkpt lat="42.800967" lon="-0.138587">
        <time>2023-03-22T12:37:39+00:00</time>
        <ele>2050.0</ele>
      </trkpt>
      <trkpt lat="42.800979" lon="-0.138587">
        <time>2023-03-22T12:37:40+00:00</time>
        <ele>2050.0</ele>
      </trkpt>
      <trkpt lat="42.800993" lon="-0.13859">
        <time>2023-03-22T12:37:41+00:00</time>
        <ele>2050.0</ele>
      </trkpt>
      <trkpt lat="42.801006" lon="-0.138592">
        <time>2023-03-22T12:37:42+00:00</time>
        <ele>2050.0</ele>
      </trkpt>
      <trkpt lat="42.801014" lon="-0.138598">
        <time>2023-03-22T12:37:43+00:00</time>
        <ele>2050.0</ele>
      </trkpt>
      <trkpt lat="42.801035" lon="-0.138599">
        <time>2023-03-22T12:37:54+00:00</time>
        <ele>2050.0</ele>
      </trkpt>
      <trkpt lat="42.80107" lon="-0.138608">
        <time>2023-03-22T12:38:04+00:00</time>
        <ele>2050.0</ele>
      </trkpt>
      <trkpt lat="42.801107" lon="-0.138654">
        <time>2023-03-22T12:38:15+00:00</time>
        <ele>2050.0</ele>
      </trkpt>
      <trkpt lat="42.801137" lon="-0.138681">
        <time>2023-03-22T12:38:22+00:00</time>
        <ele>2050.0</ele>
      </trkpt>
      <trkpt lat="42.801148" lon="-0.138688">
        <time>2023-03-22T12:38:23+00:00</time>
        <ele>2050.0</ele>
      </trkpt>
      <trkpt lat="42.801161" lon="-0.138692">
        <time>2023-03-22T12:38:24+00:00</time>
        <ele>2050.0</ele>
      </trkpt>
      <trkpt lat="42.801273" lon="-0.138631">
        <time>2023-03-22T12:38:31+00:00</time>
        <ele>2050.0</ele>
      </trkpt>
      <trkpt lat="42.801296" lon="-0.138623">
        <time>2023-03-22T12:38:32+00:00</time>
        <ele>2050.0</ele>
      </trkpt>
      <trkpt lat="42.801313" lon="-0.138614">
        <time>2023-03-22T12:38:33+00:00</time>
        <ele>2050.0</ele>
      </trkpt>
      <trkpt lat="42.801333" lon="-0.1386">
        <time>2023-03-22T12:38:34+00:00</time>
        <ele>2050.0</ele>
      </trkpt>
      <trkpt lat="42.801353" lon="-0.138592">
        <time>2023-03-22T12:38:35+00:00</time>
        <ele>2050.0</ele>
      </trkpt>
      <trkpt lat="42.801376" lon="-0.138582">
        <time>2023-03-22T12:38:36+00:00</time>
        <ele>2050.0</ele>
      </trkpt>
      <trkpt lat="42.801397" lon="-0.138577">
        <time>2023-03-22T12:38:37+00:00</time>
        <ele>2050.0</ele>
      </trkpt>
      <trkpt lat="42.801419" lon="-0.138573">
        <time>2023-03-22T12:38:38+00:00</time>
        <ele>2050.0</ele>
      </trkpt>
      <trkpt lat="42.801442" lon="-0.138567">
        <time>2023-03-22T12:38:39+00:00</time>
        <ele>2050.0</ele>
      </trkpt>
      <trkpt lat="42.801464" lon="-0.13856">
        <time>2023-03-22T12:38:40+00:00</time>
        <ele>2050.0</ele>
      </trkpt>
      <trkpt lat="42.801488" lon="-0.138557">
        <time>2023-03-22T12:38:41+00:00</time>
        <ele>2050.0</ele>
      </trkpt>
      <trkpt lat="42.801509" lon="-0.138549">
        <time>2023-03-22T12:38:42+00:00</time>
        <ele>2050.0</ele>
      </trkpt>
      <trkpt lat="42.801531" lon="-0.138545">
        <time>2023-03-22T12:38:43+00:00</time>
        <ele>2050.0</ele>
      </trkpt>
      <trkpt lat="42.801554" lon="-0.138536">
        <time>2023-03-22T12:38:44+00:00</time>
        <ele>2050.0</ele>
      </trkpt>
      <trkpt lat="42.801577" lon="-0.138528">
        <time>2023-03-22T12:38:45+00:00</time>
        <ele>2050.0</ele>
      </trkpt>
      <trkpt lat="42.801603" lon="-0.138518">
        <time>2023-03-22T12:38:46+00:00</time>
        <ele>2050.0</ele>
      </trkpt>
      <trkpt lat="42.801627" lon="-0.138507">
        <time>2023-03-22T12:38:47+00:00</time>
        <ele>2050.0</ele>
      </trkpt>
      <trkpt lat="42.801648" lon="-0.138499">
        <time>2023-03-22T12:38:48+00:00</time>
        <ele>2050.0</ele>
      </trkpt>
      <trkpt lat="42.80167" lon="-0.138498">
        <time>2023-03-22T12:38:49+00:00</time>
        <ele>2051.0</ele>
      </trkpt>
      <trkpt lat="42.801691" lon="-0.138488">
        <time>2023-03-22T12:38:50+00:00</time>
        <ele>2050.0</ele>
      </trkpt>
      <trkpt lat="42.801708" lon="-0.138479">
        <time>2023-03-22T12:38:51+00:00</time>
        <ele>2050.0</ele>
      </trkpt>
      <trkpt lat="42.801722" lon="-0.138478">
        <time>2023-03-22T12:38:52+00:00</time>
        <ele>2050.0</ele>
      </trkpt>
      <trkpt lat="42.801734" lon="-0.138472">
        <time>2023-03-22T12:38:53+00:00</time>
        <ele>2050.0</ele>
      </trkpt>
      <trkpt lat="42.801745" lon="-0.138463">
        <time>2023-03-22T12:38:54+00:00</time>
        <ele>2050.0</ele>
      </trkpt>
      <trkpt lat="42.80177" lon="-0.13845">
        <time>2023-03-22T12:38:58+00:00</time>
        <ele>2051.0</ele>
      </trkpt>
      <trkpt lat="42.801782" lon="-0.138458">
        <time>2023-03-22T12:39:00+00:00</time>
        <ele>2051.0</ele>
      </trkpt>
      <trkpt lat="42.8018" lon="-0.138464">
        <time>2023-03-22T12:39:08+00:00</time>
        <ele>2051.0</ele>
      </trkpt>
      <trkpt lat="42.801823" lon="-0.138453">
        <time>2023-03-22T12:39:11+00:00</time>
        <ele>2051.0</ele>
      </trkpt>
      <trkpt lat="42.80182" lon="-0.138431">
        <time>2023-03-22T12:39:20+00:00</time>
        <ele>2051.0</ele>
      </trkpt>
      <trkpt lat="42.801832" lon="-0.138415">
        <time>2023-03-22T12:39:22+00:00</time>
        <ele>2051.0</ele>
      </trkpt>
      <trkpt lat="42.80185" lon="-0.13841">
        <time>2023-03-22T12:39:24+00:00</time>
        <ele>2051.0</ele>
      </trkpt>
      <trkpt lat="42.801864" lon="-0.138407">
        <time>2023-03-22T12:39:25+00:00</time>
        <ele>2051.0</ele>
      </trkpt>
      <trkpt lat="42.80195" lon="-0.138434">
        <time>2023-03-22T12:39:31+00:00</time>
        <ele>2051.0</ele>
      </trkpt>
      <trkpt lat="42.802077" lon="-0.138381">
        <time>2023-03-22T12:39:39+00:00</time>
        <ele>2051.0</ele>
      </trkpt>
      <trkpt lat="42.802196" lon="-0.138349">
        <time>2023-03-22T12:39:47+00:00</time>
        <ele>2051.0</ele>
      </trkpt>
      <trkpt lat="42.802211" lon="-0.138346">
        <time>2023-03-22T12:39:48+00:00</time>
        <ele>2051.0</ele>
      </trkpt>
      <trkpt lat="42.802292" lon="-0.138338">
        <time>2023-03-22T12:39:53+00:00</time>
        <ele>2050.0</ele>
      </trkpt>
      <trkpt lat="42.802309" lon="-0.138362">
        <time>2023-03-22T12:40:04+00:00</time>
        <ele>2051.0</ele>
      </trkpt>
      <trkpt lat="42.802321" lon="-0.138351">
        <time>2023-03-22T12:40:10+00:00</time>
        <ele>2050.0</ele>
      </trkpt>
      <trkpt lat="42.802325" lon="-0.138347">
        <time>2023-03-22T12:40:21+00:00</time>
        <ele>2050.0</ele>
      </trkpt>
      <trkpt lat="42.802322" lon="-0.138346">
        <time>2023-03-22T12:40:27+00:00</time>
        <ele>2050.0</ele>
      </trkpt>
      <trkpt lat="42.802301" lon="-0.138359">
        <time>2023-03-22T12:40:31+00:00</time>
        <ele>2051.0</ele>
      </trkpt>
      <trkpt lat="42.802302" lon="-0.138347">
        <time>2023-03-22T12:40:33+00:00</time>
        <ele>2050.0</ele>
      </trkpt>
      <trkpt lat="42.80232" lon="-0.138351">
        <time>2023-03-22T12:40:37+00:00</time>
        <ele>2050.0</ele>
      </trkpt>
      <trkpt lat="42.80232" lon="-0.138353">
        <time>2023-03-22T12:40:43+00:00</time>
        <ele>2050.0</ele>
      </trkpt>
      <trkpt lat="42.802321" lon="-0.138355">
        <time>2023-03-22T12:40:46+00:00</time>
        <ele>2051.0</ele>
      </trkpt>
      <trkpt lat="42.802316" lon="-0.138348">
        <time>2023-03-22T12:40:48+00:00</time>
        <ele>2050.0</ele>
      </trkpt>
      <trkpt lat="42.80232" lon="-0.138346">
        <time>2023-03-22T12:40:51+00:00</time>
        <ele>2050.0</ele>
      </trkpt>
      <trkpt lat="42.802339" lon="-0.138343">
        <time>2023-03-22T12:40:53+00:00</time>
        <ele>2050.0</ele>
      </trkpt>
      <trkpt lat="42.802388" lon="-0.138328">
        <time>2023-03-22T12:40:59+00:00</time>
        <ele>2050.0</ele>
      </trkpt>
      <trkpt lat="42.80242" lon="-0.138302">
        <time>2023-03-22T12:41:03+00:00</time>
        <ele>2050.0</ele>
      </trkpt>
      <trkpt lat="42.802443" lon="-0.138279">
        <time>2023-03-22T12:41:07+00:00</time>
        <ele>2050.0</ele>
      </trkpt>
      <trkpt lat="42.80255" lon="-0.138174">
        <time>2023-03-22T12:41:21+00:00</time>
        <ele>2050.0</ele>
      </trkpt>
      <trkpt lat="42.802678" lon="-0.138091">
        <time>2023-03-22T12:41:37+00:00</time>
        <ele>2050.0</ele>
      </trkpt>
      <trkpt lat="42.802776" lon="-0.138009">
        <time>2023-03-22T12:41:48+00:00</time>
        <ele>2050.0</ele>
      </trkpt>
      <trkpt lat="42.802926" lon="-0.137938">
        <time>2023-03-22T12:42:02+00:00</time>
        <ele>2051.0</ele>
      </trkpt>
      <trkpt lat="42.802934" lon="-0.137925">
        <time>2023-03-22T12:42:03+00:00</time>
        <ele>2051.0</ele>
      </trkpt>
      <trkpt lat="42.803014" lon="-0.137908">
        <time>2023-03-22T12:42:15+00:00</time>
        <ele>2051.0</ele>
      </trkpt>
      <trkpt lat="42.803015" lon="-0.137878">
        <time>2023-03-22T12:42:29+00:00</time>
        <ele>2051.0</ele>
      </trkpt>
      <trkpt lat="42.802996" lon="-0.137888">
        <time>2023-03-22T12:42:39+00:00</time>
        <ele>2051.0</ele>
      </trkpt>
      <trkpt lat="42.80303" lon="-0.137898">
        <time>2023-03-22T12:42:49+00:00</time>
        <ele>2051.0</ele>
      </trkpt>
      <trkpt lat="42.803074" lon="-0.137906">
        <time>2023-03-22T12:42:52+00:00</time>
        <ele>2051.0</ele>
      </trkpt>
      <trkpt lat="42.803164" lon="-0.137898">
        <time>2023-03-22T12:42:57+00:00</time>
        <ele>2051.0</ele>
      </trkpt>
      <trkpt lat="42.803173" lon="-0.137893">
        <time>2023-03-22T12:42:58+00:00</time>
        <ele>2051.0</ele>
      </trkpt>
      <trkpt lat="42.803187" lon="-0.137889">
        <time>2023-03-22T12:42:59+00:00</time>
        <ele>2051.0</ele>
      </trkpt>
      <trkpt lat="42.803206" lon="-0.137885">
        <time>2023-03-22T12:43:00+00:00</time>
        <ele>2051.0</ele>
      </trkpt>
      <trkpt lat="42.803223" lon="-0.137882">
        <time>2023-03-22T12:43:01+00:00</time>
        <ele>2051.0</ele>
      </trkpt>
      <trkpt lat="42.803471" lon="-0.137858">
        <time>2023-03-22T12:43:09+00:00</time>
        <ele>2048.0</ele>
      </trkpt>
      <trkpt lat="42.803585" lon="-0.137896">
        <time>2023-03-22T12:43:14+00:00</time>
        <ele>2046.0</ele>
      </trkpt>
      <trkpt lat="42.803599" lon="-0.137876">
        <time>2023-03-22T12:43:15+00:00</time>
        <ele>2046.0</ele>
      </trkpt>
      <trkpt lat="42.803604" lon="-0.137854">
        <time>2023-03-22T12:43:16+00:00</time>
        <ele>2046.0</ele>
      </trkpt>
      <trkpt lat="42.803616" lon="-0.137834">
        <time>2023-03-22T12:43:17+00:00</time>
        <ele>2045.0</ele>
      </trkpt>
      <trkpt lat="42.80363" lon="-0.13782">
        <time>2023-03-22T12:43:18+00:00</time>
        <ele>2045.0</ele>
      </trkpt>
      <trkpt lat="42.803643" lon="-0.137806">
        <time>2023-03-22T12:43:19+00:00</time>
        <ele>2045.0</ele>
      </trkpt>
      <trkpt lat="42.803903" lon="-0.137569">
        <time>2023-03-22T12:43:32+00:00</time>
        <ele>2043.0</ele>
      </trkpt>
      <trkpt lat="42.80407" lon="-0.137455">
        <time>2023-03-22T12:43:42+00:00</time>
        <ele>2042.0</ele>
      </trkpt>
      <trkpt lat="42.804179" lon="-0.137442">
        <time>2023-03-22T12:43:50+00:00</time>
        <ele>2040.0</ele>
      </trkpt>
      <trkpt lat="42.804195" lon="-0.137447">
        <time>2023-03-22T12:44:08+00:00</time>
        <ele>2040.0</ele>
      </trkpt>
      <trkpt lat="42.804206" lon="-0.137444">
        <time>2023-03-22T12:44:22+00:00</time>
        <ele>2039.0</ele>
      </trkpt>
      <trkpt lat="42.804214" lon="-0.137435">
        <time>2023-03-22T12:44:23+00:00</time>
        <ele>2039.0</ele>
      </trkpt>
      <trkpt lat="42.804227" lon="-0.137423">
        <time>2023-03-22T12:44:26+00:00</time>
        <ele>2039.0</ele>
      </trkpt>
      <trkpt lat="42.80427" lon="-0.137389">
        <time>2023-03-22T12:44:34+00:00</time>
        <ele>2038.0</ele>
      </trkpt>
      <trkpt lat="42.804288" lon="-0.137409">
        <time>2023-03-22T12:44:43+00:00</time>
        <ele>2038.0</ele>
      </trkpt>
      <trkpt lat="42.804277" lon="-0.137407">
        <time>2023-03-22T12:44:56+00:00</time>
        <ele>2038.0</ele>
      </trkpt>
      <trkpt lat="42.804267" lon="-0.137402">
        <time>2023-03-22T12:45:09+00:00</time>
        <ele>2038.0</ele>
      </trkpt>
      <trkpt lat="42.804262" lon="-0.137406">
        <time>2023-03-22T12:45:10+00:00</time>
        <ele>2038.0</ele>
      </trkpt>
      <trkpt lat="42.804263" lon="-0.137406">
        <time>2023-03-22T12:45:11+00:00</time>
        <ele>2038.0</ele>
      </trkpt>
      <trkpt lat="42.804261" lon="-0.137406">
        <time>2023-03-22T12:45:12+00:00</time>
        <ele>2038.0</ele>
      </trkpt>
      <trkpt lat="42.804284" lon="-0.137393">
        <time>2023-03-22T12:45:28+00:00</time>
        <ele>2038.0</ele>
      </trkpt>
      <trkpt lat="42.804299" lon="-0.137398">
        <time>2023-03-22T12:46:05+00:00</time>
        <ele>2038.0</ele>
      </trkpt>
      <trkpt lat="42.804306" lon="-0.137371">
        <time>2023-03-22T12:46:40+00:00</time>
        <ele>2038.0</ele>
      </trkpt>
      <trkpt lat="42.804302" lon="-0.137364">
        <time>2023-03-22T12:47:09+00:00</time>
        <ele>2038.0</ele>
      </trkpt>
      <trkpt lat="42.804296" lon="-0.1374">
        <time>2023-03-22T12:47:37+00:00</time>
        <ele>2038.0</ele>
      </trkpt>
      <trkpt lat="42.804309" lon="-0.137356">
        <time>2023-03-22T12:48:17+00:00</time>
        <ele>2038.0</ele>
      </trkpt>
      <trkpt lat="42.80429" lon="-0.137369">
        <time>2023-03-22T12:48:36+00:00</time>
        <ele>2038.0</ele>
      </trkpt>
      <trkpt lat="42.804289" lon="-0.137406">
        <time>2023-03-22T12:48:56+00:00</time>
        <ele>2038.0</ele>
      </trkpt>
      <trkpt lat="42.80431" lon="-0.137396">
        <time>2023-03-22T12:49:27+00:00</time>
        <ele>2038.0</ele>
      </trkpt>
      <trkpt lat="42.804284" lon="-0.137369">
        <time>2023-03-22T12:49:53+00:00</time>
        <ele>2038.0</ele>
      </trkpt>
      <trkpt lat="42.804284" lon="-0.13736">
        <time>2023-03-22T12:49:59+00:00</time>
        <ele>2039.0</ele>
      </trkpt>
      <trkpt lat="42.804286" lon="-0.137369">
        <time>2023-03-22T12:50:01+00:00</time>
        <ele>2038.0</ele>
      </trkpt>
      <trkpt lat="42.804283" lon="-0.137398">
        <time>2023-03-22T12:50:27+00:00</time>
        <ele>2038.0</ele>
      </trkpt>
      <trkpt lat="42.804276" lon="-0.1374">
        <time>2023-03-22T12:50:43+00:00</time>
        <ele>2038.0</ele>
      </trkpt>
      <trkpt lat="42.804275" lon="-0.137399">
        <time>2023-03-22T12:51:13+00:00</time>
        <ele>2038.0</ele>
      </trkpt>
      <trkpt lat="42.804258" lon="-0.137435">
        <time>2023-03-22T12:51:28+00:00</time>
        <ele>2038.0</ele>
      </trkpt>
      <trkpt lat="42.804288" lon="-0.137387">
        <time>2023-03-22T12:51:43+00:00</time>
        <ele>2038.0</ele>
      </trkpt>
      <trkpt lat="42.804281" lon="-0.137394">
        <time>2023-03-22T12:52:01+00:00</time>
        <ele>2038.0</ele>
      </trkpt>
      <trkpt lat="42.804302" lon="-0.137415">
        <time>2023-03-22T12:52:16+00:00</time>
        <ele>2038.0</ele>
      </trkpt>
      <trkpt lat="42.804359" lon="-0.137408">
        <time>2023-03-22T12:52:27+00:00</time>
        <ele>2037.0</ele>
      </trkpt>
      <trkpt lat="42.804407" lon="-0.137417">
        <time>2023-03-22T12:52:35+00:00</time>
        <ele>2036.0</ele>
      </trkpt>
      <trkpt lat="42.804425" lon="-0.137418">
        <time>2023-03-22T12:52:37+00:00</time>
        <ele>2036.0</ele>
      </trkpt>
      <trkpt lat="42.804545" lon="-0.137442">
        <time>2023-03-22T12:52:51+00:00</time>
        <ele>2033.0</ele>
      </trkpt>
      <trkpt lat="42.804671" lon="-0.137463">
        <time>2023-03-22T12:53:06+00:00</time>
        <ele>2030.0</ele>
      </trkpt>
      <trkpt lat="42.80474" lon="-0.137436">
        <time>2023-03-22T12:53:17+00:00</time>
        <ele>2029.0</ele>
      </trkpt>
      <trkpt lat="42.804819" lon="-0.137422">
        <time>2023-03-22T12:53:26+00:00</time>
        <ele>2027.0</ele>
      </trkpt>
      <trkpt lat="42.804828" lon="-0.137416">
        <time>2023-03-22T12:53:27+00:00</time>
        <ele>2027.0</ele>
      </trkpt>
      <trkpt lat="42.804839" lon="-0.137411">
        <time>2023-03-22T12:53:28+00:00</time>
        <ele>2026.0</ele>
      </trkpt>
      <trkpt lat="42.804961" lon="-0.13737">
        <time>2023-03-22T12:53:40+00:00</time>
        <ele>2025.0</ele>
      </trkpt>
      <trkpt lat="42.805003" lon="-0.137386">
        <time>2023-03-22T12:53:53+00:00</time>
        <ele>2024.0</ele>
      </trkpt>
      <trkpt lat="42.805" lon="-0.137393">
        <time>2023-03-22T12:54:03+00:00</time>
        <ele>2024.0</ele>
      </trkpt>
      <trkpt lat="42.805014" lon="-0.137398">
        <time>2023-03-22T12:54:23+00:00</time>
        <ele>2023.0</ele>
      </trkpt>
      <trkpt lat="42.804995" lon="-0.13741">
        <time>2023-03-22T12:54:43+00:00</time>
        <ele>2023.0</ele>
      </trkpt>
      <trkpt lat="42.805024" lon="-0.137386">
        <time>2023-03-22T12:54:48+00:00</time>
        <ele>2023.0</ele>
      </trkpt>
      <trkpt lat="42.805127" lon="-0.137403">
        <time>2023-03-22T12:54:58+00:00</time>
        <ele>2020.0</ele>
      </trkpt>
      <trkpt lat="42.805137" lon="-0.137413">
        <time>2023-03-22T12:54:59+00:00</time>
        <ele>2019.0</ele>
      </trkpt>
      <trkpt lat="42.805233" lon="-0.137466">
        <time>2023-03-22T12:55:13+00:00</time>
        <ele>2017.0</ele>
      </trkpt>
      <trkpt lat="42.805271" lon="-0.137483">
        <time>2023-03-22T12:55:18+00:00</time>
        <ele>2016.0</ele>
      </trkpt>
      <trkpt lat="42.805318" lon="-0.137521">
        <time>2023-03-22T12:55:24+00:00</time>
        <ele>2014.0</ele>
      </trkpt>
      <trkpt lat="42.805439" lon="-0.137566">
        <time>2023-03-22T12:55:38+00:00</time>
        <ele>2010.0</ele>
      </trkpt>
      <trkpt lat="42.805496" lon="-0.137639">
        <time>2023-03-22T12:55:49+00:00</time>
        <ele>2009.0</ele>
      </trkpt>
      <trkpt lat="42.805565" lon="-0.137682">
        <time>2023-03-22T12:55:59+00:00</time>
        <ele>2008.0</ele>
      </trkpt>
      <trkpt lat="42.805578" lon="-0.13768">
        <time>2023-03-22T12:56:00+00:00</time>
        <ele>2008.0</ele>
      </trkpt>
      <trkpt lat="42.805678" lon="-0.137684">
        <time>2023-03-22T12:56:12+00:00</time>
        <ele>2006.0</ele>
      </trkpt>
      <trkpt lat="42.805687" lon="-0.137669">
        <time>2023-03-22T12:56:13+00:00</time>
        <ele>2006.0</ele>
      </trkpt>
      <trkpt lat="42.805697" lon="-0.137657">
        <time>2023-03-22T12:56:14+00:00</time>
        <ele>2006.0</ele>
      </trkpt>
      <trkpt lat="42.805705" lon="-0.137646">
        <time>2023-03-22T12:56:15+00:00</time>
        <ele>2005.0</ele>
      </trkpt>
      <trkpt lat="42.805715" lon="-0.137641">
        <time>2023-03-22T12:56:16+00:00</time>
        <ele>2005.0</ele>
      </trkpt>
      <trkpt lat="42.805736" lon="-0.137602">
        <time>2023-03-22T12:56:21+00:00</time>
        <ele>2005.0</ele>
      </trkpt>
      <trkpt lat="42.805818" lon="-0.137476">
        <time>2023-03-22T12:56:36+00:00</time>
        <ele>2002.0</ele>
      </trkpt>
      <trkpt lat="42.805824" lon="-0.137456">
        <time>2023-03-22T12:56:37+00:00</time>
        <ele>2002.0</ele>
      </trkpt>
      <trkpt lat="42.805841" lon="-0.137438">
        <time>2023-03-22T12:56:39+00:00</time>
        <ele>2002.0</ele>
      </trkpt>
      <trkpt lat="42.805879" lon="-0.137301">
        <time>2023-03-22T12:56:49+00:00</time>
        <ele>2001.0</ele>
      </trkpt>
      <trkpt lat="42.805876" lon="-0.137285">
        <time>2023-03-22T12:56:50+00:00</time>
        <ele>2001.0</ele>
      </trkpt>
      <trkpt lat="42.805876" lon="-0.137271">
        <time>2023-03-22T12:56:51+00:00</time>
        <ele>2000.0</ele>
      </trkpt>
      <trkpt lat="42.805879" lon="-0.137254">
        <time>2023-03-22T12:56:52+00:00</time>
        <ele>2000.0</ele>
      </trkpt>
      <trkpt lat="42.805883" lon="-0.137239">
        <time>2023-03-22T12:56:53+00:00</time>
        <ele>2000.0</ele>
      </trkpt>
      <trkpt lat="42.805889" lon="-0.137222">
        <time>2023-03-22T12:56:54+00:00</time>
        <ele>2000.0</ele>
      </trkpt>
      <trkpt lat="42.805898" lon="-0.137213">
        <time>2023-03-22T12:56:55+00:00</time>
        <ele>2000.0</ele>
      </trkpt>
      <trkpt lat="42.805907" lon="-0.137203">
        <time>2023-03-22T12:56:56+00:00</time>
        <ele>2000.0</ele>
      </trkpt>
      <trkpt lat="42.805913" lon="-0.13719">
        <time>2023-03-22T12:56:57+00:00</time>
        <ele>1999.0</ele>
      </trkpt>
      <trkpt lat="42.805919" lon="-0.137178">
        <time>2023-03-22T12:56:58+00:00</time>
        <ele>1999.0</ele>
      </trkpt>
      <trkpt lat="42.805974" lon="-0.137108">
        <time>2023-03-22T12:57:04+00:00</time>
        <ele>1998.0</ele>
      </trkpt>
      <trkpt lat="42.80598" lon="-0.137108">
        <time>2023-03-22T12:57:05+00:00</time>
        <ele>1997.0</ele>
      </trkpt>
      <trkpt lat="42.806059" lon="-0.137047">
        <time>2023-03-22T12:57:15+00:00</time>
        <ele>1996.0</ele>
      </trkpt>
      <trkpt lat="42.80606" lon="-0.137028">
        <time>2023-03-22T12:57:16+00:00</time>
        <ele>1996.0</ele>
      </trkpt>
      <trkpt lat="42.806065" lon="-0.137015">
        <time>2023-03-22T12:57:17+00:00</time>
        <ele>1996.0</ele>
      </trkpt>
      <trkpt lat="42.806167" lon="-0.136889">
        <time>2023-03-22T12:57:31+00:00</time>
        <ele>1994.0</ele>
      </trkpt>
      <trkpt lat="42.806176" lon="-0.136849">
        <time>2023-03-22T12:57:34+00:00</time>
        <ele>1993.0</ele>
      </trkpt>
      <trkpt lat="42.806176" lon="-0.136832">
        <time>2023-03-22T12:57:35+00:00</time>
        <ele>1993.0</ele>
      </trkpt>
      <trkpt lat="42.806178" lon="-0.136818">
        <time>2023-03-22T12:57:36+00:00</time>
        <ele>1993.0</ele>
      </trkpt>
      <trkpt lat="42.806186" lon="-0.136811">
        <time>2023-03-22T12:57:37+00:00</time>
        <ele>1993.0</ele>
      </trkpt>
      <trkpt lat="42.806195" lon="-0.136809">
        <time>2023-03-22T12:57:38+00:00</time>
        <ele>1993.0</ele>
      </trkpt>
      <trkpt lat="42.806257" lon="-0.136713">
        <time>2023-03-22T12:57:48+00:00</time>
        <ele>1991.0</ele>
      </trkpt>
      <trkpt lat="42.806263" lon="-0.136698">
        <time>2023-03-22T12:57:49+00:00</time>
        <ele>1991.0</ele>
      </trkpt>
      <trkpt lat="42.806307" lon="-0.136637">
        <time>2023-03-22T12:57:55+00:00</time>
        <ele>1991.0</ele>
      </trkpt>
      <trkpt lat="42.806317" lon="-0.136629">
        <time>2023-03-22T12:57:56+00:00</time>
        <ele>1991.0</ele>
      </trkpt>
      <trkpt lat="42.806447" lon="-0.136541">
        <time>2023-03-22T12:58:08+00:00</time>
        <ele>1989.0</ele>
      </trkpt>
      <trkpt lat="42.806461" lon="-0.136542">
        <time>2023-03-22T12:58:09+00:00</time>
        <ele>1989.0</ele>
      </trkpt>
      <trkpt lat="42.806538" lon="-0.136531">
        <time>2023-03-22T12:58:16+00:00</time>
        <ele>1989.0</ele>
      </trkpt>
      <trkpt lat="42.806548" lon="-0.136525">
        <time>2023-03-22T12:58:17+00:00</time>
        <ele>1989.0</ele>
      </trkpt>
      <trkpt lat="42.806561" lon="-0.136527">
        <time>2023-03-22T12:58:18+00:00</time>
        <ele>1989.0</ele>
      </trkpt>
      <trkpt lat="42.806571" lon="-0.136532">
        <time>2023-03-22T12:58:19+00:00</time>
        <ele>1988.0</ele>
      </trkpt>
      <trkpt lat="42.806591" lon="-0.136534">
        <time>2023-03-22T12:58:21+00:00</time>
        <ele>1988.0</ele>
      </trkpt>
      <trkpt lat="42.806598" lon="-0.136519">
        <time>2023-03-22T12:58:22+00:00</time>
        <ele>1988.0</ele>
      </trkpt>
      <trkpt lat="42.806606" lon="-0.136511">
        <time>2023-03-22T12:58:23+00:00</time>
        <ele>1988.0</ele>
      </trkpt>
      <trkpt lat="42.806619" lon="-0.136505">
        <time>2023-03-22T12:58:24+00:00</time>
        <ele>1988.0</ele>
      </trkpt>
      <trkpt lat="42.806629" lon="-0.136501">
        <time>2023-03-22T12:58:25+00:00</time>
        <ele>1988.0</ele>
      </trkpt>
      <trkpt lat="42.8067" lon="-0.136472">
        <time>2023-03-22T12:58:38+00:00</time>
        <ele>1988.0</ele>
      </trkpt>
      <trkpt lat="42.806711" lon="-0.136471">
        <time>2023-03-22T12:58:39+00:00</time>
        <ele>1988.0</ele>
      </trkpt>
      <trkpt lat="42.80672" lon="-0.136465">
        <time>2023-03-22T12:58:40+00:00</time>
        <ele>1988.0</ele>
      </trkpt>
      <trkpt lat="42.806727" lon="-0.136457">
        <time>2023-03-22T12:58:41+00:00</time>
        <ele>1988.0</ele>
      </trkpt>
      <trkpt lat="42.80689" lon="-0.13629">
        <time>2023-03-22T12:58:58+00:00</time>
        <ele>1987.0</ele>
      </trkpt>
      <trkpt lat="42.80709" lon="-0.136236">
        <time>2023-03-22T12:59:14+00:00</time>
        <ele>1987.0</ele>
      </trkpt>
      <trkpt lat="42.807194" lon="-0.13622">
        <time>2023-03-22T12:59:22+00:00</time>
        <ele>1987.0</ele>
      </trkpt>
      <trkpt lat="42.80724" lon="-0.136265">
        <time>2023-03-22T12:59:26+00:00</time>
        <ele>1986.0</ele>
      </trkpt>
      <trkpt lat="42.807434" lon="-0.13646">
        <time>2023-03-22T12:59:45+00:00</time>
        <ele>1986.0</ele>
      </trkpt>
      <trkpt lat="42.807484" lon="-0.136514">
        <time>2023-03-22T12:59:50+00:00</time>
        <ele>1986.0</ele>
      </trkpt>
      <trkpt lat="42.8075" lon="-0.136539">
        <time>2023-03-22T12:59:54+00:00</time>
        <ele>1986.0</ele>
      </trkpt>
      <trkpt lat="42.807533" lon="-0.136552">
        <time>2023-03-22T12:59:58+00:00</time>
        <ele>1986.0</ele>
      </trkpt>
      <trkpt lat="42.807649" lon="-0.136631">
        <time>2023-03-22T13:00:09+00:00</time>
        <ele>1986.0</ele>
      </trkpt>
      <trkpt lat="42.807688" lon="-0.136662">
        <time>2023-03-22T13:00:13+00:00</time>
        <ele>1986.0</ele>
      </trkpt>
      <trkpt lat="42.807727" lon="-0.136679">
        <time>2023-03-22T13:00:17+00:00</time>
        <ele>1986.0</ele>
      </trkpt>
      <trkpt lat="42.807847" lon="-0.136695">
        <time>2023-03-22T13:00:30+00:00</time>
        <ele>1986.0</ele>
      </trkpt>
      <trkpt lat="42.80795" lon="-0.136685">
        <time>2023-03-22T13:00:41+00:00</time>
        <ele>1986.0</ele>
      </trkpt>
      <trkpt lat="42.808019" lon="-0.136718">
        <time>2023-03-22T13:00:47+00:00</time>
        <ele>1986.0</ele>
      </trkpt>
      <trkpt lat="42.808053" lon="-0.136754">
        <time>2023-03-22T13:00:51+00:00</time>
        <ele>1986.0</ele>
      </trkpt>
      <trkpt lat="42.808094" lon="-0.13677">
        <time>2023-03-22T13:00:55+00:00</time>
        <ele>1986.0</ele>
      </trkpt>
      <trkpt lat="42.808157" lon="-0.136803">
        <time>2023-03-22T13:01:02+00:00</time>
        <ele>1986.0</ele>
      </trkpt>
      <trkpt lat="42.808183" lon="-0.136811">
        <time>2023-03-22T13:01:06+00:00</time>
        <ele>1986.0</ele>
      </trkpt>
      <trkpt lat="42.808216" lon="-0.13681">
        <time>2023-03-22T13:01:10+00:00</time>
        <ele>1986.0</ele>
      </trkpt>
      <trkpt lat="42.808395" lon="-0.136881">
        <time>2023-03-22T13:01:27+00:00</time>
        <ele>1985.0</ele>
      </trkpt>
      <trkpt lat="42.808489" lon="-0.136896">
        <time>2023-03-22T13:01:38+00:00</time>
        <ele>1984.0</ele>
      </trkpt>
      <trkpt lat="42.808567" lon="-0.136899">
        <time>2023-03-22T13:01:49+00:00</time>
        <ele>1984.0</ele>
      </trkpt>
      <trkpt lat="42.808586" lon="-0.136872">
        <time>2023-03-22T13:01:52+00:00</time>
        <ele>1984.0</ele>
      </trkpt>
      <trkpt lat="42.808723" lon="-0.136831">
        <time>2023-03-22T13:02:06+00:00</time>
        <ele>1983.0</ele>
      </trkpt>
      <trkpt lat="42.808722" lon="-0.136774">
        <time>2023-03-22T13:02:11+00:00</time>
        <ele>1984.0</ele>
      </trkpt>
      <trkpt lat="42.808653" lon="-0.136638">
        <time>2023-03-22T13:02:21+00:00</time>
        <ele>1987.0</ele>
      </trkpt>
      <trkpt lat="42.808663" lon="-0.136514">
        <time>2023-03-22T13:02:30+00:00</time>
        <ele>1989.0</ele>
      </trkpt>
      <trkpt lat="42.808696" lon="-0.13647">
        <time>2023-03-22T13:02:34+00:00</time>
        <ele>1990.0</ele>
      </trkpt>
      <trkpt lat="42.808886" lon="-0.13645">
        <time>2023-03-22T13:02:51+00:00</time>
        <ele>1991.0</ele>
      </trkpt>
      <trkpt lat="42.809011" lon="-0.136522">
        <time>2023-03-22T13:03:02+00:00</time>
        <ele>1989.0</ele>
      </trkpt>
      <trkpt lat="42.809191" lon="-0.136701">
        <time>2023-03-22T13:03:21+00:00</time>
        <ele>1986.0</ele>
      </trkpt>
      <trkpt lat="42.809222" lon="-0.136735">
        <time>2023-03-22T13:03:25+00:00</time>
        <ele>1986.0</ele>
      </trkpt>
      <trkpt lat="42.809238" lon="-0.136777">
        <time>2023-03-22T13:03:28+00:00</time>
        <ele>1985.0</ele>
      </trkpt>
      <trkpt lat="42.809377" lon="-0.136965">
        <time>2023-03-22T13:03:45+00:00</time>
        <ele>1982.0</ele>
      </trkpt>
      <trkpt lat="42.809468" lon="-0.13712">
        <time>2023-03-22T13:03:58+00:00</time>
        <ele>1980.0</ele>
      </trkpt>
      <trkpt lat="42.809588" lon="-0.137238">
        <time>2023-03-22T13:04:12+00:00</time>
        <ele>1979.0</ele>
      </trkpt>
      <trkpt lat="42.809679" lon="-0.137377">
        <time>2023-03-22T13:04:25+00:00</time>
        <ele>1977.0</ele>
      </trkpt>
      <trkpt lat="42.809677" lon="-0.137387">
        <time>2023-03-22T13:04:26+00:00</time>
        <ele>1977.0</ele>
      </trkpt>
      <trkpt lat="42.809714" lon="-0.137463">
        <time>2023-03-22T13:04:33+00:00</time>
        <ele>1976.0</ele>
      </trkpt>
      <trkpt lat="42.809809" lon="-0.137554">
        <time>2023-03-22T13:04:44+00:00</time>
        <ele>1976.0</ele>
      </trkpt>
      <trkpt lat="42.809819" lon="-0.137561">
        <time>2023-03-22T13:04:45+00:00</time>
        <ele>1976.0</ele>
      </trkpt>
      <trkpt lat="42.809855" lon="-0.137602">
        <time>2023-03-22T13:04:50+00:00</time>
        <ele>1976.0</ele>
      </trkpt>
      <trkpt lat="42.809937" lon="-0.137721">
        <time>2023-03-22T13:05:01+00:00</time>
        <ele>1976.0</ele>
      </trkpt>
      <trkpt lat="42.809959" lon="-0.13778">
        <time>2023-03-22T13:05:05+00:00</time>
        <ele>1975.0</ele>
      </trkpt>
      <trkpt lat="42.809994" lon="-0.137879">
        <time>2023-03-22T13:05:15+00:00</time>
        <ele>1975.0</ele>
      </trkpt>
      <trkpt lat="42.810108" lon="-0.137978">
        <time>2023-03-22T13:05:30+00:00</time>
        <ele>1975.0</ele>
      </trkpt>
      <trkpt lat="42.810174" lon="-0.13802">
        <time>2023-03-22T13:05:37+00:00</time>
        <ele>1974.0</ele>
      </trkpt>
      <trkpt lat="42.810285" lon="-0.138087">
        <time>2023-03-22T13:05:49+00:00</time>
        <ele>1973.0</ele>
      </trkpt>
      <trkpt lat="42.810335" lon="-0.138136">
        <time>2023-03-22T13:05:55+00:00</time>
        <ele>1973.0</ele>
      </trkpt>
      <trkpt lat="42.810434" lon="-0.138149">
        <time>2023-03-22T13:06:05+00:00</time>
        <ele>1973.0</ele>
      </trkpt>
      <trkpt lat="42.810555" lon="-0.13817">
        <time>2023-03-22T13:06:20+00:00</time>
        <ele>1972.0</ele>
      </trkpt>
      <trkpt lat="42.810608" lon="-0.138182">
        <time>2023-03-22T13:06:27+00:00</time>
        <ele>1972.0</ele>
      </trkpt>
      <trkpt lat="42.810676" lon="-0.138152">
        <time>2023-03-22T13:06:35+00:00</time>
        <ele>1972.0</ele>
      </trkpt>
      <trkpt lat="42.810739" lon="-0.138125">
        <time>2023-03-22T13:06:43+00:00</time>
        <ele>1972.0</ele>
      </trkpt>
      <trkpt lat="42.810811" lon="-0.138067">
        <time>2023-03-22T13:06:54+00:00</time>
        <ele>1972.0</ele>
      </trkpt>
      <trkpt lat="42.810839" lon="-0.138013">
        <time>2023-03-22T13:06:59+00:00</time>
        <ele>1972.0</ele>
      </trkpt>
      <trkpt lat="42.810888" lon="-0.137947">
        <time>2023-03-22T13:07:06+00:00</time>
        <ele>1971.0</ele>
      </trkpt>
      <trkpt lat="42.81095" lon="-0.137846">
        <time>2023-03-22T13:07:19+00:00</time>
        <ele>1972.0</ele>
      </trkpt>
      <trkpt lat="42.811031" lon="-0.137731">
        <time>2023-03-22T13:07:34+00:00</time>
        <ele>1972.0</ele>
      </trkpt>
      <trkpt lat="42.811135" lon="-0.137665">
        <time>2023-03-22T13:07:49+00:00</time>
        <ele>1969.0</ele>
      </trkpt>
      <trkpt lat="42.811216" lon="-0.137704">
        <time>2023-03-22T13:08:01+00:00</time>
        <ele>1965.0</ele>
      </trkpt>
      <trkpt lat="42.811352" lon="-0.13769">
        <time>2023-03-22T13:08:19+00:00</time>
        <ele>1960.0</ele>
      </trkpt>
      <trkpt lat="42.81138" lon="-0.137682">
        <time>2023-03-22T13:08:22+00:00</time>
        <ele>1960.0</ele>
      </trkpt>
      <trkpt lat="42.811529" lon="-0.137701">
        <time>2023-03-22T13:08:36+00:00</time>
        <ele>1956.0</ele>
      </trkpt>
      <trkpt lat="42.81155" lon="-0.137702">
        <time>2023-03-22T13:08:38+00:00</time>
        <ele>1955.0</ele>
      </trkpt>
      <trkpt lat="42.811624" lon="-0.137697">
        <time>2023-03-22T13:08:45+00:00</time>
        <ele>1955.0</ele>
      </trkpt>
      <trkpt lat="42.811757" lon="-0.137729">
        <time>2023-03-22T13:08:57+00:00</time>
        <ele>1953.0</ele>
      </trkpt>
      <trkpt lat="42.811838" lon="-0.137738">
        <time>2023-03-22T13:09:04+00:00</time>
        <ele>1953.0</ele>
      </trkpt>
      <trkpt lat="42.81187" lon="-0.137717">
        <time>2023-03-22T13:09:07+00:00</time>
        <ele>1954.0</ele>
      </trkpt>
      <trkpt lat="42.812009" lon="-0.137682">
        <time>2023-03-22T13:09:22+00:00</time>
        <ele>1954.0</ele>
      </trkpt>
      <trkpt lat="42.812101" lon="-0.137676">
        <time>2023-03-22T13:09:31+00:00</time>
        <ele>1953.0</ele>
      </trkpt>
      <trkpt lat="42.812195" lon="-0.137665">
        <time>2023-03-22T13:09:39+00:00</time>
        <ele>1953.0</ele>
      </trkpt>
      <trkpt lat="42.812254" lon="-0.137645">
        <time>2023-03-22T13:09:44+00:00</time>
        <ele>1953.0</ele>
      </trkpt>
      <trkpt lat="42.812325" lon="-0.13769">
        <time>2023-03-22T13:09:54+00:00</time>
        <ele>1951.0</ele>
      </trkpt>
      <trkpt lat="42.812423" lon="-0.137702">
        <time>2023-03-22T13:10:05+00:00</time>
        <ele>1950.0</ele>
      </trkpt>
      <trkpt lat="42.812505" lon="-0.137722">
        <time>2023-03-22T13:10:13+00:00</time>
        <ele>1950.0</ele>
      </trkpt>
      <trkpt lat="42.812559" lon="-0.137699">
        <time>2023-03-22T13:10:19+00:00</time>
        <ele>1950.0</ele>
      </trkpt>
      <trkpt lat="42.812593" lon="-0.137711">
        <time>2023-03-22T13:10:22+00:00</time>
        <ele>1950.0</ele>
      </trkpt>
      <trkpt lat="42.812665" lon="-0.137708">
        <time>2023-03-22T13:10:29+00:00</time>
        <ele>1951.0</ele>
      </trkpt>
      <trkpt lat="42.812809" lon="-0.137813">
        <time>2023-03-22T13:10:42+00:00</time>
        <ele>1948.0</ele>
      </trkpt>
      <trkpt lat="42.812884" lon="-0.137883">
        <time>2023-03-22T13:10:51+00:00</time>
        <ele>1946.0</ele>
      </trkpt>
      <trkpt lat="42.812907" lon="-0.137887">
        <time>2023-03-22T13:10:54+00:00</time>
        <ele>1946.0</ele>
      </trkpt>
      <trkpt lat="42.812973" lon="-0.13778">
        <time>2023-03-22T13:11:08+00:00</time>
        <ele>1949.0</ele>
      </trkpt>
      <trkpt lat="42.81306" lon="-0.137738">
        <time>2023-03-22T13:11:19+00:00</time>
        <ele>1950.0</ele>
      </trkpt>
      <trkpt lat="42.813071" lon="-0.13774">
        <time>2023-03-22T13:11:20+00:00</time>
        <ele>1950.0</ele>
      </trkpt>
      <trkpt lat="42.813182" lon="-0.137794">
        <time>2023-03-22T13:11:34+00:00</time>
        <ele>1949.0</ele>
      </trkpt>
      <trkpt lat="42.813298" lon="-0.137813">
        <time>2023-03-22T13:11:47+00:00</time>
        <ele>1948.0</ele>
      </trkpt>
      <trkpt lat="42.813324" lon="-0.137813">
        <time>2023-03-22T13:11:50+00:00</time>
        <ele>1948.0</ele>
      </trkpt>
      <trkpt lat="42.81343" lon="-0.137798">
        <time>2023-03-22T13:12:04+00:00</time>
        <ele>1945.0</ele>
      </trkpt>
      <trkpt lat="42.813436" lon="-0.137773">
        <time>2023-03-22T13:12:16+00:00</time>
        <ele>1946.0</ele>
      </trkpt>
      <trkpt lat="42.813446" lon="-0.137743">
        <time>2023-03-22T13:12:41+00:00</time>
        <ele>1947.0</ele>
      </trkpt>
      <trkpt lat="42.813449" lon="-0.13773">
        <time>2023-03-22T13:12:43+00:00</time>
        <ele>1947.0</ele>
      </trkpt>
      <trkpt lat="42.813479" lon="-0.13769">
        <time>2023-03-22T13:12:48+00:00</time>
        <ele>1948.0</ele>
      </trkpt>
      <trkpt lat="42.813507" lon="-0.137658">
        <time>2023-03-22T13:12:52+00:00</time>
        <ele>1948.0</ele>
      </trkpt>
      <trkpt lat="42.813641" lon="-0.137588">
        <time>2023-03-22T13:13:06+00:00</time>
        <ele>1948.0</ele>
      </trkpt>
      <trkpt lat="42.813765" lon="-0.137545">
        <time>2023-03-22T13:13:21+00:00</time>
        <ele>1946.0</ele>
      </trkpt>
      <trkpt lat="42.813861" lon="-0.137473">
        <time>2023-03-22T13:13:35+00:00</time>
        <ele>1945.0</ele>
      </trkpt>
      <trkpt lat="42.813965" lon="-0.137395">
        <time>2023-03-22T13:13:50+00:00</time>
        <ele>1942.0</ele>
      </trkpt>
      <trkpt lat="42.814024" lon="-0.137305">
        <time>2023-03-22T13:14:03+00:00</time>
        <ele>1942.0</ele>
      </trkpt>
      <trkpt lat="42.814115" lon="-0.137134">
        <time>2023-03-22T13:14:20+00:00</time>
        <ele>1944.0</ele>
      </trkpt>
      <trkpt lat="42.814225" lon="-0.13707">
        <time>2023-03-22T13:14:33+00:00</time>
        <ele>1940.0</ele>
      </trkpt>
      <trkpt lat="42.81425" lon="-0.137026">
        <time>2023-03-22T13:14:37+00:00</time>
        <ele>1940.0</ele>
      </trkpt>
      <trkpt lat="42.814289" lon="-0.137026">
        <time>2023-03-22T13:14:41+00:00</time>
        <ele>1938.0</ele>
      </trkpt>
      <trkpt lat="42.814442" lon="-0.137031">
        <time>2023-03-22T13:14:58+00:00</time>
        <ele>1929.0</ele>
      </trkpt>
      <trkpt lat="42.814543" lon="-0.137004">
        <time>2023-03-22T13:15:10+00:00</time>
        <ele>1926.0</ele>
      </trkpt>
      <trkpt lat="42.814643" lon="-0.136972">
        <time>2023-03-22T13:15:24+00:00</time>
        <ele>1924.0</ele>
      </trkpt>
      <trkpt lat="42.814663" lon="-0.136985">
        <time>2023-03-22T13:15:27+00:00</time>
        <ele>1923.0</ele>
      </trkpt>
      <trkpt lat="42.81466" lon="-0.137013">
        <time>2023-03-22T13:15:30+00:00</time>
        <ele>1922.0</ele>
      </trkpt>
      <trkpt lat="42.814611" lon="-0.137157">
        <time>2023-03-22T13:15:46+00:00</time>
        <ele>1916.0</ele>
      </trkpt>
      <trkpt lat="42.81461" lon="-0.137191">
        <time>2023-03-22T13:15:58+00:00</time>
        <ele>1914.0</ele>
      </trkpt>
      <trkpt lat="42.814659" lon="-0.137186">
        <time>2023-03-22T13:16:05+00:00</time>
        <ele>1913.0</ele>
      </trkpt>
      <trkpt lat="42.814687" lon="-0.137178">
        <time>2023-03-22T13:16:09+00:00</time>
        <ele>1912.0</ele>
      </trkpt>
      <trkpt lat="42.814827" lon="-0.137182">
        <time>2023-03-22T13:16:25+00:00</time>
        <ele>1910.0</ele>
      </trkpt>
      <trkpt lat="42.814916" lon="-0.137215">
        <time>2023-03-22T13:16:39+00:00</time>
        <ele>1906.0</ele>
      </trkpt>
      <trkpt lat="42.815054" lon="-0.137209">
        <time>2023-03-22T13:16:55+00:00</time>
        <ele>1905.0</ele>
      </trkpt>
      <trkpt lat="42.815138" lon="-0.137205">
        <time>2023-03-22T13:17:04+00:00</time>
        <ele>1905.0</ele>
      </trkpt>
      <trkpt lat="42.815304" lon="-0.13729">
        <time>2023-03-22T13:17:20+00:00</time>
        <ele>1900.0</ele>
      </trkpt>
      <trkpt lat="42.815313" lon="-0.137302">
        <time>2023-03-22T13:17:21+00:00</time>
        <ele>1899.0</ele>
      </trkpt>
      <trkpt lat="42.815458" lon="-0.137324">
        <time>2023-03-22T13:17:35+00:00</time>
        <ele>1899.0</ele>
      </trkpt>
      <trkpt lat="42.815588" lon="-0.13742">
        <time>2023-03-22T13:17:48+00:00</time>
        <ele>1892.0</ele>
      </trkpt>
      <trkpt lat="42.81561" lon="-0.137429">
        <time>2023-03-22T13:17:50+00:00</time>
        <ele>1892.0</ele>
      </trkpt>
      <trkpt lat="42.815692" lon="-0.13749">
        <time>2023-03-22T13:18:04+00:00</time>
        <ele>1889.0</ele>
      </trkpt>
      <trkpt lat="42.815806" lon="-0.137502">
        <time>2023-03-22T13:18:18+00:00</time>
        <ele>1885.0</ele>
      </trkpt>
      <trkpt lat="42.815829" lon="-0.137484">
        <time>2023-03-22T13:18:22+00:00</time>
        <ele>1885.0</ele>
      </trkpt>
      <trkpt lat="42.815871" lon="-0.137405">
        <time>2023-03-22T13:18:30+00:00</time>
        <ele>1887.0</ele>
      </trkpt>
      <trkpt lat="42.815885" lon="-0.137386">
        <time>2023-03-22T13:18:32+00:00</time>
        <ele>1888.0</ele>
      </trkpt>
      <trkpt lat="42.815994" lon="-0.137274">
        <time>2023-03-22T13:18:46+00:00</time>
        <ele>1892.0</ele>
      </trkpt>
      <trkpt lat="42.816042" lon="-0.137276">
        <time>2023-03-22T13:18:57+00:00</time>
        <ele>1890.0</ele>
      </trkpt>
      <trkpt lat="42.816135" lon="-0.137261">
        <time>2023-03-22T13:19:07+00:00</time>
        <ele>1887.0</ele>
      </trkpt>
      <trkpt lat="42.816283" lon="-0.137284">
        <time>2023-03-22T13:19:24+00:00</time>
        <ele>1881.0</ele>
      </trkpt>
      <trkpt lat="42.816352" lon="-0.137326">
        <time>2023-03-22T13:19:35+00:00</time>
        <ele>1877.0</ele>
      </trkpt>
      <trkpt lat="42.816439" lon="-0.137353">
        <time>2023-03-22T13:19:46+00:00</time>
        <ele>1874.0</ele>
      </trkpt>
      <trkpt lat="42.816459" lon="-0.137347">
        <time>2023-03-22T13:19:48+00:00</time>
        <ele>1874.0</ele>
      </trkpt>
      <trkpt lat="42.816569" lon="-0.137348">
        <time>2023-03-22T13:20:01+00:00</time>
        <ele>1873.0</ele>
      </trkpt>
      <trkpt lat="42.816688" lon="-0.137322">
        <time>2023-03-22T13:20:12+00:00</time>
        <ele>1875.0</ele>
      </trkpt>
      <trkpt lat="42.816821" lon="-0.137269">
        <time>2023-03-22T13:20:27+00:00</time>
        <ele>1882.0</ele>
      </trkpt>
      <trkpt lat="42.816845" lon="-0.13726">
        <time>2023-03-22T13:20:30+00:00</time>
        <ele>1883.0</ele>
      </trkpt>
      <trkpt lat="42.816894" lon="-0.137272">
        <time>2023-03-22T13:20:35+00:00</time>
        <ele>1882.0</ele>
      </trkpt>
      <trkpt lat="42.816911" lon="-0.137286">
        <time>2023-03-22T13:20:37+00:00</time>
        <ele>1880.0</ele>
      </trkpt>
      <trkpt lat="42.817032" lon="-0.137309">
        <time>2023-03-22T13:20:50+00:00</time>
        <ele>1878.0</ele>
      </trkpt>
      <trkpt lat="42.817074" lon="-0.137317">
        <time>2023-03-22T13:20:54+00:00</time>
        <ele>1877.0</ele>
      </trkpt>
      <trkpt lat="42.817121" lon="-0.137325">
        <time>2023-03-22T13:20:58+00:00</time>
        <ele>1876.0</ele>
      </trkpt>
      <trkpt lat="42.817187" lon="-0.137316">
        <time>2023-03-22T13:21:05+00:00</time>
        <ele>1877.0</ele>
      </trkpt>
      <trkpt lat="42.817216" lon="-0.137326">
        <time>2023-03-22T13:21:09+00:00</time>
        <ele>1876.0</ele>
      </trkpt>
      <trkpt lat="42.817237" lon="-0.137326">
        <time>2023-03-22T13:21:11+00:00</time>
        <ele>1877.0</ele>
      </trkpt>
      <trkpt lat="42.817278" lon="-0.137328">
        <time>2023-03-22T13:21:15+00:00</time>
        <ele>1877.0</ele>
      </trkpt>
      <trkpt lat="42.81737" lon="-0.137355">
        <time>2023-03-22T13:21:24+00:00</time>
        <ele>1872.0</ele>
      </trkpt>
      <trkpt lat="42.817489" lon="-0.137359">
        <time>2023-03-22T13:21:36+00:00</time>
        <ele>1869.0</ele>
      </trkpt>
      <trkpt lat="42.817643" lon="-0.13738">
        <time>2023-03-22T13:21:50+00:00</time>
        <ele>1863.0</ele>
      </trkpt>
      <trkpt lat="42.817681" lon="-0.137401">
        <time>2023-03-22T13:21:54+00:00</time>
        <ele>1860.0</ele>
      </trkpt>
      <trkpt lat="42.817742" lon="-0.137714">
        <time>2023-03-22T13:22:09+00:00</time>
        <ele>1846.0</ele>
      </trkpt>
      <trkpt lat="42.817764" lon="-0.137736">
        <time>2023-03-22T13:22:12+00:00</time>
        <ele>1846.0</ele>
      </trkpt>
      <trkpt lat="42.817906" lon="-0.137806">
        <time>2023-03-22T13:22:27+00:00</time>
        <ele>1847.0</ele>
      </trkpt>
      <trkpt lat="42.817935" lon="-0.137838">
        <time>2023-03-22T13:22:31+00:00</time>
        <ele>1846.0</ele>
      </trkpt>
      <trkpt lat="42.817994" lon="-0.137884">
        <time>2023-03-22T13:22:37+00:00</time>
        <ele>1845.0</ele>
      </trkpt>
      <trkpt lat="42.81812" lon="-0.137879">
        <time>2023-03-22T13:22:52+00:00</time>
        <ele>1846.0</ele>
      </trkpt>
      <trkpt lat="42.818198" lon="-0.137864">
        <time>2023-03-22T13:22:58+00:00</time>
        <ele>1845.0</ele>
      </trkpt>
      <trkpt lat="42.818337" lon="-0.137856">
        <time>2023-03-22T13:23:11+00:00</time>
        <ele>1844.0</ele>
      </trkpt>
      <trkpt lat="42.818388" lon="-0.137854">
        <time>2023-03-22T13:23:16+00:00</time>
        <ele>1843.0</ele>
      </trkpt>
      <trkpt lat="42.818462" lon="-0.137861">
        <time>2023-03-22T13:23:23+00:00</time>
        <ele>1841.0</ele>
      </trkpt>
      <trkpt lat="42.818576" lon="-0.137729">
        <time>2023-03-22T13:23:38+00:00</time>
        <ele>1841.0</ele>
      </trkpt>
      <trkpt lat="42.818619" lon="-0.13766">
        <time>2023-03-22T13:23:45+00:00</time>
        <ele>1841.0</ele>
      </trkpt>
      <trkpt lat="42.818676" lon="-0.137618">
        <time>2023-03-22T13:23:51+00:00</time>
        <ele>1840.0</ele>
      </trkpt>
      <trkpt lat="42.818863" lon="-0.137551">
        <time>2023-03-22T13:24:08+00:00</time>
        <ele>1837.0</ele>
      </trkpt>
      <trkpt lat="42.818903" lon="-0.137529">
        <time>2023-03-22T13:24:14+00:00</time>
        <ele>1837.0</ele>
      </trkpt>
      <trkpt lat="42.81899" lon="-0.137411">
        <time>2023-03-22T13:24:25+00:00</time>
        <ele>1838.0</ele>
      </trkpt>
      <trkpt lat="42.819043" lon="-0.137353">
        <time>2023-03-22T13:24:31+00:00</time>
        <ele>1839.0</ele>
      </trkpt>
      <trkpt lat="42.819138" lon="-0.137372">
        <time>2023-03-22T13:24:41+00:00</time>
        <ele>1836.0</ele>
      </trkpt>
      <trkpt lat="42.819183" lon="-0.13734">
        <time>2023-03-22T13:24:47+00:00</time>
        <ele>1836.0</ele>
      </trkpt>
      <trkpt lat="42.819205" lon="-0.137311">
        <time>2023-03-22T13:24:50+00:00</time>
        <ele>1837.0</ele>
      </trkpt>
      <trkpt lat="42.819316" lon="-0.137312">
        <time>2023-03-22T13:25:05+00:00</time>
        <ele>1834.0</ele>
      </trkpt>
      <trkpt lat="42.819323" lon="-0.13737">
        <time>2023-03-22T13:25:15+00:00</time>
        <ele>1831.0</ele>
      </trkpt>
      <trkpt lat="42.819301" lon="-0.137434">
        <time>2023-03-22T13:25:25+00:00</time>
        <ele>1830.0</ele>
      </trkpt>
      <trkpt lat="42.81941" lon="-0.137567">
        <time>2023-03-22T13:25:40+00:00</time>
        <ele>1824.0</ele>
      </trkpt>
      <trkpt lat="42.819484" lon="-0.137603">
        <time>2023-03-22T13:25:53+00:00</time>
        <ele>1822.0</ele>
      </trkpt>
      <trkpt lat="42.819538" lon="-0.137614">
        <time>2023-03-22T13:26:01+00:00</time>
        <ele>1820.0</ele>
      </trkpt>
      <trkpt lat="42.819558" lon="-0.13762">
        <time>2023-03-22T13:26:04+00:00</time>
        <ele>1819.0</ele>
      </trkpt>
      <trkpt lat="42.819634" lon="-0.137618">
        <time>2023-03-22T13:26:14+00:00</time>
        <ele>1817.0</ele>
      </trkpt>
      <trkpt lat="42.81974" lon="-0.13752">
        <time>2023-03-22T13:26:27+00:00</time>
        <ele>1817.0</ele>
      </trkpt>
      <trkpt lat="42.819774" lon="-0.137476">
        <time>2023-03-22T13:26:31+00:00</time>
        <ele>1818.0</ele>
      </trkpt>
      <trkpt lat="42.819942" lon="-0.137411">
        <time>2023-03-22T13:26:47+00:00</time>
        <ele>1816.0</ele>
      </trkpt>
      <trkpt lat="42.820061" lon="-0.137328">
        <time>2023-03-22T13:27:01+00:00</time>
        <ele>1817.0</ele>
      </trkpt>
      <trkpt lat="42.820068" lon="-0.137327">
        <time>2023-03-22T13:27:02+00:00</time>
        <ele>1817.0</ele>
      </trkpt>
      <trkpt lat="42.820171" lon="-0.137309">
        <time>2023-03-22T13:27:12+00:00</time>
        <ele>1815.0</ele>
      </trkpt>
      <trkpt lat="42.820233" lon="-0.137254">
        <time>2023-03-22T13:27:21+00:00</time>
        <ele>1816.0</ele>
      </trkpt>
      <trkpt lat="42.820286" lon="-0.137253">
        <time>2023-03-22T13:27:26+00:00</time>
        <ele>1815.0</ele>
      </trkpt>
      <trkpt lat="42.82037" lon="-0.137285">
        <time>2023-03-22T13:27:34+00:00</time>
        <ele>1813.0</ele>
      </trkpt>
      <trkpt lat="42.820378" lon="-0.137277">
        <time>2023-03-22T13:27:35+00:00</time>
        <ele>1813.0</ele>
      </trkpt>
      <trkpt lat="42.820482" lon="-0.137282">
        <time>2023-03-22T13:27:44+00:00</time>
        <ele>1812.0</ele>
      </trkpt>
      <trkpt lat="42.820498" lon="-0.137284">
        <time>2023-03-22T13:27:46+00:00</time>
        <ele>1812.0</ele>
      </trkpt>
      <trkpt lat="42.820651" lon="-0.13727">
        <time>2023-03-22T13:28:02+00:00</time>
        <ele>1810.0</ele>
      </trkpt>
      <trkpt lat="42.820753" lon="-0.137247">
        <time>2023-03-22T13:28:11+00:00</time>
        <ele>1810.0</ele>
      </trkpt>
      <trkpt lat="42.820842" lon="-0.137216">
        <time>2023-03-22T13:28:22+00:00</time>
        <ele>1810.0</ele>
      </trkpt>
      <trkpt lat="42.820881" lon="-0.1372">
        <time>2023-03-22T13:28:26+00:00</time>
        <ele>1810.0</ele>
      </trkpt>
      <trkpt lat="42.821035" lon="-0.137203">
        <time>2023-03-22T13:28:42+00:00</time>
        <ele>1807.0</ele>
      </trkpt>
      <trkpt lat="42.821234" lon="-0.137185">
        <time>2023-03-22T13:28:59+00:00</time>
        <ele>1804.0</ele>
      </trkpt>
      <trkpt lat="42.821334" lon="-0.137194">
        <time>2023-03-22T13:29:08+00:00</time>
        <ele>1804.0</ele>
      </trkpt>
      <trkpt lat="42.821487" lon="-0.137271">
        <time>2023-03-22T13:29:23+00:00</time>
        <ele>1800.0</ele>
      </trkpt>
      <trkpt lat="42.821681" lon="-0.137297">
        <time>2023-03-22T13:29:40+00:00</time>
        <ele>1799.0</ele>
      </trkpt>
      <trkpt lat="42.821836" lon="-0.137416">
        <time>2023-03-22T13:29:55+00:00</time>
        <ele>1795.0</ele>
      </trkpt>
      <trkpt lat="42.821999" lon="-0.13744">
        <time>2023-03-22T13:30:10+00:00</time>
        <ele>1796.0</ele>
      </trkpt>
      <trkpt lat="42.822018" lon="-0.137443">
        <time>2023-03-22T13:30:12+00:00</time>
        <ele>1796.0</ele>
      </trkpt>
      <trkpt lat="42.822075" lon="-0.137471">
        <time>2023-03-22T13:30:17+00:00</time>
        <ele>1796.0</ele>
      </trkpt>
      <trkpt lat="42.822252" lon="-0.13749">
        <time>2023-03-22T13:30:33+00:00</time>
        <ele>1796.0</ele>
      </trkpt>
      <trkpt lat="42.822402" lon="-0.137529">
        <time>2023-03-22T13:30:46+00:00</time>
        <ele>1795.0</ele>
      </trkpt>
      <trkpt lat="42.822468" lon="-0.13756">
        <time>2023-03-22T13:30:52+00:00</time>
        <ele>1795.0</ele>
      </trkpt>
      <trkpt lat="42.8226" lon="-0.137586">
        <time>2023-03-22T13:31:05+00:00</time>
        <ele>1793.0</ele>
      </trkpt>
      <trkpt lat="42.822639" lon="-0.137606">
        <time>2023-03-22T13:31:09+00:00</time>
        <ele>1793.0</ele>
      </trkpt>
      <trkpt lat="42.822678" lon="-0.137621">
        <time>2023-03-22T13:31:13+00:00</time>
        <ele>1792.0</ele>
      </trkpt>
      <trkpt lat="42.822784" lon="-0.137641">
        <time>2023-03-22T13:31:23+00:00</time>
        <ele>1790.0</ele>
      </trkpt>
      <trkpt lat="42.822804" lon="-0.137652">
        <time>2023-03-22T13:31:25+00:00</time>
        <ele>1790.0</ele>
      </trkpt>
      <trkpt lat="42.822841" lon="-0.137664">
        <time>2023-03-22T13:31:28+00:00</time>
        <ele>1789.0</ele>
      </trkpt>
      <trkpt lat="42.822885" lon="-0.137659">
        <time>2023-03-22T13:31:32+00:00</time>
        <ele>1789.0</ele>
      </trkpt>
      <trkpt lat="42.823042" lon="-0.137875">
        <time>2023-03-22T13:31:50+00:00</time>
        <ele>1785.0</ele>
      </trkpt>
      <trkpt lat="42.823095" lon="-0.13808">
        <time>2023-03-22T13:32:04+00:00</time>
        <ele>1782.0</ele>
      </trkpt>
      <trkpt lat="42.823112" lon="-0.138113">
        <time>2023-03-22T13:32:07+00:00</time>
        <ele>1782.0</ele>
      </trkpt>
      <trkpt lat="42.82316" lon="-0.13817">
        <time>2023-03-22T13:32:12+00:00</time>
        <ele>1782.0</ele>
      </trkpt>
      <trkpt lat="42.823291" lon="-0.138325">
        <time>2023-03-22T13:32:27+00:00</time>
        <ele>1781.0</ele>
      </trkpt>
      <trkpt lat="42.823372" lon="-0.138364">
        <time>2023-03-22T13:32:36+00:00</time>
        <ele>1780.0</ele>
      </trkpt>
      <trkpt lat="42.823381" lon="-0.138391">
        <time>2023-03-22T13:32:38+00:00</time>
        <ele>1780.0</ele>
      </trkpt>
      <trkpt lat="42.82347" lon="-0.13845">
        <time>2023-03-22T13:32:52+00:00</time>
        <ele>1779.0</ele>
      </trkpt>
      <trkpt lat="42.823523" lon="-0.138414">
        <time>2023-03-22T13:33:01+00:00</time>
        <ele>1779.0</ele>
      </trkpt>
      <trkpt lat="42.823654" lon="-0.138363">
        <time>2023-03-22T13:33:15+00:00</time>
        <ele>1779.0</ele>
      </trkpt>
      <trkpt lat="42.823813" lon="-0.138314">
        <time>2023-03-22T13:33:32+00:00</time>
        <ele>1778.0</ele>
      </trkpt>
      <trkpt lat="42.823823" lon="-0.138312">
        <time>2023-03-22T13:33:33+00:00</time>
        <ele>1778.0</ele>
      </trkpt>
      <trkpt lat="42.823957" lon="-0.138306">
        <time>2023-03-22T13:33:48+00:00</time>
        <ele>1778.0</ele>
      </trkpt>
      <trkpt lat="42.823982" lon="-0.138372">
        <time>2023-03-22T13:34:01+00:00</time>
        <ele>1776.0</ele>
      </trkpt>
      <trkpt lat="42.823922" lon="-0.138502">
        <time>2023-03-22T13:34:15+00:00</time>
        <ele>1772.0</ele>
      </trkpt>
      <trkpt lat="42.823882" lon="-0.13858">
        <time>2023-03-22T13:34:24+00:00</time>
        <ele>1771.0</ele>
      </trkpt>
      <trkpt lat="42.823861" lon="-0.138793">
        <time>2023-03-22T13:34:39+00:00</time>
        <ele>1768.0</ele>
      </trkpt>
      <trkpt lat="42.823866" lon="-0.138878">
        <time>2023-03-22T13:34:49+00:00</time>
        <ele>1768.0</ele>
      </trkpt>
      <trkpt lat="42.824016" lon="-0.138973">
        <time>2023-03-22T13:35:07+00:00</time>
        <ele>1765.0</ele>
      </trkpt>
      <trkpt lat="42.824118" lon="-0.139076">
        <time>2023-03-22T13:35:22+00:00</time>
        <ele>1762.0</ele>
      </trkpt>
      <trkpt lat="42.824126" lon="-0.139084">
        <time>2023-03-22T13:35:23+00:00</time>
        <ele>1762.0</ele>
      </trkpt>
      <trkpt lat="42.824237" lon="-0.139259">
        <time>2023-03-22T13:35:39+00:00</time>
        <ele>1759.0</ele>
      </trkpt>
      <trkpt lat="42.824318" lon="-0.13935">
        <time>2023-03-22T13:35:51+00:00</time>
        <ele>1756.0</ele>
      </trkpt>
      <trkpt lat="42.824417" lon="-0.139485">
        <time>2023-03-22T13:36:05+00:00</time>
        <ele>1754.0</ele>
      </trkpt>
      <trkpt lat="42.824505" lon="-0.13958">
        <time>2023-03-22T13:36:18+00:00</time>
        <ele>1751.0</ele>
      </trkpt>
      <trkpt lat="42.824595" lon="-0.139666">
        <time>2023-03-22T13:36:29+00:00</time>
        <ele>1749.0</ele>
      </trkpt>
      <trkpt lat="42.824672" lon="-0.139723">
        <time>2023-03-22T13:36:37+00:00</time>
        <ele>1748.0</ele>
      </trkpt>
      <trkpt lat="42.824831" lon="-0.139705">
        <time>2023-03-22T13:36:55+00:00</time>
        <ele>1744.0</ele>
      </trkpt>
      <trkpt lat="42.824952" lon="-0.139734">
        <time>2023-03-22T13:37:07+00:00</time>
        <ele>1743.0</ele>
      </trkpt>
      <trkpt lat="42.825001" lon="-0.139777">
        <time>2023-03-22T13:37:12+00:00</time>
        <ele>1743.0</ele>
      </trkpt>
      <trkpt lat="42.825125" lon="-0.139789">
        <time>2023-03-22T13:37:25+00:00</time>
        <ele>1741.0</ele>
      </trkpt>
      <trkpt lat="42.82527" lon="-0.139819">
        <time>2023-03-22T13:37:39+00:00</time>
        <ele>1740.0</ele>
      </trkpt>
      <trkpt lat="42.825473" lon="-0.139802">
        <time>2023-03-22T13:37:56+00:00</time>
        <ele>1737.0</ele>
      </trkpt>
      <trkpt lat="42.825643" lon="-0.139843">
        <time>2023-03-22T13:38:12+00:00</time>
        <ele>1736.0</ele>
      </trkpt>
      <trkpt lat="42.825676" lon="-0.139857">
        <time>2023-03-22T13:38:16+00:00</time>
        <ele>1736.0</ele>
      </trkpt>
      <trkpt lat="42.82575" lon="-0.139897">
        <time>2023-03-22T13:38:22+00:00</time>
        <ele>1736.0</ele>
      </trkpt>
      <trkpt lat="42.825857" lon="-0.140018">
        <time>2023-03-22T13:38:34+00:00</time>
        <ele>1738.0</ele>
      </trkpt>
      <trkpt lat="42.825901" lon="-0.14004">
        <time>2023-03-22T13:38:38+00:00</time>
        <ele>1738.0</ele>
      </trkpt>
      <trkpt lat="42.825935" lon="-0.140043">
        <time>2023-03-22T13:38:41+00:00</time>
        <ele>1738.0</ele>
      </trkpt>
      <trkpt lat="42.825979" lon="-0.140009">
        <time>2023-03-22T13:38:46+00:00</time>
        <ele>1737.0</ele>
      </trkpt>
      <trkpt lat="42.826053" lon="-0.139995">
        <time>2023-03-22T13:38:53+00:00</time>
        <ele>1736.0</ele>
      </trkpt>
      <trkpt lat="42.826094" lon="-0.140013">
        <time>2023-03-22T13:38:57+00:00</time>
        <ele>1736.0</ele>
      </trkpt>
      <trkpt lat="42.826184" lon="-0.140024">
        <time>2023-03-22T13:39:06+00:00</time>
        <ele>1735.0</ele>
      </trkpt>
      <trkpt lat="42.826302" lon="-0.140016">
        <time>2023-03-22T13:39:20+00:00</time>
        <ele>1734.0</ele>
      </trkpt>
      <trkpt lat="42.8264" lon="-0.139952">
        <time>2023-03-22T13:39:30+00:00</time>
        <ele>1732.0</ele>
      </trkpt>
      <trkpt lat="42.826443" lon="-0.139966">
        <time>2023-03-22T13:39:34+00:00</time>
        <ele>1732.0</ele>
      </trkpt>
      <trkpt lat="42.826497" lon="-0.139963">
        <time>2023-03-22T13:39:39+00:00</time>
        <ele>1732.0</ele>
      </trkpt>
      <trkpt lat="42.826551" lon="-0.139996">
        <time>2023-03-22T13:39:44+00:00</time>
        <ele>1732.0</ele>
      </trkpt>
      <trkpt lat="42.82665" lon="-0.139986">
        <time>2023-03-22T13:39:53+00:00</time>
        <ele>1731.0</ele>
      </trkpt>
      <trkpt lat="42.826763" lon="-0.139956">
        <time>2023-03-22T13:40:03+00:00</time>
        <ele>1730.0</ele>
      </trkpt>
      <trkpt lat="42.82682" lon="-0.139987">
        <time>2023-03-22T13:40:08+00:00</time>
        <ele>1730.0</ele>
      </trkpt>
      <trkpt lat="42.826894" lon="-0.139999">
        <time>2023-03-22T13:40:15+00:00</time>
        <ele>1730.0</ele>
      </trkpt>
      <trkpt lat="42.82701" lon="-0.140091">
        <time>2023-03-22T13:40:27+00:00</time>
        <ele>1730.0</ele>
      </trkpt>
      <trkpt lat="42.827063" lon="-0.140087">
        <time>2023-03-22T13:40:32+00:00</time>
        <ele>1729.0</ele>
      </trkpt>
      <trkpt lat="42.827117" lon="-0.140145">
        <time>2023-03-22T13:40:38+00:00</time>
        <ele>1729.0</ele>
      </trkpt>
      <trkpt lat="42.827182" lon="-0.140174">
        <time>2023-03-22T13:40:45+00:00</time>
        <ele>1729.0</ele>
      </trkpt>
      <trkpt lat="42.827219" lon="-0.140162">
        <time>2023-03-22T13:40:49+00:00</time>
        <ele>1729.0</ele>
      </trkpt>
      <trkpt lat="42.827352" lon="-0.140271">
        <time>2023-03-22T13:41:03+00:00</time>
        <ele>1728.0</ele>
      </trkpt>
      <trkpt lat="42.82757" lon="-0.140291">
        <time>2023-03-22T13:41:21+00:00</time>
        <ele>1726.0</ele>
      </trkpt>
      <trkpt lat="42.827674" lon="-0.140357">
        <time>2023-03-22T13:41:30+00:00</time>
        <ele>1726.0</ele>
      </trkpt>
      <trkpt lat="42.827728" lon="-0.140346">
        <time>2023-03-22T13:41:35+00:00</time>
        <ele>1726.0</ele>
      </trkpt>
      <trkpt lat="42.8279" lon="-0.140346">
        <time>2023-03-22T13:41:50+00:00</time>
        <ele>1726.0</ele>
      </trkpt>
      <trkpt lat="42.827962" lon="-0.140357">
        <time>2023-03-22T13:41:55+00:00</time>
        <ele>1725.0</ele>
      </trkpt>
      <trkpt lat="42.828086" lon="-0.140301">
        <time>2023-03-22T13:42:11+00:00</time>
        <ele>1725.0</ele>
      </trkpt>
      <trkpt lat="42.828086" lon="-0.140333">
        <time>2023-03-22T13:42:24+00:00</time>
        <ele>1725.0</ele>
      </trkpt>
      <trkpt lat="42.8281" lon="-0.140359">
        <time>2023-03-22T13:42:27+00:00</time>
        <ele>1725.0</ele>
      </trkpt>
      <trkpt lat="42.828227" lon="-0.140527">
        <time>2023-03-22T13:42:43+00:00</time>
        <ele>1725.0</ele>
      </trkpt>
      <trkpt lat="42.828245" lon="-0.140539">
        <time>2023-03-22T13:42:45+00:00</time>
        <ele>1725.0</ele>
      </trkpt>
      <trkpt lat="42.828289" lon="-0.140555">
        <time>2023-03-22T13:42:50+00:00</time>
        <ele>1725.0</ele>
      </trkpt>
      <trkpt lat="42.828372" lon="-0.140662">
        <time>2023-03-22T13:43:04+00:00</time>
        <ele>1726.0</ele>
      </trkpt>
      <trkpt lat="42.828377" lon="-0.140672">
        <time>2023-03-22T13:43:05+00:00</time>
        <ele>1726.0</ele>
      </trkpt>
      <trkpt lat="42.828441" lon="-0.140757">
        <time>2023-03-22T13:43:16+00:00</time>
        <ele>1726.0</ele>
      </trkpt>
      <trkpt lat="42.828468" lon="-0.140784">
        <time>2023-03-22T13:43:20+00:00</time>
        <ele>1726.0</ele>
      </trkpt>
      <trkpt lat="42.828574" lon="-0.140913">
        <time>2023-03-22T13:43:33+00:00</time>
        <ele>1726.0</ele>
      </trkpt>
      <trkpt lat="42.828635" lon="-0.140953">
        <time>2023-03-22T13:43:39+00:00</time>
        <ele>1727.0</ele>
      </trkpt>
      <trkpt lat="42.82867" lon="-0.140983">
        <time>2023-03-22T13:43:43+00:00</time>
        <ele>1727.0</ele>
      </trkpt>
      <trkpt lat="42.828704" lon="-0.141024">
        <time>2023-03-22T13:43:47+00:00</time>
        <ele>1727.0</ele>
      </trkpt>
      <trkpt lat="42.828883" lon="-0.141078">
        <time>2023-03-22T13:44:04+00:00</time>
        <ele>1727.0</ele>
      </trkpt>
      <trkpt lat="42.828912" lon="-0.141072">
        <time>2023-03-22T13:44:07+00:00</time>
        <ele>1726.0</ele>
      </trkpt>
      <trkpt lat="42.828967" lon="-0.14109">
        <time>2023-03-22T13:44:12+00:00</time>
        <ele>1726.0</ele>
      </trkpt>
      <trkpt lat="42.829069" lon="-0.14113">
        <time>2023-03-22T13:44:22+00:00</time>
        <ele>1726.0</ele>
      </trkpt>
      <trkpt lat="42.829136" lon="-0.141204">
        <time>2023-03-22T13:44:29+00:00</time>
        <ele>1727.0</ele>
      </trkpt>
      <trkpt lat="42.829199" lon="-0.141257">
        <time>2023-03-22T13:44:35+00:00</time>
        <ele>1728.0</ele>
      </trkpt>
      <trkpt lat="42.829214" lon="-0.141275">
        <time>2023-03-22T13:44:37+00:00</time>
        <ele>1729.0</ele>
      </trkpt>
      <trkpt lat="42.829251" lon="-0.141302">
        <time>2023-03-22T13:44:41+00:00</time>
        <ele>1729.0</ele>
      </trkpt>
      <trkpt lat="42.829332" lon="-0.141298">
        <time>2023-03-22T13:44:49+00:00</time>
        <ele>1728.0</ele>
      </trkpt>
      <trkpt lat="42.829348" lon="-0.141288">
        <time>2023-03-22T13:44:51+00:00</time>
        <ele>1728.0</ele>
      </trkpt>
      <trkpt lat="42.829378" lon="-0.141279">
        <time>2023-03-22T13:44:55+00:00</time>
        <ele>1727.0</ele>
      </trkpt>
      <trkpt lat="42.829401" lon="-0.141301">
        <time>2023-03-22T13:44:58+00:00</time>
        <ele>1727.0</ele>
      </trkpt>
      <trkpt lat="42.829474" lon="-0.141355">
        <time>2023-03-22T13:45:06+00:00</time>
        <ele>1728.0</ele>
      </trkpt>
      <trkpt lat="42.829497" lon="-0.141384">
        <time>2023-03-22T13:45:09+00:00</time>
        <ele>1728.0</ele>
      </trkpt>
      <trkpt lat="42.829516" lon="-0.141393">
        <time>2023-03-22T13:45:11+00:00</time>
        <ele>1728.0</ele>
      </trkpt>
      <trkpt lat="42.829552" lon="-0.141418">
        <time>2023-03-22T13:45:15+00:00</time>
        <ele>1728.0</ele>
      </trkpt>
      <trkpt lat="42.829567" lon="-0.141434">
        <time>2023-03-22T13:45:17+00:00</time>
        <ele>1728.0</ele>
      </trkpt>
      <trkpt lat="42.829665" lon="-0.141517">
        <time>2023-03-22T13:45:30+00:00</time>
        <ele>1730.0</ele>
      </trkpt>
      <trkpt lat="42.829806" lon="-0.141574">
        <time>2023-03-22T13:45:44+00:00</time>
        <ele>1730.0</ele>
      </trkpt>
      <trkpt lat="42.82991" lon="-0.14161">
        <time>2023-03-22T13:45:56+00:00</time>
        <ele>1729.0</ele>
      </trkpt>
      <trkpt lat="42.830048" lon="-0.14168">
        <time>2023-03-22T13:46:10+00:00</time>
        <ele>1729.0</ele>
      </trkpt>
      <trkpt lat="42.830153" lon="-0.141715">
        <time>2023-03-22T13:46:23+00:00</time>
        <ele>1728.0</ele>
      </trkpt>
      <trkpt lat="42.830279" lon="-0.141758">
        <time>2023-03-22T13:46:35+00:00</time>
        <ele>1729.0</ele>
      </trkpt>
      <trkpt lat="42.830359" lon="-0.141811">
        <time>2023-03-22T13:46:43+00:00</time>
        <ele>1730.0</ele>
      </trkpt>
      <trkpt lat="42.830444" lon="-0.141831">
        <time>2023-03-22T13:46:50+00:00</time>
        <ele>1730.0</ele>
      </trkpt>
      <trkpt lat="42.830559" lon="-0.141875">
        <time>2023-03-22T13:47:03+00:00</time>
        <ele>1730.0</ele>
      </trkpt>
      <trkpt lat="42.830586" lon="-0.141867">
        <time>2023-03-22T13:47:06+00:00</time>
        <ele>1730.0</ele>
      </trkpt>
      <trkpt lat="42.830697" lon="-0.141848">
        <time>2023-03-22T13:47:18+00:00</time>
        <ele>1729.0</ele>
      </trkpt>
      <trkpt lat="42.830768" lon="-0.141871">
        <time>2023-03-22T13:47:24+00:00</time>
        <ele>1729.0</ele>
      </trkpt>
      <trkpt lat="42.830893" lon="-0.141875">
        <time>2023-03-22T13:47:39+00:00</time>
        <ele>1729.0</ele>
      </trkpt>
      <trkpt lat="42.830934" lon="-0.14187">
        <time>2023-03-22T13:47:44+00:00</time>
        <ele>1729.0</ele>
      </trkpt>
      <trkpt lat="42.831001" lon="-0.141894">
        <time>2023-03-22T13:47:54+00:00</time>
        <ele>1729.0</ele>
      </trkpt>
      <trkpt lat="42.831086" lon="-0.141888">
        <time>2023-03-22T13:48:03+00:00</time>
        <ele>1729.0</ele>
      </trkpt>
      <trkpt lat="42.831221" lon="-0.14186">
        <time>2023-03-22T13:48:16+00:00</time>
        <ele>1729.0</ele>
      </trkpt>
      <trkpt lat="42.831233" lon="-0.141861">
        <time>2023-03-22T13:48:17+00:00</time>
        <ele>1729.0</ele>
      </trkpt>
      <trkpt lat="42.831386" lon="-0.141823">
        <time>2023-03-22T13:48:31+00:00</time>
        <ele>1730.0</ele>
      </trkpt>
      <trkpt lat="42.831574" lon="-0.141704">
        <time>2023-03-22T13:48:48+00:00</time>
        <ele>1729.0</ele>
      </trkpt>
      <trkpt lat="42.831671" lon="-0.141666">
        <time>2023-03-22T13:48:56+00:00</time>
        <ele>1729.0</ele>
      </trkpt>
      <trkpt lat="42.83177" lon="-0.1416">
        <time>2023-03-22T13:49:05+00:00</time>
        <ele>1729.0</ele>
      </trkpt>
      <trkpt lat="42.831814" lon="-0.141568">
        <time>2023-03-22T13:49:09+00:00</time>
        <ele>1728.0</ele>
      </trkpt>
      <trkpt lat="42.832028" lon="-0.141536">
        <time>2023-03-22T13:49:26+00:00</time>
        <ele>1728.0</ele>
      </trkpt>
      <trkpt lat="42.832182" lon="-0.141595">
        <time>2023-03-22T13:49:39+00:00</time>
        <ele>1729.0</ele>
      </trkpt>
      <trkpt lat="42.832423" lon="-0.141672">
        <time>2023-03-22T13:49:57+00:00</time>
        <ele>1729.0</ele>
      </trkpt>
      <trkpt lat="42.832661" lon="-0.1417">
        <time>2023-03-22T13:50:15+00:00</time>
        <ele>1728.0</ele>
      </trkpt>
      <trkpt lat="42.832674" lon="-0.141702">
        <time>2023-03-22T13:50:16+00:00</time>
        <ele>1728.0</ele>
      </trkpt>
      <trkpt lat="42.832791" lon="-0.141707">
        <time>2023-03-22T13:50:26+00:00</time>
        <ele>1728.0</ele>
      </trkpt>
      <trkpt lat="42.833006" lon="-0.141685">
        <time>2023-03-22T13:50:42+00:00</time>
        <ele>1726.0</ele>
      </trkpt>
      <trkpt lat="42.833029" lon="-0.141694">
        <time>2023-03-22T13:50:44+00:00</time>
        <ele>1726.0</ele>
      </trkpt>
      <trkpt lat="42.833155" lon="-0.141696">
        <time>2023-03-22T13:50:54+00:00</time>
        <ele>1726.0</ele>
      </trkpt>
      <trkpt lat="42.833351" lon="-0.141766">
        <time>2023-03-22T13:51:11+00:00</time>
        <ele>1728.0</ele>
      </trkpt>
      <trkpt lat="42.833555" lon="-0.141864">
        <time>2023-03-22T13:51:28+00:00</time>
        <ele>1729.0</ele>
      </trkpt>
      <trkpt lat="42.833722" lon="-0.141862">
        <time>2023-03-22T13:51:42+00:00</time>
        <ele>1729.0</ele>
      </trkpt>
      <trkpt lat="42.83378" lon="-0.141834">
        <time>2023-03-22T13:51:48+00:00</time>
        <ele>1728.0</ele>
      </trkpt>
      <trkpt lat="42.833966" lon="-0.141778">
        <time>2023-03-22T13:52:04+00:00</time>
        <ele>1727.0</ele>
      </trkpt>
      <trkpt lat="42.83402" lon="-0.141751">
        <time>2023-03-22T13:52:09+00:00</time>
        <ele>1727.0</ele>
      </trkpt>
      <trkpt lat="42.834136" lon="-0.141662">
        <time>2023-03-22T13:52:21+00:00</time>
        <ele>1726.0</ele>
      </trkpt>
      <trkpt lat="42.834213" lon="-0.141643">
        <time>2023-03-22T13:52:28+00:00</time>
        <ele>1727.0</ele>
      </trkpt>
      <trkpt lat="42.834241" lon="-0.141659">
        <time>2023-03-22T13:52:31+00:00</time>
        <ele>1727.0</ele>
      </trkpt>
      <trkpt lat="42.834373" lon="-0.14164">
        <time>2023-03-22T13:52:43+00:00</time>
        <ele>1728.0</ele>
      </trkpt>
      <trkpt lat="42.834453" lon="-0.141605">
        <time>2023-03-22T13:52:50+00:00</time>
        <ele>1728.0</ele>
      </trkpt>
      <trkpt lat="42.834486" lon="-0.141586">
        <time>2023-03-22T13:52:53+00:00</time>
        <ele>1728.0</ele>
      </trkpt>
      <trkpt lat="42.834535" lon="-0.141535">
        <time>2023-03-22T13:52:58+00:00</time>
        <ele>1727.0</ele>
      </trkpt>
      <trkpt lat="42.834734" lon="-0.141429">
        <time>2023-03-22T13:53:16+00:00</time>
        <ele>1727.0</ele>
      </trkpt>
      <trkpt lat="42.834861" lon="-0.141349">
        <time>2023-03-22T13:53:28+00:00</time>
        <ele>1727.0</ele>
      </trkpt>
      <trkpt lat="42.834899" lon="-0.141309">
        <time>2023-03-22T13:53:32+00:00</time>
        <ele>1727.0</ele>
      </trkpt>
      <trkpt lat="42.834949" lon="-0.141266">
        <time>2023-03-22T13:53:37+00:00</time>
        <ele>1727.0</ele>
      </trkpt>
      <trkpt lat="42.835006" lon="-0.141161">
        <time>2023-03-22T13:53:45+00:00</time>
        <ele>1726.0</ele>
      </trkpt>
      <trkpt lat="42.8351" lon="-0.140899">
        <time>2023-03-22T13:54:02+00:00</time>
        <ele>1725.0</ele>
      </trkpt>
      <trkpt lat="42.835195" lon="-0.140671">
        <time>2023-03-22T13:54:17+00:00</time>
        <ele>1725.0</ele>
      </trkpt>
      <trkpt lat="42.835241" lon="-0.140615">
        <time>2023-03-22T13:54:22+00:00</time>
        <ele>1724.0</ele>
      </trkpt>
      <trkpt lat="42.835228" lon="-0.140555">
        <time>2023-03-22T13:54:26+00:00</time>
        <ele>1724.0</ele>
      </trkpt>
      <trkpt lat="42.835133" lon="-0.140326">
        <time>2023-03-22T13:54:42+00:00</time>
        <ele>1725.0</ele>
      </trkpt>
      <trkpt lat="42.835004" lon="-0.140118">
        <time>2023-03-22T13:54:59+00:00</time>
        <ele>1727.0</ele>
      </trkpt>
      <trkpt lat="42.834923" lon="-0.140034">
        <time>2023-03-22T13:55:08+00:00</time>
        <ele>1728.0</ele>
      </trkpt>
      <trkpt lat="42.834863" lon="-0.139931">
        <time>2023-03-22T13:55:18+00:00</time>
        <ele>1728.0</ele>
      </trkpt>
      <trkpt lat="42.834849" lon="-0.139908">
        <time>2023-03-22T13:55:20+00:00</time>
        <ele>1728.0</ele>
      </trkpt>
      <trkpt lat="42.834835" lon="-0.13984">
        <time>2023-03-22T13:55:25+00:00</time>
        <ele>1728.0</ele>
      </trkpt>
      <trkpt lat="42.834761" lon="-0.139567">
        <time>2023-03-22T13:55:43+00:00</time>
        <ele>1727.0</ele>
      </trkpt>
      <trkpt lat="42.83479" lon="-0.139478">
        <time>2023-03-22T13:55:54+00:00</time>
        <ele>1727.0</ele>
      </trkpt>
      <trkpt lat="42.834788" lon="-0.13949">
        <time>2023-03-22T13:56:16+00:00</time>
        <ele>1727.0</ele>
      </trkpt>
      <trkpt lat="42.834787" lon="-0.139486">
        <time>2023-03-22T13:56:34+00:00</time>
        <ele>1727.0</ele>
      </trkpt>
      <trkpt lat="42.83481" lon="-0.139498">
        <time>2023-03-22T13:56:53+00:00</time>
        <ele>1727.0</ele>
      </trkpt>
      <trkpt lat="42.834814" lon="-0.139424">
        <time>2023-03-22T13:57:09+00:00</time>
        <ele>1728.0</ele>
      </trkpt>
      <trkpt lat="42.834827" lon="-0.139315">
        <time>2023-03-22T13:57:16+00:00</time>
        <ele>1728.0</ele>
      </trkpt>
      <trkpt lat="42.834896" lon="-0.139128">
        <time>2023-03-22T13:57:29+00:00</time>
        <ele>1728.0</ele>
      </trkpt>
      <trkpt lat="42.834965" lon="-0.139072">
        <time>2023-03-22T13:57:36+00:00</time>
        <ele>1728.0</ele>
      </trkpt>
      <trkpt lat="42.835075" lon="-0.138913">
        <time>2023-03-22T13:57:50+00:00</time>
        <ele>1728.0</ele>
      </trkpt>
      <trkpt lat="42.835231" lon="-0.138751">
        <time>2023-03-22T13:58:06+00:00</time>
        <ele>1728.0</ele>
      </trkpt>
      <trkpt lat="42.83541" lon="-0.138693">
        <time>2023-03-22T13:58:22+00:00</time>
        <ele>1728.0</ele>
      </trkpt>
      <trkpt lat="42.835489" lon="-0.138694">
        <time>2023-03-22T13:58:28+00:00</time>
        <ele>1728.0</ele>
      </trkpt>
      <trkpt lat="42.835677" lon="-0.138648">
        <time>2023-03-22T13:58:43+00:00</time>
        <ele>1726.0</ele>
      </trkpt>
      <trkpt lat="42.835688" lon="-0.138646">
        <time>2023-03-22T13:58:44+00:00</time>
        <ele>1726.0</ele>
      </trkpt>
      <trkpt lat="42.835885" lon="-0.138667">
        <time>2023-03-22T13:59:00+00:00</time>
        <ele>1723.0</ele>
      </trkpt>
      <trkpt lat="42.836086" lon="-0.138621">
        <time>2023-03-22T13:59:16+00:00</time>
        <ele>1722.0</ele>
      </trkpt>
      <trkpt lat="42.836165" lon="-0.138594">
        <time>2023-03-22T13:59:23+00:00</time>
        <ele>1722.0</ele>
      </trkpt>
      <trkpt lat="42.836218" lon="-0.138558">
        <time>2023-03-22T13:59:29+00:00</time>
        <ele>1722.0</ele>
      </trkpt>
      <trkpt lat="42.836284" lon="-0.13851">
        <time>2023-03-22T13:59:36+00:00</time>
        <ele>1723.0</ele>
      </trkpt>
      <trkpt lat="42.836434" lon="-0.138391">
        <time>2023-03-22T13:59:51+00:00</time>
        <ele>1724.0</ele>
      </trkpt>
      <trkpt lat="42.836488" lon="-0.13836">
        <time>2023-03-22T13:59:56+00:00</time>
        <ele>1724.0</ele>
      </trkpt>
      <trkpt lat="42.836621" lon="-0.138311">
        <time>2023-03-22T14:00:08+00:00</time>
        <ele>1724.0</ele>
      </trkpt>
      <trkpt lat="42.83672" lon="-0.138327">
        <time>2023-03-22T14:00:16+00:00</time>
        <ele>1723.0</ele>
      </trkpt>
      <trkpt lat="42.836773" lon="-0.138322">
        <time>2023-03-22T14:00:20+00:00</time>
        <ele>1722.0</ele>
      </trkpt>
      <trkpt lat="42.836941" lon="-0.138322">
        <time>2023-03-22T14:00:35+00:00</time>
        <ele>1721.0</ele>
      </trkpt>
      <trkpt lat="42.837205" lon="-0.138345">
        <time>2023-03-22T14:00:56+00:00</time>
        <ele>1719.0</ele>
      </trkpt>
      <trkpt lat="42.837261" lon="-0.138354">
        <time>2023-03-22T14:01:02+00:00</time>
        <ele>1718.0</ele>
      </trkpt>
      <trkpt lat="42.837432" lon="-0.1383">
        <time>2023-03-22T14:01:18+00:00</time>
        <ele>1720.0</ele>
      </trkpt>
      <trkpt lat="42.83748" lon="-0.138287">
        <time>2023-03-22T14:01:22+00:00</time>
        <ele>1720.0</ele>
      </trkpt>
      <trkpt lat="42.837644" lon="-0.138302">
        <time>2023-03-22T14:01:38+00:00</time>
        <ele>1717.0</ele>
      </trkpt>
      <trkpt lat="42.837788" lon="-0.138338">
        <time>2023-03-22T14:01:53+00:00</time>
        <ele>1714.0</ele>
      </trkpt>
      <trkpt lat="42.83784" lon="-0.138385">
        <time>2023-03-22T14:02:00+00:00</time>
        <ele>1712.0</ele>
      </trkpt>
      <trkpt lat="42.837888" lon="-0.138404">
        <time>2023-03-22T14:02:04+00:00</time>
        <ele>1711.0</ele>
      </trkpt>
      <trkpt lat="42.838065" lon="-0.138496">
        <time>2023-03-22T14:02:20+00:00</time>
        <ele>1707.0</ele>
      </trkpt>
      <trkpt lat="42.838146" lon="-0.138549">
        <time>2023-03-22T14:02:28+00:00</time>
        <ele>1706.0</ele>
      </trkpt>
      <trkpt lat="42.83821" lon="-0.138592">
        <time>2023-03-22T14:02:34+00:00</time>
        <ele>1704.0</ele>
      </trkpt>
      <trkpt lat="42.83834" lon="-0.138683">
        <time>2023-03-22T14:02:49+00:00</time>
        <ele>1701.0</ele>
      </trkpt>
      <trkpt lat="42.838414" lon="-0.138703">
        <time>2023-03-22T14:02:56+00:00</time>
        <ele>1701.0</ele>
      </trkpt>
      <trkpt lat="42.838469" lon="-0.138715">
        <time>2023-03-22T14:03:01+00:00</time>
        <ele>1700.0</ele>
      </trkpt>
      <trkpt lat="42.838598" lon="-0.138748">
        <time>2023-03-22T14:03:12+00:00</time>
        <ele>1699.0</ele>
      </trkpt>
      <trkpt lat="42.83862" lon="-0.138749">
        <time>2023-03-22T14:03:15+00:00</time>
        <ele>1699.0</ele>
      </trkpt>
      <trkpt lat="42.83873" lon="-0.138776">
        <time>2023-03-22T14:03:26+00:00</time>
        <ele>1697.0</ele>
      </trkpt>
      <trkpt lat="42.838901" lon="-0.13882">
        <time>2023-03-22T14:03:42+00:00</time>
        <ele>1695.0</ele>
      </trkpt>
      <trkpt lat="42.838989" lon="-0.138794">
        <time>2023-03-22T14:03:50+00:00</time>
        <ele>1695.0</ele>
      </trkpt>
      <trkpt lat="42.839024" lon="-0.138824">
        <time>2023-03-22T14:03:54+00:00</time>
        <ele>1694.0</ele>
      </trkpt>
      <trkpt lat="42.83907" lon="-0.138791">
        <time>2023-03-22T14:03:59+00:00</time>
        <ele>1695.0</ele>
      </trkpt>
      <trkpt lat="42.839212" lon="-0.138726">
        <time>2023-03-22T14:04:13+00:00</time>
        <ele>1696.0</ele>
      </trkpt>
      <trkpt lat="42.83929" lon="-0.138685">
        <time>2023-03-22T14:04:21+00:00</time>
        <ele>1697.0</ele>
      </trkpt>
      <trkpt lat="42.839409" lon="-0.13864">
        <time>2023-03-22T14:04:34+00:00</time>
        <ele>1698.0</ele>
      </trkpt>
      <trkpt lat="42.839422" lon="-0.138641">
        <time>2023-03-22T14:04:36+00:00</time>
        <ele>1698.0</ele>
      </trkpt>
      <trkpt lat="42.839576" lon="-0.138636">
        <time>2023-03-22T14:04:51+00:00</time>
        <ele>1698.0</ele>
      </trkpt>
      <trkpt lat="42.839682" lon="-0.138596">
        <time>2023-03-22T14:05:00+00:00</time>
        <ele>1699.0</ele>
      </trkpt>
      <trkpt lat="42.839787" lon="-0.138603">
        <time>2023-03-22T14:05:09+00:00</time>
        <ele>1698.0</ele>
      </trkpt>
      <trkpt lat="42.839819" lon="-0.138589">
        <time>2023-03-22T14:05:12+00:00</time>
        <ele>1698.0</ele>
      </trkpt>
      <trkpt lat="42.839949" lon="-0.138557">
        <time>2023-03-22T14:05:24+00:00</time>
        <ele>1698.0</ele>
      </trkpt>
      <trkpt lat="42.840006" lon="-0.138529">
        <time>2023-03-22T14:05:30+00:00</time>
        <ele>1698.0</ele>
      </trkpt>
      <trkpt lat="42.840031" lon="-0.138502">
        <time>2023-03-22T14:05:33+00:00</time>
        <ele>1699.0</ele>
      </trkpt>
      <trkpt lat="42.840087" lon="-0.138505">
        <time>2023-03-22T14:05:38+00:00</time>
        <ele>1698.0</ele>
      </trkpt>
      <trkpt lat="42.840098" lon="-0.138508">
        <time>2023-03-22T14:05:39+00:00</time>
        <ele>1698.0</ele>
      </trkpt>
      <trkpt lat="42.840209" lon="-0.13844">
        <time>2023-03-22T14:05:52+00:00</time>
        <ele>1700.0</ele>
      </trkpt>
      <trkpt lat="42.840262" lon="-0.138422">
        <time>2023-03-22T14:05:59+00:00</time>
        <ele>1700.0</ele>
      </trkpt>
      <trkpt lat="42.84036" lon="-0.138419">
        <time>2023-03-22T14:06:13+00:00</time>
        <ele>1700.0</ele>
      </trkpt>
      <trkpt lat="42.840472" lon="-0.138449">
        <time>2023-03-22T14:06:27+00:00</time>
        <ele>1699.0</ele>
      </trkpt>
      <trkpt lat="42.840515" lon="-0.138453">
        <time>2023-03-22T14:06:31+00:00</time>
        <ele>1699.0</ele>
      </trkpt>
      <trkpt lat="42.840533" lon="-0.138448">
        <time>2023-03-22T14:06:33+00:00</time>
        <ele>1700.0</ele>
      </trkpt>
      <trkpt lat="42.840659" lon="-0.138442">
        <time>2023-03-22T14:06:48+00:00</time>
        <ele>1702.0</ele>
      </trkpt>
      <trkpt lat="42.840685" lon="-0.138442">
        <time>2023-03-22T14:06:52+00:00</time>
        <ele>1702.0</ele>
      </trkpt>
      <trkpt lat="42.84077" lon="-0.138473">
        <time>2023-03-22T14:07:01+00:00</time>
        <ele>1703.0</ele>
      </trkpt>
      <trkpt lat="42.840896" lon="-0.138528">
        <time>2023-03-22T14:07:12+00:00</time>
        <ele>1702.0</ele>
      </trkpt>
      <trkpt lat="42.840984" lon="-0.13857">
        <time>2023-03-22T14:07:20+00:00</time>
        <ele>1701.0</ele>
      </trkpt>
      <trkpt lat="42.841041" lon="-0.138641">
        <time>2023-03-22T14:07:32+00:00</time>
        <ele>1699.0</ele>
      </trkpt>
      <trkpt lat="42.841096" lon="-0.138653">
        <time>2023-03-22T14:07:44+00:00</time>
        <ele>1699.0</ele>
      </trkpt>
      <trkpt lat="42.841146" lon="-0.138742">
        <time>2023-03-22T14:07:55+00:00</time>
        <ele>1695.0</ele>
      </trkpt>
      <trkpt lat="42.841221" lon="-0.138844">
        <time>2023-03-22T14:08:07+00:00</time>
        <ele>1691.0</ele>
      </trkpt>
      <trkpt lat="42.841298" lon="-0.138903">
        <time>2023-03-22T14:08:19+00:00</time>
        <ele>1689.0</ele>
      </trkpt>
      <trkpt lat="42.841402" lon="-0.138941">
        <time>2023-03-22T14:08:30+00:00</time>
        <ele>1689.0</ele>
      </trkpt>
      <trkpt lat="42.841439" lon="-0.138924">
        <time>2023-03-22T14:08:34+00:00</time>
        <ele>1690.0</ele>
      </trkpt>
      <trkpt lat="42.841466" lon="-0.138903">
        <time>2023-03-22T14:08:37+00:00</time>
        <ele>1691.0</ele>
      </trkpt>
      <trkpt lat="42.841607" lon="-0.138918">
        <time>2023-03-22T14:08:49+00:00</time>
        <ele>1691.0</ele>
      </trkpt>
      <trkpt lat="42.841685" lon="-0.138957">
        <time>2023-03-22T14:08:55+00:00</time>
        <ele>1690.0</ele>
      </trkpt>
      <trkpt lat="42.84184" lon="-0.139083">
        <time>2023-03-22T14:09:10+00:00</time>
        <ele>1687.0</ele>
      </trkpt>
      <trkpt lat="42.841929" lon="-0.139084">
        <time>2023-03-22T14:09:18+00:00</time>
        <ele>1687.0</ele>
      </trkpt>
      <trkpt lat="42.842046" lon="-0.139139">
        <time>2023-03-22T14:09:29+00:00</time>
        <ele>1686.0</ele>
      </trkpt>
      <trkpt lat="42.842097" lon="-0.139129">
        <time>2023-03-22T14:09:34+00:00</time>
        <ele>1686.0</ele>
      </trkpt>
      <trkpt lat="42.84215" lon="-0.139085">
        <time>2023-03-22T14:09:41+00:00</time>
        <ele>1686.0</ele>
      </trkpt>
      <trkpt lat="42.842233" lon="-0.139098">
        <time>2023-03-22T14:09:48+00:00</time>
        <ele>1685.0</ele>
      </trkpt>
      <trkpt lat="42.842259" lon="-0.139119">
        <time>2023-03-22T14:09:50+00:00</time>
        <ele>1685.0</ele>
      </trkpt>
      <trkpt lat="42.842302" lon="-0.139158">
        <time>2023-03-22T14:09:54+00:00</time>
        <ele>1684.0</ele>
      </trkpt>
      <trkpt lat="42.842342" lon="-0.139167">
        <time>2023-03-22T14:09:58+00:00</time>
        <ele>1683.0</ele>
      </trkpt>
      <trkpt lat="42.842402" lon="-0.139129">
        <time>2023-03-22T14:10:05+00:00</time>
        <ele>1683.0</ele>
      </trkpt>
      <trkpt lat="42.842474" lon="-0.139117">
        <time>2023-03-22T14:10:12+00:00</time>
        <ele>1682.0</ele>
      </trkpt>
      <trkpt lat="42.842478" lon="-0.139069">
        <time>2023-03-22T14:10:16+00:00</time>
        <ele>1682.0</ele>
      </trkpt>
      <trkpt lat="42.842485" lon="-0.138848">
        <time>2023-03-22T14:10:31+00:00</time>
        <ele>1685.0</ele>
      </trkpt>
      <trkpt lat="42.84252" lon="-0.138811">
        <time>2023-03-22T14:10:35+00:00</time>
        <ele>1685.0</ele>
      </trkpt>
      <trkpt lat="42.842638" lon="-0.138759">
        <time>2023-03-22T14:10:47+00:00</time>
        <ele>1684.0</ele>
      </trkpt>
      <trkpt lat="42.84278" lon="-0.138757">
        <time>2023-03-22T14:11:01+00:00</time>
        <ele>1682.0</ele>
      </trkpt>
      <trkpt lat="42.842806" lon="-0.138743">
        <time>2023-03-22T14:11:04+00:00</time>
        <ele>1682.0</ele>
      </trkpt>
      <trkpt lat="42.842869" lon="-0.13876">
        <time>2023-03-22T14:11:11+00:00</time>
        <ele>1681.0</ele>
      </trkpt>
      <trkpt lat="42.843" lon="-0.138797">
        <time>2023-03-22T14:11:22+00:00</time>
        <ele>1678.0</ele>
      </trkpt>
      <trkpt lat="42.843149" lon="-0.138761">
        <time>2023-03-22T14:11:36+00:00</time>
        <ele>1678.0</ele>
      </trkpt>
      <trkpt lat="42.843185" lon="-0.138783">
        <time>2023-03-22T14:11:39+00:00</time>
        <ele>1677.0</ele>
      </trkpt>
      <trkpt lat="42.84327" lon="-0.138835">
        <time>2023-03-22T14:11:46+00:00</time>
        <ele>1675.0</ele>
      </trkpt>
      <trkpt lat="42.843445" lon="-0.138845">
        <time>2023-03-22T14:12:03+00:00</time>
        <ele>1673.0</ele>
      </trkpt>
      <trkpt lat="42.843478" lon="-0.13881">
        <time>2023-03-22T14:12:07+00:00</time>
        <ele>1674.0</ele>
      </trkpt>
      <trkpt lat="42.84357" lon="-0.138815">
        <time>2023-03-22T14:12:15+00:00</time>
        <ele>1673.0</ele>
      </trkpt>
      <trkpt lat="42.843681" lon="-0.138763">
        <time>2023-03-22T14:12:26+00:00</time>
        <ele>1673.0</ele>
      </trkpt>
      <trkpt lat="42.8437" lon="-0.138758">
        <time>2023-03-22T14:12:28+00:00</time>
        <ele>1673.0</ele>
      </trkpt>
      <trkpt lat="42.843763" lon="-0.138764">
        <time>2023-03-22T14:12:34+00:00</time>
        <ele>1672.0</ele>
      </trkpt>
      <trkpt lat="42.843886" lon="-0.138786">
        <time>2023-03-22T14:12:45+00:00</time>
        <ele>1670.0</ele>
      </trkpt>
      <trkpt lat="42.843961" lon="-0.138728">
        <time>2023-03-22T14:12:54+00:00</time>
        <ele>1671.0</ele>
      </trkpt>
      <trkpt lat="42.844007" lon="-0.138724">
        <time>2023-03-22T14:12:58+00:00</time>
        <ele>1671.0</ele>
      </trkpt>
      <trkpt lat="42.844085" lon="-0.138679">
        <time>2023-03-22T14:13:05+00:00</time>
        <ele>1671.0</ele>
      </trkpt>
      <trkpt lat="42.844229" lon="-0.138714">
        <time>2023-03-22T14:13:18+00:00</time>
        <ele>1668.0</ele>
      </trkpt>
      <trkpt lat="42.84433" lon="-0.138735">
        <time>2023-03-22T14:13:30+00:00</time>
        <ele>1666.0</ele>
      </trkpt>
      <trkpt lat="42.844368" lon="-0.13875">
        <time>2023-03-22T14:13:44+00:00</time>
        <ele>1665.0</ele>
      </trkpt>
      <trkpt lat="42.844372" lon="-0.138789">
        <time>2023-03-22T14:14:05+00:00</time>
        <ele>1664.0</ele>
      </trkpt>
      <trkpt lat="42.844397" lon="-0.138767">
        <time>2023-03-22T14:14:25+00:00</time>
        <ele>1664.0</ele>
      </trkpt>
      <trkpt lat="42.844525" lon="-0.138782">
        <time>2023-03-22T14:14:39+00:00</time>
        <ele>1661.0</ele>
      </trkpt>
      <trkpt lat="42.844615" lon="-0.138831">
        <time>2023-03-22T14:14:51+00:00</time>
        <ele>1659.0</ele>
      </trkpt>
      <trkpt lat="42.844729" lon="-0.138872">
        <time>2023-03-22T14:15:05+00:00</time>
        <ele>1656.0</ele>
      </trkpt>
      <trkpt lat="42.844752" lon="-0.138862">
        <time>2023-03-22T14:15:08+00:00</time>
        <ele>1656.0</ele>
      </trkpt>
      <trkpt lat="42.844814" lon="-0.138868">
        <time>2023-03-22T14:15:14+00:00</time>
        <ele>1655.0</ele>
      </trkpt>
      <trkpt lat="42.844866" lon="-0.138892">
        <time>2023-03-22T14:15:18+00:00</time>
        <ele>1654.0</ele>
      </trkpt>
      <trkpt lat="42.84504" lon="-0.13889">
        <time>2023-03-22T14:15:33+00:00</time>
        <ele>1652.0</ele>
      </trkpt>
      <trkpt lat="42.845179" lon="-0.13884">
        <time>2023-03-22T14:15:46+00:00</time>
        <ele>1653.0</ele>
      </trkpt>
      <trkpt lat="42.845309" lon="-0.138792">
        <time>2023-03-22T14:15:58+00:00</time>
        <ele>1653.0</ele>
      </trkpt>
      <trkpt lat="42.845339" lon="-0.138814">
        <time>2023-03-22T14:16:01+00:00</time>
        <ele>1652.0</ele>
      </trkpt>
      <trkpt lat="42.845404" lon="-0.13882">
        <time>2023-03-22T14:16:07+00:00</time>
        <ele>1651.0</ele>
      </trkpt>
      <trkpt lat="42.845433" lon="-0.138807">
        <time>2023-03-22T14:16:10+00:00</time>
        <ele>1651.0</ele>
      </trkpt>
      <trkpt lat="42.845502" lon="-0.138741">
        <time>2023-03-22T14:16:18+00:00</time>
        <ele>1653.0</ele>
      </trkpt>
      <trkpt lat="42.845523" lon="-0.138737">
        <time>2023-03-22T14:16:20+00:00</time>
        <ele>1653.0</ele>
      </trkpt>
      <trkpt lat="42.84556" lon="-0.138718">
        <time>2023-03-22T14:16:23+00:00</time>
        <ele>1653.0</ele>
      </trkpt>
      <trkpt lat="42.845602" lon="-0.138719">
        <time>2023-03-22T14:16:26+00:00</time>
        <ele>1652.0</ele>
      </trkpt>
      <trkpt lat="42.845709" lon="-0.138604">
        <time>2023-03-22T14:16:38+00:00</time>
        <ele>1656.0</ele>
      </trkpt>
      <trkpt lat="42.845805" lon="-0.138597">
        <time>2023-03-22T14:16:50+00:00</time>
        <ele>1655.0</ele>
      </trkpt>
      <trkpt lat="42.845867" lon="-0.138582">
        <time>2023-03-22T14:17:01+00:00</time>
        <ele>1654.0</ele>
      </trkpt>
      <trkpt lat="42.845879" lon="-0.138559">
        <time>2023-03-22T14:17:04+00:00</time>
        <ele>1655.0</ele>
      </trkpt>
      <trkpt lat="42.845916" lon="-0.138573">
        <time>2023-03-22T14:17:11+00:00</time>
        <ele>1654.0</ele>
      </trkpt>
      <trkpt lat="42.845912" lon="-0.138603">
        <time>2023-03-22T14:17:13+00:00</time>
        <ele>1653.0</ele>
      </trkpt>
      <trkpt lat="42.845919" lon="-0.138674">
        <time>2023-03-22T14:17:25+00:00</time>
        <ele>1650.0</ele>
      </trkpt>
      <trkpt lat="42.845924" lon="-0.138665">
        <time>2023-03-22T14:17:26+00:00</time>
        <ele>1650.0</ele>
      </trkpt>
      <trkpt lat="42.846025" lon="-0.138574">
        <time>2023-03-22T14:17:38+00:00</time>
        <ele>1651.0</ele>
      </trkpt>
      <trkpt lat="42.8461" lon="-0.138576">
        <time>2023-03-22T14:17:44+00:00</time>
        <ele>1650.0</ele>
      </trkpt>
      <trkpt lat="42.846125" lon="-0.138599">
        <time>2023-03-22T14:17:47+00:00</time>
        <ele>1648.0</ele>
      </trkpt>
      <trkpt lat="42.846285" lon="-0.138673">
        <time>2023-03-22T14:18:04+00:00</time>
        <ele>1642.0</ele>
      </trkpt>
      <trkpt lat="42.846348" lon="-0.138688">
        <time>2023-03-22T14:18:10+00:00</time>
        <ele>1640.0</ele>
      </trkpt>
      <trkpt lat="42.846478" lon="-0.138662">
        <time>2023-03-22T14:18:26+00:00</time>
        <ele>1636.0</ele>
      </trkpt>
      <trkpt lat="42.846537" lon="-0.138567">
        <time>2023-03-22T14:18:38+00:00</time>
        <ele>1638.0</ele>
      </trkpt>
      <trkpt lat="42.846586" lon="-0.13849">
        <time>2023-03-22T14:18:49+00:00</time>
        <ele>1639.0</ele>
      </trkpt>
      <trkpt lat="42.846649" lon="-0.138413">
        <time>2023-03-22T14:19:02+00:00</time>
        <ele>1639.0</ele>
      </trkpt>
      <trkpt lat="42.846693" lon="-0.138494">
        <time>2023-03-22T14:19:14+00:00</time>
        <ele>1635.0</ele>
      </trkpt>
      <trkpt lat="42.846738" lon="-0.138439">
        <time>2023-03-22T14:19:25+00:00</time>
        <ele>1635.0</ele>
      </trkpt>
      <trkpt lat="42.84683" lon="-0.138418">
        <time>2023-03-22T14:19:37+00:00</time>
        <ele>1632.0</ele>
      </trkpt>
      <trkpt lat="42.846863" lon="-0.138426">
        <time>2023-03-22T14:19:40+00:00</time>
        <ele>1631.0</ele>
      </trkpt>
      <trkpt lat="42.846903" lon="-0.138519">
        <time>2023-03-22T14:19:47+00:00</time>
        <ele>1626.0</ele>
      </trkpt>
      <trkpt lat="42.84699" lon="-0.138522">
        <time>2023-03-22T14:19:59+00:00</time>
        <ele>1622.0</ele>
      </trkpt>
      <trkpt lat="42.847014" lon="-0.138514">
        <time>2023-03-22T14:20:01+00:00</time>
        <ele>1622.0</ele>
      </trkpt>
      <trkpt lat="42.847071" lon="-0.138534">
        <time>2023-03-22T14:20:06+00:00</time>
        <ele>1619.0</ele>
      </trkpt>
      <trkpt lat="42.847113" lon="-0.138488">
        <time>2023-03-22T14:20:11+00:00</time>
        <ele>1618.0</ele>
      </trkpt>
      <trkpt lat="42.847238" lon="-0.138429">
        <time>2023-03-22T14:20:25+00:00</time>
        <ele>1616.0</ele>
      </trkpt>
      <trkpt lat="42.847354" lon="-0.138334">
        <time>2023-03-22T14:20:39+00:00</time>
        <ele>1615.0</ele>
      </trkpt>
      <trkpt lat="42.847486" lon="-0.138297">
        <time>2023-03-22T14:20:52+00:00</time>
        <ele>1612.0</ele>
      </trkpt>
      <trkpt lat="42.847621" lon="-0.138346">
        <time>2023-03-22T14:21:05+00:00</time>
        <ele>1606.0</ele>
      </trkpt>
      <trkpt lat="42.847634" lon="-0.13835">
        <time>2023-03-22T14:21:06+00:00</time>
        <ele>1605.0</ele>
      </trkpt>
      <trkpt lat="42.847684" lon="-0.138386">
        <time>2023-03-22T14:21:10+00:00</time>
        <ele>1603.0</ele>
      </trkpt>
      <trkpt lat="42.84775" lon="-0.138377">
        <time>2023-03-22T14:21:15+00:00</time>
        <ele>1601.0</ele>
      </trkpt>
      <trkpt lat="42.847835" lon="-0.138386">
        <time>2023-03-22T14:21:22+00:00</time>
        <ele>1600.0</ele>
      </trkpt>
      <trkpt lat="42.847967" lon="-0.138414">
        <time>2023-03-22T14:21:36+00:00</time>
        <ele>1596.0</ele>
      </trkpt>
      <trkpt lat="42.848083" lon="-0.138396">
        <time>2023-03-22T14:21:47+00:00</time>
        <ele>1595.0</ele>
      </trkpt>
      <trkpt lat="42.848135" lon="-0.138405">
        <time>2023-03-22T14:21:53+00:00</time>
        <ele>1593.0</ele>
      </trkpt>
      <trkpt lat="42.848243" lon="-0.138469">
        <time>2023-03-22T14:22:05+00:00</time>
        <ele>1589.0</ele>
      </trkpt>
      <trkpt lat="42.848367" lon="-0.138541">
        <time>2023-03-22T14:22:19+00:00</time>
        <ele>1585.0</ele>
      </trkpt>
      <trkpt lat="42.848388" lon="-0.138537">
        <time>2023-03-22T14:22:22+00:00</time>
        <ele>1585.0</ele>
      </trkpt>
      <trkpt lat="42.848453" lon="-0.138537">
        <time>2023-03-22T14:22:30+00:00</time>
        <ele>1584.0</ele>
      </trkpt>
      <trkpt lat="42.848505" lon="-0.138548">
        <time>2023-03-22T14:22:35+00:00</time>
        <ele>1583.0</ele>
      </trkpt>
      <trkpt lat="42.848585" lon="-0.138593">
        <time>2023-03-22T14:22:45+00:00</time>
        <ele>1580.0</ele>
      </trkpt>
      <trkpt lat="42.848695" lon="-0.138635">
        <time>2023-03-22T14:22:57+00:00</time>
        <ele>1576.0</ele>
      </trkpt>
      <trkpt lat="42.848803" lon="-0.13866">
        <time>2023-03-22T14:23:10+00:00</time>
        <ele>1573.0</ele>
      </trkpt>
      <trkpt lat="42.84891" lon="-0.138666">
        <time>2023-03-22T14:23:21+00:00</time>
        <ele>1570.0</ele>
      </trkpt>
      <trkpt lat="42.849028" lon="-0.138773">
        <time>2023-03-22T14:23:36+00:00</time>
        <ele>1566.0</ele>
      </trkpt>
      <trkpt lat="42.849028" lon="-0.138689">
        <time>2023-03-22T14:23:46+00:00</time>
        <ele>1568.0</ele>
      </trkpt>
      <trkpt lat="42.849096" lon="-0.138685">
        <time>2023-03-22T14:23:54+00:00</time>
        <ele>1566.0</ele>
      </trkpt>
      <trkpt lat="42.849224" lon="-0.138619">
        <time>2023-03-22T14:24:09+00:00</time>
        <ele>1564.0</ele>
      </trkpt>
      <trkpt lat="42.849268" lon="-0.138574">
        <time>2023-03-22T14:24:16+00:00</time>
        <ele>1563.0</ele>
      </trkpt>
      <trkpt lat="42.849331" lon="-0.138493">
        <time>2023-03-22T14:24:25+00:00</time>
        <ele>1562.0</ele>
      </trkpt>
      <trkpt lat="42.849382" lon="-0.138472">
        <time>2023-03-22T14:24:30+00:00</time>
        <ele>1560.0</ele>
      </trkpt>
      <trkpt lat="42.849422" lon="-0.138471">
        <time>2023-03-22T14:24:34+00:00</time>
        <ele>1559.0</ele>
      </trkpt>
      <trkpt lat="42.849445" lon="-0.138467">
        <time>2023-03-22T14:24:37+00:00</time>
        <ele>1558.0</ele>
      </trkpt>
      <trkpt lat="42.849536" lon="-0.13845">
        <time>2023-03-22T14:24:46+00:00</time>
        <ele>1554.0</ele>
      </trkpt>
      <trkpt lat="42.849582" lon="-0.138435">
        <time>2023-03-22T14:24:51+00:00</time>
        <ele>1552.0</ele>
      </trkpt>
      <trkpt lat="42.849624" lon="-0.138443">
        <time>2023-03-22T14:24:55+00:00</time>
        <ele>1551.0</ele>
      </trkpt>
      <trkpt lat="42.849676" lon="-0.13837">
        <time>2023-03-22T14:25:05+00:00</time>
        <ele>1549.0</ele>
      </trkpt>
      <trkpt lat="42.84969" lon="-0.138319">
        <time>2023-03-22T14:25:10+00:00</time>
        <ele>1548.0</ele>
      </trkpt>
      <trkpt lat="42.849723" lon="-0.138288">
        <time>2023-03-22T14:25:15+00:00</time>
        <ele>1547.0</ele>
      </trkpt>
      <trkpt lat="42.849852" lon="-0.138286">
        <time>2023-03-22T14:25:28+00:00</time>
        <ele>1539.0</ele>
      </trkpt>
      <trkpt lat="42.84988" lon="-0.138317">
        <time>2023-03-22T14:25:31+00:00</time>
        <ele>1537.0</ele>
      </trkpt>
      <trkpt lat="42.849986" lon="-0.138502">
        <time>2023-03-22T14:25:44+00:00</time>
        <ele>1530.0</ele>
      </trkpt>
      <trkpt lat="42.849987" lon="-0.138646">
        <time>2023-03-22T14:25:54+00:00</time>
        <ele>1530.0</ele>
      </trkpt>
      <trkpt lat="42.849977" lon="-0.138794">
        <time>2023-03-22T14:26:06+00:00</time>
        <ele>1530.0</ele>
      </trkpt>
      <trkpt lat="42.850048" lon="-0.138637">
        <time>2023-03-22T14:26:20+00:00</time>
        <ele>1526.0</ele>
      </trkpt>
      <trkpt lat="42.850105" lon="-0.1385">
        <time>2023-03-22T14:26:31+00:00</time>
        <ele>1523.0</ele>
      </trkpt>
      <trkpt lat="42.850115" lon="-0.13842">
        <time>2023-03-22T14:26:36+00:00</time>
        <ele>1522.0</ele>
      </trkpt>
      <trkpt lat="42.850124" lon="-0.138379">
        <time>2023-03-22T14:26:39+00:00</time>
        <ele>1522.0</ele>
      </trkpt>
      <trkpt lat="42.850158" lon="-0.138309">
        <time>2023-03-22T14:26:46+00:00</time>
        <ele>1520.0</ele>
      </trkpt>
      <trkpt lat="42.850197" lon="-0.138375">
        <time>2023-03-22T14:26:51+00:00</time>
        <ele>1518.0</ele>
      </trkpt>
      <trkpt lat="42.850257" lon="-0.13855">
        <time>2023-03-22T14:27:03+00:00</time>
        <ele>1515.0</ele>
      </trkpt>
      <trkpt lat="42.850254" lon="-0.138592">
        <time>2023-03-22T14:27:06+00:00</time>
        <ele>1515.0</ele>
      </trkpt>
      <trkpt lat="42.850262" lon="-0.138671">
        <time>2023-03-22T14:27:11+00:00</time>
        <ele>1515.0</ele>
      </trkpt>
      <trkpt lat="42.850241" lon="-0.138876">
        <time>2023-03-22T14:27:25+00:00</time>
        <ele>1515.0</ele>
      </trkpt>
      <trkpt lat="42.850235" lon="-0.138911">
        <time>2023-03-22T14:27:27+00:00</time>
        <ele>1516.0</ele>
      </trkpt>
      <trkpt lat="42.850227" lon="-0.138975">
        <time>2023-03-22T14:27:31+00:00</time>
        <ele>1516.0</ele>
      </trkpt>
      <trkpt lat="42.850194" lon="-0.139082">
        <time>2023-03-22T14:27:37+00:00</time>
        <ele>1517.0</ele>
      </trkpt>
      <trkpt lat="42.850196" lon="-0.13913">
        <time>2023-03-22T14:27:40+00:00</time>
        <ele>1516.0</ele>
      </trkpt>
      <trkpt lat="42.850225" lon="-0.139203">
        <time>2023-03-22T14:27:46+00:00</time>
        <ele>1515.0</ele>
      </trkpt>
      <trkpt lat="42.850259" lon="-0.13915">
        <time>2023-03-22T14:27:51+00:00</time>
        <ele>1513.0</ele>
      </trkpt>
      <trkpt lat="42.850276" lon="-0.139084">
        <time>2023-03-22T14:27:56+00:00</time>
        <ele>1513.0</ele>
      </trkpt>
      <trkpt lat="42.850311" lon="-0.138978">
        <time>2023-03-22T14:28:06+00:00</time>
        <ele>1512.0</ele>
      </trkpt>
      <trkpt lat="42.850367" lon="-0.138843">
        <time>2023-03-22T14:28:18+00:00</time>
        <ele>1509.0</ele>
      </trkpt>
      <trkpt lat="42.850421" lon="-0.138806">
        <time>2023-03-22T14:28:26+00:00</time>
        <ele>1507.0</ele>
      </trkpt>
      <trkpt lat="42.85043" lon="-0.139015">
        <time>2023-03-22T14:28:41+00:00</time>
        <ele>1506.0</ele>
      </trkpt>
      <trkpt lat="42.850425" lon="-0.139047">
        <time>2023-03-22T14:28:43+00:00</time>
        <ele>1506.0</ele>
      </trkpt>
      <trkpt lat="42.85044" lon="-0.139081">
        <time>2023-03-22T14:28:46+00:00</time>
        <ele>1505.0</ele>
      </trkpt>
      <trkpt lat="42.850493" lon="-0.138926">
        <time>2023-03-22T14:28:59+00:00</time>
        <ele>1503.0</ele>
      </trkpt>
      <trkpt lat="42.85056" lon="-0.138785">
        <time>2023-03-22T14:29:11+00:00</time>
        <ele>1500.0</ele>
      </trkpt>
      <trkpt lat="42.850584" lon="-0.138803">
        <time>2023-03-22T14:29:14+00:00</time>
        <ele>1499.0</ele>
      </trkpt>
      <trkpt lat="42.850694" lon="-0.13891">
        <time>2023-03-22T14:29:25+00:00</time>
        <ele>1495.0</ele>
      </trkpt>
      <trkpt lat="42.850719" lon="-0.138805">
        <time>2023-03-22T14:29:33+00:00</time>
        <ele>1493.0</ele>
      </trkpt>
      <trkpt lat="42.850678" lon="-0.138494">
        <time>2023-03-22T14:29:51+00:00</time>
        <ele>1494.0</ele>
      </trkpt>
      <trkpt lat="42.850682" lon="-0.138182">
        <time>2023-03-22T14:30:08+00:00</time>
        <ele>1492.0</ele>
      </trkpt>
      <trkpt lat="42.850688" lon="-0.138163">
        <time>2023-03-22T14:30:09+00:00</time>
        <ele>1491.0</ele>
      </trkpt>
      <trkpt lat="42.850917" lon="-0.138062">
        <time>2023-03-22T14:30:28+00:00</time>
        <ele>1482.0</ele>
      </trkpt>
      <trkpt lat="42.850962" lon="-0.138134">
        <time>2023-03-22T14:30:32+00:00</time>
        <ele>1481.0</ele>
      </trkpt>
      <trkpt lat="42.850994" lon="-0.138206">
        <time>2023-03-22T14:30:36+00:00</time>
        <ele>1480.0</ele>
      </trkpt>
      <trkpt lat="42.85108" lon="-0.13841">
        <time>2023-03-22T14:30:48+00:00</time>
        <ele>1479.0</ele>
      </trkpt>
      <trkpt lat="42.851123" lon="-0.138472">
        <time>2023-03-22T14:30:53+00:00</time>
        <ele>1478.0</ele>
      </trkpt>
      <trkpt lat="42.851254" lon="-0.138346">
        <time>2023-03-22T14:31:09+00:00</time>
        <ele>1474.0</ele>
      </trkpt>
      <trkpt lat="42.85126" lon="-0.138317">
        <time>2023-03-22T14:31:11+00:00</time>
        <ele>1474.0</ele>
      </trkpt>
      <trkpt lat="42.851274" lon="-0.138143">
        <time>2023-03-22T14:31:21+00:00</time>
        <ele>1473.0</ele>
      </trkpt>
      <trkpt lat="42.851305" lon="-0.137817">
        <time>2023-03-22T14:31:40+00:00</time>
        <ele>1471.0</ele>
      </trkpt>
      <trkpt lat="42.851362" lon="-0.137538">
        <time>2023-03-22T14:31:56+00:00</time>
        <ele>1470.0</ele>
      </trkpt>
      <trkpt lat="42.851467" lon="-0.137229">
        <time>2023-03-22T14:32:14+00:00</time>
        <ele>1469.0</ele>
      </trkpt>
      <trkpt lat="42.851479" lon="-0.137189">
        <time>2023-03-22T14:32:17+00:00</time>
        <ele>1468.0</ele>
      </trkpt>
      <trkpt lat="42.851426" lon="-0.136925">
        <time>2023-03-22T14:32:33+00:00</time>
        <ele>1470.0</ele>
      </trkpt>
      <trkpt lat="42.851569" lon="-0.136909">
        <time>2023-03-22T14:32:46+00:00</time>
        <ele>1467.0</ele>
      </trkpt>
      <trkpt lat="42.851592" lon="-0.136913">
        <time>2023-03-22T14:32:48+00:00</time>
        <ele>1467.0</ele>
      </trkpt>
      <trkpt lat="42.851735" lon="-0.136685">
        <time>2023-03-22T14:33:05+00:00</time>
        <ele>1463.0</ele>
      </trkpt>
      <trkpt lat="42.851747" lon="-0.13666">
        <time>2023-03-22T14:33:07+00:00</time>
        <ele>1463.0</ele>
      </trkpt>
      <trkpt lat="42.851805" lon="-0.136637">
        <time>2023-03-22T14:33:11+00:00</time>
        <ele>1462.0</ele>
      </trkpt>
      <trkpt lat="42.852009" lon="-0.136624">
        <time>2023-03-22T14:33:26+00:00</time>
        <ele>1461.0</ele>
      </trkpt>
      <trkpt lat="42.852254" lon="-0.136574">
        <time>2023-03-22T14:33:45+00:00</time>
        <ele>1461.0</ele>
      </trkpt>
      <trkpt lat="42.852395" lon="-0.136579">
        <time>2023-03-22T14:34:02+00:00</time>
        <ele>1460.0</ele>
      </trkpt>
      <trkpt lat="42.852424" lon="-0.136606">
        <time>2023-03-22T14:34:21+00:00</time>
        <ele>1460.0</ele>
      </trkpt>
      <trkpt lat="42.852413" lon="-0.136605">
        <time>2023-03-22T14:34:36+00:00</time>
        <ele>1460.0</ele>
      </trkpt>
      <trkpt lat="42.852426" lon="-0.136612">
        <time>2023-03-22T14:34:43+00:00</time>
        <ele>1460.0</ele>
      </trkpt>
      <trkpt lat="42.852428" lon="-0.136611">
        <time>2023-03-22T14:34:44+00:00</time>
        <ele>1460.0</ele>
      </trkpt>
      <trkpt lat="42.85243" lon="-0.136615">
        <time>2023-03-22T14:35:02+00:00</time>
        <ele>1460.0</ele>
      </trkpt>
      <trkpt lat="42.852436" lon="-0.1366">
        <time>2023-03-22T14:35:22+00:00</time>
        <ele>1460.0</ele>
      </trkpt>
      <trkpt lat="42.852434" lon="-0.136601">
        <time>2023-03-22T14:35:23+00:00</time>
        <ele>1460.0</ele>
      </trkpt>
      <trkpt lat="42.852432" lon="-0.136603">
        <time>2023-03-22T14:35:24+00:00</time>
        <ele>1460.0</ele>
      </trkpt>
    </trkseg>
  </trk>
</gpx>
